<?xml version="1.0" encoding="UTF-8" standalone="no" ?>
<gpx xmlns="http://www.topografix.com/GPX/1/1" xmlns:xsi="http://www.w3.org/2001/XMLSchema-instance" xsi:schemaLocation="http://www.topografix.com/GPX/1/1 http://www.topografix.com/GPX/1/1/gpx.xsd" version="1.1" creator="VisuGPX - https://www.visugpx.com">
  <metadata>
    <name>Ajout Pyrénées</name>
    <desc><![CDATA[Randonnée sur le GR®654 Via Lemovicensis vers Saint-Jacques-de-Compostelle à travers les Landes et les Pyrénées-Atlantiques de Mont-de-Marsan à Saint-Palais. Gîtes d'étapes, Chambres d'hôtes, Maison d'hôtes, Hôtels, Camping, Refuges, Auberges, Commerces.]]></desc>
  </metadata>
  <trk>
    <name><![CDATA[GR®78 Voie du Piémont (2021)]]></name>
    <desc><![CDATA[Randonnée sur le GR®78, Voie du Piémont, à travers l'Hérault, l'Aude, l'Ariège, les Hautes-Pyrénées et les Pyrénées-Atlantiques de Capestang au col d'Oihantzarre. Gîtes d'étapes, Chambres d'hôtes, Maison d'hôtes, Hôtels, Camping, Refuges, Auberges.]]></desc>
    <extensions>
      <line xmlns="http://www.topografix.com/GPX/gpx_style/0/2">
        <color>000000</color>
        <width>4</width>
      </line>
    </extensions>
    <trkseg>
      <trkpt lat="43.32783" lon="3.04448">
        <ele>26.163</ele>
        <time>2021-02-05T10:47:51Z</time>
      </trkpt>
      <trkpt lat="43.32833" lon="3.04464">
        <ele>27.644</ele>
        <time>2021-02-05T10:48:11Z</time>
      </trkpt>
      <trkpt lat="43.32834" lon="3.04502">
        <ele>27.918</ele>
        <time>2021-02-05T10:48:31Z</time>
      </trkpt>
      <trkpt lat="43.32841" lon="3.04531">
        <ele>27.108</ele>
        <time>2021-02-05T10:48:51Z</time>
      </trkpt>
      <trkpt lat="43.3288" lon="3.04458">
        <ele>26.712</ele>
        <time>2021-02-05T10:49:11Z</time>
      </trkpt>
      <trkpt lat="43.32917" lon="3.04498">
        <ele>25.051</ele>
        <time>2021-02-05T10:49:31Z</time>
      </trkpt>
      <trkpt lat="43.32967" lon="3.04521">
        <ele>25.427</ele>
        <time>2021-02-05T10:49:51Z</time>
      </trkpt>
      <trkpt lat="43.33017" lon="3.04523">
        <ele>28.093</ele>
        <time>2021-02-05T10:50:11Z</time>
      </trkpt>
      <trkpt lat="43.33063" lon="3.04536">
        <ele>34.684</ele>
        <time>2021-02-05T10:50:31Z</time>
      </trkpt>
      <trkpt lat="43.33063" lon="3.04577">
        <ele>36.156</ele>
        <time>2021-02-05T10:50:51Z</time>
      </trkpt>
      <trkpt lat="43.33088" lon="3.04601">
        <ele>39.689</ele>
        <time>2021-02-05T10:51:11Z</time>
      </trkpt>
      <trkpt lat="43.33095" lon="3.04592">
        <ele>39.391</ele>
        <time>2021-02-05T10:51:31Z</time>
      </trkpt>
      <trkpt lat="43.33135" lon="3.04615">
        <ele>39.933</ele>
        <time>2021-02-05T10:51:51Z</time>
      </trkpt>
      <trkpt lat="43.33167" lon="3.0452">
        <ele>37.523</ele>
        <time>2021-02-05T10:52:11Z</time>
      </trkpt>
      <trkpt lat="43.3318" lon="3.04458">
        <ele>36.515</ele>
        <time>2021-02-05T10:52:31Z</time>
      </trkpt>
      <trkpt lat="43.33176" lon="3.04367">
        <ele>35.608</ele>
        <time>2021-02-05T10:52:51Z</time>
      </trkpt>
      <trkpt lat="43.33103" lon="3.04163">
        <ele>37.259</ele>
        <time>2021-02-05T10:53:11Z</time>
      </trkpt>
      <trkpt lat="43.33068" lon="3.04032">
        <ele>36.798</ele>
        <time>2021-02-05T10:53:31Z</time>
      </trkpt>
      <trkpt lat="43.33155" lon="3.03937">
        <ele>37.434</ele>
        <time>2021-02-05T10:53:51Z</time>
      </trkpt>
      <trkpt lat="43.33235" lon="3.03706">
        <ele>43.72</ele>
        <time>2021-02-05T10:54:11Z</time>
      </trkpt>
      <trkpt lat="43.33313" lon="3.03399">
        <ele>57.631</ele>
        <time>2021-02-05T10:54:31Z</time>
      </trkpt>
      <trkpt lat="43.33349" lon="3.03338">
        <ele>61.983</ele>
        <time>2021-02-05T10:54:51Z</time>
      </trkpt>
      <trkpt lat="43.33429" lon="3.0318">
        <ele>57.326</ele>
        <time>2021-02-05T10:55:11Z</time>
      </trkpt>
      <trkpt lat="43.33499" lon="3.03123">
        <ele>55.368</ele>
        <time>2021-02-05T10:55:31Z</time>
      </trkpt>
      <trkpt lat="43.33568" lon="3.03004">
        <ele>49.999</ele>
        <time>2021-02-05T10:55:51Z</time>
      </trkpt>
      <trkpt lat="43.33633" lon="3.02945">
        <ele>51.807</ele>
        <time>2021-02-05T10:56:11Z</time>
      </trkpt>
      <trkpt lat="43.33647" lon="3.02905">
        <ele>52.427</ele>
        <time>2021-02-05T10:56:31Z</time>
      </trkpt>
      <trkpt lat="43.33693" lon="3.02836">
        <ele>55.308</ele>
        <time>2021-02-05T10:56:51Z</time>
      </trkpt>
      <trkpt lat="43.33708" lon="3.02782">
        <ele>57.535</ele>
        <time>2021-02-05T10:57:11Z</time>
      </trkpt>
      <trkpt lat="43.33777" lon="3.02658">
        <ele>62.614</ele>
        <time>2021-02-05T10:57:31Z</time>
      </trkpt>
      <trkpt lat="43.33848" lon="3.02485">
        <ele>71.95</ele>
        <time>2021-02-05T10:57:51Z</time>
      </trkpt>
      <trkpt lat="43.33868" lon="3.02445">
        <ele>73.536</ele>
        <time>2021-02-05T10:58:11Z</time>
      </trkpt>
      <trkpt lat="43.33819" lon="3.02412">
        <ele>73.777</ele>
        <time>2021-02-05T10:58:31Z</time>
      </trkpt>
      <trkpt lat="43.33763" lon="3.02342">
        <ele>70.639</ele>
        <time>2021-02-05T10:58:51Z</time>
      </trkpt>
      <trkpt lat="43.33633" lon="3.02255">
        <ele>62.732</ele>
        <time>2021-02-05T10:59:11Z</time>
      </trkpt>
      <trkpt lat="43.33542" lon="3.02221">
        <ele>56.814</ele>
        <time>2021-02-05T10:59:31Z</time>
      </trkpt>
      <trkpt lat="43.33496" lon="3.0217">
        <ele>55.857</ele>
        <time>2021-02-05T10:59:51Z</time>
      </trkpt>
      <trkpt lat="43.33453" lon="3.02151">
        <ele>54.5</ele>
        <time>2021-02-05T11:00:11Z</time>
      </trkpt>
      <trkpt lat="43.33431" lon="3.02112">
        <ele>53.02</ele>
        <time>2021-02-05T11:00:31Z</time>
      </trkpt>
      <trkpt lat="43.33388" lon="3.02088">
        <ele>51.108</ele>
        <time>2021-02-05T11:00:51Z</time>
      </trkpt>
      <trkpt lat="43.33436" lon="3.01959">
        <ele>46.811</ele>
        <time>2021-02-05T11:01:11Z</time>
      </trkpt>
      <trkpt lat="43.33472" lon="3.01927">
        <ele>45.37</ele>
        <time>2021-02-05T11:01:31Z</time>
      </trkpt>
      <trkpt lat="43.3352" lon="3.01824">
        <ele>43.056</ele>
        <time>2021-02-05T11:01:51Z</time>
      </trkpt>
      <trkpt lat="43.33577" lon="3.01663">
        <ele>41.992</ele>
        <time>2021-02-05T11:02:11Z</time>
      </trkpt>
      <trkpt lat="43.336" lon="3.01577">
        <ele>42.753</ele>
        <time>2021-02-05T11:02:31Z</time>
      </trkpt>
      <trkpt lat="43.33645" lon="3.01494">
        <ele>44.475</ele>
        <time>2021-02-05T11:02:51Z</time>
      </trkpt>
      <trkpt lat="43.33689" lon="3.01445">
        <ele>44.688</ele>
        <time>2021-02-05T11:03:11Z</time>
      </trkpt>
      <trkpt lat="43.3376" lon="3.01324">
        <ele>46.39</ele>
        <time>2021-02-05T11:03:31Z</time>
      </trkpt>
      <trkpt lat="43.33803" lon="3.01295">
        <ele>47.771</ele>
        <time>2021-02-05T11:03:51Z</time>
      </trkpt>
      <trkpt lat="43.33884" lon="3.01167">
        <ele>49.141</ele>
        <time>2021-02-05T11:04:11Z</time>
      </trkpt>
      <trkpt lat="43.33887" lon="3.01146">
        <ele>48.815</ele>
        <time>2021-02-05T11:04:31Z</time>
      </trkpt>
      <trkpt lat="43.33899" lon="3.01134">
        <ele>49.408</ele>
        <time>2021-02-05T11:04:51Z</time>
      </trkpt>
      <trkpt lat="43.33946" lon="3.01019">
        <ele>48.813</ele>
        <time>2021-02-05T11:05:11Z</time>
      </trkpt>
      <trkpt lat="43.33967" lon="3.00964">
        <ele>48.242</ele>
        <time>2021-02-05T11:05:31Z</time>
      </trkpt>
      <trkpt lat="43.34057" lon="3.00818">
        <ele>51.958</ele>
        <time>2021-02-05T11:05:51Z</time>
      </trkpt>
      <trkpt lat="43.34114" lon="3.00663">
        <ele>54.934</ele>
        <time>2021-02-05T11:06:11Z</time>
      </trkpt>
      <trkpt lat="43.34195" lon="3.00518">
        <ele>61.795</ele>
        <time>2021-02-05T11:06:31Z</time>
      </trkpt>
      <trkpt lat="43.34203" lon="3.0048">
        <ele>63.137</ele>
        <time>2021-02-05T11:06:51Z</time>
      </trkpt>
      <trkpt lat="43.34278" lon="3.00414">
        <ele>71.42</ele>
        <time>2021-02-05T11:07:11Z</time>
      </trkpt>
      <trkpt lat="43.34323" lon="3.0035">
        <ele>75.392</ele>
        <time>2021-02-05T11:07:31Z</time>
      </trkpt>
      <trkpt lat="43.34359" lon="3.00255">
        <ele>77.973</ele>
        <time>2021-02-05T11:07:51Z</time>
      </trkpt>
      <trkpt lat="43.34424" lon="3.00119">
        <ele>74.885</ele>
        <time>2021-02-05T11:08:11Z</time>
      </trkpt>
      <trkpt lat="43.34468" lon="3.00048">
        <ele>79.813</ele>
        <time>2021-02-05T11:08:31Z</time>
      </trkpt>
      <trkpt lat="43.34506" lon="3.00007">
        <ele>84.608</ele>
        <time>2021-02-05T11:08:51Z</time>
      </trkpt>
      <trkpt lat="43.34567" lon="2.99918">
        <ele>95.493</ele>
        <time>2021-02-05T11:09:11Z</time>
      </trkpt>
      <trkpt lat="43.34589" lon="2.99862">
        <ele>99.232</ele>
        <time>2021-02-05T11:09:31Z</time>
      </trkpt>
      <trkpt lat="43.34582" lon="2.99838">
        <ele>99.728</ele>
        <time>2021-02-05T11:09:51Z</time>
      </trkpt>
      <trkpt lat="43.3453" lon="2.99825">
        <ele>97.384</ele>
        <time>2021-02-05T11:10:11Z</time>
      </trkpt>
      <trkpt lat="43.34498" lon="2.99796">
        <ele>97.455</ele>
        <time>2021-02-05T11:10:31Z</time>
      </trkpt>
      <trkpt lat="43.34499" lon="2.99766">
        <ele>99.847</ele>
        <time>2021-02-05T11:10:51Z</time>
      </trkpt>
      <trkpt lat="43.34548" lon="2.99719">
        <ele>102.75</ele>
        <time>2021-02-05T11:11:11Z</time>
      </trkpt>
      <trkpt lat="43.34584" lon="2.9966">
        <ele>103.822</ele>
        <time>2021-02-05T11:11:31Z</time>
      </trkpt>
      <trkpt lat="43.34602" lon="2.99591">
        <ele>102.577</ele>
        <time>2021-02-05T11:11:51Z</time>
      </trkpt>
      <trkpt lat="43.34612" lon="2.99552">
        <ele>103.061</ele>
        <time>2021-02-05T11:12:11Z</time>
      </trkpt>
      <trkpt lat="43.34707" lon="2.99523">
        <ele>111.127</ele>
        <time>2021-02-05T11:12:31Z</time>
      </trkpt>
      <trkpt lat="43.34702" lon="2.99482">
        <ele>109.608</ele>
        <time>2021-02-05T11:12:51Z</time>
      </trkpt>
      <trkpt lat="43.34707" lon="2.99467">
        <ele>109.663</ele>
        <time>2021-02-05T11:13:11Z</time>
      </trkpt>
      <trkpt lat="43.34724" lon="2.99155">
        <ele>98.432</ele>
        <time>2021-02-05T11:13:31Z</time>
      </trkpt>
      <trkpt lat="43.34715" lon="2.99114">
        <ele>96.778</ele>
        <time>2021-02-05T11:13:51Z</time>
      </trkpt>
      <trkpt lat="43.34711" lon="2.9905">
        <ele>95.444</ele>
        <time>2021-02-05T11:14:11Z</time>
      </trkpt>
      <trkpt lat="43.3468" lon="2.98873">
        <ele>94.395</ele>
        <time>2021-02-05T11:14:31Z</time>
      </trkpt>
      <trkpt lat="43.34658" lon="2.9884">
        <ele>94.267</ele>
        <time>2021-02-05T11:14:51Z</time>
      </trkpt>
      <trkpt lat="43.34656" lon="2.98807">
        <ele>94.53</ele>
        <time>2021-02-05T11:15:11Z</time>
      </trkpt>
      <trkpt lat="43.346" lon="2.98633">
        <ele>95.252</ele>
        <time>2021-02-05T11:15:31Z</time>
      </trkpt>
      <trkpt lat="43.34586" lon="2.98529">
        <ele>96.358</ele>
        <time>2021-02-05T11:15:51Z</time>
      </trkpt>
      <trkpt lat="43.34558" lon="2.98425">
        <ele>98.652</ele>
        <time>2021-02-05T11:16:11Z</time>
      </trkpt>
      <trkpt lat="43.34535" lon="2.98358">
        <ele>97.217</ele>
        <time>2021-02-05T11:16:31Z</time>
      </trkpt>
      <trkpt lat="43.34525" lon="2.98278">
        <ele>96.208</ele>
        <time>2021-02-05T11:16:51Z</time>
      </trkpt>
      <trkpt lat="43.34494" lon="2.98211">
        <ele>95.351</ele>
        <time>2021-02-05T11:17:11Z</time>
      </trkpt>
      <trkpt lat="43.3444" lon="2.98149">
        <ele>95.15</ele>
        <time>2021-02-05T11:17:31Z</time>
      </trkpt>
      <trkpt lat="43.34414" lon="2.9811">
        <ele>96.056</ele>
        <time>2021-02-05T11:17:51Z</time>
      </trkpt>
      <trkpt lat="43.34363" lon="2.98062">
        <ele>94.842</ele>
        <time>2021-02-05T11:18:11Z</time>
      </trkpt>
      <trkpt lat="43.3436" lon="2.98035">
        <ele>94.273</ele>
        <time>2021-02-05T11:18:31Z</time>
      </trkpt>
      <trkpt lat="43.34474" lon="2.97981">
        <ele>99.635</ele>
        <time>2021-02-05T11:18:51Z</time>
      </trkpt>
      <trkpt lat="43.3453" lon="2.97687">
        <ele>111.868</ele>
        <time>2021-02-05T11:19:11Z</time>
      </trkpt>
      <trkpt lat="43.34551" lon="2.97621">
        <ele>117.84</ele>
        <time>2021-02-05T11:19:31Z</time>
      </trkpt>
      <trkpt lat="43.34552" lon="2.97542">
        <ele>119.853</ele>
        <time>2021-02-05T11:19:51Z</time>
      </trkpt>
      <trkpt lat="43.34611" lon="2.97413">
        <ele>122.304</ele>
        <time>2021-02-05T11:20:11Z</time>
      </trkpt>
      <trkpt lat="43.34623" lon="2.97274">
        <ele>120.014</ele>
        <time>2021-02-05T11:20:31Z</time>
      </trkpt>
      <trkpt lat="43.34599" lon="2.97223">
        <ele>118.608</ele>
        <time>2021-02-05T11:20:51Z</time>
      </trkpt>
      <trkpt lat="43.34628" lon="2.97153">
        <ele>117.821</ele>
        <time>2021-02-05T11:21:11Z</time>
      </trkpt>
      <trkpt lat="43.34548" lon="2.97089">
        <ele>114.44</ele>
        <time>2021-02-05T11:21:31Z</time>
      </trkpt>
      <trkpt lat="43.34596" lon="2.96976">
        <ele>109.546</ele>
        <time>2021-02-05T11:21:51Z</time>
      </trkpt>
      <trkpt lat="43.34626" lon="2.96841">
        <ele>111.812</ele>
        <time>2021-02-05T11:22:11Z</time>
      </trkpt>
      <trkpt lat="43.34623" lon="2.9676">
        <ele>114.213</ele>
        <time>2021-02-05T11:22:31Z</time>
      </trkpt>
      <trkpt lat="43.34636" lon="2.96691">
        <ele>117.855</ele>
        <time>2021-02-05T11:22:51Z</time>
      </trkpt>
      <trkpt lat="43.34707" lon="2.96699">
        <ele>118.178</ele>
        <time>2021-02-05T11:23:11Z</time>
      </trkpt>
      <trkpt lat="43.34707" lon="2.96659">
        <ele>118.38</ele>
        <time>2021-02-05T11:23:31Z</time>
      </trkpt>
      <trkpt lat="43.34661" lon="2.96449">
        <ele>115.651</ele>
        <time>2021-02-05T11:23:51Z</time>
      </trkpt>
      <trkpt lat="43.34595" lon="2.96402">
        <ele>118.101</ele>
        <time>2021-02-05T11:24:11Z</time>
      </trkpt>
      <trkpt lat="43.34596" lon="2.96328">
        <ele>116.711</ele>
        <time>2021-02-05T11:24:31Z</time>
      </trkpt>
      <trkpt lat="43.34583" lon="2.96277">
        <ele>116.308</ele>
        <time>2021-02-05T11:24:51Z</time>
      </trkpt>
      <trkpt lat="43.34649" lon="2.96187">
        <ele>117.851</ele>
        <time>2021-02-05T11:25:11Z</time>
      </trkpt>
      <trkpt lat="43.34653" lon="2.96161">
        <ele>118.44</ele>
        <time>2021-02-05T11:25:31Z</time>
      </trkpt>
      <trkpt lat="43.34685" lon="2.96071">
        <ele>121.546</ele>
        <time>2021-02-05T11:25:51Z</time>
      </trkpt>
      <trkpt lat="43.34723" lon="2.96032">
        <ele>120.922</ele>
        <time>2021-02-05T11:26:11Z</time>
      </trkpt>
      <trkpt lat="43.34732" lon="2.96004">
        <ele>120.873</ele>
        <time>2021-02-05T11:26:31Z</time>
      </trkpt>
      <trkpt lat="43.34827" lon="2.95878">
        <ele>111.485</ele>
        <time>2021-02-05T11:26:51Z</time>
      </trkpt>
      <trkpt lat="43.34881" lon="2.95851">
        <ele>104.988</ele>
        <time>2021-02-05T11:27:11Z</time>
      </trkpt>
      <trkpt lat="43.34964" lon="2.95802">
        <ele>91.33</ele>
        <time>2021-02-05T11:27:31Z</time>
      </trkpt>
      <trkpt lat="43.34988" lon="2.95759">
        <ele>85.357</ele>
        <time>2021-02-05T11:27:51Z</time>
      </trkpt>
      <trkpt lat="43.34967" lon="2.95616">
        <ele>79.7</ele>
        <time>2021-02-05T11:28:11Z</time>
      </trkpt>
      <trkpt lat="43.35132" lon="2.95478">
        <ele>81.22</ele>
        <time>2021-02-05T11:28:31Z</time>
      </trkpt>
      <trkpt lat="43.35139" lon="2.95414">
        <ele>82.308</ele>
        <time>2021-02-05T11:28:51Z</time>
      </trkpt>
      <trkpt lat="43.35111" lon="2.95326">
        <ele>79.991</ele>
        <time>2021-02-05T11:29:11Z</time>
      </trkpt>
      <trkpt lat="43.35082" lon="2.95129">
        <ele>77.02</ele>
        <time>2021-02-05T11:29:31Z</time>
      </trkpt>
      <trkpt lat="43.35094" lon="2.95054">
        <ele>74.816</ele>
        <time>2021-02-05T11:29:51Z</time>
      </trkpt>
      <trkpt lat="43.35158" lon="2.94962">
        <ele>74.152</ele>
        <time>2021-02-05T11:30:11Z</time>
      </trkpt>
      <trkpt lat="43.35341" lon="2.946">
        <ele>75.873</ele>
        <time>2021-02-05T11:30:31Z</time>
      </trkpt>
      <trkpt lat="43.35407" lon="2.94455">
        <ele>78.595</ele>
        <time>2021-02-05T11:30:51Z</time>
      </trkpt>
      <trkpt lat="43.35453" lon="2.94307">
        <ele>79.858</ele>
        <time>2021-02-05T11:31:11Z</time>
      </trkpt>
      <trkpt lat="43.35498" lon="2.94233">
        <ele>81.77</ele>
        <time>2021-02-05T11:31:31Z</time>
      </trkpt>
      <trkpt lat="43.35518" lon="2.94128">
        <ele>82.279</ele>
        <time>2021-02-05T11:31:51Z</time>
      </trkpt>
      <trkpt lat="43.35538" lon="2.94128">
        <ele>83.505</ele>
        <time>2021-02-05T11:32:11Z</time>
      </trkpt>
      <trkpt lat="43.35545" lon="2.94103">
        <ele>84.125</ele>
        <time>2021-02-05T11:32:31Z</time>
      </trkpt>
      <trkpt lat="43.35545" lon="2.93997">
        <ele>83.208</ele>
        <time>2021-02-05T11:32:51Z</time>
      </trkpt>
      <trkpt lat="43.3551" lon="2.93991">
        <ele>81.643</ele>
        <time>2021-02-05T11:33:11Z</time>
      </trkpt>
      <trkpt lat="43.35489" lon="2.94017">
        <ele>80.712</ele>
        <time>2021-02-05T11:33:31Z</time>
      </trkpt>
      <trkpt lat="43.35463" lon="2.94022">
        <ele>80.058</ele>
        <time>2021-02-05T11:33:51Z</time>
      </trkpt>
      <trkpt lat="43.35443" lon="2.94035">
        <ele>79.854</ele>
        <time>2021-02-05T11:34:11Z</time>
      </trkpt>
      <trkpt lat="43.35416" lon="2.94001">
        <ele>78.165</ele>
        <time>2021-02-05T11:34:31Z</time>
      </trkpt>
      <trkpt lat="43.35385" lon="2.93999">
        <ele>78.867</ele>
        <time>2021-02-05T11:34:51Z</time>
      </trkpt>
      <trkpt lat="43.3527" lon="2.93889">
        <ele>83.79</ele>
        <time>2021-02-05T11:35:11Z</time>
      </trkpt>
      <trkpt lat="43.35258" lon="2.93842">
        <ele>85.962</ele>
        <time>2021-02-05T11:35:31Z</time>
      </trkpt>
      <trkpt lat="43.35229" lon="2.93783">
        <ele>91.199</ele>
        <time>2021-02-05T11:35:51Z</time>
      </trkpt>
      <trkpt lat="43.35223" lon="2.93743">
        <ele>92.807</ele>
        <time>2021-02-05T11:36:11Z</time>
      </trkpt>
      <trkpt lat="43.35153" lon="2.93627">
        <ele>101.427</ele>
        <time>2021-02-05T11:36:31Z</time>
      </trkpt>
      <trkpt lat="43.35077" lon="2.93432">
        <ele>104.908</ele>
        <time>2021-02-05T11:36:51Z</time>
      </trkpt>
      <trkpt lat="43.34991" lon="2.93424">
        <ele>108.135</ele>
        <time>2021-02-05T11:37:11Z</time>
      </trkpt>
      <trkpt lat="43.34935" lon="2.93398">
        <ele>111.354</ele>
        <time>2021-02-05T11:37:31Z</time>
      </trkpt>
      <trkpt lat="43.3478" lon="2.93184">
        <ele>114.43</ele>
        <time>2021-02-05T11:37:51Z</time>
      </trkpt>
      <trkpt lat="43.34719" lon="2.93056">
        <ele>118.556</ele>
        <time>2021-02-05T11:38:11Z</time>
      </trkpt>
      <trkpt lat="43.34692" lon="2.93029">
        <ele>120.827</ele>
        <time>2021-02-05T11:38:31Z</time>
      </trkpt>
      <trkpt lat="43.34661" lon="2.92934">
        <ele>126.079</ele>
        <time>2021-02-05T11:38:51Z</time>
      </trkpt>
      <trkpt lat="43.34597" lon="2.92826">
        <ele>140.192</ele>
        <time>2021-02-05T11:39:11Z</time>
      </trkpt>
      <trkpt lat="43.34551" lon="2.92703">
        <ele>152.934</ele>
        <time>2021-02-05T11:39:31Z</time>
      </trkpt>
      <trkpt lat="43.3453" lon="2.92668">
        <ele>155.726</ele>
        <time>2021-02-05T11:39:51Z</time>
      </trkpt>
      <trkpt lat="43.34519" lon="2.92614">
        <ele>159.147</ele>
        <time>2021-02-05T11:40:11Z</time>
      </trkpt>
      <trkpt lat="43.34481" lon="2.92502">
        <ele>170.211</ele>
        <time>2021-02-05T11:40:31Z</time>
      </trkpt>
      <trkpt lat="43.34497" lon="2.92417">
        <ele>175.508</ele>
        <time>2021-02-05T11:40:51Z</time>
      </trkpt>
      <trkpt lat="43.34472" lon="2.92345">
        <ele>181.798</ele>
        <time>2021-02-05T11:41:11Z</time>
      </trkpt>
      <trkpt lat="43.34469" lon="2.92303">
        <ele>184.797</ele>
        <time>2021-02-05T11:41:31Z</time>
      </trkpt>
      <trkpt lat="43.3447" lon="2.92204">
        <ele>190.893</ele>
        <time>2021-02-05T11:41:51Z</time>
      </trkpt>
      <trkpt lat="43.34455" lon="2.92168">
        <ele>193.039</ele>
        <time>2021-02-05T11:42:11Z</time>
      </trkpt>
      <trkpt lat="43.34428" lon="2.92081">
        <ele>197.62</ele>
        <time>2021-02-05T11:42:31Z</time>
      </trkpt>
      <trkpt lat="43.34367" lon="2.91936">
        <ele>196.442</ele>
        <time>2021-02-05T11:42:51Z</time>
      </trkpt>
      <trkpt lat="43.3434" lon="2.91806">
        <ele>195.285</ele>
        <time>2021-02-05T11:43:11Z</time>
      </trkpt>
      <trkpt lat="43.34284" lon="2.9171">
        <ele>192.847</ele>
        <time>2021-02-05T11:43:31Z</time>
      </trkpt>
      <trkpt lat="43.34253" lon="2.9168">
        <ele>190.575</ele>
        <time>2021-02-05T11:43:51Z</time>
      </trkpt>
      <trkpt lat="43.34245" lon="2.91647">
        <ele>188.328</ele>
        <time>2021-02-05T11:44:11Z</time>
      </trkpt>
      <trkpt lat="43.34284" lon="2.91457">
        <ele>175.72</ele>
        <time>2021-02-05T11:44:31Z</time>
      </trkpt>
      <trkpt lat="43.3426" lon="2.91391">
        <ele>164.108</ele>
        <time>2021-02-05T11:44:51Z</time>
      </trkpt>
      <trkpt lat="43.34235" lon="2.91286">
        <ele>149.543</ele>
        <time>2021-02-05T11:45:11Z</time>
      </trkpt>
      <trkpt lat="43.34234" lon="2.91206">
        <ele>147.062</ele>
        <time>2021-02-05T11:45:31Z</time>
      </trkpt>
      <trkpt lat="43.34149" lon="2.91114">
        <ele>132.818</ele>
        <time>2021-02-05T11:45:51Z</time>
      </trkpt>
      <trkpt lat="43.34103" lon="2.90989">
        <ele>122.284</ele>
        <time>2021-02-05T11:46:11Z</time>
      </trkpt>
      <trkpt lat="43.34052" lon="2.90944">
        <ele>110.155</ele>
        <time>2021-02-05T11:46:31Z</time>
      </trkpt>
      <trkpt lat="43.34031" lon="2.90902">
        <ele>105.187</ele>
        <time>2021-02-05T11:46:51Z</time>
      </trkpt>
      <trkpt lat="43.34001" lon="2.90894">
        <ele>101.22</ele>
        <time>2021-02-05T11:47:11Z</time>
      </trkpt>
      <trkpt lat="43.3393" lon="2.90747">
        <ele>99.322</ele>
        <time>2021-02-05T11:47:31Z</time>
      </trkpt>
      <trkpt lat="43.3384" lon="2.90709">
        <ele>100.557</ele>
        <time>2021-02-05T11:47:51Z</time>
      </trkpt>
      <trkpt lat="43.33791" lon="2.90702">
        <ele>97.9</ele>
        <time>2021-02-05T11:48:11Z</time>
      </trkpt>
      <trkpt lat="43.33768" lon="2.90668">
        <ele>98.42</ele>
        <time>2021-02-05T11:48:31Z</time>
      </trkpt>
      <trkpt lat="43.33745" lon="2.90668">
        <ele>96.308</ele>
        <time>2021-02-05T11:48:51Z</time>
      </trkpt>
      <trkpt lat="43.33712" lon="2.90406">
        <ele>94.741</ele>
        <time>2021-02-05T11:49:11Z</time>
      </trkpt>
      <trkpt lat="43.33663" lon="2.90385">
        <ele>95.96</ele>
        <time>2021-02-05T11:49:31Z</time>
      </trkpt>
      <trkpt lat="43.33648" lon="2.90431">
        <ele>92.826</ele>
        <time>2021-02-05T11:49:51Z</time>
      </trkpt>
      <trkpt lat="43.33585" lon="2.90401">
        <ele>92.442</ele>
        <time>2021-02-05T11:50:11Z</time>
      </trkpt>
      <trkpt lat="43.33525" lon="2.90336">
        <ele>87.713</ele>
        <time>2021-02-05T11:50:31Z</time>
      </trkpt>
      <trkpt lat="43.33508" lon="2.90292">
        <ele>87.155</ele>
        <time>2021-02-05T11:50:51Z</time>
      </trkpt>
      <trkpt lat="43.33507" lon="2.90242">
        <ele>88.288</ele>
        <time>2021-02-05T11:51:11Z</time>
      </trkpt>
      <trkpt lat="43.33489" lon="2.90231">
        <ele>87.47</ele>
        <time>2021-02-05T11:51:31Z</time>
      </trkpt>
      <trkpt lat="43.33461" lon="2.90268">
        <ele>85.882</ele>
        <time>2021-02-05T11:51:51Z</time>
      </trkpt>
      <trkpt lat="43.3344" lon="2.9025">
        <ele>86.343</ele>
        <time>2021-02-05T11:52:11Z</time>
      </trkpt>
      <trkpt lat="43.33384" lon="2.90219">
        <ele>89.817</ele>
        <time>2021-02-05T11:52:31Z</time>
      </trkpt>
      <trkpt lat="43.33293" lon="2.90153">
        <ele>95.808</ele>
        <time>2021-02-05T11:52:51Z</time>
      </trkpt>
      <trkpt lat="43.33247" lon="2.90081">
        <ele>100.264</ele>
        <time>2021-02-05T11:53:11Z</time>
      </trkpt>
      <trkpt lat="43.33177" lon="2.90056">
        <ele>100.183</ele>
        <time>2021-02-05T11:53:31Z</time>
      </trkpt>
      <trkpt lat="43.33162" lon="2.90034">
        <ele>101.949</ele>
        <time>2021-02-05T11:53:51Z</time>
      </trkpt>
      <trkpt lat="43.33184" lon="2.89986">
        <ele>107.895</ele>
        <time>2021-02-05T11:54:11Z</time>
      </trkpt>
      <trkpt lat="43.33183" lon="2.89972">
        <ele>109.226</ele>
        <time>2021-02-05T11:54:31Z</time>
      </trkpt>
      <trkpt lat="43.33136" lon="2.89968">
        <ele>110.938</ele>
        <time>2021-02-05T11:54:51Z</time>
      </trkpt>
      <trkpt lat="43.33113" lon="2.89987">
        <ele>109.631</ele>
        <time>2021-02-05T11:55:11Z</time>
      </trkpt>
      <trkpt lat="43.33094" lon="2.89986">
        <ele>110.823</ele>
        <time>2021-02-05T11:55:31Z</time>
      </trkpt>
      <trkpt lat="43.33067" lon="2.89965">
        <ele>114.331</ele>
        <time>2021-02-05T11:55:51Z</time>
      </trkpt>
      <trkpt lat="43.33039" lon="2.89955">
        <ele>115.161</ele>
        <time>2021-02-05T11:56:11Z</time>
      </trkpt>
      <trkpt lat="43.3292" lon="2.89866">
        <ele>124.107</ele>
        <time>2021-02-05T11:56:31Z</time>
      </trkpt>
      <trkpt lat="43.32911" lon="2.89837">
        <ele>128.108</ele>
        <time>2021-02-05T11:56:51Z</time>
      </trkpt>
      <trkpt lat="43.32933" lon="2.8978">
        <ele>134.139</ele>
        <time>2021-02-05T11:57:11Z</time>
      </trkpt>
      <trkpt lat="43.32912" lon="2.89683">
        <ele>136.448</ele>
        <time>2021-02-05T11:57:31Z</time>
      </trkpt>
      <trkpt lat="43.32878" lon="2.89627">
        <ele>139.714</ele>
        <time>2021-02-05T11:57:51Z</time>
      </trkpt>
      <trkpt lat="43.32827" lon="2.8962">
        <ele>145.94</ele>
        <time>2021-02-05T11:58:11Z</time>
      </trkpt>
      <trkpt lat="43.32794" lon="2.89611">
        <ele>152.211</ele>
        <time>2021-02-05T11:58:31Z</time>
      </trkpt>
      <trkpt lat="43.32781" lon="2.89557">
        <ele>154.833</ele>
        <time>2021-02-05T11:58:51Z</time>
      </trkpt>
      <trkpt lat="43.32771" lon="2.8953">
        <ele>157.556</ele>
        <time>2021-02-05T11:59:11Z</time>
      </trkpt>
      <trkpt lat="43.32749" lon="2.89365">
        <ele>162.388</ele>
        <time>2021-02-05T11:59:31Z</time>
      </trkpt>
      <trkpt lat="43.3272" lon="2.89274">
        <ele>155.613</ele>
        <time>2021-02-05T11:59:51Z</time>
      </trkpt>
      <trkpt lat="43.32697" lon="2.89268">
        <ele>155.843</ele>
        <time>2021-02-05T12:00:11Z</time>
      </trkpt>
      <trkpt lat="43.32672" lon="2.89277">
        <ele>158.907</ele>
        <time>2021-02-05T12:00:31Z</time>
      </trkpt>
      <trkpt lat="43.32607" lon="2.89334">
        <ele>162.908</ele>
        <time>2021-02-05T12:00:51Z</time>
      </trkpt>
      <trkpt lat="43.32564" lon="2.89387">
        <ele>166.797</ele>
        <time>2021-02-05T12:01:11Z</time>
      </trkpt>
      <trkpt lat="43.32543" lon="2.89408">
        <ele>167.296</ele>
        <time>2021-02-05T12:01:31Z</time>
      </trkpt>
      <trkpt lat="43.32592" lon="2.89285">
        <ele>157.092</ele>
        <time>2021-02-05T12:01:51Z</time>
      </trkpt>
      <trkpt lat="43.32614" lon="2.89251">
        <ele>154.118</ele>
        <time>2021-02-05T12:02:11Z</time>
      </trkpt>
      <trkpt lat="43.32629" lon="2.89203">
        <ele>147.699</ele>
        <time>2021-02-05T12:02:31Z</time>
      </trkpt>
      <trkpt lat="43.32629" lon="2.89165">
        <ele>142.381</ele>
        <time>2021-02-05T12:02:51Z</time>
      </trkpt>
      <trkpt lat="43.32669" lon="2.89081">
        <ele>126.764</ele>
        <time>2021-02-05T12:03:11Z</time>
      </trkpt>
      <trkpt lat="43.32674" lon="2.88977">
        <ele>122.336</ele>
        <time>2021-02-05T12:03:31Z</time>
      </trkpt>
      <trkpt lat="43.32642" lon="2.88944">
        <ele>127.128</ele>
        <time>2021-02-05T12:03:51Z</time>
      </trkpt>
      <trkpt lat="43.32648" lon="2.88913">
        <ele>124.089</ele>
        <time>2021-02-05T12:04:11Z</time>
      </trkpt>
      <trkpt lat="43.32649" lon="2.88874">
        <ele>120.717</ele>
        <time>2021-02-05T12:04:31Z</time>
      </trkpt>
      <trkpt lat="43.32658" lon="2.88858">
        <ele>117.108</ele>
        <time>2021-02-05T12:04:51Z</time>
      </trkpt>
      <trkpt lat="43.32672" lon="2.88781">
        <ele>109.088</ele>
        <time>2021-02-05T12:05:11Z</time>
      </trkpt>
      <trkpt lat="43.32654" lon="2.88721">
        <ele>107.777</ele>
        <time>2021-02-05T12:05:31Z</time>
      </trkpt>
      <trkpt lat="43.32611" lon="2.88633">
        <ele>106.873</ele>
        <time>2021-02-05T12:05:51Z</time>
      </trkpt>
      <trkpt lat="43.32603" lon="2.8849">
        <ele>96.349</ele>
        <time>2021-02-05T12:06:11Z</time>
      </trkpt>
      <trkpt lat="43.32608" lon="2.88464">
        <ele>91.93</ele>
        <time>2021-02-05T12:06:31Z</time>
      </trkpt>
      <trkpt lat="43.32595" lon="2.88423">
        <ele>88.932</ele>
        <time>2021-02-05T12:06:51Z</time>
      </trkpt>
      <trkpt lat="43.3259" lon="2.88357">
        <ele>78.855</ele>
        <time>2021-02-05T12:07:11Z</time>
      </trkpt>
      <trkpt lat="43.32578" lon="2.88354">
        <ele>78.987</ele>
        <time>2021-02-05T12:07:31Z</time>
      </trkpt>
      <trkpt lat="43.32568" lon="2.88329">
        <ele>74.931</ele>
        <time>2021-02-05T12:07:51Z</time>
      </trkpt>
      <trkpt lat="43.32548" lon="2.88303">
        <ele>73.561</ele>
        <time>2021-02-05T12:08:11Z</time>
      </trkpt>
      <trkpt lat="43.32533" lon="2.88262">
        <ele>70.807</ele>
        <time>2021-02-05T12:08:31Z</time>
      </trkpt>
      <trkpt lat="43.32406" lon="2.88106">
        <ele>64.608</ele>
        <time>2021-02-05T12:08:51Z</time>
      </trkpt>
      <trkpt lat="43.32348" lon="2.88073">
        <ele>63.079</ele>
        <time>2021-02-05T12:09:11Z</time>
      </trkpt>
      <trkpt lat="43.3226" lon="2.88115">
        <ele>62.788</ele>
        <time>2021-02-05T12:09:31Z</time>
      </trkpt>
      <trkpt lat="43.32227" lon="2.88009">
        <ele>59.624</ele>
        <time>2021-02-05T12:09:51Z</time>
      </trkpt>
      <trkpt lat="43.32217" lon="2.87959">
        <ele>59.16</ele>
        <time>2021-02-05T12:10:11Z</time>
      </trkpt>
      <trkpt lat="43.3216" lon="2.87855">
        <ele>59.741</ele>
        <time>2021-02-05T12:10:31Z</time>
      </trkpt>
      <trkpt lat="43.32164" lon="2.87783">
        <ele>61.243</ele>
        <time>2021-02-05T12:10:51Z</time>
      </trkpt>
      <trkpt lat="43.32138" lon="2.87659">
        <ele>61.456</ele>
        <time>2021-02-05T12:11:11Z</time>
      </trkpt>
      <trkpt lat="43.32147" lon="2.87622">
        <ele>62.398</ele>
        <time>2021-02-05T12:11:31Z</time>
      </trkpt>
      <trkpt lat="43.32162" lon="2.87484">
        <ele>64.968</ele>
        <time>2021-02-05T12:11:51Z</time>
      </trkpt>
      <trkpt lat="43.3209" lon="2.87418">
        <ele>63.242</ele>
        <time>2021-02-05T12:12:11Z</time>
      </trkpt>
      <trkpt lat="43.31979" lon="2.8734">
        <ele>61.926</ele>
        <time>2021-02-05T12:12:31Z</time>
      </trkpt>
      <trkpt lat="43.31903" lon="2.87303">
        <ele>62.408</ele>
        <time>2021-02-05T12:12:51Z</time>
      </trkpt>
      <trkpt lat="43.31878" lon="2.87317">
        <ele>62.392</ele>
        <time>2021-02-05T12:13:11Z</time>
      </trkpt>
      <trkpt lat="43.3187" lon="2.87286">
        <ele>62.961</ele>
        <time>2021-02-05T12:13:31Z</time>
      </trkpt>
      <trkpt lat="43.31847" lon="2.87268">
        <ele>63.417</ele>
        <time>2021-02-05T12:13:51Z</time>
      </trkpt>
      <trkpt lat="43.31835" lon="2.87229">
        <ele>63.763</ele>
        <time>2021-02-05T12:14:11Z</time>
      </trkpt>
      <trkpt lat="43.31798" lon="2.87243">
        <ele>62.264</ele>
        <time>2021-02-05T12:14:31Z</time>
      </trkpt>
      <trkpt lat="43.31794" lon="2.87239">
        <ele>62.016</ele>
        <time>2021-02-05T12:14:51Z</time>
      </trkpt>
      <trkpt lat="43.31784" lon="2.87249">
        <ele>61.679</ele>
        <time>2021-02-05T12:15:11Z</time>
      </trkpt>
      <trkpt lat="43.31783" lon="2.8726">
        <ele>61.471</ele>
        <time>2021-02-05T12:15:31Z</time>
      </trkpt>
      <trkpt lat="43.31771" lon="2.87269">
        <ele>60.776</ele>
        <time>2021-02-05T12:15:51Z</time>
      </trkpt>
      <trkpt lat="43.31764" lon="2.87223">
        <ele>60.39</ele>
        <time>2021-02-05T12:16:11Z</time>
      </trkpt>
      <trkpt lat="43.31773" lon="2.87186">
        <ele>60.319</ele>
        <time>2021-02-05T12:16:31Z</time>
      </trkpt>
      <trkpt lat="43.31767" lon="2.87121">
        <ele>59.708</ele>
        <time>2021-02-05T12:16:51Z</time>
      </trkpt>
      <trkpt lat="43.31845" lon="2.87068">
        <ele>62.253</ele>
        <time>2021-02-05T12:17:11Z</time>
      </trkpt>
      <trkpt lat="43.3183" lon="2.86996">
        <ele>62.842</ele>
        <time>2021-02-05T12:17:31Z</time>
      </trkpt>
      <trkpt lat="43.3182" lon="2.86861">
        <ele>62.678</ele>
        <time>2021-02-05T12:17:51Z</time>
      </trkpt>
      <trkpt lat="43.31726" lon="2.86693">
        <ele>61.644</ele>
        <time>2021-02-05T12:18:11Z</time>
      </trkpt>
      <trkpt lat="43.31689" lon="2.86696">
        <ele>60.755</ele>
        <time>2021-02-05T12:18:31Z</time>
      </trkpt>
      <trkpt lat="43.31604" lon="2.86672">
        <ele>60.247</ele>
        <time>2021-02-05T12:18:51Z</time>
      </trkpt>
      <trkpt lat="43.31458" lon="2.86463">
        <ele>67.32</ele>
        <time>2021-02-05T12:19:11Z</time>
      </trkpt>
      <trkpt lat="43.31425" lon="2.86365">
        <ele>68.462</ele>
        <time>2021-02-05T12:19:31Z</time>
      </trkpt>
      <trkpt lat="43.31361" lon="2.86274">
        <ele>66.844</ele>
        <time>2021-02-05T12:19:51Z</time>
      </trkpt>
      <trkpt lat="43.31259" lon="2.86206">
        <ele>65.905</ele>
        <time>2021-02-05T12:20:11Z</time>
      </trkpt>
      <trkpt lat="43.31161" lon="2.86244">
        <ele>65.115</ele>
        <time>2021-02-05T12:20:31Z</time>
      </trkpt>
      <trkpt lat="43.30971" lon="2.86111">
        <ele>64.408</ele>
        <time>2021-02-05T12:20:51Z</time>
      </trkpt>
      <trkpt lat="43.30835" lon="2.86067">
        <ele>63.09</ele>
        <time>2021-02-05T12:21:11Z</time>
      </trkpt>
      <trkpt lat="43.30823" lon="2.86037">
        <ele>62.769</ele>
        <time>2021-02-05T12:21:31Z</time>
      </trkpt>
      <trkpt lat="43.3083" lon="2.86026">
        <ele>62.955</ele>
        <time>2021-02-05T12:21:51Z</time>
      </trkpt>
      <trkpt lat="43.30822" lon="2.85989">
        <ele>62.591</ele>
        <time>2021-02-05T12:22:11Z</time>
      </trkpt>
      <trkpt lat="43.30804" lon="2.85977">
        <ele>61.812</ele>
        <time>2021-02-05T12:22:31Z</time>
      </trkpt>
      <trkpt lat="43.30712" lon="2.86014">
        <ele>60.334</ele>
        <time>2021-02-05T12:22:51Z</time>
      </trkpt>
      <trkpt lat="43.30689" lon="2.86005">
        <ele>60.167</ele>
        <time>2021-02-05T12:23:11Z</time>
      </trkpt>
      <trkpt lat="43.30658" lon="2.85893">
        <ele>60.929</ele>
        <time>2021-02-05T12:23:31Z</time>
      </trkpt>
      <trkpt lat="43.30526" lon="2.85877">
        <ele>60.043</ele>
        <time>2021-02-05T12:23:51Z</time>
      </trkpt>
      <trkpt lat="43.30464" lon="2.85829">
        <ele>62.164</ele>
        <time>2021-02-05T12:24:11Z</time>
      </trkpt>
      <trkpt lat="43.304" lon="2.85742">
        <ele>63.81</ele>
        <time>2021-02-05T12:24:31Z</time>
      </trkpt>
      <trkpt lat="43.30055" lon="2.85623">
        <ele>79.008</ele>
        <time>2021-02-05T12:24:51Z</time>
      </trkpt>
      <trkpt lat="43.29932" lon="2.85543">
        <ele>76.25</ele>
        <time>2021-02-05T12:25:11Z</time>
      </trkpt>
      <trkpt lat="43.29874" lon="2.85342">
        <ele>72.049</ele>
        <time>2021-02-05T12:25:31Z</time>
      </trkpt>
      <trkpt lat="43.29817" lon="2.85159">
        <ele>69.435</ele>
        <time>2021-02-05T12:25:51Z</time>
      </trkpt>
      <trkpt lat="43.29727" lon="2.85044">
        <ele>68.391</ele>
        <time>2021-02-05T12:26:11Z</time>
      </trkpt>
      <trkpt lat="43.29689" lon="2.84968">
        <ele>67.182</ele>
        <time>2021-02-05T12:26:31Z</time>
      </trkpt>
      <trkpt lat="43.29624" lon="2.84987">
        <ele>68.824</ele>
        <time>2021-02-05T12:26:51Z</time>
      </trkpt>
      <trkpt lat="43.296" lon="2.84939">
        <ele>68.657</ele>
        <time>2021-02-05T12:27:11Z</time>
      </trkpt>
      <trkpt lat="43.29665" lon="2.84658">
        <ele>65.069</ele>
        <time>2021-02-05T12:27:31Z</time>
      </trkpt>
      <trkpt lat="43.29733" lon="2.84465">
        <ele>64.774</ele>
        <time>2021-02-05T12:27:51Z</time>
      </trkpt>
      <trkpt lat="43.29813" lon="2.8435">
        <ele>65.456</ele>
        <time>2021-02-05T12:28:11Z</time>
      </trkpt>
      <trkpt lat="43.2982" lon="2.84222">
        <ele>65.121</ele>
        <time>2021-02-05T12:28:31Z</time>
      </trkpt>
      <trkpt lat="43.29796" lon="2.84034">
        <ele>62.608</ele>
        <time>2021-02-05T12:28:51Z</time>
      </trkpt>
      <trkpt lat="43.29737" lon="2.84047">
        <ele>62.763</ele>
        <time>2021-02-05T12:29:11Z</time>
      </trkpt>
      <trkpt lat="43.29631" lon="2.84136">
        <ele>63.692</ele>
        <time>2021-02-05T12:29:31Z</time>
      </trkpt>
      <trkpt lat="43.29459" lon="2.84174">
        <ele>61.178</ele>
        <time>2021-02-05T12:29:51Z</time>
      </trkpt>
      <trkpt lat="43.29432" lon="2.8404">
        <ele>60.284</ele>
        <time>2021-02-05T12:30:11Z</time>
      </trkpt>
      <trkpt lat="43.29364" lon="2.83928">
        <ele>61.075</ele>
        <time>2021-02-05T12:30:31Z</time>
      </trkpt>
      <trkpt lat="43.29318" lon="2.83773">
        <ele>60.027</ele>
        <time>2021-02-05T12:30:51Z</time>
      </trkpt>
      <trkpt lat="43.29279" lon="2.83704">
        <ele>60.45</ele>
        <time>2021-02-05T12:31:11Z</time>
      </trkpt>
      <trkpt lat="43.29208" lon="2.83516">
        <ele>57.992</ele>
        <time>2021-02-05T12:31:31Z</time>
      </trkpt>
      <trkpt lat="43.29144" lon="2.8335">
        <ele>56.615</ele>
        <time>2021-02-05T12:31:51Z</time>
      </trkpt>
      <trkpt lat="43.29074" lon="2.83277">
        <ele>55.365</ele>
        <time>2021-02-05T12:32:11Z</time>
      </trkpt>
      <trkpt lat="43.29082" lon="2.83183">
        <ele>57.411</ele>
        <time>2021-02-05T12:32:31Z</time>
      </trkpt>
      <trkpt lat="43.29073" lon="2.83138">
        <ele>58.308</ele>
        <time>2021-02-05T12:32:51Z</time>
      </trkpt>
      <trkpt lat="43.29066" lon="2.83041">
        <ele>58.627</ele>
        <time>2021-02-05T12:33:11Z</time>
      </trkpt>
      <trkpt lat="43.29035" lon="2.82916">
        <ele>58.056</ele>
        <time>2021-02-05T12:33:31Z</time>
      </trkpt>
      <trkpt lat="43.28982" lon="2.82786">
        <ele>60.692</ele>
        <time>2021-02-05T12:33:51Z</time>
      </trkpt>
      <trkpt lat="43.28927" lon="2.82727">
        <ele>61.538</ele>
        <time>2021-02-05T12:34:11Z</time>
      </trkpt>
      <trkpt lat="43.28874" lon="2.82727">
        <ele>64.219</ele>
        <time>2021-02-05T12:34:31Z</time>
      </trkpt>
      <trkpt lat="43.2877" lon="2.82609">
        <ele>71.421</ele>
        <time>2021-02-05T12:34:51Z</time>
      </trkpt>
      <trkpt lat="43.28777" lon="2.82564">
        <ele>70.914</ele>
        <time>2021-02-05T12:35:11Z</time>
      </trkpt>
      <trkpt lat="43.28775" lon="2.82495">
        <ele>69.076</ele>
        <time>2021-02-05T12:35:31Z</time>
      </trkpt>
      <trkpt lat="43.28738" lon="2.82493">
        <ele>69.394</ele>
        <time>2021-02-05T12:35:51Z</time>
      </trkpt>
      <trkpt lat="43.28736" lon="2.82467">
        <ele>68.257</ele>
        <time>2021-02-05T12:36:11Z</time>
      </trkpt>
      <trkpt lat="43.28709" lon="2.82434">
        <ele>65.422</ele>
        <time>2021-02-05T12:36:31Z</time>
      </trkpt>
      <trkpt lat="43.28699" lon="2.82389">
        <ele>63.808</ele>
        <time>2021-02-05T12:36:51Z</time>
      </trkpt>
      <trkpt lat="43.28303" lon="2.82237">
        <ele>52.195</ele>
        <time>2021-02-05T12:37:11Z</time>
      </trkpt>
      <trkpt lat="43.28048" lon="2.82291">
        <ele>48.824</ele>
        <time>2021-02-05T12:37:31Z</time>
      </trkpt>
      <trkpt lat="43.28007" lon="2.82274">
        <ele>48.37</ele>
        <time>2021-02-05T12:37:51Z</time>
      </trkpt>
      <trkpt lat="43.27974" lon="2.82175">
        <ele>47.766</ele>
        <time>2021-02-05T12:38:11Z</time>
      </trkpt>
      <trkpt lat="43.27879" lon="2.82235">
        <ele>47.487</ele>
        <time>2021-02-05T12:38:31Z</time>
      </trkpt>
      <trkpt lat="43.27832" lon="2.82198">
        <ele>48.049</ele>
        <time>2021-02-05T12:38:51Z</time>
      </trkpt>
      <trkpt lat="43.27741" lon="2.82165">
        <ele>49.212</ele>
        <time>2021-02-05T12:39:11Z</time>
      </trkpt>
      <trkpt lat="43.27624" lon="2.82182">
        <ele>51.624</ele>
        <time>2021-02-05T12:39:31Z</time>
      </trkpt>
      <trkpt lat="43.27471" lon="2.82218">
        <ele>52.555</ele>
        <time>2021-02-05T12:39:51Z</time>
      </trkpt>
      <trkpt lat="43.27381" lon="2.82258">
        <ele>52.407</ele>
        <time>2021-02-05T12:40:11Z</time>
      </trkpt>
      <trkpt lat="43.27153" lon="2.82319">
        <ele>49.217</ele>
        <time>2021-02-05T12:40:31Z</time>
      </trkpt>
      <trkpt lat="43.27077" lon="2.82195">
        <ele>43.708</ele>
        <time>2021-02-05T12:40:51Z</time>
      </trkpt>
      <trkpt lat="43.26904" lon="2.82038">
        <ele>42.251</ele>
        <time>2021-02-05T12:41:11Z</time>
      </trkpt>
      <trkpt lat="43.269" lon="2.81969">
        <ele>42.07</ele>
        <time>2021-02-05T12:41:31Z</time>
      </trkpt>
      <trkpt lat="43.26917" lon="2.81925">
        <ele>41.146</ele>
        <time>2021-02-05T12:41:51Z</time>
      </trkpt>
      <trkpt lat="43.26854" lon="2.81788">
        <ele>45.132</ele>
        <time>2021-02-05T12:42:11Z</time>
      </trkpt>
      <trkpt lat="43.26831" lon="2.81585">
        <ele>48.023</ele>
        <time>2021-02-05T12:42:31Z</time>
      </trkpt>
      <trkpt lat="43.26728" lon="2.81608">
        <ele>48.765</ele>
        <time>2021-02-05T12:42:51Z</time>
      </trkpt>
      <trkpt lat="43.26787" lon="2.81908">
        <ele>44.768</ele>
        <time>2021-02-05T12:43:11Z</time>
      </trkpt>
      <trkpt lat="43.26814" lon="2.8197">
        <ele>43.66</ele>
        <time>2021-02-05T12:43:31Z</time>
      </trkpt>
      <trkpt lat="43.26814" lon="2.821">
        <ele>43.019</ele>
        <time>2021-02-05T12:43:51Z</time>
      </trkpt>
      <trkpt lat="43.26826" lon="2.82116">
        <ele>42.709</ele>
        <time>2021-02-05T12:44:11Z</time>
      </trkpt>
      <trkpt lat="43.26815" lon="2.82136">
        <ele>42.519</ele>
        <time>2021-02-05T12:44:31Z</time>
      </trkpt>
      <trkpt lat="43.26733" lon="2.82157">
        <ele>41.808</ele>
        <time>2021-02-05T12:44:51Z</time>
      </trkpt>
      <trkpt lat="43.26674" lon="2.82157">
        <ele>40.367</ele>
        <time>2021-02-05T12:45:11Z</time>
      </trkpt>
      <trkpt lat="43.26626" lon="2.82271">
        <ele>40.726</ele>
        <time>2021-02-05T12:45:31Z</time>
      </trkpt>
      <trkpt lat="43.26626" lon="2.823">
        <ele>40.452</ele>
        <time>2021-02-05T12:45:51Z</time>
      </trkpt>
      <trkpt lat="43.26587" lon="2.82303">
        <ele>41.038</ele>
        <time>2021-02-05T12:46:11Z</time>
      </trkpt>
      <trkpt lat="43.26572" lon="2.82359">
        <ele>41.779</ele>
        <time>2021-02-05T12:46:31Z</time>
      </trkpt>
      <trkpt lat="43.26524" lon="2.82429">
        <ele>45.021</ele>
        <time>2021-02-05T12:46:51Z</time>
      </trkpt>
      <trkpt lat="43.26453" lon="2.82449">
        <ele>59.134</ele>
        <time>2021-02-05T12:47:11Z</time>
      </trkpt>
      <trkpt lat="43.26352" lon="2.82573">
        <ele>66.396</ele>
        <time>2021-02-05T12:47:31Z</time>
      </trkpt>
      <trkpt lat="43.26183" lon="2.82774">
        <ele>64.977</ele>
        <time>2021-02-05T12:47:51Z</time>
      </trkpt>
      <trkpt lat="43.26054" lon="2.82918">
        <ele>61.961</ele>
        <time>2021-02-05T12:48:11Z</time>
      </trkpt>
      <trkpt lat="43.25888" lon="2.83023">
        <ele>62.627</ele>
        <time>2021-02-05T12:48:31Z</time>
      </trkpt>
      <trkpt lat="43.25631" lon="2.83045">
        <ele>60.608</ele>
        <time>2021-02-05T12:48:51Z</time>
      </trkpt>
      <trkpt lat="43.25396" lon="2.8303">
        <ele>59.073</ele>
        <time>2021-02-05T12:49:11Z</time>
      </trkpt>
      <trkpt lat="43.25267" lon="2.83075">
        <ele>56.652</ele>
        <time>2021-02-05T12:49:31Z</time>
      </trkpt>
      <trkpt lat="43.25092" lon="2.83091">
        <ele>60.258</ele>
        <time>2021-02-05T12:49:51Z</time>
      </trkpt>
      <trkpt lat="43.2502" lon="2.8309">
        <ele>59.374</ele>
        <time>2021-02-05T12:50:11Z</time>
      </trkpt>
      <trkpt lat="43.24992" lon="2.83213">
        <ele>53.495</ele>
        <time>2021-02-05T12:50:31Z</time>
      </trkpt>
      <trkpt lat="43.2508" lon="2.83251">
        <ele>52.947</ele>
        <time>2021-02-05T12:50:51Z</time>
      </trkpt>
      <trkpt lat="43.24942" lon="2.83301">
        <ele>45.72</ele>
        <time>2021-02-05T12:51:11Z</time>
      </trkpt>
      <trkpt lat="43.24898" lon="2.83375">
        <ele>39.882</ele>
        <time>2021-02-05T12:51:31Z</time>
      </trkpt>
      <trkpt lat="43.24861" lon="2.83373">
        <ele>34.567</ele>
        <time>2021-02-05T12:51:51Z</time>
      </trkpt>
      <trkpt lat="43.24863" lon="2.83129">
        <ele>35.581</ele>
        <time>2021-02-05T12:52:11Z</time>
      </trkpt>
      <trkpt lat="43.25027" lon="2.82521">
        <ele>35.819</ele>
        <time>2021-02-05T12:52:31Z</time>
      </trkpt>
      <trkpt lat="43.25035" lon="2.82419">
        <ele>33.508</ele>
        <time>2021-02-05T12:52:51Z</time>
      </trkpt>
      <trkpt lat="43.25053" lon="2.82341">
        <ele>34.042</ele>
        <time>2021-02-05T12:53:11Z</time>
      </trkpt>
      <trkpt lat="43.25131" lon="2.82194">
        <ele>35.971</ele>
        <time>2021-02-05T12:53:31Z</time>
      </trkpt>
      <trkpt lat="43.25169" lon="2.82027">
        <ele>38.257</ele>
        <time>2021-02-05T12:53:51Z</time>
      </trkpt>
      <trkpt lat="43.25176" lon="2.81767">
        <ele>36.693</ele>
        <time>2021-02-05T12:54:11Z</time>
      </trkpt>
      <trkpt lat="43.2514" lon="2.81611">
        <ele>35.154</ele>
        <time>2021-02-05T12:54:31Z</time>
      </trkpt>
      <trkpt lat="43.25106" lon="2.81235">
        <ele>34.766</ele>
        <time>2021-02-05T12:54:51Z</time>
      </trkpt>
      <trkpt lat="43.24987" lon="2.80819">
        <ele>36.299</ele>
        <time>2021-02-05T12:55:11Z</time>
      </trkpt>
      <trkpt lat="43.24705" lon="2.80391">
        <ele>36.311</ele>
        <time>2021-02-05T12:55:31Z</time>
      </trkpt>
      <trkpt lat="43.24636" lon="2.80337">
        <ele>35.498</ele>
        <time>2021-02-05T12:55:51Z</time>
      </trkpt>
      <trkpt lat="43.24543" lon="2.8019">
        <ele>34.515</ele>
        <time>2021-02-05T12:56:11Z</time>
      </trkpt>
      <trkpt lat="43.24381" lon="2.8008">
        <ele>33.226</ele>
        <time>2021-02-05T12:56:31Z</time>
      </trkpt>
      <trkpt lat="43.24256" lon="2.79933">
        <ele>35.408</ele>
        <time>2021-02-05T12:56:51Z</time>
      </trkpt>
      <trkpt lat="43.24198" lon="2.79802">
        <ele>39.815</ele>
        <time>2021-02-05T12:57:11Z</time>
      </trkpt>
      <trkpt lat="43.24173" lon="2.79673">
        <ele>38.244</ele>
        <time>2021-02-05T12:57:31Z</time>
      </trkpt>
      <trkpt lat="43.24189" lon="2.79319">
        <ele>36.19</ele>
        <time>2021-02-05T12:57:51Z</time>
      </trkpt>
      <trkpt lat="43.24189" lon="2.79067">
        <ele>35.396</ele>
        <time>2021-02-05T12:58:11Z</time>
      </trkpt>
      <trkpt lat="43.24224" lon="2.78837">
        <ele>35.137</ele>
        <time>2021-02-05T12:58:31Z</time>
      </trkpt>
      <trkpt lat="43.24222" lon="2.78774">
        <ele>34.889</ele>
        <time>2021-02-05T12:58:51Z</time>
      </trkpt>
      <trkpt lat="43.24055" lon="2.78489">
        <ele>34.992</ele>
        <time>2021-02-05T12:59:11Z</time>
      </trkpt>
      <trkpt lat="43.2402" lon="2.7841">
        <ele>35.424</ele>
        <time>2021-02-05T12:59:31Z</time>
      </trkpt>
      <trkpt lat="43.24" lon="2.78307">
        <ele>35.061</ele>
        <time>2021-02-05T12:59:51Z</time>
      </trkpt>
      <trkpt lat="43.23962" lon="2.77916">
        <ele>33.121</ele>
        <time>2021-02-05T13:00:11Z</time>
      </trkpt>
      <trkpt lat="43.23923" lon="2.77271">
        <ele>39.313</ele>
        <time>2021-02-05T13:00:31Z</time>
      </trkpt>
      <trkpt lat="43.23916" lon="2.77039">
        <ele>39.408</ele>
        <time>2021-02-05T13:00:51Z</time>
      </trkpt>
      <trkpt lat="43.24005" lon="2.76635">
        <ele>37.292</ele>
        <time>2021-02-05T13:01:11Z</time>
      </trkpt>
      <trkpt lat="43.24012" lon="2.76567">
        <ele>36.381</ele>
        <time>2021-02-05T13:01:31Z</time>
      </trkpt>
      <trkpt lat="43.24057" lon="2.7648">
        <ele>37.417</ele>
        <time>2021-02-05T13:01:51Z</time>
      </trkpt>
      <trkpt lat="43.24105" lon="2.76428">
        <ele>37.463</ele>
        <time>2021-02-05T13:02:11Z</time>
      </trkpt>
      <trkpt lat="43.24372" lon="2.763">
        <ele>36.254</ele>
        <time>2021-02-05T13:02:31Z</time>
      </trkpt>
      <trkpt lat="43.24694" lon="2.76144">
        <ele>38.026</ele>
        <time>2021-02-05T13:02:51Z</time>
      </trkpt>
      <trkpt lat="43.24762" lon="2.76075">
        <ele>38.529</ele>
        <time>2021-02-05T13:03:11Z</time>
      </trkpt>
      <trkpt lat="43.2488" lon="2.75895">
        <ele>42.111</ele>
        <time>2021-02-05T13:03:31Z</time>
      </trkpt>
      <trkpt lat="43.24872" lon="2.75821">
        <ele>39.595</ele>
        <time>2021-02-05T13:03:51Z</time>
      </trkpt>
      <trkpt lat="43.24889" lon="2.75757">
        <ele>38.449</ele>
        <time>2021-02-05T13:04:11Z</time>
      </trkpt>
      <trkpt lat="43.24928" lon="2.75727">
        <ele>38.423</ele>
        <time>2021-02-05T13:04:31Z</time>
      </trkpt>
      <trkpt lat="43.25007" lon="2.75696">
        <ele>37.808</ele>
        <time>2021-02-05T13:04:51Z</time>
      </trkpt>
      <trkpt lat="43.2524" lon="2.75544">
        <ele>40.435</ele>
        <time>2021-02-05T13:05:11Z</time>
      </trkpt>
      <trkpt lat="43.25716" lon="2.75209">
        <ele>41.724</ele>
        <time>2021-02-05T13:05:31Z</time>
      </trkpt>
      <trkpt lat="43.25922" lon="2.75037">
        <ele>44.07</ele>
        <time>2021-02-05T13:05:51Z</time>
      </trkpt>
      <trkpt lat="43.2617" lon="2.74913">
        <ele>41.956</ele>
        <time>2021-02-05T13:06:11Z</time>
      </trkpt>
      <trkpt lat="43.26231" lon="2.74808">
        <ele>42.657</ele>
        <time>2021-02-05T13:06:31Z</time>
      </trkpt>
      <trkpt lat="43.26602" lon="2.74124">
        <ele>41.339</ele>
        <time>2021-02-05T13:06:51Z</time>
      </trkpt>
      <trkpt lat="43.26637" lon="2.74095">
        <ele>40.732</ele>
        <time>2021-02-05T13:07:11Z</time>
      </trkpt>
      <trkpt lat="43.26667" lon="2.7403">
        <ele>39.734</ele>
        <time>2021-02-05T13:07:31Z</time>
      </trkpt>
      <trkpt lat="43.26736" lon="2.73973">
        <ele>40.323</ele>
        <time>2021-02-05T13:07:51Z</time>
      </trkpt>
      <trkpt lat="43.26772" lon="2.73965">
        <ele>40.883</ele>
        <time>2021-02-05T13:08:11Z</time>
      </trkpt>
      <trkpt lat="43.26825" lon="2.73988">
        <ele>41.911</ele>
        <time>2021-02-05T13:08:31Z</time>
      </trkpt>
      <trkpt lat="43.26875" lon="2.73991">
        <ele>42.508</ele>
        <time>2021-02-05T13:08:51Z</time>
      </trkpt>
      <trkpt lat="43.26932" lon="2.73956">
        <ele>42.898</ele>
        <time>2021-02-05T13:09:11Z</time>
      </trkpt>
      <trkpt lat="43.26968" lon="2.73853">
        <ele>43.217</ele>
        <time>2021-02-05T13:09:31Z</time>
      </trkpt>
      <trkpt lat="43.27002" lon="2.73702">
        <ele>45.673</ele>
        <time>2021-02-05T13:09:51Z</time>
      </trkpt>
      <trkpt lat="43.26981" lon="2.73196">
        <ele>48.219</ele>
        <time>2021-02-05T13:10:11Z</time>
      </trkpt>
      <trkpt lat="43.26964" lon="2.72721">
        <ele>49.47</ele>
        <time>2021-02-05T13:10:31Z</time>
      </trkpt>
      <trkpt lat="43.26969" lon="2.72411">
        <ele>49.062</ele>
        <time>2021-02-05T13:10:51Z</time>
      </trkpt>
      <trkpt lat="43.26878" lon="2.72029">
        <ele>50.345</ele>
        <time>2021-02-05T13:11:11Z</time>
      </trkpt>
      <trkpt lat="43.26865" lon="2.72028">
        <ele>50.477</ele>
        <time>2021-02-05T13:11:31Z</time>
      </trkpt>
      <trkpt lat="43.26841" lon="2.71908">
        <ele>50.947</ele>
        <time>2021-02-05T13:11:51Z</time>
      </trkpt>
      <trkpt lat="43.26841" lon="2.71872">
        <ele>50.529</ele>
        <time>2021-02-05T13:12:11Z</time>
      </trkpt>
      <trkpt lat="43.26813" lon="2.71741">
        <ele>49.821</ele>
        <time>2021-02-05T13:12:31Z</time>
      </trkpt>
      <trkpt lat="43.26885" lon="2.71543">
        <ele>47.408</ele>
        <time>2021-02-05T13:12:51Z</time>
      </trkpt>
      <trkpt lat="43.26797" lon="2.71492">
        <ele>48.74</ele>
        <time>2021-02-05T13:13:11Z</time>
      </trkpt>
      <trkpt lat="43.26732" lon="2.71185">
        <ele>48.829</ele>
        <time>2021-02-05T13:13:31Z</time>
      </trkpt>
      <trkpt lat="43.26703" lon="2.7101">
        <ele>49.365</ele>
        <time>2021-02-05T13:13:51Z</time>
      </trkpt>
      <trkpt lat="43.26696" lon="2.70866">
        <ele>49.171</ele>
        <time>2021-02-05T13:14:11Z</time>
      </trkpt>
      <trkpt lat="43.26714" lon="2.70562">
        <ele>48.322</ele>
        <time>2021-02-05T13:14:31Z</time>
      </trkpt>
      <trkpt lat="43.26707" lon="2.70542">
        <ele>48.324</ele>
        <time>2021-02-05T13:14:51Z</time>
      </trkpt>
      <trkpt lat="43.26732" lon="2.70507">
        <ele>47.557</ele>
        <time>2021-02-05T13:15:11Z</time>
      </trkpt>
      <trkpt lat="43.2671" lon="2.70458">
        <ele>47.779</ele>
        <time>2021-02-05T13:15:31Z</time>
      </trkpt>
      <trkpt lat="43.26677" lon="2.70315">
        <ele>48.145</ele>
        <time>2021-02-05T13:15:51Z</time>
      </trkpt>
      <trkpt lat="43.26626" lon="2.70149">
        <ele>48.447</ele>
        <time>2021-02-05T13:16:11Z</time>
      </trkpt>
      <trkpt lat="43.26641" lon="2.70159">
        <ele>48.211</ele>
        <time>2021-02-05T13:16:31Z</time>
      </trkpt>
      <trkpt lat="43.26684" lon="2.70155">
        <ele>47.708</ele>
        <time>2021-02-05T13:16:51Z</time>
      </trkpt>
      <trkpt lat="43.26699" lon="2.70169">
        <ele>47.64</ele>
        <time>2021-02-05T13:17:11Z</time>
      </trkpt>
      <trkpt lat="43.26769" lon="2.70118">
        <ele>47.929</ele>
        <time>2021-02-05T13:17:31Z</time>
      </trkpt>
      <trkpt lat="43.26778" lon="2.7008">
        <ele>48.395</ele>
        <time>2021-02-05T13:17:51Z</time>
      </trkpt>
      <trkpt lat="43.26752" lon="2.69966">
        <ele>49.091</ele>
        <time>2021-02-05T13:18:11Z</time>
      </trkpt>
      <trkpt lat="43.26751" lon="2.69917">
        <ele>49.092</ele>
        <time>2021-02-05T13:18:31Z</time>
      </trkpt>
      <trkpt lat="43.26769" lon="2.69832">
        <ele>48.574</ele>
        <time>2021-02-05T13:18:51Z</time>
      </trkpt>
      <trkpt lat="43.26825" lon="2.69701">
        <ele>48.857</ele>
        <time>2021-02-05T13:19:11Z</time>
      </trkpt>
      <trkpt lat="43.26865" lon="2.69665">
        <ele>48.929</ele>
        <time>2021-02-05T13:19:31Z</time>
      </trkpt>
      <trkpt lat="43.27143" lon="2.69584">
        <ele>48.178</ele>
        <time>2021-02-05T13:19:51Z</time>
      </trkpt>
      <trkpt lat="43.27176" lon="2.69513">
        <ele>50.333</ele>
        <time>2021-02-05T13:20:11Z</time>
      </trkpt>
      <trkpt lat="43.27243" lon="2.69481">
        <ele>50.526</ele>
        <time>2021-02-05T13:20:31Z</time>
      </trkpt>
      <trkpt lat="43.27264" lon="2.69486">
        <ele>50.308</ele>
        <time>2021-02-05T13:20:51Z</time>
      </trkpt>
      <trkpt lat="43.27295" lon="2.69476">
        <ele>50.453</ele>
        <time>2021-02-05T13:21:11Z</time>
      </trkpt>
      <trkpt lat="43.27338" lon="2.69455">
        <ele>50.552</ele>
        <time>2021-02-05T13:21:31Z</time>
      </trkpt>
      <trkpt lat="43.27355" lon="2.6946">
        <ele>50.258</ele>
        <time>2021-02-05T13:21:51Z</time>
      </trkpt>
      <trkpt lat="43.27393" lon="2.69463">
        <ele>49.654</ele>
        <time>2021-02-05T13:22:11Z</time>
      </trkpt>
      <trkpt lat="43.2741" lon="2.69444">
        <ele>50.495</ele>
        <time>2021-02-05T13:22:31Z</time>
      </trkpt>
      <trkpt lat="43.2742" lon="2.69445">
        <ele>50.437</ele>
        <time>2021-02-05T13:22:51Z</time>
      </trkpt>
      <trkpt lat="43.27432" lon="2.69489">
        <ele>48.21</ele>
        <time>2021-02-05T13:23:11Z</time>
      </trkpt>
      <trkpt lat="43.27492" lon="2.69533">
        <ele>49.712</ele>
        <time>2021-02-05T13:23:31Z</time>
      </trkpt>
      <trkpt lat="43.27509" lon="2.69573">
        <ele>50.465</ele>
        <time>2021-02-05T13:23:51Z</time>
      </trkpt>
      <trkpt lat="43.27517" lon="2.6958">
        <ele>50.668</ele>
        <time>2021-02-05T13:24:11Z</time>
      </trkpt>
      <trkpt lat="43.27535" lon="2.6955">
        <ele>51.814</ele>
        <time>2021-02-05T13:24:31Z</time>
      </trkpt>
      <trkpt lat="43.27561" lon="2.69552">
        <ele>53.008</ele>
        <time>2021-02-05T13:24:51Z</time>
      </trkpt>
      <trkpt lat="43.27604" lon="2.69695">
        <ele>52.412</ele>
        <time>2021-02-05T13:25:11Z</time>
      </trkpt>
      <trkpt lat="43.27588" lon="2.69737">
        <ele>51.351</ele>
        <time>2021-02-05T13:25:31Z</time>
      </trkpt>
      <trkpt lat="43.27586" lon="2.69757">
        <ele>51.027</ele>
        <time>2021-02-05T13:25:51Z</time>
      </trkpt>
      <trkpt lat="43.276" lon="2.69812">
        <ele>50.783</ele>
        <time>2021-02-05T13:26:11Z</time>
      </trkpt>
      <trkpt lat="43.2761" lon="2.69828">
        <ele>51.084</ele>
        <time>2021-02-05T13:26:31Z</time>
      </trkpt>
      <trkpt lat="43.27625" lon="2.69837">
        <ele>51.926</ele>
        <time>2021-02-05T13:26:51Z</time>
      </trkpt>
      <trkpt lat="43.27652" lon="2.69891">
        <ele>53.149</ele>
        <time>2021-02-05T13:27:11Z</time>
      </trkpt>
      <trkpt lat="43.27673" lon="2.69912">
        <ele>54.281</ele>
        <time>2021-02-05T13:27:31Z</time>
      </trkpt>
      <trkpt lat="43.27692" lon="2.69899">
        <ele>54.913</ele>
        <time>2021-02-05T13:27:51Z</time>
      </trkpt>
      <trkpt lat="43.27746" lon="2.69784">
        <ele>61.143</ele>
        <time>2021-02-05T13:28:11Z</time>
      </trkpt>
      <trkpt lat="43.27769" lon="2.69698">
        <ele>64.607</ele>
        <time>2021-02-05T13:28:31Z</time>
      </trkpt>
      <trkpt lat="43.27778" lon="2.69648">
        <ele>65.908</ele>
        <time>2021-02-05T13:28:51Z</time>
      </trkpt>
      <trkpt lat="43.27802" lon="2.69603">
        <ele>67.787</ele>
        <time>2021-02-05T13:29:11Z</time>
      </trkpt>
      <trkpt lat="43.27908" lon="2.69297">
        <ele>72.386</ele>
        <time>2021-02-05T13:29:31Z</time>
      </trkpt>
      <trkpt lat="43.27932" lon="2.69297">
        <ele>72.312</ele>
        <time>2021-02-05T13:29:51Z</time>
      </trkpt>
      <trkpt lat="43.27972" lon="2.69147">
        <ele>73.968</ele>
        <time>2021-02-05T13:30:11Z</time>
      </trkpt>
      <trkpt lat="43.2804" lon="2.69172">
        <ele>72.029</ele>
        <time>2021-02-05T13:30:31Z</time>
      </trkpt>
      <trkpt lat="43.28103" lon="2.69214">
        <ele>70.041</ele>
        <time>2021-02-05T13:30:51Z</time>
      </trkpt>
      <trkpt lat="43.28143" lon="2.68999">
        <ele>71.314</ele>
        <time>2021-02-05T13:31:11Z</time>
      </trkpt>
      <trkpt lat="43.28134" lon="2.68925">
        <ele>71.726</ele>
        <time>2021-02-05T13:31:31Z</time>
      </trkpt>
      <trkpt lat="43.28104" lon="2.68795">
        <ele>74.045</ele>
        <time>2021-02-05T13:31:51Z</time>
      </trkpt>
      <trkpt lat="43.28112" lon="2.68679">
        <ele>76.647</ele>
        <time>2021-02-05T13:32:11Z</time>
      </trkpt>
      <trkpt lat="43.28116" lon="2.68494">
        <ele>78.511</ele>
        <time>2021-02-05T13:32:31Z</time>
      </trkpt>
      <trkpt lat="43.281" lon="2.68352">
        <ele>77.208</ele>
        <time>2021-02-05T13:32:51Z</time>
      </trkpt>
      <trkpt lat="43.28076" lon="2.68188">
        <ele>76.27</ele>
        <time>2021-02-05T13:33:11Z</time>
      </trkpt>
      <trkpt lat="43.28041" lon="2.68029">
        <ele>72.089</ele>
        <time>2021-02-05T13:33:31Z</time>
      </trkpt>
      <trkpt lat="43.28015" lon="2.67977">
        <ele>73.695</ele>
        <time>2021-02-05T13:33:51Z</time>
      </trkpt>
      <trkpt lat="43.27995" lon="2.67954">
        <ele>74.881</ele>
        <time>2021-02-05T13:34:11Z</time>
      </trkpt>
      <trkpt lat="43.27975" lon="2.67886">
        <ele>76.412</ele>
        <time>2021-02-05T13:34:31Z</time>
      </trkpt>
      <trkpt lat="43.27971" lon="2.67811">
        <ele>76.944</ele>
        <time>2021-02-05T13:34:51Z</time>
      </trkpt>
      <trkpt lat="43.27974" lon="2.67728">
        <ele>76.787</ele>
        <time>2021-02-05T13:35:11Z</time>
      </trkpt>
      <trkpt lat="43.27991" lon="2.67634">
        <ele>76.749</ele>
        <time>2021-02-05T13:35:31Z</time>
      </trkpt>
      <trkpt lat="43.2801" lon="2.67489">
        <ele>76.179</ele>
        <time>2021-02-05T13:35:51Z</time>
      </trkpt>
      <trkpt lat="43.28028" lon="2.67402">
        <ele>75.805</ele>
        <time>2021-02-05T13:36:11Z</time>
      </trkpt>
      <trkpt lat="43.28039" lon="2.67329">
        <ele>76.625</ele>
        <time>2021-02-05T13:36:31Z</time>
      </trkpt>
      <trkpt lat="43.28036" lon="2.67288">
        <ele>77.508</ele>
        <time>2021-02-05T13:36:51Z</time>
      </trkpt>
      <trkpt lat="43.28014" lon="2.67257">
        <ele>78.063</ele>
        <time>2021-02-05T13:37:11Z</time>
      </trkpt>
      <trkpt lat="43.27948" lon="2.67081">
        <ele>78.842</ele>
        <time>2021-02-05T13:37:31Z</time>
      </trkpt>
      <trkpt lat="43.27898" lon="2.66905">
        <ele>78.398</ele>
        <time>2021-02-05T13:37:51Z</time>
      </trkpt>
      <trkpt lat="43.27835" lon="2.66663">
        <ele>83.084</ele>
        <time>2021-02-05T13:38:11Z</time>
      </trkpt>
      <trkpt lat="43.27803" lon="2.6653">
        <ele>86.155</ele>
        <time>2021-02-05T13:38:31Z</time>
      </trkpt>
      <trkpt lat="43.27786" lon="2.66455">
        <ele>87.057</ele>
        <time>2021-02-05T13:38:51Z</time>
      </trkpt>
      <trkpt lat="43.27766" lon="2.6635">
        <ele>87.81</ele>
        <time>2021-02-05T13:39:11Z</time>
      </trkpt>
      <trkpt lat="43.27748" lon="2.66226">
        <ele>90.592</ele>
        <time>2021-02-05T13:39:31Z</time>
      </trkpt>
      <trkpt lat="43.27749" lon="2.66193">
        <ele>91.382</ele>
        <time>2021-02-05T13:39:51Z</time>
      </trkpt>
      <trkpt lat="43.27774" lon="2.66117">
        <ele>91.643</ele>
        <time>2021-02-05T13:40:11Z</time>
      </trkpt>
      <trkpt lat="43.27765" lon="2.66113">
        <ele>91.817</ele>
        <time>2021-02-05T13:40:31Z</time>
      </trkpt>
      <trkpt lat="43.27766" lon="2.66092">
        <ele>91.808</ele>
        <time>2021-02-05T13:40:51Z</time>
      </trkpt>
      <trkpt lat="43.27777" lon="2.66023">
        <ele>91.754</ele>
        <time>2021-02-05T13:41:11Z</time>
      </trkpt>
      <trkpt lat="43.27781" lon="2.65952">
        <ele>91.883</ele>
        <time>2021-02-05T13:41:31Z</time>
      </trkpt>
      <trkpt lat="43.27775" lon="2.659">
        <ele>91.919</ele>
        <time>2021-02-05T13:41:51Z</time>
      </trkpt>
      <trkpt lat="43.27762" lon="2.65852">
        <ele>91.995</ele>
        <time>2021-02-05T13:42:11Z</time>
      </trkpt>
      <trkpt lat="43.27744" lon="2.65826">
        <ele>91.536</ele>
        <time>2021-02-05T13:42:31Z</time>
      </trkpt>
      <trkpt lat="43.27721" lon="2.65805">
        <ele>89.118</ele>
        <time>2021-02-05T13:42:51Z</time>
      </trkpt>
      <trkpt lat="43.27709" lon="2.65784">
        <ele>87.091</ele>
        <time>2021-02-05T13:43:11Z</time>
      </trkpt>
      <trkpt lat="43.27691" lon="2.65783">
        <ele>84.883</ele>
        <time>2021-02-05T13:43:31Z</time>
      </trkpt>
      <trkpt lat="43.27701" lon="2.65718">
        <ele>82.069</ele>
        <time>2021-02-05T13:43:51Z</time>
      </trkpt>
      <trkpt lat="43.27727" lon="2.65647">
        <ele>83.104</ele>
        <time>2021-02-05T13:44:11Z</time>
      </trkpt>
      <trkpt lat="43.27734" lon="2.65618">
        <ele>82.224</ele>
        <time>2021-02-05T13:44:31Z</time>
      </trkpt>
      <trkpt lat="43.27738" lon="2.65545">
        <ele>76.808</ele>
        <time>2021-02-05T13:44:51Z</time>
      </trkpt>
      <trkpt lat="43.27731" lon="2.65505">
        <ele>72.212</ele>
        <time>2021-02-05T13:45:11Z</time>
      </trkpt>
      <trkpt lat="43.27735" lon="2.65488">
        <ele>71.431</ele>
        <time>2021-02-05T13:45:31Z</time>
      </trkpt>
      <trkpt lat="43.27735" lon="2.6547">
        <ele>69.767</ele>
        <time>2021-02-05T13:45:51Z</time>
      </trkpt>
      <trkpt lat="43.27765" lon="2.6541">
        <ele>68.053</ele>
        <time>2021-02-05T13:46:11Z</time>
      </trkpt>
      <trkpt lat="43.27843" lon="2.65231">
        <ele>67.284</ele>
        <time>2021-02-05T13:46:31Z</time>
      </trkpt>
      <trkpt lat="43.27937" lon="2.64984">
        <ele>69.876</ele>
        <time>2021-02-05T13:46:51Z</time>
      </trkpt>
      <trkpt lat="43.28175" lon="2.64636">
        <ele>72.429</ele>
        <time>2021-02-05T13:47:11Z</time>
      </trkpt>
      <trkpt lat="43.28267" lon="2.64501">
        <ele>74.511</ele>
        <time>2021-02-05T13:47:31Z</time>
      </trkpt>
      <trkpt lat="43.2833" lon="2.64431">
        <ele>75.682</ele>
        <time>2021-02-05T13:47:51Z</time>
      </trkpt>
      <trkpt lat="43.28392" lon="2.64382">
        <ele>78.143</ele>
        <time>2021-02-05T13:48:11Z</time>
      </trkpt>
      <trkpt lat="43.28418" lon="2.64365">
        <ele>78.817</ele>
        <time>2021-02-05T13:48:31Z</time>
      </trkpt>
      <trkpt lat="43.2843" lon="2.64368">
        <ele>80.008</ele>
        <time>2021-02-05T13:48:51Z</time>
      </trkpt>
      <trkpt lat="43.2857" lon="2.64265">
        <ele>79.714</ele>
        <time>2021-02-05T13:49:11Z</time>
      </trkpt>
      <trkpt lat="43.28599" lon="2.64226">
        <ele>79.263</ele>
        <time>2021-02-05T13:49:31Z</time>
      </trkpt>
      <trkpt lat="43.28607" lon="2.64205">
        <ele>79.179</ele>
        <time>2021-02-05T13:49:51Z</time>
      </trkpt>
      <trkpt lat="43.28656" lon="2.64127">
        <ele>80.115</ele>
        <time>2021-02-05T13:50:11Z</time>
      </trkpt>
      <trkpt lat="43.28705" lon="2.64014">
        <ele>81.086</ele>
        <time>2021-02-05T13:50:31Z</time>
      </trkpt>
      <trkpt lat="43.28823" lon="2.63627">
        <ele>79.258</ele>
        <time>2021-02-05T13:50:51Z</time>
      </trkpt>
      <trkpt lat="43.28837" lon="2.63548">
        <ele>80.221</ele>
        <time>2021-02-05T13:51:11Z</time>
      </trkpt>
      <trkpt lat="43.28845" lon="2.63443">
        <ele>80.383</ele>
        <time>2021-02-05T13:51:31Z</time>
      </trkpt>
      <trkpt lat="43.2884" lon="2.63342">
        <ele>80.282</ele>
        <time>2021-02-05T13:51:51Z</time>
      </trkpt>
      <trkpt lat="43.28831" lon="2.63282">
        <ele>81.743</ele>
        <time>2021-02-05T13:52:11Z</time>
      </trkpt>
      <trkpt lat="43.28816" lon="2.63207">
        <ele>82.217</ele>
        <time>2021-02-05T13:52:31Z</time>
      </trkpt>
      <trkpt lat="43.28744" lon="2.63019">
        <ele>85.508</ele>
        <time>2021-02-05T13:52:51Z</time>
      </trkpt>
      <trkpt lat="43.28576" lon="2.62581">
        <ele>86.814</ele>
        <time>2021-02-05T13:53:11Z</time>
      </trkpt>
      <trkpt lat="43.28374" lon="2.62069">
        <ele>89.773</ele>
        <time>2021-02-05T13:53:31Z</time>
      </trkpt>
      <trkpt lat="43.28346" lon="2.61958">
        <ele>90.699</ele>
        <time>2021-02-05T13:53:51Z</time>
      </trkpt>
      <trkpt lat="43.28334" lon="2.61859">
        <ele>91.065</ele>
        <time>2021-02-05T13:54:11Z</time>
      </trkpt>
      <trkpt lat="43.28334" lon="2.61751">
        <ele>88.146</ele>
        <time>2021-02-05T13:54:31Z</time>
      </trkpt>
      <trkpt lat="43.2834" lon="2.61433">
        <ele>93.918</ele>
        <time>2021-02-05T13:54:51Z</time>
      </trkpt>
      <trkpt lat="43.28386" lon="2.61442">
        <ele>93.641</ele>
        <time>2021-02-05T13:55:11Z</time>
      </trkpt>
      <trkpt lat="43.28396" lon="2.61388">
        <ele>93.413</ele>
        <time>2021-02-05T13:55:31Z</time>
      </trkpt>
      <trkpt lat="43.28412" lon="2.61204">
        <ele>95.085</ele>
        <time>2021-02-05T13:55:51Z</time>
      </trkpt>
      <trkpt lat="43.2843" lon="2.61091">
        <ele>97.589</ele>
        <time>2021-02-05T13:56:11Z</time>
      </trkpt>
      <trkpt lat="43.28454" lon="2.60976">
        <ele>99.117</ele>
        <time>2021-02-05T13:56:31Z</time>
      </trkpt>
      <trkpt lat="43.28467" lon="2.60862">
        <ele>101.008</ele>
        <time>2021-02-05T13:56:51Z</time>
      </trkpt>
      <trkpt lat="43.28465" lon="2.60817">
        <ele>101.094</ele>
        <time>2021-02-05T13:57:11Z</time>
      </trkpt>
      <trkpt lat="43.28437" lon="2.6076">
        <ele>99.433</ele>
        <time>2021-02-05T13:57:31Z</time>
      </trkpt>
      <trkpt lat="43.28468" lon="2.60772">
        <ele>101.589</ele>
        <time>2021-02-05T13:57:51Z</time>
      </trkpt>
      <trkpt lat="43.28476" lon="2.6075">
        <ele>102.375</ele>
        <time>2021-02-05T13:58:11Z</time>
      </trkpt>
      <trkpt lat="43.28513" lon="2.60411">
        <ele>99.316</ele>
        <time>2021-02-05T13:58:31Z</time>
      </trkpt>
      <trkpt lat="43.28546" lon="2.60334">
        <ele>99.278</ele>
        <time>2021-02-05T13:58:51Z</time>
      </trkpt>
      <trkpt lat="43.28564" lon="2.60281">
        <ele>99.681</ele>
        <time>2021-02-05T13:59:11Z</time>
      </trkpt>
      <trkpt lat="43.28615" lon="2.60205">
        <ele>99.713</ele>
        <time>2021-02-05T13:59:31Z</time>
      </trkpt>
      <trkpt lat="43.28628" lon="2.60149">
        <ele>98.591</ele>
        <time>2021-02-05T13:59:51Z</time>
      </trkpt>
      <trkpt lat="43.28638" lon="2.60057">
        <ele>98.281</ele>
        <time>2021-02-05T14:00:11Z</time>
      </trkpt>
      <trkpt lat="43.28662" lon="2.5994">
        <ele>98.019</ele>
        <time>2021-02-05T14:00:31Z</time>
      </trkpt>
      <trkpt lat="43.28674" lon="2.59917">
        <ele>98.208</ele>
        <time>2021-02-05T14:00:51Z</time>
      </trkpt>
      <trkpt lat="43.28701" lon="2.59901">
        <ele>99.065</ele>
        <time>2021-02-05T14:01:11Z</time>
      </trkpt>
      <trkpt lat="43.28715" lon="2.59887">
        <ele>99.564</ele>
        <time>2021-02-05T14:01:31Z</time>
      </trkpt>
      <trkpt lat="43.2872" lon="2.59862">
        <ele>99.89</ele>
        <time>2021-02-05T14:01:51Z</time>
      </trkpt>
      <trkpt lat="43.2871" lon="2.59853">
        <ele>99.866</ele>
        <time>2021-02-05T14:02:11Z</time>
      </trkpt>
      <trkpt lat="43.28637" lon="2.59688">
        <ele>99.297</ele>
        <time>2021-02-05T14:02:31Z</time>
      </trkpt>
      <trkpt lat="43.28625" lon="2.59623">
        <ele>99.399</ele>
        <time>2021-02-05T14:02:51Z</time>
      </trkpt>
      <trkpt lat="43.28602" lon="2.59525">
        <ele>100.372</ele>
        <time>2021-02-05T14:03:11Z</time>
      </trkpt>
      <trkpt lat="43.28592" lon="2.59419">
        <ele>100.954</ele>
        <time>2021-02-05T14:03:31Z</time>
      </trkpt>
      <trkpt lat="43.28561" lon="2.59281">
        <ele>101.593</ele>
        <time>2021-02-05T14:03:51Z</time>
      </trkpt>
      <trkpt lat="43.28556" lon="2.59196">
        <ele>102.665</ele>
        <time>2021-02-05T14:04:11Z</time>
      </trkpt>
      <trkpt lat="43.28533" lon="2.59135">
        <ele>103.621</ele>
        <time>2021-02-05T14:04:31Z</time>
      </trkpt>
      <trkpt lat="43.28521" lon="2.59084">
        <ele>103.508</ele>
        <time>2021-02-05T14:04:51Z</time>
      </trkpt>
      <trkpt lat="43.28509" lon="2.58896">
        <ele>103.635</ele>
        <time>2021-02-05T14:05:11Z</time>
      </trkpt>
      <trkpt lat="43.28499" lon="2.58823">
        <ele>105.184</ele>
        <time>2021-02-05T14:05:31Z</time>
      </trkpt>
      <trkpt lat="43.28509" lon="2.58777">
        <ele>105.76</ele>
        <time>2021-02-05T14:05:51Z</time>
      </trkpt>
      <trkpt lat="43.28512" lon="2.58744">
        <ele>106.086</ele>
        <time>2021-02-05T14:06:11Z</time>
      </trkpt>
      <trkpt lat="43.28513" lon="2.58704">
        <ele>105.957</ele>
        <time>2021-02-05T14:06:31Z</time>
      </trkpt>
      <trkpt lat="43.28493" lon="2.58627">
        <ele>107.479</ele>
        <time>2021-02-05T14:06:51Z</time>
      </trkpt>
      <trkpt lat="43.28428" lon="2.58637">
        <ele>111.622</ele>
        <time>2021-02-05T14:07:11Z</time>
      </trkpt>
      <trkpt lat="43.28411" lon="2.58648">
        <ele>112.914</ele>
        <time>2021-02-05T14:07:31Z</time>
      </trkpt>
      <trkpt lat="43.28381" lon="2.58652">
        <ele>116.064</ele>
        <time>2021-02-05T14:07:51Z</time>
      </trkpt>
      <trkpt lat="43.28377" lon="2.58639">
        <ele>116.506</ele>
        <time>2021-02-05T14:08:11Z</time>
      </trkpt>
      <trkpt lat="43.28396" lon="2.58617">
        <ele>114.716</ele>
        <time>2021-02-05T14:08:31Z</time>
      </trkpt>
      <trkpt lat="43.28404" lon="2.58617">
        <ele>113.908</ele>
        <time>2021-02-05T14:08:51Z</time>
      </trkpt>
      <trkpt lat="43.28407" lon="2.58606">
        <ele>113.712</ele>
        <time>2021-02-05T14:09:11Z</time>
      </trkpt>
      <trkpt lat="43.28389" lon="2.58544">
        <ele>115.721</ele>
        <time>2021-02-05T14:09:31Z</time>
      </trkpt>
      <trkpt lat="43.28352" lon="2.58525">
        <ele>119.217</ele>
        <time>2021-02-05T14:09:51Z</time>
      </trkpt>
      <trkpt lat="43.28296" lon="2.58486">
        <ele>121.413</ele>
        <time>2021-02-05T14:10:11Z</time>
      </trkpt>
      <trkpt lat="43.28344" lon="2.58424">
        <ele>119.374</ele>
        <time>2021-02-05T14:10:31Z</time>
      </trkpt>
      <trkpt lat="43.28349" lon="2.58397">
        <ele>118.736</ele>
        <time>2021-02-05T14:10:51Z</time>
      </trkpt>
      <trkpt lat="43.28368" lon="2.58338">
        <ele>116.949</ele>
        <time>2021-02-05T14:11:11Z</time>
      </trkpt>
      <trkpt lat="43.28377" lon="2.5828">
        <ele>116.641</ele>
        <time>2021-02-05T14:11:31Z</time>
      </trkpt>
      <trkpt lat="43.28419" lon="2.58135">
        <ele>114.883</ele>
        <time>2021-02-05T14:11:51Z</time>
      </trkpt>
      <trkpt lat="43.28475" lon="2.57923">
        <ele>111.925</ele>
        <time>2021-02-05T14:12:11Z</time>
      </trkpt>
      <trkpt lat="43.28497" lon="2.57843">
        <ele>114.517</ele>
        <time>2021-02-05T14:12:31Z</time>
      </trkpt>
      <trkpt lat="43.28537" lon="2.57761">
        <ele>115.008</ele>
        <time>2021-02-05T14:12:51Z</time>
      </trkpt>
      <trkpt lat="43.28592" lon="2.57666">
        <ele>113.084</ele>
        <time>2021-02-05T14:13:11Z</time>
      </trkpt>
      <trkpt lat="43.28615" lon="2.57642">
        <ele>113.663</ele>
        <time>2021-02-05T14:13:31Z</time>
      </trkpt>
      <trkpt lat="43.28662" lon="2.57608">
        <ele>113.199</ele>
        <time>2021-02-05T14:13:51Z</time>
      </trkpt>
      <trkpt lat="43.28663" lon="2.57584">
        <ele>113.185</ele>
        <time>2021-02-05T14:14:11Z</time>
      </trkpt>
      <trkpt lat="43.28666" lon="2.57568">
        <ele>114.116</ele>
        <time>2021-02-05T14:14:31Z</time>
      </trkpt>
      <trkpt lat="43.28744" lon="2.57489">
        <ele>118.038</ele>
        <time>2021-02-05T14:14:51Z</time>
      </trkpt>
      <trkpt lat="43.28842" lon="2.57331">
        <ele>121.631</ele>
        <time>2021-02-05T14:15:11Z</time>
      </trkpt>
      <trkpt lat="43.2888" lon="2.57285">
        <ele>120.983</ele>
        <time>2021-02-05T14:15:31Z</time>
      </trkpt>
      <trkpt lat="43.28908" lon="2.5722">
        <ele>120.161</ele>
        <time>2021-02-05T14:15:51Z</time>
      </trkpt>
      <trkpt lat="43.28925" lon="2.57205">
        <ele>119.621</ele>
        <time>2021-02-05T14:16:11Z</time>
      </trkpt>
      <trkpt lat="43.29022" lon="2.57058">
        <ele>121.113</ele>
        <time>2021-02-05T14:16:31Z</time>
      </trkpt>
      <trkpt lat="43.29039" lon="2.57022">
        <ele>120.808</ele>
        <time>2021-02-05T14:16:51Z</time>
      </trkpt>
      <trkpt lat="43.29041" lon="2.56977">
        <ele>121.932</ele>
        <time>2021-02-05T14:17:11Z</time>
      </trkpt>
      <trkpt lat="43.29037" lon="2.5694">
        <ele>124.291</ele>
        <time>2021-02-05T14:17:31Z</time>
      </trkpt>
      <trkpt lat="43.29042" lon="2.56882">
        <ele>127.667</ele>
        <time>2021-02-05T14:17:51Z</time>
      </trkpt>
      <trkpt lat="43.29059" lon="2.56862">
        <ele>128.613</ele>
        <time>2021-02-05T14:18:11Z</time>
      </trkpt>
      <trkpt lat="43.29064" lon="2.56845">
        <ele>129.534</ele>
        <time>2021-02-05T14:18:31Z</time>
      </trkpt>
      <trkpt lat="43.2908" lon="2.5685">
        <ele>129.046</ele>
        <time>2021-02-05T14:18:51Z</time>
      </trkpt>
      <trkpt lat="43.2911" lon="2.56892">
        <ele>126.239</ele>
        <time>2021-02-05T14:19:11Z</time>
      </trkpt>
      <trkpt lat="43.2912" lon="2.56893">
        <ele>126.061</ele>
        <time>2021-02-05T14:19:31Z</time>
      </trkpt>
      <trkpt lat="43.29145" lon="2.56917">
        <ele>124.227</ele>
        <time>2021-02-05T14:19:51Z</time>
      </trkpt>
      <trkpt lat="43.29169" lon="2.56884">
        <ele>125.968</ele>
        <time>2021-02-05T14:20:11Z</time>
      </trkpt>
      <trkpt lat="43.29196" lon="2.56858">
        <ele>125.914</ele>
        <time>2021-02-05T14:20:31Z</time>
      </trkpt>
      <trkpt lat="43.29214" lon="2.56812">
        <ele>126.308</ele>
        <time>2021-02-05T14:20:51Z</time>
      </trkpt>
      <trkpt lat="43.29223" lon="2.56752">
        <ele>127.578</ele>
        <time>2021-02-05T14:21:11Z</time>
      </trkpt>
      <trkpt lat="43.29213" lon="2.56733">
        <ele>128.817</ele>
        <time>2021-02-05T14:21:31Z</time>
      </trkpt>
      <trkpt lat="43.29196" lon="2.56671">
        <ele>131.173</ele>
        <time>2021-02-05T14:21:51Z</time>
      </trkpt>
      <trkpt lat="43.29178" lon="2.56645">
        <ele>133.159</ele>
        <time>2021-02-05T14:22:11Z</time>
      </trkpt>
      <trkpt lat="43.29105" lon="2.56597">
        <ele>136.97</ele>
        <time>2021-02-05T14:22:31Z</time>
      </trkpt>
      <trkpt lat="43.29112" lon="2.56397">
        <ele>137.262</ele>
        <time>2021-02-05T14:22:51Z</time>
      </trkpt>
      <trkpt lat="43.29099" lon="2.56286">
        <ele>137.795</ele>
        <time>2021-02-05T14:23:11Z</time>
      </trkpt>
      <trkpt lat="43.291" lon="2.56181">
        <ele>138.967</ele>
        <time>2021-02-05T14:23:31Z</time>
      </trkpt>
      <trkpt lat="43.28945" lon="2.56033">
        <ele>132.769</ele>
        <time>2021-02-05T14:23:51Z</time>
      </trkpt>
      <trkpt lat="43.28845" lon="2.55981">
        <ele>124.804</ele>
        <time>2021-02-05T14:24:11Z</time>
      </trkpt>
      <trkpt lat="43.28614" lon="2.55921">
        <ele>114.024</ele>
        <time>2021-02-05T14:24:31Z</time>
      </trkpt>
      <trkpt lat="43.2857" lon="2.55899">
        <ele>113.808</ele>
        <time>2021-02-05T14:24:51Z</time>
      </trkpt>
      <trkpt lat="43.28395" lon="2.55648">
        <ele>121.962</ele>
        <time>2021-02-05T14:25:11Z</time>
      </trkpt>
      <trkpt lat="43.28343" lon="2.5565">
        <ele>126.491</ele>
        <time>2021-02-05T14:25:31Z</time>
      </trkpt>
      <trkpt lat="43.28201" lon="2.55587">
        <ele>137.747</ele>
        <time>2021-02-05T14:25:51Z</time>
      </trkpt>
      <trkpt lat="43.28123" lon="2.5558">
        <ele>144.313</ele>
        <time>2021-02-05T14:26:11Z</time>
      </trkpt>
      <trkpt lat="43.27935" lon="2.55489">
        <ele>155.724</ele>
        <time>2021-02-05T14:26:31Z</time>
      </trkpt>
      <trkpt lat="43.27868" lon="2.55467">
        <ele>156.046</ele>
        <time>2021-02-05T14:26:51Z</time>
      </trkpt>
      <trkpt lat="43.27746" lon="2.55374">
        <ele>162.029</ele>
        <time>2021-02-05T14:27:11Z</time>
      </trkpt>
      <trkpt lat="43.27708" lon="2.55327">
        <ele>160.171</ele>
        <time>2021-02-05T14:27:31Z</time>
      </trkpt>
      <trkpt lat="43.27659" lon="2.55332">
        <ele>157.448</ele>
        <time>2021-02-05T14:27:51Z</time>
      </trkpt>
      <trkpt lat="43.27614" lon="2.55271">
        <ele>148.261</ele>
        <time>2021-02-05T14:28:11Z</time>
      </trkpt>
      <trkpt lat="43.27187" lon="2.55114">
        <ele>115.117</ele>
        <time>2021-02-05T14:28:31Z</time>
      </trkpt>
      <trkpt lat="43.26989" lon="2.55198">
        <ele>102.108</ele>
        <time>2021-02-05T14:28:51Z</time>
      </trkpt>
      <trkpt lat="43.26914" lon="2.55198">
        <ele>97.22</ele>
        <time>2021-02-05T14:29:11Z</time>
      </trkpt>
      <trkpt lat="43.26867" lon="2.55263">
        <ele>95.429</ele>
        <time>2021-02-05T14:29:31Z</time>
      </trkpt>
      <trkpt lat="43.26829" lon="2.55397">
        <ele>92.535</ele>
        <time>2021-02-05T14:29:51Z</time>
      </trkpt>
      <trkpt lat="43.26613" lon="2.55287">
        <ele>85.141</ele>
        <time>2021-02-05T14:30:11Z</time>
      </trkpt>
      <trkpt lat="43.26443" lon="2.55273">
        <ele>82.362</ele>
        <time>2021-02-05T14:30:31Z</time>
      </trkpt>
      <trkpt lat="43.2609" lon="2.55393">
        <ele>69.014</ele>
        <time>2021-02-05T14:30:51Z</time>
      </trkpt>
      <trkpt lat="43.26118" lon="2.55188">
        <ele>73.047</ele>
        <time>2021-02-05T14:31:11Z</time>
      </trkpt>
      <trkpt lat="43.25954" lon="2.55064">
        <ele>63.369</ele>
        <time>2021-02-05T14:31:31Z</time>
      </trkpt>
      <trkpt lat="43.25888" lon="2.55057">
        <ele>61.592</ele>
        <time>2021-02-05T14:31:51Z</time>
      </trkpt>
      <trkpt lat="43.25808" lon="2.55083">
        <ele>60.773</ele>
        <time>2021-02-05T14:32:11Z</time>
      </trkpt>
      <trkpt lat="43.25722" lon="2.5508">
        <ele>60.72</ele>
        <time>2021-02-05T14:32:31Z</time>
      </trkpt>
      <trkpt lat="43.25528" lon="2.55024">
        <ele>60.008</ele>
        <time>2021-02-05T14:32:51Z</time>
      </trkpt>
      <trkpt lat="43.25449" lon="2.54942">
        <ele>60.435</ele>
        <time>2021-02-05T14:33:11Z</time>
      </trkpt>
      <trkpt lat="43.25411" lon="2.54911">
        <ele>60.184</ele>
        <time>2021-02-05T14:33:31Z</time>
      </trkpt>
      <trkpt lat="43.2542" lon="2.54884">
        <ele>60.48</ele>
        <time>2021-02-05T14:33:51Z</time>
      </trkpt>
      <trkpt lat="43.25386" lon="2.54726">
        <ele>61.346</ele>
        <time>2021-02-05T14:34:11Z</time>
      </trkpt>
      <trkpt lat="43.25358" lon="2.54689">
        <ele>61.257</ele>
        <time>2021-02-05T14:34:31Z</time>
      </trkpt>
      <trkpt lat="43.25317" lon="2.54496">
        <ele>61.049</ele>
        <time>2021-02-05T14:34:51Z</time>
      </trkpt>
      <trkpt lat="43.25284" lon="2.54433">
        <ele>61.142</ele>
        <time>2021-02-05T14:35:11Z</time>
      </trkpt>
      <trkpt lat="43.25213" lon="2.54156">
        <ele>63.764</ele>
        <time>2021-02-05T14:35:31Z</time>
      </trkpt>
      <trkpt lat="43.25176" lon="2.53943">
        <ele>63.447</ele>
        <time>2021-02-05T14:35:51Z</time>
      </trkpt>
      <trkpt lat="43.25164" lon="2.53811">
        <ele>63.629</ele>
        <time>2021-02-05T14:36:11Z</time>
      </trkpt>
      <trkpt lat="43.25085" lon="2.53652">
        <ele>65.221</ele>
        <time>2021-02-05T14:36:31Z</time>
      </trkpt>
      <trkpt lat="43.25054" lon="2.53499">
        <ele>65.608</ele>
        <time>2021-02-05T14:36:51Z</time>
      </trkpt>
      <trkpt lat="43.2501" lon="2.53422">
        <ele>64.18</ele>
        <time>2021-02-05T14:37:11Z</time>
      </trkpt>
      <trkpt lat="43.25019" lon="2.53277">
        <ele>64.969</ele>
        <time>2021-02-05T14:37:31Z</time>
      </trkpt>
      <trkpt lat="43.25001" lon="2.53138">
        <ele>64.045</ele>
        <time>2021-02-05T14:37:51Z</time>
      </trkpt>
      <trkpt lat="43.24966" lon="2.53035">
        <ele>65.221</ele>
        <time>2021-02-05T14:38:11Z</time>
      </trkpt>
      <trkpt lat="43.24973" lon="2.52798">
        <ele>69.152</ele>
        <time>2021-02-05T14:38:31Z</time>
      </trkpt>
      <trkpt lat="43.24954" lon="2.52633">
        <ele>71.164</ele>
        <time>2021-02-05T14:38:51Z</time>
      </trkpt>
      <trkpt lat="43.24959" lon="2.52601">
        <ele>71.087</ele>
        <time>2021-02-05T14:39:11Z</time>
      </trkpt>
      <trkpt lat="43.24941" lon="2.52547">
        <ele>71.719</ele>
        <time>2021-02-05T14:39:31Z</time>
      </trkpt>
      <trkpt lat="43.24939" lon="2.52165">
        <ele>77.167</ele>
        <time>2021-02-05T14:39:51Z</time>
      </trkpt>
      <trkpt lat="43.24914" lon="2.52134">
        <ele>76.881</ele>
        <time>2021-02-05T14:40:11Z</time>
      </trkpt>
      <trkpt lat="43.24903" lon="2.52056">
        <ele>79.419</ele>
        <time>2021-02-05T14:40:31Z</time>
      </trkpt>
      <trkpt lat="43.24901" lon="2.51618">
        <ele>89.708</ele>
        <time>2021-02-05T14:40:51Z</time>
      </trkpt>
      <trkpt lat="43.24915" lon="2.50809">
        <ele>93.972</ele>
        <time>2021-02-05T14:41:11Z</time>
      </trkpt>
      <trkpt lat="43.24914" lon="2.50686">
        <ele>93.991</ele>
        <time>2021-02-05T14:41:31Z</time>
      </trkpt>
      <trkpt lat="43.24949" lon="2.50517">
        <ele>91.087</ele>
        <time>2021-02-05T14:41:51Z</time>
      </trkpt>
      <trkpt lat="43.24958" lon="2.50382">
        <ele>88.093</ele>
        <time>2021-02-05T14:42:11Z</time>
      </trkpt>
      <trkpt lat="43.25016" lon="2.50023">
        <ele>103.914</ele>
        <time>2021-02-05T14:42:31Z</time>
      </trkpt>
      <trkpt lat="43.25117" lon="2.50037">
        <ele>103.686</ele>
        <time>2021-02-05T14:42:51Z</time>
      </trkpt>
      <trkpt lat="43.25211" lon="2.5003">
        <ele>97.269</ele>
        <time>2021-02-05T14:43:11Z</time>
      </trkpt>
      <trkpt lat="43.25316" lon="2.50074">
        <ele>90.511</ele>
        <time>2021-02-05T14:43:31Z</time>
      </trkpt>
      <trkpt lat="43.25374" lon="2.50027">
        <ele>91.795</ele>
        <time>2021-02-05T14:43:51Z</time>
      </trkpt>
      <trkpt lat="43.25434" lon="2.50018">
        <ele>92.649</ele>
        <time>2021-02-05T14:44:11Z</time>
      </trkpt>
      <trkpt lat="43.25527" lon="2.49914">
        <ele>96.323</ele>
        <time>2021-02-05T14:44:31Z</time>
      </trkpt>
      <trkpt lat="43.25513" lon="2.49786">
        <ele>96.708</ele>
        <time>2021-02-05T14:44:51Z</time>
      </trkpt>
      <trkpt lat="43.25435" lon="2.49504">
        <ele>98.135</ele>
        <time>2021-02-05T14:45:11Z</time>
      </trkpt>
      <trkpt lat="43.25426" lon="2.49361">
        <ele>98.064</ele>
        <time>2021-02-05T14:45:31Z</time>
      </trkpt>
      <trkpt lat="43.25449" lon="2.49352">
        <ele>99.78</ele>
        <time>2021-02-05T14:45:51Z</time>
      </trkpt>
      <trkpt lat="43.25461" lon="2.49234">
        <ele>101.576</ele>
        <time>2021-02-05T14:46:11Z</time>
      </trkpt>
      <trkpt lat="43.25515" lon="2.49164">
        <ele>103.317</ele>
        <time>2021-02-05T14:46:31Z</time>
      </trkpt>
      <trkpt lat="43.2557" lon="2.49077">
        <ele>105.599</ele>
        <time>2021-02-05T14:46:51Z</time>
      </trkpt>
      <trkpt lat="43.25609" lon="2.49033">
        <ele>109.042</ele>
        <time>2021-02-05T14:47:11Z</time>
      </trkpt>
      <trkpt lat="43.25635" lon="2.48936">
        <ele>115.444</ele>
        <time>2021-02-05T14:47:31Z</time>
      </trkpt>
      <trkpt lat="43.25674" lon="2.48945">
        <ele>119.554</ele>
        <time>2021-02-05T14:47:51Z</time>
      </trkpt>
      <trkpt lat="43.25718" lon="2.48939">
        <ele>122.756</ele>
        <time>2021-02-05T14:48:11Z</time>
      </trkpt>
      <trkpt lat="43.25781" lon="2.48725">
        <ele>126.111</ele>
        <time>2021-02-05T14:48:31Z</time>
      </trkpt>
      <trkpt lat="43.25786" lon="2.48619">
        <ele>127.208</ele>
        <time>2021-02-05T14:48:51Z</time>
      </trkpt>
      <trkpt lat="43.25812" lon="2.4846">
        <ele>128.161</ele>
        <time>2021-02-05T14:49:11Z</time>
      </trkpt>
      <trkpt lat="43.25859" lon="2.48279">
        <ele>132.33</ele>
        <time>2021-02-05T14:49:31Z</time>
      </trkpt>
      <trkpt lat="43.2583" lon="2.48246">
        <ele>131.966</ele>
        <time>2021-02-05T14:49:51Z</time>
      </trkpt>
      <trkpt lat="43.25819" lon="2.48165">
        <ele>131.762</ele>
        <time>2021-02-05T14:50:11Z</time>
      </trkpt>
      <trkpt lat="43.25836" lon="2.47974">
        <ele>140.123</ele>
        <time>2021-02-05T14:50:31Z</time>
      </trkpt>
      <trkpt lat="43.25863" lon="2.47894">
        <ele>146.065</ele>
        <time>2021-02-05T14:50:51Z</time>
      </trkpt>
      <trkpt lat="43.25866" lon="2.47819">
        <ele>150.458</ele>
        <time>2021-02-05T14:51:11Z</time>
      </trkpt>
      <trkpt lat="43.25929" lon="2.47542">
        <ele>164.53</ele>
        <time>2021-02-05T14:51:31Z</time>
      </trkpt>
      <trkpt lat="43.25946" lon="2.47357">
        <ele>185.248</ele>
        <time>2021-02-05T14:51:51Z</time>
      </trkpt>
      <trkpt lat="43.25993" lon="2.4725">
        <ele>194.761</ele>
        <time>2021-02-05T14:52:11Z</time>
      </trkpt>
      <trkpt lat="43.2597" lon="2.47181">
        <ele>194.217</ele>
        <time>2021-02-05T14:52:31Z</time>
      </trkpt>
      <trkpt lat="43.2593" lon="2.4712">
        <ele>192.908</ele>
        <time>2021-02-05T14:52:51Z</time>
      </trkpt>
      <trkpt lat="43.25905" lon="2.47108">
        <ele>192.13</ele>
        <time>2021-02-05T14:53:11Z</time>
      </trkpt>
      <trkpt lat="43.25874" lon="2.47148">
        <ele>191.979</ele>
        <time>2021-02-05T14:53:31Z</time>
      </trkpt>
      <trkpt lat="43.25803" lon="2.47177">
        <ele>189.975</ele>
        <time>2021-02-05T14:53:51Z</time>
      </trkpt>
      <trkpt lat="43.25727" lon="2.47189">
        <ele>188.081</ele>
        <time>2021-02-05T14:54:11Z</time>
      </trkpt>
      <trkpt lat="43.2566" lon="2.47132">
        <ele>183.222</ele>
        <time>2021-02-05T14:54:31Z</time>
      </trkpt>
      <trkpt lat="43.256" lon="2.47113">
        <ele>179.824</ele>
        <time>2021-02-05T14:54:51Z</time>
      </trkpt>
      <trkpt lat="43.2555" lon="2.47045">
        <ele>180.327</ele>
        <time>2021-02-05T14:55:11Z</time>
      </trkpt>
      <trkpt lat="43.25542" lon="2.46986">
        <ele>180.989</ele>
        <time>2021-02-05T14:55:31Z</time>
      </trkpt>
      <trkpt lat="43.25478" lon="2.46909">
        <ele>178.932</ele>
        <time>2021-02-05T14:55:51Z</time>
      </trkpt>
      <trkpt lat="43.25476" lon="2.46757">
        <ele>177.792</ele>
        <time>2021-02-05T14:56:11Z</time>
      </trkpt>
      <trkpt lat="43.25491" lon="2.46646">
        <ele>175.511</ele>
        <time>2021-02-05T14:56:31Z</time>
      </trkpt>
      <trkpt lat="43.25457" lon="2.46538">
        <ele>174.008</ele>
        <time>2021-02-05T14:56:51Z</time>
      </trkpt>
      <trkpt lat="43.25451" lon="2.46463">
        <ele>173.879</ele>
        <time>2021-02-05T14:57:11Z</time>
      </trkpt>
      <trkpt lat="43.25374" lon="2.46308">
        <ele>171.848</ele>
        <time>2021-02-05T14:57:31Z</time>
      </trkpt>
      <trkpt lat="43.25273" lon="2.46138">
        <ele>168.244</ele>
        <time>2021-02-05T14:57:51Z</time>
      </trkpt>
      <trkpt lat="43.25235" lon="2.46051">
        <ele>167.08</ele>
        <time>2021-02-05T14:58:11Z</time>
      </trkpt>
      <trkpt lat="43.252" lon="2.45872">
        <ele>163.121</ele>
        <time>2021-02-05T14:58:31Z</time>
      </trkpt>
      <trkpt lat="43.2518" lon="2.45813">
        <ele>161.823</ele>
        <time>2021-02-05T14:58:51Z</time>
      </trkpt>
      <trkpt lat="43.25115" lon="2.45544">
        <ele>156.686</ele>
        <time>2021-02-05T14:59:11Z</time>
      </trkpt>
      <trkpt lat="43.25095" lon="2.45171">
        <ele>154.188</ele>
        <time>2021-02-05T14:59:31Z</time>
      </trkpt>
      <trkpt lat="43.25077" lon="2.45094">
        <ele>153.666</ele>
        <time>2021-02-05T14:59:51Z</time>
      </trkpt>
      <trkpt lat="43.25072" lon="2.45018">
        <ele>152.029</ele>
        <time>2021-02-05T15:00:11Z</time>
      </trkpt>
      <trkpt lat="43.2502" lon="2.44931">
        <ele>149.921</ele>
        <time>2021-02-05T15:00:31Z</time>
      </trkpt>
      <trkpt lat="43.24945" lon="2.44898">
        <ele>145.308</ele>
        <time>2021-02-05T15:00:51Z</time>
      </trkpt>
      <trkpt lat="43.24898" lon="2.44997">
        <ele>142.472</ele>
        <time>2021-02-05T15:01:11Z</time>
      </trkpt>
      <trkpt lat="43.24841" lon="2.45272">
        <ele>142.611</ele>
        <time>2021-02-05T15:01:31Z</time>
      </trkpt>
      <trkpt lat="43.24723" lon="2.45415">
        <ele>139.017</ele>
        <time>2021-02-05T15:01:51Z</time>
      </trkpt>
      <trkpt lat="43.24491" lon="2.45412">
        <ele>131.863</ele>
        <time>2021-02-05T15:02:11Z</time>
      </trkpt>
      <trkpt lat="43.24422" lon="2.45037">
        <ele>126.034</ele>
        <time>2021-02-05T15:02:31Z</time>
      </trkpt>
      <trkpt lat="43.24389" lon="2.44959">
        <ele>124.756</ele>
        <time>2021-02-05T15:02:51Z</time>
      </trkpt>
      <trkpt lat="43.2438" lon="2.44779">
        <ele>125.329</ele>
        <time>2021-02-05T15:03:11Z</time>
      </trkpt>
      <trkpt lat="43.24363" lon="2.44666">
        <ele>124.381</ele>
        <time>2021-02-05T15:03:31Z</time>
      </trkpt>
      <trkpt lat="43.24361" lon="2.44441">
        <ele>125.928</ele>
        <time>2021-02-05T15:03:51Z</time>
      </trkpt>
      <trkpt lat="43.24389" lon="2.44195">
        <ele>121.289</ele>
        <time>2021-02-05T15:04:11Z</time>
      </trkpt>
      <trkpt lat="43.24359" lon="2.43963">
        <ele>114.217</ele>
        <time>2021-02-05T15:04:31Z</time>
      </trkpt>
      <trkpt lat="43.24341" lon="2.43615">
        <ele>102.308</ele>
        <time>2021-02-05T15:04:51Z</time>
      </trkpt>
      <trkpt lat="43.24441" lon="2.43632">
        <ele>103.258</ele>
        <time>2021-02-05T15:05:11Z</time>
      </trkpt>
      <trkpt lat="43.24384" lon="2.43597">
        <ele>102.917</ele>
        <time>2021-02-05T15:05:31Z</time>
      </trkpt>
      <trkpt lat="43.24313" lon="2.43425">
        <ele>100.743</ele>
        <time>2021-02-05T15:05:51Z</time>
      </trkpt>
      <trkpt lat="43.24206" lon="2.43214">
        <ele>101.069</ele>
        <time>2021-02-05T15:06:11Z</time>
      </trkpt>
      <trkpt lat="43.24148" lon="2.43169">
        <ele>99.56</ele>
        <time>2021-02-05T15:06:31Z</time>
      </trkpt>
      <trkpt lat="43.2405" lon="2.43155">
        <ele>98.392</ele>
        <time>2021-02-05T15:06:51Z</time>
      </trkpt>
      <trkpt lat="43.24211" lon="2.42912">
        <ele>106.485</ele>
        <time>2021-02-05T15:07:11Z</time>
      </trkpt>
      <trkpt lat="43.2393" lon="2.42651">
        <ele>110.347</ele>
        <time>2021-02-05T15:07:31Z</time>
      </trkpt>
      <trkpt lat="43.23985" lon="2.42602">
        <ele>108.291</ele>
        <time>2021-02-05T15:07:51Z</time>
      </trkpt>
      <trkpt lat="43.24025" lon="2.42522">
        <ele>113.581</ele>
        <time>2021-02-05T15:08:11Z</time>
      </trkpt>
      <trkpt lat="43.24015" lon="2.42208">
        <ele>124.519</ele>
        <time>2021-02-05T15:08:31Z</time>
      </trkpt>
      <trkpt lat="43.23982" lon="2.42017">
        <ele>118.008</ele>
        <time>2021-02-05T15:08:51Z</time>
      </trkpt>
      <trkpt lat="43.23987" lon="2.41825">
        <ele>112.985</ele>
        <time>2021-02-05T15:09:11Z</time>
      </trkpt>
      <trkpt lat="43.2394" lon="2.41382">
        <ele>112.534</ele>
        <time>2021-02-05T15:09:31Z</time>
      </trkpt>
      <trkpt lat="43.23937" lon="2.41236">
        <ele>110.53</ele>
        <time>2021-02-05T15:09:51Z</time>
      </trkpt>
      <trkpt lat="43.23908" lon="2.41222">
        <ele>107.926</ele>
        <time>2021-02-05T15:10:11Z</time>
      </trkpt>
      <trkpt lat="43.23827" lon="2.41229">
        <ele>103.757</ele>
        <time>2021-02-05T15:10:31Z</time>
      </trkpt>
      <trkpt lat="43.23669" lon="2.41459">
        <ele>96.689</ele>
        <time>2021-02-05T15:10:51Z</time>
      </trkpt>
      <trkpt lat="43.23611" lon="2.41494">
        <ele>95.612</ele>
        <time>2021-02-05T15:11:11Z</time>
      </trkpt>
      <trkpt lat="43.2354" lon="2.41335">
        <ele>93.524</ele>
        <time>2021-02-05T15:11:31Z</time>
      </trkpt>
      <trkpt lat="43.23794" lon="2.4114">
        <ele>97.542</ele>
        <time>2021-02-05T15:11:51Z</time>
      </trkpt>
      <trkpt lat="43.23866" lon="2.41063">
        <ele>96.622</ele>
        <time>2021-02-05T15:12:11Z</time>
      </trkpt>
      <trkpt lat="43.24035" lon="2.40765">
        <ele>95.914</ele>
        <time>2021-02-05T15:12:31Z</time>
      </trkpt>
      <trkpt lat="43.24236" lon="2.40601">
        <ele>96.808</ele>
        <time>2021-02-05T15:12:51Z</time>
      </trkpt>
      <trkpt lat="43.24257" lon="2.40486">
        <ele>95.33</ele>
        <time>2021-02-05T15:13:11Z</time>
      </trkpt>
      <trkpt lat="43.2426" lon="2.40335">
        <ele>96.029</ele>
        <time>2021-02-05T15:13:31Z</time>
      </trkpt>
      <trkpt lat="43.24309" lon="2.40021">
        <ele>94.825</ele>
        <time>2021-02-05T15:13:51Z</time>
      </trkpt>
      <trkpt lat="43.24387" lon="2.39686">
        <ele>97.741</ele>
        <time>2021-02-05T15:14:11Z</time>
      </trkpt>
      <trkpt lat="43.24377" lon="2.3959">
        <ele>96.192</ele>
        <time>2021-02-05T15:14:31Z</time>
      </trkpt>
      <trkpt lat="43.24256" lon="2.39423">
        <ele>96.024</ele>
        <time>2021-02-05T15:14:51Z</time>
      </trkpt>
      <trkpt lat="43.24219" lon="2.3916">
        <ele>97.777</ele>
        <time>2021-02-05T15:15:11Z</time>
      </trkpt>
      <trkpt lat="43.24242" lon="2.38947">
        <ele>96.259</ele>
        <time>2021-02-05T15:15:31Z</time>
      </trkpt>
      <trkpt lat="43.24318" lon="2.38811">
        <ele>96.828</ele>
        <time>2021-02-05T15:15:51Z</time>
      </trkpt>
      <trkpt lat="43.24351" lon="2.38681">
        <ele>98.989</ele>
        <time>2021-02-05T15:16:11Z</time>
      </trkpt>
      <trkpt lat="43.24347" lon="2.38513">
        <ele>97.917</ele>
        <time>2021-02-05T15:16:31Z</time>
      </trkpt>
      <trkpt lat="43.24323" lon="2.38402">
        <ele>98.008</ele>
        <time>2021-02-05T15:16:51Z</time>
      </trkpt>
      <trkpt lat="43.24095" lon="2.38039">
        <ele>98.288</ele>
        <time>2021-02-05T15:17:11Z</time>
      </trkpt>
      <trkpt lat="43.23737" lon="2.37272">
        <ele>101.717</ele>
        <time>2021-02-05T15:17:31Z</time>
      </trkpt>
      <trkpt lat="43.23681" lon="2.37248">
        <ele>102.133</ele>
        <time>2021-02-05T15:17:51Z</time>
      </trkpt>
      <trkpt lat="43.23013" lon="2.37548">
        <ele>105.239</ele>
        <time>2021-02-05T15:18:11Z</time>
      </trkpt>
      <trkpt lat="43.22948" lon="2.37527">
        <ele>105.51</ele>
        <time>2021-02-05T15:18:31Z</time>
      </trkpt>
      <trkpt lat="43.22845" lon="2.37436">
        <ele>105.392</ele>
        <time>2021-02-05T15:18:51Z</time>
      </trkpt>
      <trkpt lat="43.22793" lon="2.37333">
        <ele>106.245</ele>
        <time>2021-02-05T15:19:11Z</time>
      </trkpt>
      <trkpt lat="43.22745" lon="2.36981">
        <ele>106.937</ele>
        <time>2021-02-05T15:19:31Z</time>
      </trkpt>
      <trkpt lat="43.22684" lon="2.36898">
        <ele>105.993</ele>
        <time>2021-02-05T15:19:51Z</time>
      </trkpt>
      <trkpt lat="43.22486" lon="2.36842">
        <ele>102.665</ele>
        <time>2021-02-05T15:20:11Z</time>
      </trkpt>
      <trkpt lat="43.22421" lon="2.36762">
        <ele>102.021</ele>
        <time>2021-02-05T15:20:31Z</time>
      </trkpt>
      <trkpt lat="43.22383" lon="2.36638">
        <ele>104.908</ele>
        <time>2021-02-05T15:20:51Z</time>
      </trkpt>
      <trkpt lat="43.22394" lon="2.36295">
        <ele>114.895</ele>
        <time>2021-02-05T15:21:11Z</time>
      </trkpt>
      <trkpt lat="43.22243" lon="2.35739">
        <ele>111.124</ele>
        <time>2021-02-05T15:21:31Z</time>
      </trkpt>
      <trkpt lat="43.22203" lon="2.35657">
        <ele>111.47</ele>
        <time>2021-02-05T15:21:51Z</time>
      </trkpt>
      <trkpt lat="43.21782" lon="2.35352">
        <ele>107.296</ele>
        <time>2021-02-05T15:22:11Z</time>
      </trkpt>
      <trkpt lat="43.2172" lon="2.35244">
        <ele>110.497</ele>
        <time>2021-02-05T15:22:31Z</time>
      </trkpt>
      <trkpt lat="43.2172" lon="2.35188">
        <ele>109.719</ele>
        <time>2021-02-05T15:22:51Z</time>
      </trkpt>
      <trkpt lat="43.21654" lon="2.35186">
        <ele>112.172</ele>
        <time>2021-02-05T15:23:11Z</time>
      </trkpt>
      <trkpt lat="43.21655" lon="2.35099">
        <ele>112.144</ele>
        <time>2021-02-05T15:23:31Z</time>
      </trkpt>
      <trkpt lat="43.21261" lon="2.35129">
        <ele>115.141</ele>
        <time>2021-02-05T15:23:51Z</time>
      </trkpt>
      <trkpt lat="43.21261" lon="2.35054">
        <ele>116.381</ele>
        <time>2021-02-05T15:24:11Z</time>
      </trkpt>
      <trkpt lat="43.21075" lon="2.35057">
        <ele>115.009</ele>
        <time>2021-02-05T15:24:31Z</time>
      </trkpt>
      <trkpt lat="43.21048" lon="2.35526">
        <ele>108.008</ele>
        <time>2021-02-05T15:24:51Z</time>
      </trkpt>
      <trkpt lat="43.21115" lon="2.35535">
        <ele>108.42</ele>
        <time>2021-02-05T15:25:11Z</time>
      </trkpt>
      <trkpt lat="43.2109" lon="2.35709">
        <ele>107.079</ele>
        <time>2021-02-05T15:25:31Z</time>
      </trkpt>
      <trkpt lat="43.21038" lon="2.35822">
        <ele>100.045</ele>
        <time>2016-04-13T14:31:12Z</time>
      </trkpt>
      <trkpt lat="43.20755" lon="2.35556">
        <ele>100.224</ele>
        <time>2016-04-13T14:31:32Z</time>
      </trkpt>
      <trkpt lat="43.20601" lon="2.35399">
        <ele>100.867</ele>
        <time>2016-04-13T14:31:52Z</time>
      </trkpt>
      <trkpt lat="43.20566" lon="2.35351">
        <ele>101.369</ele>
        <time>2016-04-13T14:32:12Z</time>
      </trkpt>
      <trkpt lat="43.20551" lon="2.35304">
        <ele>101.762</ele>
        <time>2016-04-13T14:32:32Z</time>
      </trkpt>
      <trkpt lat="43.20551" lon="2.35253">
        <ele>104.083</ele>
        <time>2016-04-13T14:32:52Z</time>
      </trkpt>
      <trkpt lat="43.20532" lon="2.35161">
        <ele>102.511</ele>
        <time>2016-04-13T14:33:12Z</time>
      </trkpt>
      <trkpt lat="43.20543" lon="2.35099">
        <ele>105.108</ele>
        <time>2016-04-13T14:33:32Z</time>
      </trkpt>
      <trkpt lat="43.20535" lon="2.35038">
        <ele>105.372</ele>
        <time>2016-04-13T14:33:52Z</time>
      </trkpt>
      <trkpt lat="43.20536" lon="2.34971">
        <ele>105.021</ele>
        <time>2016-04-13T14:34:12Z</time>
      </trkpt>
      <trkpt lat="43.20555" lon="2.34854">
        <ele>105.067</ele>
        <time>2016-04-13T14:34:32Z</time>
      </trkpt>
      <trkpt lat="43.20576" lon="2.34838">
        <ele>105.163</ele>
        <time>2016-04-13T14:34:52Z</time>
      </trkpt>
      <trkpt lat="43.20606" lon="2.34766">
        <ele>105.544</ele>
        <time>2016-04-13T14:35:12Z</time>
      </trkpt>
      <trkpt lat="43.20598" lon="2.34739">
        <ele>105.036</ele>
        <time>2016-04-13T14:35:32Z</time>
      </trkpt>
      <trkpt lat="43.20627" lon="2.34633">
        <ele>105.059</ele>
        <time>2016-04-13T14:35:52Z</time>
      </trkpt>
      <trkpt lat="43.20722" lon="2.34362">
        <ele>105.061</ele>
        <time>2016-04-13T14:36:12Z</time>
      </trkpt>
      <trkpt lat="43.20724" lon="2.34302">
        <ele>105.115</ele>
        <time>2016-04-13T14:36:32Z</time>
      </trkpt>
      <trkpt lat="43.2077" lon="2.34084">
        <ele>106.465</ele>
        <time>2016-04-13T14:36:52Z</time>
      </trkpt>
      <trkpt lat="43.20771" lon="2.33968">
        <ele>106.611</ele>
        <time>2016-04-13T14:37:12Z</time>
      </trkpt>
      <trkpt lat="43.20744" lon="2.33831">
        <ele>106.908</ele>
        <time>2016-04-13T14:37:32Z</time>
      </trkpt>
      <trkpt lat="43.20701" lon="2.33733">
        <ele>106.477</ele>
        <time>2016-04-13T14:37:52Z</time>
      </trkpt>
      <trkpt lat="43.20682" lon="2.3371">
        <ele>106.236</ele>
        <time>2016-04-13T14:38:12Z</time>
      </trkpt>
      <trkpt lat="43.20656" lon="2.33648">
        <ele>107.052</ele>
        <time>2016-04-13T14:38:32Z</time>
      </trkpt>
      <trkpt lat="43.2056" lon="2.33517">
        <ele>106.618</ele>
        <time>2016-04-13T14:38:52Z</time>
      </trkpt>
      <trkpt lat="43.20518" lon="2.33485">
        <ele>106.739</ele>
        <time>2016-04-13T14:39:12Z</time>
      </trkpt>
      <trkpt lat="43.20468" lon="2.33466">
        <ele>106.221</ele>
        <time>2016-04-13T14:39:32Z</time>
      </trkpt>
      <trkpt lat="43.20407" lon="2.33426">
        <ele>106.424</ele>
        <time>2016-04-13T14:39:52Z</time>
      </trkpt>
      <trkpt lat="43.20402" lon="2.33403">
        <ele>106.786</ele>
        <time>2016-04-13T14:40:12Z</time>
      </trkpt>
      <trkpt lat="43.20442" lon="2.33348">
        <ele>109.493</ele>
        <time>2016-04-13T14:40:32Z</time>
      </trkpt>
      <trkpt lat="43.20462" lon="2.3334">
        <ele>109.965</ele>
        <time>2016-04-13T14:40:52Z</time>
      </trkpt>
      <trkpt lat="43.2048" lon="2.33233">
        <ele>111.021</ele>
        <time>2016-04-13T14:41:12Z</time>
      </trkpt>
      <trkpt lat="43.2051" lon="2.33097">
        <ele>112.008</ele>
        <time>2016-04-13T14:41:32Z</time>
      </trkpt>
      <trkpt lat="43.20506" lon="2.33069">
        <ele>112.085</ele>
        <time>2016-04-13T14:41:52Z</time>
      </trkpt>
      <trkpt lat="43.20345" lon="2.32965">
        <ele>112.694</ele>
        <time>2016-04-13T14:42:12Z</time>
      </trkpt>
      <trkpt lat="43.20365" lon="2.32861">
        <ele>112.83</ele>
        <time>2016-04-13T14:42:32Z</time>
      </trkpt>
      <trkpt lat="43.20402" lon="2.32732">
        <ele>112.516</ele>
        <time>2016-04-13T14:42:52Z</time>
      </trkpt>
      <trkpt lat="43.20423" lon="2.32632">
        <ele>112.877</ele>
        <time>2016-04-13T14:43:12Z</time>
      </trkpt>
      <trkpt lat="43.20349" lon="2.32622">
        <ele>116.059</ele>
        <time>2016-04-13T14:43:32Z</time>
      </trkpt>
      <trkpt lat="43.20364" lon="2.32497">
        <ele>118.962</ele>
        <time>2016-04-13T14:43:52Z</time>
      </trkpt>
      <trkpt lat="43.20362" lon="2.32464">
        <ele>120.264</ele>
        <time>2016-04-13T14:44:12Z</time>
      </trkpt>
      <trkpt lat="43.20371" lon="2.32436">
        <ele>119.979</ele>
        <time>2016-04-13T14:44:32Z</time>
      </trkpt>
      <trkpt lat="43.20383" lon="2.3233">
        <ele>120.205</ele>
        <time>2016-04-13T14:44:52Z</time>
      </trkpt>
      <trkpt lat="43.20367" lon="2.32314">
        <ele>120.825</ele>
        <time>2016-04-13T14:45:12Z</time>
      </trkpt>
      <trkpt lat="43.20193" lon="2.32359">
        <ele>140.008</ele>
        <time>2016-04-13T14:45:32Z</time>
      </trkpt>
      <trkpt lat="43.20171" lon="2.32328">
        <ele>140.053</ele>
        <time>2016-04-13T14:45:52Z</time>
      </trkpt>
      <trkpt lat="43.20172" lon="2.32292">
        <ele>140.032</ele>
        <time>2016-04-13T14:46:12Z</time>
      </trkpt>
      <trkpt lat="43.2013" lon="2.32267">
        <ele>139.338</ele>
        <time>2016-04-13T14:46:32Z</time>
      </trkpt>
      <trkpt lat="43.20108" lon="2.32246">
        <ele>140.094</ele>
        <time>2016-04-13T14:46:52Z</time>
      </trkpt>
      <trkpt lat="43.19968" lon="2.3221">
        <ele>139.765</ele>
        <time>2016-04-13T14:47:12Z</time>
      </trkpt>
      <trkpt lat="43.1994" lon="2.32161">
        <ele>136.667</ele>
        <time>2016-04-13T14:47:32Z</time>
      </trkpt>
      <trkpt lat="43.19848" lon="2.32132">
        <ele>132.97</ele>
        <time>2016-04-13T14:47:52Z</time>
      </trkpt>
      <trkpt lat="43.19816" lon="2.32132">
        <ele>132.842</ele>
        <time>2016-04-13T14:48:12Z</time>
      </trkpt>
      <trkpt lat="43.19715" lon="2.32155">
        <ele>132.663</ele>
        <time>2016-04-13T14:48:32Z</time>
      </trkpt>
      <trkpt lat="43.19691" lon="2.3206">
        <ele>131.444</ele>
        <time>2016-04-13T14:48:52Z</time>
      </trkpt>
      <trkpt lat="43.19669" lon="2.31939">
        <ele>132.818</ele>
        <time>2016-04-13T14:49:12Z</time>
      </trkpt>
      <trkpt lat="43.19673" lon="2.31845">
        <ele>132.508</ele>
        <time>2016-04-13T14:49:32Z</time>
      </trkpt>
      <trkpt lat="43.19706" lon="2.31792">
        <ele>130.412</ele>
        <time>2016-04-13T14:49:52Z</time>
      </trkpt>
      <trkpt lat="43.1971" lon="2.31771">
        <ele>130.431</ele>
        <time>2016-04-13T14:50:12Z</time>
      </trkpt>
      <trkpt lat="43.19727" lon="2.31743">
        <ele>129.997</ele>
        <time>2016-04-13T14:50:32Z</time>
      </trkpt>
      <trkpt lat="43.19756" lon="2.31749">
        <ele>129.013</ele>
        <time>2016-04-13T14:50:52Z</time>
      </trkpt>
      <trkpt lat="43.1977" lon="2.31676">
        <ele>129.314</ele>
        <time>2016-04-13T14:51:12Z</time>
      </trkpt>
      <trkpt lat="43.19776" lon="2.31474">
        <ele>128.146</ele>
        <time>2016-04-13T14:51:32Z</time>
      </trkpt>
      <trkpt lat="43.19763" lon="2.31442">
        <ele>129.049</ele>
        <time>2016-04-13T14:51:52Z</time>
      </trkpt>
      <trkpt lat="43.19767" lon="2.31355">
        <ele>130.311</ele>
        <time>2016-04-13T14:52:12Z</time>
      </trkpt>
      <trkpt lat="43.19746" lon="2.31267">
        <ele>134.597</ele>
        <time>2016-04-13T14:52:32Z</time>
      </trkpt>
      <trkpt lat="43.19731" lon="2.31261">
        <ele>135.323</ele>
        <time>2016-04-13T14:52:52Z</time>
      </trkpt>
      <trkpt lat="43.19682" lon="2.31261">
        <ele>137.125</ele>
        <time>2016-04-13T14:53:12Z</time>
      </trkpt>
      <trkpt lat="43.1961" lon="2.31267">
        <ele>138.008</ele>
        <time>2016-04-13T14:53:32Z</time>
      </trkpt>
      <trkpt lat="43.19561" lon="2.31302">
        <ele>138.095</ele>
        <time>2016-04-13T14:53:52Z</time>
      </trkpt>
      <trkpt lat="43.19509" lon="2.31298">
        <ele>139.874</ele>
        <time>2016-04-13T14:54:12Z</time>
      </trkpt>
      <trkpt lat="43.1945" lon="2.31276">
        <ele>138.46</ele>
        <time>2016-04-13T14:54:32Z</time>
      </trkpt>
      <trkpt lat="43.19412" lon="2.31255">
        <ele>134.516</ele>
        <time>2016-04-13T14:54:52Z</time>
      </trkpt>
      <trkpt lat="43.19372" lon="2.3125">
        <ele>130.847</ele>
        <time>2016-04-13T14:55:12Z</time>
      </trkpt>
      <trkpt lat="43.19342" lon="2.31221">
        <ele>128.649</ele>
        <time>2016-04-13T14:55:32Z</time>
      </trkpt>
      <trkpt lat="43.19337" lon="2.31233">
        <ele>128.632</ele>
        <time>2016-04-13T14:55:52Z</time>
      </trkpt>
      <trkpt lat="43.19259" lon="2.31085">
        <ele>123.744</ele>
        <time>2016-04-13T14:56:12Z</time>
      </trkpt>
      <trkpt lat="43.1924" lon="2.31209">
        <ele>123.619</ele>
        <time>2016-04-13T14:56:32Z</time>
      </trkpt>
      <trkpt lat="43.19195" lon="2.31212">
        <ele>121.709</ele>
        <time>2016-04-13T14:56:52Z</time>
      </trkpt>
      <trkpt lat="43.19025" lon="2.31193">
        <ele>120.019</ele>
        <time>2016-04-13T14:57:12Z</time>
      </trkpt>
      <trkpt lat="43.18974" lon="2.31195">
        <ele>120.008</ele>
        <time>2016-04-13T14:57:32Z</time>
      </trkpt>
      <trkpt lat="43.18898" lon="2.31104">
        <ele>120.027</ele>
        <time>2016-04-13T14:57:52Z</time>
      </trkpt>
      <trkpt lat="43.1889" lon="2.31073">
        <ele>120.086</ele>
        <time>2016-04-13T14:58:12Z</time>
      </trkpt>
      <trkpt lat="43.18855" lon="2.31028">
        <ele>120.042</ele>
        <time>2016-04-13T14:58:32Z</time>
      </trkpt>
      <trkpt lat="43.18879" lon="2.30751">
        <ele>132.638</ele>
        <time>2016-04-13T14:58:52Z</time>
      </trkpt>
      <trkpt lat="43.18847" lon="2.30691">
        <ele>137.189</ele>
        <time>2016-04-13T14:59:12Z</time>
      </trkpt>
      <trkpt lat="43.18812" lon="2.30653">
        <ele>136.431</ele>
        <time>2016-04-13T14:59:32Z</time>
      </trkpt>
      <trkpt lat="43.18784" lon="2.3064">
        <ele>134.634</ele>
        <time>2016-04-13T14:59:52Z</time>
      </trkpt>
      <trkpt lat="43.18753" lon="2.3065">
        <ele>132.056</ele>
        <time>2016-04-13T15:00:12Z</time>
      </trkpt>
      <trkpt lat="43.187" lon="2.30704">
        <ele>128.417</ele>
        <time>2016-04-13T15:00:32Z</time>
      </trkpt>
      <trkpt lat="43.18613" lon="2.30675">
        <ele>125.887</ele>
        <time>2016-04-13T15:00:52Z</time>
      </trkpt>
      <trkpt lat="43.18553" lon="2.30646">
        <ele>124.415</ele>
        <time>2016-04-13T15:01:12Z</time>
      </trkpt>
      <trkpt lat="43.18519" lon="2.30648">
        <ele>123.408</ele>
        <time>2016-04-13T15:01:32Z</time>
      </trkpt>
      <trkpt lat="43.18432" lon="2.30692">
        <ele>120.197</ele>
        <time>2016-04-13T15:01:52Z</time>
      </trkpt>
      <trkpt lat="43.18331" lon="2.30647">
        <ele>119.026</ele>
        <time>2016-04-13T15:02:12Z</time>
      </trkpt>
      <trkpt lat="43.18109" lon="2.30499">
        <ele>120.012</ele>
        <time>2016-04-13T15:02:32Z</time>
      </trkpt>
      <trkpt lat="43.18063" lon="2.30432">
        <ele>123.898</ele>
        <time>2016-04-13T15:02:52Z</time>
      </trkpt>
      <trkpt lat="43.1802" lon="2.30384">
        <ele>128.479</ele>
        <time>2016-04-13T15:03:12Z</time>
      </trkpt>
      <trkpt lat="43.18002" lon="2.30358">
        <ele>130.211</ele>
        <time>2016-04-13T15:03:32Z</time>
      </trkpt>
      <trkpt lat="43.17979" lon="2.30293">
        <ele>133.614</ele>
        <time>2016-04-13T15:03:52Z</time>
      </trkpt>
      <trkpt lat="43.17972" lon="2.30253">
        <ele>135.866</ele>
        <time>2016-04-13T15:04:12Z</time>
      </trkpt>
      <trkpt lat="43.17932" lon="2.30163">
        <ele>139.279</ele>
        <time>2016-04-13T15:04:32Z</time>
      </trkpt>
      <trkpt lat="43.17913" lon="2.30051">
        <ele>142.005</ele>
        <time>2016-04-13T15:04:52Z</time>
      </trkpt>
      <trkpt lat="43.17899" lon="2.30028">
        <ele>142.425</ele>
        <time>2016-04-13T15:05:12Z</time>
      </trkpt>
      <trkpt lat="43.17874" lon="2.30016">
        <ele>141.908</ele>
        <time>2016-04-13T15:05:32Z</time>
      </trkpt>
      <trkpt lat="43.17857" lon="2.30016">
        <ele>141.213</ele>
        <time>2016-04-13T15:05:52Z</time>
      </trkpt>
      <trkpt lat="43.17616" lon="2.29857">
        <ele>139.442</ele>
        <time>2016-04-13T15:06:12Z</time>
      </trkpt>
      <trkpt lat="43.17609" lon="2.29835">
        <ele>140.128</ele>
        <time>2016-04-13T15:06:32Z</time>
      </trkpt>
      <trkpt lat="43.17646" lon="2.2976">
        <ele>140.134</ele>
        <time>2016-04-13T15:06:52Z</time>
      </trkpt>
      <trkpt lat="43.17658" lon="2.29663">
        <ele>141.345</ele>
        <time>2016-04-13T15:07:12Z</time>
      </trkpt>
      <trkpt lat="43.17649" lon="2.29607">
        <ele>142.327</ele>
        <time>2016-04-13T15:07:32Z</time>
      </trkpt>
      <trkpt lat="43.17657" lon="2.29496">
        <ele>143.49</ele>
        <time>2016-04-13T15:07:52Z</time>
      </trkpt>
      <trkpt lat="43.17676" lon="2.29389">
        <ele>143.092</ele>
        <time>2016-04-13T15:08:12Z</time>
      </trkpt>
      <trkpt lat="43.17688" lon="2.29349">
        <ele>142.438</ele>
        <time>2016-04-13T15:08:32Z</time>
      </trkpt>
      <trkpt lat="43.17692" lon="2.29307">
        <ele>142.37</ele>
        <time>2016-04-13T15:08:52Z</time>
      </trkpt>
      <trkpt lat="43.17705" lon="2.29242">
        <ele>141.517</ele>
        <time>2016-04-13T15:09:12Z</time>
      </trkpt>
      <trkpt lat="43.17738" lon="2.29162">
        <ele>142.008</ele>
        <time>2016-04-13T15:09:32Z</time>
      </trkpt>
      <trkpt lat="43.17879" lon="2.29049">
        <ele>141.659</ele>
        <time>2016-04-13T15:09:52Z</time>
      </trkpt>
      <trkpt lat="43.17975" lon="2.28628">
        <ele>149.258</ele>
        <time>2016-04-13T15:10:12Z</time>
      </trkpt>
      <trkpt lat="43.18056" lon="2.28282">
        <ele>163.964</ele>
        <time>2016-04-13T15:10:32Z</time>
      </trkpt>
      <trkpt lat="43.17959" lon="2.28209">
        <ele>171.52</ele>
        <time>2016-04-13T15:10:52Z</time>
      </trkpt>
      <trkpt lat="43.17903" lon="2.28127">
        <ele>168.871</ele>
        <time>2016-04-13T15:11:12Z</time>
      </trkpt>
      <trkpt lat="43.17847" lon="2.27982">
        <ele>165.213</ele>
        <time>2016-04-13T15:11:32Z</time>
      </trkpt>
      <trkpt lat="43.17816" lon="2.2785">
        <ele>161.856</ele>
        <time>2016-04-13T15:11:52Z</time>
      </trkpt>
      <trkpt lat="43.17794" lon="2.27832">
        <ele>160.128</ele>
        <time>2016-04-13T15:12:12Z</time>
      </trkpt>
      <trkpt lat="43.17744" lon="2.27808">
        <ele>159.089</ele>
        <time>2016-04-13T15:12:32Z</time>
      </trkpt>
      <trkpt lat="43.1771" lon="2.27776">
        <ele>159.006</ele>
        <time>2016-04-13T15:12:52Z</time>
      </trkpt>
      <trkpt lat="43.17673" lon="2.27765">
        <ele>161.726</ele>
        <time>2016-04-13T15:13:12Z</time>
      </trkpt>
      <trkpt lat="43.17704" lon="2.27654">
        <ele>163.408</ele>
        <time>2016-04-13T15:13:32Z</time>
      </trkpt>
      <trkpt lat="43.17733" lon="2.2753">
        <ele>166.594</ele>
        <time>2016-04-13T15:13:52Z</time>
      </trkpt>
      <trkpt lat="43.17797" lon="2.27435">
        <ele>169.673</ele>
        <time>2016-04-13T15:14:12Z</time>
      </trkpt>
      <trkpt lat="43.17953" lon="2.27075">
        <ele>173.979</ele>
        <time>2016-04-13T15:14:32Z</time>
      </trkpt>
      <trkpt lat="43.18003" lon="2.26897">
        <ele>174.045</ele>
        <time>2016-04-13T15:14:52Z</time>
      </trkpt>
      <trkpt lat="43.18033" lon="2.26867">
        <ele>175.046</ele>
        <time>2016-04-13T15:15:12Z</time>
      </trkpt>
      <trkpt lat="43.18141" lon="2.26774">
        <ele>180.098</ele>
        <time>2016-04-13T15:15:32Z</time>
      </trkpt>
      <trkpt lat="43.18203" lon="2.26591">
        <ele>181.751</ele>
        <time>2016-04-13T15:15:52Z</time>
      </trkpt>
      <trkpt lat="43.18226" lon="2.26583">
        <ele>182.053</ele>
        <time>2016-04-13T15:16:12Z</time>
      </trkpt>
      <trkpt lat="43.18294" lon="2.26635">
        <ele>183.065</ele>
        <time>2016-04-13T15:16:32Z</time>
      </trkpt>
      <trkpt lat="43.18469" lon="2.26707">
        <ele>188.668</ele>
        <time>2016-04-13T15:16:52Z</time>
      </trkpt>
      <trkpt lat="43.18493" lon="2.26729">
        <ele>186.714</ele>
        <time>2016-04-13T15:17:12Z</time>
      </trkpt>
      <trkpt lat="43.18523" lon="2.26778">
        <ele>183.208</ele>
        <time>2016-04-13T15:17:32Z</time>
      </trkpt>
      <trkpt lat="43.18567" lon="2.26792">
        <ele>178.642</ele>
        <time>2016-04-13T15:17:52Z</time>
      </trkpt>
      <trkpt lat="43.1859" lon="2.26788">
        <ele>175.491</ele>
        <time>2016-04-13T15:18:12Z</time>
      </trkpt>
      <trkpt lat="43.18601" lon="2.26756">
        <ele>175.267</ele>
        <time>2016-04-13T15:18:32Z</time>
      </trkpt>
      <trkpt lat="43.18613" lon="2.26713">
        <ele>175.533</ele>
        <time>2016-04-13T15:18:52Z</time>
      </trkpt>
      <trkpt lat="43.18638" lon="2.26686">
        <ele>173.214</ele>
        <time>2016-04-13T15:19:12Z</time>
      </trkpt>
      <trkpt lat="43.1868" lon="2.26662">
        <ele>169.726</ele>
        <time>2016-04-13T15:19:32Z</time>
      </trkpt>
      <trkpt lat="43.1877" lon="2.26578">
        <ele>160.199</ele>
        <time>2016-04-13T15:19:52Z</time>
      </trkpt>
      <trkpt lat="43.18794" lon="2.26583">
        <ele>160.091</ele>
        <time>2016-04-13T15:20:12Z</time>
      </trkpt>
      <trkpt lat="43.18869" lon="2.26645">
        <ele>160.085</ele>
        <time>2016-04-13T15:20:32Z</time>
      </trkpt>
      <trkpt lat="43.18879" lon="2.26638">
        <ele>160.089</ele>
        <time>2016-04-13T15:20:52Z</time>
      </trkpt>
      <trkpt lat="43.18891" lon="2.26514">
        <ele>161.917</ele>
        <time>2016-04-13T15:21:12Z</time>
      </trkpt>
      <trkpt lat="43.18905" lon="2.26452">
        <ele>162.208</ele>
        <time>2016-04-13T15:21:32Z</time>
      </trkpt>
      <trkpt lat="43.18905" lon="2.264">
        <ele>163.014</ele>
        <time>2016-04-13T15:21:52Z</time>
      </trkpt>
      <trkpt lat="43.18891" lon="2.26379">
        <ele>163.953</ele>
        <time>2016-04-13T15:22:12Z</time>
      </trkpt>
      <trkpt lat="43.18876" lon="2.26323">
        <ele>165.299</ele>
        <time>2016-04-13T15:22:32Z</time>
      </trkpt>
      <trkpt lat="43.18873" lon="2.2624">
        <ele>166.275</ele>
        <time>2016-04-13T15:22:52Z</time>
      </trkpt>
      <trkpt lat="43.18872" lon="2.26038">
        <ele>169.076</ele>
        <time>2016-04-13T15:23:12Z</time>
      </trkpt>
      <trkpt lat="43.18874" lon="2.25964">
        <ele>170.038</ele>
        <time>2016-04-13T15:23:32Z</time>
      </trkpt>
      <trkpt lat="43.18867" lon="2.25947">
        <ele>170.011</ele>
        <time>2016-04-13T15:23:52Z</time>
      </trkpt>
      <trkpt lat="43.18823" lon="2.25937">
        <ele>170.063</ele>
        <time>2016-04-13T15:24:12Z</time>
      </trkpt>
      <trkpt lat="43.18818" lon="2.25906">
        <ele>170.445</ele>
        <time>2016-04-13T15:24:32Z</time>
      </trkpt>
      <trkpt lat="43.18828" lon="2.2568">
        <ele>173.047</ele>
        <time>2016-04-13T15:24:52Z</time>
      </trkpt>
      <trkpt lat="43.18857" lon="2.25463">
        <ele>176.311</ele>
        <time>2016-04-13T15:25:12Z</time>
      </trkpt>
      <trkpt lat="43.18877" lon="2.25255">
        <ele>179.508</ele>
        <time>2016-04-13T15:25:32Z</time>
      </trkpt>
      <trkpt lat="43.18905" lon="2.2504">
        <ele>180.05</ele>
        <time>2016-04-13T15:25:52Z</time>
      </trkpt>
      <trkpt lat="43.18928" lon="2.24922">
        <ele>184.419</ele>
        <time>2016-04-13T15:26:12Z</time>
      </trkpt>
      <trkpt lat="43.18937" lon="2.24826">
        <ele>186.735</ele>
        <time>2016-04-13T15:26:32Z</time>
      </trkpt>
      <trkpt lat="43.18927" lon="2.24684">
        <ele>188.761</ele>
        <time>2016-04-13T15:26:52Z</time>
      </trkpt>
      <trkpt lat="43.18935" lon="2.24661">
        <ele>189.742</ele>
        <time>2016-04-13T15:27:12Z</time>
      </trkpt>
      <trkpt lat="43.189" lon="2.24595">
        <ele>190.074</ele>
        <time>2016-04-13T15:27:32Z</time>
      </trkpt>
      <trkpt lat="43.18859" lon="2.24548">
        <ele>190.287</ele>
        <time>2016-04-13T15:27:52Z</time>
      </trkpt>
      <trkpt lat="43.18815" lon="2.24484">
        <ele>190.669</ele>
        <time>2016-04-13T15:28:12Z</time>
      </trkpt>
      <trkpt lat="43.18665" lon="2.24324">
        <ele>195.148</ele>
        <time>2016-04-13T15:28:32Z</time>
      </trkpt>
      <trkpt lat="43.18585" lon="2.24277">
        <ele>204.861</ele>
        <time>2016-04-13T15:28:52Z</time>
      </trkpt>
      <trkpt lat="43.18472" lon="2.24154">
        <ele>216.017</ele>
        <time>2016-04-13T15:29:12Z</time>
      </trkpt>
      <trkpt lat="43.18387" lon="2.24171">
        <ele>221.008</ele>
        <time>2021-02-05T16:24:51Z</time>
      </trkpt>
      <trkpt lat="43.18402" lon="2.24118">
        <ele>224.09</ele>
        <time>2021-02-05T16:25:11Z</time>
      </trkpt>
      <trkpt lat="43.18374" lon="2.24101">
        <ele>226.059</ele>
        <time>2021-02-05T16:25:31Z</time>
      </trkpt>
      <trkpt lat="43.18353" lon="2.24048">
        <ele>226.885</ele>
        <time>2021-02-05T16:25:51Z</time>
      </trkpt>
      <trkpt lat="43.1838" lon="2.24004">
        <ele>224.471</ele>
        <time>2021-02-05T16:26:11Z</time>
      </trkpt>
      <trkpt lat="43.18419" lon="2.24012">
        <ele>222.392</ele>
        <time>2021-02-05T16:26:31Z</time>
      </trkpt>
      <trkpt lat="43.1845" lon="2.24087">
        <ele>222.374</ele>
        <time>2021-02-05T16:26:51Z</time>
      </trkpt>
      <trkpt lat="43.18487" lon="2.24072">
        <ele>218.047</ele>
        <time>2021-02-05T16:27:11Z</time>
      </trkpt>
      <trkpt lat="43.18488" lon="2.24046">
        <ele>216.999</ele>
        <time>2016-04-13T15:29:52Z</time>
      </trkpt>
      <trkpt lat="43.18531" lon="2.24021">
        <ele>211.011</ele>
        <time>2016-04-13T15:30:12Z</time>
      </trkpt>
      <trkpt lat="43.1858" lon="2.24026">
        <ele>201.621</ele>
        <time>2016-04-13T15:30:32Z</time>
      </trkpt>
      <trkpt lat="43.18646" lon="2.24009">
        <ele>199.003</ele>
        <time>2016-04-13T15:30:52Z</time>
      </trkpt>
      <trkpt lat="43.18705" lon="2.23973">
        <ele>202.408</ele>
        <time>2016-04-13T15:31:12Z</time>
      </trkpt>
      <trkpt lat="43.18758" lon="2.2393">
        <ele>210.837</ele>
        <time>2016-04-13T15:31:32Z</time>
      </trkpt>
      <trkpt lat="43.1882" lon="2.23904">
        <ele>210.626</ele>
        <time>2021-02-05T16:29:31Z</time>
      </trkpt>
      <trkpt lat="43.18884" lon="2.23844">
        <ele>211.552</ele>
        <time>2021-02-05T16:29:51Z</time>
      </trkpt>
      <trkpt lat="43.18887" lon="2.2372">
        <ele>215.338</ele>
        <time>2021-02-05T16:30:11Z</time>
      </trkpt>
      <trkpt lat="43.18941" lon="2.23564">
        <ele>220.179</ele>
        <time>2016-04-13T15:33:12Z</time>
      </trkpt>
      <trkpt lat="43.18943" lon="2.23516">
        <ele>221.191</ele>
        <time>2016-04-13T15:33:32Z</time>
      </trkpt>
      <trkpt lat="43.18985" lon="2.23423">
        <ele>223.954</ele>
        <time>2016-04-13T15:33:52Z</time>
      </trkpt>
      <trkpt lat="43.19064" lon="2.23286">
        <ele>218.046</ele>
        <time>2016-04-13T15:34:12Z</time>
      </trkpt>
      <trkpt lat="43.19078" lon="2.23214">
        <ele>215.119</ele>
        <time>2016-04-13T15:34:32Z</time>
      </trkpt>
      <trkpt lat="43.19121" lon="2.23047">
        <ele>215.609</ele>
        <time>2016-04-13T15:34:52Z</time>
      </trkpt>
      <trkpt lat="43.19253" lon="2.22897">
        <ele>213.619</ele>
        <time>2016-04-13T15:35:12Z</time>
      </trkpt>
      <trkpt lat="43.19291" lon="2.22822">
        <ele>214.708</ele>
        <time>2016-04-13T15:35:32Z</time>
      </trkpt>
      <trkpt lat="43.19302" lon="2.22579">
        <ele>216.117</ele>
        <time>2016-04-13T15:35:52Z</time>
      </trkpt>
      <trkpt lat="43.19292" lon="2.22482">
        <ele>217.516</ele>
        <time>2016-04-13T15:36:12Z</time>
      </trkpt>
      <trkpt lat="43.19325" lon="2.22241">
        <ele>220.012</ele>
        <time>2016-04-13T15:36:32Z</time>
      </trkpt>
      <trkpt lat="43.1933" lon="2.22164">
        <ele>220.048</ele>
        <time>2016-04-13T15:36:52Z</time>
      </trkpt>
      <trkpt lat="43.19331" lon="2.22109">
        <ele>220.049</ele>
        <time>2016-04-13T15:37:12Z</time>
      </trkpt>
      <trkpt lat="43.19346" lon="2.2205">
        <ele>220.051</ele>
        <time>2016-04-13T15:37:32Z</time>
      </trkpt>
      <trkpt lat="43.19342" lon="2.22024">
        <ele>220.054</ele>
        <time>2016-04-13T15:37:52Z</time>
      </trkpt>
      <trkpt lat="43.19346" lon="2.21975">
        <ele>220.016</ele>
        <time>2016-04-13T15:38:12Z</time>
      </trkpt>
      <trkpt lat="43.19378" lon="2.2186">
        <ele>224.025</ele>
        <time>2016-04-13T15:38:32Z</time>
      </trkpt>
      <trkpt lat="43.19431" lon="2.21733">
        <ele>225.826</ele>
        <time>2016-04-13T15:38:52Z</time>
      </trkpt>
      <trkpt lat="43.19459" lon="2.21656">
        <ele>222.208</ele>
        <time>2016-04-13T15:39:12Z</time>
      </trkpt>
      <trkpt lat="43.1952" lon="2.21552">
        <ele>214.908</ele>
        <time>2016-04-13T15:39:32Z</time>
      </trkpt>
      <trkpt lat="43.19544" lon="2.21527">
        <ele>212.318</ele>
        <time>2016-04-13T15:39:52Z</time>
      </trkpt>
      <trkpt lat="43.19581" lon="2.21451">
        <ele>210.017</ele>
        <time>2016-04-13T15:40:12Z</time>
      </trkpt>
      <trkpt lat="43.19612" lon="2.21422">
        <ele>209.723</ele>
        <time>2016-04-13T15:40:32Z</time>
      </trkpt>
      <trkpt lat="43.19607" lon="2.21372">
        <ele>210.099</ele>
        <time>2016-04-13T15:40:52Z</time>
      </trkpt>
      <trkpt lat="43.19652" lon="2.21333">
        <ele>206.58</ele>
        <time>2016-04-13T15:41:12Z</time>
      </trkpt>
      <trkpt lat="43.19682" lon="2.21273">
        <ele>199.082</ele>
        <time>2016-04-13T15:42:12Z</time>
      </trkpt>
      <trkpt lat="43.19747" lon="2.21266">
        <ele>196.835</ele>
        <time>2016-04-13T15:42:32Z</time>
      </trkpt>
      <trkpt lat="43.19801" lon="2.21238">
        <ele>190.547</ele>
        <time>2016-04-13T15:42:52Z</time>
      </trkpt>
      <trkpt lat="43.19838" lon="2.21201">
        <ele>189.852</ele>
        <time>2016-04-13T15:43:12Z</time>
      </trkpt>
      <trkpt lat="43.19866" lon="2.21174">
        <ele>189.053</ele>
        <time>2016-04-13T15:43:32Z</time>
      </trkpt>
      <trkpt lat="43.19879" lon="2.21137">
        <ele>189.008</ele>
        <time>2016-04-13T15:43:52Z</time>
      </trkpt>
      <trkpt lat="43.19877" lon="2.21117">
        <ele>189.308</ele>
        <time>2016-04-13T15:44:12Z</time>
      </trkpt>
      <trkpt lat="43.19881" lon="2.21094">
        <ele>189.751</ele>
        <time>2016-04-13T15:44:32Z</time>
      </trkpt>
      <trkpt lat="43.19867" lon="2.21005">
        <ele>195.84</ele>
        <time>2021-02-05T16:41:31Z</time>
      </trkpt>
      <trkpt lat="43.19901" lon="2.21002">
        <ele>195.986</ele>
        <time>2021-02-05T16:41:51Z</time>
      </trkpt>
      <trkpt lat="43.19916" lon="2.2102">
        <ele>194.842</ele>
        <time>2021-02-05T16:42:11Z</time>
      </trkpt>
      <trkpt lat="43.19917" lon="2.21045">
        <ele>193.323</ele>
        <time>2021-02-05T16:42:31Z</time>
      </trkpt>
      <trkpt lat="43.1994" lon="2.21059">
        <ele>191.745</ele>
        <time>2021-02-05T16:42:51Z</time>
      </trkpt>
      <trkpt lat="43.19949" lon="2.21087">
        <ele>190.158</ele>
        <time>2021-02-05T16:43:11Z</time>
      </trkpt>
      <trkpt lat="43.19979" lon="2.21063">
        <ele>190.21</ele>
        <time>2021-02-05T16:43:31Z</time>
      </trkpt>
      <trkpt lat="43.2001" lon="2.21047">
        <ele>189.077</ele>
        <time>2021-02-05T16:43:51Z</time>
      </trkpt>
      <trkpt lat="43.20038" lon="2.21013">
        <ele>187.161</ele>
        <time>2021-02-05T16:44:11Z</time>
      </trkpt>
      <trkpt lat="43.20038" lon="2.20899">
        <ele>185.827</ele>
        <time>2021-02-05T16:44:31Z</time>
      </trkpt>
      <trkpt lat="43.19999" lon="2.20857">
        <ele>180.008</ele>
        <time>2016-04-13T15:46:32Z</time>
      </trkpt>
      <trkpt lat="43.19977" lon="2.20838">
        <ele>180.063</ele>
        <time>2016-04-13T15:46:52Z</time>
      </trkpt>
      <trkpt lat="43.19971" lon="2.20801">
        <ele>180.022</ele>
        <time>2016-04-13T15:47:12Z</time>
      </trkpt>
      <trkpt lat="43.19981" lon="2.2078">
        <ele>180.038</ele>
        <time>2016-04-13T15:47:32Z</time>
      </trkpt>
      <trkpt lat="43.20063" lon="2.20659">
        <ele>182.234</ele>
        <time>2016-04-13T15:47:52Z</time>
      </trkpt>
      <trkpt lat="43.20095" lon="2.20624">
        <ele>181.965</ele>
        <time>2016-04-13T15:48:12Z</time>
      </trkpt>
      <trkpt lat="43.20101" lon="2.20598">
        <ele>181.797</ele>
        <time>2016-04-13T15:48:32Z</time>
      </trkpt>
      <trkpt lat="43.20139" lon="2.20494">
        <ele>179.03</ele>
        <time>2016-04-13T15:48:52Z</time>
      </trkpt>
      <trkpt lat="43.20163" lon="2.2041">
        <ele>176.122</ele>
        <time>2016-04-13T15:49:12Z</time>
      </trkpt>
      <trkpt lat="43.20167" lon="2.20353">
        <ele>175.032</ele>
        <time>2016-04-13T15:49:32Z</time>
      </trkpt>
      <trkpt lat="43.20179" lon="2.20294">
        <ele>175.092</ele>
        <time>2016-04-13T15:49:52Z</time>
      </trkpt>
      <trkpt lat="43.20209" lon="2.20215">
        <ele>174.011</ele>
        <time>2016-04-13T15:50:12Z</time>
      </trkpt>
      <trkpt lat="43.20222" lon="2.20128">
        <ele>174.008</ele>
        <time>2016-04-13T15:50:32Z</time>
      </trkpt>
      <trkpt lat="43.20223" lon="2.20096">
        <ele>174.069</ele>
        <time>2016-04-13T15:50:52Z</time>
      </trkpt>
      <trkpt lat="43.20241" lon="2.19986">
        <ele>174.328</ele>
        <time>2016-04-13T15:51:12Z</time>
      </trkpt>
      <trkpt lat="43.20238" lon="2.19905">
        <ele>175.264</ele>
        <time>2016-04-13T15:51:32Z</time>
      </trkpt>
      <trkpt lat="43.20244" lon="2.19812">
        <ele>176.81</ele>
        <time>2016-04-13T15:51:52Z</time>
      </trkpt>
      <trkpt lat="43.20227" lon="2.19601">
        <ele>185.041</ele>
        <time>2016-04-13T15:52:12Z</time>
      </trkpt>
      <trkpt lat="43.20249" lon="2.19314">
        <ele>189.643</ele>
        <time>2016-04-13T15:52:32Z</time>
      </trkpt>
      <trkpt lat="43.20199" lon="2.19093">
        <ele>195.056</ele>
        <time>2016-04-13T15:52:52Z</time>
      </trkpt>
      <trkpt lat="43.20204" lon="2.1895">
        <ele>196.518</ele>
        <time>2016-04-13T15:53:12Z</time>
      </trkpt>
      <trkpt lat="43.20184" lon="2.18861">
        <ele>194.744</ele>
        <time>2016-04-13T15:53:32Z</time>
      </trkpt>
      <trkpt lat="43.2018" lon="2.18676">
        <ele>204.705</ele>
        <time>2016-04-13T15:53:52Z</time>
      </trkpt>
      <trkpt lat="43.20186" lon="2.18557">
        <ele>207.915</ele>
        <time>2016-04-13T15:54:12Z</time>
      </trkpt>
      <trkpt lat="43.20185" lon="2.18484">
        <ele>209.408</ele>
        <time>2016-04-13T15:54:32Z</time>
      </trkpt>
      <trkpt lat="43.20224" lon="2.18312">
        <ele>208.13</ele>
        <time>2016-04-13T15:54:52Z</time>
      </trkpt>
      <trkpt lat="43.2024" lon="2.18258">
        <ele>203.129</ele>
        <time>2016-04-13T15:55:12Z</time>
      </trkpt>
      <trkpt lat="43.20246" lon="2.18171">
        <ele>198.945</ele>
        <time>2016-04-13T15:55:32Z</time>
      </trkpt>
      <trkpt lat="43.20238" lon="2.18119">
        <ele>204.231</ele>
        <time>2016-04-13T15:55:52Z</time>
      </trkpt>
      <trkpt lat="43.20211" lon="2.18073">
        <ele>208.412</ele>
        <time>2016-04-13T15:56:12Z</time>
      </trkpt>
      <trkpt lat="43.20049" lon="2.17976">
        <ele>223.214</ele>
        <time>2016-04-13T15:56:32Z</time>
      </trkpt>
      <trkpt lat="43.19984" lon="2.17887">
        <ele>231.777</ele>
        <time>2016-04-13T15:56:52Z</time>
      </trkpt>
      <trkpt lat="43.19954" lon="2.17861">
        <ele>234.739</ele>
        <time>2016-04-13T15:57:12Z</time>
      </trkpt>
      <trkpt lat="43.19879" lon="2.17824">
        <ele>237.599</ele>
        <time>2016-04-13T15:57:32Z</time>
      </trkpt>
      <trkpt lat="43.19857" lon="2.17801">
        <ele>238.307</ele>
        <time>2016-04-13T15:57:52Z</time>
      </trkpt>
      <trkpt lat="43.1984" lon="2.17747">
        <ele>242.027</ele>
        <time>2016-04-13T15:58:12Z</time>
      </trkpt>
      <trkpt lat="43.19739" lon="2.17537">
        <ele>250.108</ele>
        <time>2016-04-13T15:58:32Z</time>
      </trkpt>
      <trkpt lat="43.19731" lon="2.17485">
        <ele>251.565</ele>
        <time>2016-04-13T15:58:52Z</time>
      </trkpt>
      <trkpt lat="43.19698" lon="2.17376">
        <ele>254.264</ele>
        <time>2016-04-13T15:59:12Z</time>
      </trkpt>
      <trkpt lat="43.19664" lon="2.17312">
        <ele>254.06</ele>
        <time>2016-04-13T15:59:32Z</time>
      </trkpt>
      <trkpt lat="43.19654" lon="2.1726">
        <ele>253.586</ele>
        <time>2016-04-13T15:59:52Z</time>
      </trkpt>
      <trkpt lat="43.19653" lon="2.17205">
        <ele>253.237</ele>
        <time>2016-04-13T16:00:12Z</time>
      </trkpt>
      <trkpt lat="43.19639" lon="2.17128">
        <ele>250.499</ele>
        <time>2016-04-13T16:00:32Z</time>
      </trkpt>
      <trkpt lat="43.19657" lon="2.17051">
        <ele>252.562</ele>
        <time>2016-04-13T16:00:52Z</time>
      </trkpt>
      <trkpt lat="43.1965" lon="2.16994">
        <ele>256.824</ele>
        <time>2016-04-13T16:01:12Z</time>
      </trkpt>
      <trkpt lat="43.1963" lon="2.16953">
        <ele>260.063</ele>
        <time>2016-04-13T16:01:32Z</time>
      </trkpt>
      <trkpt lat="43.19606" lon="2.16927">
        <ele>260.644</ele>
        <time>2016-04-13T16:01:52Z</time>
      </trkpt>
      <trkpt lat="43.19564" lon="2.16896">
        <ele>264.918</ele>
        <time>2016-04-13T16:02:12Z</time>
      </trkpt>
      <trkpt lat="43.1951" lon="2.16833">
        <ele>269.808</ele>
        <time>2016-04-13T16:02:32Z</time>
      </trkpt>
      <trkpt lat="43.19492" lon="2.16778">
        <ele>272.512</ele>
        <time>2016-04-13T16:02:52Z</time>
      </trkpt>
      <trkpt lat="43.19479" lon="2.16701">
        <ele>276.921</ele>
        <time>2016-04-13T16:03:12Z</time>
      </trkpt>
      <trkpt lat="43.19436" lon="2.16597">
        <ele>280.097</ele>
        <time>2016-04-13T16:03:32Z</time>
      </trkpt>
      <trkpt lat="43.19427" lon="2.16557">
        <ele>284.133</ele>
        <time>2016-04-13T16:03:52Z</time>
      </trkpt>
      <trkpt lat="43.19461" lon="2.16518">
        <ele>282.754</ele>
        <time>2016-04-13T16:04:12Z</time>
      </trkpt>
      <trkpt lat="43.19481" lon="2.16448">
        <ele>283.266</ele>
        <time>2016-04-13T16:04:32Z</time>
      </trkpt>
      <trkpt lat="43.19484" lon="2.1641">
        <ele>284.159</ele>
        <time>2016-04-13T16:04:52Z</time>
      </trkpt>
      <trkpt lat="43.19478" lon="2.16366">
        <ele>282.491</ele>
        <time>2016-04-13T16:05:12Z</time>
      </trkpt>
      <trkpt lat="43.19457" lon="2.16325">
        <ele>280.945</ele>
        <time>2016-04-13T16:05:32Z</time>
      </trkpt>
      <trkpt lat="43.19429" lon="2.16308">
        <ele>284.047</ele>
        <time>2016-04-13T16:20:32Z</time>
      </trkpt>
      <trkpt lat="43.1942" lon="2.16277">
        <ele>285.211</ele>
        <time>2016-04-13T16:20:52Z</time>
      </trkpt>
      <trkpt lat="43.19425" lon="2.16186">
        <ele>282.208</ele>
        <time>2016-04-13T16:21:12Z</time>
      </trkpt>
      <trkpt lat="43.19423" lon="2.16071">
        <ele>280.47</ele>
        <time>2016-04-13T16:21:32Z</time>
      </trkpt>
      <trkpt lat="43.19442" lon="2.16028">
        <ele>279.979</ele>
        <time>2016-04-13T16:21:52Z</time>
      </trkpt>
      <trkpt lat="43.19525" lon="2.15923">
        <ele>279.055</ele>
        <time>2016-04-13T16:22:12Z</time>
      </trkpt>
      <trkpt lat="43.19621" lon="2.15781">
        <ele>269.461</ele>
        <time>2016-04-13T16:22:32Z</time>
      </trkpt>
      <trkpt lat="43.19674" lon="2.1564">
        <ele>263.912</ele>
        <time>2016-04-13T16:22:52Z</time>
      </trkpt>
      <trkpt lat="43.19681" lon="2.15555">
        <ele>264.544</ele>
        <time>2016-04-13T16:25:12Z</time>
      </trkpt>
      <trkpt lat="43.19667" lon="2.15422">
        <ele>268.877</ele>
        <time>2016-04-13T16:25:32Z</time>
      </trkpt>
      <trkpt lat="43.19633" lon="2.15321">
        <ele>260.999</ele>
        <time>2016-04-13T16:25:52Z</time>
      </trkpt>
      <trkpt lat="43.19602" lon="2.15264">
        <ele>252.841</ele>
        <time>2016-04-13T16:26:12Z</time>
      </trkpt>
      <trkpt lat="43.19604" lon="2.15235">
        <ele>251.681</ele>
        <time>2016-04-13T16:26:32Z</time>
      </trkpt>
      <trkpt lat="43.19623" lon="2.15199">
        <ele>253.809</ele>
        <time>2016-04-13T16:26:52Z</time>
      </trkpt>
      <trkpt lat="43.19598" lon="2.15131">
        <ele>255.108</ele>
        <time>2016-04-13T16:27:12Z</time>
      </trkpt>
      <trkpt lat="43.19612" lon="2.15085">
        <ele>259.07</ele>
        <time>2016-04-13T16:27:32Z</time>
      </trkpt>
      <trkpt lat="43.19612" lon="2.15001">
        <ele>257.299</ele>
        <time>2016-04-13T16:27:52Z</time>
      </trkpt>
      <trkpt lat="43.19631" lon="2.14814">
        <ele>252.395</ele>
        <time>2016-04-13T16:28:12Z</time>
      </trkpt>
      <trkpt lat="43.1968" lon="2.14804">
        <ele>247.181</ele>
        <time>2016-04-13T16:28:32Z</time>
      </trkpt>
      <trkpt lat="43.19778" lon="2.14742">
        <ele>235.492</ele>
        <time>2016-04-13T16:28:52Z</time>
      </trkpt>
      <trkpt lat="43.19844" lon="2.14679">
        <ele>234.624</ele>
        <time>2016-04-13T16:29:12Z</time>
      </trkpt>
      <trkpt lat="43.19853" lon="2.14667">
        <ele>235.497</ele>
        <time>2016-04-13T16:29:32Z</time>
      </trkpt>
      <trkpt lat="43.19919" lon="2.14627">
        <ele>241.949</ele>
        <time>2016-04-13T16:29:52Z</time>
      </trkpt>
      <trkpt lat="43.19972" lon="2.14541">
        <ele>248.152</ele>
        <time>2016-04-13T16:30:12Z</time>
      </trkpt>
      <trkpt lat="43.20054" lon="2.14338">
        <ele>248.953</ele>
        <time>2016-04-13T16:30:32Z</time>
      </trkpt>
      <trkpt lat="43.20056" lon="2.14252">
        <ele>249.908</ele>
        <time>2016-04-13T16:30:52Z</time>
      </trkpt>
      <trkpt lat="43.20024" lon="2.14282">
        <ele>252.408</ele>
        <time>2016-04-13T16:31:12Z</time>
      </trkpt>
      <trkpt lat="43.19987" lon="2.14328">
        <ele>264.251</ele>
        <time>2021-02-05T17:13:11Z</time>
      </trkpt>
      <trkpt lat="43.1994" lon="2.14319">
        <ele>264.07</ele>
        <time>2021-02-05T17:13:31Z</time>
      </trkpt>
      <trkpt lat="43.19938" lon="2.14222">
        <ele>264.016</ele>
        <time>2021-02-05T17:13:51Z</time>
      </trkpt>
      <trkpt lat="43.1994" lon="2.14181">
        <ele>264.412</ele>
        <time>2016-04-13T16:32:12Z</time>
      </trkpt>
      <trkpt lat="43.19961" lon="2.14137">
        <ele>263.263</ele>
        <time>2021-02-05T17:14:31Z</time>
      </trkpt>
      <trkpt lat="43.19953" lon="2.14059">
        <ele>261.135</ele>
        <time>2021-02-05T17:14:51Z</time>
      </trkpt>
      <trkpt lat="43.19932" lon="2.14052">
        <ele>262.028</ele>
        <time>2021-02-05T17:15:11Z</time>
      </trkpt>
      <trkpt lat="43.19899" lon="2.14144">
        <ele>261.21</ele>
        <time>2021-02-05T17:15:31Z</time>
      </trkpt>
      <trkpt lat="43.1987" lon="2.14125">
        <ele>256.944</ele>
        <time>2021-02-05T17:15:51Z</time>
      </trkpt>
      <trkpt lat="43.19883" lon="2.141">
        <ele>259.105</ele>
        <time>2016-04-13T16:36:12Z</time>
      </trkpt>
      <trkpt lat="43.19861" lon="2.14022">
        <ele>256.615</ele>
        <time>2021-02-05T17:16:31Z</time>
      </trkpt>
      <trkpt lat="43.19843" lon="2.14062">
        <ele>255.108</ele>
        <time>2021-02-05T17:16:51Z</time>
      </trkpt>
      <trkpt lat="43.19754" lon="2.14">
        <ele>240.17</ele>
        <time>2016-04-13T16:36:32Z</time>
      </trkpt>
      <trkpt lat="43.19802" lon="2.13868">
        <ele>240.169</ele>
        <time>2016-04-13T16:36:52Z</time>
      </trkpt>
      <trkpt lat="43.19749" lon="2.13816">
        <ele>233.325</ele>
        <time>2016-04-13T16:37:12Z</time>
      </trkpt>
      <trkpt lat="43.19742" lon="2.13818">
        <ele>233.281</ele>
        <time>2016-04-13T16:37:32Z</time>
      </trkpt>
      <trkpt lat="43.19656" lon="2.13746">
        <ele>226.172</ele>
        <time>2016-04-13T16:37:52Z</time>
      </trkpt>
      <trkpt lat="43.19612" lon="2.13696">
        <ele>220.294</ele>
        <time>2016-04-13T16:38:12Z</time>
      </trkpt>
      <trkpt lat="43.1956" lon="2.13606">
        <ele>207.367</ele>
        <time>2016-04-13T16:38:32Z</time>
      </trkpt>
      <trkpt lat="43.19518" lon="2.13508">
        <ele>200.349</ele>
        <time>2016-04-13T16:38:52Z</time>
      </trkpt>
      <trkpt lat="43.19498" lon="2.13435">
        <ele>200.134</ele>
        <time>2016-04-13T16:39:12Z</time>
      </trkpt>
      <trkpt lat="43.19474" lon="2.13388">
        <ele>197.355</ele>
        <time>2016-04-13T16:39:32Z</time>
      </trkpt>
      <trkpt lat="43.19424" lon="2.13332">
        <ele>195.11</ele>
        <time>2016-04-13T16:39:52Z</time>
      </trkpt>
      <trkpt lat="43.19365" lon="2.1325">
        <ele>193.408</ele>
        <time>2016-04-13T16:40:12Z</time>
      </trkpt>
      <trkpt lat="43.19262" lon="2.13129">
        <ele>192.139</ele>
        <time>2016-04-13T16:40:32Z</time>
      </trkpt>
      <trkpt lat="43.19196" lon="2.13041">
        <ele>187.298</ele>
        <time>2016-04-13T16:40:52Z</time>
      </trkpt>
      <trkpt lat="43.19182" lon="2.13015">
        <ele>186.074</ele>
        <time>2016-04-13T16:41:12Z</time>
      </trkpt>
      <trkpt lat="43.19157" lon="2.12971">
        <ele>183.38</ele>
        <time>2016-04-13T16:41:32Z</time>
      </trkpt>
      <trkpt lat="43.19142" lon="2.12902">
        <ele>182.731</ele>
        <time>2016-04-13T16:41:52Z</time>
      </trkpt>
      <trkpt lat="43.19141" lon="2.12784">
        <ele>181.193</ele>
        <time>2016-04-13T16:42:12Z</time>
      </trkpt>
      <trkpt lat="43.191" lon="2.12724">
        <ele>180.046</ele>
        <time>2016-04-13T16:42:32Z</time>
      </trkpt>
      <trkpt lat="43.1904" lon="2.12457">
        <ele>177.578</ele>
        <time>2016-04-13T16:42:52Z</time>
      </trkpt>
      <trkpt lat="43.19026" lon="2.1242">
        <ele>177.045</ele>
        <time>2016-04-13T16:43:12Z</time>
      </trkpt>
      <trkpt lat="43.18985" lon="2.12382">
        <ele>176.847</ele>
        <time>2016-04-13T16:43:32Z</time>
      </trkpt>
      <trkpt lat="43.18946" lon="2.12372">
        <ele>176.411</ele>
        <time>2016-04-13T16:43:52Z</time>
      </trkpt>
      <trkpt lat="43.18843" lon="2.12372">
        <ele>180.308</ele>
        <time>2016-04-13T16:44:12Z</time>
      </trkpt>
      <trkpt lat="43.18746" lon="2.12333">
        <ele>177.34</ele>
        <time>2016-04-13T16:44:32Z</time>
      </trkpt>
      <trkpt lat="43.1863" lon="2.12243">
        <ele>175.699</ele>
        <time>2016-04-13T16:44:52Z</time>
      </trkpt>
      <trkpt lat="43.1853" lon="2.12068">
        <ele>181.675</ele>
        <time>2016-04-13T16:45:12Z</time>
      </trkpt>
      <trkpt lat="43.18391" lon="2.11777">
        <ele>185.191</ele>
        <time>2016-04-13T16:45:32Z</time>
      </trkpt>
      <trkpt lat="43.18282" lon="2.11608">
        <ele>187.142</ele>
        <time>2016-04-13T16:45:52Z</time>
      </trkpt>
      <trkpt lat="43.18286" lon="2.11582">
        <ele>188.074</ele>
        <time>2016-04-13T16:46:12Z</time>
      </trkpt>
      <trkpt lat="43.18227" lon="2.11531">
        <ele>187.287</ele>
        <time>2016-04-13T16:46:32Z</time>
      </trkpt>
      <trkpt lat="43.18326" lon="2.11294">
        <ele>199.559</ele>
        <time>2016-04-13T16:46:52Z</time>
      </trkpt>
      <trkpt lat="43.18263" lon="2.11254">
        <ele>195.063</ele>
        <time>2016-04-13T16:47:12Z</time>
      </trkpt>
      <trkpt lat="43.18197" lon="2.11242">
        <ele>191.244</ele>
        <time>2016-04-13T16:47:32Z</time>
      </trkpt>
      <trkpt lat="43.18141" lon="2.11205">
        <ele>188.118</ele>
        <time>2016-04-13T16:47:52Z</time>
      </trkpt>
      <trkpt lat="43.18039" lon="2.11185">
        <ele>190.208</ele>
        <time>2016-04-13T16:48:12Z</time>
      </trkpt>
      <trkpt lat="43.18039" lon="2.11089">
        <ele>190.062</ele>
        <time>2016-04-13T16:48:32Z</time>
      </trkpt>
      <trkpt lat="43.17971" lon="2.11085">
        <ele>191.021</ele>
        <time>2016-04-13T16:48:52Z</time>
      </trkpt>
      <trkpt lat="43.17957" lon="2.11035">
        <ele>191.087</ele>
        <time>2016-04-13T16:49:12Z</time>
      </trkpt>
      <trkpt lat="43.17906" lon="2.10987">
        <ele>190.723</ele>
        <time>2016-04-13T16:49:32Z</time>
      </trkpt>
      <trkpt lat="43.17929" lon="2.10902">
        <ele>189.894</ele>
        <time>2016-04-13T16:49:52Z</time>
      </trkpt>
      <trkpt lat="43.17918" lon="2.1085">
        <ele>190.426</ele>
        <time>2016-04-13T16:50:12Z</time>
      </trkpt>
      <trkpt lat="43.17965" lon="2.10639">
        <ele>198.399</ele>
        <time>2016-04-13T16:50:32Z</time>
      </trkpt>
      <trkpt lat="43.1796" lon="2.10542">
        <ele>201.971</ele>
        <time>2016-04-13T16:50:52Z</time>
      </trkpt>
      <trkpt lat="43.17961" lon="2.10423">
        <ele>204.944</ele>
        <time>2016-04-13T16:51:12Z</time>
      </trkpt>
      <trkpt lat="43.17936" lon="2.10395">
        <ele>206.205</ele>
        <time>2016-04-13T16:51:32Z</time>
      </trkpt>
      <trkpt lat="43.17912" lon="2.10254">
        <ele>210.615</ele>
        <time>2016-04-13T16:51:52Z</time>
      </trkpt>
      <trkpt lat="43.17937" lon="2.10168">
        <ele>212.208</ele>
        <time>2016-04-13T16:52:12Z</time>
      </trkpt>
      <trkpt lat="43.17955" lon="2.10066">
        <ele>214.86</ele>
        <time>2016-04-13T16:52:32Z</time>
      </trkpt>
      <trkpt lat="43.18004" lon="2.09891">
        <ele>219.349</ele>
        <time>2016-04-13T16:52:52Z</time>
      </trkpt>
      <trkpt lat="43.17986" lon="2.09832">
        <ele>220.065</ele>
        <time>2016-04-13T16:53:12Z</time>
      </trkpt>
      <trkpt lat="43.17947" lon="2.09808">
        <ele>223.751</ele>
        <time>2016-04-13T16:53:32Z</time>
      </trkpt>
      <trkpt lat="43.1779" lon="2.09606">
        <ele>215.592</ele>
        <time>2016-04-13T16:53:52Z</time>
      </trkpt>
      <trkpt lat="43.17738" lon="2.09515">
        <ele>227.024</ele>
        <time>2016-04-13T16:54:12Z</time>
      </trkpt>
      <trkpt lat="43.17739" lon="2.09414">
        <ele>226.767</ele>
        <time>2016-04-13T16:54:32Z</time>
      </trkpt>
      <trkpt lat="43.17778" lon="2.09361">
        <ele>228.099</ele>
        <time>2016-04-13T16:54:52Z</time>
      </trkpt>
      <trkpt lat="43.17862" lon="2.09331">
        <ele>228.032</ele>
        <time>2016-04-13T16:55:12Z</time>
      </trkpt>
      <trkpt lat="43.17965" lon="2.09382">
        <ele>225.192</ele>
        <time>2016-04-13T16:55:32Z</time>
      </trkpt>
      <trkpt lat="43.18091" lon="2.09396">
        <ele>225.811</ele>
        <time>2016-04-13T16:55:52Z</time>
      </trkpt>
      <trkpt lat="43.18141" lon="2.09355">
        <ele>225.208</ele>
        <time>2016-04-13T16:56:12Z</time>
      </trkpt>
      <trkpt lat="43.18169" lon="2.09359">
        <ele>225.029</ele>
        <time>2016-04-13T16:56:32Z</time>
      </trkpt>
      <trkpt lat="43.18231" lon="2.09346">
        <ele>222.178</ele>
        <time>2016-04-13T16:56:52Z</time>
      </trkpt>
      <trkpt lat="43.18242" lon="2.09333">
        <ele>222.314</ele>
        <time>2016-04-13T16:57:12Z</time>
      </trkpt>
      <trkpt lat="43.18204" lon="2.09255">
        <ele>223.53</ele>
        <time>2016-04-13T16:57:32Z</time>
      </trkpt>
      <trkpt lat="43.18118" lon="2.09122">
        <ele>223.661</ele>
        <time>2016-04-13T16:57:52Z</time>
      </trkpt>
      <trkpt lat="43.18063" lon="2.08966">
        <ele>234.853</ele>
        <time>2016-04-13T16:58:12Z</time>
      </trkpt>
      <trkpt lat="43.18021" lon="2.0888">
        <ele>235.066</ele>
        <time>2016-04-13T16:58:32Z</time>
      </trkpt>
      <trkpt lat="43.18015" lon="2.08839">
        <ele>235.098</ele>
        <time>2016-04-13T16:58:52Z</time>
      </trkpt>
      <trkpt lat="43.17978" lon="2.08783">
        <ele>233.551</ele>
        <time>2016-04-13T16:59:12Z</time>
      </trkpt>
      <trkpt lat="43.17939" lon="2.08711">
        <ele>232.101</ele>
        <time>2016-04-13T16:59:32Z</time>
      </trkpt>
      <trkpt lat="43.17931" lon="2.08676">
        <ele>232.811</ele>
        <time>2016-04-13T16:59:52Z</time>
      </trkpt>
      <trkpt lat="43.17859" lon="2.08493">
        <ele>241.908</ele>
        <time>2016-04-13T17:00:12Z</time>
      </trkpt>
      <trkpt lat="43.17858" lon="2.08446">
        <ele>242.731</ele>
        <time>2016-04-13T17:00:32Z</time>
      </trkpt>
      <trkpt lat="43.17845" lon="2.0841">
        <ele>242.55</ele>
        <time>2016-04-13T17:00:52Z</time>
      </trkpt>
      <trkpt lat="43.17847" lon="2.08346">
        <ele>241.636</ele>
        <time>2021-02-05T17:41:51Z</time>
      </trkpt>
      <trkpt lat="43.17819" lon="2.08336">
        <ele>238.052</ele>
        <time>2021-02-05T17:42:11Z</time>
      </trkpt>
      <trkpt lat="43.17783" lon="2.08364">
        <ele>233.253</ele>
        <time>2021-02-05T17:42:31Z</time>
      </trkpt>
      <trkpt lat="43.17707" lon="2.08683">
        <ele>221.465</ele>
        <time>2021-02-05T17:42:51Z</time>
      </trkpt>
      <trkpt lat="43.17662" lon="2.08662">
        <ele>217.568</ele>
        <time>2021-02-05T17:43:11Z</time>
      </trkpt>
      <trkpt lat="43.17515" lon="2.08517">
        <ele>225.73</ele>
        <time>2021-02-05T17:43:31Z</time>
      </trkpt>
      <trkpt lat="43.17461" lon="2.08499">
        <ele>230.249</ele>
        <time>2021-02-05T17:43:51Z</time>
      </trkpt>
      <trkpt lat="43.17353" lon="2.0855">
        <ele>235.902</ele>
        <time>2021-02-05T17:44:11Z</time>
      </trkpt>
      <trkpt lat="43.17235" lon="2.0845">
        <ele>234.022</ele>
        <time>2021-02-05T17:44:31Z</time>
      </trkpt>
      <trkpt lat="43.17239" lon="2.08407">
        <ele>233.208</ele>
        <time>2021-02-05T17:44:51Z</time>
      </trkpt>
      <trkpt lat="43.17156" lon="2.0836">
        <ele>228.28</ele>
        <time>2021-02-05T17:45:11Z</time>
      </trkpt>
      <trkpt lat="43.17114" lon="2.08366">
        <ele>226.539</ele>
        <time>2021-02-05T17:45:31Z</time>
      </trkpt>
      <trkpt lat="43.16975" lon="2.08447">
        <ele>222.525</ele>
        <time>2021-02-05T17:45:51Z</time>
      </trkpt>
      <trkpt lat="43.16931" lon="2.08321">
        <ele>227.791</ele>
        <time>2021-02-05T17:46:11Z</time>
      </trkpt>
      <trkpt lat="43.16866" lon="2.08253">
        <ele>227.772</ele>
        <time>2021-02-05T17:46:31Z</time>
      </trkpt>
      <trkpt lat="43.1682" lon="2.08154">
        <ele>236.534</ele>
        <time>2021-02-05T17:46:51Z</time>
      </trkpt>
      <trkpt lat="43.16793" lon="2.08034">
        <ele>244.257</ele>
        <time>2021-02-05T17:47:11Z</time>
      </trkpt>
      <trkpt lat="43.16793" lon="2.07976">
        <ele>246.759</ele>
        <time>2021-02-05T17:47:31Z</time>
      </trkpt>
      <trkpt lat="43.16837" lon="2.07983">
        <ele>253.317</ele>
        <time>2021-02-05T17:47:51Z</time>
      </trkpt>
      <trkpt lat="43.16859" lon="2.07944">
        <ele>253.187</ele>
        <time>2021-02-05T17:48:11Z</time>
      </trkpt>
      <trkpt lat="43.16858" lon="2.07866">
        <ele>254.815</ele>
        <time>2021-02-05T17:48:31Z</time>
      </trkpt>
      <trkpt lat="43.16847" lon="2.07845">
        <ele>255.408</ele>
        <time>2021-02-05T17:48:51Z</time>
      </trkpt>
      <trkpt lat="43.16856" lon="2.0781">
        <ele>254.527</ele>
        <time>2021-02-05T17:49:11Z</time>
      </trkpt>
      <trkpt lat="43.16903" lon="2.07752">
        <ele>254.526</ele>
        <time>2021-02-05T17:49:31Z</time>
      </trkpt>
      <trkpt lat="43.16924" lon="2.077">
        <ele>255.042</ele>
        <time>2021-02-05T17:49:51Z</time>
      </trkpt>
      <trkpt lat="43.16969" lon="2.07578">
        <ele>255.778</ele>
        <time>2021-02-05T17:50:11Z</time>
      </trkpt>
      <trkpt lat="43.16968" lon="2.07558">
        <ele>256.169</ele>
        <time>2021-02-05T17:50:31Z</time>
      </trkpt>
      <trkpt lat="43.17067" lon="2.07383">
        <ele>257.351</ele>
        <time>2021-02-05T17:50:51Z</time>
      </trkpt>
      <trkpt lat="43.17146" lon="2.07295">
        <ele>248.394</ele>
        <time>2021-02-05T17:51:11Z</time>
      </trkpt>
      <trkpt lat="43.17177" lon="2.07221">
        <ele>241.046</ele>
        <time>2021-02-05T17:51:31Z</time>
      </trkpt>
      <trkpt lat="43.17151" lon="2.0713">
        <ele>238.643</ele>
        <time>2021-02-05T17:51:51Z</time>
      </trkpt>
      <trkpt lat="43.17217" lon="2.07194">
        <ele>238.564</ele>
        <time>2021-02-05T17:52:11Z</time>
      </trkpt>
      <trkpt lat="43.17315" lon="2.07361">
        <ele>237.41</ele>
        <time>2021-02-05T17:52:31Z</time>
      </trkpt>
      <trkpt lat="43.17345" lon="2.07368">
        <ele>237.808</ele>
        <time>2021-02-05T17:52:51Z</time>
      </trkpt>
      <trkpt lat="43.17467" lon="2.07435">
        <ele>244.83</ele>
        <time>2021-02-05T17:53:11Z</time>
      </trkpt>
      <trkpt lat="43.17455" lon="2.07296">
        <ele>256.769</ele>
        <time>2016-04-13T17:05:32Z</time>
      </trkpt>
      <trkpt lat="43.1743" lon="2.07001">
        <ele>278.475</ele>
        <time>2016-04-13T17:05:52Z</time>
      </trkpt>
      <trkpt lat="43.17426" lon="2.06908">
        <ele>285.171</ele>
        <time>2016-04-13T17:06:12Z</time>
      </trkpt>
      <trkpt lat="43.17401" lon="2.06814">
        <ele>299.612</ele>
        <time>2016-04-13T17:06:32Z</time>
      </trkpt>
      <trkpt lat="43.17366" lon="2.06727">
        <ele>304.544</ele>
        <time>2016-04-13T17:06:52Z</time>
      </trkpt>
      <trkpt lat="43.17374" lon="2.06619">
        <ele>304.917</ele>
        <time>2016-04-13T17:07:12Z</time>
      </trkpt>
      <trkpt lat="43.17372" lon="2.06498">
        <ele>302.199</ele>
        <time>2016-04-13T17:07:32Z</time>
      </trkpt>
      <trkpt lat="43.17348" lon="2.0628">
        <ele>295.697</ele>
        <time>2016-04-13T17:07:52Z</time>
      </trkpt>
      <trkpt lat="43.1733" lon="2.06237">
        <ele>294.323</ele>
        <time>2016-04-13T17:08:12Z</time>
      </trkpt>
      <trkpt lat="43.17337" lon="2.06202">
        <ele>294.925</ele>
        <time>2016-04-13T17:08:32Z</time>
      </trkpt>
      <trkpt lat="43.17334" lon="2.06176">
        <ele>294.308</ele>
        <time>2016-04-13T17:08:52Z</time>
      </trkpt>
      <trkpt lat="43.17348" lon="2.06116">
        <ele>293.675</ele>
        <time>2016-04-13T17:09:12Z</time>
      </trkpt>
      <trkpt lat="43.17358" lon="2.06005">
        <ele>294.494</ele>
        <time>2016-04-13T17:09:32Z</time>
      </trkpt>
      <trkpt lat="43.17412" lon="2.05901">
        <ele>305.06</ele>
        <time>2016-04-13T17:09:52Z</time>
      </trkpt>
      <trkpt lat="43.17445" lon="2.05796">
        <ele>306.336</ele>
        <time>2016-04-13T17:10:12Z</time>
      </trkpt>
      <trkpt lat="43.17522" lon="2.05656">
        <ele>300.047</ele>
        <time>2016-04-13T17:10:32Z</time>
      </trkpt>
      <trkpt lat="43.1747" lon="2.05589">
        <ele>302.789</ele>
        <time>2016-04-13T17:10:52Z</time>
      </trkpt>
      <trkpt lat="43.17509" lon="2.05532">
        <ele>304.822</ele>
        <time>2016-04-13T17:11:12Z</time>
      </trkpt>
      <trkpt lat="43.17454" lon="2.0549">
        <ele>312.314</ele>
        <time>2016-04-13T17:11:32Z</time>
      </trkpt>
      <trkpt lat="43.17337" lon="2.05342">
        <ele>313.718</ele>
        <time>2016-04-13T17:11:52Z</time>
      </trkpt>
      <trkpt lat="43.17265" lon="2.05282">
        <ele>319.998</ele>
        <time>2016-04-13T17:12:12Z</time>
      </trkpt>
      <trkpt lat="43.17248" lon="2.05244">
        <ele>324.417</ele>
        <time>2016-04-13T17:12:32Z</time>
      </trkpt>
      <trkpt lat="43.1723" lon="2.05152">
        <ele>323.808</ele>
        <time>2016-04-13T17:12:52Z</time>
      </trkpt>
      <trkpt lat="43.17232" lon="2.05085">
        <ele>320.727</ele>
        <time>2016-04-13T17:13:12Z</time>
      </trkpt>
      <trkpt lat="43.17247" lon="2.05044">
        <ele>317.536</ele>
        <time>2016-04-13T17:13:32Z</time>
      </trkpt>
      <trkpt lat="43.17286" lon="2.05008">
        <ele>310.142</ele>
        <time>2016-04-13T17:13:52Z</time>
      </trkpt>
      <trkpt lat="43.17364" lon="2.04973">
        <ele>302.568</ele>
        <time>2016-04-13T17:14:12Z</time>
      </trkpt>
      <trkpt lat="43.17424" lon="2.04913">
        <ele>286.689</ele>
        <time>2016-04-13T17:14:32Z</time>
      </trkpt>
      <trkpt lat="43.17483" lon="2.04825">
        <ele>273.411</ele>
        <time>2016-04-13T17:14:52Z</time>
      </trkpt>
      <trkpt lat="43.17529" lon="2.04695">
        <ele>265.274</ele>
        <time>2016-04-13T17:15:12Z</time>
      </trkpt>
      <trkpt lat="43.17563" lon="2.04534">
        <ele>265.376</ele>
        <time>2016-04-13T17:15:32Z</time>
      </trkpt>
      <trkpt lat="43.1761" lon="2.0449">
        <ele>267.746</ele>
        <time>2016-04-13T17:15:52Z</time>
      </trkpt>
      <trkpt lat="43.17656" lon="2.04485">
        <ele>269.488</ele>
        <time>2016-04-13T17:16:12Z</time>
      </trkpt>
      <trkpt lat="43.17696" lon="2.04472">
        <ele>268.916</ele>
        <time>2016-04-13T17:16:32Z</time>
      </trkpt>
      <trkpt lat="43.17746" lon="2.04494">
        <ele>263.408</ele>
        <time>2016-04-13T17:16:52Z</time>
      </trkpt>
      <trkpt lat="43.17808" lon="2.04486">
        <ele>266.68</ele>
        <time>2016-04-13T17:17:12Z</time>
      </trkpt>
      <trkpt lat="43.1784" lon="2.04493">
        <ele>265.199</ele>
        <time>2016-04-13T17:17:32Z</time>
      </trkpt>
      <trkpt lat="43.17862" lon="2.04493">
        <ele>263.435</ele>
        <time>2016-04-13T17:17:52Z</time>
      </trkpt>
      <trkpt lat="43.17864" lon="2.04462">
        <ele>265.421</ele>
        <time>2016-04-13T17:18:12Z</time>
      </trkpt>
      <trkpt lat="43.17853" lon="2.04415">
        <ele>269.772</ele>
        <time>2016-04-13T17:18:32Z</time>
      </trkpt>
      <trkpt lat="43.17861" lon="2.04383">
        <ele>270.954</ele>
        <time>2016-04-13T17:18:52Z</time>
      </trkpt>
      <trkpt lat="43.17909" lon="2.04286">
        <ele>269.547</ele>
        <time>2016-04-13T17:19:12Z</time>
      </trkpt>
      <trkpt lat="43.17929" lon="2.04187">
        <ele>278.189</ele>
        <time>2016-04-13T17:19:32Z</time>
      </trkpt>
      <trkpt lat="43.17937" lon="2.04108">
        <ele>290.798</ele>
        <time>2016-04-13T17:19:52Z</time>
      </trkpt>
      <trkpt lat="43.17979" lon="2.04029">
        <ele>293.415</ele>
        <time>2016-04-13T17:20:12Z</time>
      </trkpt>
      <trkpt lat="43.18015" lon="2.03983">
        <ele>296.826</ele>
        <time>2016-04-13T17:20:32Z</time>
      </trkpt>
      <trkpt lat="43.18067" lon="2.0395">
        <ele>299.108</ele>
        <time>2016-04-13T17:20:52Z</time>
      </trkpt>
      <trkpt lat="43.18068" lon="2.03928">
        <ele>301.665</ele>
        <time>2016-04-13T17:21:12Z</time>
      </trkpt>
      <trkpt lat="43.1821" lon="2.03783">
        <ele>323.724</ele>
        <time>2016-04-13T17:21:32Z</time>
      </trkpt>
      <trkpt lat="43.18361" lon="2.03683">
        <ele>339.83</ele>
        <time>2016-04-13T17:21:52Z</time>
      </trkpt>
      <trkpt lat="43.18502" lon="2.0353">
        <ele>334.986</ele>
        <time>2016-04-13T17:22:12Z</time>
      </trkpt>
      <trkpt lat="43.18495" lon="2.03496">
        <ele>334.517</ele>
        <time>2016-04-13T17:22:32Z</time>
      </trkpt>
      <trkpt lat="43.18495" lon="2.03439">
        <ele>331.749</ele>
        <time>2021-02-05T18:10:51Z</time>
      </trkpt>
      <trkpt lat="43.18244" lon="2.03409">
        <ele>351.012</ele>
        <time>2016-04-13T17:23:12Z</time>
      </trkpt>
      <trkpt lat="43.18104" lon="2.0333">
        <ele>350.764</ele>
        <time>2016-04-13T17:23:32Z</time>
      </trkpt>
      <trkpt lat="43.18073" lon="2.03272">
        <ele>347.553</ele>
        <time>2016-04-13T17:23:52Z</time>
      </trkpt>
      <trkpt lat="43.17968" lon="2.03235">
        <ele>349.604</ele>
        <time>2016-04-13T17:24:12Z</time>
      </trkpt>
      <trkpt lat="43.17888" lon="2.03156">
        <ele>353.014</ele>
        <time>2016-04-13T17:24:32Z</time>
      </trkpt>
      <trkpt lat="43.17538" lon="2.0297">
        <ele>354.908</ele>
        <time>2016-04-13T17:24:52Z</time>
      </trkpt>
      <trkpt lat="43.17284" lon="2.02904">
        <ele>339.911</ele>
        <time>2016-04-13T17:25:12Z</time>
      </trkpt>
      <trkpt lat="43.17168" lon="2.02789">
        <ele>329.24</ele>
        <time>2016-04-13T17:25:32Z</time>
      </trkpt>
      <trkpt lat="43.17006" lon="2.02648">
        <ele>334.126</ele>
        <time>2016-04-13T17:25:52Z</time>
      </trkpt>
      <trkpt lat="43.1683" lon="2.02506">
        <ele>355.272</ele>
        <time>2016-04-13T17:26:12Z</time>
      </trkpt>
      <trkpt lat="43.16702" lon="2.02416">
        <ele>362.283</ele>
        <time>2016-04-13T17:26:32Z</time>
      </trkpt>
      <trkpt lat="43.16589" lon="2.02378">
        <ele>368.645</ele>
        <time>2016-04-13T17:26:52Z</time>
      </trkpt>
      <trkpt lat="43.16519" lon="2.02375">
        <ele>370.268</ele>
        <time>2016-04-13T17:27:12Z</time>
      </trkpt>
      <trkpt lat="43.16397" lon="2.02323">
        <ele>375.74</ele>
        <time>2016-04-13T17:27:32Z</time>
      </trkpt>
      <trkpt lat="43.16357" lon="2.02336">
        <ele>374.987</ele>
        <time>2016-04-13T17:27:52Z</time>
      </trkpt>
      <trkpt lat="43.16292" lon="2.02391">
        <ele>377.242</ele>
        <time>2016-04-13T17:28:12Z</time>
      </trkpt>
      <trkpt lat="43.16199" lon="2.0233">
        <ele>375.926</ele>
        <time>2016-04-13T17:28:32Z</time>
      </trkpt>
      <trkpt lat="43.16154" lon="2.02265">
        <ele>377.908</ele>
        <time>2016-04-13T17:28:52Z</time>
      </trkpt>
      <trkpt lat="43.16128" lon="2.02132">
        <ele>384.644</ele>
        <time>2016-04-13T17:29:12Z</time>
      </trkpt>
      <trkpt lat="43.16072" lon="2.0202">
        <ele>390.033</ele>
        <time>2016-04-13T17:29:32Z</time>
      </trkpt>
      <trkpt lat="43.16013" lon="2.01933">
        <ele>391.259</ele>
        <time>2016-04-13T17:29:52Z</time>
      </trkpt>
      <trkpt lat="43.15991" lon="2.01848">
        <ele>391.855</ele>
        <time>2016-04-13T17:30:12Z</time>
      </trkpt>
      <trkpt lat="43.15966" lon="2.01821">
        <ele>392.736</ele>
        <time>2016-04-13T17:30:32Z</time>
      </trkpt>
      <trkpt lat="43.15866" lon="2.01803">
        <ele>402.378</ele>
        <time>2016-04-13T17:30:52Z</time>
      </trkpt>
      <trkpt lat="43.15811" lon="2.01876">
        <ele>396.141</ele>
        <time>2016-04-13T17:31:12Z</time>
      </trkpt>
      <trkpt lat="43.15752" lon="2.0193">
        <ele>391.923</ele>
        <time>2016-04-13T17:31:32Z</time>
      </trkpt>
      <trkpt lat="43.15713" lon="2.01994">
        <ele>386.487</ele>
        <time>2016-04-13T17:31:52Z</time>
      </trkpt>
      <trkpt lat="43.15678" lon="2.01934">
        <ele>387.442</ele>
        <time>2016-04-13T17:32:12Z</time>
      </trkpt>
      <trkpt lat="43.15641" lon="2.01754">
        <ele>391.026</ele>
        <time>2016-04-13T17:32:32Z</time>
      </trkpt>
      <trkpt lat="43.15638" lon="2.01692">
        <ele>390.708</ele>
        <time>2016-04-13T17:32:52Z</time>
      </trkpt>
      <trkpt lat="43.15613" lon="2.0156">
        <ele>384.484</ele>
        <time>2016-04-13T17:33:12Z</time>
      </trkpt>
      <trkpt lat="43.15588" lon="2.01516">
        <ele>378.743</ele>
        <time>2016-04-13T17:33:32Z</time>
      </trkpt>
      <trkpt lat="43.15416" lon="2.01302">
        <ele>362.149</ele>
        <time>2016-04-13T17:33:52Z</time>
      </trkpt>
      <trkpt lat="43.15389" lon="2.01251">
        <ele>360.015</ele>
        <time>2016-04-13T17:34:12Z</time>
      </trkpt>
      <trkpt lat="43.15335" lon="2.01268">
        <ele>355.186</ele>
        <time>2016-04-13T17:34:32Z</time>
      </trkpt>
      <trkpt lat="43.15276" lon="2.0125">
        <ele>355.098</ele>
        <time>2016-04-13T17:34:52Z</time>
      </trkpt>
      <trkpt lat="43.15243" lon="2.01258">
        <ele>355.411</ele>
        <time>2016-04-13T17:35:12Z</time>
      </trkpt>
      <trkpt lat="43.15044" lon="2.01249">
        <ele>350.183</ele>
        <time>2016-04-13T17:35:32Z</time>
      </trkpt>
      <trkpt lat="43.14817" lon="2.01089">
        <ele>353.198</ele>
        <time>2016-04-13T17:35:52Z</time>
      </trkpt>
      <trkpt lat="43.14772" lon="2.01018">
        <ele>353.215</ele>
        <time>2016-04-13T17:36:12Z</time>
      </trkpt>
      <trkpt lat="43.14652" lon="2.00877">
        <ele>367.626</ele>
        <time>2016-04-13T17:36:32Z</time>
      </trkpt>
      <trkpt lat="43.14608" lon="2.00763">
        <ele>373.808</ele>
        <time>2016-04-13T17:36:52Z</time>
      </trkpt>
      <trkpt lat="43.14581" lon="2.00705">
        <ele>379.435</ele>
        <time>2016-04-13T17:37:12Z</time>
      </trkpt>
      <trkpt lat="43.14572" lon="2.00667">
        <ele>382.064</ele>
        <time>2016-04-13T17:37:32Z</time>
      </trkpt>
      <trkpt lat="43.1455" lon="2.00628">
        <ele>382.52</ele>
        <time>2016-04-13T17:37:52Z</time>
      </trkpt>
      <trkpt lat="43.14529" lon="2.00556">
        <ele>385.196</ele>
        <time>2016-04-13T17:38:12Z</time>
      </trkpt>
      <trkpt lat="43.1449" lon="2.00477">
        <ele>392.617</ele>
        <time>2016-04-13T17:38:32Z</time>
      </trkpt>
      <trkpt lat="43.14467" lon="2.0047">
        <ele>396.749</ele>
        <time>2016-04-13T17:38:52Z</time>
      </trkpt>
      <trkpt lat="43.14443" lon="2.00489">
        <ele>397.542</ele>
        <time>2016-04-13T17:39:12Z</time>
      </trkpt>
      <trkpt lat="43.14429" lon="2.0049">
        <ele>395.524</ele>
        <time>2016-04-13T17:39:32Z</time>
      </trkpt>
      <trkpt lat="43.14429" lon="2.00353">
        <ele>388.111</ele>
        <time>2016-04-13T17:39:52Z</time>
      </trkpt>
      <trkpt lat="43.14412" lon="2.00294">
        <ele>381.921</ele>
        <time>2016-04-13T17:40:12Z</time>
      </trkpt>
      <trkpt lat="43.14347" lon="2.00276">
        <ele>383.203</ele>
        <time>2016-04-13T17:40:32Z</time>
      </trkpt>
      <trkpt lat="43.14264" lon="2.00207">
        <ele>380.808</ele>
        <time>2016-04-13T17:40:52Z</time>
      </trkpt>
      <trkpt lat="43.14227" lon="2.00159">
        <ele>377.527</ele>
        <time>2016-04-13T17:41:12Z</time>
      </trkpt>
      <trkpt lat="43.14196" lon="2.00111">
        <ele>377.136</ele>
        <time>2016-04-13T17:41:32Z</time>
      </trkpt>
      <trkpt lat="43.14103" lon="2.00157">
        <ele>383.812</ele>
        <time>2016-04-13T17:41:52Z</time>
      </trkpt>
      <trkpt lat="43.14049" lon="2.00157">
        <ele>393.858</ele>
        <time>2016-04-13T17:42:12Z</time>
      </trkpt>
      <trkpt lat="43.14031" lon="2.00143">
        <ele>394.939</ele>
        <time>2016-04-13T17:42:32Z</time>
      </trkpt>
      <trkpt lat="43.13948" lon="2.00153">
        <ele>392.851</ele>
        <time>2016-04-13T17:42:52Z</time>
      </trkpt>
      <trkpt lat="43.13841" lon="2.00201">
        <ele>396.944</ele>
        <time>2016-04-13T17:43:12Z</time>
      </trkpt>
      <trkpt lat="43.13761" lon="2.00204">
        <ele>399.696</ele>
        <time>2016-04-13T17:43:32Z</time>
      </trkpt>
      <trkpt lat="43.13712" lon="2.00149">
        <ele>397.089</ele>
        <time>2016-04-13T17:43:52Z</time>
      </trkpt>
      <trkpt lat="43.13643" lon="2.00118">
        <ele>397.406</ele>
        <time>2016-04-13T17:44:12Z</time>
      </trkpt>
      <trkpt lat="43.13589" lon="2.00115">
        <ele>399.626</ele>
        <time>2016-04-13T17:44:32Z</time>
      </trkpt>
      <trkpt lat="43.13456" lon="2.00083">
        <ele>405.308</ele>
        <time>2016-04-13T17:44:52Z</time>
      </trkpt>
      <trkpt lat="43.13368" lon="2.00032">
        <ele>406.044</ele>
        <time>2016-04-13T17:45:12Z</time>
      </trkpt>
      <trkpt lat="43.13333" lon="2.00038">
        <ele>406.483</ele>
        <time>2016-04-13T17:45:32Z</time>
      </trkpt>
      <trkpt lat="43.13232" lon="2.00137">
        <ele>405.519</ele>
        <time>2016-04-13T17:45:52Z</time>
      </trkpt>
      <trkpt lat="43.1309" lon="2.00162">
        <ele>406.255</ele>
        <time>2016-04-13T17:46:12Z</time>
      </trkpt>
      <trkpt lat="43.13034" lon="2.00148">
        <ele>406.996</ele>
        <time>2016-04-13T17:46:32Z</time>
      </trkpt>
      <trkpt lat="43.12978" lon="2.00165">
        <ele>407.318</ele>
        <time>2016-04-13T17:46:52Z</time>
      </trkpt>
      <trkpt lat="43.12932" lon="2.00107">
        <ele>411.851</ele>
        <time>2016-04-13T17:47:12Z</time>
      </trkpt>
      <trkpt lat="43.12901" lon="2.00099">
        <ele>413.653</ele>
        <time>2016-04-13T17:47:32Z</time>
      </trkpt>
      <trkpt lat="43.12892" lon="2.00108">
        <ele>414.465</ele>
        <time>2021-02-05T18:35:51Z</time>
      </trkpt>
      <trkpt lat="43.12896" lon="2.00156">
        <ele>416.068</ele>
        <time>2021-02-05T18:36:11Z</time>
      </trkpt>
      <trkpt lat="43.12868" lon="2.00156">
        <ele>412.514</ele>
        <time>2021-02-05T18:36:31Z</time>
      </trkpt>
      <trkpt lat="43.12866" lon="2.00124">
        <ele>409.208</ele>
        <time>2016-04-13T17:47:52Z</time>
      </trkpt>
      <trkpt lat="43.12839" lon="2.00065">
        <ele>404.442</ele>
        <time>2016-04-13T17:48:12Z</time>
      </trkpt>
      <trkpt lat="43.12819" lon="2.00092">
        <ele>402.051</ele>
        <time>2016-04-13T17:48:32Z</time>
      </trkpt>
      <trkpt lat="43.12805" lon="2.00148">
        <ele>398.017</ele>
        <time>2016-04-13T17:48:52Z</time>
      </trkpt>
      <trkpt lat="43.1278" lon="2.00166">
        <ele>394.253</ele>
        <time>2016-04-13T17:49:12Z</time>
      </trkpt>
      <trkpt lat="43.12715" lon="2.00168">
        <ele>393.524</ele>
        <time>2016-04-13T17:49:32Z</time>
      </trkpt>
      <trkpt lat="43.12616" lon="2.0011">
        <ele>400.486</ele>
        <time>2016-04-13T17:49:52Z</time>
      </trkpt>
      <trkpt lat="43.12534" lon="2.00088">
        <ele>400.929</ele>
        <time>2016-04-13T17:50:12Z</time>
      </trkpt>
      <trkpt lat="43.1249" lon="2.00113">
        <ele>396.281</ele>
        <time>2016-04-13T17:50:32Z</time>
      </trkpt>
      <trkpt lat="43.12418" lon="2.00132">
        <ele>397.556</ele>
        <time>2016-04-13T17:50:52Z</time>
      </trkpt>
      <trkpt lat="43.12394" lon="2.00151">
        <ele>394.259</ele>
        <time>2016-04-13T17:51:12Z</time>
      </trkpt>
      <trkpt lat="43.12365" lon="2.00146">
        <ele>394.514</ele>
        <time>2016-04-13T17:51:32Z</time>
      </trkpt>
      <trkpt lat="43.12325" lon="2.00072">
        <ele>390.708</ele>
        <time>2016-04-13T17:51:52Z</time>
      </trkpt>
      <trkpt lat="43.12294" lon="2.00044">
        <ele>389.261</ele>
        <time>2016-04-13T17:52:12Z</time>
      </trkpt>
      <trkpt lat="43.12233" lon="2.00065">
        <ele>386.96</ele>
        <time>2016-04-13T17:52:32Z</time>
      </trkpt>
      <trkpt lat="43.12162" lon="1.99971">
        <ele>384.986</ele>
        <time>2016-04-13T17:52:52Z</time>
      </trkpt>
      <trkpt lat="43.12142" lon="1.99971">
        <ele>384.982</ele>
        <time>2016-04-13T17:53:12Z</time>
      </trkpt>
      <trkpt lat="43.12117" lon="1.99993">
        <ele>386.013</ele>
        <time>2016-04-13T17:53:32Z</time>
      </trkpt>
      <trkpt lat="43.12009" lon="2.0003">
        <ele>380.725</ele>
        <time>2016-04-13T17:53:52Z</time>
      </trkpt>
      <trkpt lat="43.11745" lon="1.9994">
        <ele>387.878</ele>
        <time>2016-04-13T17:54:12Z</time>
      </trkpt>
      <trkpt lat="43.11699" lon="1.99932">
        <ele>395.19</ele>
        <time>2016-04-13T17:54:32Z</time>
      </trkpt>
      <trkpt lat="43.11645" lon="1.9987">
        <ele>407.333</ele>
        <time>2016-04-13T17:54:52Z</time>
      </trkpt>
      <trkpt lat="43.11555" lon="1.99847">
        <ele>417.623</ele>
        <time>2016-04-13T17:55:12Z</time>
      </trkpt>
      <trkpt lat="43.11521" lon="1.99862">
        <ele>421.715</ele>
        <time>2016-04-13T17:55:32Z</time>
      </trkpt>
      <trkpt lat="43.1146" lon="1.9991">
        <ele>433.508</ele>
        <time>2016-04-13T17:55:52Z</time>
      </trkpt>
      <trkpt lat="43.11385" lon="1.999">
        <ele>431.259</ele>
        <time>2016-04-13T17:56:12Z</time>
      </trkpt>
      <trkpt lat="43.11301" lon="1.99841">
        <ele>432.578</ele>
        <time>2016-04-13T17:56:32Z</time>
      </trkpt>
      <trkpt lat="43.11218" lon="1.99812">
        <ele>436.524</ele>
        <time>2016-04-13T17:56:52Z</time>
      </trkpt>
      <trkpt lat="43.11144" lon="1.99817">
        <ele>436.74</ele>
        <time>2016-04-13T17:57:12Z</time>
      </trkpt>
      <trkpt lat="43.11092" lon="1.99842">
        <ele>441.751</ele>
        <time>2016-04-13T17:57:32Z</time>
      </trkpt>
      <trkpt lat="43.11012" lon="1.99857">
        <ele>448.483</ele>
        <time>2016-04-13T17:57:52Z</time>
      </trkpt>
      <trkpt lat="43.1094" lon="1.99845">
        <ele>449.436</ele>
        <time>2016-04-13T17:58:12Z</time>
      </trkpt>
      <trkpt lat="43.10915" lon="1.99797">
        <ele>447.298</ele>
        <time>2016-04-13T17:58:32Z</time>
      </trkpt>
      <trkpt lat="43.10918" lon="1.99743">
        <ele>444.441</ele>
        <time>2016-04-13T17:58:52Z</time>
      </trkpt>
      <trkpt lat="43.10904" lon="1.99702">
        <ele>443.681</ele>
        <time>2016-04-13T17:59:12Z</time>
      </trkpt>
      <trkpt lat="43.10882" lon="1.99676">
        <ele>445.609</ele>
        <time>2016-04-13T17:59:32Z</time>
      </trkpt>
      <trkpt lat="43.10875" lon="1.99595">
        <ele>447.308</ele>
        <time>2016-04-13T17:59:52Z</time>
      </trkpt>
      <trkpt lat="43.10865" lon="1.99558">
        <ele>443.75</ele>
        <time>2016-04-13T18:00:12Z</time>
      </trkpt>
      <trkpt lat="43.10869" lon="1.99469">
        <ele>442.789</ele>
        <time>2016-04-13T18:00:32Z</time>
      </trkpt>
      <trkpt lat="43.10863" lon="1.9938">
        <ele>444.335</ele>
        <time>2016-04-13T18:00:52Z</time>
      </trkpt>
      <trkpt lat="43.10891" lon="1.99261">
        <ele>442.111</ele>
        <time>2016-04-13T18:01:12Z</time>
      </trkpt>
      <trkpt lat="43.10883" lon="1.99214">
        <ele>440.582</ele>
        <time>2016-04-13T18:01:32Z</time>
      </trkpt>
      <trkpt lat="43.10891" lon="1.99154">
        <ele>440.574</ele>
        <time>2016-04-13T18:01:52Z</time>
      </trkpt>
      <trkpt lat="43.10898" lon="1.99079">
        <ele>438.937</ele>
        <time>2016-04-13T18:02:12Z</time>
      </trkpt>
      <trkpt lat="43.10919" lon="1.99039">
        <ele>436.849</ele>
        <time>2016-04-13T18:02:32Z</time>
      </trkpt>
      <trkpt lat="43.10952" lon="1.99029">
        <ele>435.248</ele>
        <time>2016-04-13T18:02:52Z</time>
      </trkpt>
      <trkpt lat="43.1098" lon="1.98912">
        <ele>433.861</ele>
        <time>2016-04-13T18:03:12Z</time>
      </trkpt>
      <trkpt lat="43.10989" lon="1.98681">
        <ele>434.217</ele>
        <time>2016-04-13T18:03:32Z</time>
      </trkpt>
      <trkpt lat="43.11005" lon="1.98612">
        <ele>433.508</ele>
        <time>2016-04-13T18:03:52Z</time>
      </trkpt>
      <trkpt lat="43.11025" lon="1.98528">
        <ele>432.43</ele>
        <time>2016-04-13T18:04:12Z</time>
      </trkpt>
      <trkpt lat="43.11026" lon="1.98436">
        <ele>433.089</ele>
        <time>2016-04-13T18:04:32Z</time>
      </trkpt>
      <trkpt lat="43.11021" lon="1.98386">
        <ele>431.445</ele>
        <time>2016-04-13T18:04:52Z</time>
      </trkpt>
      <trkpt lat="43.11026" lon="1.98305">
        <ele>433.831</ele>
        <time>2016-04-13T18:05:12Z</time>
      </trkpt>
      <trkpt lat="43.11008" lon="1.98263">
        <ele>435.982</ele>
        <time>2016-04-13T18:05:32Z</time>
      </trkpt>
      <trkpt lat="43.11003" lon="1.98215">
        <ele>439.174</ele>
        <time>2016-04-13T18:05:52Z</time>
      </trkpt>
      <trkpt lat="43.10857" lon="1.9805">
        <ele>433.127</ele>
        <time>2016-04-13T18:06:12Z</time>
      </trkpt>
      <trkpt lat="43.10843" lon="1.98008">
        <ele>431.799</ele>
        <time>2016-04-13T18:06:32Z</time>
      </trkpt>
      <trkpt lat="43.10828" lon="1.97934">
        <ele>428.136</ele>
        <time>2016-04-13T18:06:52Z</time>
      </trkpt>
      <trkpt lat="43.10777" lon="1.9788">
        <ele>429.317</ele>
        <time>2016-04-13T18:07:12Z</time>
      </trkpt>
      <trkpt lat="43.10768" lon="1.97854">
        <ele>425.718</ele>
        <time>2016-04-13T18:07:32Z</time>
      </trkpt>
      <trkpt lat="43.10759" lon="1.97778">
        <ele>419.408</ele>
        <time>2016-04-13T18:07:52Z</time>
      </trkpt>
      <trkpt lat="43.10741" lon="1.97693">
        <ele>416.729</ele>
        <time>2016-04-13T18:08:12Z</time>
      </trkpt>
      <trkpt lat="43.10736" lon="1.97584">
        <ele>416.528</ele>
        <time>2016-04-13T18:08:32Z</time>
      </trkpt>
      <trkpt lat="43.10725" lon="1.9743">
        <ele>415.184</ele>
        <time>2016-04-13T18:08:52Z</time>
      </trkpt>
      <trkpt lat="43.1073" lon="1.97387">
        <ele>412.86</ele>
        <time>2016-04-13T18:09:12Z</time>
      </trkpt>
      <trkpt lat="43.10705" lon="1.97385">
        <ele>411.131</ele>
        <time>2016-04-13T18:09:32Z</time>
      </trkpt>
      <trkpt lat="43.10706" lon="1.97356">
        <ele>412.483</ele>
        <time>2016-04-13T18:09:52Z</time>
      </trkpt>
      <trkpt lat="43.10689" lon="1.97287">
        <ele>414.386</ele>
        <time>2016-04-13T18:10:12Z</time>
      </trkpt>
      <trkpt lat="43.10641" lon="1.97192">
        <ele>416.758</ele>
        <time>2016-04-13T18:10:32Z</time>
      </trkpt>
      <trkpt lat="43.10634" lon="1.97127">
        <ele>415.945</ele>
        <time>2016-04-13T18:10:52Z</time>
      </trkpt>
      <trkpt lat="43.10646" lon="1.97054">
        <ele>420.147</ele>
        <time>2016-04-13T18:11:12Z</time>
      </trkpt>
      <trkpt lat="43.1064" lon="1.96983">
        <ele>420.811</ele>
        <time>2016-04-13T18:11:32Z</time>
      </trkpt>
      <trkpt lat="43.10646" lon="1.96924">
        <ele>419.308</ele>
        <time>2016-04-13T18:11:52Z</time>
      </trkpt>
      <trkpt lat="43.10661" lon="1.96852">
        <ele>416.94</ele>
        <time>2016-04-13T18:12:12Z</time>
      </trkpt>
      <trkpt lat="43.10672" lon="1.96817">
        <ele>417.199</ele>
        <time>2016-04-13T18:12:32Z</time>
      </trkpt>
      <trkpt lat="43.10672" lon="1.96778">
        <ele>415.125</ele>
        <time>2016-04-13T18:12:52Z</time>
      </trkpt>
      <trkpt lat="43.10648" lon="1.9655">
        <ele>421.431</ele>
        <time>2016-04-13T18:13:12Z</time>
      </trkpt>
      <trkpt lat="43.10636" lon="1.96497">
        <ele>418.212</ele>
        <time>2016-04-13T18:13:32Z</time>
      </trkpt>
      <trkpt lat="43.10641" lon="1.96441">
        <ele>416.834</ele>
        <time>2016-04-13T18:13:52Z</time>
      </trkpt>
      <trkpt lat="43.10636" lon="1.96356">
        <ele>412.837</ele>
        <time>2016-04-13T18:14:12Z</time>
      </trkpt>
      <trkpt lat="43.10613" lon="1.96275">
        <ele>406.039</ele>
        <time>2016-04-13T18:14:32Z</time>
      </trkpt>
      <trkpt lat="43.10551" lon="1.96192">
        <ele>408.113</ele>
        <time>2016-04-13T18:14:52Z</time>
      </trkpt>
      <trkpt lat="43.10499" lon="1.96171">
        <ele>414.443</ele>
        <time>2016-04-13T18:15:12Z</time>
      </trkpt>
      <trkpt lat="43.10456" lon="1.9615">
        <ele>411.807</ele>
        <time>2016-04-13T18:15:32Z</time>
      </trkpt>
      <trkpt lat="43.10414" lon="1.96143">
        <ele>409.008</ele>
        <time>2016-04-13T18:15:52Z</time>
      </trkpt>
      <trkpt lat="43.1047" lon="1.96092">
        <ele>406.927</ele>
        <time>2016-04-13T18:16:12Z</time>
      </trkpt>
      <trkpt lat="43.10539" lon="1.96019">
        <ele>410.736</ele>
        <time>2016-04-13T18:16:32Z</time>
      </trkpt>
      <trkpt lat="43.10569" lon="1.95994">
        <ele>411.712</ele>
        <time>2016-04-13T18:16:52Z</time>
      </trkpt>
      <trkpt lat="43.10655" lon="1.95908">
        <ele>405.098</ele>
        <time>2016-04-13T18:17:12Z</time>
      </trkpt>
      <trkpt lat="43.10666" lon="1.95716">
        <ele>389.619</ele>
        <time>2016-04-13T18:17:32Z</time>
      </trkpt>
      <trkpt lat="43.10679" lon="1.95633">
        <ele>384.431</ele>
        <time>2016-04-13T18:17:52Z</time>
      </trkpt>
      <trkpt lat="43.107" lon="1.95576">
        <ele>379.224</ele>
        <time>2016-04-13T18:18:12Z</time>
      </trkpt>
      <trkpt lat="43.10742" lon="1.95523">
        <ele>373.756</ele>
        <time>2016-04-13T18:18:32Z</time>
      </trkpt>
      <trkpt lat="43.10789" lon="1.95434">
        <ele>372.922</ele>
        <time>2016-04-13T18:18:52Z</time>
      </trkpt>
      <trkpt lat="43.10826" lon="1.95422">
        <ele>370.462</ele>
        <time>2016-04-13T18:19:12Z</time>
      </trkpt>
      <trkpt lat="43.10889" lon="1.95386">
        <ele>371.008</ele>
        <time>2016-04-13T18:19:32Z</time>
      </trkpt>
      <trkpt lat="43.10918" lon="1.95363">
        <ele>372.108</ele>
        <time>2016-04-13T18:19:52Z</time>
      </trkpt>
      <trkpt lat="43.10937" lon="1.95353">
        <ele>369.348</ele>
        <time>2016-04-13T18:20:12Z</time>
      </trkpt>
      <trkpt lat="43.10977" lon="1.95321">
        <ele>367.337</ele>
        <time>2016-04-13T18:20:32Z</time>
      </trkpt>
      <trkpt lat="43.11015" lon="1.95246">
        <ele>368.123</ele>
        <time>2016-04-13T18:20:52Z</time>
      </trkpt>
      <trkpt lat="43.1105" lon="1.95163">
        <ele>364.499</ele>
        <time>2016-04-13T18:21:12Z</time>
      </trkpt>
      <trkpt lat="43.11084" lon="1.94987">
        <ele>358.37</ele>
        <time>2016-04-13T18:21:32Z</time>
      </trkpt>
      <trkpt lat="43.11173" lon="1.94816">
        <ele>355.392</ele>
        <time>2016-04-13T18:21:52Z</time>
      </trkpt>
      <trkpt lat="43.11204" lon="1.94633">
        <ele>347.225</ele>
        <time>2016-04-13T18:22:12Z</time>
      </trkpt>
      <trkpt lat="43.11199" lon="1.94558">
        <ele>345.557</ele>
        <time>2016-04-13T18:22:32Z</time>
      </trkpt>
      <trkpt lat="43.11174" lon="1.94489">
        <ele>346.595</ele>
        <time>2016-04-13T18:22:52Z</time>
      </trkpt>
      <trkpt lat="43.11143" lon="1.94257">
        <ele>343.649</ele>
        <time>2016-04-13T18:23:12Z</time>
      </trkpt>
      <trkpt lat="43.11121" lon="1.9414">
        <ele>339.023</ele>
        <time>2016-04-13T18:23:32Z</time>
      </trkpt>
      <trkpt lat="43.1111" lon="1.94007">
        <ele>338.008</ele>
        <time>2016-04-13T18:23:52Z</time>
      </trkpt>
      <trkpt lat="43.11089" lon="1.93976">
        <ele>337.935</ele>
        <time>2016-04-13T18:24:12Z</time>
      </trkpt>
      <trkpt lat="43.11089" lon="1.93919">
        <ele>335.994</ele>
        <time>2016-04-13T18:24:32Z</time>
      </trkpt>
      <trkpt lat="43.11053" lon="1.93779">
        <ele>336.43</ele>
        <time>2016-04-13T18:24:52Z</time>
      </trkpt>
      <trkpt lat="43.11034" lon="1.93662">
        <ele>337.866</ele>
        <time>2016-04-13T18:25:12Z</time>
      </trkpt>
      <trkpt lat="43.11014" lon="1.93626">
        <ele>337.837</ele>
        <time>2016-04-13T18:25:32Z</time>
      </trkpt>
      <trkpt lat="43.10988" lon="1.93549">
        <ele>337.569</ele>
        <time>2016-04-13T18:25:52Z</time>
      </trkpt>
      <trkpt lat="43.10956" lon="1.93485">
        <ele>338.812</ele>
        <time>2016-04-13T18:26:12Z</time>
      </trkpt>
      <trkpt lat="43.10943" lon="1.93408">
        <ele>337.714</ele>
        <time>2016-04-13T18:26:32Z</time>
      </trkpt>
      <trkpt lat="43.10918" lon="1.9335">
        <ele>337.092</ele>
        <time>2016-04-13T18:26:52Z</time>
      </trkpt>
      <trkpt lat="43.10973" lon="1.9325">
        <ele>329.073</ele>
        <time>2016-04-13T18:27:12Z</time>
      </trkpt>
      <trkpt lat="43.10989" lon="1.93239">
        <ele>329.62</ele>
        <time>2016-04-13T18:27:32Z</time>
      </trkpt>
      <trkpt lat="43.10993" lon="1.93162">
        <ele>329.608</ele>
        <time>2016-04-13T18:27:52Z</time>
      </trkpt>
      <trkpt lat="43.11018" lon="1.93138">
        <ele>329.665</ele>
        <time>2016-04-13T18:28:12Z</time>
      </trkpt>
      <trkpt lat="43.11078" lon="1.93104">
        <ele>334.174</ele>
        <time>2016-04-13T18:28:32Z</time>
      </trkpt>
      <trkpt lat="43.11089" lon="1.93087">
        <ele>336.13</ele>
        <time>2016-04-13T18:28:52Z</time>
      </trkpt>
      <trkpt lat="43.11024" lon="1.92911">
        <ele>336.246</ele>
        <time>2016-04-13T18:35:32Z</time>
      </trkpt>
      <trkpt lat="43.11041" lon="1.92676">
        <ele>330.567</ele>
        <time>2016-04-13T18:35:52Z</time>
      </trkpt>
      <trkpt lat="43.11051" lon="1.92654">
        <ele>330.429</ele>
        <time>2016-04-13T18:36:12Z</time>
      </trkpt>
      <trkpt lat="43.10917" lon="1.92527">
        <ele>327.112</ele>
        <time>2016-04-13T18:36:32Z</time>
      </trkpt>
      <trkpt lat="43.10922" lon="1.92503">
        <ele>328.814</ele>
        <time>2016-04-13T18:36:52Z</time>
      </trkpt>
      <trkpt lat="43.10916" lon="1.9249">
        <ele>330.457</ele>
        <time>2016-04-13T18:37:12Z</time>
      </trkpt>
      <trkpt lat="43.10884" lon="1.92458">
        <ele>331.5</ele>
        <time>2016-04-13T18:37:32Z</time>
      </trkpt>
      <trkpt lat="43.10871" lon="1.92422">
        <ele>332.22</ele>
        <time>2016-04-13T18:37:52Z</time>
      </trkpt>
      <trkpt lat="43.10876" lon="1.92387">
        <ele>335.708</ele>
        <time>2016-04-13T18:38:12Z</time>
      </trkpt>
      <trkpt lat="43.10914" lon="1.92351">
        <ele>339.991</ele>
        <time>2016-04-13T18:38:32Z</time>
      </trkpt>
      <trkpt lat="43.11028" lon="1.92252">
        <ele>349.12</ele>
        <time>2016-04-13T18:38:52Z</time>
      </trkpt>
      <trkpt lat="43.1107" lon="1.92261">
        <ele>353.066</ele>
        <time>2016-04-13T18:39:12Z</time>
      </trkpt>
      <trkpt lat="43.11081" lon="1.92271">
        <ele>352.662</ele>
        <time>2016-04-13T18:39:32Z</time>
      </trkpt>
      <trkpt lat="43.11095" lon="1.92266">
        <ele>352.843</ele>
        <time>2016-04-13T18:39:52Z</time>
      </trkpt>
      <trkpt lat="43.11154" lon="1.92181">
        <ele>354.585</ele>
        <time>2016-04-13T18:40:12Z</time>
      </trkpt>
      <trkpt lat="43.11192" lon="1.92084">
        <ele>355.058</ele>
        <time>2016-04-13T18:40:32Z</time>
      </trkpt>
      <trkpt lat="43.11251" lon="1.91991">
        <ele>349.92</ele>
        <time>2016-04-13T18:40:52Z</time>
      </trkpt>
      <trkpt lat="43.11283" lon="1.91935">
        <ele>349.669</ele>
        <time>2016-04-13T18:41:12Z</time>
      </trkpt>
      <trkpt lat="43.11282" lon="1.91919">
        <ele>349.804</ele>
        <time>2016-04-13T18:41:32Z</time>
      </trkpt>
      <trkpt lat="43.11304" lon="1.91821">
        <ele>354.824</ele>
        <time>2016-04-13T18:41:52Z</time>
      </trkpt>
      <trkpt lat="43.11299" lon="1.91793">
        <ele>354.608</ele>
        <time>2016-04-13T18:42:12Z</time>
      </trkpt>
      <trkpt lat="43.11337" lon="1.91494">
        <ele>336.042</ele>
        <time>2016-04-13T18:42:32Z</time>
      </trkpt>
      <trkpt lat="43.11364" lon="1.91442">
        <ele>333.971</ele>
        <time>2016-04-13T18:42:52Z</time>
      </trkpt>
      <trkpt lat="43.11404" lon="1.91331">
        <ele>328.327</ele>
        <time>2016-04-13T18:43:12Z</time>
      </trkpt>
      <trkpt lat="43.11429" lon="1.91333">
        <ele>329.513</ele>
        <time>2016-04-13T18:43:32Z</time>
      </trkpt>
      <trkpt lat="43.11534" lon="1.91058">
        <ele>350.594</ele>
        <time>2016-04-13T18:43:52Z</time>
      </trkpt>
      <trkpt lat="43.11556" lon="1.90966">
        <ele>354.196</ele>
        <time>2016-04-13T18:44:12Z</time>
      </trkpt>
      <trkpt lat="43.11604" lon="1.90852">
        <ele>363.529</ele>
        <time>2016-04-13T18:44:32Z</time>
      </trkpt>
      <trkpt lat="43.11624" lon="1.90837">
        <ele>366.851</ele>
        <time>2016-04-13T18:44:52Z</time>
      </trkpt>
      <trkpt lat="43.11666" lon="1.90697">
        <ele>375.849</ele>
        <time>2016-04-13T18:45:12Z</time>
      </trkpt>
      <trkpt lat="43.11683" lon="1.90612">
        <ele>378.702</ele>
        <time>2016-04-13T18:45:32Z</time>
      </trkpt>
      <trkpt lat="43.11693" lon="1.90511">
        <ele>387.422</ele>
        <time>2016-04-13T18:46:12Z</time>
      </trkpt>
      <trkpt lat="43.1169" lon="1.90474">
        <ele>390.508</ele>
        <time>2016-04-13T18:46:32Z</time>
      </trkpt>
      <trkpt lat="43.11677" lon="1.90449">
        <ele>391.72</ele>
        <time>2016-04-13T18:46:52Z</time>
      </trkpt>
      <trkpt lat="43.11628" lon="1.90419">
        <ele>400.229</ele>
        <time>2016-04-13T18:47:12Z</time>
      </trkpt>
      <trkpt lat="43.11579" lon="1.90417">
        <ele>401.755</ele>
        <time>2016-04-13T18:47:32Z</time>
      </trkpt>
      <trkpt lat="43.11553" lon="1.90422">
        <ele>400.591</ele>
        <time>2016-04-13T18:47:52Z</time>
      </trkpt>
      <trkpt lat="43.11543" lon="1.90382">
        <ele>399.112</ele>
        <time>2016-04-13T18:48:12Z</time>
      </trkpt>
      <trkpt lat="43.11469" lon="1.90239">
        <ele>380.694</ele>
        <time>2016-04-13T18:48:32Z</time>
      </trkpt>
      <trkpt lat="43.11447" lon="1.9021">
        <ele>375.477</ele>
        <time>2016-04-13T18:48:52Z</time>
      </trkpt>
      <trkpt lat="43.11421" lon="1.90192">
        <ele>370.789</ele>
        <time>2016-04-13T18:49:12Z</time>
      </trkpt>
      <trkpt lat="43.11421" lon="1.90174">
        <ele>370.927</ele>
        <time>2016-04-13T18:49:32Z</time>
      </trkpt>
      <trkpt lat="43.11404" lon="1.90142">
        <ele>371.868</ele>
        <time>2016-04-13T18:49:52Z</time>
      </trkpt>
      <trkpt lat="43.11347" lon="1.89994">
        <ele>385.814</ele>
        <time>2016-04-13T18:53:52Z</time>
      </trkpt>
      <trkpt lat="43.11319" lon="1.89924">
        <ele>383.308</ele>
        <time>2016-04-13T18:54:12Z</time>
      </trkpt>
      <trkpt lat="43.11263" lon="1.89906">
        <ele>381.148</ele>
        <time>2016-04-13T18:54:32Z</time>
      </trkpt>
      <trkpt lat="43.11208" lon="1.89874">
        <ele>379.077</ele>
        <time>2016-04-13T18:54:52Z</time>
      </trkpt>
      <trkpt lat="43.11183" lon="1.89888">
        <ele>376.013</ele>
        <time>2016-04-13T18:55:12Z</time>
      </trkpt>
      <trkpt lat="43.11167" lon="1.89918">
        <ele>374.229</ele>
        <time>2016-04-13T18:55:32Z</time>
      </trkpt>
      <trkpt lat="43.11168" lon="1.89874">
        <ele>370.39</ele>
        <time>2016-04-13T18:55:52Z</time>
      </trkpt>
      <trkpt lat="43.11186" lon="1.898">
        <ele>363.142</ele>
        <time>2016-04-13T18:56:12Z</time>
      </trkpt>
      <trkpt lat="43.11224" lon="1.89715">
        <ele>354.125</ele>
        <time>2016-04-13T18:56:32Z</time>
      </trkpt>
      <trkpt lat="43.11246" lon="1.89643">
        <ele>345.227</ele>
        <time>2016-04-13T18:56:52Z</time>
      </trkpt>
      <trkpt lat="43.11239" lon="1.89635">
        <ele>344.241</ele>
        <time>2016-04-13T18:57:12Z</time>
      </trkpt>
      <trkpt lat="43.11223" lon="1.89665">
        <ele>346.981</ele>
        <time>2016-04-13T18:57:32Z</time>
      </trkpt>
      <trkpt lat="43.11136" lon="1.89645">
        <ele>346.809</ele>
        <time>2016-04-13T18:57:52Z</time>
      </trkpt>
      <trkpt lat="43.11113" lon="1.89653">
        <ele>348.508</ele>
        <time>2016-04-13T18:58:12Z</time>
      </trkpt>
      <trkpt lat="43.11088" lon="1.89707">
        <ele>348.38</ele>
        <time>2016-04-13T18:58:32Z</time>
      </trkpt>
      <trkpt lat="43.10999" lon="1.89731">
        <ele>337.899</ele>
        <time>2016-04-13T18:58:52Z</time>
      </trkpt>
      <trkpt lat="43.10933" lon="1.89725">
        <ele>328.495</ele>
        <time>2016-04-13T18:59:12Z</time>
      </trkpt>
      <trkpt lat="43.10914" lon="1.89677">
        <ele>324.911</ele>
        <time>2016-04-13T18:59:32Z</time>
      </trkpt>
      <trkpt lat="43.10878" lon="1.89675">
        <ele>323.672</ele>
        <time>2016-04-13T18:59:52Z</time>
      </trkpt>
      <trkpt lat="43.10857" lon="1.89618">
        <ele>323.864</ele>
        <time>2016-04-13T19:00:12Z</time>
      </trkpt>
      <trkpt lat="43.10847" lon="1.89611">
        <ele>324.067</ele>
        <time>2016-04-13T19:00:32Z</time>
      </trkpt>
      <trkpt lat="43.10831" lon="1.89586">
        <ele>326.819</ele>
        <time>2016-04-13T19:00:52Z</time>
      </trkpt>
      <trkpt lat="43.10774" lon="1.89581">
        <ele>328.117</ele>
        <time>2016-04-13T19:01:12Z</time>
      </trkpt>
      <trkpt lat="43.10687" lon="1.89561">
        <ele>329.687</ele>
        <time>2016-04-13T19:01:32Z</time>
      </trkpt>
      <trkpt lat="43.10647" lon="1.8952">
        <ele>329.815</ele>
        <time>2016-04-13T19:01:52Z</time>
      </trkpt>
      <trkpt lat="43.10621" lon="1.89511">
        <ele>328.608</ele>
        <time>2016-04-13T19:02:12Z</time>
      </trkpt>
      <trkpt lat="43.10573" lon="1.89524">
        <ele>330.127</ele>
        <time>2016-04-13T19:02:32Z</time>
      </trkpt>
      <trkpt lat="43.10521" lon="1.89475">
        <ele>338.556</ele>
        <time>2016-04-13T19:02:52Z</time>
      </trkpt>
      <trkpt lat="43.10499" lon="1.89476">
        <ele>340.862</ele>
        <time>2016-04-13T19:03:12Z</time>
      </trkpt>
      <trkpt lat="43.10414" lon="1.89525">
        <ele>347.598</ele>
        <time>2016-04-13T19:03:32Z</time>
      </trkpt>
      <trkpt lat="43.10427" lon="1.89483">
        <ele>349.929</ele>
        <time>2016-04-13T19:03:52Z</time>
      </trkpt>
      <trkpt lat="43.10445" lon="1.89345">
        <ele>359.231</ele>
        <time>2016-04-13T19:04:12Z</time>
      </trkpt>
      <trkpt lat="43.10505" lon="1.89268">
        <ele>364.394</ele>
        <time>2016-04-13T19:04:32Z</time>
      </trkpt>
      <trkpt lat="43.10541" lon="1.8918">
        <ele>362.256</ele>
        <time>2016-04-13T19:04:52Z</time>
      </trkpt>
      <trkpt lat="43.10586" lon="1.89125">
        <ele>359.464</ele>
        <time>2016-04-13T19:05:12Z</time>
      </trkpt>
      <trkpt lat="43.10638" lon="1.89077">
        <ele>352.406</ele>
        <time>2016-04-13T19:05:32Z</time>
      </trkpt>
      <trkpt lat="43.10654" lon="1.89037">
        <ele>346.016</ele>
        <time>2016-04-13T19:05:52Z</time>
      </trkpt>
      <trkpt lat="43.10656" lon="1.89011">
        <ele>343.208</ele>
        <time>2016-04-13T19:06:52Z</time>
      </trkpt>
      <trkpt lat="43.10644" lon="1.88984">
        <ele>340.082</ele>
        <time>2016-04-13T19:07:12Z</time>
      </trkpt>
      <trkpt lat="43.10539" lon="1.88975">
        <ele>336.421</ele>
        <time>2016-04-13T19:07:32Z</time>
      </trkpt>
      <trkpt lat="43.10536" lon="1.88962">
        <ele>335.717</ele>
        <time>2016-04-13T19:07:52Z</time>
      </trkpt>
      <trkpt lat="43.10618" lon="1.88823">
        <ele>339.343</ele>
        <time>2016-04-13T19:08:12Z</time>
      </trkpt>
      <trkpt lat="43.10648" lon="1.8875">
        <ele>344.324</ele>
        <time>2016-04-13T19:08:32Z</time>
      </trkpt>
      <trkpt lat="43.10702" lon="1.88654">
        <ele>354.066</ele>
        <time>2016-04-13T19:08:52Z</time>
      </trkpt>
      <trkpt lat="43.107" lon="1.88598">
        <ele>357.179</ele>
        <time>2016-04-13T19:09:12Z</time>
      </trkpt>
      <trkpt lat="43.10734" lon="1.88523">
        <ele>359.271</ele>
        <time>2016-04-13T19:09:32Z</time>
      </trkpt>
      <trkpt lat="43.10766" lon="1.88526">
        <ele>360.068</ele>
        <time>2016-04-13T19:10:52Z</time>
      </trkpt>
      <trkpt lat="43.1091" lon="1.88366">
        <ele>365.642</ele>
        <time>2016-04-13T19:11:12Z</time>
      </trkpt>
      <trkpt lat="43.10893" lon="1.88341">
        <ele>366.026</ele>
        <time>2016-04-13T19:11:52Z</time>
      </trkpt>
      <trkpt lat="43.10788" lon="1.88272">
        <ele>352.408</ele>
        <time>2016-04-13T19:12:12Z</time>
      </trkpt>
      <trkpt lat="43.1069" lon="1.88224">
        <ele>348.932</ele>
        <time>2016-04-13T19:12:32Z</time>
      </trkpt>
      <trkpt lat="43.10524" lon="1.88141">
        <ele>337.241</ele>
        <time>2021-02-05T19:49:31Z</time>
      </trkpt>
      <trkpt lat="43.10491" lon="1.88182">
        <ele>334.377</ele>
        <time>2016-04-13T19:14:32Z</time>
      </trkpt>
      <trkpt lat="43.10401" lon="1.88089">
        <ele>343.963</ele>
        <time>2016-04-13T19:14:52Z</time>
      </trkpt>
      <trkpt lat="43.10289" lon="1.88061">
        <ele>357.644</ele>
        <time>2016-04-13T19:15:12Z</time>
      </trkpt>
      <trkpt lat="43.10243" lon="1.88028">
        <ele>357.286</ele>
        <time>2016-04-13T19:15:32Z</time>
      </trkpt>
      <trkpt lat="43.10196" lon="1.88036">
        <ele>354.579</ele>
        <time>2016-04-13T19:15:52Z</time>
      </trkpt>
      <trkpt lat="43.10135" lon="1.88006">
        <ele>346.881</ele>
        <time>2016-04-13T19:16:12Z</time>
      </trkpt>
      <trkpt lat="43.10088" lon="1.8802">
        <ele>347.518</ele>
        <time>2016-04-13T19:16:32Z</time>
      </trkpt>
      <trkpt lat="43.10156" lon="1.87898">
        <ele>326.098</ele>
        <time>2016-04-13T19:16:52Z</time>
      </trkpt>
      <trkpt lat="43.10081" lon="1.87796">
        <ele>316.617</ele>
        <time>2016-04-13T19:17:12Z</time>
      </trkpt>
      <trkpt lat="43.09995" lon="1.87746">
        <ele>313.608</ele>
        <time>2021-02-05T19:52:51Z</time>
      </trkpt>
      <trkpt lat="43.09954" lon="1.87731">
        <ele>310.397</ele>
        <time>2021-02-05T19:53:11Z</time>
      </trkpt>
      <trkpt lat="43.09927" lon="1.87708">
        <ele>307.016</ele>
        <time>2021-02-05T19:53:31Z</time>
      </trkpt>
      <trkpt lat="43.09908" lon="1.87649">
        <ele>302.572</ele>
        <time>2021-02-05T19:53:51Z</time>
      </trkpt>
      <trkpt lat="43.0987" lon="1.87594">
        <ele>298.618</ele>
        <time>2021-02-05T19:54:11Z</time>
      </trkpt>
      <trkpt lat="43.09785" lon="1.87509">
        <ele>295.439</ele>
        <time>2021-02-05T19:54:31Z</time>
      </trkpt>
      <trkpt lat="43.09939" lon="1.87234">
        <ele>296.571</ele>
        <time>2021-02-05T19:54:51Z</time>
      </trkpt>
      <trkpt lat="43.10009" lon="1.87205">
        <ele>296.994</ele>
        <time>2016-04-13T19:20:32Z</time>
      </trkpt>
      <trkpt lat="43.10024" lon="1.87182">
        <ele>297.726</ele>
        <time>2016-04-13T19:20:52Z</time>
      </trkpt>
      <trkpt lat="43.10059" lon="1.87059">
        <ele>300.036</ele>
        <time>2016-04-13T19:21:12Z</time>
      </trkpt>
      <trkpt lat="43.10039" lon="1.86986">
        <ele>302.317</ele>
        <time>2016-04-13T19:21:32Z</time>
      </trkpt>
      <trkpt lat="43.09988" lon="1.8693">
        <ele>301.018</ele>
        <time>2016-04-13T19:21:52Z</time>
      </trkpt>
      <trkpt lat="43.09952" lon="1.86768">
        <ele>300.408</ele>
        <time>2016-04-13T19:22:12Z</time>
      </trkpt>
      <trkpt lat="43.09928" lon="1.86659">
        <ele>300.099</ele>
        <time>2016-04-13T19:22:32Z</time>
      </trkpt>
      <trkpt lat="43.09881" lon="1.86523">
        <ele>298.898</ele>
        <time>2016-04-13T19:22:52Z</time>
      </trkpt>
      <trkpt lat="43.09844" lon="1.86372">
        <ele>300.464</ele>
        <time>2016-04-13T19:23:12Z</time>
      </trkpt>
      <trkpt lat="43.09845" lon="1.86318">
        <ele>302.51</ele>
        <time>2016-04-13T19:23:32Z</time>
      </trkpt>
      <trkpt lat="43.09873" lon="1.86258">
        <ele>300.191</ele>
        <time>2016-04-13T19:23:52Z</time>
      </trkpt>
      <trkpt lat="43.09844" lon="1.86135">
        <ele>294.443</ele>
        <time>2016-04-13T19:24:12Z</time>
      </trkpt>
      <trkpt lat="43.09872" lon="1.86111">
        <ele>295.016</ele>
        <time>2016-04-13T19:24:32Z</time>
      </trkpt>
      <trkpt lat="43.09908" lon="1.86092">
        <ele>295.978</ele>
        <time>2016-04-13T19:24:52Z</time>
      </trkpt>
      <trkpt lat="43.09939" lon="1.86056">
        <ele>296.835</ele>
        <time>2016-04-13T19:25:12Z</time>
      </trkpt>
      <trkpt lat="43.09951" lon="1.86015">
        <ele>298.286</ele>
        <time>2016-04-13T19:25:32Z</time>
      </trkpt>
      <trkpt lat="43.0995" lon="1.85989">
        <ele>298.614</ele>
        <time>2016-04-13T19:25:52Z</time>
      </trkpt>
      <trkpt lat="43.09957" lon="1.85955">
        <ele>300.108</ele>
        <time>2016-04-13T19:26:12Z</time>
      </trkpt>
      <trkpt lat="43.0995" lon="1.85923">
        <ele>300.879</ele>
        <time>2016-04-13T19:26:32Z</time>
      </trkpt>
      <trkpt lat="43.09953" lon="1.85875">
        <ele>301.738</ele>
        <time>2016-04-13T19:26:52Z</time>
      </trkpt>
      <trkpt lat="43.0995" lon="1.85842">
        <ele>302.114</ele>
        <time>2016-04-13T19:27:12Z</time>
      </trkpt>
      <trkpt lat="43.0996" lon="1.85815">
        <ele>303.13</ele>
        <time>2016-04-13T19:27:32Z</time>
      </trkpt>
      <trkpt lat="43.09951" lon="1.85802">
        <ele>304.051</ele>
        <time>2016-04-13T19:28:52Z</time>
      </trkpt>
      <trkpt lat="43.09881" lon="1.85741">
        <ele>305.293</ele>
        <time>2016-04-13T19:29:12Z</time>
      </trkpt>
      <trkpt lat="43.09861" lon="1.85694">
        <ele>305.976</ele>
        <time>2016-04-13T19:29:32Z</time>
      </trkpt>
      <trkpt lat="43.09831" lon="1.85657">
        <ele>301.158</ele>
        <time>2016-04-13T19:29:52Z</time>
      </trkpt>
      <trkpt lat="43.09819" lon="1.85584">
        <ele>304.488</ele>
        <time>2016-04-13T19:30:12Z</time>
      </trkpt>
      <trkpt lat="43.098" lon="1.85505">
        <ele>300.324</ele>
        <time>2016-04-13T19:30:32Z</time>
      </trkpt>
      <trkpt lat="43.09792" lon="1.85418">
        <ele>300.626</ele>
        <time>2016-04-13T19:30:52Z</time>
      </trkpt>
      <trkpt lat="43.09771" lon="1.85383">
        <ele>299.208</ele>
        <time>2016-04-13T19:31:12Z</time>
      </trkpt>
      <trkpt lat="43.09742" lon="1.85346">
        <ele>296.234</ele>
        <time>2016-04-13T19:31:32Z</time>
      </trkpt>
      <trkpt lat="43.09728" lon="1.85274">
        <ele>296.183</ele>
        <time>2016-04-13T19:31:52Z</time>
      </trkpt>
      <trkpt lat="43.09737" lon="1.85262">
        <ele>298.039</ele>
        <time>2016-04-13T19:32:12Z</time>
      </trkpt>
      <trkpt lat="43.09728" lon="1.85066">
        <ele>297.985</ele>
        <time>2016-04-13T19:32:32Z</time>
      </trkpt>
      <trkpt lat="43.0972" lon="1.85039">
        <ele>296.426</ele>
        <time>2016-04-13T19:32:52Z</time>
      </trkpt>
      <trkpt lat="43.09713" lon="1.8494">
        <ele>297.058</ele>
        <time>2016-04-13T19:33:12Z</time>
      </trkpt>
      <trkpt lat="43.09737" lon="1.84762">
        <ele>301.161</ele>
        <time>2016-04-13T19:33:32Z</time>
      </trkpt>
      <trkpt lat="43.09738" lon="1.84593">
        <ele>300.283</ele>
        <time>2016-04-13T19:33:52Z</time>
      </trkpt>
      <trkpt lat="43.09733" lon="1.84565">
        <ele>299.958</ele>
        <time>2016-04-13T19:34:12Z</time>
      </trkpt>
      <trkpt lat="43.09755" lon="1.84554">
        <ele>300.252</ele>
        <time>2016-04-13T19:34:32Z</time>
      </trkpt>
      <trkpt lat="43.09736" lon="1.84492">
        <ele>300.017</ele>
        <time>2016-04-13T19:34:52Z</time>
      </trkpt>
      <trkpt lat="43.0973" lon="1.84401">
        <ele>300.308</ele>
        <time>2016-04-13T19:35:12Z</time>
      </trkpt>
      <trkpt lat="43.09737" lon="1.84387">
        <ele>301.191</ele>
        <time>2016-04-13T19:35:32Z</time>
      </trkpt>
      <trkpt lat="43.09729" lon="1.8434">
        <ele>302.06</ele>
        <time>2016-04-13T19:35:52Z</time>
      </trkpt>
      <trkpt lat="43.09732" lon="1.84279">
        <ele>307.716</ele>
        <time>2016-04-13T19:36:12Z</time>
      </trkpt>
      <trkpt lat="43.09722" lon="1.84172">
        <ele>316.342</ele>
        <time>2016-04-13T19:36:32Z</time>
      </trkpt>
      <trkpt lat="43.09734" lon="1.84099">
        <ele>323.483</ele>
        <time>2016-04-13T19:36:52Z</time>
      </trkpt>
      <trkpt lat="43.09733" lon="1.8407">
        <ele>324.165</ele>
        <time>2016-04-13T19:37:12Z</time>
      </trkpt>
      <trkpt lat="43.09746" lon="1.84002">
        <ele>330.898</ele>
        <time>2016-04-13T19:37:32Z</time>
      </trkpt>
      <trkpt lat="43.09712" lon="1.83964">
        <ele>326.75</ele>
        <time>2016-04-13T19:37:52Z</time>
      </trkpt>
      <trkpt lat="43.09729" lon="1.83889">
        <ele>336.571</ele>
        <time>2016-04-13T19:38:12Z</time>
      </trkpt>
      <trkpt lat="43.09739" lon="1.83804">
        <ele>340.141</ele>
        <time>2016-04-13T19:38:32Z</time>
      </trkpt>
      <trkpt lat="43.09741" lon="1.83739">
        <ele>341.615</ele>
        <time>2016-04-13T19:38:52Z</time>
      </trkpt>
      <trkpt lat="43.09753" lon="1.83664">
        <ele>344.208</ele>
        <time>2016-04-13T19:39:12Z</time>
      </trkpt>
      <trkpt lat="43.09786" lon="1.83525">
        <ele>351.423</ele>
        <time>2016-04-13T19:39:32Z</time>
      </trkpt>
      <trkpt lat="43.09816" lon="1.83411">
        <ele>353.092</ele>
        <time>2016-04-13T19:39:52Z</time>
      </trkpt>
      <trkpt lat="43.0985" lon="1.83368">
        <ele>359.228</ele>
        <time>2016-04-13T19:40:12Z</time>
      </trkpt>
      <trkpt lat="43.09953" lon="1.83283">
        <ele>367.764</ele>
        <time>2016-04-13T19:40:32Z</time>
      </trkpt>
      <trkpt lat="43.10105" lon="1.83173">
        <ele>384.395</ele>
        <time>2016-04-13T19:40:52Z</time>
      </trkpt>
      <trkpt lat="43.09991" lon="1.83094">
        <ele>397.087</ele>
        <time>2016-04-13T19:41:12Z</time>
      </trkpt>
      <trkpt lat="43.09952" lon="1.83056">
        <ele>411.89</ele>
        <time>2016-04-13T19:41:32Z</time>
      </trkpt>
      <trkpt lat="43.09893" lon="1.83039">
        <ele>421.432</ele>
        <time>2016-04-13T19:41:52Z</time>
      </trkpt>
      <trkpt lat="43.0993" lon="1.83009">
        <ele>428.538</ele>
        <time>2016-04-13T19:42:12Z</time>
      </trkpt>
      <trkpt lat="43.09915" lon="1.82994">
        <ele>430.47</ele>
        <time>2016-04-13T19:42:32Z</time>
      </trkpt>
      <trkpt lat="43.09979" lon="1.82935">
        <ele>421.717</ele>
        <time>2016-04-13T19:42:52Z</time>
      </trkpt>
      <trkpt lat="43.10036" lon="1.82857">
        <ele>406.308</ele>
        <time>2016-04-13T19:43:12Z</time>
      </trkpt>
      <trkpt lat="43.10072" lon="1.82781">
        <ele>396.959</ele>
        <time>2016-04-13T19:43:32Z</time>
      </trkpt>
      <trkpt lat="43.10089" lon="1.82735">
        <ele>387.978</ele>
        <time>2016-04-13T19:43:52Z</time>
      </trkpt>
      <trkpt lat="43.10111" lon="1.82703">
        <ele>381.574</ele>
        <time>2016-04-13T19:44:12Z</time>
      </trkpt>
      <trkpt lat="43.10149" lon="1.82716">
        <ele>382.53</ele>
        <time>2016-04-13T19:44:32Z</time>
      </trkpt>
      <trkpt lat="43.10144" lon="1.82687">
        <ele>375.111</ele>
        <time>2016-04-13T19:44:52Z</time>
      </trkpt>
      <trkpt lat="43.10126" lon="1.82663">
        <ele>370.213</ele>
        <time>2016-04-13T19:45:12Z</time>
      </trkpt>
      <trkpt lat="43.10091" lon="1.82658">
        <ele>366.876</ele>
        <time>2016-04-13T19:45:32Z</time>
      </trkpt>
      <trkpt lat="43.10114" lon="1.82617">
        <ele>357.568</ele>
        <time>2016-04-13T19:45:52Z</time>
      </trkpt>
      <trkpt lat="43.1011" lon="1.8242">
        <ele>346.913</ele>
        <time>2016-04-13T19:46:12Z</time>
      </trkpt>
      <trkpt lat="43.10125" lon="1.82301">
        <ele>343.243</ele>
        <time>2016-04-13T19:46:32Z</time>
      </trkpt>
      <trkpt lat="43.1013" lon="1.82107">
        <ele>333.307</ele>
        <time>2016-04-13T19:46:52Z</time>
      </trkpt>
      <trkpt lat="43.10147" lon="1.82029">
        <ele>331.208</ele>
        <time>2016-04-13T19:47:12Z</time>
      </trkpt>
      <trkpt lat="43.10142" lon="1.81985">
        <ele>325.657</ele>
        <time>2016-04-13T19:47:32Z</time>
      </trkpt>
      <trkpt lat="43.10126" lon="1.81926">
        <ele>326.176</ele>
        <time>2016-04-13T19:47:52Z</time>
      </trkpt>
      <trkpt lat="43.10131" lon="1.81746">
        <ele>316.282</ele>
        <time>2016-04-13T19:48:12Z</time>
      </trkpt>
      <trkpt lat="43.10113" lon="1.8168">
        <ele>313.128</ele>
        <time>2016-04-13T19:48:32Z</time>
      </trkpt>
      <trkpt lat="43.10082" lon="1.81609">
        <ele>309.929</ele>
        <time>2016-04-13T19:48:52Z</time>
      </trkpt>
      <trkpt lat="43.10072" lon="1.81525">
        <ele>305.261</ele>
        <time>2016-04-13T19:49:12Z</time>
      </trkpt>
      <trkpt lat="43.10078" lon="1.81493">
        <ele>303.384</ele>
        <time>2016-04-13T19:49:32Z</time>
      </trkpt>
      <trkpt lat="43.10079" lon="1.81456">
        <ele>301.166</ele>
        <time>2016-04-13T19:49:52Z</time>
      </trkpt>
      <trkpt lat="43.10079" lon="1.81425">
        <ele>299.635</ele>
        <time>2016-04-13T19:50:12Z</time>
      </trkpt>
      <trkpt lat="43.10083" lon="1.81409">
        <ele>298.586</ele>
        <time>2016-04-13T19:50:32Z</time>
      </trkpt>
      <trkpt lat="43.10062" lon="1.81392">
        <ele>298.814</ele>
        <time>2016-04-13T19:50:52Z</time>
      </trkpt>
      <trkpt lat="43.10052" lon="1.81354">
        <ele>296.508</ele>
        <time>2016-04-13T19:51:12Z</time>
      </trkpt>
      <trkpt lat="43.10066" lon="1.81197">
        <ele>299.259</ele>
        <time>2016-04-13T19:51:32Z</time>
      </trkpt>
      <trkpt lat="43.10042" lon="1.81144">
        <ele>303.048</ele>
        <time>2016-04-13T19:51:52Z</time>
      </trkpt>
      <trkpt lat="43.0999" lon="1.81125">
        <ele>302.034</ele>
        <time>2016-04-13T19:52:12Z</time>
      </trkpt>
      <trkpt lat="43.0993" lon="1.81082">
        <ele>303.62</ele>
        <time>2016-04-13T19:52:32Z</time>
      </trkpt>
      <trkpt lat="43.0983" lon="1.81093">
        <ele>301.231</ele>
        <time>2016-04-13T19:52:52Z</time>
      </trkpt>
      <trkpt lat="43.09716" lon="1.81126">
        <ele>297.293</ele>
        <time>2016-04-13T19:53:12Z</time>
      </trkpt>
      <trkpt lat="43.09645" lon="1.81112">
        <ele>295.216</ele>
        <time>2016-04-13T19:53:32Z</time>
      </trkpt>
      <trkpt lat="43.09493" lon="1.81043">
        <ele>293.968</ele>
        <time>2016-04-13T19:53:52Z</time>
      </trkpt>
      <trkpt lat="43.09457" lon="1.8105">
        <ele>291.773</ele>
        <time>2016-04-13T19:54:12Z</time>
      </trkpt>
      <trkpt lat="43.09491" lon="1.80967">
        <ele>297.285</ele>
        <time>2016-04-13T19:54:32Z</time>
      </trkpt>
      <trkpt lat="43.09515" lon="1.80985">
        <ele>298.213</ele>
        <time>2016-04-13T19:54:52Z</time>
      </trkpt>
      <trkpt lat="43.0954" lon="1.80978">
        <ele>300.808</ele>
        <time>2016-04-13T19:55:12Z</time>
      </trkpt>
      <trkpt lat="43.09558" lon="1.80975">
        <ele>302.723</ele>
        <time>2016-04-13T19:55:32Z</time>
      </trkpt>
      <trkpt lat="43.09577" lon="1.80884">
        <ele>313.682</ele>
        <time>2016-04-13T19:55:52Z</time>
      </trkpt>
      <trkpt lat="43.096" lon="1.80727">
        <ele>325.328</ele>
        <time>2016-04-13T19:56:12Z</time>
      </trkpt>
      <trkpt lat="43.09648" lon="1.80603">
        <ele>332.664</ele>
        <time>2016-04-13T19:56:32Z</time>
      </trkpt>
      <trkpt lat="43.09671" lon="1.80565">
        <ele>333.875</ele>
        <time>2016-04-13T19:56:52Z</time>
      </trkpt>
      <trkpt lat="43.09774" lon="1.8047">
        <ele>345.337</ele>
        <time>2016-04-13T19:57:12Z</time>
      </trkpt>
      <trkpt lat="43.09864" lon="1.8041">
        <ele>357.18</ele>
        <time>2016-04-13T19:57:32Z</time>
      </trkpt>
      <trkpt lat="43.09901" lon="1.80356">
        <ele>361.572</ele>
        <time>2016-04-13T19:57:52Z</time>
      </trkpt>
      <trkpt lat="43.09975" lon="1.80308">
        <ele>373.221</ele>
        <time>2016-04-13T19:58:12Z</time>
      </trkpt>
      <trkpt lat="43.10039" lon="1.80259">
        <ele>383.541</ele>
        <time>2016-04-13T19:58:32Z</time>
      </trkpt>
      <trkpt lat="43.10069" lon="1.80242">
        <ele>392.105</ele>
        <time>2016-04-13T19:58:52Z</time>
      </trkpt>
      <trkpt lat="43.10073" lon="1.80218">
        <ele>394.708</ele>
        <time>2016-04-13T19:59:12Z</time>
      </trkpt>
      <trkpt lat="43.10059" lon="1.80187">
        <ele>397.328</ele>
        <time>2016-04-13T19:59:32Z</time>
      </trkpt>
      <trkpt lat="43.10008" lon="1.80139">
        <ele>400.927</ele>
        <time>2016-04-13T19:59:52Z</time>
      </trkpt>
      <trkpt lat="43.09938" lon="1.80026">
        <ele>412.923</ele>
        <time>2016-04-13T20:00:12Z</time>
      </trkpt>
      <trkpt lat="43.09882" lon="1.79991">
        <ele>418.649</ele>
        <time>2016-04-13T20:00:32Z</time>
      </trkpt>
      <trkpt lat="43.09882" lon="1.79946">
        <ele>415.84</ele>
        <time>2016-04-13T20:00:52Z</time>
      </trkpt>
      <trkpt lat="43.09933" lon="1.79729">
        <ele>418.582</ele>
        <time>2016-04-13T20:01:12Z</time>
      </trkpt>
      <trkpt lat="43.0995" lon="1.79425">
        <ele>407.845</ele>
        <time>2016-04-13T20:01:32Z</time>
      </trkpt>
      <trkpt lat="43.09943" lon="1.79364">
        <ele>403.247</ele>
        <time>2016-04-13T20:01:52Z</time>
      </trkpt>
      <trkpt lat="43.0987" lon="1.79249">
        <ele>400.031</ele>
        <time>2016-04-13T20:02:12Z</time>
      </trkpt>
      <trkpt lat="43.09843" lon="1.79213">
        <ele>401.861</ele>
        <time>2016-04-13T20:02:32Z</time>
      </trkpt>
      <trkpt lat="43.09826" lon="1.79171">
        <ele>403.607</ele>
        <time>2016-04-13T20:02:52Z</time>
      </trkpt>
      <trkpt lat="43.0982" lon="1.79122">
        <ele>401.808</ele>
        <time>2016-04-13T20:03:12Z</time>
      </trkpt>
      <trkpt lat="43.09803" lon="1.79071">
        <ele>398.899</ele>
        <time>2016-04-13T20:03:32Z</time>
      </trkpt>
      <trkpt lat="43.09788" lon="1.79057">
        <ele>397.478</ele>
        <time>2016-04-13T20:03:52Z</time>
      </trkpt>
      <trkpt lat="43.09774" lon="1.7901">
        <ele>397.774</ele>
        <time>2016-04-13T20:04:12Z</time>
      </trkpt>
      <trkpt lat="43.09771" lon="1.78962">
        <ele>399.15</ele>
        <time>2016-04-13T20:04:32Z</time>
      </trkpt>
      <trkpt lat="43.09748" lon="1.78925">
        <ele>398.511</ele>
        <time>2016-04-13T20:04:52Z</time>
      </trkpt>
      <trkpt lat="43.09718" lon="1.78721">
        <ele>391.493</ele>
        <time>2016-04-13T20:05:12Z</time>
      </trkpt>
      <trkpt lat="43.09697" lon="1.78675">
        <ele>393.646</ele>
        <time>2016-04-13T20:05:32Z</time>
      </trkpt>
      <trkpt lat="43.09659" lon="1.78634">
        <ele>390.868</ele>
        <time>2016-04-13T20:05:52Z</time>
      </trkpt>
      <trkpt lat="43.09662" lon="1.78571">
        <ele>386.891</ele>
        <time>2016-04-13T20:06:12Z</time>
      </trkpt>
      <trkpt lat="43.09635" lon="1.78474">
        <ele>373.381</ele>
        <time>2016-04-13T20:06:32Z</time>
      </trkpt>
      <trkpt lat="43.09621" lon="1.78416">
        <ele>366.719</ele>
        <time>2016-04-13T20:06:52Z</time>
      </trkpt>
      <trkpt lat="43.09558" lon="1.7834">
        <ele>360.908</ele>
        <time>2016-04-13T20:07:12Z</time>
      </trkpt>
      <trkpt lat="43.09549" lon="1.78253">
        <ele>353.515</ele>
        <time>2016-04-13T20:07:32Z</time>
      </trkpt>
      <trkpt lat="43.0953" lon="1.78213">
        <ele>345.154</ele>
        <time>2016-04-13T20:07:52Z</time>
      </trkpt>
      <trkpt lat="43.09509" lon="1.78125">
        <ele>331.41</ele>
        <time>2016-04-13T20:08:12Z</time>
      </trkpt>
      <trkpt lat="43.09459" lon="1.78043">
        <ele>318.526</ele>
        <time>2016-04-13T20:08:32Z</time>
      </trkpt>
      <trkpt lat="43.09426" lon="1.78005">
        <ele>312.237</ele>
        <time>2016-04-13T20:08:52Z</time>
      </trkpt>
      <trkpt lat="43.09378" lon="1.77956">
        <ele>302.849</ele>
        <time>2016-04-13T20:09:12Z</time>
      </trkpt>
      <trkpt lat="43.09363" lon="1.77926">
        <ele>298.452</ele>
        <time>2016-04-13T20:09:32Z</time>
      </trkpt>
      <trkpt lat="43.09361" lon="1.77903">
        <ele>294.044</ele>
        <time>2016-04-13T20:09:52Z</time>
      </trkpt>
      <trkpt lat="43.09348" lon="1.77925">
        <ele>293.848</ele>
        <time>2016-04-13T20:10:12Z</time>
      </trkpt>
      <trkpt lat="43.09336" lon="1.77888">
        <ele>286.361</ele>
        <time>2016-04-13T20:10:32Z</time>
      </trkpt>
      <trkpt lat="43.09319" lon="1.77894">
        <ele>283.917</ele>
        <time>2016-04-13T20:10:52Z</time>
      </trkpt>
      <trkpt lat="43.09271" lon="1.77894">
        <ele>278.408</ele>
        <time>2016-04-13T20:11:12Z</time>
      </trkpt>
      <trkpt lat="43.09267" lon="1.77868">
        <ele>276.67</ele>
        <time>2016-04-13T20:11:32Z</time>
      </trkpt>
      <trkpt lat="43.09196" lon="1.77872">
        <ele>275.489</ele>
        <time>2016-04-13T20:11:52Z</time>
      </trkpt>
      <trkpt lat="43.09147" lon="1.77853">
        <ele>275.055</ele>
        <time>2016-04-13T20:12:12Z</time>
      </trkpt>
      <trkpt lat="43.09117" lon="1.77828">
        <ele>275.061</ele>
        <time>2016-04-13T20:12:32Z</time>
      </trkpt>
      <trkpt lat="43.09123" lon="1.77774">
        <ele>275.052</ele>
        <time>2016-04-13T20:12:52Z</time>
      </trkpt>
      <trkpt lat="43.0911" lon="1.77648">
        <ele>274.944</ele>
        <time>2016-04-13T20:13:12Z</time>
      </trkpt>
      <trkpt lat="43.09039" lon="1.77463">
        <ele>274.727</ele>
        <time>2016-04-13T20:13:32Z</time>
      </trkpt>
      <trkpt lat="43.09031" lon="1.77401">
        <ele>272.949</ele>
        <time>2016-04-13T20:13:52Z</time>
      </trkpt>
      <trkpt lat="43.0903" lon="1.77306">
        <ele>273.063</ele>
        <time>2016-04-13T20:14:12Z</time>
      </trkpt>
      <trkpt lat="43.09051" lon="1.77148">
        <ele>267.844</ele>
        <time>2016-04-13T20:14:32Z</time>
      </trkpt>
      <trkpt lat="43.09093" lon="1.76986">
        <ele>267.718</ele>
        <time>2016-04-13T20:14:52Z</time>
      </trkpt>
      <trkpt lat="43.09093" lon="1.7686">
        <ele>267.008</ele>
        <time>2016-04-13T20:15:12Z</time>
      </trkpt>
      <trkpt lat="43.09126" lon="1.76767">
        <ele>268.052</ele>
        <time>2016-04-13T20:15:32Z</time>
      </trkpt>
      <trkpt lat="43.09131" lon="1.76706">
        <ele>266.721</ele>
        <time>2016-04-13T20:15:52Z</time>
      </trkpt>
      <trkpt lat="43.0914" lon="1.76664">
        <ele>266.037</ele>
        <time>2016-04-13T20:16:12Z</time>
      </trkpt>
      <trkpt lat="43.09264" lon="1.76437">
        <ele>268.513</ele>
        <time>2016-04-13T20:16:32Z</time>
      </trkpt>
      <trkpt lat="43.09345" lon="1.76251">
        <ele>269.714</ele>
        <time>2016-04-13T20:16:52Z</time>
      </trkpt>
      <trkpt lat="43.09421" lon="1.76108">
        <ele>269.456</ele>
        <time>2016-04-13T20:17:12Z</time>
      </trkpt>
      <trkpt lat="43.09499" lon="1.75999">
        <ele>268.939</ele>
        <time>2016-04-13T20:17:32Z</time>
      </trkpt>
      <trkpt lat="43.09543" lon="1.76035">
        <ele>271.691</ele>
        <time>2021-02-05T20:51:31Z</time>
      </trkpt>
      <trkpt lat="43.0957" lon="1.75998">
        <ele>270.595</ele>
        <time>2021-02-05T20:51:51Z</time>
      </trkpt>
      <trkpt lat="43.09672" lon="1.76096">
        <ele>275.149</ele>
        <time>2016-04-13T20:18:52Z</time>
      </trkpt>
      <trkpt lat="43.09707" lon="1.76173">
        <ele>283.923</ele>
        <time>2016-04-13T20:19:12Z</time>
      </trkpt>
      <trkpt lat="43.09711" lon="1.76243">
        <ele>288.308</ele>
        <time>2016-04-13T20:19:32Z</time>
      </trkpt>
      <trkpt lat="43.09728" lon="1.76275">
        <ele>289.145</ele>
        <time>2016-04-13T20:19:52Z</time>
      </trkpt>
      <trkpt lat="43.09735" lon="1.76301">
        <ele>293.314</ele>
        <time>2016-04-13T20:20:12Z</time>
      </trkpt>
      <trkpt lat="43.09743" lon="1.76298">
        <ele>293.51</ele>
        <time>2016-04-13T20:20:32Z</time>
      </trkpt>
      <trkpt lat="43.09754" lon="1.76282">
        <ele>292.166</ele>
        <time>2016-04-13T20:20:52Z</time>
      </trkpt>
      <trkpt lat="43.09774" lon="1.76278">
        <ele>294.427</ele>
        <time>2016-04-13T20:21:12Z</time>
      </trkpt>
      <trkpt lat="43.09858" lon="1.76314">
        <ele>301.229</ele>
        <time>2016-04-13T20:21:32Z</time>
      </trkpt>
      <trkpt lat="43.09875" lon="1.7632">
        <ele>302.752</ele>
        <time>2016-04-13T20:21:52Z</time>
      </trkpt>
      <trkpt lat="43.09918" lon="1.7636">
        <ele>306.594</ele>
        <time>2016-04-13T20:22:12Z</time>
      </trkpt>
      <trkpt lat="43.09971" lon="1.76417">
        <ele>310.961</ele>
        <time>2016-04-13T20:22:32Z</time>
      </trkpt>
      <trkpt lat="43.10007" lon="1.76524">
        <ele>315.321</ele>
        <time>2016-04-13T20:22:52Z</time>
      </trkpt>
      <trkpt lat="43.10072" lon="1.76587">
        <ele>325.513</ele>
        <time>2016-04-13T20:30:12Z</time>
      </trkpt>
      <trkpt lat="43.10191" lon="1.76617">
        <ele>336.208</ele>
        <time>2016-04-13T20:30:32Z</time>
      </trkpt>
      <trkpt lat="43.10249" lon="1.76617">
        <ele>342.452</ele>
        <time>2016-04-13T20:30:52Z</time>
      </trkpt>
      <trkpt lat="43.10285" lon="1.76628">
        <ele>350.441</ele>
        <time>2016-04-13T20:31:12Z</time>
      </trkpt>
      <trkpt lat="43.10291" lon="1.76673">
        <ele>354.137</ele>
        <time>2016-04-13T20:31:32Z</time>
      </trkpt>
      <trkpt lat="43.10303" lon="1.76672">
        <ele>357.933</ele>
        <time>2016-04-13T20:31:52Z</time>
      </trkpt>
      <trkpt lat="43.10323" lon="1.76635">
        <ele>362.374</ele>
        <time>2016-04-13T20:32:12Z</time>
      </trkpt>
      <trkpt lat="43.10343" lon="1.76637">
        <ele>365.336</ele>
        <time>2016-04-13T20:32:32Z</time>
      </trkpt>
      <trkpt lat="43.10358" lon="1.76679">
        <ele>368.949</ele>
        <time>2016-04-13T20:32:52Z</time>
      </trkpt>
      <trkpt lat="43.10358" lon="1.76713">
        <ele>372.561</ele>
        <time>2016-04-13T20:33:12Z</time>
      </trkpt>
      <trkpt lat="43.10349" lon="1.76747">
        <ele>372.758</ele>
        <time>2016-04-13T20:33:32Z</time>
      </trkpt>
      <trkpt lat="43.10399" lon="1.76814">
        <ele>377.652</ele>
        <time>2016-04-13T20:33:52Z</time>
      </trkpt>
      <trkpt lat="43.10497" lon="1.76834">
        <ele>378.917</ele>
        <time>2016-04-13T20:34:12Z</time>
      </trkpt>
      <trkpt lat="43.10573" lon="1.76808">
        <ele>372.808</ele>
        <time>2016-04-13T20:34:32Z</time>
      </trkpt>
      <trkpt lat="43.10598" lon="1.76764">
        <ele>368.681</ele>
        <time>2016-04-13T20:34:52Z</time>
      </trkpt>
      <trkpt lat="43.10617" lon="1.76702">
        <ele>371.91</ele>
        <time>2021-02-05T21:01:31Z</time>
      </trkpt>
      <trkpt lat="43.10666" lon="1.76639">
        <ele>365.866</ele>
        <time>2021-02-05T21:01:51Z</time>
      </trkpt>
      <trkpt lat="43.10687" lon="1.76546">
        <ele>367.672</ele>
        <time>2021-02-05T21:02:11Z</time>
      </trkpt>
      <trkpt lat="43.10751" lon="1.76555">
        <ele>356.773</ele>
        <time>2021-02-05T21:02:31Z</time>
      </trkpt>
      <trkpt lat="43.10943" lon="1.76588">
        <ele>372.175</ele>
        <time>2021-02-05T21:02:51Z</time>
      </trkpt>
      <trkpt lat="43.11037" lon="1.76553">
        <ele>384.188</ele>
        <time>2016-04-13T20:42:32Z</time>
      </trkpt>
      <trkpt lat="43.11372" lon="1.76319">
        <ele>379.79</ele>
        <time>2016-04-13T20:42:52Z</time>
      </trkpt>
      <trkpt lat="43.11373" lon="1.76259">
        <ele>374.133</ele>
        <time>2016-04-13T20:43:12Z</time>
      </trkpt>
      <trkpt lat="43.11398" lon="1.76191">
        <ele>367.123</ele>
        <time>2016-04-13T20:43:32Z</time>
      </trkpt>
      <trkpt lat="43.11399" lon="1.76129">
        <ele>362.115</ele>
        <time>2016-04-13T20:43:52Z</time>
      </trkpt>
      <trkpt lat="43.11438" lon="1.76009">
        <ele>354.508</ele>
        <time>2016-04-13T20:44:12Z</time>
      </trkpt>
      <trkpt lat="43.11465" lon="1.75905">
        <ele>355.349</ele>
        <time>2016-04-13T20:44:32Z</time>
      </trkpt>
      <trkpt lat="43.1151" lon="1.75774">
        <ele>363.058</ele>
        <time>2016-04-13T20:45:32Z</time>
      </trkpt>
      <trkpt lat="43.11514" lon="1.75732">
        <ele>366.554</ele>
        <time>2016-04-13T20:45:52Z</time>
      </trkpt>
      <trkpt lat="43.11517" lon="1.75643">
        <ele>369.91</ele>
        <time>2016-04-13T20:46:12Z</time>
      </trkpt>
      <trkpt lat="43.11576" lon="1.75483">
        <ele>366.031</ele>
        <time>2016-04-13T20:46:32Z</time>
      </trkpt>
      <trkpt lat="43.11579" lon="1.75438">
        <ele>362.823</ele>
        <time>2016-04-13T20:46:52Z</time>
      </trkpt>
      <trkpt lat="43.11576" lon="1.75389">
        <ele>357.356</ele>
        <time>2016-04-13T20:47:12Z</time>
      </trkpt>
      <trkpt lat="43.11664" lon="1.75042">
        <ele>331.678</ele>
        <time>2016-04-13T20:47:32Z</time>
      </trkpt>
      <trkpt lat="43.11686" lon="1.75005">
        <ele>329.913</ele>
        <time>2016-04-13T20:47:52Z</time>
      </trkpt>
      <trkpt lat="43.11754" lon="1.74757">
        <ele>312.543</ele>
        <time>2016-04-13T20:48:12Z</time>
      </trkpt>
      <trkpt lat="43.11729" lon="1.74684">
        <ele>305.807</ele>
        <time>2016-04-13T20:48:32Z</time>
      </trkpt>
      <trkpt lat="43.11702" lon="1.74672">
        <ele>304.508</ele>
        <time>2016-04-13T20:48:52Z</time>
      </trkpt>
      <trkpt lat="43.11693" lon="1.74638">
        <ele>301.037</ele>
        <time>2016-04-13T20:49:12Z</time>
      </trkpt>
      <trkpt lat="43.11693" lon="1.7418">
        <ele>274.516</ele>
        <time>2016-04-13T20:49:32Z</time>
      </trkpt>
      <trkpt lat="43.11702" lon="1.7417">
        <ele>274.422</ele>
        <time>2016-04-13T20:49:52Z</time>
      </trkpt>
      <trkpt lat="43.11735" lon="1.74182">
        <ele>276.048</ele>
        <time>2016-04-13T20:50:12Z</time>
      </trkpt>
      <trkpt lat="43.11781" lon="1.74185">
        <ele>275.319</ele>
        <time>2016-04-13T20:50:32Z</time>
      </trkpt>
      <trkpt lat="43.11814" lon="1.74206">
        <ele>272.211</ele>
        <time>2016-04-13T20:50:52Z</time>
      </trkpt>
      <trkpt lat="43.11852" lon="1.742">
        <ele>271.994</ele>
        <time>2016-04-13T20:51:12Z</time>
      </trkpt>
      <trkpt lat="43.11872" lon="1.74184">
        <ele>273.936</ele>
        <time>2016-04-13T20:51:32Z</time>
      </trkpt>
      <trkpt lat="43.11904" lon="1.74106">
        <ele>274.914</ele>
        <time>2016-04-13T20:51:52Z</time>
      </trkpt>
      <trkpt lat="43.11964" lon="1.74039">
        <ele>270.454</ele>
        <time>2016-04-13T20:52:12Z</time>
      </trkpt>
      <trkpt lat="43.11987" lon="1.74032">
        <ele>267.909</ele>
        <time>2016-04-13T20:52:32Z</time>
      </trkpt>
      <trkpt lat="43.12181" lon="1.74045">
        <ele>266.208</ele>
        <time>2016-04-13T20:52:52Z</time>
      </trkpt>
      <trkpt lat="43.12189" lon="1.74032">
        <ele>263.817</ele>
        <time>2016-04-13T20:53:12Z</time>
      </trkpt>
      <trkpt lat="43.12124" lon="1.74001">
        <ele>262.186</ele>
        <time>2016-04-13T20:53:32Z</time>
      </trkpt>
      <trkpt lat="43.12123" lon="1.73985">
        <ele>260.952</ele>
        <time>2016-04-13T20:53:52Z</time>
      </trkpt>
      <trkpt lat="43.12156" lon="1.7397">
        <ele>259.318</ele>
        <time>2016-04-13T20:54:12Z</time>
      </trkpt>
      <trkpt lat="43.12176" lon="1.73937">
        <ele>258.469</ele>
        <time>2016-04-13T20:54:32Z</time>
      </trkpt>
      <trkpt lat="43.12179" lon="1.73891">
        <ele>257.631</ele>
        <time>2016-04-13T20:54:52Z</time>
      </trkpt>
      <trkpt lat="43.12266" lon="1.7383">
        <ele>255.024</ele>
        <time>2016-04-13T20:55:12Z</time>
      </trkpt>
      <trkpt lat="43.12344" lon="1.73642">
        <ele>255.016</ele>
        <time>2016-04-13T20:55:32Z</time>
      </trkpt>
      <trkpt lat="43.1241" lon="1.73454">
        <ele>256.033</ele>
        <time>2016-04-13T20:55:52Z</time>
      </trkpt>
      <trkpt lat="43.12432" lon="1.73428">
        <ele>256.023</ele>
        <time>2016-04-13T20:56:12Z</time>
      </trkpt>
      <trkpt lat="43.12397" lon="1.73356">
        <ele>256.115</ele>
        <time>2016-04-13T20:56:32Z</time>
      </trkpt>
      <trkpt lat="43.12381" lon="1.7327">
        <ele>257.008</ele>
        <time>2016-04-13T20:56:52Z</time>
      </trkpt>
      <trkpt lat="43.12312" lon="1.73057">
        <ele>257.069</ele>
        <time>2016-04-13T20:57:12Z</time>
      </trkpt>
      <trkpt lat="43.12298" lon="1.72926">
        <ele>257.068</ele>
        <time>2016-04-13T20:57:32Z</time>
      </trkpt>
      <trkpt lat="43.12273" lon="1.72843">
        <ele>257.034</ele>
        <time>2016-04-13T20:57:52Z</time>
      </trkpt>
      <trkpt lat="43.12189" lon="1.72737">
        <ele>258.08</ele>
        <time>2016-04-13T20:58:12Z</time>
      </trkpt>
      <trkpt lat="43.12064" lon="1.72755">
        <ele>258.061</ele>
        <time>2016-04-13T20:58:32Z</time>
      </trkpt>
      <trkpt lat="43.12036" lon="1.72669">
        <ele>258.973</ele>
        <time>2016-04-13T20:58:52Z</time>
      </trkpt>
      <trkpt lat="43.11995" lon="1.72588">
        <ele>259.046</ele>
        <time>2016-04-13T20:59:12Z</time>
      </trkpt>
      <trkpt lat="43.11928" lon="1.72524">
        <ele>260.078</ele>
        <time>2016-04-13T20:59:32Z</time>
      </trkpt>
      <trkpt lat="43.1187" lon="1.72492">
        <ele>260.144</ele>
        <time>2016-04-13T20:59:52Z</time>
      </trkpt>
      <trkpt lat="43.11743" lon="1.72456">
        <ele>260.005</ele>
        <time>2016-04-13T21:00:12Z</time>
      </trkpt>
      <trkpt lat="43.11667" lon="1.72459">
        <ele>260.015</ele>
        <time>2016-04-13T21:00:32Z</time>
      </trkpt>
      <trkpt lat="43.11622" lon="1.72447">
        <ele>260.008</ele>
        <time>2016-04-13T21:00:52Z</time>
      </trkpt>
      <trkpt lat="43.11589" lon="1.72425">
        <ele>260.92</ele>
        <time>2016-04-13T21:01:12Z</time>
      </trkpt>
      <trkpt lat="43.11549" lon="1.72369">
        <ele>262.059</ele>
        <time>2016-04-13T21:01:32Z</time>
      </trkpt>
      <trkpt lat="43.11462" lon="1.72292">
        <ele>265.555</ele>
        <time>2016-04-13T21:01:52Z</time>
      </trkpt>
      <trkpt lat="43.11299" lon="1.72289">
        <ele>267.671</ele>
        <time>2016-04-13T21:02:12Z</time>
      </trkpt>
      <trkpt lat="43.1128" lon="1.72192">
        <ele>271.112</ele>
        <time>2016-04-13T21:02:32Z</time>
      </trkpt>
      <trkpt lat="43.11337" lon="1.72167">
        <ele>272.044</ele>
        <time>2016-04-13T21:02:52Z</time>
      </trkpt>
      <trkpt lat="43.11356" lon="1.72148">
        <ele>272.197</ele>
        <time>2016-04-13T21:03:12Z</time>
      </trkpt>
      <trkpt lat="43.11366" lon="1.72116">
        <ele>272.899</ele>
        <time>2016-04-13T21:03:32Z</time>
      </trkpt>
      <trkpt lat="43.11334" lon="1.7203">
        <ele>279.853</ele>
        <time>2016-04-13T21:03:52Z</time>
      </trkpt>
      <trkpt lat="43.11335" lon="1.72009">
        <ele>280.604</ele>
        <time>2016-04-13T21:04:12Z</time>
      </trkpt>
      <trkpt lat="43.11446" lon="1.71965">
        <ele>286.914</ele>
        <time>2016-04-13T21:04:32Z</time>
      </trkpt>
      <trkpt lat="43.11549" lon="1.71922">
        <ele>288.208</ele>
        <time>2016-04-13T21:04:52Z</time>
      </trkpt>
      <trkpt lat="43.11735" lon="1.71895">
        <ele>287.611</ele>
        <time>2016-04-13T21:05:12Z</time>
      </trkpt>
      <trkpt lat="43.11832" lon="1.71884">
        <ele>287.89</ele>
        <time>2016-04-13T21:05:32Z</time>
      </trkpt>
      <trkpt lat="43.11944" lon="1.71899">
        <ele>283.216</ele>
        <time>2016-04-13T21:05:52Z</time>
      </trkpt>
      <trkpt lat="43.11945" lon="1.71886">
        <ele>284.532</ele>
        <time>2016-04-13T21:06:12Z</time>
      </trkpt>
      <trkpt lat="43.11967" lon="1.71881">
        <ele>292.173</ele>
        <time>2016-04-13T21:06:32Z</time>
      </trkpt>
      <trkpt lat="43.11944" lon="1.71835">
        <ele>290.765</ele>
        <time>2016-04-13T21:06:52Z</time>
      </trkpt>
      <trkpt lat="43.11919" lon="1.71745">
        <ele>299.988</ele>
        <time>2016-04-13T21:07:12Z</time>
      </trkpt>
      <trkpt lat="43.11933" lon="1.71667">
        <ele>314.86</ele>
        <time>2016-04-13T21:07:32Z</time>
      </trkpt>
      <trkpt lat="43.11958" lon="1.71621">
        <ele>316.564</ele>
        <time>2016-04-13T21:07:52Z</time>
      </trkpt>
      <trkpt lat="43.11871" lon="1.71531">
        <ele>321.006</ele>
        <time>2016-04-13T21:08:12Z</time>
      </trkpt>
      <trkpt lat="43.11816" lon="1.71519">
        <ele>321.016</ele>
        <time>2016-04-13T21:08:32Z</time>
      </trkpt>
      <trkpt lat="43.11816" lon="1.7145">
        <ele>322.008</ele>
        <time>2016-04-13T21:11:12Z</time>
      </trkpt>
      <trkpt lat="43.11832" lon="1.71428">
        <ele>322.022</ele>
        <time>2016-04-13T21:11:32Z</time>
      </trkpt>
      <trkpt lat="43.11854" lon="1.71413">
        <ele>322.081</ele>
        <time>2016-04-13T21:11:52Z</time>
      </trkpt>
      <trkpt lat="43.11955" lon="1.71267">
        <ele>321.397</ele>
        <time>2019-12-08T23:07:49Z</time>
      </trkpt>
      <trkpt lat="43.12065" lon="1.71288">
        <ele>317.593</ele>
        <time>2019-12-08T23:08:09Z</time>
      </trkpt>
      <trkpt lat="43.12131" lon="1.71287">
        <ele>316.124</ele>
        <time>2019-12-08T23:08:29Z</time>
      </trkpt>
      <trkpt lat="43.12144" lon="1.71243">
        <ele>313.976</ele>
        <time>2019-12-08T23:08:49Z</time>
      </trkpt>
      <trkpt lat="43.12176" lon="1.71232">
        <ele>312.669</ele>
        <time>2019-12-08T23:09:09Z</time>
      </trkpt>
      <trkpt lat="43.12209" lon="1.71195">
        <ele>309.961</ele>
        <time>2019-12-08T23:09:29Z</time>
      </trkpt>
      <trkpt lat="43.12243" lon="1.71203">
        <ele>309.394</ele>
        <time>2019-12-08T23:09:49Z</time>
      </trkpt>
      <trkpt lat="43.12304" lon="1.71177">
        <ele>307.857</ele>
        <time>2019-12-08T23:10:09Z</time>
      </trkpt>
      <trkpt lat="43.12321" lon="1.71177">
        <ele>306.822</ele>
        <time>2019-12-08T23:10:29Z</time>
      </trkpt>
      <trkpt lat="43.12353" lon="1.71155">
        <ele>305.108</ele>
        <time>2019-12-08T23:10:49Z</time>
      </trkpt>
      <trkpt lat="43.12367" lon="1.71152">
        <ele>304.935</ele>
        <time>2019-12-08T23:11:09Z</time>
      </trkpt>
      <trkpt lat="43.12406" lon="1.71119">
        <ele>301.184</ele>
        <time>2019-12-08T23:11:29Z</time>
      </trkpt>
      <trkpt lat="43.12442" lon="1.71109">
        <ele>300.03</ele>
        <time>2019-12-08T23:11:49Z</time>
      </trkpt>
      <trkpt lat="43.12461" lon="1.71082">
        <ele>300.116</ele>
        <time>2019-12-08T23:12:09Z</time>
      </trkpt>
      <trkpt lat="43.12551" lon="1.71042">
        <ele>311.327</ele>
        <time>2019-12-08T23:12:29Z</time>
      </trkpt>
      <trkpt lat="43.12628" lon="1.71106">
        <ele>312.359</ele>
        <time>2019-12-08T23:12:49Z</time>
      </trkpt>
      <trkpt lat="43.12654" lon="1.71113">
        <ele>312.742</ele>
        <time>2019-12-08T23:13:09Z</time>
      </trkpt>
      <trkpt lat="43.12675" lon="1.71106">
        <ele>311.974</ele>
        <time>2019-12-08T23:13:29Z</time>
      </trkpt>
      <trkpt lat="43.12715" lon="1.71026">
        <ele>310.912</ele>
        <time>2019-12-08T23:13:49Z</time>
      </trkpt>
      <trkpt lat="43.12791" lon="1.71008">
        <ele>315.032</ele>
        <time>2019-12-08T23:14:09Z</time>
      </trkpt>
      <trkpt lat="43.12828" lon="1.71006">
        <ele>315.005</ele>
        <time>2019-12-08T23:14:29Z</time>
      </trkpt>
      <trkpt lat="43.12826" lon="1.70976">
        <ele>315.008</ele>
        <time>2019-12-08T23:14:49Z</time>
      </trkpt>
      <trkpt lat="43.12897" lon="1.70897">
        <ele>312.327</ele>
        <time>2019-12-08T23:15:09Z</time>
      </trkpt>
      <trkpt lat="43.12935" lon="1.70808">
        <ele>315.046</ele>
        <time>2019-12-08T23:15:29Z</time>
      </trkpt>
      <trkpt lat="43.1292" lon="1.70696">
        <ele>312.842</ele>
        <time>2019-12-08T23:15:49Z</time>
      </trkpt>
      <trkpt lat="43.12937" lon="1.70574">
        <ele>305.228</ele>
        <time>2019-12-08T23:16:09Z</time>
      </trkpt>
      <trkpt lat="43.13014" lon="1.7057">
        <ele>301.879</ele>
        <time>2019-12-08T23:16:29Z</time>
      </trkpt>
      <trkpt lat="43.13001" lon="1.70341">
        <ele>298.081</ele>
        <time>2019-12-08T23:16:49Z</time>
      </trkpt>
      <trkpt lat="43.13" lon="1.70284">
        <ele>297.054</ele>
        <time>2019-12-08T23:17:09Z</time>
      </trkpt>
      <trkpt lat="43.13018" lon="1.70112">
        <ele>296.056</ele>
        <time>2019-12-08T23:17:29Z</time>
      </trkpt>
      <trkpt lat="43.13016" lon="1.69996">
        <ele>296.019</ele>
        <time>2019-12-08T23:17:49Z</time>
      </trkpt>
      <trkpt lat="43.12988" lon="1.69874">
        <ele>296.009</ele>
        <time>2019-12-08T23:18:09Z</time>
      </trkpt>
      <trkpt lat="43.12985" lon="1.69783">
        <ele>295.019</ele>
        <time>2019-12-08T23:18:29Z</time>
      </trkpt>
      <trkpt lat="43.12958" lon="1.69777">
        <ele>295.508</ele>
        <time>2019-12-08T23:18:49Z</time>
      </trkpt>
      <trkpt lat="43.12913" lon="1.68803">
        <ele>293.057</ele>
        <time>2019-12-08T23:19:09Z</time>
      </trkpt>
      <trkpt lat="43.12859" lon="1.67806">
        <ele>295.036</ele>
        <time>2019-12-08T23:19:29Z</time>
      </trkpt>
      <trkpt lat="43.12841" lon="1.6777">
        <ele>295.042</ele>
        <time>2019-12-08T23:19:49Z</time>
      </trkpt>
      <trkpt lat="43.12642" lon="1.67612">
        <ele>297.058</ele>
        <time>2019-12-08T23:20:09Z</time>
      </trkpt>
      <trkpt lat="43.12541" lon="1.6753">
        <ele>297.039</ele>
        <time>2019-12-08T23:20:29Z</time>
      </trkpt>
      <trkpt lat="43.12492" lon="1.67507">
        <ele>297.861</ele>
        <time>2019-12-08T23:20:49Z</time>
      </trkpt>
      <trkpt lat="43.12373" lon="1.67428">
        <ele>299.044</ele>
        <time>2019-12-08T23:21:09Z</time>
      </trkpt>
      <trkpt lat="43.12362" lon="1.67408">
        <ele>299.036</ele>
        <time>2019-12-08T23:21:29Z</time>
      </trkpt>
      <trkpt lat="43.12359" lon="1.6738">
        <ele>299.021</ele>
        <time>2019-12-08T23:21:49Z</time>
      </trkpt>
      <trkpt lat="43.12272" lon="1.67309">
        <ele>300.041</ele>
        <time>2019-12-08T23:22:09Z</time>
      </trkpt>
      <trkpt lat="43.12172" lon="1.6726">
        <ele>300.005</ele>
        <time>2019-12-08T23:22:29Z</time>
      </trkpt>
      <trkpt lat="43.12072" lon="1.67167">
        <ele>301.008</ele>
        <time>2019-12-08T23:22:49Z</time>
      </trkpt>
      <trkpt lat="43.11959" lon="1.67085">
        <ele>302.098</ele>
        <time>2019-12-08T23:23:09Z</time>
      </trkpt>
      <trkpt lat="43.1189" lon="1.67088">
        <ele>302.027</ele>
        <time>2019-12-08T23:23:29Z</time>
      </trkpt>
      <trkpt lat="43.11849" lon="1.67065">
        <ele>303.073</ele>
        <time>2019-12-08T23:23:49Z</time>
      </trkpt>
      <trkpt lat="43.11823" lon="1.67006">
        <ele>303.099</ele>
        <time>2019-12-08T23:24:09Z</time>
      </trkpt>
      <trkpt lat="43.11807" lon="1.6686">
        <ele>303.02</ele>
        <time>2019-12-08T23:24:29Z</time>
      </trkpt>
      <trkpt lat="43.11795" lon="1.66803">
        <ele>303.022</ele>
        <time>2019-12-08T23:24:49Z</time>
      </trkpt>
      <trkpt lat="43.11729" lon="1.66711">
        <ele>304.095</ele>
        <time>2019-12-08T23:25:09Z</time>
      </trkpt>
      <trkpt lat="43.11682" lon="1.66654">
        <ele>304.097</ele>
        <time>2019-12-08T23:25:29Z</time>
      </trkpt>
      <trkpt lat="43.11665" lon="1.66601">
        <ele>304.164</ele>
        <time>2019-12-08T23:25:49Z</time>
      </trkpt>
      <trkpt lat="43.11651" lon="1.66533">
        <ele>304.906</ele>
        <time>2019-12-08T23:26:09Z</time>
      </trkpt>
      <trkpt lat="43.1166" lon="1.66473">
        <ele>305.016</ele>
        <time>2019-12-08T23:26:29Z</time>
      </trkpt>
      <trkpt lat="43.11648" lon="1.66432">
        <ele>305.008</ele>
        <time>2019-12-08T23:26:49Z</time>
      </trkpt>
      <trkpt lat="43.11473" lon="1.66202">
        <ele>306.012</ele>
        <time>2019-12-08T23:27:09Z</time>
      </trkpt>
      <trkpt lat="43.1149" lon="1.66199">
        <ele>305.491</ele>
        <time>2019-12-08T23:27:29Z</time>
      </trkpt>
      <trkpt lat="43.11451" lon="1.66053">
        <ele>305.847</ele>
        <time>2019-12-08T23:27:49Z</time>
      </trkpt>
      <trkpt lat="43.11398" lon="1.65832">
        <ele>306.083</ele>
        <time>2019-12-08T23:28:09Z</time>
      </trkpt>
      <trkpt lat="43.11338" lon="1.6565">
        <ele>306.084</ele>
        <time>2019-12-08T23:28:29Z</time>
      </trkpt>
      <trkpt lat="43.11321" lon="1.65544">
        <ele>306.016</ele>
        <time>2019-12-08T23:28:49Z</time>
      </trkpt>
      <trkpt lat="43.11305" lon="1.65484">
        <ele>306.059</ele>
        <time>2019-12-08T23:29:09Z</time>
      </trkpt>
      <trkpt lat="43.11309" lon="1.65442">
        <ele>305.811</ele>
        <time>2019-12-08T23:29:29Z</time>
      </trkpt>
      <trkpt lat="43.11324" lon="1.65354">
        <ele>305.011</ele>
        <time>2019-12-08T23:29:49Z</time>
      </trkpt>
      <trkpt lat="43.11334" lon="1.6527">
        <ele>304.021</ele>
        <time>2019-12-08T23:30:09Z</time>
      </trkpt>
      <trkpt lat="43.11361" lon="1.65137">
        <ele>303.003</ele>
        <time>2019-12-08T23:30:29Z</time>
      </trkpt>
      <trkpt lat="43.11371" lon="1.65007">
        <ele>302.208</ele>
        <time>2019-12-08T23:30:49Z</time>
      </trkpt>
      <trkpt lat="43.11392" lon="1.64876">
        <ele>301.087</ele>
        <time>2019-12-08T23:31:09Z</time>
      </trkpt>
      <trkpt lat="43.11385" lon="1.64671">
        <ele>301.086</ele>
        <time>2019-12-08T23:31:29Z</time>
      </trkpt>
      <trkpt lat="43.11391" lon="1.64585">
        <ele>301.032</ele>
        <time>2019-12-08T23:31:49Z</time>
      </trkpt>
      <trkpt lat="43.11389" lon="1.64438">
        <ele>301.028</ele>
        <time>2019-12-08T23:32:09Z</time>
      </trkpt>
      <trkpt lat="43.11426" lon="1.64246">
        <ele>300.069</ele>
        <time>2019-12-08T23:32:29Z</time>
      </trkpt>
      <trkpt lat="43.11424" lon="1.64195">
        <ele>300.071</ele>
        <time>2019-12-08T23:32:49Z</time>
      </trkpt>
      <trkpt lat="43.11408" lon="1.64094">
        <ele>300.074</ele>
        <time>2019-12-08T23:33:09Z</time>
      </trkpt>
      <trkpt lat="43.11361" lon="1.63882">
        <ele>300.076</ele>
        <time>2019-12-08T23:33:29Z</time>
      </trkpt>
      <trkpt lat="43.11275" lon="1.63753">
        <ele>300.022</ele>
        <time>2019-12-08T23:33:49Z</time>
      </trkpt>
      <trkpt lat="43.11266" lon="1.63716">
        <ele>300.062</ele>
        <time>2019-12-08T23:34:09Z</time>
      </trkpt>
      <trkpt lat="43.11277" lon="1.63672">
        <ele>300.008</ele>
        <time>2019-12-08T23:34:29Z</time>
      </trkpt>
      <trkpt lat="43.11292" lon="1.63657">
        <ele>300.008</ele>
        <time>2019-12-08T23:34:49Z</time>
      </trkpt>
      <trkpt lat="43.11296" lon="1.63612">
        <ele>300.058</ele>
        <time>2019-12-08T23:35:09Z</time>
      </trkpt>
      <trkpt lat="43.11301" lon="1.63479">
        <ele>300.067</ele>
        <time>2019-12-08T23:35:29Z</time>
      </trkpt>
      <trkpt lat="43.11302" lon="1.63366">
        <ele>299.313</ele>
        <time>2019-12-08T23:35:49Z</time>
      </trkpt>
      <trkpt lat="43.11393" lon="1.63369">
        <ele>299.099</ele>
        <time>2019-12-08T23:36:09Z</time>
      </trkpt>
      <trkpt lat="43.11428" lon="1.63343">
        <ele>299.02</ele>
        <time>2019-12-08T23:36:29Z</time>
      </trkpt>
      <trkpt lat="43.11485" lon="1.63329">
        <ele>299.032</ele>
        <time>2019-12-08T23:36:49Z</time>
      </trkpt>
      <trkpt lat="43.11506" lon="1.63327">
        <ele>299.045</ele>
        <time>2019-12-08T23:37:09Z</time>
      </trkpt>
      <trkpt lat="43.11512" lon="1.63313">
        <ele>299.097</ele>
        <time>2019-12-08T23:37:29Z</time>
      </trkpt>
      <trkpt lat="43.11507" lon="1.63247">
        <ele>298.877</ele>
        <time>2019-12-08T23:37:49Z</time>
      </trkpt>
      <trkpt lat="43.11527" lon="1.63117">
        <ele>298.061</ele>
        <time>2019-12-08T23:38:09Z</time>
      </trkpt>
      <trkpt lat="43.11557" lon="1.63129">
        <ele>298.027</ele>
        <time>2019-12-08T23:38:29Z</time>
      </trkpt>
      <trkpt lat="43.11633" lon="1.63215">
        <ele>298.008</ele>
        <time>2019-12-08T23:38:49Z</time>
      </trkpt>
      <trkpt lat="43.11644" lon="1.63215">
        <ele>298.033</ele>
        <time>2019-12-08T23:39:09Z</time>
      </trkpt>
      <trkpt lat="43.11655" lon="1.63203">
        <ele>298.022</ele>
        <time>2019-12-08T23:39:29Z</time>
      </trkpt>
      <trkpt lat="43.11618" lon="1.6317">
        <ele>298.028</ele>
        <time>2019-12-08T23:39:49Z</time>
      </trkpt>
      <trkpt lat="43.11574" lon="1.63088">
        <ele>298.084</ele>
        <time>2019-12-08T23:40:09Z</time>
      </trkpt>
      <trkpt lat="43.11539" lon="1.6296">
        <ele>298.065</ele>
        <time>2019-12-08T23:40:29Z</time>
      </trkpt>
      <trkpt lat="43.11537" lon="1.62875">
        <ele>297.037</ele>
        <time>2019-12-08T23:40:49Z</time>
      </trkpt>
      <trkpt lat="43.11557" lon="1.62789">
        <ele>297.07</ele>
        <time>2019-12-08T23:41:09Z</time>
      </trkpt>
      <trkpt lat="43.11579" lon="1.62728">
        <ele>297.122</ele>
        <time>2019-12-08T23:41:29Z</time>
      </trkpt>
      <trkpt lat="43.11594" lon="1.62654">
        <ele>297.319</ele>
        <time>2019-12-08T23:41:49Z</time>
      </trkpt>
      <trkpt lat="43.11592" lon="1.62581">
        <ele>297.009</ele>
        <time>2019-12-08T23:42:09Z</time>
      </trkpt>
      <trkpt lat="43.11559" lon="1.62366">
        <ele>297.019</ele>
        <time>2019-12-08T23:42:29Z</time>
      </trkpt>
      <trkpt lat="43.11526" lon="1.62118">
        <ele>298.008</ele>
        <time>2019-12-08T23:42:49Z</time>
      </trkpt>
      <trkpt lat="43.11476" lon="1.62047">
        <ele>297.667</ele>
        <time>2019-12-08T23:43:09Z</time>
      </trkpt>
      <trkpt lat="43.11584" lon="1.62017">
        <ele>296.016</ele>
        <time>2019-12-08T23:43:29Z</time>
      </trkpt>
      <trkpt lat="43.11906" lon="1.61901">
        <ele>295.052</ele>
        <time>2019-12-08T23:43:49Z</time>
      </trkpt>
      <trkpt lat="43.11988" lon="1.61854">
        <ele>295.058</ele>
        <time>2019-12-08T23:44:09Z</time>
      </trkpt>
      <trkpt lat="43.12029" lon="1.61862">
        <ele>295.039</ele>
        <time>2019-12-08T23:44:29Z</time>
      </trkpt>
      <trkpt lat="43.12016" lon="1.61798">
        <ele>294.331</ele>
        <time>2019-12-08T23:44:49Z</time>
      </trkpt>
      <trkpt lat="43.11966" lon="1.61804">
        <ele>295.024</ele>
        <time>2019-12-08T23:45:09Z</time>
      </trkpt>
      <trkpt lat="43.11941" lon="1.61783">
        <ele>295.076</ele>
        <time>2019-12-08T23:45:29Z</time>
      </trkpt>
      <trkpt lat="43.11949" lon="1.61735">
        <ele>295.052</ele>
        <time>2019-12-08T23:45:49Z</time>
      </trkpt>
      <trkpt lat="43.11924" lon="1.61696">
        <ele>295.053</ele>
        <time>2019-12-08T23:46:09Z</time>
      </trkpt>
      <trkpt lat="43.1192" lon="1.61665">
        <ele>294.908</ele>
        <time>2019-12-08T23:46:29Z</time>
      </trkpt>
      <trkpt lat="43.11887" lon="1.61625">
        <ele>289.408</ele>
        <time>2019-12-08T23:46:49Z</time>
      </trkpt>
      <trkpt lat="43.11904" lon="1.61554">
        <ele>288.841</ele>
        <time>2020-04-15T21:54:48Z</time>
      </trkpt>
      <trkpt lat="43.11951" lon="1.61507">
        <ele>291.14</ele>
        <time>2020-04-15T21:55:08Z</time>
      </trkpt>
      <trkpt lat="43.11903" lon="1.61503">
        <ele>287.036</ele>
        <time>2020-04-15T21:55:28Z</time>
      </trkpt>
      <trkpt lat="43.11844" lon="1.61391">
        <ele>281.352</ele>
        <time>2020-04-15T21:55:48Z</time>
      </trkpt>
      <trkpt lat="43.11924" lon="1.61273">
        <ele>280.933</ele>
        <time>2021-02-05T22:10:31Z</time>
      </trkpt>
      <trkpt lat="43.11874" lon="1.6119">
        <ele>284.385</ele>
        <time>2021-02-05T22:10:51Z</time>
      </trkpt>
      <trkpt lat="43.11644" lon="1.61186">
        <ele>290.278</ele>
        <time>2021-02-05T22:11:11Z</time>
      </trkpt>
      <trkpt lat="43.11565" lon="1.61099">
        <ele>292.33</ele>
        <time>2021-02-05T22:11:31Z</time>
      </trkpt>
      <trkpt lat="43.11595" lon="1.61016">
        <ele>289.925</ele>
        <time>2020-04-15T22:00:08Z</time>
      </trkpt>
      <trkpt lat="43.1144" lon="1.60921">
        <ele>293.826</ele>
        <time>2019-12-09T09:26:01Z</time>
      </trkpt>
      <trkpt lat="43.11449" lon="1.60882">
        <ele>294.608</ele>
        <time>2019-12-09T09:26:21Z</time>
      </trkpt>
      <trkpt lat="43.11443" lon="1.60868">
        <ele>295.108</ele>
        <time>2019-12-09T09:26:41Z</time>
      </trkpt>
      <trkpt lat="43.11434" lon="1.60858">
        <ele>295.888</ele>
        <time>2019-12-09T09:27:01Z</time>
      </trkpt>
      <trkpt lat="43.11426" lon="1.60814">
        <ele>297.867</ele>
        <time>2019-12-09T09:27:21Z</time>
      </trkpt>
      <trkpt lat="43.11343" lon="1.60803">
        <ele>300.463</ele>
        <time>2019-12-09T09:27:41Z</time>
      </trkpt>
      <trkpt lat="43.11337" lon="1.60794">
        <ele>300.579</ele>
        <time>2019-12-09T09:28:01Z</time>
      </trkpt>
      <trkpt lat="43.11323" lon="1.60804">
        <ele>295.51</ele>
        <time>2019-12-09T09:28:21Z</time>
      </trkpt>
      <trkpt lat="43.11315" lon="1.60852">
        <ele>294.962</ele>
        <time>2019-12-09T09:28:41Z</time>
      </trkpt>
      <trkpt lat="43.11263" lon="1.60861">
        <ele>288.655</ele>
        <time>2021-02-05T22:15:11Z</time>
      </trkpt>
      <trkpt lat="43.11266" lon="1.60739">
        <ele>287.757</ele>
        <time>2021-02-05T22:15:31Z</time>
      </trkpt>
      <trkpt lat="43.11285" lon="1.60681">
        <ele>289.851</ele>
        <time>2019-12-09T09:29:41Z</time>
      </trkpt>
      <trkpt lat="43.11307" lon="1.60646">
        <ele>287.401</ele>
        <time>2019-12-09T09:30:01Z</time>
      </trkpt>
      <trkpt lat="43.11358" lon="1.606">
        <ele>288.511</ele>
        <time>2019-12-09T09:30:21Z</time>
      </trkpt>
      <trkpt lat="43.11357" lon="1.60578">
        <ele>284.108</ele>
        <time>2019-12-09T09:30:41Z</time>
      </trkpt>
      <trkpt lat="43.11351" lon="1.60569">
        <ele>284.021</ele>
        <time>2019-12-09T09:31:01Z</time>
      </trkpt>
      <trkpt lat="43.11283" lon="1.60368">
        <ele>283.83</ele>
        <time>2021-02-05T22:17:31Z</time>
      </trkpt>
      <trkpt lat="43.11255" lon="1.6038">
        <ele>284.996</ele>
        <time>2021-02-05T22:17:51Z</time>
      </trkpt>
      <trkpt lat="43.11218" lon="1.60365">
        <ele>287.422</ele>
        <time>2021-02-05T22:18:11Z</time>
      </trkpt>
      <trkpt lat="43.11188" lon="1.60341">
        <ele>291.033</ele>
        <time>2021-02-05T22:18:31Z</time>
      </trkpt>
      <trkpt lat="43.11155" lon="1.60344">
        <ele>291.245</ele>
        <time>2021-02-05T22:18:51Z</time>
      </trkpt>
      <trkpt lat="43.11126" lon="1.60303">
        <ele>292.628</ele>
        <time>2021-02-05T22:19:11Z</time>
      </trkpt>
      <trkpt lat="43.11096" lon="1.60237">
        <ele>297.37</ele>
        <time>2021-02-05T22:19:31Z</time>
      </trkpt>
      <trkpt lat="43.11065" lon="1.60204">
        <ele>300.847</ele>
        <time>2021-02-05T22:19:51Z</time>
      </trkpt>
      <trkpt lat="43.11049" lon="1.60171">
        <ele>305.129</ele>
        <time>2021-02-05T22:20:11Z</time>
      </trkpt>
      <trkpt lat="43.11023" lon="1.60147">
        <ele>309.121</ele>
        <time>2019-12-09T09:33:01Z</time>
      </trkpt>
      <trkpt lat="43.11001" lon="1.60128">
        <ele>310.508</ele>
        <time>2019-12-09T09:33:21Z</time>
      </trkpt>
      <trkpt lat="43.10949" lon="1.60134">
        <ele>304.34</ele>
        <time>2019-12-09T09:33:41Z</time>
      </trkpt>
      <trkpt lat="43.10902" lon="1.60152">
        <ele>300.969</ele>
        <time>2021-02-05T22:21:31Z</time>
      </trkpt>
      <trkpt lat="43.10879" lon="1.60192">
        <ele>297.595</ele>
        <time>2021-02-05T22:21:51Z</time>
      </trkpt>
      <trkpt lat="43.10854" lon="1.6023">
        <ele>294.591</ele>
        <time>2021-02-05T22:22:11Z</time>
      </trkpt>
      <trkpt lat="43.10836" lon="1.60274">
        <ele>290.322</ele>
        <time>2021-02-05T22:22:31Z</time>
      </trkpt>
      <trkpt lat="43.10781" lon="1.60296">
        <ele>290.584</ele>
        <time>2021-02-05T22:22:51Z</time>
      </trkpt>
      <trkpt lat="43.1072" lon="1.60333">
        <ele>289.647</ele>
        <time>2021-02-05T22:23:11Z</time>
      </trkpt>
      <trkpt lat="43.10597" lon="1.60366">
        <ele>297.649</ele>
        <time>2019-12-09T09:36:21Z</time>
      </trkpt>
      <trkpt lat="43.10567" lon="1.60443">
        <ele>298.737</ele>
        <time>2019-12-09T09:36:41Z</time>
      </trkpt>
      <trkpt lat="43.10534" lon="1.60491">
        <ele>299.649</ele>
        <time>2019-12-09T09:37:01Z</time>
      </trkpt>
      <trkpt lat="43.10528" lon="1.60594">
        <ele>291.013</ele>
        <time>2019-12-09T09:37:21Z</time>
      </trkpt>
      <trkpt lat="43.10501" lon="1.60694">
        <ele>288.208</ele>
        <time>2019-12-09T09:37:41Z</time>
      </trkpt>
      <trkpt lat="43.10493" lon="1.60776">
        <ele>292.039</ele>
        <time>2019-12-09T09:38:01Z</time>
      </trkpt>
      <trkpt lat="43.10487" lon="1.60853">
        <ele>292.378</ele>
        <time>2019-12-09T09:38:21Z</time>
      </trkpt>
      <trkpt lat="43.10501" lon="1.61074">
        <ele>293.024</ele>
        <time>2019-12-09T09:38:41Z</time>
      </trkpt>
      <trkpt lat="43.10488" lon="1.61113">
        <ele>292.76</ele>
        <time>2019-12-09T09:39:01Z</time>
      </trkpt>
      <trkpt lat="43.10485" lon="1.61273">
        <ele>293.491</ele>
        <time>2019-12-09T09:39:21Z</time>
      </trkpt>
      <trkpt lat="43.10434" lon="1.61318">
        <ele>292.333</ele>
        <time>2019-12-09T09:39:41Z</time>
      </trkpt>
      <trkpt lat="43.10398" lon="1.6138">
        <ele>291.296</ele>
        <time>2019-12-09T09:40:01Z</time>
      </trkpt>
      <trkpt lat="43.10353" lon="1.61316">
        <ele>291.058</ele>
        <time>2019-12-09T09:40:21Z</time>
      </trkpt>
      <trkpt lat="43.10292" lon="1.61244">
        <ele>291.025</ele>
        <time>2019-12-09T09:40:41Z</time>
      </trkpt>
      <trkpt lat="43.10068" lon="1.61072">
        <ele>308.126</ele>
        <time>2019-12-09T09:41:01Z</time>
      </trkpt>
      <trkpt lat="43.10037" lon="1.61056">
        <ele>315.608</ele>
        <time>2019-12-09T09:41:21Z</time>
      </trkpt>
      <trkpt lat="43.10013" lon="1.61014">
        <ele>330.508</ele>
        <time>2021-02-05T22:28:51Z</time>
      </trkpt>
      <trkpt lat="43.0989" lon="1.60626">
        <ele>403.638</ele>
        <time>2021-02-05T22:29:11Z</time>
      </trkpt>
      <trkpt lat="43.09736" lon="1.60659">
        <ele>423.657</ele>
        <time>2021-02-05T22:29:31Z</time>
      </trkpt>
      <trkpt lat="43.09609" lon="1.60797">
        <ele>428.233</ele>
        <time>2021-02-05T22:29:51Z</time>
      </trkpt>
      <trkpt lat="43.09577" lon="1.60803">
        <ele>426.869</ele>
        <time>2021-02-05T22:30:11Z</time>
      </trkpt>
      <trkpt lat="43.09515" lon="1.60736">
        <ele>435.46</ele>
        <time>2021-02-05T22:30:31Z</time>
      </trkpt>
      <trkpt lat="43.09517" lon="1.60711">
        <ele>440.842</ele>
        <time>2021-02-05T22:30:51Z</time>
      </trkpt>
      <trkpt lat="43.09546" lon="1.60703">
        <ele>443.755</ele>
        <time>2021-02-05T22:31:11Z</time>
      </trkpt>
      <trkpt lat="43.09587" lon="1.60713">
        <ele>443.537</ele>
        <time>2021-02-05T22:31:31Z</time>
      </trkpt>
      <trkpt lat="43.09605" lon="1.60695">
        <ele>444.138</ele>
        <time>2021-02-05T22:31:51Z</time>
      </trkpt>
      <trkpt lat="43.09591" lon="1.60667">
        <ele>449.67</ele>
        <time>2019-12-09T09:50:21Z</time>
      </trkpt>
      <trkpt lat="43.09561" lon="1.60665">
        <ele>450.317</ele>
        <time>2019-12-09T09:50:41Z</time>
      </trkpt>
      <trkpt lat="43.09536" lon="1.60645">
        <ele>450.308</ele>
        <time>2019-12-09T09:51:01Z</time>
      </trkpt>
      <trkpt lat="43.0949" lon="1.60635">
        <ele>448.139</ele>
        <time>2019-12-09T09:51:21Z</time>
      </trkpt>
      <trkpt lat="43.0946" lon="1.60587">
        <ele>448.638</ele>
        <time>2019-12-09T09:51:41Z</time>
      </trkpt>
      <trkpt lat="43.09398" lon="1.60529">
        <ele>449.294</ele>
        <time>2019-12-09T09:52:01Z</time>
      </trkpt>
      <trkpt lat="43.09389" lon="1.60457">
        <ele>451.53</ele>
        <time>2019-12-09T09:52:21Z</time>
      </trkpt>
      <trkpt lat="43.09366" lon="1.60409">
        <ele>452.311</ele>
        <time>2019-12-09T09:52:41Z</time>
      </trkpt>
      <trkpt lat="43.09248" lon="1.60347">
        <ele>444.563</ele>
        <time>2019-12-09T09:53:01Z</time>
      </trkpt>
      <trkpt lat="43.09164" lon="1.60263">
        <ele>442.476</ele>
        <time>2019-12-09T09:53:21Z</time>
      </trkpt>
      <trkpt lat="43.09071" lon="1.60223">
        <ele>441.448</ele>
        <time>2019-12-09T09:53:41Z</time>
      </trkpt>
      <trkpt lat="43.09033" lon="1.60181">
        <ele>441.347</ele>
        <time>2019-12-09T09:54:01Z</time>
      </trkpt>
      <trkpt lat="43.09003" lon="1.60115">
        <ele>446.729</ele>
        <time>2019-12-09T09:54:21Z</time>
      </trkpt>
      <trkpt lat="43.09002" lon="1.60027">
        <ele>451.721</ele>
        <time>2019-12-09T09:54:41Z</time>
      </trkpt>
      <trkpt lat="43.0899" lon="1.59971">
        <ele>458.608</ele>
        <time>2019-12-09T09:55:01Z</time>
      </trkpt>
      <trkpt lat="43.08929" lon="1.59991">
        <ele>461.78</ele>
        <time>2019-12-09T09:55:21Z</time>
      </trkpt>
      <trkpt lat="43.08875" lon="1.59989">
        <ele>461.059</ele>
        <time>2019-12-09T09:55:41Z</time>
      </trkpt>
      <trkpt lat="43.08781" lon="1.59935">
        <ele>464.195</ele>
        <time>2019-12-09T09:56:01Z</time>
      </trkpt>
      <trkpt lat="43.08711" lon="1.59949">
        <ele>466.671</ele>
        <time>2019-12-09T09:56:21Z</time>
      </trkpt>
      <trkpt lat="43.08623" lon="1.59941">
        <ele>467.682</ele>
        <time>2019-12-09T09:56:41Z</time>
      </trkpt>
      <trkpt lat="43.08666" lon="1.59901">
        <ele>470.874</ele>
        <time>2019-12-09T09:57:01Z</time>
      </trkpt>
      <trkpt lat="43.08691" lon="1.59516">
        <ele>457.457</ele>
        <time>2019-12-09T09:57:21Z</time>
      </trkpt>
      <trkpt lat="43.08664" lon="1.5941">
        <ele>448.119</ele>
        <time>2019-12-09T09:57:41Z</time>
      </trkpt>
      <trkpt lat="43.08636" lon="1.59378">
        <ele>443.054</ele>
        <time>2019-12-09T09:58:01Z</time>
      </trkpt>
      <trkpt lat="43.08622" lon="1.59288">
        <ele>437.356</ele>
        <time>2019-12-09T09:58:21Z</time>
      </trkpt>
      <trkpt lat="43.08626" lon="1.59198">
        <ele>432.011</ele>
        <time>2019-12-09T09:58:41Z</time>
      </trkpt>
      <trkpt lat="43.08663" lon="1.5908">
        <ele>427.108</ele>
        <time>2019-12-09T09:59:01Z</time>
      </trkpt>
      <trkpt lat="43.08666" lon="1.58992">
        <ele>424.361</ele>
        <time>2019-12-09T09:59:21Z</time>
      </trkpt>
      <trkpt lat="43.08748" lon="1.58711">
        <ele>410.22</ele>
        <time>2019-12-09T09:59:41Z</time>
      </trkpt>
      <trkpt lat="43.08753" lon="1.58639">
        <ele>406.936</ele>
        <time>2019-12-09T10:00:01Z</time>
      </trkpt>
      <trkpt lat="43.08784" lon="1.58557">
        <ele>405.632</ele>
        <time>2019-12-09T10:00:21Z</time>
      </trkpt>
      <trkpt lat="43.08805" lon="1.58467">
        <ele>407.973</ele>
        <time>2019-12-09T10:00:41Z</time>
      </trkpt>
      <trkpt lat="43.08835" lon="1.58385">
        <ele>406.595</ele>
        <time>2019-12-09T10:01:01Z</time>
      </trkpt>
      <trkpt lat="43.08859" lon="1.58261">
        <ele>404.458</ele>
        <time>2019-12-09T10:01:21Z</time>
      </trkpt>
      <trkpt lat="43.08952" lon="1.58173">
        <ele>401.46</ele>
        <time>2019-12-09T10:01:41Z</time>
      </trkpt>
      <trkpt lat="43.09006" lon="1.58019">
        <ele>404.328</ele>
        <time>2019-12-09T10:02:01Z</time>
      </trkpt>
      <trkpt lat="43.09015" lon="1.57969">
        <ele>404.189</ele>
        <time>2019-12-09T10:02:21Z</time>
      </trkpt>
      <trkpt lat="43.09033" lon="1.57776">
        <ele>395.717</ele>
        <time>2019-12-09T10:02:41Z</time>
      </trkpt>
      <trkpt lat="43.09101" lon="1.5762">
        <ele>395.808</ele>
        <time>2019-12-09T10:03:01Z</time>
      </trkpt>
      <trkpt lat="43.09103" lon="1.5754">
        <ele>391.648</ele>
        <time>2019-12-09T10:03:21Z</time>
      </trkpt>
      <trkpt lat="43.09096" lon="1.57478">
        <ele>388.227</ele>
        <time>2019-12-09T10:03:41Z</time>
      </trkpt>
      <trkpt lat="43.09112" lon="1.57282">
        <ele>385.963</ele>
        <time>2019-12-09T10:04:01Z</time>
      </trkpt>
      <trkpt lat="43.09103" lon="1.57256">
        <ele>386.089</ele>
        <time>2019-12-09T10:04:21Z</time>
      </trkpt>
      <trkpt lat="43.09125" lon="1.5712">
        <ele>386.29</ele>
        <time>2019-12-09T10:04:41Z</time>
      </trkpt>
      <trkpt lat="43.09112" lon="1.56894">
        <ele>376.992</ele>
        <time>2019-12-09T10:05:01Z</time>
      </trkpt>
      <trkpt lat="43.09088" lon="1.56789">
        <ele>374.765</ele>
        <time>2019-12-09T10:05:21Z</time>
      </trkpt>
      <trkpt lat="43.09066" lon="1.56657">
        <ele>366.257</ele>
        <time>2019-12-09T10:05:41Z</time>
      </trkpt>
      <trkpt lat="43.09103" lon="1.56537">
        <ele>356.398</ele>
        <time>2019-12-09T10:06:01Z</time>
      </trkpt>
      <trkpt lat="43.09163" lon="1.56525">
        <ele>355.615</ele>
        <time>2019-12-09T10:06:21Z</time>
      </trkpt>
      <trkpt lat="43.09177" lon="1.56463">
        <ele>348.226</ele>
        <time>2019-12-09T10:06:41Z</time>
      </trkpt>
      <trkpt lat="43.09237" lon="1.56375">
        <ele>340.808</ele>
        <time>2019-12-09T10:07:01Z</time>
      </trkpt>
      <trkpt lat="43.09349" lon="1.56323">
        <ele>328.285</ele>
        <time>2019-12-09T10:07:21Z</time>
      </trkpt>
      <trkpt lat="43.09392" lon="1.56269">
        <ele>322.824</ele>
        <time>2019-12-09T10:07:41Z</time>
      </trkpt>
      <trkpt lat="43.09473" lon="1.56211">
        <ele>313.76</ele>
        <time>2019-12-09T10:08:01Z</time>
      </trkpt>
      <trkpt lat="43.09527" lon="1.56239">
        <ele>313.446</ele>
        <time>2019-12-09T10:08:21Z</time>
      </trkpt>
      <trkpt lat="43.09534" lon="1.56223">
        <ele>312.997</ele>
        <time>2019-12-09T10:08:41Z</time>
      </trkpt>
      <trkpt lat="43.09547" lon="1.56117">
        <ele>309.189</ele>
        <time>2019-12-09T10:09:01Z</time>
      </trkpt>
      <trkpt lat="43.09582" lon="1.56041">
        <ele>308.062</ele>
        <time>2019-12-09T10:09:21Z</time>
      </trkpt>
      <trkpt lat="43.09571" lon="1.56007">
        <ele>308.094</ele>
        <time>2019-12-09T10:09:41Z</time>
      </trkpt>
      <trkpt lat="43.09574" lon="1.55886">
        <ele>306.955</ele>
        <time>2019-12-09T10:10:01Z</time>
      </trkpt>
      <trkpt lat="43.0955" lon="1.55738">
        <ele>308.507</ele>
        <time>2019-12-09T10:10:21Z</time>
      </trkpt>
      <trkpt lat="43.0952" lon="1.55638">
        <ele>312.317</ele>
        <time>2019-12-09T10:10:41Z</time>
      </trkpt>
      <trkpt lat="43.0947" lon="1.55578">
        <ele>316.608</ele>
        <time>2019-12-09T10:11:01Z</time>
      </trkpt>
      <trkpt lat="43.09322" lon="1.55232">
        <ele>330.341</ele>
        <time>2019-12-09T10:11:21Z</time>
      </trkpt>
      <trkpt lat="43.09028" lon="1.55356">
        <ele>327.88</ele>
        <time>2019-12-09T10:11:41Z</time>
      </trkpt>
      <trkpt lat="43.08898" lon="1.55208">
        <ele>331.896</ele>
        <time>2019-12-09T10:12:01Z</time>
      </trkpt>
      <trkpt lat="43.08661" lon="1.54917">
        <ele>337.492</ele>
        <time>2019-12-09T10:12:21Z</time>
      </trkpt>
      <trkpt lat="43.0848" lon="1.54727">
        <ele>338.893</ele>
        <time>2019-12-09T10:12:41Z</time>
      </trkpt>
      <trkpt lat="43.08408" lon="1.54615">
        <ele>341.475</ele>
        <time>2019-12-09T10:13:01Z</time>
      </trkpt>
      <trkpt lat="43.08338" lon="1.54431">
        <ele>344.578</ele>
        <time>2019-12-09T10:13:21Z</time>
      </trkpt>
      <trkpt lat="43.08316" lon="1.54339">
        <ele>347.02</ele>
        <time>2019-12-09T10:13:41Z</time>
      </trkpt>
      <trkpt lat="43.08275" lon="1.54279">
        <ele>348.697</ele>
        <time>2019-12-09T10:14:01Z</time>
      </trkpt>
      <trkpt lat="43.08196" lon="1.54081">
        <ele>357.123</ele>
        <time>2019-12-09T10:14:21Z</time>
      </trkpt>
      <trkpt lat="43.08224" lon="1.54023">
        <ele>359.125</ele>
        <time>2019-12-09T10:14:41Z</time>
      </trkpt>
      <trkpt lat="43.08217" lon="1.53968">
        <ele>363.508</ele>
        <time>2019-12-09T10:15:01Z</time>
      </trkpt>
      <trkpt lat="43.0816" lon="1.53942">
        <ele>362.655</ele>
        <time>2019-12-09T10:15:21Z</time>
      </trkpt>
      <trkpt lat="43.08084" lon="1.53852">
        <ele>371.524</ele>
        <time>2019-12-09T10:15:41Z</time>
      </trkpt>
      <trkpt lat="43.07996" lon="1.53774">
        <ele>374.74</ele>
        <time>2019-12-09T10:16:01Z</time>
      </trkpt>
      <trkpt lat="43.07977" lon="1.53724">
        <ele>380.826</ele>
        <time>2019-12-09T10:16:21Z</time>
      </trkpt>
      <trkpt lat="43.07949" lon="1.53606">
        <ele>388.697</ele>
        <time>2019-12-09T10:16:41Z</time>
      </trkpt>
      <trkpt lat="43.07901" lon="1.53494">
        <ele>398.739</ele>
        <time>2019-12-09T10:17:01Z</time>
      </trkpt>
      <trkpt lat="43.07844" lon="1.53414">
        <ele>407.872</ele>
        <time>2019-12-09T10:17:21Z</time>
      </trkpt>
      <trkpt lat="43.07781" lon="1.53326">
        <ele>419.454</ele>
        <time>2019-12-09T10:17:41Z</time>
      </trkpt>
      <trkpt lat="43.07793" lon="1.53314">
        <ele>420.632</ele>
        <time>2019-12-09T10:18:01Z</time>
      </trkpt>
      <trkpt lat="43.07834" lon="1.53332">
        <ele>418.792</ele>
        <time>2019-12-09T10:18:21Z</time>
      </trkpt>
      <trkpt lat="43.07873" lon="1.5338">
        <ele>416.011</ele>
        <time>2019-12-09T10:18:41Z</time>
      </trkpt>
      <trkpt lat="43.07945" lon="1.53424">
        <ele>414.508</ele>
        <time>2019-12-09T10:19:01Z</time>
      </trkpt>
      <trkpt lat="43.07987" lon="1.53434">
        <ele>417.949</ele>
        <time>2019-12-09T10:19:21Z</time>
      </trkpt>
      <trkpt lat="43.08014" lon="1.5347">
        <ele>416.118</ele>
        <time>2019-12-09T10:19:41Z</time>
      </trkpt>
      <trkpt lat="43.08025" lon="1.53454">
        <ele>417.464</ele>
        <time>2019-12-09T10:20:01Z</time>
      </trkpt>
      <trkpt lat="43.07873" lon="1.5323">
        <ele>437.78</ele>
        <time>2019-12-09T10:20:21Z</time>
      </trkpt>
      <trkpt lat="43.07873" lon="1.53174">
        <ele>440.311</ele>
        <time>2019-12-09T10:20:41Z</time>
      </trkpt>
      <trkpt lat="43.07902" lon="1.5311">
        <ele>446.273</ele>
        <time>2019-12-09T10:21:01Z</time>
      </trkpt>
      <trkpt lat="43.07888" lon="1.53019">
        <ele>453.516</ele>
        <time>2019-12-09T10:21:21Z</time>
      </trkpt>
      <trkpt lat="43.07892" lon="1.52949">
        <ele>456.878</ele>
        <time>2019-12-09T10:21:41Z</time>
      </trkpt>
      <trkpt lat="43.07885" lon="1.52875">
        <ele>460.051</ele>
        <time>2019-12-09T10:22:01Z</time>
      </trkpt>
      <trkpt lat="43.07905" lon="1.52809">
        <ele>460.401</ele>
        <time>2019-12-09T10:22:21Z</time>
      </trkpt>
      <trkpt lat="43.07891" lon="1.52793">
        <ele>460.711</ele>
        <time>2019-12-09T10:22:41Z</time>
      </trkpt>
      <trkpt lat="43.07841" lon="1.52867">
        <ele>462.108</ele>
        <time>2019-12-09T10:23:01Z</time>
      </trkpt>
      <trkpt lat="43.07818" lon="1.52951">
        <ele>464.551</ele>
        <time>2019-12-09T10:23:21Z</time>
      </trkpt>
      <trkpt lat="43.07791" lon="1.52955">
        <ele>464.35</ele>
        <time>2019-12-09T10:23:41Z</time>
      </trkpt>
      <trkpt lat="43.07752" lon="1.52883">
        <ele>469.296</ele>
        <time>2019-12-09T10:24:01Z</time>
      </trkpt>
      <trkpt lat="43.07695" lon="1.52845">
        <ele>471.882</ele>
        <time>2019-12-09T10:24:21Z</time>
      </trkpt>
      <trkpt lat="43.07645" lon="1.52765">
        <ele>480.473</ele>
        <time>2019-12-09T10:24:41Z</time>
      </trkpt>
      <trkpt lat="43.07587" lon="1.52745">
        <ele>485.445</ele>
        <time>2019-12-09T10:25:01Z</time>
      </trkpt>
      <trkpt lat="43.07544" lon="1.52717">
        <ele>490.428</ele>
        <time>2019-12-09T10:25:21Z</time>
      </trkpt>
      <trkpt lat="43.07448" lon="1.52737">
        <ele>485.28</ele>
        <time>2019-12-09T10:25:41Z</time>
      </trkpt>
      <trkpt lat="43.07448" lon="1.52721">
        <ele>486.453</ele>
        <time>2019-12-09T10:26:01Z</time>
      </trkpt>
      <trkpt lat="43.07489" lon="1.52699">
        <ele>490.204</ele>
        <time>2019-12-09T10:26:21Z</time>
      </trkpt>
      <trkpt lat="43.07532" lon="1.52651">
        <ele>499.314</ele>
        <time>2019-12-09T10:26:41Z</time>
      </trkpt>
      <trkpt lat="43.07549" lon="1.52581">
        <ele>504.708</ele>
        <time>2019-12-09T10:27:01Z</time>
      </trkpt>
      <trkpt lat="43.07534" lon="1.52573">
        <ele>505.621</ele>
        <time>2019-12-09T10:27:21Z</time>
      </trkpt>
      <trkpt lat="43.07505" lon="1.52615">
        <ele>502.24</ele>
        <time>2019-12-09T10:27:41Z</time>
      </trkpt>
      <trkpt lat="43.07473" lon="1.52631">
        <ele>500.016</ele>
        <time>2019-12-09T10:28:01Z</time>
      </trkpt>
      <trkpt lat="43.0744" lon="1.52583">
        <ele>506.822</ele>
        <time>2019-12-09T10:28:21Z</time>
      </trkpt>
      <trkpt lat="43.07395" lon="1.52537">
        <ele>504.483</ele>
        <time>2019-12-09T10:28:41Z</time>
      </trkpt>
      <trkpt lat="43.07367" lon="1.52453">
        <ele>514.265</ele>
        <time>2019-12-09T10:29:01Z</time>
      </trkpt>
      <trkpt lat="43.07364" lon="1.52391">
        <ele>520.628</ele>
        <time>2019-12-09T10:29:21Z</time>
      </trkpt>
      <trkpt lat="43.07354" lon="1.52301">
        <ele>528.39</ele>
        <time>2019-12-09T10:29:41Z</time>
      </trkpt>
      <trkpt lat="43.07377" lon="1.52187">
        <ele>532.443</ele>
        <time>2019-12-09T10:30:01Z</time>
      </trkpt>
      <trkpt lat="43.07348" lon="1.52046">
        <ele>533.864</ele>
        <time>2019-12-09T10:30:21Z</time>
      </trkpt>
      <trkpt lat="43.07373" lon="1.5189">
        <ele>531.81</ele>
        <time>2019-12-09T10:30:41Z</time>
      </trkpt>
      <trkpt lat="43.07358" lon="1.51888">
        <ele>530.808</ele>
        <time>2019-12-09T10:31:01Z</time>
      </trkpt>
      <trkpt lat="43.07336" lon="1.51918">
        <ele>529.64</ele>
        <time>2019-12-09T10:31:21Z</time>
      </trkpt>
      <trkpt lat="43.07285" lon="1.51966">
        <ele>526.079</ele>
        <time>2019-12-09T10:31:41Z</time>
      </trkpt>
      <trkpt lat="43.07279" lon="1.51954">
        <ele>525.415</ele>
        <time>2019-12-09T10:32:01Z</time>
      </trkpt>
      <trkpt lat="43.073" lon="1.51904">
        <ele>522.551</ele>
        <time>2019-12-09T10:32:21Z</time>
      </trkpt>
      <trkpt lat="43.07331" lon="1.51656">
        <ele>508.422</ele>
        <time>2019-12-09T10:32:41Z</time>
      </trkpt>
      <trkpt lat="43.07306" lon="1.51454">
        <ele>502.434</ele>
        <time>2019-12-09T10:33:01Z</time>
      </trkpt>
      <trkpt lat="43.07274" lon="1.51118">
        <ele>491.987</ele>
        <time>2019-12-09T10:33:21Z</time>
      </trkpt>
      <trkpt lat="43.07237" lon="1.51069">
        <ele>501.629</ele>
        <time>2019-12-09T10:33:41Z</time>
      </trkpt>
      <trkpt lat="43.07247" lon="1.50851">
        <ele>495.722</ele>
        <time>2019-12-09T10:34:01Z</time>
      </trkpt>
      <trkpt lat="43.07239" lon="1.50827">
        <ele>492.962</ele>
        <time>2019-12-09T10:34:21Z</time>
      </trkpt>
      <trkpt lat="43.0719" lon="1.50799">
        <ele>496.908</ele>
        <time>2019-12-09T10:34:41Z</time>
      </trkpt>
      <trkpt lat="43.07152" lon="1.50757">
        <ele>500.008</ele>
        <time>2019-12-09T10:35:01Z</time>
      </trkpt>
      <trkpt lat="43.07111" lon="1.50741">
        <ele>495.488</ele>
        <time>2019-12-09T10:35:21Z</time>
      </trkpt>
      <trkpt lat="43.071" lon="1.50641">
        <ele>493.247</ele>
        <time>2019-12-09T10:35:41Z</time>
      </trkpt>
      <trkpt lat="43.07083" lon="1.50719">
        <ele>494.013</ele>
        <time>2019-12-09T10:36:01Z</time>
      </trkpt>
      <trkpt lat="43.07009" lon="1.50743">
        <ele>475.529</ele>
        <time>2019-12-09T10:36:21Z</time>
      </trkpt>
      <trkpt lat="43.06942" lon="1.50785">
        <ele>476.48</ele>
        <time>2019-12-09T10:36:41Z</time>
      </trkpt>
      <trkpt lat="43.06899" lon="1.50749">
        <ele>452.122</ele>
        <time>2019-12-09T10:37:01Z</time>
      </trkpt>
      <trkpt lat="43.06819" lon="1.50747">
        <ele>445.755</ele>
        <time>2019-12-09T10:37:21Z</time>
      </trkpt>
      <trkpt lat="43.06788" lon="1.50721">
        <ele>439.787</ele>
        <time>2019-12-09T10:37:41Z</time>
      </trkpt>
      <trkpt lat="43.06791" lon="1.50663">
        <ele>430.127</ele>
        <time>2019-12-09T10:38:01Z</time>
      </trkpt>
      <trkpt lat="43.06807" lon="1.50635">
        <ele>429.668</ele>
        <time>2019-12-09T10:38:21Z</time>
      </trkpt>
      <trkpt lat="43.06826" lon="1.50631">
        <ele>430.114</ele>
        <time>2019-12-09T10:38:41Z</time>
      </trkpt>
      <trkpt lat="43.06851" lon="1.50681">
        <ele>442.908</ele>
        <time>2019-12-09T10:39:01Z</time>
      </trkpt>
      <trkpt lat="43.06911" lon="1.50663">
        <ele>435.238</ele>
        <time>2019-12-09T10:39:21Z</time>
      </trkpt>
      <trkpt lat="43.06931" lon="1.50635">
        <ele>439.497</ele>
        <time>2019-12-09T10:39:41Z</time>
      </trkpt>
      <trkpt lat="43.06933" lon="1.50599">
        <ele>436.773</ele>
        <time>2019-12-09T10:40:01Z</time>
      </trkpt>
      <trkpt lat="43.06849" lon="1.50463">
        <ele>417.139</ele>
        <time>2019-12-09T10:40:21Z</time>
      </trkpt>
      <trkpt lat="43.06861" lon="1.50395">
        <ele>416.37</ele>
        <time>2019-12-09T10:40:41Z</time>
      </trkpt>
      <trkpt lat="43.06804" lon="1.50303">
        <ele>404.792</ele>
        <time>2019-12-09T10:41:01Z</time>
      </trkpt>
      <trkpt lat="43.06773" lon="1.50219">
        <ele>400.215</ele>
        <time>2019-12-09T10:41:21Z</time>
      </trkpt>
      <trkpt lat="43.06735" lon="1.50187">
        <ele>392.257</ele>
        <time>2019-12-09T10:41:41Z</time>
      </trkpt>
      <trkpt lat="43.06857" lon="1.49924">
        <ele>382.166</ele>
        <time>2019-12-09T10:42:01Z</time>
      </trkpt>
      <trkpt lat="43.06895" lon="1.49798">
        <ele>375.929</ele>
        <time>2019-12-09T10:42:21Z</time>
      </trkpt>
      <trkpt lat="43.06904" lon="1.4955">
        <ele>365.521</ele>
        <time>2019-12-09T10:42:41Z</time>
      </trkpt>
      <trkpt lat="43.06901" lon="1.49508">
        <ele>365.808</ele>
        <time>2019-12-09T10:43:01Z</time>
      </trkpt>
      <trkpt lat="43.06911" lon="1.49466">
        <ele>361.792</ele>
        <time>2019-12-09T10:43:21Z</time>
      </trkpt>
      <trkpt lat="43.06926" lon="1.4935">
        <ele>355.521</ele>
        <time>2019-12-09T10:43:41Z</time>
      </trkpt>
      <trkpt lat="43.06945" lon="1.4931">
        <ele>349.427</ele>
        <time>2019-12-09T10:44:01Z</time>
      </trkpt>
      <trkpt lat="43.06887" lon="1.49212">
        <ele>341.023</ele>
        <time>2019-12-09T10:44:21Z</time>
      </trkpt>
      <trkpt lat="43.06983" lon="1.49027">
        <ele>337.034</ele>
        <time>2019-12-09T10:44:41Z</time>
      </trkpt>
      <trkpt lat="43.07019" lon="1.49003">
        <ele>340.016</ele>
        <time>2019-12-09T10:45:01Z</time>
      </trkpt>
      <trkpt lat="43.07025" lon="1.48933">
        <ele>336.359</ele>
        <time>2019-12-09T10:45:21Z</time>
      </trkpt>
      <trkpt lat="43.07045" lon="1.48937">
        <ele>336.821</ele>
        <time>2019-12-09T10:45:41Z</time>
      </trkpt>
      <trkpt lat="43.07066" lon="1.49041">
        <ele>342.632</ele>
        <time>2019-12-09T10:46:01Z</time>
      </trkpt>
      <trkpt lat="43.0712" lon="1.49133">
        <ele>352.492</ele>
        <time>2019-12-09T10:46:21Z</time>
      </trkpt>
      <trkpt lat="43.07183" lon="1.49196">
        <ele>367.611</ele>
        <time>2019-12-09T10:46:41Z</time>
      </trkpt>
      <trkpt lat="43.07176" lon="1.49246">
        <ele>368.308</ele>
        <time>2019-12-09T10:47:01Z</time>
      </trkpt>
      <trkpt lat="43.07193" lon="1.49382">
        <ele>382.289</ele>
        <time>2019-12-09T10:47:21Z</time>
      </trkpt>
      <trkpt lat="43.072" lon="1.49544">
        <ele>401.238</ele>
        <time>2019-12-09T10:47:41Z</time>
      </trkpt>
      <trkpt lat="43.072" lon="1.49694">
        <ele>420.884</ele>
        <time>2019-12-09T10:48:01Z</time>
      </trkpt>
      <trkpt lat="43.07214" lon="1.4973">
        <ele>423.57</ele>
        <time>2019-12-09T10:48:21Z</time>
      </trkpt>
      <trkpt lat="43.07241" lon="1.49738">
        <ele>427.041</ele>
        <time>2019-12-09T10:48:41Z</time>
      </trkpt>
      <trkpt lat="43.07277" lon="1.49698">
        <ele>431.893</ele>
        <time>2019-12-09T10:49:01Z</time>
      </trkpt>
      <trkpt lat="43.07312" lon="1.49642">
        <ele>426.166</ele>
        <time>2019-12-09T10:49:21Z</time>
      </trkpt>
      <trkpt lat="43.07376" lon="1.4959">
        <ele>440.398</ele>
        <time>2019-12-09T10:49:41Z</time>
      </trkpt>
      <trkpt lat="43.07401" lon="1.49532">
        <ele>436.395</ele>
        <time>2019-12-09T10:50:01Z</time>
      </trkpt>
      <trkpt lat="43.07448" lon="1.49356">
        <ele>448.849</ele>
        <time>2019-12-09T10:50:21Z</time>
      </trkpt>
      <trkpt lat="43.07484" lon="1.49346">
        <ele>453.223</ele>
        <time>2019-12-09T10:50:41Z</time>
      </trkpt>
      <trkpt lat="43.07532" lon="1.49362">
        <ele>473.008</ele>
        <time>2019-12-09T10:51:01Z</time>
      </trkpt>
      <trkpt lat="43.07569" lon="1.49334">
        <ele>475.185</ele>
        <time>2019-12-09T10:51:21Z</time>
      </trkpt>
      <trkpt lat="43.07614" lon="1.49266">
        <ele>473.624</ele>
        <time>2019-12-09T10:51:41Z</time>
      </trkpt>
      <trkpt lat="43.07673" lon="1.4926">
        <ele>492.01</ele>
        <time>2019-12-09T10:52:01Z</time>
      </trkpt>
      <trkpt lat="43.07689" lon="1.49186">
        <ele>483.146</ele>
        <time>2019-12-09T10:52:21Z</time>
      </trkpt>
      <trkpt lat="43.07788" lon="1.49062">
        <ele>480.397</ele>
        <time>2019-12-09T10:52:41Z</time>
      </trkpt>
      <trkpt lat="43.078" lon="1.49061">
        <ele>481.989</ele>
        <time>2019-12-09T10:53:01Z</time>
      </trkpt>
      <trkpt lat="43.07855" lon="1.49099">
        <ele>512.282</ele>
        <time>2019-12-09T10:53:21Z</time>
      </trkpt>
      <trkpt lat="43.07891" lon="1.49091">
        <ele>518.664</ele>
        <time>2019-12-09T10:53:41Z</time>
      </trkpt>
      <trkpt lat="43.07913" lon="1.49001">
        <ele>510.639</ele>
        <time>2019-12-09T10:54:01Z</time>
      </trkpt>
      <trkpt lat="43.07918" lon="1.48947">
        <ele>512.901</ele>
        <time>2019-12-09T10:54:21Z</time>
      </trkpt>
      <trkpt lat="43.07931" lon="1.48894">
        <ele>504.321</ele>
        <time>2019-12-09T10:54:41Z</time>
      </trkpt>
      <trkpt lat="43.07947" lon="1.48896">
        <ele>504.408</ele>
        <time>2019-12-09T10:55:01Z</time>
      </trkpt>
      <trkpt lat="43.08007" lon="1.48921">
        <ele>515.369</ele>
        <time>2019-12-09T10:55:21Z</time>
      </trkpt>
      <trkpt lat="43.08045" lon="1.48921">
        <ele>513.698</ele>
        <time>2019-12-09T10:55:41Z</time>
      </trkpt>
      <trkpt lat="43.08099" lon="1.48905">
        <ele>501.924</ele>
        <time>2019-12-09T10:56:01Z</time>
      </trkpt>
      <trkpt lat="43.08112" lon="1.48916">
        <ele>500.65</ele>
        <time>2019-12-09T10:56:21Z</time>
      </trkpt>
      <trkpt lat="43.08141" lon="1.48879">
        <ele>498.181</ele>
        <time>2019-12-09T10:56:41Z</time>
      </trkpt>
      <trkpt lat="43.08189" lon="1.48847">
        <ele>494.693</ele>
        <time>2019-12-09T10:57:01Z</time>
      </trkpt>
      <trkpt lat="43.08197" lon="1.48817">
        <ele>495.546</ele>
        <time>2019-12-09T10:57:21Z</time>
      </trkpt>
      <trkpt lat="43.082" lon="1.48715">
        <ele>492.628</ele>
        <time>2019-12-09T10:57:41Z</time>
      </trkpt>
      <trkpt lat="43.0825" lon="1.48572">
        <ele>498.468</ele>
        <time>2019-12-09T10:58:01Z</time>
      </trkpt>
      <trkpt lat="43.08247" lon="1.48534">
        <ele>494.842</ele>
        <time>2019-12-09T10:58:21Z</time>
      </trkpt>
      <trkpt lat="43.08261" lon="1.48527">
        <ele>500.326</ele>
        <time>2019-12-09T10:58:41Z</time>
      </trkpt>
      <trkpt lat="43.08267" lon="1.48505">
        <ele>501.008</ele>
        <time>2019-12-09T10:59:01Z</time>
      </trkpt>
      <trkpt lat="43.08268" lon="1.48489">
        <ele>499.582</ele>
        <time>2019-12-09T10:59:21Z</time>
      </trkpt>
      <trkpt lat="43.08297" lon="1.48456">
        <ele>496.381</ele>
        <time>2019-12-09T10:59:41Z</time>
      </trkpt>
      <trkpt lat="43.0834" lon="1.48323">
        <ele>482.977</ele>
        <time>2019-12-09T11:00:01Z</time>
      </trkpt>
      <trkpt lat="43.08394" lon="1.48329">
        <ele>484.563</ele>
        <time>2019-12-09T11:00:21Z</time>
      </trkpt>
      <trkpt lat="43.08451" lon="1.48289">
        <ele>490.234</ele>
        <time>2019-12-09T11:00:41Z</time>
      </trkpt>
      <trkpt lat="43.08442" lon="1.48315">
        <ele>490.576</ele>
        <time>2019-12-09T11:01:01Z</time>
      </trkpt>
      <trkpt lat="43.08454" lon="1.48345">
        <ele>488.879</ele>
        <time>2019-12-09T11:01:21Z</time>
      </trkpt>
      <trkpt lat="43.08487" lon="1.48335">
        <ele>492.451</ele>
        <time>2019-12-09T11:01:41Z</time>
      </trkpt>
      <trkpt lat="43.08641" lon="1.48082">
        <ele>498.721</ele>
        <time>2019-12-09T11:02:01Z</time>
      </trkpt>
      <trkpt lat="43.08677" lon="1.48048">
        <ele>501.141</ele>
        <time>2019-12-09T11:02:21Z</time>
      </trkpt>
      <trkpt lat="43.0872" lon="1.4796">
        <ele>498.605</ele>
        <time>2019-12-09T11:02:41Z</time>
      </trkpt>
      <trkpt lat="43.08771" lon="1.47902">
        <ele>502.408</ele>
        <time>2019-12-09T11:03:01Z</time>
      </trkpt>
      <trkpt lat="43.08818" lon="1.47822">
        <ele>508.618</ele>
        <time>2019-12-09T11:03:21Z</time>
      </trkpt>
      <trkpt lat="43.08825" lon="1.47756">
        <ele>511.727</ele>
        <time>2019-12-09T11:03:41Z</time>
      </trkpt>
      <trkpt lat="43.08827" lon="1.4773">
        <ele>509.773</ele>
        <time>2019-12-09T11:04:01Z</time>
      </trkpt>
      <trkpt lat="43.08835" lon="1.47694">
        <ele>514.589</ele>
        <time>2019-12-09T11:04:21Z</time>
      </trkpt>
      <trkpt lat="43.08832" lon="1.47648">
        <ele>510.99</ele>
        <time>2019-12-09T11:04:41Z</time>
      </trkpt>
      <trkpt lat="43.08859" lon="1.47622">
        <ele>518.312</ele>
        <time>2019-12-09T11:05:01Z</time>
      </trkpt>
      <trkpt lat="43.08944" lon="1.47326">
        <ele>529.815</ele>
        <time>2019-12-09T11:05:21Z</time>
      </trkpt>
      <trkpt lat="43.09037" lon="1.46917">
        <ele>510.917</ele>
        <time>2019-12-09T11:05:41Z</time>
      </trkpt>
      <trkpt lat="43.09129" lon="1.46575">
        <ele>483.755</ele>
        <time>2019-12-09T11:06:01Z</time>
      </trkpt>
      <trkpt lat="43.09189" lon="1.46431">
        <ele>483.207</ele>
        <time>2019-12-09T11:06:21Z</time>
      </trkpt>
      <trkpt lat="43.09277" lon="1.46158">
        <ele>435.717</ele>
        <time>2019-12-09T11:06:41Z</time>
      </trkpt>
      <trkpt lat="43.0933" lon="1.4607">
        <ele>422.608</ele>
        <time>2019-12-09T11:07:01Z</time>
      </trkpt>
      <trkpt lat="43.09325" lon="1.46156">
        <ele>431.531</ele>
        <time>2019-12-09T11:07:21Z</time>
      </trkpt>
      <trkpt lat="43.09416" lon="1.46174">
        <ele>413.32</ele>
        <time>2019-12-09T11:07:41Z</time>
      </trkpt>
      <trkpt lat="43.09522" lon="1.46206">
        <ele>392.236</ele>
        <time>2019-12-09T11:08:01Z</time>
      </trkpt>
      <trkpt lat="43.09618" lon="1.46118">
        <ele>377.722</ele>
        <time>2019-12-09T11:08:21Z</time>
      </trkpt>
      <trkpt lat="43.09753" lon="1.4609">
        <ele>367.313</ele>
        <time>2019-12-09T11:08:41Z</time>
      </trkpt>
      <trkpt lat="43.09724" lon="1.45892">
        <ele>359.345</ele>
        <time>2019-12-09T11:09:01Z</time>
      </trkpt>
      <trkpt lat="43.09639" lon="1.45804">
        <ele>375.198</ele>
        <time>2019-12-09T11:09:21Z</time>
      </trkpt>
      <trkpt lat="43.09698" lon="1.45614">
        <ele>345.39</ele>
        <time>2019-12-09T11:09:41Z</time>
      </trkpt>
      <trkpt lat="43.09692" lon="1.45526">
        <ele>344.147</ele>
        <time>2019-12-09T11:10:01Z</time>
      </trkpt>
      <trkpt lat="43.09715" lon="1.45368">
        <ele>331.629</ele>
        <time>2019-12-09T11:10:21Z</time>
      </trkpt>
      <trkpt lat="43.09737" lon="1.45312">
        <ele>320.121</ele>
        <time>2019-12-09T11:10:41Z</time>
      </trkpt>
      <trkpt lat="43.09734" lon="1.45265">
        <ele>317.308</ele>
        <time>2019-12-09T11:11:01Z</time>
      </trkpt>
      <trkpt lat="43.0978" lon="1.45105">
        <ele>309.51</ele>
        <time>2019-12-09T11:11:21Z</time>
      </trkpt>
      <trkpt lat="43.09784" lon="1.45029">
        <ele>307.549</ele>
        <time>2019-12-09T11:11:41Z</time>
      </trkpt>
      <trkpt lat="43.098" lon="1.44949">
        <ele>307.385</ele>
        <time>2019-12-09T11:12:01Z</time>
      </trkpt>
      <trkpt lat="43.09818" lon="1.44903">
        <ele>307.691</ele>
        <time>2019-12-09T11:12:21Z</time>
      </trkpt>
      <trkpt lat="43.09818" lon="1.44859">
        <ele>306.622</ele>
        <time>2019-12-09T11:12:41Z</time>
      </trkpt>
      <trkpt lat="43.09838" lon="1.44787">
        <ele>305.234</ele>
        <time>2019-12-09T11:13:01Z</time>
      </trkpt>
      <trkpt lat="43.09865" lon="1.44753">
        <ele>304.467</ele>
        <time>2019-12-09T11:13:21Z</time>
      </trkpt>
      <trkpt lat="43.09907" lon="1.44607">
        <ele>295.999</ele>
        <time>2019-12-09T11:13:41Z</time>
      </trkpt>
      <trkpt lat="43.09894" lon="1.44597">
        <ele>295.823</ele>
        <time>2019-12-09T11:14:01Z</time>
      </trkpt>
      <trkpt lat="43.09914" lon="1.44479">
        <ele>298.783</ele>
        <time>2019-12-09T11:14:21Z</time>
      </trkpt>
      <trkpt lat="43.09849" lon="1.44485">
        <ele>300.011</ele>
        <time>2019-12-09T11:14:41Z</time>
      </trkpt>
      <trkpt lat="43.0981" lon="1.44533">
        <ele>306.208</ele>
        <time>2019-12-09T11:15:01Z</time>
      </trkpt>
      <trkpt lat="43.09714" lon="1.44533">
        <ele>328.138</ele>
        <time>2019-12-09T11:15:21Z</time>
      </trkpt>
      <trkpt lat="43.09733" lon="1.44577">
        <ele>322.627</ele>
        <time>2019-12-09T11:15:41Z</time>
      </trkpt>
      <trkpt lat="43.09702" lon="1.44637">
        <ele>328.123</ele>
        <time>2019-12-09T11:16:01Z</time>
      </trkpt>
      <trkpt lat="43.09686" lon="1.44605">
        <ele>331.999</ele>
        <time>2019-12-09T11:16:21Z</time>
      </trkpt>
      <trkpt lat="43.09653" lon="1.44593">
        <ele>346.76</ele>
        <time>2019-12-09T11:16:41Z</time>
      </trkpt>
      <trkpt lat="43.09656" lon="1.44615">
        <ele>348.522</ele>
        <time>2019-12-09T11:17:01Z</time>
      </trkpt>
      <trkpt lat="43.09596" lon="1.44669">
        <ele>361.575</ele>
        <time>2019-12-09T11:17:21Z</time>
      </trkpt>
      <trkpt lat="43.09544" lon="1.44709">
        <ele>374.777</ele>
        <time>2019-12-09T11:17:41Z</time>
      </trkpt>
      <trkpt lat="43.09479" lon="1.44701">
        <ele>385.212</ele>
        <time>2019-12-09T11:18:01Z</time>
      </trkpt>
      <trkpt lat="43.09389" lon="1.44753">
        <ele>397.632</ele>
        <time>2019-12-09T11:18:21Z</time>
      </trkpt>
      <trkpt lat="43.09325" lon="1.44795">
        <ele>406.905</ele>
        <time>2019-12-09T11:18:41Z</time>
      </trkpt>
      <trkpt lat="43.09277" lon="1.44807">
        <ele>410.508</ele>
        <time>2019-12-09T11:19:01Z</time>
      </trkpt>
      <trkpt lat="43.09236" lon="1.44803">
        <ele>423.377</ele>
        <time>2019-12-09T11:19:21Z</time>
      </trkpt>
      <trkpt lat="43.09196" lon="1.44817">
        <ele>427.176</ele>
        <time>2019-12-09T11:19:41Z</time>
      </trkpt>
      <trkpt lat="43.0915" lon="1.44815">
        <ele>441.212</ele>
        <time>2019-12-09T11:20:01Z</time>
      </trkpt>
      <trkpt lat="43.09109" lon="1.44845">
        <ele>434.468</ele>
        <time>2019-12-09T11:20:21Z</time>
      </trkpt>
      <trkpt lat="43.09058" lon="1.44899">
        <ele>438.339</ele>
        <time>2019-12-09T11:20:41Z</time>
      </trkpt>
      <trkpt lat="43.09017" lon="1.44919">
        <ele>432.541</ele>
        <time>2019-12-09T11:21:01Z</time>
      </trkpt>
      <trkpt lat="43.0897" lon="1.44957">
        <ele>439.954</ele>
        <time>2019-12-09T11:21:21Z</time>
      </trkpt>
      <trkpt lat="43.08901" lon="1.44981">
        <ele>445.166</ele>
        <time>2019-12-09T11:21:41Z</time>
      </trkpt>
      <trkpt lat="43.08851" lon="1.44995">
        <ele>442.727</ele>
        <time>2019-12-09T11:22:01Z</time>
      </trkpt>
      <trkpt lat="43.08813" lon="1.45023">
        <ele>441.668</ele>
        <time>2019-12-09T11:22:21Z</time>
      </trkpt>
      <trkpt lat="43.0872" lon="1.45125">
        <ele>438.214</ele>
        <time>2019-12-09T11:22:41Z</time>
      </trkpt>
      <trkpt lat="43.08666" lon="1.45201">
        <ele>439.208</ele>
        <time>2019-12-09T11:23:01Z</time>
      </trkpt>
      <trkpt lat="43.08605" lon="1.4524">
        <ele>440.828</ele>
        <time>2021-02-06T00:05:11Z</time>
      </trkpt>
      <trkpt lat="43.08539" lon="1.45199">
        <ele>444.297</ele>
        <time>2021-02-06T00:05:31Z</time>
      </trkpt>
      <trkpt lat="43.08536" lon="1.45179">
        <ele>444.243</ele>
        <time>2019-12-09T11:24:01Z</time>
      </trkpt>
      <trkpt lat="43.08599" lon="1.45074">
        <ele>426.759</ele>
        <time>2021-02-06T00:06:11Z</time>
      </trkpt>
      <trkpt lat="43.08553" lon="1.45066">
        <ele>428.68</ele>
        <time>2021-02-06T00:06:31Z</time>
      </trkpt>
      <trkpt lat="43.08452" lon="1.45172">
        <ele>454.182</ele>
        <time>2021-02-06T00:06:51Z</time>
      </trkpt>
      <trkpt lat="43.08432" lon="1.45101">
        <ele>449.765</ele>
        <time>2019-12-09T11:25:21Z</time>
      </trkpt>
      <trkpt lat="43.08403" lon="1.45085">
        <ele>452.787</ele>
        <time>2019-12-09T11:25:41Z</time>
      </trkpt>
      <trkpt lat="43.08346" lon="1.45125">
        <ele>453.982</ele>
        <time>2019-12-09T11:26:01Z</time>
      </trkpt>
      <trkpt lat="43.08242" lon="1.45127">
        <ele>442.443</ele>
        <time>2019-12-09T11:26:21Z</time>
      </trkpt>
      <trkpt lat="43.08192" lon="1.45113">
        <ele>442.117</ele>
        <time>2019-12-09T11:26:41Z</time>
      </trkpt>
      <trkpt lat="43.08152" lon="1.45117">
        <ele>438.708</ele>
        <time>2019-12-09T11:27:01Z</time>
      </trkpt>
      <trkpt lat="43.08123" lon="1.45065">
        <ele>444.214</ele>
        <time>2019-12-09T11:27:21Z</time>
      </trkpt>
      <trkpt lat="43.08097" lon="1.45025">
        <ele>442.993</ele>
        <time>2019-12-09T11:27:41Z</time>
      </trkpt>
      <trkpt lat="43.08094" lon="1.44929">
        <ele>444.079</ele>
        <time>2019-12-09T11:28:01Z</time>
      </trkpt>
      <trkpt lat="43.08062" lon="1.44899">
        <ele>436.455</ele>
        <time>2019-12-09T11:28:21Z</time>
      </trkpt>
      <trkpt lat="43.07989" lon="1.44793">
        <ele>431.856</ele>
        <time>2019-12-09T11:28:41Z</time>
      </trkpt>
      <trkpt lat="43.07964" lon="1.44795">
        <ele>430.228</ele>
        <time>2019-12-09T11:29:01Z</time>
      </trkpt>
      <trkpt lat="43.07939" lon="1.44813">
        <ele>427.011</ele>
        <time>2019-12-09T11:29:21Z</time>
      </trkpt>
      <trkpt lat="43.07916" lon="1.44771">
        <ele>423.753</ele>
        <time>2019-12-09T11:29:41Z</time>
      </trkpt>
      <trkpt lat="43.07867" lon="1.44767">
        <ele>420.831</ele>
        <time>2019-12-09T11:30:01Z</time>
      </trkpt>
      <trkpt lat="43.07818" lon="1.44779">
        <ele>412.961</ele>
        <time>2019-12-09T11:30:21Z</time>
      </trkpt>
      <trkpt lat="43.07787" lon="1.44755">
        <ele>410.707</ele>
        <time>2019-12-09T11:30:41Z</time>
      </trkpt>
      <trkpt lat="43.07705" lon="1.44741">
        <ele>398.308</ele>
        <time>2019-12-09T11:31:01Z</time>
      </trkpt>
      <trkpt lat="43.07676" lon="1.44783">
        <ele>397.079</ele>
        <time>2019-12-09T11:31:21Z</time>
      </trkpt>
      <trkpt lat="43.07663" lon="1.44781">
        <ele>392.948</ele>
        <time>2019-12-09T11:31:41Z</time>
      </trkpt>
      <trkpt lat="43.07647" lon="1.44741">
        <ele>394.274</ele>
        <time>2019-12-09T11:32:01Z</time>
      </trkpt>
      <trkpt lat="43.07623" lon="1.44752">
        <ele>392.91</ele>
        <time>2019-12-09T11:32:21Z</time>
      </trkpt>
      <trkpt lat="43.07584" lon="1.44761">
        <ele>393.331</ele>
        <time>2019-12-09T11:32:41Z</time>
      </trkpt>
      <trkpt lat="43.07555" lon="1.44819">
        <ele>397.423</ele>
        <time>2019-12-09T11:33:01Z</time>
      </trkpt>
      <trkpt lat="43.07534" lon="1.44846">
        <ele>395.946</ele>
        <time>2019-12-09T11:33:21Z</time>
      </trkpt>
      <trkpt lat="43.07516" lon="1.44859">
        <ele>397.318</ele>
        <time>2019-12-09T11:33:41Z</time>
      </trkpt>
      <trkpt lat="43.07509" lon="1.44886">
        <ele>395.734</ele>
        <time>2019-12-09T11:34:01Z</time>
      </trkpt>
      <trkpt lat="43.07497" lon="1.44902">
        <ele>404.555</ele>
        <time>2019-12-09T11:34:21Z</time>
      </trkpt>
      <trkpt lat="43.07475" lon="1.44998">
        <ele>402.21</ele>
        <time>2019-12-09T11:34:41Z</time>
      </trkpt>
      <trkpt lat="43.07468" lon="1.45178">
        <ele>390.508</ele>
        <time>2019-12-09T11:35:01Z</time>
      </trkpt>
      <trkpt lat="43.07462" lon="1.45271">
        <ele>387.919</ele>
        <time>2019-12-09T11:35:21Z</time>
      </trkpt>
      <trkpt lat="43.07414" lon="1.45326">
        <ele>394.988</ele>
        <time>2019-12-09T11:35:41Z</time>
      </trkpt>
      <trkpt lat="43.07397" lon="1.45357">
        <ele>396.184</ele>
        <time>2019-12-09T11:36:01Z</time>
      </trkpt>
      <trkpt lat="43.07379" lon="1.45425">
        <ele>391.39</ele>
        <time>2019-12-09T11:36:21Z</time>
      </trkpt>
      <trkpt lat="43.07365" lon="1.45453">
        <ele>391.851</ele>
        <time>2019-12-09T11:36:41Z</time>
      </trkpt>
      <trkpt lat="43.07369" lon="1.45492">
        <ele>390.143</ele>
        <time>2019-12-09T11:37:01Z</time>
      </trkpt>
      <trkpt lat="43.07345" lon="1.45523">
        <ele>387.596</ele>
        <time>2019-12-09T11:37:21Z</time>
      </trkpt>
      <trkpt lat="43.07323" lon="1.45544">
        <ele>397.138</ele>
        <time>2019-12-09T11:37:41Z</time>
      </trkpt>
      <trkpt lat="43.07315" lon="1.4556">
        <ele>396.531</ele>
        <time>2019-12-09T11:38:01Z</time>
      </trkpt>
      <trkpt lat="43.07287" lon="1.45539">
        <ele>400.861</ele>
        <time>2019-12-09T11:38:21Z</time>
      </trkpt>
      <trkpt lat="43.07224" lon="1.45448">
        <ele>423.807</ele>
        <time>2019-12-09T11:38:41Z</time>
      </trkpt>
      <trkpt lat="43.07222" lon="1.45431">
        <ele>424.508</ele>
        <time>2019-12-09T11:39:01Z</time>
      </trkpt>
      <trkpt lat="43.07181" lon="1.45438">
        <ele>429.139</ele>
        <time>2019-12-09T11:39:21Z</time>
      </trkpt>
      <trkpt lat="43.0713" lon="1.45421">
        <ele>437.638</ele>
        <time>2019-12-09T11:39:41Z</time>
      </trkpt>
      <trkpt lat="43.07083" lon="1.45383">
        <ele>463.024</ele>
        <time>2019-12-09T11:40:01Z</time>
      </trkpt>
      <trkpt lat="43.07103" lon="1.45283">
        <ele>470.08</ele>
        <time>2019-12-09T11:40:21Z</time>
      </trkpt>
      <trkpt lat="43.07059" lon="1.45321">
        <ele>480.311</ele>
        <time>2019-12-09T11:40:41Z</time>
      </trkpt>
      <trkpt lat="43.07028" lon="1.45361">
        <ele>473.123</ele>
        <time>2019-12-09T11:41:01Z</time>
      </trkpt>
      <trkpt lat="43.06952" lon="1.45394">
        <ele>483.856</ele>
        <time>2019-12-09T11:41:21Z</time>
      </trkpt>
      <trkpt lat="43.06871" lon="1.45415">
        <ele>478.658</ele>
        <time>2019-12-09T11:41:41Z</time>
      </trkpt>
      <trkpt lat="43.06858" lon="1.45411">
        <ele>477.081</ele>
        <time>2019-12-09T11:42:01Z</time>
      </trkpt>
      <trkpt lat="43.06922" lon="1.45206">
        <ele>491.461</ele>
        <time>2019-12-09T11:42:21Z</time>
      </trkpt>
      <trkpt lat="43.07007" lon="1.44908">
        <ele>507.017</ele>
        <time>2019-12-09T11:42:41Z</time>
      </trkpt>
      <trkpt lat="43.07021" lon="1.44831">
        <ele>509.208</ele>
        <time>2019-12-09T11:43:01Z</time>
      </trkpt>
      <trkpt lat="43.07028" lon="1.44766">
        <ele>511.364</ele>
        <time>2019-12-09T11:43:21Z</time>
      </trkpt>
      <trkpt lat="43.07052" lon="1.44663">
        <ele>521.273</ele>
        <time>2019-12-09T11:43:41Z</time>
      </trkpt>
      <trkpt lat="43.07043" lon="1.44624">
        <ele>520.729</ele>
        <time>2019-12-09T11:44:01Z</time>
      </trkpt>
      <trkpt lat="43.07097" lon="1.44454">
        <ele>531.665</ele>
        <time>2019-12-09T11:44:21Z</time>
      </trkpt>
      <trkpt lat="43.07073" lon="1.44415">
        <ele>525.166</ele>
        <time>2019-12-09T11:44:41Z</time>
      </trkpt>
      <trkpt lat="43.07094" lon="1.44356">
        <ele>525.718</ele>
        <time>2019-12-09T11:45:01Z</time>
      </trkpt>
      <trkpt lat="43.07096" lon="1.44294">
        <ele>519.951</ele>
        <time>2019-12-09T11:45:21Z</time>
      </trkpt>
      <trkpt lat="43.07084" lon="1.44259">
        <ele>516.053</ele>
        <time>2019-12-09T11:45:41Z</time>
      </trkpt>
      <trkpt lat="43.07025" lon="1.44157">
        <ele>494.675</ele>
        <time>2019-12-09T11:46:01Z</time>
      </trkpt>
      <trkpt lat="43.07049" lon="1.43979">
        <ele>489.828</ele>
        <time>2019-12-09T11:46:21Z</time>
      </trkpt>
      <trkpt lat="43.07082" lon="1.4387">
        <ele>488.32</ele>
        <time>2019-12-09T11:46:41Z</time>
      </trkpt>
      <trkpt lat="43.07119" lon="1.43656">
        <ele>485.208</ele>
        <time>2019-12-09T11:47:01Z</time>
      </trkpt>
      <trkpt lat="43.07141" lon="1.43513">
        <ele>484.563</ele>
        <time>2019-12-09T11:47:21Z</time>
      </trkpt>
      <trkpt lat="43.07172" lon="1.43499">
        <ele>492.452</ele>
        <time>2019-12-09T11:47:41Z</time>
      </trkpt>
      <trkpt lat="43.07231" lon="1.43359">
        <ele>487.588</ele>
        <time>2019-12-09T11:49:21Z</time>
      </trkpt>
      <trkpt lat="43.07216" lon="1.43356">
        <ele>486.834</ele>
        <time>2019-12-09T11:49:41Z</time>
      </trkpt>
      <trkpt lat="43.07206" lon="1.43323">
        <ele>482.135</ele>
        <time>2019-12-09T11:50:01Z</time>
      </trkpt>
      <trkpt lat="43.07169" lon="1.43333">
        <ele>480.067</ele>
        <time>2019-12-09T11:50:21Z</time>
      </trkpt>
      <trkpt lat="43.07197" lon="1.43153">
        <ele>462.31</ele>
        <time>2019-12-09T11:50:41Z</time>
      </trkpt>
      <trkpt lat="43.07102" lon="1.43316">
        <ele>454.312</ele>
        <time>2019-12-09T11:51:01Z</time>
      </trkpt>
      <trkpt lat="43.07124" lon="1.43125">
        <ele>433.886</ele>
        <time>2019-12-09T11:51:21Z</time>
      </trkpt>
      <trkpt lat="43.07141" lon="1.43073">
        <ele>429.66</ele>
        <time>2019-12-09T11:51:41Z</time>
      </trkpt>
      <trkpt lat="43.07135" lon="1.43013">
        <ele>425.826</ele>
        <time>2019-12-09T11:52:01Z</time>
      </trkpt>
      <trkpt lat="43.07105" lon="1.42975">
        <ele>418.208</ele>
        <time>2019-12-09T11:52:21Z</time>
      </trkpt>
      <trkpt lat="43.06991" lon="1.4291">
        <ele>414.084</ele>
        <time>2019-12-09T11:52:41Z</time>
      </trkpt>
      <trkpt lat="43.06969" lon="1.42848">
        <ele>416.863</ele>
        <time>2019-12-09T11:53:01Z</time>
      </trkpt>
      <trkpt lat="43.06919" lon="1.42814">
        <ele>422.539</ele>
        <time>2019-12-09T11:53:21Z</time>
      </trkpt>
      <trkpt lat="43.06926" lon="1.42698">
        <ele>427.445</ele>
        <time>2019-12-09T11:53:41Z</time>
      </trkpt>
      <trkpt lat="43.06952" lon="1.42597">
        <ele>431.166</ele>
        <time>2019-12-09T11:54:01Z</time>
      </trkpt>
      <trkpt lat="43.06947" lon="1.42518">
        <ele>434.328</ele>
        <time>2019-12-09T11:54:21Z</time>
      </trkpt>
      <trkpt lat="43.06934" lon="1.4243">
        <ele>437.291</ele>
        <time>2019-12-09T11:54:41Z</time>
      </trkpt>
      <trkpt lat="43.06928" lon="1.42363">
        <ele>438.143</ele>
        <time>2019-12-09T11:55:01Z</time>
      </trkpt>
      <trkpt lat="43.06922" lon="1.42243">
        <ele>443.423</ele>
        <time>2019-12-09T11:55:21Z</time>
      </trkpt>
      <trkpt lat="43.06878" lon="1.42206">
        <ele>445.283</ele>
        <time>2019-12-09T11:55:41Z</time>
      </trkpt>
      <trkpt lat="43.06867" lon="1.42091">
        <ele>449.611</ele>
        <time>2019-12-09T11:56:01Z</time>
      </trkpt>
      <trkpt lat="43.0684" lon="1.41973">
        <ele>457.908</ele>
        <time>2019-12-09T11:56:21Z</time>
      </trkpt>
      <trkpt lat="43.06818" lon="1.41732">
        <ele>478.058</ele>
        <time>2019-12-09T11:56:41Z</time>
      </trkpt>
      <trkpt lat="43.06803" lon="1.41672">
        <ele>479.377</ele>
        <time>2019-12-09T11:57:01Z</time>
      </trkpt>
      <trkpt lat="43.06798" lon="1.4161">
        <ele>477.583</ele>
        <time>2019-12-09T11:57:21Z</time>
      </trkpt>
      <trkpt lat="43.06825" lon="1.41501">
        <ele>469.919</ele>
        <time>2019-12-09T11:57:41Z</time>
      </trkpt>
      <trkpt lat="43.06817" lon="1.414">
        <ele>460.34</ele>
        <time>2019-12-09T11:58:01Z</time>
      </trkpt>
      <trkpt lat="43.06782" lon="1.41498">
        <ele>460.852</ele>
        <time>2019-12-09T11:58:21Z</time>
      </trkpt>
      <trkpt lat="43.06738" lon="1.41518">
        <ele>459.285</ele>
        <time>2019-12-09T11:58:41Z</time>
      </trkpt>
      <trkpt lat="43.06677" lon="1.41513">
        <ele>450.227</ele>
        <time>2019-12-09T11:59:01Z</time>
      </trkpt>
      <trkpt lat="43.06726" lon="1.4146">
        <ele>444.894</ele>
        <time>2019-12-09T11:59:21Z</time>
      </trkpt>
      <trkpt lat="43.06693" lon="1.4144">
        <ele>438.757</ele>
        <time>2019-12-09T11:59:41Z</time>
      </trkpt>
      <trkpt lat="43.06561" lon="1.4155">
        <ele>415.222</ele>
        <time>2019-12-09T12:00:01Z</time>
      </trkpt>
      <trkpt lat="43.06585" lon="1.41462">
        <ele>418.708</ele>
        <time>2019-12-09T12:00:21Z</time>
      </trkpt>
      <trkpt lat="43.06535" lon="1.41477">
        <ele>401.235</ele>
        <time>2019-12-09T12:00:41Z</time>
      </trkpt>
      <trkpt lat="43.06549" lon="1.41434">
        <ele>400.234</ele>
        <time>2019-12-09T12:01:01Z</time>
      </trkpt>
      <trkpt lat="43.06514" lon="1.41443">
        <ele>396.17</ele>
        <time>2019-12-09T12:01:21Z</time>
      </trkpt>
      <trkpt lat="43.0652" lon="1.41391">
        <ele>387.056</ele>
        <time>2019-12-09T12:01:41Z</time>
      </trkpt>
      <trkpt lat="43.06497" lon="1.414">
        <ele>378.087</ele>
        <time>2019-12-09T12:02:01Z</time>
      </trkpt>
      <trkpt lat="43.06467" lon="1.41503">
        <ele>385.999</ele>
        <time>2019-12-09T12:02:21Z</time>
      </trkpt>
      <trkpt lat="43.06442" lon="1.41486">
        <ele>376.572</ele>
        <time>2019-12-09T12:02:41Z</time>
      </trkpt>
      <trkpt lat="43.06415" lon="1.41419">
        <ele>365.274</ele>
        <time>2019-12-09T12:03:01Z</time>
      </trkpt>
      <trkpt lat="43.06415" lon="1.4134">
        <ele>358.013</ele>
        <time>2019-12-09T12:03:21Z</time>
      </trkpt>
      <trkpt lat="43.06433" lon="1.41249">
        <ele>352.743</ele>
        <time>2019-12-09T12:03:41Z</time>
      </trkpt>
      <trkpt lat="43.06442" lon="1.41112">
        <ele>352.407</ele>
        <time>2019-12-09T12:04:01Z</time>
      </trkpt>
      <trkpt lat="43.06422" lon="1.41046">
        <ele>347.008</ele>
        <time>2019-12-09T12:04:21Z</time>
      </trkpt>
      <trkpt lat="43.06414" lon="1.40992">
        <ele>340.127</ele>
        <time>2019-12-09T12:04:41Z</time>
      </trkpt>
      <trkpt lat="43.06437" lon="1.40962">
        <ele>340.656</ele>
        <time>2019-12-09T12:05:01Z</time>
      </trkpt>
      <trkpt lat="43.06425" lon="1.40921">
        <ele>333.832</ele>
        <time>2019-12-09T12:05:21Z</time>
      </trkpt>
      <trkpt lat="43.06442" lon="1.40846">
        <ele>333.318</ele>
        <time>2019-12-09T12:05:41Z</time>
      </trkpt>
      <trkpt lat="43.06458" lon="1.40715">
        <ele>329.829</ele>
        <time>2019-12-09T12:06:01Z</time>
      </trkpt>
      <trkpt lat="43.06483" lon="1.40668">
        <ele>331.381</ele>
        <time>2019-12-09T12:06:21Z</time>
      </trkpt>
      <trkpt lat="43.06578" lon="1.40629">
        <ele>335.734</ele>
        <time>2019-12-09T12:06:41Z</time>
      </trkpt>
      <trkpt lat="43.06599" lon="1.40316">
        <ele>326.626</ele>
        <time>2019-12-09T12:07:01Z</time>
      </trkpt>
      <trkpt lat="43.06622" lon="1.4029">
        <ele>328.097</ele>
        <time>2019-12-09T12:07:21Z</time>
      </trkpt>
      <trkpt lat="43.06679" lon="1.4026">
        <ele>336.423</ele>
        <time>2019-12-09T12:07:41Z</time>
      </trkpt>
      <trkpt lat="43.06671" lon="1.40198">
        <ele>333.225</ele>
        <time>2019-12-09T12:08:01Z</time>
      </trkpt>
      <trkpt lat="43.06694" lon="1.40134">
        <ele>332.108</ele>
        <time>2019-12-09T12:08:21Z</time>
      </trkpt>
      <trkpt lat="43.06729" lon="1.40082">
        <ele>334.865</ele>
        <time>2019-12-09T12:08:41Z</time>
      </trkpt>
      <trkpt lat="43.06713" lon="1.40026">
        <ele>332.684</ele>
        <time>2019-12-09T12:09:01Z</time>
      </trkpt>
      <trkpt lat="43.06713" lon="1.39913">
        <ele>329.63</ele>
        <time>2019-12-09T12:09:21Z</time>
      </trkpt>
      <trkpt lat="43.06748" lon="1.3984">
        <ele>330.366</ele>
        <time>2019-12-09T12:09:41Z</time>
      </trkpt>
      <trkpt lat="43.06759" lon="1.39792">
        <ele>332.267</ele>
        <time>2019-12-09T12:10:01Z</time>
      </trkpt>
      <trkpt lat="43.06839" lon="1.39662">
        <ele>331.299</ele>
        <time>2019-12-09T12:10:21Z</time>
      </trkpt>
      <trkpt lat="43.06853" lon="1.39617">
        <ele>332.322</ele>
        <time>2019-12-09T12:10:41Z</time>
      </trkpt>
      <trkpt lat="43.06878" lon="1.39589">
        <ele>333.434</ele>
        <time>2019-12-09T12:11:01Z</time>
      </trkpt>
      <trkpt lat="43.06894" lon="1.39538">
        <ele>327.636</ele>
        <time>2019-12-09T12:11:21Z</time>
      </trkpt>
      <trkpt lat="43.06931" lon="1.3953">
        <ele>338.317</ele>
        <time>2019-12-09T12:11:41Z</time>
      </trkpt>
      <trkpt lat="43.06946" lon="1.39431">
        <ele>334.018</ele>
        <time>2019-12-09T12:12:01Z</time>
      </trkpt>
      <trkpt lat="43.06967" lon="1.39365">
        <ele>329.008</ele>
        <time>2019-12-09T12:12:21Z</time>
      </trkpt>
      <trkpt lat="43.06983" lon="1.39344">
        <ele>328.959</ele>
        <time>2019-12-09T12:12:41Z</time>
      </trkpt>
      <trkpt lat="43.07" lon="1.39344">
        <ele>329.368</ele>
        <time>2019-12-09T12:13:01Z</time>
      </trkpt>
      <trkpt lat="43.0702" lon="1.39351">
        <ele>338.724</ele>
        <time>2019-12-09T12:13:21Z</time>
      </trkpt>
      <trkpt lat="43.07042" lon="1.39338">
        <ele>341.13</ele>
        <time>2019-12-09T12:13:41Z</time>
      </trkpt>
      <trkpt lat="43.07057" lon="1.39285">
        <ele>330.671</ele>
        <time>2019-12-09T12:14:01Z</time>
      </trkpt>
      <trkpt lat="43.07105" lon="1.39245">
        <ele>323.173</ele>
        <time>2019-12-09T12:14:21Z</time>
      </trkpt>
      <trkpt lat="43.07132" lon="1.39212">
        <ele>321.866</ele>
        <time>2019-12-09T12:14:41Z</time>
      </trkpt>
      <trkpt lat="43.07156" lon="1.392">
        <ele>320.968</ele>
        <time>2019-12-09T12:15:01Z</time>
      </trkpt>
      <trkpt lat="43.07181" lon="1.39199">
        <ele>328.898</ele>
        <time>2019-12-09T12:15:21Z</time>
      </trkpt>
      <trkpt lat="43.07198" lon="1.39174">
        <ele>327.315</ele>
        <time>2019-12-09T12:15:41Z</time>
      </trkpt>
      <trkpt lat="43.07286" lon="1.39103">
        <ele>318.526</ele>
        <time>2019-12-09T12:16:01Z</time>
      </trkpt>
      <trkpt lat="43.07323" lon="1.39096">
        <ele>315.508</ele>
        <time>2019-12-09T12:16:21Z</time>
      </trkpt>
      <trkpt lat="43.07409" lon="1.39117">
        <ele>318.465</ele>
        <time>2019-12-09T12:16:41Z</time>
      </trkpt>
      <trkpt lat="43.07447" lon="1.39108">
        <ele>313.574</ele>
        <time>2019-12-09T12:17:01Z</time>
      </trkpt>
      <trkpt lat="43.07512" lon="1.39115">
        <ele>307.63</ele>
        <time>2019-12-09T12:17:21Z</time>
      </trkpt>
      <trkpt lat="43.07565" lon="1.39142">
        <ele>306.936</ele>
        <time>2019-12-09T12:17:41Z</time>
      </trkpt>
      <trkpt lat="43.07592" lon="1.39166">
        <ele>306.287</ele>
        <time>2019-12-09T12:18:01Z</time>
      </trkpt>
      <trkpt lat="43.0763" lon="1.39149">
        <ele>309.789</ele>
        <time>2019-12-09T12:18:21Z</time>
      </trkpt>
      <trkpt lat="43.07646" lon="1.39104">
        <ele>310.592</ele>
        <time>2019-12-09T12:18:41Z</time>
      </trkpt>
      <trkpt lat="43.07618" lon="1.38977">
        <ele>313.974</ele>
        <time>2019-12-09T12:19:01Z</time>
      </trkpt>
      <trkpt lat="43.07599" lon="1.38932">
        <ele>310.661</ele>
        <time>2019-12-09T12:19:21Z</time>
      </trkpt>
      <trkpt lat="43.07624" lon="1.38775">
        <ele>313.921</ele>
        <time>2019-12-09T12:19:41Z</time>
      </trkpt>
      <trkpt lat="43.07685" lon="1.38582">
        <ele>308.213</ele>
        <time>2019-12-09T12:20:01Z</time>
      </trkpt>
      <trkpt lat="43.07738" lon="1.38511">
        <ele>305.308</ele>
        <time>2019-12-09T12:20:21Z</time>
      </trkpt>
      <trkpt lat="43.07796" lon="1.384">
        <ele>306.752</ele>
        <time>2019-12-09T12:20:41Z</time>
      </trkpt>
      <trkpt lat="43.07793" lon="1.38376">
        <ele>307.121</ele>
        <time>2019-12-09T12:21:01Z</time>
      </trkpt>
      <trkpt lat="43.07763" lon="1.38316">
        <ele>305.387</ele>
        <time>2019-12-09T12:21:21Z</time>
      </trkpt>
      <trkpt lat="43.07765" lon="1.38222">
        <ele>307.173</ele>
        <time>2019-12-09T12:21:41Z</time>
      </trkpt>
      <trkpt lat="43.07752" lon="1.38138">
        <ele>300.064</ele>
        <time>2019-12-09T12:22:01Z</time>
      </trkpt>
      <trkpt lat="43.07759" lon="1.38074">
        <ele>291.246</ele>
        <time>2019-12-09T12:22:21Z</time>
      </trkpt>
      <trkpt lat="43.07731" lon="1.37999">
        <ele>295.179</ele>
        <time>2019-12-09T12:22:41Z</time>
      </trkpt>
      <trkpt lat="43.07738" lon="1.37949">
        <ele>299.781</ele>
        <time>2019-12-09T12:23:01Z</time>
      </trkpt>
      <trkpt lat="43.07785" lon="1.37889">
        <ele>294.223</ele>
        <time>2019-12-09T12:23:21Z</time>
      </trkpt>
      <trkpt lat="43.07787" lon="1.37722">
        <ele>302.983</ele>
        <time>2019-12-09T12:23:41Z</time>
      </trkpt>
      <trkpt lat="43.07897" lon="1.37808">
        <ele>289.011</ele>
        <time>2019-12-09T12:24:01Z</time>
      </trkpt>
      <trkpt lat="43.07897" lon="1.37788">
        <ele>289.308</ele>
        <time>2019-12-09T12:24:21Z</time>
      </trkpt>
      <trkpt lat="43.07851" lon="1.37743">
        <ele>287.048</ele>
        <time>2019-12-09T12:24:41Z</time>
      </trkpt>
      <trkpt lat="43.07853" lon="1.37685">
        <ele>288.227</ele>
        <time>2019-12-09T12:25:01Z</time>
      </trkpt>
      <trkpt lat="43.07878" lon="1.37527">
        <ele>294.743</ele>
        <time>2019-12-09T12:25:21Z</time>
      </trkpt>
      <trkpt lat="43.07881" lon="1.37443">
        <ele>293.759</ele>
        <time>2019-12-09T12:25:41Z</time>
      </trkpt>
      <trkpt lat="43.07859" lon="1.37183">
        <ele>287.21</ele>
        <time>2019-12-09T12:26:01Z</time>
      </trkpt>
      <trkpt lat="43.07864" lon="1.36911">
        <ele>286.322</ele>
        <time>2019-12-09T12:26:21Z</time>
      </trkpt>
      <trkpt lat="43.07914" lon="1.3672">
        <ele>286.165</ele>
        <time>2019-12-09T12:26:41Z</time>
      </trkpt>
      <trkpt lat="43.07942" lon="1.36715">
        <ele>285.987</ele>
        <time>2019-12-09T12:27:01Z</time>
      </trkpt>
      <trkpt lat="43.07975" lon="1.36666">
        <ele>286.361</ele>
        <time>2019-12-09T12:27:21Z</time>
      </trkpt>
      <trkpt lat="43.08005" lon="1.36645">
        <ele>286.121</ele>
        <time>2019-12-09T12:27:41Z</time>
      </trkpt>
      <trkpt lat="43.08035" lon="1.36647">
        <ele>286.313</ele>
        <time>2019-12-09T12:28:01Z</time>
      </trkpt>
      <trkpt lat="43.08046" lon="1.36619">
        <ele>286.208</ele>
        <time>2019-12-09T12:28:21Z</time>
      </trkpt>
      <trkpt lat="43.08118" lon="1.36561">
        <ele>286.632</ele>
        <time>2019-12-09T12:28:41Z</time>
      </trkpt>
      <trkpt lat="43.08187" lon="1.36527">
        <ele>289.321</ele>
        <time>2019-12-09T12:29:01Z</time>
      </trkpt>
      <trkpt lat="43.08234" lon="1.36469">
        <ele>287.097</ele>
        <time>2019-12-09T12:29:21Z</time>
      </trkpt>
      <trkpt lat="43.08267" lon="1.36439">
        <ele>290.143</ele>
        <time>2019-12-09T12:29:41Z</time>
      </trkpt>
      <trkpt lat="43.08321" lon="1.36351">
        <ele>286.544</ele>
        <time>2019-12-09T12:30:01Z</time>
      </trkpt>
      <trkpt lat="43.08325" lon="1.36286">
        <ele>285.566</ele>
        <time>2019-12-09T12:30:21Z</time>
      </trkpt>
      <trkpt lat="43.08336" lon="1.36181">
        <ele>287.159</ele>
        <time>2019-12-09T12:30:41Z</time>
      </trkpt>
      <trkpt lat="43.08317" lon="1.3608">
        <ele>287.731</ele>
        <time>2019-12-09T12:31:01Z</time>
      </trkpt>
      <trkpt lat="43.08281" lon="1.361">
        <ele>285.817</ele>
        <time>2019-12-09T12:31:21Z</time>
      </trkpt>
      <trkpt lat="43.0821" lon="1.3608">
        <ele>286.987</ele>
        <time>2019-12-09T12:31:41Z</time>
      </trkpt>
      <trkpt lat="43.08173" lon="1.36121">
        <ele>287.415</ele>
        <time>2019-12-09T12:32:01Z</time>
      </trkpt>
      <trkpt lat="43.08143" lon="1.3617">
        <ele>287.608</ele>
        <time>2019-12-09T12:32:21Z</time>
      </trkpt>
      <trkpt lat="43.08088" lon="1.36181">
        <ele>288.247</ele>
        <time>2019-12-09T12:32:41Z</time>
      </trkpt>
      <trkpt lat="43.08028" lon="1.3617">
        <ele>287.936</ele>
        <time>2019-12-09T12:33:01Z</time>
      </trkpt>
      <trkpt lat="43.07964" lon="1.3614">
        <ele>288.932</ele>
        <time>2019-12-09T12:33:21Z</time>
      </trkpt>
      <trkpt lat="43.07868" lon="1.36031">
        <ele>290.538</ele>
        <time>2019-12-09T12:33:41Z</time>
      </trkpt>
      <trkpt lat="43.07575" lon="1.35954">
        <ele>311.089</ele>
        <time>2019-12-09T12:34:01Z</time>
      </trkpt>
      <trkpt lat="43.0751" lon="1.35874">
        <ele>303.961</ele>
        <time>2019-12-09T12:34:21Z</time>
      </trkpt>
      <trkpt lat="43.07347" lon="1.35735">
        <ele>312.554</ele>
        <time>2019-12-09T12:34:41Z</time>
      </trkpt>
      <trkpt lat="43.07296" lon="1.35683">
        <ele>311.916</ele>
        <time>2019-12-09T12:35:01Z</time>
      </trkpt>
      <trkpt lat="43.07252" lon="1.3569">
        <ele>312.854</ele>
        <time>2019-12-09T12:35:21Z</time>
      </trkpt>
      <trkpt lat="43.07218" lon="1.35681">
        <ele>320.056</ele>
        <time>2019-12-09T12:35:41Z</time>
      </trkpt>
      <trkpt lat="43.07179" lon="1.35694">
        <ele>323.411</ele>
        <time>2019-12-09T12:36:01Z</time>
      </trkpt>
      <trkpt lat="43.0718" lon="1.35716">
        <ele>327.408</ele>
        <time>2019-12-09T12:36:21Z</time>
      </trkpt>
      <trkpt lat="43.0729" lon="1.35795">
        <ele>333.421</ele>
        <time>2019-12-09T12:36:41Z</time>
      </trkpt>
      <trkpt lat="43.07262" lon="1.35825">
        <ele>338.96</ele>
        <time>2019-12-09T12:37:01Z</time>
      </trkpt>
      <trkpt lat="43.07201" lon="1.35793">
        <ele>346.136</ele>
        <time>2019-12-09T12:37:21Z</time>
      </trkpt>
      <trkpt lat="43.07155" lon="1.35793">
        <ele>365.332</ele>
        <time>2019-12-09T12:37:41Z</time>
      </trkpt>
      <trkpt lat="43.0714" lon="1.35748">
        <ele>347.573</ele>
        <time>2019-12-09T12:38:01Z</time>
      </trkpt>
      <trkpt lat="43.0701" lon="1.35677">
        <ele>372.255</ele>
        <time>2019-12-09T12:38:21Z</time>
      </trkpt>
      <trkpt lat="43.06886" lon="1.35724">
        <ele>373.768</ele>
        <time>2019-12-09T12:38:41Z</time>
      </trkpt>
      <trkpt lat="43.06831" lon="1.35726">
        <ele>368.52</ele>
        <time>2019-12-09T12:39:01Z</time>
      </trkpt>
      <trkpt lat="43.06726" lon="1.35713">
        <ele>359.994</ele>
        <time>2019-12-09T12:39:21Z</time>
      </trkpt>
      <trkpt lat="43.06669" lon="1.35713">
        <ele>358.157</ele>
        <time>2019-12-09T12:39:41Z</time>
      </trkpt>
      <trkpt lat="43.06607" lon="1.35668">
        <ele>358.722</ele>
        <time>2019-12-09T12:40:01Z</time>
      </trkpt>
      <trkpt lat="43.06575" lon="1.35606">
        <ele>357.308</ele>
        <time>2019-12-09T12:40:21Z</time>
      </trkpt>
      <trkpt lat="43.0639" lon="1.35068">
        <ele>343.975</ele>
        <time>2019-12-09T12:40:41Z</time>
      </trkpt>
      <trkpt lat="43.06293" lon="1.34825">
        <ele>333.584</ele>
        <time>2019-12-09T12:41:01Z</time>
      </trkpt>
      <trkpt lat="43.06266" lon="1.34838">
        <ele>332.84</ele>
        <time>2019-12-09T12:41:21Z</time>
      </trkpt>
      <trkpt lat="43.06213" lon="1.34939">
        <ele>337.366</ele>
        <time>2019-12-09T12:41:41Z</time>
      </trkpt>
      <trkpt lat="43.06099" lon="1.35001">
        <ele>329.727</ele>
        <time>2019-12-09T12:42:01Z</time>
      </trkpt>
      <trkpt lat="43.05911" lon="1.34795">
        <ele>331.339</ele>
        <time>2019-12-09T12:42:21Z</time>
      </trkpt>
      <trkpt lat="43.05898" lon="1.34759">
        <ele>330.472</ele>
        <time>2019-12-09T12:42:41Z</time>
      </trkpt>
      <trkpt lat="43.05838" lon="1.34692">
        <ele>329.574</ele>
        <time>2019-12-09T12:43:01Z</time>
      </trkpt>
      <trkpt lat="43.05821" lon="1.34625">
        <ele>330.256</ele>
        <time>2019-12-09T12:43:21Z</time>
      </trkpt>
      <trkpt lat="43.05784" lon="1.34587">
        <ele>329.959</ele>
        <time>2019-12-09T12:43:41Z</time>
      </trkpt>
      <trkpt lat="43.05732" lon="1.34587">
        <ele>330.314</ele>
        <time>2019-12-09T12:44:01Z</time>
      </trkpt>
      <trkpt lat="43.05655" lon="1.34538">
        <ele>333.508</ele>
        <time>2019-12-09T12:44:21Z</time>
      </trkpt>
      <trkpt lat="43.05575" lon="1.34503">
        <ele>336.751</ele>
        <time>2019-12-09T12:44:41Z</time>
      </trkpt>
      <trkpt lat="43.05539" lon="1.34462">
        <ele>338.44</ele>
        <time>2019-12-09T12:45:01Z</time>
      </trkpt>
      <trkpt lat="43.05473" lon="1.34338">
        <ele>346.296</ele>
        <time>2019-12-09T12:45:21Z</time>
      </trkpt>
      <trkpt lat="43.05445" lon="1.34186">
        <ele>344.122</ele>
        <time>2019-12-09T12:45:41Z</time>
      </trkpt>
      <trkpt lat="43.05447" lon="1.34089">
        <ele>342.033</ele>
        <time>2019-12-09T12:46:01Z</time>
      </trkpt>
      <trkpt lat="43.05476" lon="1.33992">
        <ele>338.135</ele>
        <time>2019-12-09T12:46:21Z</time>
      </trkpt>
      <trkpt lat="43.05447" lon="1.339">
        <ele>342.548</ele>
        <time>2019-12-09T12:46:41Z</time>
      </trkpt>
      <trkpt lat="43.05445" lon="1.33763">
        <ele>345.47</ele>
        <time>2019-12-09T12:47:01Z</time>
      </trkpt>
      <trkpt lat="43.05376" lon="1.3351">
        <ele>357.522</ele>
        <time>2019-12-09T12:47:21Z</time>
      </trkpt>
      <trkpt lat="43.05356" lon="1.33488">
        <ele>355.062</ele>
        <time>2019-12-09T12:47:41Z</time>
      </trkpt>
      <trkpt lat="43.05324" lon="1.33486">
        <ele>368.508</ele>
        <time>2019-12-09T12:48:01Z</time>
      </trkpt>
      <trkpt lat="43.0526" lon="1.33347">
        <ele>347.508</ele>
        <time>2019-12-09T12:48:21Z</time>
      </trkpt>
      <trkpt lat="43.05229" lon="1.33319">
        <ele>342.868</ele>
        <time>2019-12-09T12:48:41Z</time>
      </trkpt>
      <trkpt lat="43.05147" lon="1.33314">
        <ele>343.937</ele>
        <time>2019-12-09T12:49:01Z</time>
      </trkpt>
      <trkpt lat="43.05044" lon="1.33381">
        <ele>348.093</ele>
        <time>2019-12-09T12:49:21Z</time>
      </trkpt>
      <trkpt lat="43.0499" lon="1.33454">
        <ele>357.569</ele>
        <time>2019-12-09T12:49:41Z</time>
      </trkpt>
      <trkpt lat="43.04943" lon="1.33473">
        <ele>359.82</ele>
        <time>2019-12-09T12:50:01Z</time>
      </trkpt>
      <trkpt lat="43.04938" lon="1.33447">
        <ele>355.222</ele>
        <time>2019-12-09T12:50:21Z</time>
      </trkpt>
      <trkpt lat="43.04848" lon="1.33426">
        <ele>350.255</ele>
        <time>2019-12-09T12:50:41Z</time>
      </trkpt>
      <trkpt lat="43.0475" lon="1.33462">
        <ele>349.217</ele>
        <time>2019-12-09T12:51:01Z</time>
      </trkpt>
      <trkpt lat="43.04746" lon="1.33477">
        <ele>347.383</ele>
        <time>2019-12-09T12:51:21Z</time>
      </trkpt>
      <trkpt lat="43.04733" lon="1.33477">
        <ele>346.625</ele>
        <time>2019-12-09T12:51:41Z</time>
      </trkpt>
      <trkpt lat="43.04725" lon="1.33467">
        <ele>344.817</ele>
        <time>2019-12-09T12:52:01Z</time>
      </trkpt>
      <trkpt lat="43.04672" lon="1.33475">
        <ele>344.808</ele>
        <time>2019-12-09T12:52:21Z</time>
      </trkpt>
      <trkpt lat="43.04597" lon="1.33565">
        <ele>353.434</ele>
        <time>2019-12-09T12:52:41Z</time>
      </trkpt>
      <trkpt lat="43.04575" lon="1.3363">
        <ele>357.593</ele>
        <time>2019-12-09T12:53:01Z</time>
      </trkpt>
      <trkpt lat="43.04565" lon="1.33707">
        <ele>361.669</ele>
        <time>2019-12-09T12:53:21Z</time>
      </trkpt>
      <trkpt lat="43.04545" lon="1.33714">
        <ele>361.135</ele>
        <time>2019-12-09T12:53:41Z</time>
      </trkpt>
      <trkpt lat="43.04517" lon="1.3369">
        <ele>359.336</ele>
        <time>2019-12-09T12:54:01Z</time>
      </trkpt>
      <trkpt lat="43.04526" lon="1.33638">
        <ele>358.148</ele>
        <time>2019-12-09T12:54:21Z</time>
      </trkpt>
      <trkpt lat="43.04532" lon="1.33599">
        <ele>358.911</ele>
        <time>2021-02-06T01:35:11Z</time>
      </trkpt>
      <trkpt lat="43.04507" lon="1.3358">
        <ele>361.813</ele>
        <time>2021-02-06T01:35:31Z</time>
      </trkpt>
      <trkpt lat="43.04482" lon="1.33533">
        <ele>366.046</ele>
        <time>2021-02-06T01:35:51Z</time>
      </trkpt>
      <trkpt lat="43.04424" lon="1.33628">
        <ele>385.388</ele>
        <time>2021-02-06T01:36:11Z</time>
      </trkpt>
      <trkpt lat="43.04402" lon="1.33598">
        <ele>396.416</ele>
        <time>2021-02-06T01:36:31Z</time>
      </trkpt>
      <trkpt lat="43.04361" lon="1.33565">
        <ele>411.308</ele>
        <time>2021-02-06T01:36:51Z</time>
      </trkpt>
      <trkpt lat="43.04329" lon="1.33477">
        <ele>411.72</ele>
        <time>2021-02-06T01:37:11Z</time>
      </trkpt>
      <trkpt lat="43.04227" lon="1.33367">
        <ele>414.729</ele>
        <time>2021-02-06T01:37:31Z</time>
      </trkpt>
      <trkpt lat="43.04194" lon="1.33363">
        <ele>423.155</ele>
        <time>2021-02-06T01:37:51Z</time>
      </trkpt>
      <trkpt lat="43.04145" lon="1.33309">
        <ele>421.361</ele>
        <time>2021-02-06T01:38:11Z</time>
      </trkpt>
      <trkpt lat="43.04096" lon="1.3328">
        <ele>422.972</ele>
        <time>2021-02-06T01:38:31Z</time>
      </trkpt>
      <trkpt lat="43.0394" lon="1.331">
        <ele>359.384</ele>
        <time>2019-12-09T12:58:41Z</time>
      </trkpt>
      <trkpt lat="43.03856" lon="1.33106">
        <ele>362.447</ele>
        <time>2019-12-09T12:59:01Z</time>
      </trkpt>
      <trkpt lat="43.0382" lon="1.33098">
        <ele>362.999</ele>
        <time>2019-12-09T12:59:21Z</time>
      </trkpt>
      <trkpt lat="43.03786" lon="1.3304">
        <ele>349.766</ele>
        <time>2019-12-09T12:59:41Z</time>
      </trkpt>
      <trkpt lat="43.03828" lon="1.32997">
        <ele>345.829</ele>
        <time>2019-12-09T13:00:01Z</time>
      </trkpt>
      <trkpt lat="43.03918" lon="1.32999">
        <ele>345.521</ele>
        <time>2019-12-09T13:00:21Z</time>
      </trkpt>
      <trkpt lat="43.03969" lon="1.3295">
        <ele>355.208</ele>
        <time>2019-12-09T13:00:41Z</time>
      </trkpt>
      <trkpt lat="43.04056" lon="1.32941">
        <ele>350.362</ele>
        <time>2019-12-09T13:01:01Z</time>
      </trkpt>
      <trkpt lat="43.0411" lon="1.32926">
        <ele>348.391</ele>
        <time>2019-12-09T13:01:21Z</time>
      </trkpt>
      <trkpt lat="43.04147" lon="1.3293">
        <ele>347.387</ele>
        <time>2019-12-09T13:01:41Z</time>
      </trkpt>
      <trkpt lat="43.04173" lon="1.32915">
        <ele>351.783</ele>
        <time>2019-12-09T13:02:01Z</time>
      </trkpt>
      <trkpt lat="43.04217" lon="1.32911">
        <ele>354.794</ele>
        <time>2019-12-09T13:02:21Z</time>
      </trkpt>
      <trkpt lat="43.04247" lon="1.32844">
        <ele>364.066</ele>
        <time>2019-12-09T13:02:41Z</time>
      </trkpt>
      <trkpt lat="43.04294" lon="1.32844">
        <ele>363.429</ele>
        <time>2019-12-09T13:03:01Z</time>
      </trkpt>
      <trkpt lat="43.04332" lon="1.32825">
        <ele>373.051</ele>
        <time>2019-12-09T13:03:21Z</time>
      </trkpt>
      <trkpt lat="43.04413" lon="1.32887">
        <ele>375.841</ele>
        <time>2019-12-09T13:03:41Z</time>
      </trkpt>
      <trkpt lat="43.04465" lon="1.32956">
        <ele>378.181</ele>
        <time>2019-12-09T13:04:01Z</time>
      </trkpt>
      <trkpt lat="43.04551" lon="1.3299">
        <ele>385.209</ele>
        <time>2019-12-09T13:04:21Z</time>
      </trkpt>
      <trkpt lat="43.04545" lon="1.32905">
        <ele>396.408</ele>
        <time>2019-12-09T13:04:41Z</time>
      </trkpt>
      <trkpt lat="43.0452" lon="1.3284">
        <ele>401.46</ele>
        <time>2019-12-09T13:05:01Z</time>
      </trkpt>
      <trkpt lat="43.04501" lon="1.32767">
        <ele>403.279</ele>
        <time>2019-12-09T13:05:21Z</time>
      </trkpt>
      <trkpt lat="43.04434" lon="1.32724">
        <ele>404.075</ele>
        <time>2019-12-09T13:05:41Z</time>
      </trkpt>
      <trkpt lat="43.04354" lon="1.32649">
        <ele>412.181</ele>
        <time>2019-12-09T13:06:01Z</time>
      </trkpt>
      <trkpt lat="43.04343" lon="1.32617">
        <ele>413.362</ele>
        <time>2019-12-09T13:06:21Z</time>
      </trkpt>
      <trkpt lat="43.04327" lon="1.32598">
        <ele>419.394</ele>
        <time>2019-12-09T13:06:41Z</time>
      </trkpt>
      <trkpt lat="43.04307" lon="1.32583">
        <ele>424.597</ele>
        <time>2019-12-09T13:07:01Z</time>
      </trkpt>
      <trkpt lat="43.04303" lon="1.32561">
        <ele>425.319</ele>
        <time>2019-12-09T13:07:21Z</time>
      </trkpt>
      <trkpt lat="43.04283" lon="1.32546">
        <ele>426.625</ele>
        <time>2019-12-09T13:07:41Z</time>
      </trkpt>
      <trkpt lat="43.04277" lon="1.32518">
        <ele>429.026</ele>
        <time>2019-12-09T13:08:01Z</time>
      </trkpt>
      <trkpt lat="43.04231" lon="1.32439">
        <ele>444.508</ele>
        <time>2019-12-09T13:08:21Z</time>
      </trkpt>
      <trkpt lat="43.04231" lon="1.32405">
        <ele>453.708</ele>
        <time>2019-12-09T13:08:41Z</time>
      </trkpt>
      <trkpt lat="43.04162" lon="1.32284">
        <ele>479.078</ele>
        <time>2019-12-09T13:09:01Z</time>
      </trkpt>
      <trkpt lat="43.04172" lon="1.32224">
        <ele>487.777</ele>
        <time>2019-12-09T13:09:21Z</time>
      </trkpt>
      <trkpt lat="43.04143" lon="1.32246">
        <ele>492.393</ele>
        <time>2019-12-09T13:09:41Z</time>
      </trkpt>
      <trkpt lat="43.04143" lon="1.3216">
        <ele>510.159</ele>
        <time>2019-12-09T13:10:01Z</time>
      </trkpt>
      <trkpt lat="43.04162" lon="1.32141">
        <ele>511.37</ele>
        <time>2019-12-09T13:10:21Z</time>
      </trkpt>
      <trkpt lat="43.04128" lon="1.32139">
        <ele>513.832</ele>
        <time>2019-12-09T13:10:41Z</time>
      </trkpt>
      <trkpt lat="43.04068" lon="1.32175">
        <ele>507.615</ele>
        <time>2019-12-09T13:11:01Z</time>
      </trkpt>
      <trkpt lat="43.04063" lon="1.32119">
        <ele>516.177</ele>
        <time>2019-12-09T13:11:21Z</time>
      </trkpt>
      <trkpt lat="43.0404" lon="1.32121">
        <ele>515.124</ele>
        <time>2019-12-09T13:11:41Z</time>
      </trkpt>
      <trkpt lat="43.04021" lon="1.32143">
        <ele>513.504</ele>
        <time>2019-12-09T13:12:01Z</time>
      </trkpt>
      <trkpt lat="43.0399" lon="1.32093">
        <ele>509.914</ele>
        <time>2019-12-09T13:12:21Z</time>
      </trkpt>
      <trkpt lat="43.03982" lon="1.32031">
        <ele>509.208</ele>
        <time>2019-12-09T13:12:41Z</time>
      </trkpt>
      <trkpt lat="43.03954" lon="1.31967">
        <ele>508.178</ele>
        <time>2019-12-09T13:13:01Z</time>
      </trkpt>
      <trkpt lat="43.03941" lon="1.31956">
        <ele>508.047</ele>
        <time>2019-12-09T13:13:21Z</time>
      </trkpt>
      <trkpt lat="43.03899" lon="1.31868">
        <ele>514.563</ele>
        <time>2019-12-09T13:13:41Z</time>
      </trkpt>
      <trkpt lat="43.03883" lon="1.31778">
        <ele>511.229</ele>
        <time>2019-12-09T13:14:01Z</time>
      </trkpt>
      <trkpt lat="43.03852" lon="1.31722">
        <ele>508.08</ele>
        <time>2019-12-09T13:14:21Z</time>
      </trkpt>
      <trkpt lat="43.03798" lon="1.31664">
        <ele>504.352</ele>
        <time>2019-12-09T13:14:41Z</time>
      </trkpt>
      <trkpt lat="43.03747" lon="1.31621">
        <ele>499.635</ele>
        <time>2019-12-09T13:15:01Z</time>
      </trkpt>
      <trkpt lat="43.03678" lon="1.31497">
        <ele>501.137</ele>
        <time>2019-12-09T13:15:21Z</time>
      </trkpt>
      <trkpt lat="43.03676" lon="1.31308">
        <ele>494.486</ele>
        <time>2019-12-09T13:15:41Z</time>
      </trkpt>
      <trkpt lat="43.03679" lon="1.31205">
        <ele>488.56</ele>
        <time>2019-12-09T13:16:01Z</time>
      </trkpt>
      <trkpt lat="43.03674" lon="1.30978">
        <ele>483.926</ele>
        <time>2019-12-09T13:16:21Z</time>
      </trkpt>
      <trkpt lat="43.03681" lon="1.30907">
        <ele>481.808</ele>
        <time>2019-12-09T13:16:41Z</time>
      </trkpt>
      <trkpt lat="43.03657" lon="1.30789">
        <ele>482.534</ele>
        <time>2019-12-09T13:17:01Z</time>
      </trkpt>
      <trkpt lat="43.03626" lon="1.30757">
        <ele>483.893</ele>
        <time>2019-12-09T13:17:21Z</time>
      </trkpt>
      <trkpt lat="43.03618" lon="1.30733">
        <ele>484.469</ele>
        <time>2019-12-09T13:17:41Z</time>
      </trkpt>
      <trkpt lat="43.0358" lon="1.30712">
        <ele>493.145</ele>
        <time>2019-12-09T13:18:01Z</time>
      </trkpt>
      <trkpt lat="43.03551" lon="1.30639">
        <ele>493.616</ele>
        <time>2019-12-09T13:18:21Z</time>
      </trkpt>
      <trkpt lat="43.03518" lon="1.30591">
        <ele>496.928</ele>
        <time>2019-12-09T13:18:41Z</time>
      </trkpt>
      <trkpt lat="43.03486" lon="1.30581">
        <ele>499.651</ele>
        <time>2019-12-09T13:19:01Z</time>
      </trkpt>
      <trkpt lat="43.03482" lon="1.30557">
        <ele>499.113</ele>
        <time>2019-12-09T13:19:21Z</time>
      </trkpt>
      <trkpt lat="43.03456" lon="1.30531">
        <ele>498.222</ele>
        <time>2019-12-09T13:19:41Z</time>
      </trkpt>
      <trkpt lat="43.03408" lon="1.30458">
        <ele>494.862</ele>
        <time>2019-12-09T13:20:01Z</time>
      </trkpt>
      <trkpt lat="43.03363" lon="1.30442">
        <ele>493.908</ele>
        <time>2019-12-09T13:20:21Z</time>
      </trkpt>
      <trkpt lat="43.03334" lon="1.30438">
        <ele>493.208</ele>
        <time>2019-12-09T13:20:41Z</time>
      </trkpt>
      <trkpt lat="43.03296" lon="1.30418">
        <ele>493.278</ele>
        <time>2019-12-09T13:21:01Z</time>
      </trkpt>
      <trkpt lat="43.03235" lon="1.30448">
        <ele>488.937</ele>
        <time>2019-12-09T13:21:21Z</time>
      </trkpt>
      <trkpt lat="43.03204" lon="1.30529">
        <ele>490.193</ele>
        <time>2019-12-09T13:21:41Z</time>
      </trkpt>
      <trkpt lat="43.03201" lon="1.30557">
        <ele>489.979</ele>
        <time>2019-12-09T13:22:01Z</time>
      </trkpt>
      <trkpt lat="43.03135" lon="1.30645">
        <ele>484.94</ele>
        <time>2019-12-09T13:22:21Z</time>
      </trkpt>
      <trkpt lat="43.0311" lon="1.30654">
        <ele>484.712</ele>
        <time>2019-12-09T13:22:41Z</time>
      </trkpt>
      <trkpt lat="43.03165" lon="1.30446">
        <ele>475.175</ele>
        <time>2019-12-09T13:23:01Z</time>
      </trkpt>
      <trkpt lat="43.03154" lon="1.30293">
        <ele>454.127</ele>
        <time>2019-12-09T13:23:21Z</time>
      </trkpt>
      <trkpt lat="43.03188" lon="1.30225">
        <ele>452.389</ele>
        <time>2019-12-09T13:23:41Z</time>
      </trkpt>
      <trkpt lat="43.03232" lon="1.30199">
        <ele>452.406</ele>
        <time>2019-12-09T13:24:01Z</time>
      </trkpt>
      <trkpt lat="43.03259" lon="1.30137">
        <ele>443.726</ele>
        <time>2019-12-09T13:24:21Z</time>
      </trkpt>
      <trkpt lat="43.03278" lon="1.30053">
        <ele>425.208</ele>
        <time>2019-12-09T13:24:41Z</time>
      </trkpt>
      <trkpt lat="43.03342" lon="1.30079">
        <ele>428.454</ele>
        <time>2019-12-09T13:25:01Z</time>
      </trkpt>
      <trkpt lat="43.0332" lon="1.30046">
        <ele>424.233</ele>
        <time>2019-12-09T13:25:21Z</time>
      </trkpt>
      <trkpt lat="43.03276" lon="1.29967">
        <ele>409.169</ele>
        <time>2019-12-09T13:25:41Z</time>
      </trkpt>
      <trkpt lat="43.03256" lon="1.29939">
        <ele>407.015</ele>
        <time>2019-12-09T13:26:01Z</time>
      </trkpt>
      <trkpt lat="43.03254" lon="1.29808">
        <ele>391.446</ele>
        <time>2019-12-09T13:26:21Z</time>
      </trkpt>
      <trkpt lat="43.03271" lon="1.29804">
        <ele>390.858</ele>
        <time>2019-12-09T13:26:41Z</time>
      </trkpt>
      <trkpt lat="43.03298" lon="1.29825">
        <ele>390.661</ele>
        <time>2019-12-09T13:27:01Z</time>
      </trkpt>
      <trkpt lat="43.03281" lon="1.29789">
        <ele>390.083</ele>
        <time>2019-12-09T13:27:21Z</time>
      </trkpt>
      <trkpt lat="43.03254" lon="1.29774">
        <ele>388.341</ele>
        <time>2019-12-09T13:27:41Z</time>
      </trkpt>
      <trkpt lat="43.03284" lon="1.29772">
        <ele>389.581</ele>
        <time>2019-12-09T13:28:01Z</time>
      </trkpt>
      <trkpt lat="43.03309" lon="1.29793">
        <ele>390.409</ele>
        <time>2019-12-09T13:28:21Z</time>
      </trkpt>
      <trkpt lat="43.03284" lon="1.2975">
        <ele>389.008</ele>
        <time>2019-12-09T13:28:41Z</time>
      </trkpt>
      <trkpt lat="43.03226" lon="1.29746">
        <ele>385.59</ele>
        <time>2019-12-09T13:29:01Z</time>
      </trkpt>
      <trkpt lat="43.03215" lon="1.29714">
        <ele>387.329</ele>
        <time>2019-12-09T13:29:21Z</time>
      </trkpt>
      <trkpt lat="43.03174" lon="1.29707">
        <ele>385.025</ele>
        <time>2019-12-09T13:29:41Z</time>
      </trkpt>
      <trkpt lat="43.031" lon="1.29669">
        <ele>379.321</ele>
        <time>2019-12-09T13:30:01Z</time>
      </trkpt>
      <trkpt lat="43.03016" lon="1.29572">
        <ele>388.642</ele>
        <time>2019-12-09T13:30:21Z</time>
      </trkpt>
      <trkpt lat="43.02989" lon="1.29473">
        <ele>395.224</ele>
        <time>2019-12-09T13:30:41Z</time>
      </trkpt>
      <trkpt lat="43.02953" lon="1.29411">
        <ele>399.837</ele>
        <time>2019-12-09T13:31:01Z</time>
      </trkpt>
      <trkpt lat="43.02918" lon="1.29306">
        <ele>405.289</ele>
        <time>2019-12-09T13:31:21Z</time>
      </trkpt>
      <trkpt lat="43.02862" lon="1.29237">
        <ele>395.541</ele>
        <time>2019-12-09T13:31:41Z</time>
      </trkpt>
      <trkpt lat="43.02809" lon="1.29216">
        <ele>392.481</ele>
        <time>2019-12-09T13:32:01Z</time>
      </trkpt>
      <trkpt lat="43.02806" lon="1.29162">
        <ele>399.509</ele>
        <time>2019-12-09T13:32:21Z</time>
      </trkpt>
      <trkpt lat="43.02818" lon="1.29077">
        <ele>403.208</ele>
        <time>2019-12-09T13:32:41Z</time>
      </trkpt>
      <trkpt lat="43.02798" lon="1.2892">
        <ele>416.02</ele>
        <time>2019-12-09T13:33:01Z</time>
      </trkpt>
      <trkpt lat="43.02784" lon="1.29008">
        <ele>415.429</ele>
        <time>2019-12-09T13:33:21Z</time>
      </trkpt>
      <trkpt lat="43.02768" lon="1.29059">
        <ele>415.115</ele>
        <time>2019-12-09T13:33:41Z</time>
      </trkpt>
      <trkpt lat="43.02748" lon="1.29083">
        <ele>421.921</ele>
        <time>2019-12-09T13:34:01Z</time>
      </trkpt>
      <trkpt lat="43.02744" lon="1.2901">
        <ele>431.582</ele>
        <time>2019-12-09T13:34:21Z</time>
      </trkpt>
      <trkpt lat="43.02716" lon="1.28894">
        <ele>443.984</ele>
        <time>2019-12-09T13:34:41Z</time>
      </trkpt>
      <trkpt lat="43.02689" lon="1.28838">
        <ele>446.927</ele>
        <time>2019-12-09T13:35:01Z</time>
      </trkpt>
      <trkpt lat="43.02658" lon="1.28815">
        <ele>454.179</ele>
        <time>2019-12-09T13:35:21Z</time>
      </trkpt>
      <trkpt lat="43.02573" lon="1.288">
        <ele>469.566</ele>
        <time>2019-12-09T13:35:41Z</time>
      </trkpt>
      <trkpt lat="43.02542" lon="1.28866">
        <ele>468.629</ele>
        <time>2019-12-09T13:36:01Z</time>
      </trkpt>
      <trkpt lat="43.02533" lon="1.28918">
        <ele>464.521</ele>
        <time>2019-12-09T13:36:21Z</time>
      </trkpt>
      <trkpt lat="43.0247" lon="1.29008">
        <ele>465.708</ele>
        <time>2019-12-09T13:36:41Z</time>
      </trkpt>
      <trkpt lat="43.02396" lon="1.28954">
        <ele>474.152</ele>
        <time>2019-12-09T13:37:01Z</time>
      </trkpt>
      <trkpt lat="43.02264" lon="1.28838">
        <ele>484.251</ele>
        <time>2019-12-09T13:37:21Z</time>
      </trkpt>
      <trkpt lat="43.02214" lon="1.28828">
        <ele>484.877</ele>
        <time>2019-12-09T13:37:41Z</time>
      </trkpt>
      <trkpt lat="43.02167" lon="1.28753">
        <ele>484.013</ele>
        <time>2019-12-09T13:38:01Z</time>
      </trkpt>
      <trkpt lat="43.02151" lon="1.2868">
        <ele>484.154</ele>
        <time>2019-12-09T13:38:21Z</time>
      </trkpt>
      <trkpt lat="43.02131" lon="1.28622">
        <ele>486.466</ele>
        <time>2019-12-09T13:38:41Z</time>
      </trkpt>
      <trkpt lat="43.02148" lon="1.28534">
        <ele>488.149</ele>
        <time>2019-12-09T13:39:01Z</time>
      </trkpt>
      <trkpt lat="43.0214" lon="1.28491">
        <ele>488.631</ele>
        <time>2019-12-09T13:39:21Z</time>
      </trkpt>
      <trkpt lat="43.02106" lon="1.28448">
        <ele>491.915</ele>
        <time>2019-12-09T13:39:41Z</time>
      </trkpt>
      <trkpt lat="43.02029" lon="1.28289">
        <ele>491.765</ele>
        <time>2019-12-09T13:40:01Z</time>
      </trkpt>
      <trkpt lat="43.01977" lon="1.28218">
        <ele>485.911</ele>
        <time>2019-12-09T13:40:21Z</time>
      </trkpt>
      <trkpt lat="43.01935" lon="1.28207">
        <ele>485.308</ele>
        <time>2019-12-09T13:40:41Z</time>
      </trkpt>
      <trkpt lat="43.01907" lon="1.28205">
        <ele>485.857</ele>
        <time>2019-12-09T13:41:01Z</time>
      </trkpt>
      <trkpt lat="43.01844" lon="1.2818">
        <ele>485.576</ele>
        <time>2019-12-09T13:41:21Z</time>
      </trkpt>
      <trkpt lat="43.01809" lon="1.2812">
        <ele>483.492</ele>
        <time>2019-12-09T13:41:41Z</time>
      </trkpt>
      <trkpt lat="43.01762" lon="1.28062">
        <ele>481.548</ele>
        <time>2019-12-09T13:42:01Z</time>
      </trkpt>
      <trkpt lat="43.01726" lon="1.28023">
        <ele>478.079</ele>
        <time>2019-12-09T13:42:21Z</time>
      </trkpt>
      <trkpt lat="43.01653" lon="1.27886">
        <ele>469.821</ele>
        <time>2019-12-09T13:42:41Z</time>
      </trkpt>
      <trkpt lat="43.01637" lon="1.27785">
        <ele>460.914</ele>
        <time>2019-12-09T13:43:01Z</time>
      </trkpt>
      <trkpt lat="43.0146" lon="1.27647">
        <ele>450.286</ele>
        <time>2019-12-09T13:43:21Z</time>
      </trkpt>
      <trkpt lat="43.01317" lon="1.27596">
        <ele>459.055</ele>
        <time>2019-12-09T13:43:41Z</time>
      </trkpt>
      <trkpt lat="43.01282" lon="1.27594">
        <ele>461.907</ele>
        <time>2019-12-09T13:44:01Z</time>
      </trkpt>
      <trkpt lat="43.01282" lon="1.27559">
        <ele>458.117</ele>
        <time>2019-12-09T13:44:21Z</time>
      </trkpt>
      <trkpt lat="43.01303" lon="1.27525">
        <ele>459.008</ele>
        <time>2019-12-09T13:44:41Z</time>
      </trkpt>
      <trkpt lat="43.01337" lon="1.27523">
        <ele>457.381</ele>
        <time>2019-12-09T13:45:01Z</time>
      </trkpt>
      <trkpt lat="43.01347" lon="1.27497">
        <ele>464.16</ele>
        <time>2019-12-09T13:45:21Z</time>
      </trkpt>
      <trkpt lat="43.01376" lon="1.2748">
        <ele>466.956</ele>
        <time>2019-12-09T13:45:41Z</time>
      </trkpt>
      <trkpt lat="43.01456" lon="1.27379">
        <ele>486.442</ele>
        <time>2019-12-09T13:46:01Z</time>
      </trkpt>
      <trkpt lat="43.01508" lon="1.27373">
        <ele>487.353</ele>
        <time>2019-12-09T13:46:21Z</time>
      </trkpt>
      <trkpt lat="43.0151" lon="1.27347">
        <ele>490.445</ele>
        <time>2019-12-09T13:46:41Z</time>
      </trkpt>
      <trkpt lat="43.01438" lon="1.27195">
        <ele>503.038</ele>
        <time>2019-12-09T13:47:01Z</time>
      </trkpt>
      <trkpt lat="43.01405" lon="1.27085">
        <ele>495.68</ele>
        <time>2019-12-09T13:47:21Z</time>
      </trkpt>
      <trkpt lat="43.01361" lon="1.27083">
        <ele>490.568</ele>
        <time>2019-12-09T13:47:41Z</time>
      </trkpt>
      <trkpt lat="43.01304" lon="1.27017">
        <ele>489.342</ele>
        <time>2019-12-09T13:48:01Z</time>
      </trkpt>
      <trkpt lat="43.01271" lon="1.26952">
        <ele>487.726</ele>
        <time>2019-12-09T13:48:21Z</time>
      </trkpt>
      <trkpt lat="43.01191" lon="1.26892">
        <ele>486.708</ele>
        <time>2019-12-09T13:48:41Z</time>
      </trkpt>
      <trkpt lat="43.01138" lon="1.26832">
        <ele>484.782</ele>
        <time>2019-12-09T13:49:01Z</time>
      </trkpt>
      <trkpt lat="43.0107" lon="1.26828">
        <ele>483.731</ele>
        <time>2019-12-09T13:49:21Z</time>
      </trkpt>
      <trkpt lat="43.00975" lon="1.26774">
        <ele>489.467</ele>
        <time>2019-12-09T13:49:41Z</time>
      </trkpt>
      <trkpt lat="43.00926" lon="1.26838">
        <ele>490.393</ele>
        <time>2019-12-09T13:50:01Z</time>
      </trkpt>
      <trkpt lat="43.0089" lon="1.26699">
        <ele>496.964</ele>
        <time>2019-12-09T13:50:21Z</time>
      </trkpt>
      <trkpt lat="43.00915" lon="1.26667">
        <ele>500.786</ele>
        <time>2019-12-09T13:50:41Z</time>
      </trkpt>
      <trkpt lat="43.00882" lon="1.26506">
        <ele>505.729</ele>
        <time>2019-12-09T13:51:01Z</time>
      </trkpt>
      <trkpt lat="43.00846" lon="1.26459">
        <ele>509.771</ele>
        <time>2019-12-09T13:51:21Z</time>
      </trkpt>
      <trkpt lat="43.00769" lon="1.26427">
        <ele>509.224</ele>
        <time>2019-12-09T13:51:41Z</time>
      </trkpt>
      <trkpt lat="43.00727" lon="1.26396">
        <ele>513.004</ele>
        <time>2019-12-09T13:52:01Z</time>
      </trkpt>
      <trkpt lat="43.00648" lon="1.26205">
        <ele>511.514</ele>
        <time>2019-12-09T13:52:21Z</time>
      </trkpt>
      <trkpt lat="43.00637" lon="1.26057">
        <ele>513.508</ele>
        <time>2019-12-09T13:52:41Z</time>
      </trkpt>
      <trkpt lat="43.00578" lon="1.25937">
        <ele>504.588</ele>
        <time>2019-12-09T13:53:01Z</time>
      </trkpt>
      <trkpt lat="43.00614" lon="1.25905">
        <ele>513.617</ele>
        <time>2019-12-09T13:53:21Z</time>
      </trkpt>
      <trkpt lat="43.00615" lon="1.25864">
        <ele>514.043</ele>
        <time>2019-12-09T13:53:41Z</time>
      </trkpt>
      <trkpt lat="43.00648" lon="1.25856">
        <ele>517.889</ele>
        <time>2019-12-09T13:54:01Z</time>
      </trkpt>
      <trkpt lat="43.00622" lon="1.25757">
        <ele>516.11</ele>
        <time>2019-12-09T13:54:21Z</time>
      </trkpt>
      <trkpt lat="43.00623" lon="1.25575">
        <ele>516.652</ele>
        <time>2019-12-09T13:54:41Z</time>
      </trkpt>
      <trkpt lat="43.00593" lon="1.25502">
        <ele>514.755</ele>
        <time>2019-12-09T13:55:01Z</time>
      </trkpt>
      <trkpt lat="43.00568" lon="1.25416">
        <ele>517.177</ele>
        <time>2019-12-09T13:55:21Z</time>
      </trkpt>
      <trkpt lat="43.00568" lon="1.25313">
        <ele>515.874</ele>
        <time>2019-12-09T13:55:41Z</time>
      </trkpt>
      <trkpt lat="43.00543" lon="1.25229">
        <ele>514.356</ele>
        <time>2019-12-09T13:56:01Z</time>
      </trkpt>
      <trkpt lat="43.00546" lon="1.25154">
        <ele>513.121</ele>
        <time>2019-12-09T13:56:21Z</time>
      </trkpt>
      <trkpt lat="43.00523" lon="1.25135">
        <ele>512.808</ele>
        <time>2019-12-09T13:56:41Z</time>
      </trkpt>
      <trkpt lat="43.0052" lon="1.25085">
        <ele>512.133</ele>
        <time>2019-12-09T13:57:01Z</time>
      </trkpt>
      <trkpt lat="43.00499" lon="1.2504">
        <ele>509.622</ele>
        <time>2019-12-09T13:57:21Z</time>
      </trkpt>
      <trkpt lat="43.0044" lon="1.25002">
        <ele>504.038</ele>
        <time>2019-12-09T13:57:41Z</time>
      </trkpt>
      <trkpt lat="43.00399" lon="1.24944">
        <ele>492.594</ele>
        <time>2019-12-09T13:58:01Z</time>
      </trkpt>
      <trkpt lat="43.00383" lon="1.24849">
        <ele>488.285</ele>
        <time>2019-12-09T13:58:21Z</time>
      </trkpt>
      <trkpt lat="43.00342" lon="1.24716">
        <ele>481.647</ele>
        <time>2019-12-09T13:58:41Z</time>
      </trkpt>
      <trkpt lat="43.00317" lon="1.24676">
        <ele>477.31</ele>
        <time>2019-12-09T13:59:01Z</time>
      </trkpt>
      <trkpt lat="43.00259" lon="1.24622">
        <ele>471.752</ele>
        <time>2019-12-09T13:59:21Z</time>
      </trkpt>
      <trkpt lat="43.00214" lon="1.24543">
        <ele>465.436</ele>
        <time>2019-12-09T13:59:41Z</time>
      </trkpt>
      <trkpt lat="43.00129" lon="1.24489">
        <ele>470.117</ele>
        <time>2019-12-09T14:00:01Z</time>
      </trkpt>
      <trkpt lat="43.00107" lon="1.24377">
        <ele>479.818</ele>
        <time>2019-12-09T14:00:21Z</time>
      </trkpt>
      <trkpt lat="43.00102" lon="1.24281">
        <ele>484.108</ele>
        <time>2019-12-09T14:00:41Z</time>
      </trkpt>
      <trkpt lat="43.00109" lon="1.24234">
        <ele>485.639</ele>
        <time>2019-12-09T14:01:01Z</time>
      </trkpt>
      <trkpt lat="43.00088" lon="1.24167">
        <ele>494.628</ele>
        <time>2019-12-09T14:01:21Z</time>
      </trkpt>
      <trkpt lat="43.00082" lon="1.2412">
        <ele>497.014</ele>
        <time>2019-12-09T14:01:41Z</time>
      </trkpt>
      <trkpt lat="43.00089" lon="1.24103">
        <ele>496.15</ele>
        <time>2021-02-06T02:42:11Z</time>
      </trkpt>
      <trkpt lat="43.00078" lon="1.24091">
        <ele>496.921</ele>
        <time>2021-02-06T02:42:31Z</time>
      </trkpt>
      <trkpt lat="43.00104" lon="1.24019">
        <ele>494.983</ele>
        <time>2021-02-06T02:42:51Z</time>
      </trkpt>
      <trkpt lat="43.00101" lon="1.23964">
        <ele>493.836</ele>
        <time>2021-02-06T02:43:11Z</time>
      </trkpt>
      <trkpt lat="43.00107" lon="1.2394">
        <ele>493.078</ele>
        <time>2021-02-06T02:43:31Z</time>
      </trkpt>
      <trkpt lat="43.00127" lon="1.23933">
        <ele>493.692</ele>
        <time>2021-02-06T02:43:51Z</time>
      </trkpt>
      <trkpt lat="43.00126" lon="1.23903">
        <ele>489.073</ele>
        <time>2019-12-09T14:02:21Z</time>
      </trkpt>
      <trkpt lat="43.00153" lon="1.23824">
        <ele>480.62</ele>
        <time>2021-02-06T02:44:31Z</time>
      </trkpt>
      <trkpt lat="43.00151" lon="1.238">
        <ele>475.808</ele>
        <time>2021-02-06T02:44:51Z</time>
      </trkpt>
      <trkpt lat="43.00079" lon="1.23802">
        <ele>474.445</ele>
        <time>2019-12-09T14:03:01Z</time>
      </trkpt>
      <trkpt lat="43.00025" lon="1.23761">
        <ele>470.894</ele>
        <time>2019-12-09T14:03:21Z</time>
      </trkpt>
      <trkpt lat="42.99981" lon="1.23753">
        <ele>465.83</ele>
        <time>2019-12-09T14:03:41Z</time>
      </trkpt>
      <trkpt lat="42.99966" lon="1.23719">
        <ele>457.916</ele>
        <time>2019-12-09T14:04:01Z</time>
      </trkpt>
      <trkpt lat="42.99925" lon="1.23716">
        <ele>455.597</ele>
        <time>2019-12-09T14:04:21Z</time>
      </trkpt>
      <trkpt lat="42.99872" lon="1.238">
        <ele>452.229</ele>
        <time>2019-12-09T14:04:41Z</time>
      </trkpt>
      <trkpt lat="42.9989" lon="1.23699">
        <ele>447.032</ele>
        <time>2019-12-09T14:05:01Z</time>
      </trkpt>
      <trkpt lat="42.99961" lon="1.23626">
        <ele>446.794</ele>
        <time>2019-12-09T14:05:21Z</time>
      </trkpt>
      <trkpt lat="43" lon="1.23616">
        <ele>447.825</ele>
        <time>2019-12-09T14:05:41Z</time>
      </trkpt>
      <trkpt lat="42.99983" lon="1.23568">
        <ele>441.126</ele>
        <time>2019-12-09T14:06:01Z</time>
      </trkpt>
      <trkpt lat="43.00008" lon="1.2353">
        <ele>440.508</ele>
        <time>2019-12-09T14:06:21Z</time>
      </trkpt>
      <trkpt lat="43.00033" lon="1.23457">
        <ele>439.808</ele>
        <time>2019-12-09T14:06:41Z</time>
      </trkpt>
      <trkpt lat="43.00038" lon="1.23377">
        <ele>439.878</ele>
        <time>2019-12-09T14:07:01Z</time>
      </trkpt>
      <trkpt lat="43.00094" lon="1.23367">
        <ele>445.537</ele>
        <time>2019-12-09T14:07:21Z</time>
      </trkpt>
      <trkpt lat="43.00102" lon="1.23337">
        <ele>445.483</ele>
        <time>2019-12-09T14:07:41Z</time>
      </trkpt>
      <trkpt lat="43.00047" lon="1.23259">
        <ele>443.479</ele>
        <time>2019-12-09T14:08:01Z</time>
      </trkpt>
      <trkpt lat="43.00041" lon="1.23098">
        <ele>449.37</ele>
        <time>2019-12-09T14:08:21Z</time>
      </trkpt>
      <trkpt lat="43.0006" lon="1.22995">
        <ele>455.822</ele>
        <time>2019-12-09T14:08:41Z</time>
      </trkpt>
      <trkpt lat="43.00061" lon="1.22905">
        <ele>458.775</ele>
        <time>2019-12-09T14:09:01Z</time>
      </trkpt>
      <trkpt lat="43.00047" lon="1.22654">
        <ele>465.427</ele>
        <time>2019-12-09T14:09:21Z</time>
      </trkpt>
      <trkpt lat="43.00033" lon="1.22547">
        <ele>469.699</ele>
        <time>2019-12-09T14:09:41Z</time>
      </trkpt>
      <trkpt lat="43.00065" lon="1.22386">
        <ele>483.607</ele>
        <time>2019-12-09T14:10:01Z</time>
      </trkpt>
      <trkpt lat="43.00082" lon="1.22124">
        <ele>496.627</ele>
        <time>2019-12-09T14:10:21Z</time>
      </trkpt>
      <trkpt lat="43.00072" lon="1.22002">
        <ele>492.608</ele>
        <time>2019-12-09T14:10:41Z</time>
      </trkpt>
      <trkpt lat="43.00094" lon="1.21978">
        <ele>487.745</ele>
        <time>2019-12-09T14:11:01Z</time>
      </trkpt>
      <trkpt lat="43.00116" lon="1.21908">
        <ele>484.764</ele>
        <time>2019-12-09T14:11:21Z</time>
      </trkpt>
      <trkpt lat="43.00167" lon="1.21671">
        <ele>472.24</ele>
        <time>2019-12-09T14:11:41Z</time>
      </trkpt>
      <trkpt lat="43.00242" lon="1.2145">
        <ele>468.946</ele>
        <time>2019-12-09T14:12:01Z</time>
      </trkpt>
      <trkpt lat="43.00267" lon="1.21315">
        <ele>461.857</ele>
        <time>2019-12-09T14:12:21Z</time>
      </trkpt>
      <trkpt lat="43.00303" lon="1.2124">
        <ele>455.969</ele>
        <time>2019-12-09T14:12:41Z</time>
      </trkpt>
      <trkpt lat="43.00306" lon="1.21174">
        <ele>455.082</ele>
        <time>2019-12-09T14:13:01Z</time>
      </trkpt>
      <trkpt lat="43.00346" lon="1.21092">
        <ele>449.864</ele>
        <time>2019-12-09T14:13:21Z</time>
      </trkpt>
      <trkpt lat="43.00469" lon="1.20496">
        <ele>442.219</ele>
        <time>2019-12-09T14:13:41Z</time>
      </trkpt>
      <trkpt lat="43.00488" lon="1.20101">
        <ele>442.909</ele>
        <time>2019-12-09T14:14:01Z</time>
      </trkpt>
      <trkpt lat="43.0054" lon="1.19906">
        <ele>446.519</ele>
        <time>2019-12-09T14:14:21Z</time>
      </trkpt>
      <trkpt lat="43.00402" lon="1.19689">
        <ele>433.908</ele>
        <time>2019-12-09T14:14:41Z</time>
      </trkpt>
      <trkpt lat="43.00311" lon="1.19695">
        <ele>430.727</ele>
        <time>2019-12-09T14:15:01Z</time>
      </trkpt>
      <trkpt lat="43.00265" lon="1.19695">
        <ele>431.076</ele>
        <time>2019-12-09T14:15:21Z</time>
      </trkpt>
      <trkpt lat="43.00079" lon="1.19788">
        <ele>428.842</ele>
        <time>2019-12-09T14:15:41Z</time>
      </trkpt>
      <trkpt lat="42.9998" lon="1.19803">
        <ele>427.418</ele>
        <time>2019-12-09T14:16:01Z</time>
      </trkpt>
      <trkpt lat="42.99972" lon="1.19719">
        <ele>429.129</ele>
        <time>2019-12-09T14:16:21Z</time>
      </trkpt>
      <trkpt lat="42.99941" lon="1.19536">
        <ele>432.721</ele>
        <time>2019-12-09T14:16:41Z</time>
      </trkpt>
      <trkpt lat="42.9992" lon="1.1947">
        <ele>434.574</ele>
        <time>2019-12-09T14:17:01Z</time>
      </trkpt>
      <trkpt lat="42.99916" lon="1.19401">
        <ele>432.476</ele>
        <time>2019-12-09T14:17:21Z</time>
      </trkpt>
      <trkpt lat="42.99933" lon="1.19335">
        <ele>434.135</ele>
        <time>2019-12-09T14:17:41Z</time>
      </trkpt>
      <trkpt lat="42.99916" lon="1.19258">
        <ele>433.586</ele>
        <time>2019-12-09T14:18:01Z</time>
      </trkpt>
      <trkpt lat="42.99923" lon="1.19195">
        <ele>440.514</ele>
        <time>2019-12-09T14:18:21Z</time>
      </trkpt>
      <trkpt lat="42.9992" lon="1.19103">
        <ele>441.908</ele>
        <time>2019-12-09T14:18:41Z</time>
      </trkpt>
      <trkpt lat="42.99945" lon="1.18989">
        <ele>442.629</ele>
        <time>2019-12-09T14:19:01Z</time>
      </trkpt>
      <trkpt lat="42.99919" lon="1.18903">
        <ele>443.378</ele>
        <time>2019-12-09T14:19:21Z</time>
      </trkpt>
      <trkpt lat="42.99906" lon="1.18788">
        <ele>438.744</ele>
        <time>2019-12-09T14:19:41Z</time>
      </trkpt>
      <trkpt lat="42.99845" lon="1.18768">
        <ele>439.81</ele>
        <time>2019-12-09T14:20:01Z</time>
      </trkpt>
      <trkpt lat="42.99846" lon="1.18687">
        <ele>433.461</ele>
        <time>2019-12-09T14:20:21Z</time>
      </trkpt>
      <trkpt lat="42.99807" lon="1.18642">
        <ele>438.233</ele>
        <time>2019-12-09T14:20:41Z</time>
      </trkpt>
      <trkpt lat="42.99804" lon="1.18554">
        <ele>432.646</ele>
        <time>2019-12-09T14:21:01Z</time>
      </trkpt>
      <trkpt lat="42.99857" lon="1.18386">
        <ele>428.748</ele>
        <time>2019-12-09T14:21:21Z</time>
      </trkpt>
      <trkpt lat="42.999" lon="1.18249">
        <ele>445.541</ele>
        <time>2019-12-09T14:21:41Z</time>
      </trkpt>
      <trkpt lat="42.99937" lon="1.18187">
        <ele>449.681</ele>
        <time>2019-12-09T14:22:01Z</time>
      </trkpt>
      <trkpt lat="43.00057" lon="1.17893">
        <ele>438.009</ele>
        <time>2019-12-09T14:22:21Z</time>
      </trkpt>
      <trkpt lat="43.0008" lon="1.17856">
        <ele>437.208</ele>
        <time>2019-12-09T14:22:41Z</time>
      </trkpt>
      <trkpt lat="43.0012" lon="1.17614">
        <ele>432.59</ele>
        <time>2019-12-09T14:23:01Z</time>
      </trkpt>
      <trkpt lat="43.00093" lon="1.17552">
        <ele>432.849</ele>
        <time>2019-12-09T14:23:21Z</time>
      </trkpt>
      <trkpt lat="43.00061" lon="1.17412">
        <ele>434.475</ele>
        <time>2019-12-09T14:23:41Z</time>
      </trkpt>
      <trkpt lat="42.99996" lon="1.17316">
        <ele>436.091</ele>
        <time>2019-12-09T14:24:01Z</time>
      </trkpt>
      <trkpt lat="42.99969" lon="1.17221">
        <ele>439.332</ele>
        <time>2019-12-09T14:24:21Z</time>
      </trkpt>
      <trkpt lat="42.99884" lon="1.17146">
        <ele>439.884</ele>
        <time>2019-12-09T14:24:41Z</time>
      </trkpt>
      <trkpt lat="42.99862" lon="1.17071">
        <ele>444.347</ele>
        <time>2019-12-09T14:25:01Z</time>
      </trkpt>
      <trkpt lat="42.9992" lon="1.16792">
        <ele>432.089</ele>
        <time>2019-12-09T14:25:21Z</time>
      </trkpt>
      <trkpt lat="42.99945" lon="1.16668">
        <ele>424.141</ele>
        <time>2019-12-09T14:25:41Z</time>
      </trkpt>
      <trkpt lat="42.99941" lon="1.16584">
        <ele>420.181</ele>
        <time>2019-12-09T14:26:01Z</time>
      </trkpt>
      <trkpt lat="42.99959" lon="1.16528">
        <ele>418.109</ele>
        <time>2019-12-09T14:26:21Z</time>
      </trkpt>
      <trkpt lat="42.99956" lon="1.16388">
        <ele>423.008</ele>
        <time>2021-02-06T03:08:51Z</time>
      </trkpt>
      <trkpt lat="42.99971" lon="1.1634">
        <ele>427.19</ele>
        <time>2021-02-06T03:09:11Z</time>
      </trkpt>
      <trkpt lat="42.99989" lon="1.16197">
        <ele>436.539</ele>
        <time>2021-02-06T03:09:31Z</time>
      </trkpt>
      <trkpt lat="43.00003" lon="1.16169">
        <ele>439.135</ele>
        <time>2021-02-06T03:09:51Z</time>
      </trkpt>
      <trkpt lat="43" lon="1.16117">
        <ele>443.171</ele>
        <time>2021-02-06T03:10:11Z</time>
      </trkpt>
      <trkpt lat="42.99983" lon="1.1605">
        <ele>447.392</ele>
        <time>2021-02-06T03:10:31Z</time>
      </trkpt>
      <trkpt lat="43.00082" lon="1.1605">
        <ele>453.914</ele>
        <time>2021-02-06T03:10:51Z</time>
      </trkpt>
      <trkpt lat="43.00075" lon="1.15991">
        <ele>457.067</ele>
        <time>2021-02-06T03:11:11Z</time>
      </trkpt>
      <trkpt lat="43.00129" lon="1.15954">
        <ele>457.069</ele>
        <time>2021-02-06T03:11:31Z</time>
      </trkpt>
      <trkpt lat="43.00104" lon="1.15773">
        <ele>467.077</ele>
        <time>2019-12-09T14:29:01Z</time>
      </trkpt>
      <trkpt lat="43.00131" lon="1.15683">
        <ele>467.061</ele>
        <time>2019-12-09T14:29:21Z</time>
      </trkpt>
      <trkpt lat="43.00129" lon="1.15571">
        <ele>466.727</ele>
        <time>2019-12-09T14:29:41Z</time>
      </trkpt>
      <trkpt lat="43.00093" lon="1.15483">
        <ele>470.208</ele>
        <time>2019-12-09T14:30:01Z</time>
      </trkpt>
      <trkpt lat="43.00082" lon="1.15324">
        <ele>470.273</ele>
        <time>2019-12-09T14:30:21Z</time>
      </trkpt>
      <trkpt lat="43.0011" lon="1.14925">
        <ele>472.132</ele>
        <time>2019-12-09T14:30:41Z</time>
      </trkpt>
      <trkpt lat="43.00115" lon="1.14651">
        <ele>457.518</ele>
        <time>2019-12-09T14:31:01Z</time>
      </trkpt>
      <trkpt lat="43.00134" lon="1.14558">
        <ele>455.544</ele>
        <time>2019-12-09T14:31:21Z</time>
      </trkpt>
      <trkpt lat="43.00131" lon="1.14455">
        <ele>452.635</ele>
        <time>2019-12-09T14:31:41Z</time>
      </trkpt>
      <trkpt lat="43.00151" lon="1.14281">
        <ele>440.047</ele>
        <time>2019-12-09T14:32:01Z</time>
      </trkpt>
      <trkpt lat="43.00174" lon="1.14187">
        <ele>429.56</ele>
        <time>2019-12-09T14:32:21Z</time>
      </trkpt>
      <trkpt lat="43.00178" lon="1.14088">
        <ele>423.932</ele>
        <time>2019-12-09T14:32:41Z</time>
      </trkpt>
      <trkpt lat="43.00209" lon="1.14026">
        <ele>422.331</ele>
        <time>2019-12-09T14:33:01Z</time>
      </trkpt>
      <trkpt lat="43.0022" lon="1.13966">
        <ele>423.261</ele>
        <time>2019-12-09T14:33:21Z</time>
      </trkpt>
      <trkpt lat="43.00209" lon="1.13902">
        <ele>426.907</ele>
        <time>2019-12-09T14:33:41Z</time>
      </trkpt>
      <trkpt lat="43.00195" lon="1.13863">
        <ele>427.108</ele>
        <time>2019-12-09T14:34:01Z</time>
      </trkpt>
      <trkpt lat="43.00189" lon="1.1379">
        <ele>433.779</ele>
        <time>2019-12-09T14:34:21Z</time>
      </trkpt>
      <trkpt lat="43.0016" lon="1.13791">
        <ele>424.578</ele>
        <time>2019-12-09T14:34:41Z</time>
      </trkpt>
      <trkpt lat="43.00176" lon="1.1376">
        <ele>433.494</ele>
        <time>2019-12-09T14:35:01Z</time>
      </trkpt>
      <trkpt lat="43.00179" lon="1.13735">
        <ele>435.01</ele>
        <time>2019-12-09T14:35:21Z</time>
      </trkpt>
      <trkpt lat="43.00194" lon="1.13727">
        <ele>436.691</ele>
        <time>2019-12-09T14:35:41Z</time>
      </trkpt>
      <trkpt lat="43.00198" lon="1.13653">
        <ele>432.383</ele>
        <time>2019-12-09T14:36:01Z</time>
      </trkpt>
      <trkpt lat="43.00165" lon="1.13608">
        <ele>418.326</ele>
        <time>2019-12-09T14:36:21Z</time>
      </trkpt>
      <trkpt lat="43.00145" lon="1.13594">
        <ele>417.118</ele>
        <time>2019-12-09T14:36:41Z</time>
      </trkpt>
      <trkpt lat="43.00025" lon="1.13569">
        <ele>391.087</ele>
        <time>2019-12-09T14:37:01Z</time>
      </trkpt>
      <trkpt lat="43.00046" lon="1.13509">
        <ele>388.942</ele>
        <time>2019-12-09T14:37:21Z</time>
      </trkpt>
      <trkpt lat="43.00027" lon="1.13432">
        <ele>390.526</ele>
        <time>2019-12-09T14:37:41Z</time>
      </trkpt>
      <trkpt lat="42.99873" lon="1.13503">
        <ele>385.908</ele>
        <time>2019-12-09T14:38:01Z</time>
      </trkpt>
      <trkpt lat="42.99862" lon="1.13453">
        <ele>394.394</ele>
        <time>2019-12-09T14:38:21Z</time>
      </trkpt>
      <trkpt lat="42.99771" lon="1.13438">
        <ele>399.413</ele>
        <time>2019-12-09T14:38:41Z</time>
      </trkpt>
      <trkpt lat="42.99735" lon="1.13449">
        <ele>405.399</ele>
        <time>2019-12-09T14:39:01Z</time>
      </trkpt>
      <trkpt lat="42.99666" lon="1.13408">
        <ele>414.775</ele>
        <time>2019-12-09T14:39:21Z</time>
      </trkpt>
      <trkpt lat="42.996" lon="1.13442">
        <ele>414.966</ele>
        <time>2019-12-09T14:39:41Z</time>
      </trkpt>
      <trkpt lat="42.99526" lon="1.13453">
        <ele>418.188</ele>
        <time>2019-12-09T14:40:01Z</time>
      </trkpt>
      <trkpt lat="42.99467" lon="1.13483">
        <ele>418.261</ele>
        <time>2019-12-09T14:40:21Z</time>
      </trkpt>
      <trkpt lat="42.99383" lon="1.13475">
        <ele>416.583</ele>
        <time>2019-12-09T14:40:41Z</time>
      </trkpt>
      <trkpt lat="42.99327" lon="1.13412">
        <ele>418.619</ele>
        <time>2019-12-09T14:41:01Z</time>
      </trkpt>
      <trkpt lat="42.99236" lon="1.134">
        <ele>413.609</ele>
        <time>2019-12-09T14:41:21Z</time>
      </trkpt>
      <trkpt lat="42.99128" lon="1.13348">
        <ele>415.119</ele>
        <time>2019-12-09T14:41:41Z</time>
      </trkpt>
      <trkpt lat="42.98996" lon="1.1337">
        <ele>418.608</ele>
        <time>2019-12-09T14:42:01Z</time>
      </trkpt>
      <trkpt lat="42.989" lon="1.13346">
        <ele>419.977</ele>
        <time>2019-12-09T14:42:21Z</time>
      </trkpt>
      <trkpt lat="42.98764" lon="1.13234">
        <ele>425.896</ele>
        <time>2019-12-09T14:42:41Z</time>
      </trkpt>
      <trkpt lat="42.98691" lon="1.13194">
        <ele>424.532</ele>
        <time>2019-12-09T14:43:01Z</time>
      </trkpt>
      <trkpt lat="42.98616" lon="1.13136">
        <ele>425.158</ele>
        <time>2019-12-09T14:43:21Z</time>
      </trkpt>
      <trkpt lat="42.98563" lon="1.13095">
        <ele>424.649</ele>
        <time>2019-12-09T14:43:41Z</time>
      </trkpt>
      <trkpt lat="42.98427" lon="1.12968">
        <ele>426.061</ele>
        <time>2021-02-06T03:26:51Z</time>
      </trkpt>
      <trkpt lat="42.9835" lon="1.13093">
        <ele>417.754</ele>
        <time>2021-02-06T03:27:11Z</time>
      </trkpt>
      <trkpt lat="42.98328" lon="1.13149">
        <ele>411.226</ele>
        <time>2021-02-06T03:27:31Z</time>
      </trkpt>
      <trkpt lat="42.98271" lon="1.13253">
        <ele>398.563</ele>
        <time>2021-02-06T03:27:51Z</time>
      </trkpt>
      <trkpt lat="42.98284" lon="1.13272">
        <ele>398.744</ele>
        <time>2021-02-06T03:28:11Z</time>
      </trkpt>
      <trkpt lat="42.98239" lon="1.13332">
        <ele>398.318</ele>
        <time>2021-02-06T03:28:31Z</time>
      </trkpt>
      <trkpt lat="42.98232" lon="1.1336">
        <ele>398.208</ele>
        <time>2021-02-06T03:28:51Z</time>
      </trkpt>
      <trkpt lat="42.98212" lon="1.13393">
        <ele>398.822</ele>
        <time>2021-02-06T03:29:11Z</time>
      </trkpt>
      <trkpt lat="42.98138" lon="1.13342">
        <ele>401.911</ele>
        <time>2021-02-06T03:29:31Z</time>
      </trkpt>
      <trkpt lat="42.98068" lon="1.13299">
        <ele>404.427</ele>
        <time>2021-02-06T03:29:51Z</time>
      </trkpt>
      <trkpt lat="42.98045" lon="1.13278">
        <ele>405.463</ele>
        <time>2021-02-06T03:30:11Z</time>
      </trkpt>
      <trkpt lat="42.97916" lon="1.13099">
        <ele>409.014</ele>
        <time>2021-02-06T03:30:31Z</time>
      </trkpt>
      <trkpt lat="42.97857" lon="1.12998">
        <ele>407.156</ele>
        <time>2021-02-06T03:30:51Z</time>
      </trkpt>
      <trkpt lat="42.97819" lon="1.1295">
        <ele>411.199</ele>
        <time>2021-02-06T03:31:11Z</time>
      </trkpt>
      <trkpt lat="42.97801" lon="1.12917">
        <ele>413.771</ele>
        <time>2021-02-06T03:31:31Z</time>
      </trkpt>
      <trkpt lat="42.9776" lon="1.12829">
        <ele>413.271</ele>
        <time>2021-02-06T03:31:51Z</time>
      </trkpt>
      <trkpt lat="42.97724" lon="1.12802">
        <ele>420.941</ele>
        <time>2021-02-06T03:32:11Z</time>
      </trkpt>
      <trkpt lat="42.97661" lon="1.12727">
        <ele>422.915</ele>
        <time>2021-02-06T03:32:31Z</time>
      </trkpt>
      <trkpt lat="42.97584" lon="1.12695">
        <ele>437.708</ele>
        <time>2021-02-06T03:32:51Z</time>
      </trkpt>
      <trkpt lat="42.97547" lon="1.12662">
        <ele>441.143</ele>
        <time>2021-02-06T03:33:11Z</time>
      </trkpt>
      <trkpt lat="42.97487" lon="1.12577">
        <ele>441.452</ele>
        <time>2021-02-06T03:33:31Z</time>
      </trkpt>
      <trkpt lat="42.9746" lon="1.12516">
        <ele>435.228</ele>
        <time>2021-02-06T03:33:51Z</time>
      </trkpt>
      <trkpt lat="42.97354" lon="1.12384">
        <ele>437.664</ele>
        <time>2021-02-06T03:34:11Z</time>
      </trkpt>
      <trkpt lat="42.97277" lon="1.12311">
        <ele>435.555</ele>
        <time>2021-02-06T03:34:31Z</time>
      </trkpt>
      <trkpt lat="42.97149" lon="1.12217">
        <ele>441.787</ele>
        <time>2021-02-06T03:34:51Z</time>
      </trkpt>
      <trkpt lat="42.97093" lon="1.12137">
        <ele>443.77</ele>
        <time>2021-02-06T03:35:11Z</time>
      </trkpt>
      <trkpt lat="42.9704" lon="1.11904">
        <ele>431.052</ele>
        <time>2021-02-06T03:35:31Z</time>
      </trkpt>
      <trkpt lat="42.97018" lon="1.11858">
        <ele>433.853</ele>
        <time>2021-02-06T03:35:51Z</time>
      </trkpt>
      <trkpt lat="42.97008" lon="1.11804">
        <ele>430.404</ele>
        <time>2021-02-06T03:36:11Z</time>
      </trkpt>
      <trkpt lat="42.96985" lon="1.11736">
        <ele>434.514</ele>
        <time>2021-02-06T03:36:31Z</time>
      </trkpt>
      <trkpt lat="42.96955" lon="1.1154">
        <ele>437.908</ele>
        <time>2021-02-06T03:36:51Z</time>
      </trkpt>
      <trkpt lat="42.96928" lon="1.11439">
        <ele>443.411</ele>
        <time>2021-02-06T03:37:11Z</time>
      </trkpt>
      <trkpt lat="42.96878" lon="1.11352">
        <ele>444.78</ele>
        <time>2021-02-06T03:37:31Z</time>
      </trkpt>
      <trkpt lat="42.96772" lon="1.11127">
        <ele>439.436</ele>
        <time>2021-02-06T03:37:51Z</time>
      </trkpt>
      <trkpt lat="42.96721" lon="1.11059">
        <ele>441.442</ele>
        <time>2021-02-06T03:38:11Z</time>
      </trkpt>
      <trkpt lat="42.96698" lon="1.11013">
        <ele>439.443</ele>
        <time>2021-02-06T03:38:31Z</time>
      </trkpt>
      <trkpt lat="42.9665" lon="1.10942">
        <ele>437.075</ele>
        <time>2021-02-06T03:38:51Z</time>
      </trkpt>
      <trkpt lat="42.96548" lon="1.10823">
        <ele>434.738</ele>
        <time>2021-02-06T03:39:11Z</time>
      </trkpt>
      <trkpt lat="42.96544" lon="1.10804">
        <ele>434.48</ele>
        <time>2021-02-06T03:39:31Z</time>
      </trkpt>
      <trkpt lat="42.96558" lon="1.10758">
        <ele>430.611</ele>
        <time>2021-02-06T03:39:51Z</time>
      </trkpt>
      <trkpt lat="42.96543" lon="1.10723">
        <ele>431.421</ele>
        <time>2021-02-06T03:40:11Z</time>
      </trkpt>
      <trkpt lat="42.96538" lon="1.10696">
        <ele>431.003</ele>
        <time>2021-02-06T03:40:31Z</time>
      </trkpt>
      <trkpt lat="42.96507" lon="1.10607">
        <ele>431.608</ele>
        <time>2021-02-06T03:40:51Z</time>
      </trkpt>
      <trkpt lat="42.96485" lon="1.10514">
        <ele>431.257</ele>
        <time>2021-02-06T03:41:11Z</time>
      </trkpt>
      <trkpt lat="42.96463" lon="1.10453">
        <ele>433.956</ele>
        <time>2021-02-06T03:41:31Z</time>
      </trkpt>
      <trkpt lat="42.96443" lon="1.10408">
        <ele>437.392</ele>
        <time>2021-02-06T03:41:51Z</time>
      </trkpt>
      <trkpt lat="42.96428" lon="1.10335">
        <ele>434.258</ele>
        <time>2021-02-06T03:42:11Z</time>
      </trkpt>
      <trkpt lat="42.9643" lon="1.10323">
        <ele>433.279</ele>
        <time>2021-02-06T03:42:31Z</time>
      </trkpt>
      <trkpt lat="42.96457" lon="1.10294">
        <ele>428.561</ele>
        <time>2021-02-06T03:42:51Z</time>
      </trkpt>
      <trkpt lat="42.96437" lon="1.1023">
        <ele>427.694</ele>
        <time>2019-12-09T14:53:41Z</time>
      </trkpt>
      <trkpt lat="42.96402" lon="1.10179">
        <ele>430.066</ele>
        <time>2019-12-09T14:54:01Z</time>
      </trkpt>
      <trkpt lat="42.96347" lon="1.10125">
        <ele>428.018</ele>
        <time>2019-12-09T14:54:21Z</time>
      </trkpt>
      <trkpt lat="42.96336" lon="1.10095">
        <ele>426.698</ele>
        <time>2019-12-09T14:54:41Z</time>
      </trkpt>
      <trkpt lat="42.96322" lon="1.0993">
        <ele>425.617</ele>
        <time>2019-12-09T14:55:01Z</time>
      </trkpt>
      <trkpt lat="42.96134" lon="1.09634">
        <ele>428.208</ele>
        <time>2021-02-06T03:44:51Z</time>
      </trkpt>
      <trkpt lat="42.96116" lon="1.09087">
        <ele>436.557</ele>
        <time>2021-02-06T03:45:11Z</time>
      </trkpt>
      <trkpt lat="42.96124" lon="1.09081">
        <ele>437.416</ele>
        <time>2021-02-06T03:45:31Z</time>
      </trkpt>
      <trkpt lat="42.96106" lon="1.08968">
        <ele>437.042</ele>
        <time>2021-02-06T03:45:51Z</time>
      </trkpt>
      <trkpt lat="42.96112" lon="1.0878">
        <ele>444.648</ele>
        <time>2021-02-06T03:46:11Z</time>
      </trkpt>
      <trkpt lat="42.96052" lon="1.08698">
        <ele>441.429</ele>
        <time>2021-02-06T03:46:31Z</time>
      </trkpt>
      <trkpt lat="42.95958" lon="1.08673">
        <ele>438.081</ele>
        <time>2021-02-06T03:46:51Z</time>
      </trkpt>
      <trkpt lat="42.95893" lon="1.08638">
        <ele>437.944</ele>
        <time>2021-02-06T03:47:11Z</time>
      </trkpt>
      <trkpt lat="42.95874" lon="1.08602">
        <ele>438.026</ele>
        <time>2021-02-06T03:47:31Z</time>
      </trkpt>
      <trkpt lat="42.95911" lon="1.08477">
        <ele>439.547</ele>
        <time>2021-02-06T03:47:51Z</time>
      </trkpt>
      <trkpt lat="42.95905" lon="1.08464">
        <ele>439.429</ele>
        <time>2019-12-09T15:01:21Z</time>
      </trkpt>
      <trkpt lat="42.95859" lon="1.08374">
        <ele>440.121</ele>
        <time>2019-12-09T15:01:41Z</time>
      </trkpt>
      <trkpt lat="42.95777" lon="1.08273">
        <ele>440.508</ele>
        <time>2019-12-09T15:02:01Z</time>
      </trkpt>
      <trkpt lat="42.95702" lon="1.08194">
        <ele>441.72</ele>
        <time>2019-12-09T15:02:21Z</time>
      </trkpt>
      <trkpt lat="42.95628" lon="1.07973">
        <ele>462.839</ele>
        <time>2019-12-09T15:02:41Z</time>
      </trkpt>
      <trkpt lat="42.95575" lon="1.07876">
        <ele>459.895</ele>
        <time>2019-12-09T15:03:01Z</time>
      </trkpt>
      <trkpt lat="42.95564" lon="1.07812">
        <ele>464.541</ele>
        <time>2019-12-09T15:03:21Z</time>
      </trkpt>
      <trkpt lat="42.95572" lon="1.07677">
        <ele>477.892</ele>
        <time>2019-12-09T15:03:41Z</time>
      </trkpt>
      <trkpt lat="42.95559" lon="1.0761">
        <ele>483.444</ele>
        <time>2019-12-09T15:04:01Z</time>
      </trkpt>
      <trkpt lat="42.95532" lon="1.07595">
        <ele>483.337</ele>
        <time>2019-12-09T15:04:21Z</time>
      </trkpt>
      <trkpt lat="42.95454" lon="1.07497">
        <ele>486.929</ele>
        <time>2019-12-09T15:04:41Z</time>
      </trkpt>
      <trkpt lat="42.95424" lon="1.07479">
        <ele>485.194</ele>
        <time>2019-12-09T15:05:01Z</time>
      </trkpt>
      <trkpt lat="42.95397" lon="1.07441">
        <ele>478.457</ele>
        <time>2019-12-09T15:05:21Z</time>
      </trkpt>
      <trkpt lat="42.95372" lon="1.07353">
        <ele>482.322</ele>
        <time>2019-12-09T15:05:41Z</time>
      </trkpt>
      <trkpt lat="42.95333" lon="1.07308">
        <ele>478.808</ele>
        <time>2019-12-09T15:06:01Z</time>
      </trkpt>
      <trkpt lat="42.95253" lon="1.07194">
        <ele>484.245</ele>
        <time>2019-12-09T15:06:21Z</time>
      </trkpt>
      <trkpt lat="42.95218" lon="1.07127">
        <ele>480.134</ele>
        <time>2019-12-09T15:06:41Z</time>
      </trkpt>
      <trkpt lat="42.95152" lon="1.07063">
        <ele>476.52</ele>
        <time>2019-12-09T15:07:01Z</time>
      </trkpt>
      <trkpt lat="42.95137" lon="1.06937">
        <ele>478.866</ele>
        <time>2019-12-09T15:07:21Z</time>
      </trkpt>
      <trkpt lat="42.95116" lon="1.06874">
        <ele>480.467</ele>
        <time>2019-12-09T15:07:41Z</time>
      </trkpt>
      <trkpt lat="42.95116" lon="1.06836">
        <ele>480.939</ele>
        <time>2019-12-09T15:08:01Z</time>
      </trkpt>
      <trkpt lat="42.95093" lon="1.06756">
        <ele>483.562</ele>
        <time>2019-12-09T15:08:21Z</time>
      </trkpt>
      <trkpt lat="42.95061" lon="1.06677">
        <ele>478.494</ele>
        <time>2019-12-09T15:08:41Z</time>
      </trkpt>
      <trkpt lat="42.95063" lon="1.06559">
        <ele>480.653</ele>
        <time>2019-12-09T15:09:01Z</time>
      </trkpt>
      <trkpt lat="42.95047" lon="1.0655">
        <ele>479.004</ele>
        <time>2019-12-09T15:09:21Z</time>
      </trkpt>
      <trkpt lat="42.95003" lon="1.06454">
        <ele>478.514</ele>
        <time>2019-12-09T15:09:41Z</time>
      </trkpt>
      <trkpt lat="42.94987" lon="1.06383">
        <ele>474.408</ele>
        <time>2019-12-09T15:10:01Z</time>
      </trkpt>
      <trkpt lat="42.94948" lon="1.06342">
        <ele>472.331</ele>
        <time>2019-12-09T15:10:21Z</time>
      </trkpt>
      <trkpt lat="42.9492" lon="1.06246">
        <ele>474.13</ele>
        <time>2019-12-09T15:10:41Z</time>
      </trkpt>
      <trkpt lat="42.9492" lon="1.06207">
        <ele>479.246</ele>
        <time>2019-12-09T15:11:01Z</time>
      </trkpt>
      <trkpt lat="42.94896" lon="1.06087">
        <ele>470.622</ele>
        <time>2019-12-09T15:11:21Z</time>
      </trkpt>
      <trkpt lat="42.94898" lon="1.05982">
        <ele>470.943</ele>
        <time>2019-12-09T15:11:41Z</time>
      </trkpt>
      <trkpt lat="42.94932" lon="1.05924">
        <ele>478.495</ele>
        <time>2019-12-09T15:12:01Z</time>
      </trkpt>
      <trkpt lat="42.94939" lon="1.05885">
        <ele>477.558</ele>
        <time>2019-12-09T15:12:21Z</time>
      </trkpt>
      <trkpt lat="42.95008" lon="1.05765">
        <ele>481.38</ele>
        <time>2019-12-09T15:12:41Z</time>
      </trkpt>
      <trkpt lat="42.95082" lon="1.05728">
        <ele>484.942</ele>
        <time>2019-12-09T15:13:01Z</time>
      </trkpt>
      <trkpt lat="42.95099" lon="1.05698">
        <ele>496.422</ele>
        <time>2019-12-09T15:13:21Z</time>
      </trkpt>
      <trkpt lat="42.95113" lon="1.05628">
        <ele>488.714</ele>
        <time>2019-12-09T15:13:41Z</time>
      </trkpt>
      <trkpt lat="42.95143" lon="1.05563">
        <ele>491.608</ele>
        <time>2019-12-09T15:14:01Z</time>
      </trkpt>
      <trkpt lat="42.95154" lon="1.05475">
        <ele>497.89</ele>
        <time>2019-12-09T15:14:21Z</time>
      </trkpt>
      <trkpt lat="42.95137" lon="1.0528">
        <ele>511.399</ele>
        <time>2019-12-09T15:14:41Z</time>
      </trkpt>
      <trkpt lat="42.95154" lon="1.05237">
        <ele>521.045</ele>
        <time>2019-12-09T15:15:01Z</time>
      </trkpt>
      <trkpt lat="42.95195" lon="1.05203">
        <ele>546.731</ele>
        <time>2019-12-09T15:15:21Z</time>
      </trkpt>
      <trkpt lat="42.95204" lon="1.0514">
        <ele>550.682</ele>
        <time>2019-12-09T15:15:41Z</time>
      </trkpt>
      <trkpt lat="42.95193" lon="1.05085">
        <ele>547.184</ele>
        <time>2019-12-09T15:16:01Z</time>
      </trkpt>
      <trkpt lat="42.9519" lon="1.05038">
        <ele>550.727</ele>
        <time>2019-12-09T15:16:21Z</time>
      </trkpt>
      <trkpt lat="42.95207" lon="1.04935">
        <ele>553.029</ele>
        <time>2019-12-09T15:16:41Z</time>
      </trkpt>
      <trkpt lat="42.95209" lon="1.04675">
        <ele>535.976</ele>
        <time>2019-12-09T15:17:01Z</time>
      </trkpt>
      <trkpt lat="42.95188" lon="1.04591">
        <ele>525.29</ele>
        <time>2019-12-09T15:17:21Z</time>
      </trkpt>
      <trkpt lat="42.95174" lon="1.04424">
        <ele>513.019</ele>
        <time>2019-12-09T15:17:41Z</time>
      </trkpt>
      <trkpt lat="42.95179" lon="1.04379">
        <ele>514.308</ele>
        <time>2021-02-06T04:04:51Z</time>
      </trkpt>
      <trkpt lat="42.95155" lon="1.04293">
        <ele>511.753</ele>
        <time>2021-02-06T04:05:11Z</time>
      </trkpt>
      <trkpt lat="42.95059" lon="1.04224">
        <ele>486.972</ele>
        <time>2021-02-06T04:05:31Z</time>
      </trkpt>
      <trkpt lat="42.95058" lon="1.04199">
        <ele>486.998</ele>
        <time>2021-02-06T04:05:51Z</time>
      </trkpt>
      <trkpt lat="42.95017" lon="1.04223">
        <ele>482.764</ele>
        <time>2021-02-06T04:06:11Z</time>
      </trkpt>
      <trkpt lat="42.9502" lon="1.04183">
        <ele>484.925</ele>
        <time>2021-02-06T04:06:31Z</time>
      </trkpt>
      <trkpt lat="42.95016" lon="1.04171">
        <ele>485.497</ele>
        <time>2021-02-06T04:06:51Z</time>
      </trkpt>
      <trkpt lat="42.9502" lon="1.04124">
        <ele>494.06</ele>
        <time>2021-02-06T04:07:11Z</time>
      </trkpt>
      <trkpt lat="42.95031" lon="1.041">
        <ele>496.872</ele>
        <time>2021-02-06T04:07:31Z</time>
      </trkpt>
      <trkpt lat="42.95074" lon="1.04042">
        <ele>497.561</ele>
        <time>2021-02-06T04:07:51Z</time>
      </trkpt>
      <trkpt lat="42.95086" lon="1.03994">
        <ele>502.321</ele>
        <time>2021-02-06T04:08:11Z</time>
      </trkpt>
      <trkpt lat="42.95087" lon="1.03961">
        <ele>504.713</ele>
        <time>2021-02-06T04:08:31Z</time>
      </trkpt>
      <trkpt lat="42.95078" lon="1.03965">
        <ele>507.108</ele>
        <time>2021-02-06T04:08:51Z</time>
      </trkpt>
      <trkpt lat="42.95048" lon="1.03909">
        <ele>524.692</ele>
        <time>2021-02-06T04:09:11Z</time>
      </trkpt>
      <trkpt lat="42.95025" lon="1.03897">
        <ele>535.021</ele>
        <time>2021-02-06T04:09:31Z</time>
      </trkpt>
      <trkpt lat="42.94998" lon="1.03898">
        <ele>544.067</ele>
        <time>2021-02-06T04:09:51Z</time>
      </trkpt>
      <trkpt lat="42.94971" lon="1.03852">
        <ele>552.023</ele>
        <time>2021-02-06T04:10:11Z</time>
      </trkpt>
      <trkpt lat="42.94947" lon="1.03791">
        <ele>564.644</ele>
        <time>2021-02-06T04:10:31Z</time>
      </trkpt>
      <trkpt lat="42.94914" lon="1.0378">
        <ele>567.986</ele>
        <time>2021-02-06T04:10:51Z</time>
      </trkpt>
      <trkpt lat="42.94891" lon="1.03789">
        <ele>571.339</ele>
        <time>2021-02-06T04:11:11Z</time>
      </trkpt>
      <trkpt lat="42.94866" lon="1.0373">
        <ele>585.041</ele>
        <time>2021-02-06T04:11:31Z</time>
      </trkpt>
      <trkpt lat="42.94832" lon="1.03746">
        <ele>589.118</ele>
        <time>2021-02-06T04:11:51Z</time>
      </trkpt>
      <trkpt lat="42.94808" lon="1.0375">
        <ele>583.998</ele>
        <time>2021-02-06T04:12:11Z</time>
      </trkpt>
      <trkpt lat="42.94808" lon="1.03733">
        <ele>585.417</ele>
        <time>2021-02-06T04:12:31Z</time>
      </trkpt>
      <trkpt lat="42.94837" lon="1.03599">
        <ele>607.708</ele>
        <time>2021-02-06T04:12:51Z</time>
      </trkpt>
      <trkpt lat="42.94884" lon="1.03489">
        <ele>625.837</ele>
        <time>2021-02-06T04:13:11Z</time>
      </trkpt>
      <trkpt lat="42.94904" lon="1.03413">
        <ele>638.716</ele>
        <time>2021-02-06T04:13:31Z</time>
      </trkpt>
      <trkpt lat="42.94915" lon="1.03299">
        <ele>644.682</ele>
        <time>2021-02-06T04:13:51Z</time>
      </trkpt>
      <trkpt lat="42.94965" lon="1.03154">
        <ele>648.688</ele>
        <time>2021-02-06T04:14:11Z</time>
      </trkpt>
      <trkpt lat="42.94951" lon="1.03154">
        <ele>647.369</ele>
        <time>2021-02-06T04:14:31Z</time>
      </trkpt>
      <trkpt lat="42.94927" lon="1.03113">
        <ele>653.171</ele>
        <time>2021-02-06T04:14:51Z</time>
      </trkpt>
      <trkpt lat="42.94901" lon="1.0306">
        <ele>658.734</ele>
        <time>2021-02-06T04:15:11Z</time>
      </trkpt>
      <trkpt lat="42.94826" lon="1.02981">
        <ele>656.266</ele>
        <time>2021-02-06T04:15:31Z</time>
      </trkpt>
      <trkpt lat="42.94803" lon="1.0297">
        <ele>651.684</ele>
        <time>2021-02-06T04:15:51Z</time>
      </trkpt>
      <trkpt lat="42.94768" lon="1.02965">
        <ele>640.607</ele>
        <time>2021-02-06T04:16:11Z</time>
      </trkpt>
      <trkpt lat="42.94753" lon="1.02946">
        <ele>638.217</ele>
        <time>2021-02-06T04:16:31Z</time>
      </trkpt>
      <trkpt lat="42.94748" lon="1.02878">
        <ele>641.808</ele>
        <time>2021-02-06T04:16:51Z</time>
      </trkpt>
      <trkpt lat="42.9473" lon="1.02805">
        <ele>639.534</ele>
        <time>2021-02-06T04:17:11Z</time>
      </trkpt>
      <trkpt lat="42.94707" lon="1.02743">
        <ele>642.533</ele>
        <time>2021-02-06T04:17:31Z</time>
      </trkpt>
      <trkpt lat="42.94682" lon="1.02732">
        <ele>638.519</ele>
        <time>2021-02-06T04:17:51Z</time>
      </trkpt>
      <trkpt lat="42.94627" lon="1.0275">
        <ele>622.425</ele>
        <time>2021-02-06T04:18:11Z</time>
      </trkpt>
      <trkpt lat="42.94555" lon="1.0284">
        <ele>593.936</ele>
        <time>2021-02-06T04:18:31Z</time>
      </trkpt>
      <trkpt lat="42.9453" lon="1.02859">
        <ele>588.498</ele>
        <time>2021-02-06T04:18:51Z</time>
      </trkpt>
      <trkpt lat="42.94511" lon="1.02856">
        <ele>587.671</ele>
        <time>2021-02-06T04:19:11Z</time>
      </trkpt>
      <trkpt lat="42.94503" lon="1.02797">
        <ele>593.183</ele>
        <time>2021-02-06T04:19:31Z</time>
      </trkpt>
      <trkpt lat="42.94478" lon="1.02722">
        <ele>600.161</ele>
        <time>2021-02-06T04:19:51Z</time>
      </trkpt>
      <trkpt lat="42.9445" lon="1.02722">
        <ele>596.021</ele>
        <time>2021-02-06T04:20:11Z</time>
      </trkpt>
      <trkpt lat="42.94391" lon="1.02758">
        <ele>582.313</ele>
        <time>2021-02-06T04:20:31Z</time>
      </trkpt>
      <trkpt lat="42.94349" lon="1.028">
        <ele>573.508</ele>
        <time>2021-02-06T04:20:51Z</time>
      </trkpt>
      <trkpt lat="42.94326" lon="1.02795">
        <ele>571.452</ele>
        <time>2021-02-06T04:21:11Z</time>
      </trkpt>
      <trkpt lat="42.94282" lon="1.0271">
        <ele>561.941</ele>
        <time>2021-02-06T04:21:31Z</time>
      </trkpt>
      <trkpt lat="42.94277" lon="1.02638">
        <ele>562.777</ele>
        <time>2021-02-06T04:21:51Z</time>
      </trkpt>
      <trkpt lat="42.94269" lon="1.02569">
        <ele>565.393</ele>
        <time>2021-02-06T04:22:11Z</time>
      </trkpt>
      <trkpt lat="42.9427" lon="1.02514">
        <ele>571.874</ele>
        <time>2021-02-06T04:22:31Z</time>
      </trkpt>
      <trkpt lat="42.94256" lon="1.02512">
        <ele>571.936</ele>
        <time>2021-02-06T04:22:51Z</time>
      </trkpt>
      <trkpt lat="42.94152" lon="1.02686">
        <ele>574.999</ele>
        <time>2019-12-09T15:30:01Z</time>
      </trkpt>
      <trkpt lat="42.94103" lon="1.02787">
        <ele>560.541</ele>
        <time>2019-12-09T15:30:21Z</time>
      </trkpt>
      <trkpt lat="42.94073" lon="1.02797">
        <ele>561.552</ele>
        <time>2019-12-09T15:30:41Z</time>
      </trkpt>
      <trkpt lat="42.93959" lon="1.02733">
        <ele>564.553</ele>
        <time>2019-12-09T15:31:01Z</time>
      </trkpt>
      <trkpt lat="42.93965" lon="1.02611">
        <ele>577.908</ele>
        <time>2019-12-09T15:31:21Z</time>
      </trkpt>
      <trkpt lat="42.93959" lon="1.02585">
        <ele>577.808</ele>
        <time>2019-12-09T15:31:41Z</time>
      </trkpt>
      <trkpt lat="42.93902" lon="1.02581">
        <ele>573.971</ele>
        <time>2019-12-09T15:32:01Z</time>
      </trkpt>
      <trkpt lat="42.93871" lon="1.02527">
        <ele>578.38</ele>
        <time>2019-12-09T15:32:21Z</time>
      </trkpt>
      <trkpt lat="42.93845" lon="1.02529">
        <ele>577.986</ele>
        <time>2019-12-09T15:32:41Z</time>
      </trkpt>
      <trkpt lat="42.93803" lon="1.02598">
        <ele>557.862</ele>
        <time>2019-12-09T15:33:01Z</time>
      </trkpt>
      <trkpt lat="42.93757" lon="1.02602">
        <ele>560.483</ele>
        <time>2019-12-09T15:33:21Z</time>
      </trkpt>
      <trkpt lat="42.93687" lon="1.02585">
        <ele>545.345</ele>
        <time>2019-12-09T15:33:41Z</time>
      </trkpt>
      <trkpt lat="42.93651" lon="1.02557">
        <ele>552.588</ele>
        <time>2019-12-09T15:34:01Z</time>
      </trkpt>
      <trkpt lat="42.93619" lon="1.02553">
        <ele>549.84</ele>
        <time>2019-12-09T15:34:21Z</time>
      </trkpt>
      <trkpt lat="42.93571" lon="1.02521">
        <ele>540.843</ele>
        <time>2019-12-09T15:34:41Z</time>
      </trkpt>
      <trkpt lat="42.93522" lon="1.02505">
        <ele>531.564</ele>
        <time>2019-12-09T15:35:01Z</time>
      </trkpt>
      <trkpt lat="42.93442" lon="1.02426">
        <ele>547.11</ele>
        <time>2019-12-09T15:35:21Z</time>
      </trkpt>
      <trkpt lat="42.93379" lon="1.02465">
        <ele>531.408</ele>
        <time>2019-12-09T15:35:41Z</time>
      </trkpt>
      <trkpt lat="42.93314" lon="1.02456">
        <ele>524.86</ele>
        <time>2019-12-09T15:36:01Z</time>
      </trkpt>
      <trkpt lat="42.93223" lon="1.02437">
        <ele>517.949</ele>
        <time>2019-12-09T15:36:21Z</time>
      </trkpt>
      <trkpt lat="42.93183" lon="1.0243">
        <ele>514.935</ele>
        <time>2019-12-09T15:36:41Z</time>
      </trkpt>
      <trkpt lat="42.93135" lon="1.02402">
        <ele>516.741</ele>
        <time>2019-12-09T15:37:01Z</time>
      </trkpt>
      <trkpt lat="42.93099" lon="1.024">
        <ele>513.742</ele>
        <time>2019-12-09T15:37:21Z</time>
      </trkpt>
      <trkpt lat="42.93043" lon="1.02349">
        <ele>510.334</ele>
        <time>2019-12-09T15:37:41Z</time>
      </trkpt>
      <trkpt lat="42.9297" lon="1.02315">
        <ele>510.287</ele>
        <time>2019-12-09T15:38:01Z</time>
      </trkpt>
      <trkpt lat="42.92908" lon="1.02278">
        <ele>510.939</ele>
        <time>2019-12-09T15:38:21Z</time>
      </trkpt>
      <trkpt lat="42.92831" lon="1.02169">
        <ele>509.865</ele>
        <time>2019-12-09T15:38:41Z</time>
      </trkpt>
      <trkpt lat="42.92743" lon="1.02057">
        <ele>516.168</ele>
        <time>2019-12-09T15:39:01Z</time>
      </trkpt>
      <trkpt lat="42.92658" lon="1.01911">
        <ele>521.314</ele>
        <time>2019-12-09T15:39:21Z</time>
      </trkpt>
      <trkpt lat="42.92662" lon="1.01842">
        <ele>521.608</ele>
        <time>2019-12-09T15:39:41Z</time>
      </trkpt>
      <trkpt lat="42.927" lon="1.01705">
        <ele>521.282</ele>
        <time>2019-12-09T15:40:01Z</time>
      </trkpt>
      <trkpt lat="42.92746" lon="1.01628">
        <ele>520.571</ele>
        <time>2019-12-09T15:40:21Z</time>
      </trkpt>
      <trkpt lat="42.92749" lon="1.0157">
        <ele>519.297</ele>
        <time>2019-12-09T15:40:41Z</time>
      </trkpt>
      <trkpt lat="42.927" lon="1.01463">
        <ele>520.293</ele>
        <time>2019-12-09T15:41:01Z</time>
      </trkpt>
      <trkpt lat="42.92739" lon="1.01415">
        <ele>524.554</ele>
        <time>2019-12-09T15:41:21Z</time>
      </trkpt>
      <trkpt lat="42.92727" lon="1.013">
        <ele>530.086</ele>
        <time>2019-12-09T15:41:41Z</time>
      </trkpt>
      <trkpt lat="42.92732" lon="1.01229">
        <ele>538.059</ele>
        <time>2019-12-09T15:42:01Z</time>
      </trkpt>
      <trkpt lat="42.92675" lon="1.01074">
        <ele>538.961</ele>
        <time>2019-12-09T15:42:21Z</time>
      </trkpt>
      <trkpt lat="42.92688" lon="1.01001">
        <ele>544.598</ele>
        <time>2019-12-09T15:42:41Z</time>
      </trkpt>
      <trkpt lat="42.92688" lon="1.00958">
        <ele>548.715</ele>
        <time>2019-12-09T15:43:01Z</time>
      </trkpt>
      <trkpt lat="42.92697" lon="1.00911">
        <ele>551.126</ele>
        <time>2019-12-09T15:43:21Z</time>
      </trkpt>
      <trkpt lat="42.92694" lon="1.00836">
        <ele>552.008</ele>
        <time>2019-12-09T15:43:41Z</time>
      </trkpt>
      <trkpt lat="42.92664" lon="1.00703">
        <ele>545.065</ele>
        <time>2019-12-09T15:44:01Z</time>
      </trkpt>
      <trkpt lat="42.92651" lon="1.00568">
        <ele>549.614</ele>
        <time>2019-12-09T15:44:21Z</time>
      </trkpt>
      <trkpt lat="42.92688" lon="1.00435">
        <ele>558.57</ele>
        <time>2019-12-09T15:44:41Z</time>
      </trkpt>
      <trkpt lat="42.92661" lon="1.00385">
        <ele>545.016</ele>
        <time>2019-12-09T15:45:01Z</time>
      </trkpt>
      <trkpt lat="42.92658" lon="1.00325">
        <ele>547.027</ele>
        <time>2019-12-09T15:45:21Z</time>
      </trkpt>
      <trkpt lat="42.92664" lon="1.00237">
        <ele>543.959</ele>
        <time>2019-12-09T15:45:41Z</time>
      </trkpt>
      <trkpt lat="42.92695" lon="1.00109">
        <ele>548.982</ele>
        <time>2019-12-09T15:46:01Z</time>
      </trkpt>
      <trkpt lat="42.92738" lon="1.00038">
        <ele>543.644</ele>
        <time>2019-12-09T15:46:21Z</time>
      </trkpt>
      <trkpt lat="42.92801" lon="0.99941">
        <ele>548.265</ele>
        <time>2019-12-09T15:46:41Z</time>
      </trkpt>
      <trkpt lat="42.92823" lon="0.99924">
        <ele>549.968</ele>
        <time>2019-12-09T15:47:01Z</time>
      </trkpt>
      <trkpt lat="42.92854" lon="0.9986">
        <ele>554.914</ele>
        <time>2019-12-09T15:47:21Z</time>
      </trkpt>
      <trkpt lat="42.92867" lon="0.99798">
        <ele>547.808</ele>
        <time>2019-12-09T15:47:41Z</time>
      </trkpt>
      <trkpt lat="42.92898" lon="0.99731">
        <ele>542.562</ele>
        <time>2019-12-09T15:48:01Z</time>
      </trkpt>
      <trkpt lat="42.92961" lon="0.99649">
        <ele>542.761</ele>
        <time>2019-12-09T15:48:21Z</time>
      </trkpt>
      <trkpt lat="42.92986" lon="0.99634">
        <ele>544.067</ele>
        <time>2019-12-09T15:48:41Z</time>
      </trkpt>
      <trkpt lat="42.93019" lon="0.99587">
        <ele>547.383</ele>
        <time>2019-12-09T15:49:01Z</time>
      </trkpt>
      <trkpt lat="42.93139" lon="0.9948">
        <ele>541.914</ele>
        <time>2019-12-09T15:49:21Z</time>
      </trkpt>
      <trkpt lat="42.93145" lon="0.99454">
        <ele>540.866</ele>
        <time>2019-12-09T15:49:41Z</time>
      </trkpt>
      <trkpt lat="42.93173" lon="0.9942">
        <ele>541.079</ele>
        <time>2019-12-09T15:50:01Z</time>
      </trkpt>
      <trkpt lat="42.9317" lon="0.99388">
        <ele>540.371</ele>
        <time>2019-12-09T15:50:21Z</time>
      </trkpt>
      <trkpt lat="42.93187" lon="0.99375">
        <ele>540.793</ele>
        <time>2019-12-09T15:50:41Z</time>
      </trkpt>
      <trkpt lat="42.93217" lon="0.99268">
        <ele>542.565</ele>
        <time>2019-12-09T15:51:01Z</time>
      </trkpt>
      <trkpt lat="42.93195" lon="0.9921">
        <ele>542.621</ele>
        <time>2019-12-09T15:51:21Z</time>
      </trkpt>
      <trkpt lat="42.93126" lon="0.99237">
        <ele>539.008</ele>
        <time>2019-12-09T15:51:41Z</time>
      </trkpt>
      <trkpt lat="42.93024" lon="0.99177">
        <ele>535.935</ele>
        <time>2019-12-09T15:52:01Z</time>
      </trkpt>
      <trkpt lat="42.92956" lon="0.99165">
        <ele>536.074</ele>
        <time>2019-12-09T15:52:21Z</time>
      </trkpt>
      <trkpt lat="42.92917" lon="0.99137">
        <ele>536.43</ele>
        <time>2019-12-09T15:52:41Z</time>
      </trkpt>
      <trkpt lat="42.92826" lon="0.99029">
        <ele>554.616</ele>
        <time>2019-12-09T15:53:01Z</time>
      </trkpt>
      <trkpt lat="42.92859" lon="0.9895">
        <ele>550.747</ele>
        <time>2019-12-09T15:53:21Z</time>
      </trkpt>
      <trkpt lat="42.92862" lon="0.98903">
        <ele>555.569</ele>
        <time>2019-12-09T15:53:41Z</time>
      </trkpt>
      <trkpt lat="42.92889" lon="0.98853">
        <ele>552.512</ele>
        <time>2019-12-09T15:54:01Z</time>
      </trkpt>
      <trkpt lat="42.92884" lon="0.98772">
        <ele>561.994</ele>
        <time>2019-12-09T15:54:21Z</time>
      </trkpt>
      <trkpt lat="42.92908" lon="0.98697">
        <ele>566.947</ele>
        <time>2019-12-09T15:54:41Z</time>
      </trkpt>
      <trkpt lat="42.92936" lon="0.98542">
        <ele>559.129</ele>
        <time>2019-12-09T15:55:01Z</time>
      </trkpt>
      <trkpt lat="42.92933" lon="0.98491">
        <ele>563.721</ele>
        <time>2019-12-09T15:55:21Z</time>
      </trkpt>
      <trkpt lat="42.92906" lon="0.98471">
        <ele>573.908</ele>
        <time>2019-12-09T15:55:41Z</time>
      </trkpt>
      <trkpt lat="42.92893" lon="0.98437">
        <ele>574.28</ele>
        <time>2019-12-09T15:56:01Z</time>
      </trkpt>
      <trkpt lat="42.92934" lon="0.98362">
        <ele>571.979</ele>
        <time>2019-12-09T15:56:21Z</time>
      </trkpt>
      <trkpt lat="42.92936" lon="0.98298">
        <ele>579.045</ele>
        <time>2019-12-09T15:56:41Z</time>
      </trkpt>
      <trkpt lat="42.92893" lon="0.98182">
        <ele>605.471</ele>
        <time>2019-12-09T15:57:01Z</time>
      </trkpt>
      <trkpt lat="42.9289" lon="0.9813">
        <ele>603.642</ele>
        <time>2019-12-09T15:57:21Z</time>
      </trkpt>
      <trkpt lat="42.92879" lon="0.98027">
        <ele>597.974</ele>
        <time>2019-12-09T15:57:41Z</time>
      </trkpt>
      <trkpt lat="42.92875" lon="0.97922">
        <ele>588.287</ele>
        <time>2019-12-09T15:58:01Z</time>
      </trkpt>
      <trkpt lat="42.92783" lon="0.97761">
        <ele>593.459</ele>
        <time>2019-12-09T15:58:21Z</time>
      </trkpt>
      <trkpt lat="42.92816" lon="0.97755">
        <ele>584.821</ele>
        <time>2019-12-09T15:58:41Z</time>
      </trkpt>
      <trkpt lat="42.92876" lon="0.97806">
        <ele>580.141</ele>
        <time>2019-12-09T15:59:01Z</time>
      </trkpt>
      <trkpt lat="42.9293" lon="0.97808">
        <ele>580.905</ele>
        <time>2019-12-09T15:59:21Z</time>
      </trkpt>
      <trkpt lat="42.92952" lon="0.97821">
        <ele>581.008</ele>
        <time>2019-12-09T15:59:41Z</time>
      </trkpt>
      <trkpt lat="42.92994" lon="0.97832">
        <ele>578.498</ele>
        <time>2019-12-09T16:00:01Z</time>
      </trkpt>
      <trkpt lat="42.93035" lon="0.97789">
        <ele>575.067</ele>
        <time>2019-12-09T16:00:21Z</time>
      </trkpt>
      <trkpt lat="42.9314" lon="0.97624">
        <ele>579.623</ele>
        <time>2019-12-09T16:00:41Z</time>
      </trkpt>
      <trkpt lat="42.93162" lon="0.97566">
        <ele>585.379</ele>
        <time>2019-12-09T16:01:01Z</time>
      </trkpt>
      <trkpt lat="42.93187" lon="0.97538">
        <ele>573.09</ele>
        <time>2019-12-09T16:01:21Z</time>
      </trkpt>
      <trkpt lat="42.93206" lon="0.97493">
        <ele>577.072</ele>
        <time>2019-12-09T16:01:41Z</time>
      </trkpt>
      <trkpt lat="42.93256" lon="0.97499">
        <ele>564.155</ele>
        <time>2019-12-09T16:02:01Z</time>
      </trkpt>
      <trkpt lat="42.93286" lon="0.97467">
        <ele>564.367</ele>
        <time>2019-12-09T16:02:21Z</time>
      </trkpt>
      <trkpt lat="42.9334" lon="0.97476">
        <ele>556.054</ele>
        <time>2019-12-09T16:02:41Z</time>
      </trkpt>
      <trkpt lat="42.93396" lon="0.97525">
        <ele>551.856</ele>
        <time>2019-12-09T16:03:01Z</time>
      </trkpt>
      <trkpt lat="42.93431" lon="0.97478">
        <ele>552.111</ele>
        <time>2019-12-09T16:03:21Z</time>
      </trkpt>
      <trkpt lat="42.93473" lon="0.97381">
        <ele>552.908</ele>
        <time>2019-12-09T16:03:41Z</time>
      </trkpt>
      <trkpt lat="42.93509" lon="0.97418">
        <ele>551.571</ele>
        <time>2019-12-09T16:04:01Z</time>
      </trkpt>
      <trkpt lat="42.93567" lon="0.97414">
        <ele>552.62</ele>
        <time>2019-12-09T16:04:21Z</time>
      </trkpt>
      <trkpt lat="42.93618" lon="0.97381">
        <ele>554.646</ele>
        <time>2019-12-09T16:04:41Z</time>
      </trkpt>
      <trkpt lat="42.93693" lon="0.97276">
        <ele>560.552</ele>
        <time>2019-12-09T16:05:01Z</time>
      </trkpt>
      <trkpt lat="42.93703" lon="0.97205">
        <ele>559.733</ele>
        <time>2019-12-09T16:05:21Z</time>
      </trkpt>
      <trkpt lat="42.93729" lon="0.9709">
        <ele>559.455</ele>
        <time>2019-12-09T16:05:41Z</time>
      </trkpt>
      <trkpt lat="42.93754" lon="0.97032">
        <ele>563.278</ele>
        <time>2019-12-09T16:06:01Z</time>
      </trkpt>
      <trkpt lat="42.93781" lon="0.97021">
        <ele>564.79</ele>
        <time>2019-12-09T16:06:21Z</time>
      </trkpt>
      <trkpt lat="42.93856" lon="0.97004">
        <ele>576.133</ele>
        <time>2019-12-09T16:06:41Z</time>
      </trkpt>
      <trkpt lat="42.93951" lon="0.96924">
        <ele>597.023</ele>
        <time>2019-12-09T16:07:01Z</time>
      </trkpt>
      <trkpt lat="42.93999" lon="0.96875">
        <ele>611.715</ele>
        <time>2019-12-09T16:07:21Z</time>
      </trkpt>
      <trkpt lat="42.94048" lon="0.96783">
        <ele>636.908</ele>
        <time>2019-12-09T16:07:41Z</time>
      </trkpt>
      <trkpt lat="42.94113" lon="0.96416">
        <ele>705.299</ele>
        <time>2019-12-09T16:08:01Z</time>
      </trkpt>
      <trkpt lat="42.94098" lon="0.96358">
        <ele>706.658</ele>
        <time>2019-12-09T16:08:21Z</time>
      </trkpt>
      <trkpt lat="42.94103" lon="0.96302">
        <ele>707.924</ele>
        <time>2019-12-09T16:08:41Z</time>
      </trkpt>
      <trkpt lat="42.94199" lon="0.96274">
        <ele>723.18</ele>
        <time>2019-12-09T16:09:01Z</time>
      </trkpt>
      <trkpt lat="42.9427" lon="0.96274">
        <ele>730.821</ele>
        <time>2019-12-09T16:09:21Z</time>
      </trkpt>
      <trkpt lat="42.94384" lon="0.96324">
        <ele>736.413</ele>
        <time>2019-12-09T16:09:41Z</time>
      </trkpt>
      <trkpt lat="42.94453" lon="0.96324">
        <ele>739.466</ele>
        <time>2019-12-09T16:10:01Z</time>
      </trkpt>
      <trkpt lat="42.94585" lon="0.96278">
        <ele>752.038</ele>
        <time>2019-12-09T16:10:21Z</time>
      </trkpt>
      <trkpt lat="42.94643" lon="0.96287">
        <ele>757.321</ele>
        <time>2019-12-09T16:10:41Z</time>
      </trkpt>
      <trkpt lat="42.9465" lon="0.96255">
        <ele>759.841</ele>
        <time>2019-12-09T16:11:01Z</time>
      </trkpt>
      <trkpt lat="42.94631" lon="0.96197">
        <ele>757.905</ele>
        <time>2019-12-09T16:11:21Z</time>
      </trkpt>
      <trkpt lat="42.94636" lon="0.96156">
        <ele>760.408</ele>
        <time>2019-12-09T16:11:41Z</time>
      </trkpt>
      <trkpt lat="42.94722" lon="0.96109">
        <ele>778.138</ele>
        <time>2019-12-09T16:12:01Z</time>
      </trkpt>
      <trkpt lat="42.94725" lon="0.96023">
        <ele>780.767</ele>
        <time>2019-12-09T16:12:21Z</time>
      </trkpt>
      <trkpt lat="42.94713" lon="0.95982">
        <ele>789.073</ele>
        <time>2019-12-09T16:12:41Z</time>
      </trkpt>
      <trkpt lat="42.94669" lon="0.95944">
        <ele>790.549</ele>
        <time>2019-12-09T16:13:01Z</time>
      </trkpt>
      <trkpt lat="42.94665" lon="0.95712">
        <ele>818.12</ele>
        <time>2019-12-09T16:13:21Z</time>
      </trkpt>
      <trkpt lat="42.94716" lon="0.95639">
        <ele>814.822</ele>
        <time>2019-12-09T16:13:41Z</time>
      </trkpt>
      <trkpt lat="42.94819" lon="0.95523">
        <ele>808.765</ele>
        <time>2019-12-09T16:14:01Z</time>
      </trkpt>
      <trkpt lat="42.95022" lon="0.95362">
        <ele>801.077</ele>
        <time>2019-12-09T16:14:21Z</time>
      </trkpt>
      <trkpt lat="42.95119" lon="0.95296">
        <ele>785.224</ele>
        <time>2019-12-09T16:14:41Z</time>
      </trkpt>
      <trkpt lat="42.9516" lon="0.95285">
        <ele>783.904</ele>
        <time>2019-12-09T16:15:01Z</time>
      </trkpt>
      <trkpt lat="42.95223" lon="0.95231">
        <ele>776.814</ele>
        <time>2019-12-09T16:15:21Z</time>
      </trkpt>
      <trkpt lat="42.95228" lon="0.95193">
        <ele>776.708</ele>
        <time>2019-12-09T16:15:41Z</time>
      </trkpt>
      <trkpt lat="42.95133" lon="0.95096">
        <ele>790.198</ele>
        <time>2019-12-09T16:16:01Z</time>
      </trkpt>
      <trkpt lat="42.95053" lon="0.94989">
        <ele>828.067</ele>
        <time>2019-12-09T16:16:21Z</time>
      </trkpt>
      <trkpt lat="42.94948" lon="0.94967">
        <ele>832.193</ele>
        <time>2019-12-09T16:16:41Z</time>
      </trkpt>
      <trkpt lat="42.94903" lon="0.94929">
        <ele>834.579</ele>
        <time>2019-12-09T16:17:01Z</time>
      </trkpt>
      <trkpt lat="42.94846" lon="0.94856">
        <ele>845.49</ele>
        <time>2019-12-09T16:17:21Z</time>
      </trkpt>
      <trkpt lat="42.94789" lon="0.94697">
        <ele>849.112</ele>
        <time>2019-12-09T16:17:41Z</time>
      </trkpt>
      <trkpt lat="42.94785" lon="0.94633">
        <ele>859.865</ele>
        <time>2019-12-09T16:18:01Z</time>
      </trkpt>
      <trkpt lat="42.94735" lon="0.94547">
        <ele>860.367</ele>
        <time>2019-12-09T16:18:21Z</time>
      </trkpt>
      <trkpt lat="42.94684" lon="0.9459">
        <ele>840.322</ele>
        <time>2019-12-09T16:18:41Z</time>
      </trkpt>
      <trkpt lat="42.94618" lon="0.94583">
        <ele>846.462</ele>
        <time>2019-12-09T16:19:01Z</time>
      </trkpt>
      <trkpt lat="42.94565" lon="0.9462">
        <ele>827.008</ele>
        <time>2019-12-09T16:19:21Z</time>
      </trkpt>
      <trkpt lat="42.94519" lon="0.9459">
        <ele>826.808</ele>
        <time>2019-12-09T16:19:41Z</time>
      </trkpt>
      <trkpt lat="42.94496" lon="0.94534">
        <ele>836.068</ele>
        <time>2019-12-09T16:20:01Z</time>
      </trkpt>
      <trkpt lat="42.94516" lon="0.94463">
        <ele>854.737</ele>
        <time>2019-12-09T16:20:21Z</time>
      </trkpt>
      <trkpt lat="42.94513" lon="0.94433">
        <ele>855.473</ele>
        <time>2019-12-09T16:20:41Z</time>
      </trkpt>
      <trkpt lat="42.9438" lon="0.94455">
        <ele>840.699</ele>
        <time>2019-12-09T16:21:01Z</time>
      </trkpt>
      <trkpt lat="42.94359" lon="0.94403">
        <ele>841.78</ele>
        <time>2019-12-09T16:21:21Z</time>
      </trkpt>
      <trkpt lat="42.94359" lon="0.94291">
        <ele>831.212</ele>
        <time>2019-12-09T16:21:41Z</time>
      </trkpt>
      <trkpt lat="42.94387" lon="0.94242">
        <ele>820.855</ele>
        <time>2019-12-09T16:22:01Z</time>
      </trkpt>
      <trkpt lat="42.9432" lon="0.94216">
        <ele>809.277</ele>
        <time>2019-12-09T16:22:21Z</time>
      </trkpt>
      <trkpt lat="42.94339" lon="0.94133">
        <ele>803.969</ele>
        <time>2019-12-09T16:22:41Z</time>
      </trkpt>
      <trkpt lat="42.94276" lon="0.94143">
        <ele>790.304</ele>
        <time>2019-12-09T16:23:01Z</time>
      </trkpt>
      <trkpt lat="42.94281" lon="0.94113">
        <ele>788.324</ele>
        <time>2019-12-09T16:23:21Z</time>
      </trkpt>
      <trkpt lat="42.94361" lon="0.94015">
        <ele>784.608</ele>
        <time>2019-12-09T16:23:41Z</time>
      </trkpt>
      <trkpt lat="42.94373" lon="0.93961">
        <ele>782.832</ele>
        <time>2019-12-09T16:24:01Z</time>
      </trkpt>
      <trkpt lat="42.9432" lon="0.93961">
        <ele>774.591</ele>
        <time>2019-12-09T16:24:21Z</time>
      </trkpt>
      <trkpt lat="42.94252" lon="0.93903">
        <ele>782.197</ele>
        <time>2019-12-09T16:24:41Z</time>
      </trkpt>
      <trkpt lat="42.94127" lon="0.9392">
        <ele>758.493</ele>
        <time>2019-12-09T16:25:01Z</time>
      </trkpt>
      <trkpt lat="42.94048" lon="0.93967">
        <ele>754.514</ele>
        <time>2019-12-09T16:25:21Z</time>
      </trkpt>
      <trkpt lat="42.9399" lon="0.93965">
        <ele>751.556</ele>
        <time>2019-12-09T16:25:41Z</time>
      </trkpt>
      <trkpt lat="42.93916" lon="0.93952">
        <ele>735.019</ele>
        <time>2019-12-09T16:26:01Z</time>
      </trkpt>
      <trkpt lat="42.93833" lon="0.93927">
        <ele>728.681</ele>
        <time>2019-12-09T16:26:21Z</time>
      </trkpt>
      <trkpt lat="42.93676" lon="0.93972">
        <ele>698.038</ele>
        <time>2019-12-09T16:26:41Z</time>
      </trkpt>
      <trkpt lat="42.93616" lon="0.93907">
        <ele>692.97</ele>
        <time>2019-12-09T16:27:01Z</time>
      </trkpt>
      <trkpt lat="42.93556" lon="0.93697">
        <ele>683.017</ele>
        <time>2019-12-09T16:27:21Z</time>
      </trkpt>
      <trkpt lat="42.93539" lon="0.93581">
        <ele>683.708</ele>
        <time>2019-12-09T16:27:41Z</time>
      </trkpt>
      <trkpt lat="42.93545" lon="0.93495">
        <ele>687.869</ele>
        <time>2019-12-09T16:28:01Z</time>
      </trkpt>
      <trkpt lat="42.93572" lon="0.93425">
        <ele>693.918</ele>
        <time>2019-12-09T16:28:21Z</time>
      </trkpt>
      <trkpt lat="42.93561" lon="0.93375">
        <ele>697.844</ele>
        <time>2019-12-09T16:28:41Z</time>
      </trkpt>
      <trkpt lat="42.93519" lon="0.933">
        <ele>703.22</ele>
        <time>2019-12-09T16:29:01Z</time>
      </trkpt>
      <trkpt lat="42.9355" lon="0.93141">
        <ele>709.031</ele>
        <time>2019-12-09T16:29:21Z</time>
      </trkpt>
      <trkpt lat="42.93545" lon="0.93096">
        <ele>709.453</ele>
        <time>2019-12-09T16:29:41Z</time>
      </trkpt>
      <trkpt lat="42.93523" lon="0.93021">
        <ele>714.016</ele>
        <time>2019-12-09T16:30:01Z</time>
      </trkpt>
      <trkpt lat="42.93489" lon="0.92989">
        <ele>710.318</ele>
        <time>2019-12-09T16:30:21Z</time>
      </trkpt>
      <trkpt lat="42.93483" lon="0.92944">
        <ele>710.463</ele>
        <time>2019-12-09T16:30:41Z</time>
      </trkpt>
      <trkpt lat="42.93541" lon="0.92835">
        <ele>723.144</ele>
        <time>2019-12-09T16:31:01Z</time>
      </trkpt>
      <trkpt lat="42.93577" lon="0.92684">
        <ele>710.018</ele>
        <time>2019-12-09T16:31:21Z</time>
      </trkpt>
      <trkpt lat="42.93545" lon="0.92714">
        <ele>707.408</ele>
        <time>2019-12-09T16:31:41Z</time>
      </trkpt>
      <trkpt lat="42.93552" lon="0.92644">
        <ele>699.262</ele>
        <time>2019-12-09T16:32:01Z</time>
      </trkpt>
      <trkpt lat="42.93572" lon="0.92598">
        <ele>699.171</ele>
        <time>2019-12-09T16:32:21Z</time>
      </trkpt>
      <trkpt lat="42.93574" lon="0.92543">
        <ele>696.397</ele>
        <time>2019-12-09T16:32:41Z</time>
      </trkpt>
      <trkpt lat="42.93563" lon="0.92521">
        <ele>696.043</ele>
        <time>2019-12-09T16:33:01Z</time>
      </trkpt>
      <trkpt lat="42.93492" lon="0.92517">
        <ele>694.524</ele>
        <time>2019-12-09T16:33:21Z</time>
      </trkpt>
      <trkpt lat="42.93481" lon="0.92468">
        <ele>698.736</ele>
        <time>2019-12-09T16:33:41Z</time>
      </trkpt>
      <trkpt lat="42.93454" lon="0.92448">
        <ele>698.829</ele>
        <time>2019-12-09T16:34:01Z</time>
      </trkpt>
      <trkpt lat="42.93442" lon="0.92392">
        <ele>699.011</ele>
        <time>2019-12-09T16:34:21Z</time>
      </trkpt>
      <trkpt lat="42.93423" lon="0.92386">
        <ele>698.233</ele>
        <time>2019-12-09T16:34:41Z</time>
      </trkpt>
      <trkpt lat="42.93413" lon="0.9235">
        <ele>686.623</ele>
        <time>2019-12-09T16:35:01Z</time>
      </trkpt>
      <trkpt lat="42.93406" lon="0.92283">
        <ele>680.015</ele>
        <time>2019-12-09T16:35:21Z</time>
      </trkpt>
      <trkpt lat="42.93366" lon="0.92223">
        <ele>671.408</ele>
        <time>2019-12-09T16:35:41Z</time>
      </trkpt>
      <trkpt lat="42.93346" lon="0.9215">
        <ele>669.029</ele>
        <time>2019-12-09T16:36:01Z</time>
      </trkpt>
      <trkpt lat="42.93302" lon="0.92103">
        <ele>649.038</ele>
        <time>2019-12-09T16:36:21Z</time>
      </trkpt>
      <trkpt lat="42.93283" lon="0.92015">
        <ele>650.944</ele>
        <time>2019-12-09T16:36:41Z</time>
      </trkpt>
      <trkpt lat="42.93275" lon="0.91942">
        <ele>656.97</ele>
        <time>2019-12-09T16:37:01Z</time>
      </trkpt>
      <trkpt lat="42.9315" lon="0.9192">
        <ele>642.511</ele>
        <time>2019-12-09T16:37:21Z</time>
      </trkpt>
      <trkpt lat="42.93151" lon="0.9188">
        <ele>643.063</ele>
        <time>2019-12-09T16:37:41Z</time>
      </trkpt>
      <trkpt lat="42.93173" lon="0.91821">
        <ele>636.396</ele>
        <time>2021-02-06T05:31:11Z</time>
      </trkpt>
      <trkpt lat="42.93167" lon="0.91797">
        <ele>636.088</ele>
        <time>2021-02-06T05:31:31Z</time>
      </trkpt>
      <trkpt lat="42.93145" lon="0.91797">
        <ele>639.744</ele>
        <time>2021-02-06T05:31:51Z</time>
      </trkpt>
      <trkpt lat="42.93137" lon="0.91782">
        <ele>640.805</ele>
        <time>2021-02-06T05:32:11Z</time>
      </trkpt>
      <trkpt lat="42.931" lon="0.91749">
        <ele>644.115</ele>
        <time>2021-02-06T05:32:31Z</time>
      </trkpt>
      <trkpt lat="42.93069" lon="0.91742">
        <ele>651.708</ele>
        <time>2021-02-06T05:32:51Z</time>
      </trkpt>
      <trkpt lat="42.93059" lon="0.91725">
        <ele>653.99</ele>
        <time>2021-02-06T05:33:11Z</time>
      </trkpt>
      <trkpt lat="42.9306" lon="0.91651">
        <ele>646.229</ele>
        <time>2021-02-06T05:33:31Z</time>
      </trkpt>
      <trkpt lat="42.93048" lon="0.91623">
        <ele>647.265</ele>
        <time>2021-02-06T05:33:51Z</time>
      </trkpt>
      <trkpt lat="42.93026" lon="0.9162">
        <ele>650.831</ele>
        <time>2021-02-06T05:34:11Z</time>
      </trkpt>
      <trkpt lat="42.92972" lon="0.91656">
        <ele>667.442</ele>
        <time>2019-12-09T16:40:41Z</time>
      </trkpt>
      <trkpt lat="42.92937" lon="0.91631">
        <ele>669.334</ele>
        <time>2019-12-09T16:41:01Z</time>
      </trkpt>
      <trkpt lat="42.92853" lon="0.91601">
        <ele>687.657</ele>
        <time>2019-12-09T16:41:21Z</time>
      </trkpt>
      <trkpt lat="42.92713" lon="0.91182">
        <ele>725.919</ele>
        <time>2019-12-09T16:41:41Z</time>
      </trkpt>
      <trkpt lat="42.92686" lon="0.91017">
        <ele>719.469</ele>
        <time>2019-12-09T16:42:01Z</time>
      </trkpt>
      <trkpt lat="42.92596" lon="0.90886">
        <ele>744.604</ele>
        <time>2019-12-09T16:42:21Z</time>
      </trkpt>
      <trkpt lat="42.92595" lon="0.90854">
        <ele>746.524</ele>
        <time>2019-12-09T16:42:41Z</time>
      </trkpt>
      <trkpt lat="42.92617" lon="0.90841">
        <ele>747.808</ele>
        <time>2021-02-06T05:36:51Z</time>
      </trkpt>
      <trkpt lat="42.92664" lon="0.90829">
        <ele>745.872</ele>
        <time>2021-02-06T05:37:11Z</time>
      </trkpt>
      <trkpt lat="42.92602" lon="0.90779">
        <ele>772.621</ele>
        <time>2021-02-06T05:37:31Z</time>
      </trkpt>
      <trkpt lat="42.92533" lon="0.90694">
        <ele>818.827</ele>
        <time>2021-02-06T05:37:51Z</time>
      </trkpt>
      <trkpt lat="42.92516" lon="0.90563">
        <ele>865.613</ele>
        <time>2021-02-06T05:38:11Z</time>
      </trkpt>
      <trkpt lat="42.9252" lon="0.90527">
        <ele>867.484</ele>
        <time>2021-02-06T05:38:31Z</time>
      </trkpt>
      <trkpt lat="42.92602" lon="0.90469">
        <ele>830.776</ele>
        <time>2021-02-06T05:38:51Z</time>
      </trkpt>
      <trkpt lat="42.92638" lon="0.90461">
        <ele>812.669</ele>
        <time>2021-02-06T05:39:11Z</time>
      </trkpt>
      <trkpt lat="42.92642" lon="0.90435">
        <ele>807.241</ele>
        <time>2021-02-06T05:39:31Z</time>
      </trkpt>
      <trkpt lat="42.92659" lon="0.90439">
        <ele>800.415</ele>
        <time>2021-02-06T05:39:51Z</time>
      </trkpt>
      <trkpt lat="42.92679" lon="0.90459">
        <ele>793.165</ele>
        <time>2021-02-06T05:40:11Z</time>
      </trkpt>
      <trkpt lat="42.92689" lon="0.90432">
        <ele>785.311</ele>
        <time>2021-02-06T05:40:31Z</time>
      </trkpt>
      <trkpt lat="42.92717" lon="0.90421">
        <ele>771.408</ele>
        <time>2021-02-06T05:40:51Z</time>
      </trkpt>
      <trkpt lat="42.92716" lon="0.90393">
        <ele>765.127</ele>
        <time>2021-02-06T05:41:11Z</time>
      </trkpt>
      <trkpt lat="42.92749" lon="0.90406">
        <ele>753.776</ele>
        <time>2021-02-06T05:41:31Z</time>
      </trkpt>
      <trkpt lat="42.92752" lon="0.90341">
        <ele>736.042</ele>
        <time>2021-02-06T05:41:51Z</time>
      </trkpt>
      <trkpt lat="42.9274" lon="0.90208">
        <ele>733.078</ele>
        <time>2021-02-06T05:42:11Z</time>
      </trkpt>
      <trkpt lat="42.92818" lon="0.90218">
        <ele>704.539</ele>
        <time>2021-02-06T05:42:31Z</time>
      </trkpt>
      <trkpt lat="42.92854" lon="0.90201">
        <ele>697.471</ele>
        <time>2021-02-06T05:42:51Z</time>
      </trkpt>
      <trkpt lat="42.92917" lon="0.89957">
        <ele>699.284</ele>
        <time>2019-12-09T16:45:41Z</time>
      </trkpt>
      <trkpt lat="42.92867" lon="0.89768">
        <ele>704.726</ele>
        <time>2019-12-09T16:46:01Z</time>
      </trkpt>
      <trkpt lat="42.92824" lon="0.89646">
        <ele>722.925</ele>
        <time>2019-12-09T16:46:21Z</time>
      </trkpt>
      <trkpt lat="42.92834" lon="0.89569">
        <ele>696.326</ele>
        <time>2019-12-09T16:46:41Z</time>
      </trkpt>
      <trkpt lat="42.9285" lon="0.89577">
        <ele>696.808</ele>
        <time>2021-02-06T05:44:31Z</time>
      </trkpt>
      <trkpt lat="42.9287" lon="0.89506">
        <ele>690.008</ele>
        <time>2021-02-06T05:44:51Z</time>
      </trkpt>
      <trkpt lat="42.92882" lon="0.89498">
        <ele>687.728</ele>
        <time>2021-02-06T05:45:11Z</time>
      </trkpt>
      <trkpt lat="42.9289" lon="0.89523">
        <ele>686.757</ele>
        <time>2021-02-06T05:45:31Z</time>
      </trkpt>
      <trkpt lat="42.92902" lon="0.89505">
        <ele>684.483</ele>
        <time>2021-02-06T05:45:51Z</time>
      </trkpt>
      <trkpt lat="42.92986" lon="0.89564">
        <ele>699.199</ele>
        <time>2019-12-09T16:47:41Z</time>
      </trkpt>
      <trkpt lat="42.92986" lon="0.89601">
        <ele>703.14</ele>
        <time>2019-12-09T16:48:01Z</time>
      </trkpt>
      <trkpt lat="42.93041" lon="0.89637">
        <ele>731.142</ele>
        <time>2019-12-09T16:48:21Z</time>
      </trkpt>
      <trkpt lat="42.93047" lon="0.89665">
        <ele>734.265</ele>
        <time>2019-12-09T16:48:41Z</time>
      </trkpt>
      <trkpt lat="42.93216" lon="0.8974">
        <ele>807.067</ele>
        <time>2019-12-09T16:49:01Z</time>
      </trkpt>
      <trkpt lat="42.93238" lon="0.89794">
        <ele>820.837</ele>
        <time>2019-12-09T16:49:21Z</time>
      </trkpt>
      <trkpt lat="42.93346" lon="0.89667">
        <ele>853.749</ele>
        <time>2019-12-09T16:49:41Z</time>
      </trkpt>
      <trkpt lat="42.93446" lon="0.89597">
        <ele>873.913</ele>
        <time>2019-12-09T16:50:01Z</time>
      </trkpt>
      <trkpt lat="42.93556" lon="0.89543">
        <ele>880.108</ele>
        <time>2019-12-09T16:50:21Z</time>
      </trkpt>
      <trkpt lat="42.93696" lon="0.89515">
        <ele>880.839</ele>
        <time>2019-12-09T16:50:41Z</time>
      </trkpt>
      <trkpt lat="42.93797" lon="0.89406">
        <ele>911.468</ele>
        <time>2019-12-09T16:51:01Z</time>
      </trkpt>
      <trkpt lat="42.93849" lon="0.89391">
        <ele>902.354</ele>
        <time>2019-12-09T16:51:21Z</time>
      </trkpt>
      <trkpt lat="42.93937" lon="0.89384">
        <ele>911.81</ele>
        <time>2019-12-09T16:51:41Z</time>
      </trkpt>
      <trkpt lat="42.93935" lon="0.893">
        <ele>910.871</ele>
        <time>2019-12-09T16:52:01Z</time>
      </trkpt>
      <trkpt lat="42.9397" lon="0.89234">
        <ele>905.153</ele>
        <time>2019-12-09T16:52:21Z</time>
      </trkpt>
      <trkpt lat="42.94025" lon="0.8921">
        <ele>901.316</ele>
        <time>2019-12-09T16:52:41Z</time>
      </trkpt>
      <trkpt lat="42.9413" lon="0.89187">
        <ele>898.088</ele>
        <time>2019-12-09T16:53:01Z</time>
      </trkpt>
      <trkpt lat="42.9423" lon="0.8915">
        <ele>888.749</ele>
        <time>2019-12-09T16:53:21Z</time>
      </trkpt>
      <trkpt lat="42.94469" lon="0.88938">
        <ele>888.902</ele>
        <time>2019-12-09T16:53:41Z</time>
      </trkpt>
      <trkpt lat="42.94508" lon="0.88912">
        <ele>886.322</ele>
        <time>2019-12-09T16:54:01Z</time>
      </trkpt>
      <trkpt lat="42.94541" lon="0.88854">
        <ele>884.608</ele>
        <time>2019-12-09T16:54:21Z</time>
      </trkpt>
      <trkpt lat="42.94543" lon="0.888">
        <ele>879.05</ele>
        <time>2019-12-09T16:54:41Z</time>
      </trkpt>
      <trkpt lat="42.94516" lon="0.88751">
        <ele>875.049</ele>
        <time>2019-12-09T16:55:01Z</time>
      </trkpt>
      <trkpt lat="42.94469" lon="0.88713">
        <ele>864.995</ele>
        <time>2019-12-09T16:55:21Z</time>
      </trkpt>
      <trkpt lat="42.94419" lon="0.88635">
        <ele>867.481</ele>
        <time>2019-12-09T16:55:41Z</time>
      </trkpt>
      <trkpt lat="42.94417" lon="0.88588">
        <ele>867.272</ele>
        <time>2019-12-09T16:56:01Z</time>
      </trkpt>
      <trkpt lat="42.94332" lon="0.88483">
        <ele>866.114</ele>
        <time>2019-12-09T16:56:21Z</time>
      </trkpt>
      <trkpt lat="42.94329" lon="0.88431">
        <ele>871.347</ele>
        <time>2019-12-09T16:56:41Z</time>
      </trkpt>
      <trkpt lat="42.94296" lon="0.88316">
        <ele>882.549</ele>
        <time>2019-12-09T16:57:01Z</time>
      </trkpt>
      <trkpt lat="42.94334" lon="0.88307">
        <ele>891.451</ele>
        <time>2019-12-09T16:57:21Z</time>
      </trkpt>
      <trkpt lat="42.9435" lon="0.88217">
        <ele>896.001</ele>
        <time>2019-12-09T16:57:41Z</time>
      </trkpt>
      <trkpt lat="42.9437" lon="0.88155">
        <ele>896.211</ele>
        <time>2019-12-09T16:58:01Z</time>
      </trkpt>
      <trkpt lat="42.94364" lon="0.88039">
        <ele>897.408</ele>
        <time>2019-12-09T16:58:21Z</time>
      </trkpt>
      <trkpt lat="42.94383" lon="0.88">
        <ele>902.941</ele>
        <time>2019-12-09T16:58:41Z</time>
      </trkpt>
      <trkpt lat="42.9437" lon="0.87964">
        <ele>908.41</ele>
        <time>2019-12-09T16:59:01Z</time>
      </trkpt>
      <trkpt lat="42.94334" lon="0.87931">
        <ele>905.396</ele>
        <time>2019-12-09T16:59:21Z</time>
      </trkpt>
      <trkpt lat="42.94279" lon="0.87934">
        <ele>887.062</ele>
        <time>2019-12-09T16:59:41Z</time>
      </trkpt>
      <trkpt lat="42.94246" lon="0.87921">
        <ele>878.453</ele>
        <time>2019-12-09T17:00:01Z</time>
      </trkpt>
      <trkpt lat="42.94249" lon="0.87876">
        <ele>867.465</ele>
        <time>2019-12-09T17:00:21Z</time>
      </trkpt>
      <trkpt lat="42.94298" lon="0.87856">
        <ele>892.988</ele>
        <time>2019-12-09T17:00:41Z</time>
      </trkpt>
      <trkpt lat="42.9432" lon="0.87807">
        <ele>891.95</ele>
        <time>2019-12-09T17:01:01Z</time>
      </trkpt>
      <trkpt lat="42.94314" lon="0.87758">
        <ele>890.195</ele>
        <time>2019-12-09T17:01:21Z</time>
      </trkpt>
      <trkpt lat="42.94243" lon="0.87693">
        <ele>858.949</ele>
        <time>2019-12-09T17:01:41Z</time>
      </trkpt>
      <trkpt lat="42.94243" lon="0.8764">
        <ele>856.623</ele>
        <time>2019-12-09T17:02:01Z</time>
      </trkpt>
      <trkpt lat="42.94271" lon="0.87556">
        <ele>871.508</ele>
        <time>2019-12-09T17:02:21Z</time>
      </trkpt>
      <trkpt lat="42.94276" lon="0.87492">
        <ele>877.425</ele>
        <time>2019-12-09T17:02:41Z</time>
      </trkpt>
      <trkpt lat="42.9424" lon="0.87477">
        <ele>871.964</ele>
        <time>2019-12-09T17:03:01Z</time>
      </trkpt>
      <trkpt lat="42.94177" lon="0.87477">
        <ele>869.79</ele>
        <time>2019-12-09T17:03:21Z</time>
      </trkpt>
      <trkpt lat="42.94142" lon="0.87464">
        <ele>864.856</ele>
        <time>2019-12-09T17:03:41Z</time>
      </trkpt>
      <trkpt lat="42.94116" lon="0.87423">
        <ele>867.617</ele>
        <time>2019-12-09T17:04:01Z</time>
      </trkpt>
      <trkpt lat="42.94075" lon="0.87328">
        <ele>885.349</ele>
        <time>2019-12-09T17:04:21Z</time>
      </trkpt>
      <trkpt lat="42.93985" lon="0.87236">
        <ele>877.642</ele>
        <time>2019-12-09T17:04:41Z</time>
      </trkpt>
      <trkpt lat="42.93937" lon="0.8715">
        <ele>878.454</ele>
        <time>2019-12-09T17:05:01Z</time>
      </trkpt>
      <trkpt lat="42.93897" lon="0.87103">
        <ele>859.511</ele>
        <time>2019-12-09T17:05:21Z</time>
      </trkpt>
      <trkpt lat="42.93894" lon="0.87052">
        <ele>860.121</ele>
        <time>2019-12-09T17:05:41Z</time>
      </trkpt>
      <trkpt lat="42.9393" lon="0.86893">
        <ele>863.503</ele>
        <time>2019-12-09T17:06:01Z</time>
      </trkpt>
      <trkpt lat="42.93993" lon="0.86749">
        <ele>856.708</ele>
        <time>2019-12-09T17:06:21Z</time>
      </trkpt>
      <trkpt lat="42.9401" lon="0.86723">
        <ele>862.327</ele>
        <time>2019-12-09T17:06:41Z</time>
      </trkpt>
      <trkpt lat="42.94007" lon="0.86663">
        <ele>857.026</ele>
        <time>2019-12-09T17:07:01Z</time>
      </trkpt>
      <trkpt lat="42.94036" lon="0.86597">
        <ele>861.442</ele>
        <time>2019-12-09T17:07:21Z</time>
      </trkpt>
      <trkpt lat="42.94089" lon="0.86558">
        <ele>869.018</ele>
        <time>2019-12-09T17:07:41Z</time>
      </trkpt>
      <trkpt lat="42.94124" lon="0.86481">
        <ele>881.699</ele>
        <time>2019-12-09T17:08:01Z</time>
      </trkpt>
      <trkpt lat="42.94127" lon="0.86455">
        <ele>884.681</ele>
        <time>2019-12-09T17:08:21Z</time>
      </trkpt>
      <trkpt lat="42.94219" lon="0.86421">
        <ele>888.384</ele>
        <time>2019-12-09T17:08:41Z</time>
      </trkpt>
      <trkpt lat="42.9424" lon="0.86378">
        <ele>902.766</ele>
        <time>2019-12-09T17:09:01Z</time>
      </trkpt>
      <trkpt lat="42.94254" lon="0.8626">
        <ele>918.125</ele>
        <time>2019-12-09T17:09:21Z</time>
      </trkpt>
      <trkpt lat="42.94263" lon="0.86163">
        <ele>930.926</ele>
        <time>2019-12-09T17:09:41Z</time>
      </trkpt>
      <trkpt lat="42.94307" lon="0.86065">
        <ele>945.908</ele>
        <time>2019-12-09T17:10:01Z</time>
      </trkpt>
      <trkpt lat="42.94331" lon="0.85912">
        <ele>966.408</ele>
        <time>2019-12-09T17:10:21Z</time>
      </trkpt>
      <trkpt lat="42.94376" lon="0.85841">
        <ele>971.978</ele>
        <time>2019-12-09T17:10:41Z</time>
      </trkpt>
      <trkpt lat="42.9448" lon="0.85865">
        <ele>983.337</ele>
        <time>2019-12-09T17:11:01Z</time>
      </trkpt>
      <trkpt lat="42.94538" lon="0.85848">
        <ele>1004.173</ele>
        <time>2019-12-09T17:11:21Z</time>
      </trkpt>
      <trkpt lat="42.9457" lon="0.857">
        <ele>1022.659</ele>
        <time>2019-12-09T17:11:41Z</time>
      </trkpt>
      <trkpt lat="42.94568" lon="0.85511">
        <ele>1056.62</ele>
        <time>2019-12-09T17:12:01Z</time>
      </trkpt>
      <trkpt lat="42.94511" lon="0.85468">
        <ele>1065.442</ele>
        <time>2019-12-09T17:12:21Z</time>
      </trkpt>
      <trkpt lat="42.94485" lon="0.85391">
        <ele>1074.385</ele>
        <time>2019-12-09T17:12:41Z</time>
      </trkpt>
      <trkpt lat="42.94529" lon="0.85352">
        <ele>1081.527</ele>
        <time>2019-12-09T17:13:01Z</time>
      </trkpt>
      <trkpt lat="42.94544" lon="0.85309">
        <ele>1084.432</ele>
        <time>2019-12-09T17:13:21Z</time>
      </trkpt>
      <trkpt lat="42.94551" lon="0.85262">
        <ele>1084.892</ele>
        <time>2019-12-09T17:13:41Z</time>
      </trkpt>
      <trkpt lat="42.94598" lon="0.85144">
        <ele>1098.111</ele>
        <time>2019-12-09T17:14:01Z</time>
      </trkpt>
      <trkpt lat="42.94625" lon="0.85026">
        <ele>1097.708</ele>
        <time>2019-12-09T17:14:21Z</time>
      </trkpt>
      <trkpt lat="42.94664" lon="0.84945">
        <ele>1094.169</ele>
        <time>2019-12-09T17:14:41Z</time>
      </trkpt>
      <trkpt lat="42.94708" lon="0.8493">
        <ele>1112.348</ele>
        <time>2019-12-09T17:15:01Z</time>
      </trkpt>
      <trkpt lat="42.94761" lon="0.8494">
        <ele>1131.994</ele>
        <time>2019-12-09T17:15:21Z</time>
      </trkpt>
      <trkpt lat="42.94761" lon="0.84762">
        <ele>1119.57</ele>
        <time>2019-12-09T17:15:41Z</time>
      </trkpt>
      <trkpt lat="42.9481" lon="0.84668">
        <ele>1132.181</ele>
        <time>2019-12-09T17:16:01Z</time>
      </trkpt>
      <trkpt lat="42.94816" lon="0.84556">
        <ele>1126.913</ele>
        <time>2019-12-09T17:16:21Z</time>
      </trkpt>
      <trkpt lat="42.94843" lon="0.84412">
        <ele>1151.176</ele>
        <time>2019-12-09T17:16:41Z</time>
      </trkpt>
      <trkpt lat="42.94829" lon="0.84247">
        <ele>1147.168</ele>
        <time>2019-12-09T17:17:01Z</time>
      </trkpt>
      <trkpt lat="42.94866" lon="0.84054">
        <ele>1167.735</ele>
        <time>2019-12-09T17:17:21Z</time>
      </trkpt>
      <trkpt lat="42.9489" lon="0.83818">
        <ele>1179.086</ele>
        <time>2019-12-09T17:17:41Z</time>
      </trkpt>
      <trkpt lat="42.94909" lon="0.83494">
        <ele>1175.814</ele>
        <time>2019-12-09T17:18:01Z</time>
      </trkpt>
      <trkpt lat="42.94936" lon="0.83406">
        <ele>1174.308</ele>
        <time>2019-12-09T17:18:21Z</time>
      </trkpt>
      <trkpt lat="42.94953" lon="0.83333">
        <ele>1148.919</ele>
        <time>2019-12-09T17:18:41Z</time>
      </trkpt>
      <trkpt lat="42.94986" lon="0.83333">
        <ele>1156.758</ele>
        <time>2019-12-09T17:19:01Z</time>
      </trkpt>
      <trkpt lat="42.95035" lon="0.83387">
        <ele>1167.814</ele>
        <time>2019-12-09T17:19:21Z</time>
      </trkpt>
      <trkpt lat="42.951" lon="0.83419">
        <ele>1165.18</ele>
        <time>2019-12-09T17:19:41Z</time>
      </trkpt>
      <trkpt lat="42.95281" lon="0.8353">
        <ele>1175.061</ele>
        <time>2019-12-09T17:20:01Z</time>
      </trkpt>
      <trkpt lat="42.95311" lon="0.8353">
        <ele>1176.873</ele>
        <time>2019-12-09T17:20:21Z</time>
      </trkpt>
      <trkpt lat="42.95352" lon="0.83485">
        <ele>1172.986</ele>
        <time>2019-12-09T17:20:41Z</time>
      </trkpt>
      <trkpt lat="42.95358" lon="0.8341">
        <ele>1146.078</ele>
        <time>2019-12-09T17:21:01Z</time>
      </trkpt>
      <trkpt lat="42.95416" lon="0.83361">
        <ele>1161.076</ele>
        <time>2019-12-09T17:21:21Z</time>
      </trkpt>
      <trkpt lat="42.9541" lon="0.83277">
        <ele>1143.29</ele>
        <time>2019-12-09T17:21:41Z</time>
      </trkpt>
      <trkpt lat="42.95424" lon="0.83219">
        <ele>1169.919</ele>
        <time>2019-12-09T17:22:01Z</time>
      </trkpt>
      <trkpt lat="42.95421" lon="0.83134">
        <ele>1157.808</ele>
        <time>2019-12-09T17:22:21Z</time>
      </trkpt>
      <trkpt lat="42.95462" lon="0.83028">
        <ele>1151.933</ele>
        <time>2019-12-09T17:22:41Z</time>
      </trkpt>
      <trkpt lat="42.95476" lon="0.82979">
        <ele>1145.812</ele>
        <time>2019-12-09T17:23:01Z</time>
      </trkpt>
      <trkpt lat="42.95482" lon="0.82915">
        <ele>1136.798</ele>
        <time>2019-12-09T17:23:21Z</time>
      </trkpt>
      <trkpt lat="42.9551" lon="0.82897">
        <ele>1141.864</ele>
        <time>2019-12-09T17:23:41Z</time>
      </trkpt>
      <trkpt lat="42.95572" lon="0.82919">
        <ele>1153.425</ele>
        <time>2019-12-09T17:24:01Z</time>
      </trkpt>
      <trkpt lat="42.95622" lon="0.829">
        <ele>1136.627</ele>
        <time>2019-12-09T17:24:21Z</time>
      </trkpt>
      <trkpt lat="42.9568" lon="0.82893">
        <ele>1149.78</ele>
        <time>2019-12-09T17:24:41Z</time>
      </trkpt>
      <trkpt lat="42.95716" lon="0.82717">
        <ele>1093.492</ele>
        <time>2019-12-09T17:25:01Z</time>
      </trkpt>
      <trkpt lat="42.95763" lon="0.827">
        <ele>1107.515</ele>
        <time>2019-12-09T17:25:21Z</time>
      </trkpt>
      <trkpt lat="42.95917" lon="0.82749">
        <ele>1138.265</ele>
        <time>2021-02-06T06:24:11Z</time>
      </trkpt>
      <trkpt lat="42.95892" lon="0.82674">
        <ele>1125.611</ele>
        <time>2021-02-06T06:24:31Z</time>
      </trkpt>
      <trkpt lat="42.95895" lon="0.82643">
        <ele>1121.708</ele>
        <time>2021-02-06T06:24:51Z</time>
      </trkpt>
      <trkpt lat="42.95929" lon="0.82615">
        <ele>1128.527</ele>
        <time>2021-02-06T06:25:11Z</time>
      </trkpt>
      <trkpt lat="42.95946" lon="0.82475">
        <ele>1103.886</ele>
        <time>2021-02-06T06:25:31Z</time>
      </trkpt>
      <trkpt lat="42.95973" lon="0.82411">
        <ele>1099.662</ele>
        <time>2021-02-06T06:25:51Z</time>
      </trkpt>
      <trkpt lat="42.95967" lon="0.82379">
        <ele>1096.038</ele>
        <time>2021-02-06T06:26:11Z</time>
      </trkpt>
      <trkpt lat="42.9601" lon="0.82363">
        <ele>1100.999</ele>
        <time>2019-12-09T17:28:21Z</time>
      </trkpt>
      <trkpt lat="42.96066" lon="0.82357">
        <ele>1104.251</ele>
        <time>2019-12-09T17:28:41Z</time>
      </trkpt>
      <trkpt lat="42.96095" lon="0.82305">
        <ele>1099.564</ele>
        <time>2019-12-09T17:29:01Z</time>
      </trkpt>
      <trkpt lat="42.96129" lon="0.8231">
        <ele>1103.596</ele>
        <time>2019-12-09T17:29:21Z</time>
      </trkpt>
      <trkpt lat="42.96179" lon="0.82157">
        <ele>1072.088</ele>
        <time>2019-12-09T17:29:41Z</time>
      </trkpt>
      <trkpt lat="42.96212" lon="0.82134">
        <ele>1078.224</ele>
        <time>2019-12-09T17:30:01Z</time>
      </trkpt>
      <trkpt lat="42.96211" lon="0.82089">
        <ele>1073.426</ele>
        <time>2019-12-09T17:30:21Z</time>
      </trkpt>
      <trkpt lat="42.96242" lon="0.81928">
        <ele>1045.808</ele>
        <time>2019-12-09T17:30:41Z</time>
      </trkpt>
      <trkpt lat="42.96336" lon="0.81719">
        <ele>1051.024</ele>
        <time>2019-12-09T17:31:01Z</time>
      </trkpt>
      <trkpt lat="42.96341" lon="0.81638">
        <ele>1033.923</ele>
        <time>2019-12-09T17:31:21Z</time>
      </trkpt>
      <trkpt lat="42.96374" lon="0.81479">
        <ele>1013.289</ele>
        <time>2019-12-09T17:31:41Z</time>
      </trkpt>
      <trkpt lat="42.96383" lon="0.81301">
        <ele>988.195</ele>
        <time>2019-12-09T17:32:01Z</time>
      </trkpt>
      <trkpt lat="42.96382" lon="0.81144">
        <ele>961.646</ele>
        <time>2019-12-09T17:32:21Z</time>
      </trkpt>
      <trkpt lat="42.96399" lon="0.80951">
        <ele>931.258</ele>
        <time>2019-12-09T17:32:41Z</time>
      </trkpt>
      <trkpt lat="42.96429" lon="0.80863">
        <ele>931.141</ele>
        <time>2019-12-09T17:33:01Z</time>
      </trkpt>
      <trkpt lat="42.96506" lon="0.8082">
        <ele>913.993</ele>
        <time>2019-12-09T17:33:21Z</time>
      </trkpt>
      <trkpt lat="42.96589" lon="0.80799">
        <ele>890.741</ele>
        <time>2019-12-09T17:33:41Z</time>
      </trkpt>
      <trkpt lat="42.96621" lon="0.80769">
        <ele>884.681</ele>
        <time>2019-12-09T17:34:01Z</time>
      </trkpt>
      <trkpt lat="42.96679" lon="0.80743">
        <ele>868.209</ele>
        <time>2019-12-09T17:34:21Z</time>
      </trkpt>
      <trkpt lat="42.96806" lon="0.80728">
        <ele>839.508</ele>
        <time>2019-12-09T17:34:41Z</time>
      </trkpt>
      <trkpt lat="42.96807" lon="0.80775">
        <ele>851.32</ele>
        <time>2019-12-09T17:35:01Z</time>
      </trkpt>
      <trkpt lat="42.96859" lon="0.80859">
        <ele>844.299</ele>
        <time>2019-12-09T17:35:21Z</time>
      </trkpt>
      <trkpt lat="42.96867" lon="0.80908">
        <ele>848.865</ele>
        <time>2019-12-09T17:35:41Z</time>
      </trkpt>
      <trkpt lat="42.96903" lon="0.8088">
        <ele>840.421</ele>
        <time>2019-12-09T17:36:01Z</time>
      </trkpt>
      <trkpt lat="42.96905" lon="0.80829">
        <ele>822.362</ele>
        <time>2019-12-09T17:36:21Z</time>
      </trkpt>
      <trkpt lat="42.96939" lon="0.80807">
        <ele>815.214</ele>
        <time>2019-12-09T17:36:41Z</time>
      </trkpt>
      <trkpt lat="42.9699" lon="0.80835">
        <ele>832.157</ele>
        <time>2019-12-09T17:37:01Z</time>
      </trkpt>
      <trkpt lat="42.97004" lon="0.80823">
        <ele>832.589</ele>
        <time>2019-12-09T17:37:21Z</time>
      </trkpt>
      <trkpt lat="42.97007" lon="0.80745">
        <ele>809.527</ele>
        <time>2019-12-09T17:37:41Z</time>
      </trkpt>
      <trkpt lat="42.97026" lon="0.80702">
        <ele>810.968</ele>
        <time>2019-12-09T17:38:01Z</time>
      </trkpt>
      <trkpt lat="42.97054" lon="0.80683">
        <ele>817.414</ele>
        <time>2019-12-09T17:38:21Z</time>
      </trkpt>
      <trkpt lat="42.97045" lon="0.80604">
        <ele>802.508</ele>
        <time>2019-12-09T17:38:41Z</time>
      </trkpt>
      <trkpt lat="42.97025" lon="0.80577">
        <ele>790.918</ele>
        <time>2019-12-09T17:39:01Z</time>
      </trkpt>
      <trkpt lat="42.9703" lon="0.80547">
        <ele>795.117</ele>
        <time>2019-12-09T17:39:21Z</time>
      </trkpt>
      <trkpt lat="42.9703" lon="0.8049">
        <ele>789.753</ele>
        <time>2019-12-09T17:39:41Z</time>
      </trkpt>
      <trkpt lat="42.97045" lon="0.80389">
        <ele>782.639</ele>
        <time>2019-12-09T17:40:01Z</time>
      </trkpt>
      <trkpt lat="42.97062" lon="0.80345">
        <ele>783.97</ele>
        <time>2019-12-09T17:40:21Z</time>
      </trkpt>
      <trkpt lat="42.97082" lon="0.80267">
        <ele>770.332</ele>
        <time>2019-12-09T17:40:41Z</time>
      </trkpt>
      <trkpt lat="42.97114" lon="0.80193">
        <ele>774.265</ele>
        <time>2019-12-09T17:41:01Z</time>
      </trkpt>
      <trkpt lat="42.97193" lon="0.8012">
        <ele>772.047</ele>
        <time>2019-12-09T17:41:21Z</time>
      </trkpt>
      <trkpt lat="42.97232" lon="0.80055">
        <ele>753.483</ele>
        <time>2019-12-09T17:41:41Z</time>
      </trkpt>
      <trkpt lat="42.97183" lon="0.80083">
        <ele>746.825</ele>
        <time>2019-12-09T17:42:01Z</time>
      </trkpt>
      <trkpt lat="42.97127" lon="0.80101">
        <ele>748.317</ele>
        <time>2019-12-09T17:42:21Z</time>
      </trkpt>
      <trkpt lat="42.97072" lon="0.80101">
        <ele>729.908</ele>
        <time>2019-12-09T17:42:41Z</time>
      </trkpt>
      <trkpt lat="42.9704" lon="0.80145">
        <ele>730.454</ele>
        <time>2019-12-09T17:43:01Z</time>
      </trkpt>
      <trkpt lat="42.96968" lon="0.80216">
        <ele>717.683</ele>
        <time>2019-12-09T17:43:21Z</time>
      </trkpt>
      <trkpt lat="42.96966" lon="0.80196">
        <ele>715.069</ele>
        <time>2019-12-09T17:43:41Z</time>
      </trkpt>
      <trkpt lat="42.97001" lon="0.80129">
        <ele>724.365</ele>
        <time>2019-12-09T17:44:01Z</time>
      </trkpt>
      <trkpt lat="42.97" lon="0.80046">
        <ele>696.546</ele>
        <time>2019-12-09T17:44:21Z</time>
      </trkpt>
      <trkpt lat="42.97065" lon="0.79917">
        <ele>695.588</ele>
        <time>2019-12-09T17:44:41Z</time>
      </trkpt>
      <trkpt lat="42.97124" lon="0.79913">
        <ele>690.981</ele>
        <time>2019-12-09T17:45:01Z</time>
      </trkpt>
      <trkpt lat="42.97166" lon="0.79878">
        <ele>688.973</ele>
        <time>2019-12-09T17:45:21Z</time>
      </trkpt>
      <trkpt lat="42.97178" lon="0.79759">
        <ele>669.663</ele>
        <time>2019-12-09T17:45:41Z</time>
      </trkpt>
      <trkpt lat="42.97139" lon="0.79805">
        <ele>670.244</ele>
        <time>2019-12-09T17:46:01Z</time>
      </trkpt>
      <trkpt lat="42.97111" lon="0.79805">
        <ele>669.318</ele>
        <time>2019-12-09T17:46:21Z</time>
      </trkpt>
      <trkpt lat="42.97075" lon="0.79765">
        <ele>658.108</ele>
        <time>2019-12-09T17:46:41Z</time>
      </trkpt>
      <trkpt lat="42.9703" lon="0.798">
        <ele>659.572</ele>
        <time>2019-12-09T17:47:01Z</time>
      </trkpt>
      <trkpt lat="42.96998" lon="0.79793">
        <ele>648.241</ele>
        <time>2019-12-09T17:47:21Z</time>
      </trkpt>
      <trkpt lat="42.96981" lon="0.79761">
        <ele>645.047</ele>
        <time>2019-12-09T17:47:41Z</time>
      </trkpt>
      <trkpt lat="42.96981" lon="0.79692">
        <ele>633.233</ele>
        <time>2019-12-09T17:48:01Z</time>
      </trkpt>
      <trkpt lat="42.96936" lon="0.79696">
        <ele>629.344</ele>
        <time>2019-12-09T17:48:21Z</time>
      </trkpt>
      <trkpt lat="42.96915" lon="0.79779">
        <ele>628.316</ele>
        <time>2019-12-09T17:48:41Z</time>
      </trkpt>
      <trkpt lat="42.96863" lon="0.79782">
        <ele>622.569</ele>
        <time>2019-12-09T17:49:01Z</time>
      </trkpt>
      <trkpt lat="42.96838" lon="0.79795">
        <ele>621.011</ele>
        <time>2019-12-09T17:49:21Z</time>
      </trkpt>
      <trkpt lat="42.96843" lon="0.79844">
        <ele>625.744</ele>
        <time>2019-12-09T17:49:41Z</time>
      </trkpt>
      <trkpt lat="42.96801" lon="0.7988">
        <ele>622.805</ele>
        <time>2019-12-09T17:50:01Z</time>
      </trkpt>
      <trkpt lat="42.96803" lon="0.79749">
        <ele>599.815</ele>
        <time>2019-12-09T17:50:21Z</time>
      </trkpt>
      <trkpt lat="42.96877" lon="0.7968">
        <ele>610.908</ele>
        <time>2019-12-09T17:50:41Z</time>
      </trkpt>
      <trkpt lat="42.96882" lon="0.79542">
        <ele>586.19</ele>
        <time>2019-12-09T17:51:01Z</time>
      </trkpt>
      <trkpt lat="42.96961" lon="0.79549">
        <ele>596.569</ele>
        <time>2019-12-09T17:51:21Z</time>
      </trkpt>
      <trkpt lat="42.97001" lon="0.7954">
        <ele>595.755</ele>
        <time>2019-12-09T17:51:41Z</time>
      </trkpt>
      <trkpt lat="42.97042" lon="0.79515">
        <ele>592.251</ele>
        <time>2019-12-09T17:52:01Z</time>
      </trkpt>
      <trkpt lat="42.9708" lon="0.79517">
        <ele>589.662</ele>
        <time>2019-12-09T17:52:21Z</time>
      </trkpt>
      <trkpt lat="42.97107" lon="0.79462">
        <ele>579.174</ele>
        <time>2019-12-09T17:52:41Z</time>
      </trkpt>
      <trkpt lat="42.97131" lon="0.79384">
        <ele>563.247</ele>
        <time>2019-12-09T17:53:01Z</time>
      </trkpt>
      <trkpt lat="42.97218" lon="0.79349">
        <ele>563.559</ele>
        <time>2019-12-09T17:53:21Z</time>
      </trkpt>
      <trkpt lat="42.9726" lon="0.79391">
        <ele>572.415</ele>
        <time>2019-12-09T17:53:41Z</time>
      </trkpt>
      <trkpt lat="42.97276" lon="0.79388">
        <ele>572.865</ele>
        <time>2019-12-09T17:54:01Z</time>
      </trkpt>
      <trkpt lat="42.97284" lon="0.79315">
        <ele>558.211</ele>
        <time>2019-12-09T17:54:21Z</time>
      </trkpt>
      <trkpt lat="42.97321" lon="0.79287">
        <ele>559.608</ele>
        <time>2019-12-09T17:54:41Z</time>
      </trkpt>
      <trkpt lat="42.97353" lon="0.79223">
        <ele>553.177</ele>
        <time>2019-12-09T17:55:01Z</time>
      </trkpt>
      <trkpt lat="42.97387" lon="0.79186">
        <ele>550.656</ele>
        <time>2019-12-09T17:55:21Z</time>
      </trkpt>
      <trkpt lat="42.97405" lon="0.79142">
        <ele>539.822</ele>
        <time>2019-12-09T17:55:41Z</time>
      </trkpt>
      <trkpt lat="42.9742" lon="0.79181">
        <ele>550.358</ele>
        <time>2019-12-09T17:56:01Z</time>
      </trkpt>
      <trkpt lat="42.97461" lon="0.79135">
        <ele>538.079</ele>
        <time>2019-12-09T17:56:21Z</time>
      </trkpt>
      <trkpt lat="42.97515" lon="0.79151">
        <ele>532.081</ele>
        <time>2019-12-09T17:56:41Z</time>
      </trkpt>
      <trkpt lat="42.97585" lon="0.79202">
        <ele>533.544</ele>
        <time>2019-12-09T17:57:01Z</time>
      </trkpt>
      <trkpt lat="42.97634" lon="0.79184">
        <ele>532.076</ele>
        <time>2019-12-09T17:57:21Z</time>
      </trkpt>
      <trkpt lat="42.97737" lon="0.79177">
        <ele>530.593</ele>
        <time>2019-12-09T17:57:41Z</time>
      </trkpt>
      <trkpt lat="42.97794" lon="0.79154">
        <ele>517.465</ele>
        <time>2019-12-09T17:58:01Z</time>
      </trkpt>
      <trkpt lat="42.97863" lon="0.79181">
        <ele>526.621</ele>
        <time>2019-12-09T17:58:21Z</time>
      </trkpt>
      <trkpt lat="42.97885" lon="0.79207">
        <ele>528.508</ele>
        <time>2019-12-09T17:58:41Z</time>
      </trkpt>
      <trkpt lat="42.97896" lon="0.79237">
        <ele>532.445</ele>
        <time>2019-12-09T17:59:01Z</time>
      </trkpt>
      <trkpt lat="42.97991" lon="0.7922">
        <ele>522.224</ele>
        <time>2019-12-09T17:59:21Z</time>
      </trkpt>
      <trkpt lat="42.98026" lon="0.79246">
        <ele>520.78</ele>
        <time>2019-12-09T17:59:41Z</time>
      </trkpt>
      <trkpt lat="42.98055" lon="0.79243">
        <ele>517.796</ele>
        <time>2019-12-09T18:00:01Z</time>
      </trkpt>
      <trkpt lat="42.9809" lon="0.7926">
        <ele>524.627</ele>
        <time>2019-12-09T18:00:21Z</time>
      </trkpt>
      <trkpt lat="42.98108" lon="0.7925">
        <ele>524.999</ele>
        <time>2019-12-09T18:00:41Z</time>
      </trkpt>
      <trkpt lat="42.98172" lon="0.79255">
        <ele>511.862</ele>
        <time>2019-12-09T18:01:01Z</time>
      </trkpt>
      <trkpt lat="42.98194" lon="0.79278">
        <ele>513.414</ele>
        <time>2019-12-09T18:01:21Z</time>
      </trkpt>
      <trkpt lat="42.98198" lon="0.79264">
        <ele>511.975</ele>
        <time>2019-12-09T18:01:41Z</time>
      </trkpt>
      <trkpt lat="42.98186" lon="0.79209">
        <ele>498.328</ele>
        <time>2019-12-09T18:02:01Z</time>
      </trkpt>
      <trkpt lat="42.98236" lon="0.79193">
        <ele>493.92</ele>
        <time>2019-12-09T18:02:21Z</time>
      </trkpt>
      <trkpt lat="42.98305" lon="0.79204">
        <ele>489.808</ele>
        <time>2019-12-09T18:02:41Z</time>
      </trkpt>
      <trkpt lat="42.9831" lon="0.79105">
        <ele>491.723</ele>
        <time>2019-12-09T18:03:01Z</time>
      </trkpt>
      <trkpt lat="42.98219" lon="0.79089">
        <ele>495.062</ele>
        <time>2019-12-09T18:03:21Z</time>
      </trkpt>
      <trkpt lat="42.98166" lon="0.79073">
        <ele>498.048</ele>
        <time>2019-12-09T18:03:41Z</time>
      </trkpt>
      <trkpt lat="42.98093" lon="0.79092">
        <ele>495.254</ele>
        <time>2019-12-09T18:04:01Z</time>
      </trkpt>
      <trkpt lat="42.9806" lon="0.78977">
        <ele>505.235</ele>
        <time>2019-12-09T18:04:21Z</time>
      </trkpt>
      <trkpt lat="42.98056" lon="0.78933">
        <ele>507.717</ele>
        <time>2019-12-09T18:04:41Z</time>
      </trkpt>
      <trkpt lat="42.98039" lon="0.78866">
        <ele>519.16</ele>
        <time>2019-12-09T18:05:01Z</time>
      </trkpt>
      <trkpt lat="42.98122" lon="0.78839">
        <ele>525.022</ele>
        <time>2019-12-09T18:05:21Z</time>
      </trkpt>
      <trkpt lat="42.98162" lon="0.78834">
        <ele>527.274</ele>
        <time>2019-12-09T18:05:41Z</time>
      </trkpt>
      <trkpt lat="42.98194" lon="0.78788">
        <ele>532.756</ele>
        <time>2019-12-09T18:06:01Z</time>
      </trkpt>
      <trkpt lat="42.97969" lon="0.7868">
        <ele>542.721</ele>
        <time>2019-12-09T18:06:21Z</time>
      </trkpt>
      <trkpt lat="42.97932" lon="0.78639">
        <ele>551.308</ele>
        <time>2019-12-09T18:06:41Z</time>
      </trkpt>
      <trkpt lat="42.97903" lon="0.78517">
        <ele>560.273</ele>
        <time>2019-12-09T18:07:01Z</time>
      </trkpt>
      <trkpt lat="42.97932" lon="0.78346">
        <ele>581.522</ele>
        <time>2019-12-09T18:07:21Z</time>
      </trkpt>
      <trkpt lat="42.97913" lon="0.78163">
        <ele>571.588</ele>
        <time>2019-12-09T18:07:41Z</time>
      </trkpt>
      <trkpt lat="42.9791" lon="0.77946">
        <ele>583.934</ele>
        <time>2019-12-09T18:08:01Z</time>
      </trkpt>
      <trkpt lat="42.97861" lon="0.77762">
        <ele>590.565</ele>
        <time>2019-12-09T18:08:21Z</time>
      </trkpt>
      <trkpt lat="42.97859" lon="0.77705">
        <ele>590.337</ele>
        <time>2019-12-09T18:08:41Z</time>
      </trkpt>
      <trkpt lat="42.97836" lon="0.77585">
        <ele>592.57</ele>
        <time>2019-12-09T18:09:01Z</time>
      </trkpt>
      <trkpt lat="42.97843" lon="0.77502">
        <ele>597.952</ele>
        <time>2019-12-09T18:09:21Z</time>
      </trkpt>
      <trkpt lat="42.97833" lon="0.7741">
        <ele>602.652</ele>
        <time>2019-12-09T18:09:41Z</time>
      </trkpt>
      <trkpt lat="42.97866" lon="0.77309">
        <ele>603.853</ele>
        <time>2019-12-09T18:10:01Z</time>
      </trkpt>
      <trkpt lat="42.97816" lon="0.77045">
        <ele>610.508</ele>
        <time>2019-12-09T18:10:21Z</time>
      </trkpt>
      <trkpt lat="42.97777" lon="0.77036">
        <ele>612.908</ele>
        <time>2019-12-09T18:10:41Z</time>
      </trkpt>
      <trkpt lat="42.97764" lon="0.76967">
        <ele>611.791</ele>
        <time>2019-12-09T18:11:01Z</time>
      </trkpt>
      <trkpt lat="42.9776" lon="0.76865">
        <ele>607.09</ele>
        <time>2019-12-09T18:11:21Z</time>
      </trkpt>
      <trkpt lat="42.97748" lon="0.76808">
        <ele>615.916</ele>
        <time>2019-12-09T18:11:41Z</time>
      </trkpt>
      <trkpt lat="42.97752" lon="0.76688">
        <ele>600.042</ele>
        <time>2019-12-09T18:12:01Z</time>
      </trkpt>
      <trkpt lat="42.97735" lon="0.7661">
        <ele>610.253</ele>
        <time>2019-12-09T18:12:21Z</time>
      </trkpt>
      <trkpt lat="42.97745" lon="0.76484">
        <ele>602.425</ele>
        <time>2019-12-09T18:12:41Z</time>
      </trkpt>
      <trkpt lat="42.97737" lon="0.76401">
        <ele>604.098</ele>
        <time>2019-12-09T18:13:01Z</time>
      </trkpt>
      <trkpt lat="42.97703" lon="0.76279">
        <ele>604.53</ele>
        <time>2019-12-09T18:13:21Z</time>
      </trkpt>
      <trkpt lat="42.97706" lon="0.7613">
        <ele>599.967</ele>
        <time>2019-12-09T18:13:41Z</time>
      </trkpt>
      <trkpt lat="42.97689" lon="0.76049">
        <ele>599.081</ele>
        <time>2019-12-09T18:14:01Z</time>
      </trkpt>
      <trkpt lat="42.97684" lon="0.75973">
        <ele>598.219</ele>
        <time>2019-12-09T18:14:21Z</time>
      </trkpt>
      <trkpt lat="42.97732" lon="0.75803">
        <ele>592.708</ele>
        <time>2019-12-09T18:14:41Z</time>
      </trkpt>
      <trkpt lat="42.9774" lon="0.75729">
        <ele>589.132</ele>
        <time>2019-12-09T18:15:01Z</time>
      </trkpt>
      <trkpt lat="42.97721" lon="0.75651">
        <ele>588.281</ele>
        <time>2019-12-09T18:15:21Z</time>
      </trkpt>
      <trkpt lat="42.97732" lon="0.75589">
        <ele>587.757</ele>
        <time>2019-12-09T18:15:41Z</time>
      </trkpt>
      <trkpt lat="42.97772" lon="0.7546">
        <ele>582.953</ele>
        <time>2019-12-09T18:16:01Z</time>
      </trkpt>
      <trkpt lat="42.97785" lon="0.75371">
        <ele>581.864</ele>
        <time>2019-12-09T18:16:21Z</time>
      </trkpt>
      <trkpt lat="42.97812" lon="0.75276">
        <ele>576.616</ele>
        <time>2019-12-09T18:16:41Z</time>
      </trkpt>
      <trkpt lat="42.97833" lon="0.75246">
        <ele>574.669</ele>
        <time>2019-12-09T18:17:01Z</time>
      </trkpt>
      <trkpt lat="42.97896" lon="0.75164">
        <ele>580.341</ele>
        <time>2019-12-09T18:17:21Z</time>
      </trkpt>
      <trkpt lat="42.97917" lon="0.75099">
        <ele>581.258</ele>
        <time>2019-12-09T18:17:41Z</time>
      </trkpt>
      <trkpt lat="42.9791" lon="0.7492">
        <ele>574.352</ele>
        <time>2019-12-09T18:18:01Z</time>
      </trkpt>
      <trkpt lat="42.97942" lon="0.74786">
        <ele>581.417</ele>
        <time>2019-12-09T18:18:21Z</time>
      </trkpt>
      <trkpt lat="42.97977" lon="0.74754">
        <ele>583.108</ele>
        <time>2019-12-09T18:18:41Z</time>
      </trkpt>
      <trkpt lat="42.98013" lon="0.74665">
        <ele>586.141</ele>
        <time>2019-12-09T18:19:01Z</time>
      </trkpt>
      <trkpt lat="42.98046" lon="0.74554">
        <ele>584.94</ele>
        <time>2019-12-09T18:19:21Z</time>
      </trkpt>
      <trkpt lat="42.98076" lon="0.74529">
        <ele>584.176</ele>
        <time>2019-12-09T18:19:41Z</time>
      </trkpt>
      <trkpt lat="42.98167" lon="0.74506">
        <ele>575.422</ele>
        <time>2019-12-09T18:20:01Z</time>
      </trkpt>
      <trkpt lat="42.98275" lon="0.74524">
        <ele>563.523</ele>
        <time>2019-12-09T18:20:21Z</time>
      </trkpt>
      <trkpt lat="42.98327" lon="0.74504">
        <ele>561.145</ele>
        <time>2019-12-09T18:20:41Z</time>
      </trkpt>
      <trkpt lat="42.98362" lon="0.74462">
        <ele>556.458</ele>
        <time>2019-12-09T18:21:01Z</time>
      </trkpt>
      <trkpt lat="42.98527" lon="0.74156">
        <ele>541.14</ele>
        <time>2019-12-09T18:21:21Z</time>
      </trkpt>
      <trkpt lat="42.98551" lon="0.74044">
        <ele>529.387</ele>
        <time>2019-12-09T18:21:41Z</time>
      </trkpt>
      <trkpt lat="42.98574" lon="0.74046">
        <ele>530.442</ele>
        <time>2019-12-09T18:22:01Z</time>
      </trkpt>
      <trkpt lat="42.98628" lon="0.74126">
        <ele>532.726</ele>
        <time>2019-12-09T18:22:21Z</time>
      </trkpt>
      <trkpt lat="42.98669" lon="0.74085">
        <ele>527.808</ele>
        <time>2019-12-09T18:22:41Z</time>
      </trkpt>
      <trkpt lat="42.98699" lon="0.74097">
        <ele>518.734</ele>
        <time>2019-12-09T18:23:01Z</time>
      </trkpt>
      <trkpt lat="42.98723" lon="0.74133">
        <ele>514.723</ele>
        <time>2019-12-09T18:23:21Z</time>
      </trkpt>
      <trkpt lat="42.98748" lon="0.74143">
        <ele>511.819</ele>
        <time>2019-12-09T18:23:41Z</time>
      </trkpt>
      <trkpt lat="42.98756" lon="0.74051">
        <ele>497.895</ele>
        <time>2019-12-09T18:24:01Z</time>
      </trkpt>
      <trkpt lat="42.98741" lon="0.74011">
        <ele>503.576</ele>
        <time>2019-12-09T18:24:21Z</time>
      </trkpt>
      <trkpt lat="42.98706" lon="0.73975">
        <ele>499.538</ele>
        <time>2019-12-09T18:24:41Z</time>
      </trkpt>
      <trkpt lat="42.98652" lon="0.73758">
        <ele>494.711</ele>
        <time>2019-12-09T18:25:01Z</time>
      </trkpt>
      <trkpt lat="42.98593" lon="0.73735">
        <ele>499.113</ele>
        <time>2019-12-09T18:25:21Z</time>
      </trkpt>
      <trkpt lat="42.98591" lon="0.73692">
        <ele>500.132</ele>
        <time>2019-12-09T18:25:41Z</time>
      </trkpt>
      <trkpt lat="42.98576" lon="0.73586">
        <ele>511.892</ele>
        <time>2019-12-09T18:26:01Z</time>
      </trkpt>
      <trkpt lat="42.9858" lon="0.73494">
        <ele>530.811</ele>
        <time>2019-12-09T18:26:21Z</time>
      </trkpt>
      <trkpt lat="42.98578" lon="0.7345">
        <ele>530.508</ele>
        <time>2019-12-09T18:26:41Z</time>
      </trkpt>
      <trkpt lat="42.98601" lon="0.73413">
        <ele>554.129</ele>
        <time>2019-12-09T18:27:01Z</time>
      </trkpt>
      <trkpt lat="42.98591" lon="0.73342">
        <ele>556.488</ele>
        <time>2019-12-09T18:27:21Z</time>
      </trkpt>
      <trkpt lat="42.9861" lon="0.7331">
        <ele>564.484</ele>
        <time>2019-12-09T18:27:41Z</time>
      </trkpt>
      <trkpt lat="42.98608" lon="0.73243">
        <ele>561.74</ele>
        <time>2019-12-09T18:28:01Z</time>
      </trkpt>
      <trkpt lat="42.98628" lon="0.73142">
        <ele>563.571</ele>
        <time>2019-12-09T18:28:21Z</time>
      </trkpt>
      <trkpt lat="42.98615" lon="0.73096">
        <ele>561.683</ele>
        <time>2019-12-09T18:28:41Z</time>
      </trkpt>
      <trkpt lat="42.98657" lon="0.7297">
        <ele>578.596</ele>
        <time>2019-12-09T18:29:01Z</time>
      </trkpt>
      <trkpt lat="42.98665" lon="0.72859">
        <ele>594.948</ele>
        <time>2019-12-09T18:29:21Z</time>
      </trkpt>
      <trkpt lat="42.98679" lon="0.72862">
        <ele>602.632</ele>
        <time>2019-12-09T18:29:41Z</time>
      </trkpt>
      <trkpt lat="42.98692" lon="0.72954">
        <ele>595.392</ele>
        <time>2019-12-09T18:30:01Z</time>
      </trkpt>
      <trkpt lat="42.98744" lon="0.72993">
        <ele>601.011</ele>
        <time>2019-12-09T18:30:21Z</time>
      </trkpt>
      <trkpt lat="42.98738" lon="0.72901">
        <ele>606.208</ele>
        <time>2019-12-09T18:30:41Z</time>
      </trkpt>
      <trkpt lat="42.98744" lon="0.72839">
        <ele>610.779</ele>
        <time>2019-12-09T18:31:01Z</time>
      </trkpt>
      <trkpt lat="42.98763" lon="0.72776">
        <ele>605.428</ele>
        <time>2019-12-09T18:31:21Z</time>
      </trkpt>
      <trkpt lat="42.98751" lon="0.72726">
        <ele>606.764</ele>
        <time>2019-12-09T18:31:41Z</time>
      </trkpt>
      <trkpt lat="42.98717" lon="0.72714">
        <ele>617.98</ele>
        <time>2019-12-09T18:32:01Z</time>
      </trkpt>
      <trkpt lat="42.9868" lon="0.72712">
        <ele>618.611</ele>
        <time>2019-12-09T18:32:21Z</time>
      </trkpt>
      <trkpt lat="42.98662" lon="0.72684">
        <ele>620.363</ele>
        <time>2019-12-09T18:32:41Z</time>
      </trkpt>
      <trkpt lat="42.9865" lon="0.72556">
        <ele>632.136</ele>
        <time>2019-12-09T18:33:01Z</time>
      </trkpt>
      <trkpt lat="42.98667" lon="0.72487">
        <ele>646.138</ele>
        <time>2019-12-09T18:33:21Z</time>
      </trkpt>
      <trkpt lat="42.98706" lon="0.72383">
        <ele>654.388</ele>
        <time>2019-12-09T18:33:41Z</time>
      </trkpt>
      <trkpt lat="42.98748" lon="0.72344">
        <ele>659.424</ele>
        <time>2019-12-09T18:34:01Z</time>
      </trkpt>
      <trkpt lat="42.98783" lon="0.72273">
        <ele>656.126</ele>
        <time>2019-12-09T18:34:21Z</time>
      </trkpt>
      <trkpt lat="42.9882" lon="0.72084">
        <ele>671.408</ele>
        <time>2019-12-09T18:34:41Z</time>
      </trkpt>
      <trkpt lat="42.98852" lon="0.71953">
        <ele>678.034</ele>
        <time>2019-12-09T18:35:01Z</time>
      </trkpt>
      <trkpt lat="42.98889" lon="0.71921">
        <ele>677.263</ele>
        <time>2019-12-09T18:35:21Z</time>
      </trkpt>
      <trkpt lat="42.98928" lon="0.71836">
        <ele>683.619</ele>
        <time>2019-12-09T18:35:41Z</time>
      </trkpt>
      <trkpt lat="42.98978" lon="0.71583">
        <ele>694.185</ele>
        <time>2019-12-09T18:36:01Z</time>
      </trkpt>
      <trkpt lat="42.98971" lon="0.71502">
        <ele>697.386</ele>
        <time>2019-12-09T18:36:21Z</time>
      </trkpt>
      <trkpt lat="42.98943" lon="0.71422">
        <ele>705.298</ele>
        <time>2019-12-09T18:36:41Z</time>
      </trkpt>
      <trkpt lat="42.98926" lon="0.71265">
        <ele>708.941</ele>
        <time>2019-12-09T18:37:01Z</time>
      </trkpt>
      <trkpt lat="42.98978" lon="0.71118">
        <ele>714.163</ele>
        <time>2019-12-09T18:37:21Z</time>
      </trkpt>
      <trkpt lat="42.9901" lon="0.70939">
        <ele>699.754</ele>
        <time>2019-12-09T18:37:41Z</time>
      </trkpt>
      <trkpt lat="42.99056" lon="0.70838">
        <ele>709.056</ele>
        <time>2019-12-09T18:38:01Z</time>
      </trkpt>
      <trkpt lat="42.99098" lon="0.70612">
        <ele>724.811</ele>
        <time>2019-12-09T18:38:21Z</time>
      </trkpt>
      <trkpt lat="42.99141" lon="0.70403">
        <ele>751.908</ele>
        <time>2019-12-09T18:38:41Z</time>
      </trkpt>
      <trkpt lat="42.99173" lon="0.7038">
        <ele>745.111</ele>
        <time>2019-12-09T18:39:01Z</time>
      </trkpt>
      <trkpt lat="42.99195" lon="0.70364">
        <ele>746.49</ele>
        <time>2019-12-09T18:39:21Z</time>
      </trkpt>
      <trkpt lat="42.99204" lon="0.70295">
        <ele>755.566</ele>
        <time>2019-12-09T18:39:41Z</time>
      </trkpt>
      <trkpt lat="42.9917" lon="0.70297">
        <ele>754.862</ele>
        <time>2019-12-09T18:40:01Z</time>
      </trkpt>
      <trkpt lat="42.9916" lon="0.70109">
        <ele>784.213</ele>
        <time>2019-12-09T18:40:21Z</time>
      </trkpt>
      <trkpt lat="42.99143" lon="0.69936">
        <ele>797.125</ele>
        <time>2019-12-09T18:40:41Z</time>
      </trkpt>
      <trkpt lat="42.99138" lon="0.69619">
        <ele>809.518</ele>
        <time>2019-12-09T18:41:01Z</time>
      </trkpt>
      <trkpt lat="42.99089" lon="0.69387">
        <ele>811.33</ele>
        <time>2019-12-09T18:41:21Z</time>
      </trkpt>
      <trkpt lat="42.99046" lon="0.69324">
        <ele>803.056</ele>
        <time>2019-12-09T18:41:41Z</time>
      </trkpt>
      <trkpt lat="42.99044" lon="0.69258">
        <ele>799.759</ele>
        <time>2019-12-09T18:42:01Z</time>
      </trkpt>
      <trkpt lat="42.98956" lon="0.69235">
        <ele>784.614</ele>
        <time>2019-12-09T18:42:21Z</time>
      </trkpt>
      <trkpt lat="42.98931" lon="0.69186">
        <ele>782.708</ele>
        <time>2019-12-09T18:42:41Z</time>
      </trkpt>
      <trkpt lat="42.98876" lon="0.68954">
        <ele>770.291</ele>
        <time>2019-12-09T18:43:01Z</time>
      </trkpt>
      <trkpt lat="42.98786" lon="0.68805">
        <ele>756.21</ele>
        <time>2019-12-09T18:43:21Z</time>
      </trkpt>
      <trkpt lat="42.98751" lon="0.68591">
        <ele>731.756</ele>
        <time>2019-12-09T18:43:41Z</time>
      </trkpt>
      <trkpt lat="42.9867" lon="0.68248">
        <ele>696.262</ele>
        <time>2019-12-09T18:44:01Z</time>
      </trkpt>
      <trkpt lat="42.98632" lon="0.68117">
        <ele>683.753</ele>
        <time>2019-12-09T18:44:21Z</time>
      </trkpt>
      <trkpt lat="42.98548" lon="0.68037">
        <ele>686.525</ele>
        <time>2019-12-09T18:44:41Z</time>
      </trkpt>
      <trkpt lat="42.98492" lon="0.67924">
        <ele>672.898</ele>
        <time>2019-12-09T18:45:01Z</time>
      </trkpt>
      <trkpt lat="42.98435" lon="0.67869">
        <ele>663.65</ele>
        <time>2019-12-09T18:45:21Z</time>
      </trkpt>
      <trkpt lat="42.98361" lon="0.67747">
        <ele>653.397</ele>
        <time>2019-12-09T18:45:41Z</time>
      </trkpt>
      <trkpt lat="42.98416" lon="0.6762">
        <ele>636.323</ele>
        <time>2019-12-09T18:46:01Z</time>
      </trkpt>
      <trkpt lat="42.98437" lon="0.67485">
        <ele>614.725</ele>
        <time>2019-12-09T18:46:21Z</time>
      </trkpt>
      <trkpt lat="42.98448" lon="0.67278">
        <ele>599.808</ele>
        <time>2019-12-09T18:46:41Z</time>
      </trkpt>
      <trkpt lat="42.98462" lon="0.67216">
        <ele>599.665</ele>
        <time>2019-12-09T18:47:01Z</time>
      </trkpt>
      <trkpt lat="42.98462" lon="0.67179">
        <ele>599.874</ele>
        <time>2019-12-09T18:47:21Z</time>
      </trkpt>
      <trkpt lat="42.98411" lon="0.67107">
        <ele>599.11</ele>
        <time>2019-12-09T18:47:41Z</time>
      </trkpt>
      <trkpt lat="42.98376" lon="0.67073">
        <ele>600.146</ele>
        <time>2019-12-09T18:48:01Z</time>
      </trkpt>
      <trkpt lat="42.98425" lon="0.67002">
        <ele>606.817</ele>
        <time>2019-12-09T18:48:21Z</time>
      </trkpt>
      <trkpt lat="42.98445" lon="0.66951">
        <ele>606.499</ele>
        <time>2019-12-09T18:48:41Z</time>
      </trkpt>
      <trkpt lat="42.98465" lon="0.6699">
        <ele>606.942</ele>
        <time>2019-12-09T18:49:01Z</time>
      </trkpt>
      <trkpt lat="42.98489" lon="0.67002">
        <ele>607.594</ele>
        <time>2019-12-09T18:49:21Z</time>
      </trkpt>
      <trkpt lat="42.98544" lon="0.67096">
        <ele>607.349</ele>
        <time>2019-12-09T18:49:41Z</time>
      </trkpt>
      <trkpt lat="42.9862" lon="0.67133">
        <ele>609.402</ele>
        <time>2019-12-09T18:50:01Z</time>
      </trkpt>
      <trkpt lat="42.9866" lon="0.67197">
        <ele>604.922</ele>
        <time>2019-12-09T18:50:21Z</time>
      </trkpt>
      <trkpt lat="42.98702" lon="0.67232">
        <ele>607.108</ele>
        <time>2019-12-09T18:50:41Z</time>
      </trkpt>
      <trkpt lat="42.98899" lon="0.67202">
        <ele>616.76</ele>
        <time>2019-12-09T18:51:01Z</time>
      </trkpt>
      <trkpt lat="42.98965" lon="0.67243">
        <ele>625.019</ele>
        <time>2019-12-09T18:51:21Z</time>
      </trkpt>
      <trkpt lat="42.99046" lon="0.67411">
        <ele>612.275</ele>
        <time>2019-12-09T18:51:41Z</time>
      </trkpt>
      <trkpt lat="42.99155" lon="0.67429">
        <ele>616.311</ele>
        <time>2019-12-09T18:52:01Z</time>
      </trkpt>
      <trkpt lat="42.99168" lon="0.67424">
        <ele>618.332</ele>
        <time>2019-12-09T18:52:21Z</time>
      </trkpt>
      <trkpt lat="42.99188" lon="0.67441">
        <ele>618.814</ele>
        <time>2019-12-09T18:52:41Z</time>
      </trkpt>
      <trkpt lat="42.99209" lon="0.67426">
        <ele>616.667</ele>
        <time>2019-12-09T18:53:01Z</time>
      </trkpt>
      <trkpt lat="42.99215" lon="0.67395">
        <ele>614.429</ele>
        <time>2019-12-09T18:53:21Z</time>
      </trkpt>
      <trkpt lat="42.99237" lon="0.67375">
        <ele>613.336</ele>
        <time>2019-12-09T18:53:41Z</time>
      </trkpt>
      <trkpt lat="42.9923" lon="0.67416">
        <ele>610.317</ele>
        <time>2019-12-09T18:54:01Z</time>
      </trkpt>
      <trkpt lat="42.99237" lon="0.67426">
        <ele>611.218</ele>
        <time>2019-12-09T18:54:21Z</time>
      </trkpt>
      <trkpt lat="42.99261" lon="0.67414">
        <ele>599.908</ele>
        <time>2019-12-09T18:54:41Z</time>
      </trkpt>
      <trkpt lat="42.99285" lon="0.67424">
        <ele>605.469</ele>
        <time>2019-12-09T18:55:01Z</time>
      </trkpt>
      <trkpt lat="42.99328" lon="0.67382">
        <ele>590.198</ele>
        <time>2019-12-09T18:55:21Z</time>
      </trkpt>
      <trkpt lat="42.9939" lon="0.67367">
        <ele>571.044</ele>
        <time>2019-12-09T18:55:41Z</time>
      </trkpt>
      <trkpt lat="42.99449" lon="0.67366">
        <ele>556.04</ele>
        <time>2019-12-09T18:56:01Z</time>
      </trkpt>
      <trkpt lat="42.99526" lon="0.67388">
        <ele>545.671</ele>
        <time>2019-12-09T18:56:21Z</time>
      </trkpt>
      <trkpt lat="42.9957" lon="0.67418">
        <ele>547.193</ele>
        <time>2019-12-09T18:56:41Z</time>
      </trkpt>
      <trkpt lat="42.99615" lon="0.67462">
        <ele>542.886</ele>
        <time>2019-12-09T18:57:01Z</time>
      </trkpt>
      <trkpt lat="42.99713" lon="0.67347">
        <ele>534.848</ele>
        <time>2019-12-09T18:57:21Z</time>
      </trkpt>
      <trkpt lat="42.99804" lon="0.67294">
        <ele>533.916</ele>
        <time>2019-12-09T18:57:41Z</time>
      </trkpt>
      <trkpt lat="42.99907" lon="0.67259">
        <ele>537.376</ele>
        <time>2019-12-09T18:58:01Z</time>
      </trkpt>
      <trkpt lat="42.99939" lon="0.67275">
        <ele>538.513</ele>
        <time>2019-12-09T18:58:21Z</time>
      </trkpt>
      <trkpt lat="42.99967" lon="0.67278">
        <ele>539.108</ele>
        <time>2019-12-09T18:58:41Z</time>
      </trkpt>
      <trkpt lat="42.99982" lon="0.67289">
        <ele>539.197</ele>
        <time>2019-12-09T18:59:01Z</time>
      </trkpt>
      <trkpt lat="43.00007" lon="0.67243">
        <ele>546.036</ele>
        <time>2020-04-16T07:33:48Z</time>
      </trkpt>
      <trkpt lat="42.99996" lon="0.67223">
        <ele>540.722</ele>
        <time>2019-12-10T17:14:54Z</time>
      </trkpt>
      <trkpt lat="42.99995" lon="0.67197">
        <ele>544.289</ele>
        <time>2019-12-10T17:15:14Z</time>
      </trkpt>
      <trkpt lat="42.99985" lon="0.67176">
        <ele>545.851</ele>
        <time>2019-12-10T17:15:34Z</time>
      </trkpt>
      <trkpt lat="42.99964" lon="0.67184">
        <ele>542.394</ele>
        <time>2019-12-10T17:15:54Z</time>
      </trkpt>
      <trkpt lat="42.99958" lon="0.6713">
        <ele>548.926</ele>
        <time>2019-12-10T17:16:14Z</time>
      </trkpt>
      <trkpt lat="42.99929" lon="0.67109">
        <ele>546.054</ele>
        <time>2019-12-10T17:16:34Z</time>
      </trkpt>
      <trkpt lat="42.99917" lon="0.67082">
        <ele>547.256</ele>
        <time>2019-12-10T17:16:54Z</time>
      </trkpt>
      <trkpt lat="42.99901" lon="0.67053">
        <ele>549.311</ele>
        <time>2019-12-10T17:17:14Z</time>
      </trkpt>
      <trkpt lat="42.99892" lon="0.66992">
        <ele>558.908</ele>
        <time>2019-12-10T17:17:34Z</time>
      </trkpt>
      <trkpt lat="42.99844" lon="0.66945">
        <ele>557.111</ele>
        <time>2019-12-10T17:17:54Z</time>
      </trkpt>
      <trkpt lat="42.99838" lon="0.66897">
        <ele>566.39</ele>
        <time>2019-12-10T17:18:14Z</time>
      </trkpt>
      <trkpt lat="42.99816" lon="0.66832">
        <ele>574.896</ele>
        <time>2019-12-10T17:18:34Z</time>
      </trkpt>
      <trkpt lat="42.99811" lon="0.66795">
        <ele>579.912</ele>
        <time>2019-12-10T17:18:54Z</time>
      </trkpt>
      <trkpt lat="42.99799" lon="0.66749">
        <ele>584.483</ele>
        <time>2019-12-10T17:19:14Z</time>
      </trkpt>
      <trkpt lat="42.99792" lon="0.66693">
        <ele>592.855</ele>
        <time>2019-12-10T17:19:34Z</time>
      </trkpt>
      <trkpt lat="42.99752" lon="0.66597">
        <ele>603.998</ele>
        <time>2019-12-10T17:19:54Z</time>
      </trkpt>
      <trkpt lat="42.99756" lon="0.66541">
        <ele>618.87</ele>
        <time>2019-12-10T17:20:14Z</time>
      </trkpt>
      <trkpt lat="42.99736" lon="0.66504">
        <ele>627.284</ele>
        <time>2019-12-10T17:20:34Z</time>
      </trkpt>
      <trkpt lat="42.9971" lon="0.66477">
        <ele>640.607</ele>
        <time>2019-12-10T17:20:54Z</time>
      </trkpt>
      <trkpt lat="42.99695" lon="0.66428">
        <ele>657.017</ele>
        <time>2019-12-10T17:21:14Z</time>
      </trkpt>
      <trkpt lat="42.99696" lon="0.66367">
        <ele>667.408</ele>
        <time>2019-12-10T17:21:34Z</time>
      </trkpt>
      <trkpt lat="42.99705" lon="0.66344">
        <ele>668.834</ele>
        <time>2019-12-10T17:21:54Z</time>
      </trkpt>
      <trkpt lat="42.99666" lon="0.6628">
        <ele>685.163</ele>
        <time>2019-12-10T17:22:14Z</time>
      </trkpt>
      <trkpt lat="42.99657" lon="0.66243">
        <ele>688.669</ele>
        <time>2019-12-10T17:22:34Z</time>
      </trkpt>
      <trkpt lat="42.99635" lon="0.66203">
        <ele>694.645</ele>
        <time>2019-12-10T17:22:54Z</time>
      </trkpt>
      <trkpt lat="42.99573" lon="0.66159">
        <ele>711.296</ele>
        <time>2019-12-10T17:23:14Z</time>
      </trkpt>
      <trkpt lat="42.99534" lon="0.66105">
        <ele>719.128</ele>
        <time>2019-12-10T17:23:34Z</time>
      </trkpt>
      <trkpt lat="42.9957" lon="0.66074">
        <ele>702.331</ele>
        <time>2019-12-10T17:23:54Z</time>
      </trkpt>
      <trkpt lat="42.9958" lon="0.66019">
        <ele>702.543</ele>
        <time>2019-12-10T17:24:14Z</time>
      </trkpt>
      <trkpt lat="42.99583" lon="0.65973">
        <ele>711.882</ele>
        <time>2019-12-10T17:24:34Z</time>
      </trkpt>
      <trkpt lat="42.99605" lon="0.6592">
        <ele>736.143</ele>
        <time>2019-12-10T17:24:54Z</time>
      </trkpt>
      <trkpt lat="42.99604" lon="0.65892">
        <ele>743.517</ele>
        <time>2019-12-10T17:25:14Z</time>
      </trkpt>
      <trkpt lat="42.99618" lon="0.65848">
        <ele>758.908</ele>
        <time>2019-12-10T17:25:34Z</time>
      </trkpt>
      <trkpt lat="42.99637" lon="0.65742">
        <ele>779.844</ele>
        <time>2019-12-10T17:25:54Z</time>
      </trkpt>
      <trkpt lat="42.9966" lon="0.65703">
        <ele>789.643</ele>
        <time>2019-12-10T17:26:14Z</time>
      </trkpt>
      <trkpt lat="42.99705" lon="0.65733">
        <ele>798.959</ele>
        <time>2019-12-10T17:26:34Z</time>
      </trkpt>
      <trkpt lat="42.99751" lon="0.65686">
        <ele>801.645</ele>
        <time>2019-12-10T17:26:54Z</time>
      </trkpt>
      <trkpt lat="42.99764" lon="0.65628">
        <ele>807.526</ele>
        <time>2019-12-10T17:27:14Z</time>
      </trkpt>
      <trkpt lat="42.99742" lon="0.65576">
        <ele>807.198</ele>
        <time>2019-12-10T17:27:34Z</time>
      </trkpt>
      <trkpt lat="42.99759" lon="0.65576">
        <ele>809.941</ele>
        <time>2019-12-10T17:27:54Z</time>
      </trkpt>
      <trkpt lat="42.99753" lon="0.65512">
        <ele>809.923</ele>
        <time>2019-12-10T17:28:14Z</time>
      </trkpt>
      <trkpt lat="42.99742" lon="0.65452">
        <ele>807.637</ele>
        <time>2019-12-10T17:28:34Z</time>
      </trkpt>
      <trkpt lat="42.99716" lon="0.6543">
        <ele>805.149</ele>
        <time>2019-12-10T17:28:54Z</time>
      </trkpt>
      <trkpt lat="42.99616" lon="0.65438">
        <ele>802.113</ele>
        <time>2019-12-10T17:29:14Z</time>
      </trkpt>
      <trkpt lat="42.99577" lon="0.65428">
        <ele>798.908</ele>
        <time>2019-12-10T17:29:34Z</time>
      </trkpt>
      <trkpt lat="42.99595" lon="0.65385">
        <ele>812.979</ele>
        <time>2019-12-10T17:29:54Z</time>
      </trkpt>
      <trkpt lat="42.99618" lon="0.65279">
        <ele>845.438</ele>
        <time>2019-12-10T17:30:14Z</time>
      </trkpt>
      <trkpt lat="42.99694" lon="0.65202">
        <ele>860.044</ele>
        <time>2019-12-10T17:30:34Z</time>
      </trkpt>
      <trkpt lat="42.99764" lon="0.65211">
        <ele>863.62</ele>
        <time>2019-12-10T17:30:54Z</time>
      </trkpt>
      <trkpt lat="42.99786" lon="0.65187">
        <ele>869.871</ele>
        <time>2019-12-10T17:31:14Z</time>
      </trkpt>
      <trkpt lat="42.99763" lon="0.65161">
        <ele>871.273</ele>
        <time>2019-12-10T17:31:34Z</time>
      </trkpt>
      <trkpt lat="42.99753" lon="0.65112">
        <ele>871.236</ele>
        <time>2019-12-10T17:31:54Z</time>
      </trkpt>
      <trkpt lat="42.99741" lon="0.65071">
        <ele>867.728</ele>
        <time>2019-12-10T17:32:14Z</time>
      </trkpt>
      <trkpt lat="42.9975" lon="0.65019">
        <ele>870.097</ele>
        <time>2019-12-10T17:32:34Z</time>
      </trkpt>
      <trkpt lat="42.99805" lon="0.64967">
        <ele>874.523</ele>
        <time>2019-12-10T17:32:54Z</time>
      </trkpt>
      <trkpt lat="42.99881" lon="0.64933">
        <ele>875.825</ele>
        <time>2019-12-10T17:33:14Z</time>
      </trkpt>
      <trkpt lat="42.99933" lon="0.64954">
        <ele>877.608</ele>
        <time>2019-12-10T17:33:34Z</time>
      </trkpt>
      <trkpt lat="42.99973" lon="0.64911">
        <ele>887.765</ele>
        <time>2019-12-10T17:33:54Z</time>
      </trkpt>
      <trkpt lat="43.0003" lon="0.64774">
        <ele>905.544</ele>
        <time>2019-12-10T17:34:14Z</time>
      </trkpt>
      <trkpt lat="42.99983" lon="0.64632">
        <ele>899.67</ele>
        <time>2019-12-10T17:34:34Z</time>
      </trkpt>
      <trkpt lat="42.99974" lon="0.64573">
        <ele>888.516</ele>
        <time>2019-12-10T17:34:54Z</time>
      </trkpt>
      <trkpt lat="42.99946" lon="0.64487">
        <ele>890.287</ele>
        <time>2019-12-10T17:35:14Z</time>
      </trkpt>
      <trkpt lat="42.99936" lon="0.64378">
        <ele>895.139</ele>
        <time>2019-12-10T17:35:34Z</time>
      </trkpt>
      <trkpt lat="42.99947" lon="0.64291">
        <ele>899.812</ele>
        <time>2019-12-10T17:35:54Z</time>
      </trkpt>
      <trkpt lat="42.99984" lon="0.64294">
        <ele>894.684</ele>
        <time>2019-12-10T17:36:14Z</time>
      </trkpt>
      <trkpt lat="43.00058" lon="0.64285">
        <ele>892.951</ele>
        <time>2019-12-10T17:36:34Z</time>
      </trkpt>
      <trkpt lat="43.00096" lon="0.64319">
        <ele>899.801</ele>
        <time>2019-12-10T17:36:54Z</time>
      </trkpt>
      <trkpt lat="43.00147" lon="0.6432">
        <ele>903.811</ele>
        <time>2019-12-10T17:37:14Z</time>
      </trkpt>
      <trkpt lat="43.00186" lon="0.64332">
        <ele>909.508</ele>
        <time>2019-12-10T17:37:34Z</time>
      </trkpt>
      <trkpt lat="43.00234" lon="0.64328">
        <ele>914.551</ele>
        <time>2019-12-10T17:37:54Z</time>
      </trkpt>
      <trkpt lat="43.00323" lon="0.6435">
        <ele>932.89</ele>
        <time>2019-12-10T17:38:14Z</time>
      </trkpt>
      <trkpt lat="43.00401" lon="0.64272">
        <ele>930.826</ele>
        <time>2019-12-10T17:38:34Z</time>
      </trkpt>
      <trkpt lat="43.00478" lon="0.64186">
        <ele>927.182</ele>
        <time>2019-12-10T17:38:54Z</time>
      </trkpt>
      <trkpt lat="43.00567" lon="0.64109">
        <ele>932.343</ele>
        <time>2019-12-10T17:39:14Z</time>
      </trkpt>
      <trkpt lat="43.00608" lon="0.64066">
        <ele>934.965</ele>
        <time>2019-12-10T17:39:34Z</time>
      </trkpt>
      <trkpt lat="43.00701" lon="0.64003">
        <ele>945.828</ele>
        <time>2019-12-10T17:39:54Z</time>
      </trkpt>
      <trkpt lat="43.00735" lon="0.64029">
        <ele>956.23</ele>
        <time>2019-12-10T17:40:14Z</time>
      </trkpt>
      <trkpt lat="43.00783" lon="0.64038">
        <ele>961.183</ele>
        <time>2019-12-10T17:40:34Z</time>
      </trkpt>
      <trkpt lat="43.0081" lon="0.64085">
        <ele>972.425</ele>
        <time>2019-12-10T17:40:54Z</time>
      </trkpt>
      <trkpt lat="43.00909" lon="0.64134">
        <ele>968.317</ele>
        <time>2019-12-10T17:41:14Z</time>
      </trkpt>
      <trkpt lat="43.00939" lon="0.64132">
        <ele>964.708</ele>
        <time>2019-12-10T17:41:34Z</time>
      </trkpt>
      <trkpt lat="43.00948" lon="0.64141">
        <ele>966.814</ele>
        <time>2019-12-10T17:41:54Z</time>
      </trkpt>
      <trkpt lat="43.00987" lon="0.64119">
        <ele>960.913</ele>
        <time>2019-12-10T17:42:14Z</time>
      </trkpt>
      <trkpt lat="43.01034" lon="0.64109">
        <ele>961.269</ele>
        <time>2019-12-10T17:42:34Z</time>
      </trkpt>
      <trkpt lat="43.01071" lon="0.64057">
        <ele>951.995</ele>
        <time>2019-12-10T17:42:54Z</time>
      </trkpt>
      <trkpt lat="43.01175" lon="0.63859">
        <ele>933.026</ele>
        <time>2019-12-10T17:43:14Z</time>
      </trkpt>
      <trkpt lat="43.01196" lon="0.63777">
        <ele>924.958</ele>
        <time>2019-12-10T17:43:34Z</time>
      </trkpt>
      <trkpt lat="43.01223" lon="0.63704">
        <ele>931.441</ele>
        <time>2019-12-10T17:43:54Z</time>
      </trkpt>
      <trkpt lat="43.01264" lon="0.63695">
        <ele>932.523</ele>
        <time>2019-12-10T17:44:14Z</time>
      </trkpt>
      <trkpt lat="43.01301" lon="0.63736">
        <ele>917.521</ele>
        <time>2019-12-10T17:44:34Z</time>
      </trkpt>
      <trkpt lat="43.01323" lon="0.63762">
        <ele>912.541</ele>
        <time>2019-12-10T17:44:54Z</time>
      </trkpt>
      <trkpt lat="43.01369" lon="0.63728">
        <ele>913.005</ele>
        <time>2019-12-10T17:45:14Z</time>
      </trkpt>
      <trkpt lat="43.01392" lon="0.63581">
        <ele>908.208</ele>
        <time>2019-12-10T17:45:34Z</time>
      </trkpt>
      <trkpt lat="43.01411" lon="0.63527">
        <ele>895.448</ele>
        <time>2019-12-10T17:45:54Z</time>
      </trkpt>
      <trkpt lat="43.01461" lon="0.63474">
        <ele>874.517</ele>
        <time>2019-12-10T17:46:14Z</time>
      </trkpt>
      <trkpt lat="43.01474" lon="0.63431">
        <ele>868.393</ele>
        <time>2019-12-10T17:46:34Z</time>
      </trkpt>
      <trkpt lat="43.01511" lon="0.6339">
        <ele>853.619</ele>
        <time>2019-12-10T17:46:54Z</time>
      </trkpt>
      <trkpt lat="43.01536" lon="0.63338">
        <ele>842.27</ele>
        <time>2019-12-10T17:47:14Z</time>
      </trkpt>
      <trkpt lat="43.01588" lon="0.63319">
        <ele>837.832</ele>
        <time>2019-12-10T17:47:34Z</time>
      </trkpt>
      <trkpt lat="43.01619" lon="0.63428">
        <ele>830.175</ele>
        <time>2019-12-10T17:47:54Z</time>
      </trkpt>
      <trkpt lat="43.01646" lon="0.63487">
        <ele>830.167</ele>
        <time>2019-12-10T17:48:14Z</time>
      </trkpt>
      <trkpt lat="43.01659" lon="0.63536">
        <ele>827.662</ele>
        <time>2019-12-10T17:48:34Z</time>
      </trkpt>
      <trkpt lat="43.01683" lon="0.63543">
        <ele>825.683</ele>
        <time>2019-12-10T17:48:54Z</time>
      </trkpt>
      <trkpt lat="43.01773" lon="0.63631">
        <ele>805.011</ele>
        <time>2019-12-10T17:49:14Z</time>
      </trkpt>
      <trkpt lat="43.01791" lon="0.63612">
        <ele>800.608</ele>
        <time>2019-12-10T17:49:34Z</time>
      </trkpt>
      <trkpt lat="43.01784" lon="0.6354">
        <ele>796.262</ele>
        <time>2019-12-10T17:49:54Z</time>
      </trkpt>
      <trkpt lat="43.01825" lon="0.63312">
        <ele>763.861</ele>
        <time>2019-12-10T17:50:14Z</time>
      </trkpt>
      <trkpt lat="43.01828" lon="0.63216">
        <ele>754.877</ele>
        <time>2019-12-10T17:50:34Z</time>
      </trkpt>
      <trkpt lat="43.01866" lon="0.63063">
        <ele>739.283</ele>
        <time>2019-12-10T17:50:54Z</time>
      </trkpt>
      <trkpt lat="43.01884" lon="0.62944">
        <ele>738.364</ele>
        <time>2019-12-10T17:51:14Z</time>
      </trkpt>
      <trkpt lat="43.01926" lon="0.62875">
        <ele>729.466</ele>
        <time>2019-12-10T17:51:34Z</time>
      </trkpt>
      <trkpt lat="43.01945" lon="0.6286">
        <ele>722.919</ele>
        <time>2019-12-10T17:51:54Z</time>
      </trkpt>
      <trkpt lat="43.02011" lon="0.62839">
        <ele>716.341</ele>
        <time>2019-12-10T17:52:14Z</time>
      </trkpt>
      <trkpt lat="43.02064" lon="0.62802">
        <ele>712.872</ele>
        <time>2019-12-10T17:52:34Z</time>
      </trkpt>
      <trkpt lat="43.0209" lon="0.62766">
        <ele>709.113</ele>
        <time>2019-12-10T17:52:54Z</time>
      </trkpt>
      <trkpt lat="43.02137" lon="0.62688">
        <ele>706.014</ele>
        <time>2019-12-10T17:53:14Z</time>
      </trkpt>
      <trkpt lat="43.02176" lon="0.62647">
        <ele>708.008</ele>
        <time>2019-12-10T17:53:34Z</time>
      </trkpt>
      <trkpt lat="43.02169" lon="0.62568">
        <ele>703.983</ele>
        <time>2019-12-10T17:53:54Z</time>
      </trkpt>
      <trkpt lat="43.02193" lon="0.62509">
        <ele>706.682</ele>
        <time>2019-12-10T17:54:14Z</time>
      </trkpt>
      <trkpt lat="43.02208" lon="0.62393">
        <ele>707.098</ele>
        <time>2019-12-10T17:54:34Z</time>
      </trkpt>
      <trkpt lat="43.02205" lon="0.6235">
        <ele>700.944</ele>
        <time>2019-12-10T17:54:54Z</time>
      </trkpt>
      <trkpt lat="43.0225" lon="0.62303">
        <ele>696.545</ele>
        <time>2019-12-10T17:55:14Z</time>
      </trkpt>
      <trkpt lat="43.02309" lon="0.62299">
        <ele>691.097</ele>
        <time>2019-12-10T17:55:34Z</time>
      </trkpt>
      <trkpt lat="43.02339" lon="0.62324">
        <ele>688.61</ele>
        <time>2019-12-10T17:55:54Z</time>
      </trkpt>
      <trkpt lat="43.02417" lon="0.62337">
        <ele>676.652</ele>
        <time>2019-12-10T17:56:14Z</time>
      </trkpt>
      <trkpt lat="43.02471" lon="0.62363">
        <ele>667.633</ele>
        <time>2019-12-10T17:56:34Z</time>
      </trkpt>
      <trkpt lat="43.02523" lon="0.62428">
        <ele>675.423</ele>
        <time>2019-12-10T17:56:54Z</time>
      </trkpt>
      <trkpt lat="43.02602" lon="0.62449">
        <ele>648.415</ele>
        <time>2019-12-10T17:57:14Z</time>
      </trkpt>
      <trkpt lat="43.0269" lon="0.62529">
        <ele>641.208</ele>
        <time>2019-12-10T17:57:34Z</time>
      </trkpt>
      <trkpt lat="43.02811" lon="0.62692">
        <ele>617.569</ele>
        <time>2019-12-10T17:57:54Z</time>
      </trkpt>
      <trkpt lat="43.02908" lon="0.62871">
        <ele>600.648</ele>
        <time>2019-12-10T17:58:14Z</time>
      </trkpt>
      <trkpt lat="43.03035" lon="0.63039">
        <ele>581.534</ele>
        <time>2019-12-10T17:58:34Z</time>
      </trkpt>
      <trkpt lat="43.0309" lon="0.63073">
        <ele>575.75</ele>
        <time>2019-12-10T17:58:54Z</time>
      </trkpt>
      <trkpt lat="43.03165" lon="0.63086">
        <ele>566.671</ele>
        <time>2019-12-10T17:59:14Z</time>
      </trkpt>
      <trkpt lat="43.03207" lon="0.63075">
        <ele>561.053</ele>
        <time>2019-12-10T17:59:34Z</time>
      </trkpt>
      <trkpt lat="43.03243" lon="0.63028">
        <ele>559.636</ele>
        <time>2019-12-10T17:59:54Z</time>
      </trkpt>
      <trkpt lat="43.03289" lon="0.62865">
        <ele>545.478</ele>
        <time>2019-12-10T18:00:14Z</time>
      </trkpt>
      <trkpt lat="43.03323" lon="0.62781">
        <ele>536.016</ele>
        <time>2019-12-10T18:00:34Z</time>
      </trkpt>
      <trkpt lat="43.03256" lon="0.62794">
        <ele>518.776</ele>
        <time>2019-12-10T18:00:54Z</time>
      </trkpt>
      <trkpt lat="43.03237" lon="0.62757">
        <ele>513.113</ele>
        <time>2019-12-10T18:01:14Z</time>
      </trkpt>
      <trkpt lat="43.03159" lon="0.62729">
        <ele>520.408</ele>
        <time>2019-12-10T18:01:34Z</time>
      </trkpt>
      <trkpt lat="43.0309" lon="0.6272">
        <ele>534.637</ele>
        <time>2019-12-10T18:01:54Z</time>
      </trkpt>
      <trkpt lat="43.03069" lon="0.62692">
        <ele>533.996</ele>
        <time>2019-12-10T18:02:14Z</time>
      </trkpt>
      <trkpt lat="43.03056" lon="0.62583">
        <ele>510.072</ele>
        <time>2019-12-10T18:02:34Z</time>
      </trkpt>
      <trkpt lat="43.03028" lon="0.62522">
        <ele>501.058</ele>
        <time>2019-12-10T18:02:54Z</time>
      </trkpt>
      <trkpt lat="43.02978" lon="0.62449">
        <ele>492.119</ele>
        <time>2019-12-10T18:03:14Z</time>
      </trkpt>
      <trkpt lat="43.02978" lon="0.62398">
        <ele>479.461</ele>
        <time>2019-12-10T18:03:34Z</time>
      </trkpt>
      <trkpt lat="43.02936" lon="0.62359">
        <ele>478.834</ele>
        <time>2019-12-10T18:03:54Z</time>
      </trkpt>
      <trkpt lat="43.02896" lon="0.62331">
        <ele>482.426</ele>
        <time>2019-12-10T18:04:14Z</time>
      </trkpt>
      <trkpt lat="43.02814" lon="0.62215">
        <ele>476.673</ele>
        <time>2019-12-10T18:04:34Z</time>
      </trkpt>
      <trkpt lat="43.02706" lon="0.62126">
        <ele>473.985</ele>
        <time>2019-12-10T18:04:54Z</time>
      </trkpt>
      <trkpt lat="43.02676" lon="0.62084">
        <ele>468.213</ele>
        <time>2019-12-10T18:05:14Z</time>
      </trkpt>
      <trkpt lat="43.02608" lon="0.62023">
        <ele>469.908</ele>
        <time>2019-12-10T18:05:34Z</time>
      </trkpt>
      <trkpt lat="43.02602" lon="0.61995">
        <ele>462.353</ele>
        <time>2019-12-10T18:05:54Z</time>
      </trkpt>
      <trkpt lat="43.02641" lon="0.62002">
        <ele>458.312</ele>
        <time>2019-12-10T18:06:14Z</time>
      </trkpt>
      <trkpt lat="43.02646" lon="0.61976">
        <ele>455.688</ele>
        <time>2019-12-10T18:06:34Z</time>
      </trkpt>
      <trkpt lat="43.02684" lon="0.61911">
        <ele>452.654</ele>
        <time>2019-12-10T18:06:54Z</time>
      </trkpt>
      <trkpt lat="43.02679" lon="0.61886">
        <ele>450.645</ele>
        <time>2019-12-10T18:07:14Z</time>
      </trkpt>
      <trkpt lat="43.02688" lon="0.61802">
        <ele>448.657</ele>
        <time>2019-12-10T18:07:34Z</time>
      </trkpt>
      <trkpt lat="43.02707" lon="0.61758">
        <ele>444.78</ele>
        <time>2019-12-10T18:07:54Z</time>
      </trkpt>
      <trkpt lat="43.02743" lon="0.61802">
        <ele>445.422</ele>
        <time>2019-12-10T18:08:14Z</time>
      </trkpt>
      <trkpt lat="43.02901" lon="0.617">
        <ele>444.092</ele>
        <time>2019-12-10T18:08:34Z</time>
      </trkpt>
      <trkpt lat="43.02865" lon="0.61601">
        <ele>443.073</ele>
        <time>2019-12-10T18:08:54Z</time>
      </trkpt>
      <trkpt lat="43.02824" lon="0.61447">
        <ele>442.02</ele>
        <time>2019-12-10T18:09:14Z</time>
      </trkpt>
      <trkpt lat="43.02852" lon="0.61199">
        <ele>440.008</ele>
        <time>2019-12-10T18:09:34Z</time>
      </trkpt>
      <trkpt lat="43.02792" lon="0.60992">
        <ele>440.085</ele>
        <time>2019-12-10T18:09:54Z</time>
      </trkpt>
      <trkpt lat="43.0258" lon="0.60685">
        <ele>441.124</ele>
        <time>2019-12-10T18:10:14Z</time>
      </trkpt>
      <trkpt lat="43.02492" lon="0.60508">
        <ele>440.59</ele>
        <time>2019-12-10T18:10:34Z</time>
      </trkpt>
      <trkpt lat="43.02458" lon="0.60476">
        <ele>441.056</ele>
        <time>2019-12-10T18:10:54Z</time>
      </trkpt>
      <trkpt lat="43.02418" lon="0.60493">
        <ele>441.797</ele>
        <time>2019-12-10T18:11:14Z</time>
      </trkpt>
      <trkpt lat="43.02388" lon="0.60414">
        <ele>441.039</ele>
        <time>2019-12-10T18:11:34Z</time>
      </trkpt>
      <trkpt lat="43.02384" lon="0.60299">
        <ele>442.072</ele>
        <time>2019-12-10T18:11:54Z</time>
      </trkpt>
      <trkpt lat="43.02519" lon="0.5994">
        <ele>440.174</ele>
        <time>2019-12-10T18:12:14Z</time>
      </trkpt>
      <trkpt lat="43.02522" lon="0.59884">
        <ele>440.485</ele>
        <time>2019-12-10T18:12:34Z</time>
      </trkpt>
      <trkpt lat="43.02572" lon="0.59613">
        <ele>454.389</ele>
        <time>2019-12-10T18:12:54Z</time>
      </trkpt>
      <trkpt lat="43.0269" lon="0.59632">
        <ele>455.017</ele>
        <time>2019-12-10T18:13:14Z</time>
      </trkpt>
      <trkpt lat="43.02886" lon="0.59636">
        <ele>452.208</ele>
        <time>2019-12-10T18:13:34Z</time>
      </trkpt>
      <trkpt lat="43.02915" lon="0.59568">
        <ele>450.094</ele>
        <time>2019-12-10T18:13:54Z</time>
      </trkpt>
      <trkpt lat="43.02952" lon="0.59523">
        <ele>453.773</ele>
        <time>2019-12-10T18:14:14Z</time>
      </trkpt>
      <trkpt lat="43.03035" lon="0.59514">
        <ele>454.379</ele>
        <time>2019-12-10T18:14:34Z</time>
      </trkpt>
      <trkpt lat="43.03045" lon="0.59484">
        <ele>456.885</ele>
        <time>2019-12-10T18:14:54Z</time>
      </trkpt>
      <trkpt lat="43.02976" lon="0.5948">
        <ele>459.196</ele>
        <time>2019-12-10T18:15:14Z</time>
      </trkpt>
      <trkpt lat="43.02956" lon="0.59454">
        <ele>460.298</ele>
        <time>2019-12-10T18:15:34Z</time>
      </trkpt>
      <trkpt lat="43.02922" lon="0.59368">
        <ele>464.441</ele>
        <time>2019-12-10T18:15:54Z</time>
      </trkpt>
      <trkpt lat="43.02768" lon="0.59155">
        <ele>460.083</ele>
        <time>2019-12-10T18:16:14Z</time>
      </trkpt>
      <trkpt lat="43.02763" lon="0.59103">
        <ele>460.078</ele>
        <time>2019-12-10T18:16:34Z</time>
      </trkpt>
      <trkpt lat="43.0284" lon="0.58911">
        <ele>460.033</ele>
        <time>2019-12-10T18:16:54Z</time>
      </trkpt>
      <trkpt lat="43.02882" lon="0.5872">
        <ele>459.026</ele>
        <time>2019-12-10T18:17:14Z</time>
      </trkpt>
      <trkpt lat="43.0291" lon="0.58548">
        <ele>459.008</ele>
        <time>2019-12-10T18:17:34Z</time>
      </trkpt>
      <trkpt lat="43.02922" lon="0.58457">
        <ele>458.483</ele>
        <time>2021-02-06T09:01:11Z</time>
      </trkpt>
      <trkpt lat="43.02878" lon="0.58454">
        <ele>459.442</ele>
        <time>2021-02-06T09:01:31Z</time>
      </trkpt>
      <trkpt lat="43.02828" lon="0.58433">
        <ele>460.288</ele>
        <time>2021-02-06T09:01:51Z</time>
      </trkpt>
      <trkpt lat="43.028" lon="0.58361">
        <ele>461.224</ele>
        <time>2021-02-06T09:02:11Z</time>
      </trkpt>
      <trkpt lat="43.02879" lon="0.5823">
        <ele>457.435</ele>
        <time>2021-02-06T09:02:31Z</time>
      </trkpt>
      <trkpt lat="43.02809" lon="0.57891">
        <ele>459.827</ele>
        <time>2019-12-10T18:18:34Z</time>
      </trkpt>
      <trkpt lat="43.02814" lon="0.57836">
        <ele>459.74</ele>
        <time>2019-12-10T18:18:54Z</time>
      </trkpt>
      <trkpt lat="43.02826" lon="0.57769">
        <ele>460.062</ele>
        <time>2019-12-10T18:19:14Z</time>
      </trkpt>
      <trkpt lat="43.02815" lon="0.57756">
        <ele>460.036</ele>
        <time>2019-12-10T18:19:34Z</time>
      </trkpt>
      <trkpt lat="43.02791" lon="0.57739">
        <ele>460.017</ele>
        <time>2019-12-10T18:19:54Z</time>
      </trkpt>
      <trkpt lat="43.02765" lon="0.57704">
        <ele>460.018</ele>
        <time>2019-12-10T18:20:14Z</time>
      </trkpt>
      <trkpt lat="43.02746" lon="0.5768">
        <ele>460.108</ele>
        <time>2019-12-10T18:20:34Z</time>
      </trkpt>
      <trkpt lat="43.02727" lon="0.5763">
        <ele>461.149</ele>
        <time>2019-12-10T18:20:54Z</time>
      </trkpt>
      <trkpt lat="43.02742" lon="0.57617">
        <ele>461.198</ele>
        <time>2019-12-10T18:21:14Z</time>
      </trkpt>
      <trkpt lat="43.02729" lon="0.57568">
        <ele>461.914</ele>
        <time>2019-12-10T18:21:34Z</time>
      </trkpt>
      <trkpt lat="43.02695" lon="0.57521">
        <ele>463.08</ele>
        <time>2019-12-10T18:21:54Z</time>
      </trkpt>
      <trkpt lat="43.02693" lon="0.57469">
        <ele>463.131</ele>
        <time>2019-12-10T18:22:14Z</time>
      </trkpt>
      <trkpt lat="43.02666" lon="0.57476">
        <ele>464.063</ele>
        <time>2019-12-10T18:22:34Z</time>
      </trkpt>
      <trkpt lat="43.02655" lon="0.57416">
        <ele>464.016</ele>
        <time>2019-12-10T18:22:54Z</time>
      </trkpt>
      <trkpt lat="43.02645" lon="0.57415">
        <ele>464.168</ele>
        <time>2019-12-10T18:23:14Z</time>
      </trkpt>
      <trkpt lat="43.02649" lon="0.57392">
        <ele>464.916</ele>
        <time>2019-12-10T18:23:34Z</time>
      </trkpt>
      <trkpt lat="43.0265" lon="0.57375">
        <ele>465.076</ele>
        <time>2019-12-10T18:23:54Z</time>
      </trkpt>
      <trkpt lat="43.02669" lon="0.57367">
        <ele>465.013</ele>
        <time>2019-12-10T18:24:14Z</time>
      </trkpt>
      <trkpt lat="43.02701" lon="0.57369">
        <ele>464.708</ele>
        <time>2019-12-10T18:24:34Z</time>
      </trkpt>
      <trkpt lat="43.02699" lon="0.57344">
        <ele>468.567</ele>
        <time>2019-12-10T18:24:54Z</time>
      </trkpt>
      <trkpt lat="43.0268" lon="0.57334">
        <ele>469.896</ele>
        <time>2019-12-10T18:25:14Z</time>
      </trkpt>
      <trkpt lat="43.02722" lon="0.57313">
        <ele>479.342</ele>
        <time>2019-12-10T18:25:34Z</time>
      </trkpt>
      <trkpt lat="43.02732" lon="0.57284">
        <ele>488.358</ele>
        <time>2019-12-10T18:25:54Z</time>
      </trkpt>
      <trkpt lat="43.02711" lon="0.57306">
        <ele>483.419</ele>
        <time>2019-12-10T18:26:14Z</time>
      </trkpt>
      <trkpt lat="43.02685" lon="0.57308">
        <ele>482.231</ele>
        <time>2019-12-10T18:26:34Z</time>
      </trkpt>
      <trkpt lat="43.02667" lon="0.57297">
        <ele>484.054</ele>
        <time>2019-12-10T18:26:54Z</time>
      </trkpt>
      <trkpt lat="43.02677" lon="0.57273">
        <ele>494.826</ele>
        <time>2019-12-10T18:27:14Z</time>
      </trkpt>
      <trkpt lat="43.02689" lon="0.57219">
        <ele>506.864</ele>
        <time>2019-12-10T18:27:34Z</time>
      </trkpt>
      <trkpt lat="43.02711" lon="0.57164">
        <ele>510.006</ele>
        <time>2019-12-10T18:27:54Z</time>
      </trkpt>
      <trkpt lat="43.02697" lon="0.5715">
        <ele>510.016</ele>
        <time>2019-12-10T18:28:14Z</time>
      </trkpt>
      <trkpt lat="43.0271" lon="0.57107">
        <ele>510.008</ele>
        <time>2019-12-10T18:28:34Z</time>
      </trkpt>
      <trkpt lat="43.02708" lon="0.57085">
        <ele>510.072</ele>
        <time>2019-12-10T18:28:54Z</time>
      </trkpt>
      <trkpt lat="43.02696" lon="0.5706">
        <ele>510.031</ele>
        <time>2019-12-10T18:29:14Z</time>
      </trkpt>
      <trkpt lat="43.02666" lon="0.57039">
        <ele>507.657</ele>
        <time>2019-12-10T18:29:34Z</time>
      </trkpt>
      <trkpt lat="43.02645" lon="0.56958">
        <ele>499.053</ele>
        <time>2019-12-10T18:29:54Z</time>
      </trkpt>
      <trkpt lat="43.02615" lon="0.56946">
        <ele>490.294</ele>
        <time>2019-12-10T18:30:14Z</time>
      </trkpt>
      <trkpt lat="43.02631" lon="0.57011">
        <ele>494.656</ele>
        <time>2019-12-10T18:30:34Z</time>
      </trkpt>
      <trkpt lat="43.02626" lon="0.57013">
        <ele>492.739</ele>
        <time>2019-12-10T18:30:54Z</time>
      </trkpt>
      <trkpt lat="43.02612" lon="0.56983">
        <ele>489.011</ele>
        <time>2019-12-10T18:31:14Z</time>
      </trkpt>
      <trkpt lat="43.02579" lon="0.56947">
        <ele>475.854</ele>
        <time>2019-12-10T18:31:34Z</time>
      </trkpt>
      <trkpt lat="43.02566" lon="0.56905">
        <ele>472.556</ele>
        <time>2019-12-10T18:31:54Z</time>
      </trkpt>
      <trkpt lat="43.02574" lon="0.56876">
        <ele>473.811</ele>
        <time>2019-12-10T18:32:14Z</time>
      </trkpt>
      <trkpt lat="43.02575" lon="0.56854">
        <ele>474.008</ele>
        <time>2019-12-10T18:32:34Z</time>
      </trkpt>
      <trkpt lat="43.02578" lon="0.56814">
        <ele>476.351</ele>
        <time>2019-12-10T18:32:54Z</time>
      </trkpt>
      <trkpt lat="43.0257" lon="0.56793">
        <ele>480.92</ele>
        <time>2019-12-10T18:33:14Z</time>
      </trkpt>
      <trkpt lat="43.02545" lon="0.56768">
        <ele>479.926</ele>
        <time>2019-12-10T18:33:34Z</time>
      </trkpt>
      <trkpt lat="43.02544" lon="0.56746">
        <ele>485.452</ele>
        <time>2019-12-10T18:33:54Z</time>
      </trkpt>
      <trkpt lat="43.0256" lon="0.56715">
        <ele>495.893</ele>
        <time>2019-12-10T18:34:14Z</time>
      </trkpt>
      <trkpt lat="43.02569" lon="0.56667">
        <ele>505.085</ele>
        <time>2019-12-10T18:34:34Z</time>
      </trkpt>
      <trkpt lat="43.02577" lon="0.56665">
        <ele>505.268</ele>
        <time>2019-12-10T18:34:54Z</time>
      </trkpt>
      <trkpt lat="43.02589" lon="0.56732">
        <ele>502.21</ele>
        <time>2019-12-10T18:35:14Z</time>
      </trkpt>
      <trkpt lat="43.02596" lon="0.56733">
        <ele>502.822</ele>
        <time>2019-12-10T18:35:34Z</time>
      </trkpt>
      <trkpt lat="43.02593" lon="0.56686">
        <ele>505.062</ele>
        <time>2019-12-10T18:35:54Z</time>
      </trkpt>
      <trkpt lat="43.026" lon="0.56655">
        <ele>508.208</ele>
        <time>2019-12-10T18:36:14Z</time>
      </trkpt>
      <trkpt lat="43.0261" lon="0.56642">
        <ele>510.608</ele>
        <time>2019-12-10T18:36:34Z</time>
      </trkpt>
      <trkpt lat="43.0263" lon="0.56621">
        <ele>512.318</ele>
        <time>2019-12-10T18:36:54Z</time>
      </trkpt>
      <trkpt lat="43.02643" lon="0.56597">
        <ele>513.317</ele>
        <time>2019-12-10T18:37:14Z</time>
      </trkpt>
      <trkpt lat="43.02645" lon="0.56585">
        <ele>513.793</ele>
        <time>2019-12-10T18:37:34Z</time>
      </trkpt>
      <trkpt lat="43.02643" lon="0.56577">
        <ele>514.359</ele>
        <time>2019-12-10T18:37:54Z</time>
      </trkpt>
      <trkpt lat="43.02666" lon="0.56567">
        <ele>514.24</ele>
        <time>2019-12-10T18:38:14Z</time>
      </trkpt>
      <trkpt lat="43.02713" lon="0.5656">
        <ele>512.932</ele>
        <time>2019-12-10T18:38:34Z</time>
      </trkpt>
      <trkpt lat="43.02734" lon="0.56513">
        <ele>515.825</ele>
        <time>2019-12-10T18:38:54Z</time>
      </trkpt>
      <trkpt lat="43.02749" lon="0.56505">
        <ele>517.897</ele>
        <time>2019-12-10T18:39:14Z</time>
      </trkpt>
      <trkpt lat="43.02829" lon="0.56552">
        <ele>511.552</ele>
        <time>2019-12-10T18:39:34Z</time>
      </trkpt>
      <trkpt lat="43.02934" lon="0.56539">
        <ele>523.453</ele>
        <time>2019-12-10T18:39:54Z</time>
      </trkpt>
      <trkpt lat="43.0297" lon="0.5651">
        <ele>525.008</ele>
        <time>2019-12-10T18:40:14Z</time>
      </trkpt>
      <trkpt lat="43.03013" lon="0.56458">
        <ele>519.508</ele>
        <time>2019-12-10T18:40:34Z</time>
      </trkpt>
      <trkpt lat="43.03054" lon="0.56431">
        <ele>512.781</ele>
        <time>2019-12-10T18:40:54Z</time>
      </trkpt>
      <trkpt lat="43.03103" lon="0.56439">
        <ele>506.03</ele>
        <time>2019-12-10T18:41:14Z</time>
      </trkpt>
      <trkpt lat="43.03125" lon="0.56422">
        <ele>504.116</ele>
        <time>2019-12-10T18:41:34Z</time>
      </trkpt>
      <trkpt lat="43.03191" lon="0.56351">
        <ele>500.012</ele>
        <time>2019-12-10T18:41:54Z</time>
      </trkpt>
      <trkpt lat="43.03154" lon="0.56291">
        <ele>504.493</ele>
        <time>2019-12-10T18:42:14Z</time>
      </trkpt>
      <trkpt lat="43.0322" lon="0.56229">
        <ele>506.965</ele>
        <time>2019-12-10T18:42:34Z</time>
      </trkpt>
      <trkpt lat="43.0327" lon="0.56156">
        <ele>500.568</ele>
        <time>2019-12-10T18:42:54Z</time>
      </trkpt>
      <trkpt lat="43.03307" lon="0.56119">
        <ele>496.01</ele>
        <time>2019-12-10T18:43:14Z</time>
      </trkpt>
      <trkpt lat="43.03373" lon="0.55909">
        <ele>491.722</ele>
        <time>2019-12-10T18:43:34Z</time>
      </trkpt>
      <trkpt lat="43.03352" lon="0.55863">
        <ele>496.262</ele>
        <time>2019-12-10T18:43:54Z</time>
      </trkpt>
      <trkpt lat="43.03347" lon="0.55699">
        <ele>495.608</ele>
        <time>2019-12-10T18:44:14Z</time>
      </trkpt>
      <trkpt lat="43.03337" lon="0.55655">
        <ele>499.508</ele>
        <time>2019-12-10T18:44:34Z</time>
      </trkpt>
      <trkpt lat="43.0333" lon="0.55577">
        <ele>501.868</ele>
        <time>2019-12-10T18:44:54Z</time>
      </trkpt>
      <trkpt lat="43.03337" lon="0.55551">
        <ele>499.947</ele>
        <time>2019-12-10T18:45:14Z</time>
      </trkpt>
      <trkpt lat="43.03322" lon="0.55491">
        <ele>507.463</ele>
        <time>2019-12-10T18:45:34Z</time>
      </trkpt>
      <trkpt lat="43.03297" lon="0.55434">
        <ele>516.049</ele>
        <time>2019-12-10T18:45:54Z</time>
      </trkpt>
      <trkpt lat="43.03279" lon="0.55325">
        <ele>517.87</ele>
        <time>2019-12-10T18:46:14Z</time>
      </trkpt>
      <trkpt lat="43.03264" lon="0.55309">
        <ele>519.042</ele>
        <time>2019-12-10T18:46:34Z</time>
      </trkpt>
      <trkpt lat="43.03246" lon="0.55148">
        <ele>516.025</ele>
        <time>2019-12-10T18:46:54Z</time>
      </trkpt>
      <trkpt lat="43.03292" lon="0.55164">
        <ele>515.927</ele>
        <time>2019-12-10T18:47:14Z</time>
      </trkpt>
      <trkpt lat="43.03378" lon="0.55156">
        <ele>510.038</ele>
        <time>2019-12-10T18:47:34Z</time>
      </trkpt>
      <trkpt lat="43.03429" lon="0.54963">
        <ele>508.47</ele>
        <time>2019-12-10T18:47:54Z</time>
      </trkpt>
      <trkpt lat="43.03428" lon="0.54821">
        <ele>506.817</ele>
        <time>2019-12-10T18:48:14Z</time>
      </trkpt>
      <trkpt lat="43.03438" lon="0.54795">
        <ele>503.308</ele>
        <time>2019-12-10T18:48:34Z</time>
      </trkpt>
      <trkpt lat="43.03462" lon="0.54782">
        <ele>500.849</ele>
        <time>2019-12-10T18:48:54Z</time>
      </trkpt>
      <trkpt lat="43.03448" lon="0.54763">
        <ele>496.088</ele>
        <time>2019-12-10T18:49:14Z</time>
      </trkpt>
      <trkpt lat="43.03472" lon="0.54743">
        <ele>490.524</ele>
        <time>2019-12-10T18:49:34Z</time>
      </trkpt>
      <trkpt lat="43.03465" lon="0.54702">
        <ele>489.75</ele>
        <time>2019-12-10T18:49:54Z</time>
      </trkpt>
      <trkpt lat="43.03481" lon="0.54702">
        <ele>489.911</ele>
        <time>2019-12-10T18:50:14Z</time>
      </trkpt>
      <trkpt lat="43.0362" lon="0.5475">
        <ele>485.493</ele>
        <time>2019-12-10T18:50:34Z</time>
      </trkpt>
      <trkpt lat="43.03752" lon="0.54766">
        <ele>488.486</ele>
        <time>2019-12-10T18:50:54Z</time>
      </trkpt>
      <trkpt lat="43.03813" lon="0.54735">
        <ele>488.358</ele>
        <time>2019-12-10T18:51:14Z</time>
      </trkpt>
      <trkpt lat="43.03915" lon="0.54663">
        <ele>488.174</ele>
        <time>2019-12-10T18:51:34Z</time>
      </trkpt>
      <trkpt lat="43.0398" lon="0.54645">
        <ele>486.556</ele>
        <time>2019-12-10T18:51:54Z</time>
      </trkpt>
      <trkpt lat="43.04068" lon="0.54764">
        <ele>483.521</ele>
        <time>2019-12-10T18:52:14Z</time>
      </trkpt>
      <trkpt lat="43.04198" lon="0.54798">
        <ele>481.108</ele>
        <time>2019-12-10T18:52:34Z</time>
      </trkpt>
      <trkpt lat="43.0427" lon="0.54785">
        <ele>476.983</ele>
        <time>2019-12-10T18:52:54Z</time>
      </trkpt>
      <trkpt lat="43.04318" lon="0.54763">
        <ele>476.262</ele>
        <time>2019-12-10T18:53:14Z</time>
      </trkpt>
      <trkpt lat="43.0435" lon="0.5473">
        <ele>481.268</ele>
        <time>2019-12-10T18:53:34Z</time>
      </trkpt>
      <trkpt lat="43.04477" lon="0.54725">
        <ele>482.234</ele>
        <time>2019-12-10T18:53:54Z</time>
      </trkpt>
      <trkpt lat="43.04564" lon="0.54634">
        <ele>482.865</ele>
        <time>2019-12-10T18:54:14Z</time>
      </trkpt>
      <trkpt lat="43.04571" lon="0.54584">
        <ele>487.597</ele>
        <time>2019-12-10T18:54:34Z</time>
      </trkpt>
      <trkpt lat="43.0461" lon="0.54536">
        <ele>481.97</ele>
        <time>2019-12-10T18:54:54Z</time>
      </trkpt>
      <trkpt lat="43.0466" lon="0.54491">
        <ele>479.872</ele>
        <time>2019-12-10T18:55:14Z</time>
      </trkpt>
      <trkpt lat="43.04705" lon="0.54462">
        <ele>479.441</ele>
        <time>2019-12-10T18:55:34Z</time>
      </trkpt>
      <trkpt lat="43.04746" lon="0.54372">
        <ele>481.881</ele>
        <time>2019-12-10T18:55:54Z</time>
      </trkpt>
      <trkpt lat="43.0479" lon="0.54299">
        <ele>483.809</ele>
        <time>2019-12-10T18:56:14Z</time>
      </trkpt>
      <trkpt lat="43.04762" lon="0.54258">
        <ele>486.308</ele>
        <time>2019-12-10T18:56:34Z</time>
      </trkpt>
      <trkpt lat="43.04767" lon="0.542">
        <ele>487.88</ele>
        <time>2019-12-10T18:56:54Z</time>
      </trkpt>
      <trkpt lat="43.04764" lon="0.54164">
        <ele>489.149</ele>
        <time>2019-12-10T18:57:14Z</time>
      </trkpt>
      <trkpt lat="43.0479" lon="0.54159">
        <ele>488.885</ele>
        <time>2019-12-10T18:57:34Z</time>
      </trkpt>
      <trkpt lat="43.04805" lon="0.5413">
        <ele>490.081</ele>
        <time>2019-12-10T18:57:54Z</time>
      </trkpt>
      <trkpt lat="43.04847" lon="0.54125">
        <ele>488.852</ele>
        <time>2019-12-10T18:58:14Z</time>
      </trkpt>
      <trkpt lat="43.04915" lon="0.54112">
        <ele>488.074</ele>
        <time>2019-12-10T18:58:34Z</time>
      </trkpt>
      <trkpt lat="43.05088" lon="0.54195">
        <ele>483.147</ele>
        <time>2019-12-10T18:58:54Z</time>
      </trkpt>
      <trkpt lat="43.05132" lon="0.54192">
        <ele>486.089</ele>
        <time>2019-12-10T18:59:14Z</time>
      </trkpt>
      <trkpt lat="43.05155" lon="0.54172">
        <ele>491.792</ele>
        <time>2019-12-10T18:59:34Z</time>
      </trkpt>
      <trkpt lat="43.05188" lon="0.5418">
        <ele>494.673</ele>
        <time>2019-12-10T18:59:54Z</time>
      </trkpt>
      <trkpt lat="43.05252" lon="0.54174">
        <ele>501.22</ele>
        <time>2019-12-10T19:00:14Z</time>
      </trkpt>
      <trkpt lat="43.05338" lon="0.54138">
        <ele>515.708</ele>
        <time>2019-12-10T19:00:34Z</time>
      </trkpt>
      <trkpt lat="43.05359" lon="0.54187">
        <ele>519.285</ele>
        <time>2019-12-10T19:00:54Z</time>
      </trkpt>
      <trkpt lat="43.05374" lon="0.54182">
        <ele>523.274</ele>
        <time>2019-12-10T19:01:14Z</time>
      </trkpt>
      <trkpt lat="43.05421" lon="0.54097">
        <ele>530.42</ele>
        <time>2019-12-10T19:01:34Z</time>
      </trkpt>
      <trkpt lat="43.05423" lon="0.54068">
        <ele>532.226</ele>
        <time>2019-12-10T19:01:54Z</time>
      </trkpt>
      <trkpt lat="43.05454" lon="0.54013">
        <ele>538.097</ele>
        <time>2019-12-10T19:02:14Z</time>
      </trkpt>
      <trkpt lat="43.05456" lon="0.53764">
        <ele>560.459</ele>
        <time>2019-12-10T19:02:34Z</time>
      </trkpt>
      <trkpt lat="43.05473" lon="0.53748">
        <ele>558.842</ele>
        <time>2019-12-10T19:02:54Z</time>
      </trkpt>
      <trkpt lat="43.055" lon="0.53679">
        <ele>553.934</ele>
        <time>2019-12-10T19:03:14Z</time>
      </trkpt>
      <trkpt lat="43.05477" lon="0.53632">
        <ele>541.784</ele>
        <time>2019-12-10T19:03:34Z</time>
      </trkpt>
      <trkpt lat="43.05473" lon="0.5359">
        <ele>529.007</ele>
        <time>2019-12-10T19:03:54Z</time>
      </trkpt>
      <trkpt lat="43.05478" lon="0.53543">
        <ele>520.717</ele>
        <time>2019-12-10T19:04:14Z</time>
      </trkpt>
      <trkpt lat="43.05511" lon="0.53488">
        <ele>509.408</ele>
        <time>2019-12-10T19:04:34Z</time>
      </trkpt>
      <trkpt lat="43.05527" lon="0.53387">
        <ele>505.434</ele>
        <time>2019-12-10T19:04:54Z</time>
      </trkpt>
      <trkpt lat="43.05548" lon="0.53307">
        <ele>507.013</ele>
        <time>2019-12-10T19:05:14Z</time>
      </trkpt>
      <trkpt lat="43.05588" lon="0.5327">
        <ele>523.919</ele>
        <time>2021-02-06T09:49:51Z</time>
      </trkpt>
      <trkpt lat="43.05622" lon="0.53174">
        <ele>527.525</ele>
        <time>2021-02-06T09:50:11Z</time>
      </trkpt>
      <trkpt lat="43.05656" lon="0.53093">
        <ele>522.966</ele>
        <time>2021-02-06T09:50:31Z</time>
      </trkpt>
      <trkpt lat="43.05668" lon="0.52931">
        <ele>511.868</ele>
        <time>2019-12-10T19:07:54Z</time>
      </trkpt>
      <trkpt lat="43.05664" lon="0.52808">
        <ele>513.571</ele>
        <time>2019-12-10T19:08:14Z</time>
      </trkpt>
      <trkpt lat="43.05626" lon="0.52601">
        <ele>514.763</ele>
        <time>2019-12-10T19:08:34Z</time>
      </trkpt>
      <trkpt lat="43.05641" lon="0.52431">
        <ele>510.675</ele>
        <time>2019-12-10T19:08:54Z</time>
      </trkpt>
      <trkpt lat="43.05631" lon="0.52265">
        <ele>511.228</ele>
        <time>2019-12-10T19:09:14Z</time>
      </trkpt>
      <trkpt lat="43.05597" lon="0.5219">
        <ele>512.92</ele>
        <time>2019-12-10T19:09:34Z</time>
      </trkpt>
      <trkpt lat="43.05557" lon="0.52128">
        <ele>513.408</ele>
        <time>2019-12-10T19:09:54Z</time>
      </trkpt>
      <trkpt lat="43.05566" lon="0.52084">
        <ele>509.913</ele>
        <time>2019-12-10T19:10:14Z</time>
      </trkpt>
      <trkpt lat="43.05498" lon="0.5204">
        <ele>517.022</ele>
        <time>2019-12-10T19:10:34Z</time>
      </trkpt>
      <trkpt lat="43.05421" lon="0.52006">
        <ele>518.098</ele>
        <time>2019-12-10T19:10:54Z</time>
      </trkpt>
      <trkpt lat="43.05366" lon="0.52001">
        <ele>517.414</ele>
        <time>2019-12-10T19:11:14Z</time>
      </trkpt>
      <trkpt lat="43.05313" lon="0.52027">
        <ele>515.735</ele>
        <time>2019-12-10T19:11:34Z</time>
      </trkpt>
      <trkpt lat="43.05268" lon="0.52039">
        <ele>517.097</ele>
        <time>2019-12-10T19:11:54Z</time>
      </trkpt>
      <trkpt lat="43.05017" lon="0.52153">
        <ele>507.66</ele>
        <time>2019-12-10T19:12:14Z</time>
      </trkpt>
      <trkpt lat="43.04979" lon="0.52188">
        <ele>511.132</ele>
        <time>2019-12-10T19:12:34Z</time>
      </trkpt>
      <trkpt lat="43.04956" lon="0.52187">
        <ele>509.969</ele>
        <time>2019-12-10T19:12:54Z</time>
      </trkpt>
      <trkpt lat="43.04915" lon="0.52159">
        <ele>506.504</ele>
        <time>2019-12-10T19:13:14Z</time>
      </trkpt>
      <trkpt lat="43.0489" lon="0.52156">
        <ele>505.624</ele>
        <time>2019-12-10T19:13:34Z</time>
      </trkpt>
      <trkpt lat="43.04874" lon="0.52172">
        <ele>506.208</ele>
        <time>2019-12-10T19:13:54Z</time>
      </trkpt>
      <trkpt lat="43.04847" lon="0.52289">
        <ele>510.242</ele>
        <time>2019-12-10T19:14:14Z</time>
      </trkpt>
      <trkpt lat="43.04718" lon="0.52379">
        <ele>508.631</ele>
        <time>2019-12-10T19:14:34Z</time>
      </trkpt>
      <trkpt lat="43.04675" lon="0.524">
        <ele>510.797</ele>
        <time>2019-12-10T19:14:54Z</time>
      </trkpt>
      <trkpt lat="43.04644" lon="0.52396">
        <ele>509.693</ele>
        <time>2019-12-10T19:15:14Z</time>
      </trkpt>
      <trkpt lat="43.04607" lon="0.52379">
        <ele>507.164</ele>
        <time>2019-12-10T19:15:34Z</time>
      </trkpt>
      <trkpt lat="43.04408" lon="0.52379">
        <ele>499.666</ele>
        <time>2019-12-10T19:15:54Z</time>
      </trkpt>
      <trkpt lat="43.04439" lon="0.52287">
        <ele>496.869</ele>
        <time>2019-12-10T19:16:14Z</time>
      </trkpt>
      <trkpt lat="43.04472" lon="0.52244">
        <ele>505.921</ele>
        <time>2019-12-10T19:16:34Z</time>
      </trkpt>
      <trkpt lat="43.04525" lon="0.52235">
        <ele>514.063</ele>
        <time>2019-12-10T19:16:54Z</time>
      </trkpt>
      <trkpt lat="43.04559" lon="0.52203">
        <ele>522.944</ele>
        <time>2019-12-10T19:17:14Z</time>
      </trkpt>
      <trkpt lat="43.04596" lon="0.52192">
        <ele>519.418</ele>
        <time>2019-12-10T19:17:34Z</time>
      </trkpt>
      <trkpt lat="43.04619" lon="0.52174">
        <ele>517.208</ele>
        <time>2019-12-10T19:17:54Z</time>
      </trkpt>
      <trkpt lat="43.04648" lon="0.52159">
        <ele>509.992</ele>
        <time>2019-12-10T19:18:14Z</time>
      </trkpt>
      <trkpt lat="43.04711" lon="0.52063">
        <ele>507.121</ele>
        <time>2019-12-10T19:18:34Z</time>
      </trkpt>
      <trkpt lat="43.04754" lon="0.52026">
        <ele>509.677</ele>
        <time>2019-12-10T19:18:54Z</time>
      </trkpt>
      <trkpt lat="43.04809" lon="0.52014">
        <ele>509.463</ele>
        <time>2019-12-10T19:19:14Z</time>
      </trkpt>
      <trkpt lat="43.04848" lon="0.5199">
        <ele>505.964</ele>
        <time>2019-12-10T19:19:34Z</time>
      </trkpt>
      <trkpt lat="43.04874" lon="0.52019">
        <ele>494.476</ele>
        <time>2019-12-10T19:19:54Z</time>
      </trkpt>
      <trkpt lat="43.04906" lon="0.51995">
        <ele>491.019</ele>
        <time>2019-12-10T19:20:14Z</time>
      </trkpt>
      <trkpt lat="43.04947" lon="0.52032">
        <ele>472.691</ele>
        <time>2019-12-10T19:20:34Z</time>
      </trkpt>
      <trkpt lat="43.04998" lon="0.51952">
        <ele>473.788</ele>
        <time>2019-12-10T19:20:54Z</time>
      </trkpt>
      <trkpt lat="43.05027" lon="0.51964">
        <ele>467.424</ele>
        <time>2019-12-10T19:21:14Z</time>
      </trkpt>
      <trkpt lat="43.05045" lon="0.51948">
        <ele>466.626</ele>
        <time>2019-12-10T19:21:34Z</time>
      </trkpt>
      <trkpt lat="43.05064" lon="0.51941">
        <ele>465.808</ele>
        <time>2019-12-10T19:21:54Z</time>
      </trkpt>
      <trkpt lat="43.05092" lon="0.51946">
        <ele>465.034</ele>
        <time>2019-12-10T19:22:14Z</time>
      </trkpt>
      <trkpt lat="43.05112" lon="0.51922">
        <ele>465.193</ele>
        <time>2019-12-10T19:22:34Z</time>
      </trkpt>
      <trkpt lat="43.05119" lon="0.51892">
        <ele>465.449</ele>
        <time>2019-12-10T19:22:54Z</time>
      </trkpt>
      <trkpt lat="43.05101" lon="0.51884">
        <ele>465.165</ele>
        <time>2019-12-10T19:23:14Z</time>
      </trkpt>
      <trkpt lat="43.05095" lon="0.51852">
        <ele>465.896</ele>
        <time>2019-12-10T19:23:34Z</time>
      </trkpt>
      <trkpt lat="43.05111" lon="0.51813">
        <ele>465.188</ele>
        <time>2019-12-10T19:23:54Z</time>
      </trkpt>
      <trkpt lat="43.0512" lon="0.51761">
        <ele>468.051</ele>
        <time>2019-12-10T19:24:14Z</time>
      </trkpt>
      <trkpt lat="43.05219" lon="0.51783">
        <ele>465.063</ele>
        <time>2019-12-10T19:24:34Z</time>
      </trkpt>
      <trkpt lat="43.05256" lon="0.51748">
        <ele>465.211</ele>
        <time>2019-12-10T19:24:54Z</time>
      </trkpt>
      <trkpt lat="43.05247" lon="0.51713">
        <ele>470.721</ele>
        <time>2019-12-10T19:25:14Z</time>
      </trkpt>
      <trkpt lat="43.05285" lon="0.51668">
        <ele>476.303</ele>
        <time>2019-12-10T19:25:34Z</time>
      </trkpt>
      <trkpt lat="43.05314" lon="0.51635">
        <ele>482.008</ele>
        <time>2019-12-10T19:25:54Z</time>
      </trkpt>
      <trkpt lat="43.05367" lon="0.51601">
        <ele>481.477</ele>
        <time>2019-12-10T19:26:14Z</time>
      </trkpt>
      <trkpt lat="43.05358" lon="0.51473">
        <ele>478.836</ele>
        <time>2019-12-10T19:26:34Z</time>
      </trkpt>
      <trkpt lat="43.0539" lon="0.51369">
        <ele>463.262</ele>
        <time>2019-12-10T19:26:54Z</time>
      </trkpt>
      <trkpt lat="43.05422" lon="0.51313">
        <ele>459.978</ele>
        <time>2019-12-10T19:27:14Z</time>
      </trkpt>
      <trkpt lat="43.0548" lon="0.51234">
        <ele>454.799</ele>
        <time>2019-12-10T19:27:34Z</time>
      </trkpt>
      <trkpt lat="43.05505" lon="0.51175">
        <ele>454.031</ele>
        <time>2019-12-10T19:27:54Z</time>
      </trkpt>
      <trkpt lat="43.05569" lon="0.51128">
        <ele>454.914</ele>
        <time>2019-12-10T19:28:14Z</time>
      </trkpt>
      <trkpt lat="43.05609" lon="0.51082">
        <ele>457.916</ele>
        <time>2019-12-10T19:28:34Z</time>
      </trkpt>
      <trkpt lat="43.05635" lon="0.51004">
        <ele>464.457</ele>
        <time>2019-12-10T19:28:54Z</time>
      </trkpt>
      <trkpt lat="43.05686" lon="0.50952">
        <ele>469.1</ele>
        <time>2019-12-10T19:29:14Z</time>
      </trkpt>
      <trkpt lat="43.05762" lon="0.51047">
        <ele>467.12</ele>
        <time>2019-12-10T19:29:34Z</time>
      </trkpt>
      <trkpt lat="43.05819" lon="0.5104">
        <ele>469.608</ele>
        <time>2019-12-10T19:29:54Z</time>
      </trkpt>
      <trkpt lat="43.05834" lon="0.50965">
        <ele>478.921</ele>
        <time>2019-12-10T19:30:14Z</time>
      </trkpt>
      <trkpt lat="43.05875" lon="0.50907">
        <ele>484.14</ele>
        <time>2019-12-10T19:30:34Z</time>
      </trkpt>
      <trkpt lat="43.05908" lon="0.50839">
        <ele>490.246</ele>
        <time>2019-12-10T19:30:54Z</time>
      </trkpt>
      <trkpt lat="43.06039" lon="0.50769">
        <ele>499.762</ele>
        <time>2019-12-10T19:31:14Z</time>
      </trkpt>
      <trkpt lat="43.06169" lon="0.5066">
        <ele>507.033</ele>
        <time>2019-12-10T19:31:34Z</time>
      </trkpt>
      <trkpt lat="43.06209" lon="0.50608">
        <ele>504.775</ele>
        <time>2019-12-10T19:31:54Z</time>
      </trkpt>
      <trkpt lat="43.06212" lon="0.50583">
        <ele>502.758</ele>
        <time>2019-12-10T19:32:14Z</time>
      </trkpt>
      <trkpt lat="43.06191" lon="0.50575">
        <ele>504.06</ele>
        <time>2019-12-10T19:32:34Z</time>
      </trkpt>
      <trkpt lat="43.06152" lon="0.50541">
        <ele>510.032</ele>
        <time>2019-12-10T19:32:54Z</time>
      </trkpt>
      <trkpt lat="43.06143" lon="0.50455">
        <ele>516.892</ele>
        <time>2019-12-10T19:33:14Z</time>
      </trkpt>
      <trkpt lat="43.06051" lon="0.5039">
        <ele>524.911</ele>
        <time>2019-12-10T19:33:34Z</time>
      </trkpt>
      <trkpt lat="43.06024" lon="0.50346">
        <ele>525.008</ele>
        <time>2019-12-10T19:33:54Z</time>
      </trkpt>
      <trkpt lat="43.05935" lon="0.50268">
        <ele>528.079</ele>
        <time>2019-12-10T19:34:14Z</time>
      </trkpt>
      <trkpt lat="43.05788" lon="0.50061">
        <ele>540.038</ele>
        <time>2019-12-10T19:34:34Z</time>
      </trkpt>
      <trkpt lat="43.05754" lon="0.49991">
        <ele>544.554</ele>
        <time>2019-12-10T19:34:54Z</time>
      </trkpt>
      <trkpt lat="43.05746" lon="0.49939">
        <ele>544.84</ele>
        <time>2019-12-10T19:35:14Z</time>
      </trkpt>
      <trkpt lat="43.05669" lon="0.49783">
        <ele>542.771</ele>
        <time>2019-12-10T19:35:34Z</time>
      </trkpt>
      <trkpt lat="43.05635" lon="0.49729">
        <ele>548.313</ele>
        <time>2019-12-10T19:35:54Z</time>
      </trkpt>
      <trkpt lat="43.0559" lon="0.49616">
        <ele>556.436</ele>
        <time>2019-12-10T19:36:14Z</time>
      </trkpt>
      <trkpt lat="43.05549" lon="0.49564">
        <ele>558.738</ele>
        <time>2019-12-10T19:36:34Z</time>
      </trkpt>
      <trkpt lat="43.05384" lon="0.4938">
        <ele>571.472</ele>
        <time>2021-02-06T10:19:51Z</time>
      </trkpt>
      <trkpt lat="43.05307" lon="0.49386">
        <ele>576.313</ele>
        <time>2021-02-06T10:20:11Z</time>
      </trkpt>
      <trkpt lat="43.05267" lon="0.49264">
        <ele>583.914</ele>
        <time>2021-02-06T10:20:31Z</time>
      </trkpt>
      <trkpt lat="43.05208" lon="0.49134">
        <ele>574.508</ele>
        <time>2019-12-10T19:38:54Z</time>
      </trkpt>
      <trkpt lat="43.05005" lon="0.48778">
        <ele>575.893</ele>
        <time>2019-12-10T19:39:14Z</time>
      </trkpt>
      <trkpt lat="43.05067" lon="0.48733">
        <ele>567.812</ele>
        <time>2019-12-10T19:39:34Z</time>
      </trkpt>
      <trkpt lat="43.05144" lon="0.48744">
        <ele>557.388</ele>
        <time>2019-12-10T19:39:54Z</time>
      </trkpt>
      <trkpt lat="43.05196" lon="0.4878">
        <ele>548.014</ele>
        <time>2019-12-10T19:40:14Z</time>
      </trkpt>
      <trkpt lat="43.05257" lon="0.48811">
        <ele>540.095</ele>
        <time>2019-12-10T19:40:34Z</time>
      </trkpt>
      <trkpt lat="43.05306" lon="0.48866">
        <ele>535.587</ele>
        <time>2019-12-10T19:40:54Z</time>
      </trkpt>
      <trkpt lat="43.05322" lon="0.48868">
        <ele>534.96</ele>
        <time>2019-12-10T19:41:14Z</time>
      </trkpt>
      <trkpt lat="43.05371" lon="0.4878">
        <ele>520.212</ele>
        <time>2019-12-10T19:41:34Z</time>
      </trkpt>
      <trkpt lat="43.05467" lon="0.48708">
        <ele>502.294</ele>
        <time>2019-12-10T19:41:54Z</time>
      </trkpt>
      <trkpt lat="43.05517" lon="0.48677">
        <ele>495.157</ele>
        <time>2019-12-10T19:42:14Z</time>
      </trkpt>
      <trkpt lat="43.05573" lon="0.48609">
        <ele>486.922</ele>
        <time>2019-12-10T19:42:34Z</time>
      </trkpt>
      <trkpt lat="43.05603" lon="0.48537">
        <ele>482.608</ele>
        <time>2019-12-10T19:42:54Z</time>
      </trkpt>
      <trkpt lat="43.05636" lon="0.48531">
        <ele>478.695</ele>
        <time>2019-12-10T19:43:14Z</time>
      </trkpt>
      <trkpt lat="43.05669" lon="0.4851">
        <ele>475.384</ele>
        <time>2019-12-10T19:43:34Z</time>
      </trkpt>
      <trkpt lat="43.0573" lon="0.4845">
        <ele>474.08</ele>
        <time>2019-12-10T19:43:54Z</time>
      </trkpt>
      <trkpt lat="43.05921" lon="0.48455">
        <ele>486.396</ele>
        <time>2019-12-10T19:44:14Z</time>
      </trkpt>
      <trkpt lat="43.05982" lon="0.48443">
        <ele>488.347</ele>
        <time>2019-12-10T19:44:34Z</time>
      </trkpt>
      <trkpt lat="43.06041" lon="0.4837">
        <ele>492.399</ele>
        <time>2019-12-10T19:44:54Z</time>
      </trkpt>
      <trkpt lat="43.0607" lon="0.4829">
        <ele>491.162</ele>
        <time>2019-12-10T19:45:14Z</time>
      </trkpt>
      <trkpt lat="43.06083" lon="0.48186">
        <ele>492.624</ele>
        <time>2019-12-10T19:45:34Z</time>
      </trkpt>
      <trkpt lat="43.06101" lon="0.48106">
        <ele>488.771</ele>
        <time>2019-12-10T19:45:54Z</time>
      </trkpt>
      <trkpt lat="43.06101" lon="0.48056">
        <ele>485.941</ele>
        <time>2019-12-10T19:46:14Z</time>
      </trkpt>
      <trkpt lat="43.06081" lon="0.47994">
        <ele>485.715</ele>
        <time>2019-12-10T19:46:34Z</time>
      </trkpt>
      <trkpt lat="43.06197" lon="0.47946">
        <ele>501.108</ele>
        <time>2019-12-10T19:46:54Z</time>
      </trkpt>
      <trkpt lat="43.06212" lon="0.47876">
        <ele>503.863</ele>
        <time>2019-12-10T19:47:14Z</time>
      </trkpt>
      <trkpt lat="43.06234" lon="0.4783">
        <ele>506.862</ele>
        <time>2019-12-10T19:47:34Z</time>
      </trkpt>
      <trkpt lat="43.06268" lon="0.47794">
        <ele>510.048</ele>
        <time>2019-12-10T19:47:54Z</time>
      </trkpt>
      <trkpt lat="43.06339" lon="0.47802">
        <ele>508.924</ele>
        <time>2019-12-10T19:48:14Z</time>
      </trkpt>
      <trkpt lat="43.06343" lon="0.47748">
        <ele>510.735</ele>
        <time>2019-12-10T19:48:34Z</time>
      </trkpt>
      <trkpt lat="43.0634" lon="0.47669">
        <ele>512.447</ele>
        <time>2019-12-10T19:48:54Z</time>
      </trkpt>
      <trkpt lat="43.06354" lon="0.47536">
        <ele>514.06</ele>
        <time>2019-12-10T19:49:14Z</time>
      </trkpt>
      <trkpt lat="43.06387" lon="0.47436">
        <ele>513.292</ele>
        <time>2019-12-10T19:49:34Z</time>
      </trkpt>
      <trkpt lat="43.06429" lon="0.47202">
        <ele>511.156</ele>
        <time>2019-12-10T19:49:54Z</time>
      </trkpt>
      <trkpt lat="43.06449" lon="0.47053">
        <ele>503.159</ele>
        <time>2019-12-10T19:50:14Z</time>
      </trkpt>
      <trkpt lat="43.06404" lon="0.46517">
        <ele>495.914</ele>
        <time>2019-12-10T19:50:34Z</time>
      </trkpt>
      <trkpt lat="43.0635" lon="0.46436">
        <ele>492.808</ele>
        <time>2019-12-10T19:50:54Z</time>
      </trkpt>
      <trkpt lat="43.06376" lon="0.46397">
        <ele>492.221</ele>
        <time>2019-12-10T19:51:14Z</time>
      </trkpt>
      <trkpt lat="43.06407" lon="0.46304">
        <ele>497.32</ele>
        <time>2019-12-10T19:51:34Z</time>
      </trkpt>
      <trkpt lat="43.06402" lon="0.46263">
        <ele>497.546</ele>
        <time>2019-12-10T19:51:54Z</time>
      </trkpt>
      <trkpt lat="43.064" lon="0.4613">
        <ele>496.262</ele>
        <time>2019-12-10T19:52:14Z</time>
      </trkpt>
      <trkpt lat="43.06414" lon="0.45992">
        <ele>498.723</ele>
        <time>2019-12-10T19:52:34Z</time>
      </trkpt>
      <trkpt lat="43.06335" lon="0.45982">
        <ele>510.845</ele>
        <time>2019-12-10T19:52:54Z</time>
      </trkpt>
      <trkpt lat="43.06272" lon="0.45988">
        <ele>518.128</ele>
        <time>2019-12-10T19:53:14Z</time>
      </trkpt>
      <trkpt lat="43.0626" lon="0.4593">
        <ele>517.45</ele>
        <time>2019-12-10T19:53:34Z</time>
      </trkpt>
      <trkpt lat="43.06251" lon="0.45881">
        <ele>515.384</ele>
        <time>2019-12-10T19:53:54Z</time>
      </trkpt>
      <trkpt lat="43.06226" lon="0.45846">
        <ele>516.007</ele>
        <time>2019-12-10T19:54:14Z</time>
      </trkpt>
      <trkpt lat="43.06221" lon="0.45803">
        <ele>517.717</ele>
        <time>2019-12-10T19:54:34Z</time>
      </trkpt>
      <trkpt lat="43.06271" lon="0.45683">
        <ele>527.508</ele>
        <time>2019-12-10T19:54:54Z</time>
      </trkpt>
      <trkpt lat="43.06256" lon="0.4556">
        <ele>537.694</ele>
        <time>2019-12-10T19:55:14Z</time>
      </trkpt>
      <trkpt lat="43.0623" lon="0.45499">
        <ele>540.643</ele>
        <time>2019-12-10T19:55:34Z</time>
      </trkpt>
      <trkpt lat="43.06194" lon="0.45446">
        <ele>544.229</ele>
        <time>2019-12-10T19:55:54Z</time>
      </trkpt>
      <trkpt lat="43.06174" lon="0.45424">
        <ele>547.665</ele>
        <time>2019-12-10T19:56:14Z</time>
      </trkpt>
      <trkpt lat="43.06171" lon="0.45385">
        <ele>543.686</ele>
        <time>2019-12-10T19:56:34Z</time>
      </trkpt>
      <trkpt lat="43.06138" lon="0.45282">
        <ele>536.538</ele>
        <time>2019-12-10T19:56:54Z</time>
      </trkpt>
      <trkpt lat="43.061" lon="0.45233">
        <ele>534.081</ele>
        <time>2019-12-10T19:57:14Z</time>
      </trkpt>
      <trkpt lat="43.0603" lon="0.45168">
        <ele>524.353</ele>
        <time>2019-12-10T19:57:34Z</time>
      </trkpt>
      <trkpt lat="43.0592" lon="0.45216">
        <ele>529.256</ele>
        <time>2019-12-10T19:57:54Z</time>
      </trkpt>
      <trkpt lat="43.05767" lon="0.45375">
        <ele>547.859</ele>
        <time>2019-12-10T19:58:14Z</time>
      </trkpt>
      <trkpt lat="43.0571" lon="0.45422">
        <ele>556.714</ele>
        <time>2019-12-10T19:58:34Z</time>
      </trkpt>
      <trkpt lat="43.05658" lon="0.45444">
        <ele>559.008</ele>
        <time>2019-12-10T19:58:54Z</time>
      </trkpt>
      <trkpt lat="43.05544" lon="0.45551">
        <ele>564.721</ele>
        <time>2019-12-10T19:59:14Z</time>
      </trkpt>
      <trkpt lat="43.05452" lon="0.45532">
        <ele>575.08</ele>
        <time>2019-12-10T19:59:34Z</time>
      </trkpt>
      <trkpt lat="43.05407" lon="0.4547">
        <ele>576.896</ele>
        <time>2019-12-10T19:59:54Z</time>
      </trkpt>
      <trkpt lat="43.05386" lon="0.45342">
        <ele>584.482</ele>
        <time>2019-12-10T20:00:14Z</time>
      </trkpt>
      <trkpt lat="43.0537" lon="0.45278">
        <ele>581.893</ele>
        <time>2019-12-10T20:00:34Z</time>
      </trkpt>
      <trkpt lat="43.05352" lon="0.4525">
        <ele>582.375</ele>
        <time>2019-12-10T20:00:54Z</time>
      </trkpt>
      <trkpt lat="43.05307" lon="0.45201">
        <ele>588.448</ele>
        <time>2019-12-10T20:01:14Z</time>
      </trkpt>
      <trkpt lat="43.05282" lon="0.45222">
        <ele>593.99</ele>
        <time>2019-12-10T20:01:34Z</time>
      </trkpt>
      <trkpt lat="43.05258" lon="0.45284">
        <ele>589.587</ele>
        <time>2019-12-10T20:01:54Z</time>
      </trkpt>
      <trkpt lat="43.05222" lon="0.45321">
        <ele>588.142</ele>
        <time>2019-12-10T20:02:14Z</time>
      </trkpt>
      <trkpt lat="43.05281" lon="0.4516">
        <ele>602.426</ele>
        <time>2019-12-10T20:02:34Z</time>
      </trkpt>
      <trkpt lat="43.05344" lon="0.44985">
        <ele>612.908</ele>
        <time>2019-12-10T20:02:54Z</time>
      </trkpt>
      <trkpt lat="43.05366" lon="0.44959">
        <ele>608.734</ele>
        <time>2019-12-10T20:03:14Z</time>
      </trkpt>
      <trkpt lat="43.05382" lon="0.44931">
        <ele>604.943</ele>
        <time>2019-12-10T20:03:34Z</time>
      </trkpt>
      <trkpt lat="43.05598" lon="0.44847">
        <ele>586.079</ele>
        <time>2019-12-10T20:03:54Z</time>
      </trkpt>
      <trkpt lat="43.0555" lon="0.44755">
        <ele>575.335</ele>
        <time>2019-12-10T20:04:14Z</time>
      </trkpt>
      <trkpt lat="43.05366" lon="0.44576">
        <ele>545.236</ele>
        <time>2019-12-10T20:04:34Z</time>
      </trkpt>
      <trkpt lat="43.05351" lon="0.44531">
        <ele>540.088</ele>
        <time>2019-12-10T20:04:54Z</time>
      </trkpt>
      <trkpt lat="43.05378" lon="0.44365">
        <ele>539.991</ele>
        <time>2019-12-10T20:05:14Z</time>
      </trkpt>
      <trkpt lat="43.05377" lon="0.44314">
        <ele>549.733</ele>
        <time>2019-12-10T20:05:34Z</time>
      </trkpt>
      <trkpt lat="43.05412" lon="0.44245">
        <ele>557.745</ele>
        <time>2019-12-10T20:05:54Z</time>
      </trkpt>
      <trkpt lat="43.05401" lon="0.44066">
        <ele>564.247</ele>
        <time>2019-12-10T20:06:14Z</time>
      </trkpt>
      <trkpt lat="43.05379" lon="0.43982">
        <ele>562.111</ele>
        <time>2019-12-10T20:06:34Z</time>
      </trkpt>
      <trkpt lat="43.05329" lon="0.43894">
        <ele>555.808</ele>
        <time>2019-12-10T20:06:54Z</time>
      </trkpt>
      <trkpt lat="43.05263" lon="0.43825">
        <ele>546.92</ele>
        <time>2019-12-10T20:07:14Z</time>
      </trkpt>
      <trkpt lat="43.05262" lon="0.43787">
        <ele>546.459</ele>
        <time>2019-12-10T20:07:34Z</time>
      </trkpt>
      <trkpt lat="43.05213" lon="0.43724">
        <ele>536.435</ele>
        <time>2019-12-10T20:07:54Z</time>
      </trkpt>
      <trkpt lat="43.05199" lon="0.43673">
        <ele>534.221</ele>
        <time>2019-12-10T20:08:14Z</time>
      </trkpt>
      <trkpt lat="43.05165" lon="0.43621">
        <ele>536.772</ele>
        <time>2019-12-10T20:08:34Z</time>
      </trkpt>
      <trkpt lat="43.05146" lon="0.43632">
        <ele>540.374</ele>
        <time>2019-12-10T20:08:54Z</time>
      </trkpt>
      <trkpt lat="43.05109" lon="0.43634">
        <ele>549.987</ele>
        <time>2019-12-10T20:09:14Z</time>
      </trkpt>
      <trkpt lat="43.0505" lon="0.43666">
        <ele>553.579</ele>
        <time>2019-12-10T20:09:34Z</time>
      </trkpt>
      <trkpt lat="43.05053" lon="0.43619">
        <ele>559.498</ele>
        <time>2019-12-10T20:09:54Z</time>
      </trkpt>
      <trkpt lat="43.05" lon="0.43612">
        <ele>558.015</ele>
        <time>2019-12-10T20:10:14Z</time>
      </trkpt>
      <trkpt lat="43.04958" lon="0.4356">
        <ele>550.026</ele>
        <time>2019-12-10T20:10:34Z</time>
      </trkpt>
      <trkpt lat="43.04855" lon="0.43354">
        <ele>525.508</ele>
        <time>2019-12-10T20:10:54Z</time>
      </trkpt>
      <trkpt lat="43.04818" lon="0.43266">
        <ele>513.655</ele>
        <time>2019-12-10T20:11:14Z</time>
      </trkpt>
      <trkpt lat="43.0476" lon="0.43203">
        <ele>510.924</ele>
        <time>2019-12-10T20:11:34Z</time>
      </trkpt>
      <trkpt lat="43.04702" lon="0.43119">
        <ele>518.44</ele>
        <time>2019-12-10T20:11:54Z</time>
      </trkpt>
      <trkpt lat="43.04679" lon="0.43051">
        <ele>522.116</ele>
        <time>2019-12-10T20:12:14Z</time>
      </trkpt>
      <trkpt lat="43.04683" lon="0.42939">
        <ele>527.027</ele>
        <time>2019-12-10T20:12:34Z</time>
      </trkpt>
      <trkpt lat="43.04605" lon="0.42816">
        <ele>532.589</ele>
        <time>2019-12-10T20:12:54Z</time>
      </trkpt>
      <trkpt lat="43.04689" lon="0.42799">
        <ele>524.732</ele>
        <time>2019-12-10T20:13:14Z</time>
      </trkpt>
      <trkpt lat="43.04694" lon="0.4273">
        <ele>517.124</ele>
        <time>2019-12-10T20:13:34Z</time>
      </trkpt>
      <trkpt lat="43.04728" lon="0.42687">
        <ele>515.086</ele>
        <time>2019-12-10T20:13:54Z</time>
      </trkpt>
      <trkpt lat="43.0473" lon="0.42538">
        <ele>520.26</ele>
        <time>2019-12-10T20:14:14Z</time>
      </trkpt>
      <trkpt lat="43.04896" lon="0.42343">
        <ele>529.526</ele>
        <time>2019-12-10T20:14:34Z</time>
      </trkpt>
      <trkpt lat="43.05064" lon="0.42172">
        <ele>532.308</ele>
        <time>2019-12-10T20:14:54Z</time>
      </trkpt>
      <trkpt lat="43.0516" lon="0.41979">
        <ele>537.854</ele>
        <time>2019-12-10T20:15:14Z</time>
      </trkpt>
      <trkpt lat="43.05184" lon="0.41744">
        <ele>550.043</ele>
        <time>2019-12-10T20:15:34Z</time>
      </trkpt>
      <trkpt lat="43.05229" lon="0.41574">
        <ele>553.269</ele>
        <time>2019-12-10T20:15:54Z</time>
      </trkpt>
      <trkpt lat="43.05265" lon="0.4137">
        <ele>558.855</ele>
        <time>2019-12-10T20:16:14Z</time>
      </trkpt>
      <trkpt lat="43.05295" lon="0.41316">
        <ele>557.696</ele>
        <time>2019-12-10T20:16:34Z</time>
      </trkpt>
      <trkpt lat="43.05301" lon="0.41215">
        <ele>557.888</ele>
        <time>2021-02-06T10:58:51Z</time>
      </trkpt>
      <trkpt lat="43.05313" lon="0.41085">
        <ele>566.431</ele>
        <time>2021-02-06T10:59:11Z</time>
      </trkpt>
      <trkpt lat="43.05282" lon="0.41028">
        <ele>568.323</ele>
        <time>2021-02-06T10:59:31Z</time>
      </trkpt>
      <trkpt lat="43.05261" lon="0.40975">
        <ele>569.044</ele>
        <time>2021-02-06T10:59:51Z</time>
      </trkpt>
      <trkpt lat="43.05237" lon="0.40938">
        <ele>567.505</ele>
        <time>2021-02-06T11:00:11Z</time>
      </trkpt>
      <trkpt lat="43.05203" lon="0.4093">
        <ele>564.415</ele>
        <time>2021-02-06T11:00:31Z</time>
      </trkpt>
      <trkpt lat="43.05159" lon="0.40926">
        <ele>560.908</ele>
        <time>2021-02-06T11:00:51Z</time>
      </trkpt>
      <trkpt lat="43.05127" lon="0.40897">
        <ele>560.28</ele>
        <time>2021-02-06T11:01:11Z</time>
      </trkpt>
      <trkpt lat="43.05066" lon="0.40803">
        <ele>556.889</ele>
        <time>2021-02-06T11:01:31Z</time>
      </trkpt>
      <trkpt lat="43.05039" lon="0.40776">
        <ele>553.015</ele>
        <time>2021-02-06T11:01:51Z</time>
      </trkpt>
      <trkpt lat="43.05023" lon="0.40742">
        <ele>548.661</ele>
        <time>2021-02-06T11:02:11Z</time>
      </trkpt>
      <trkpt lat="43.04992" lon="0.40713">
        <ele>544.462</ele>
        <time>2021-02-06T11:02:31Z</time>
      </trkpt>
      <trkpt lat="43.04931" lon="0.40694">
        <ele>540.964</ele>
        <time>2021-02-06T11:02:51Z</time>
      </trkpt>
      <trkpt lat="43.04828" lon="0.40628">
        <ele>538.997</ele>
        <time>2021-02-06T11:03:11Z</time>
      </trkpt>
      <trkpt lat="43.04666" lon="0.40466">
        <ele>554.399</ele>
        <time>2021-02-06T11:03:31Z</time>
      </trkpt>
      <trkpt lat="43.04691" lon="0.40472">
        <ele>552.263</ele>
        <time>2021-02-06T11:03:51Z</time>
      </trkpt>
      <trkpt lat="43.0471" lon="0.40439">
        <ele>551.344</ele>
        <time>2021-02-06T11:04:11Z</time>
      </trkpt>
      <trkpt lat="43.04707" lon="0.40425">
        <ele>551.918</ele>
        <time>2021-02-06T11:04:31Z</time>
      </trkpt>
      <trkpt lat="43.04675" lon="0.40391">
        <ele>555.108</ele>
        <time>2021-02-06T11:04:51Z</time>
      </trkpt>
      <trkpt lat="43.04648" lon="0.40276">
        <ele>560.782</ele>
        <time>2021-02-06T11:05:11Z</time>
      </trkpt>
      <trkpt lat="43.04599" lon="0.40224">
        <ele>560.731</ele>
        <time>2021-02-06T11:05:31Z</time>
      </trkpt>
      <trkpt lat="43.04566" lon="0.40224">
        <ele>559.527</ele>
        <time>2021-02-06T11:05:51Z</time>
      </trkpt>
      <trkpt lat="43.04546" lon="0.40197">
        <ele>560.993</ele>
        <time>2021-02-06T11:06:11Z</time>
      </trkpt>
      <trkpt lat="43.04524" lon="0.40227">
        <ele>559.254</ele>
        <time>2021-02-06T11:06:31Z</time>
      </trkpt>
      <trkpt lat="43.04501" lon="0.40193">
        <ele>560.776</ele>
        <time>2021-02-06T11:06:51Z</time>
      </trkpt>
      <trkpt lat="43.04495" lon="0.4017">
        <ele>561.579</ele>
        <time>2021-02-06T11:07:11Z</time>
      </trkpt>
      <trkpt lat="43.04425" lon="0.40121">
        <ele>557.651</ele>
        <time>2021-02-06T11:07:31Z</time>
      </trkpt>
      <trkpt lat="43.04401" lon="0.40093">
        <ele>556.343</ele>
        <time>2021-02-06T11:07:51Z</time>
      </trkpt>
      <trkpt lat="43.04352" lon="0.40066">
        <ele>552.464</ele>
        <time>2021-02-06T11:08:11Z</time>
      </trkpt>
      <trkpt lat="43.04351" lon="0.40008">
        <ele>554.51</ele>
        <time>2021-02-06T11:08:31Z</time>
      </trkpt>
      <trkpt lat="43.04332" lon="0.39949">
        <ele>557.108</ele>
        <time>2021-02-06T11:08:51Z</time>
      </trkpt>
      <trkpt lat="43.04293" lon="0.39889">
        <ele>561.14</ele>
        <time>2021-02-06T11:09:11Z</time>
      </trkpt>
      <trkpt lat="43.04239" lon="0.39849">
        <ele>564.939</ele>
        <time>2021-02-06T11:09:31Z</time>
      </trkpt>
      <trkpt lat="43.04203" lon="0.39807">
        <ele>567.935</ele>
        <time>2021-02-06T11:09:51Z</time>
      </trkpt>
      <trkpt lat="43.04127" lon="0.39799">
        <ele>572.931</ele>
        <time>2021-02-06T11:10:11Z</time>
      </trkpt>
      <trkpt lat="43.04107" lon="0.39786">
        <ele>575.052</ele>
        <time>2021-02-06T11:10:31Z</time>
      </trkpt>
      <trkpt lat="43.04071" lon="0.39738">
        <ele>580.024</ele>
        <time>2021-02-06T11:10:51Z</time>
      </trkpt>
      <trkpt lat="43.04001" lon="0.39627">
        <ele>592.067</ele>
        <time>2021-02-06T11:11:11Z</time>
      </trkpt>
      <trkpt lat="43.0396" lon="0.39573">
        <ele>597.089</ele>
        <time>2021-02-06T11:11:31Z</time>
      </trkpt>
      <trkpt lat="43.03937" lon="0.39521">
        <ele>600.239</ele>
        <time>2021-02-06T11:11:51Z</time>
      </trkpt>
      <trkpt lat="43.03931" lon="0.39468">
        <ele>604.001</ele>
        <time>2021-02-06T11:12:11Z</time>
      </trkpt>
      <trkpt lat="43.03938" lon="0.39437">
        <ele>606.221</ele>
        <time>2021-02-06T11:12:31Z</time>
      </trkpt>
      <trkpt lat="43.03964" lon="0.39414">
        <ele>607.208</ele>
        <time>2021-02-06T11:12:51Z</time>
      </trkpt>
      <trkpt lat="43.0397" lon="0.39386">
        <ele>609.759</ele>
        <time>2021-02-06T11:13:11Z</time>
      </trkpt>
      <trkpt lat="43.03939" lon="0.3929">
        <ele>621.318</ele>
        <time>2021-02-06T11:13:31Z</time>
      </trkpt>
      <trkpt lat="43.03935" lon="0.39238">
        <ele>625.584</ele>
        <time>2021-02-06T11:13:51Z</time>
      </trkpt>
      <trkpt lat="43.03936" lon="0.39179">
        <ele>630.04</ele>
        <time>2021-02-06T11:14:11Z</time>
      </trkpt>
      <trkpt lat="43.03931" lon="0.39074">
        <ele>640.621</ele>
        <time>2021-02-06T11:14:31Z</time>
      </trkpt>
      <trkpt lat="43.03915" lon="0.39037">
        <ele>646.153</ele>
        <time>2021-02-06T11:14:51Z</time>
      </trkpt>
      <trkpt lat="43.03895" lon="0.39013">
        <ele>649.856</ele>
        <time>2021-02-06T11:15:11Z</time>
      </trkpt>
      <trkpt lat="43.0388" lon="0.39011">
        <ele>650.748</ele>
        <time>2021-02-06T11:15:31Z</time>
      </trkpt>
      <trkpt lat="43.03863" lon="0.3902">
        <ele>651.212</ele>
        <time>2021-02-06T11:15:51Z</time>
      </trkpt>
      <trkpt lat="43.03848" lon="0.39013">
        <ele>652.232</ele>
        <time>2021-02-06T11:16:11Z</time>
      </trkpt>
      <trkpt lat="43.03851" lon="0.38956">
        <ele>654.005</ele>
        <time>2021-02-06T11:16:31Z</time>
      </trkpt>
      <trkpt lat="43.03843" lon="0.3893">
        <ele>654.508</ele>
        <time>2021-02-06T11:16:51Z</time>
      </trkpt>
      <trkpt lat="43.03806" lon="0.38838">
        <ele>647.467</ele>
        <time>2021-02-06T11:17:11Z</time>
      </trkpt>
      <trkpt lat="43.03719" lon="0.38706">
        <ele>634.236</ele>
        <time>2021-02-06T11:17:31Z</time>
      </trkpt>
      <trkpt lat="43.03708" lon="0.38656">
        <ele>629.952</ele>
        <time>2021-02-06T11:17:51Z</time>
      </trkpt>
      <trkpt lat="43.03701" lon="0.38585">
        <ele>622.948</ele>
        <time>2021-02-06T11:18:11Z</time>
      </trkpt>
      <trkpt lat="43.03671" lon="0.38445">
        <ele>612.029</ele>
        <time>2021-02-06T11:18:31Z</time>
      </trkpt>
      <trkpt lat="43.03628" lon="0.38373">
        <ele>611.311</ele>
        <time>2021-02-06T11:18:51Z</time>
      </trkpt>
      <trkpt lat="43.03641" lon="0.38322">
        <ele>607.384</ele>
        <time>2021-02-06T11:19:11Z</time>
      </trkpt>
      <trkpt lat="43.03624" lon="0.38261">
        <ele>601.776</ele>
        <time>2021-02-06T11:19:31Z</time>
      </trkpt>
      <trkpt lat="43.03622" lon="0.38166">
        <ele>590.912</ele>
        <time>2021-02-06T11:19:51Z</time>
      </trkpt>
      <trkpt lat="43.03644" lon="0.3811">
        <ele>587.832</ele>
        <time>2021-02-06T11:20:11Z</time>
      </trkpt>
      <trkpt lat="43.03754" lon="0.38075">
        <ele>589.705</ele>
        <time>2021-02-06T11:20:31Z</time>
      </trkpt>
      <trkpt lat="43.03835" lon="0.38082">
        <ele>591.908</ele>
        <time>2021-02-06T11:20:51Z</time>
      </trkpt>
      <trkpt lat="43.0387" lon="0.38071">
        <ele>593.447</ele>
        <time>2021-02-06T11:21:11Z</time>
      </trkpt>
      <trkpt lat="43.03907" lon="0.38029">
        <ele>586.866</ele>
        <time>2021-02-06T11:21:31Z</time>
      </trkpt>
      <trkpt lat="43.03935" lon="0.3798">
        <ele>578.762</ele>
        <time>2021-02-06T11:21:51Z</time>
      </trkpt>
      <trkpt lat="43.03987" lon="0.37931">
        <ele>570.498</ele>
        <time>2021-02-06T11:22:11Z</time>
      </trkpt>
      <trkpt lat="43.04019" lon="0.37921">
        <ele>565.289</ele>
        <time>2021-02-06T11:22:31Z</time>
      </trkpt>
      <trkpt lat="43.04058" lon="0.37933">
        <ele>567.081</ele>
        <time>2021-02-06T11:22:51Z</time>
      </trkpt>
      <trkpt lat="43.04194" lon="0.37999">
        <ele>566.014</ele>
        <time>2021-02-06T11:23:11Z</time>
      </trkpt>
      <trkpt lat="43.04243" lon="0.37997">
        <ele>557.186</ele>
        <time>2021-02-06T11:23:31Z</time>
      </trkpt>
      <trkpt lat="43.04254" lon="0.37857">
        <ele>551.212</ele>
        <time>2019-12-10T20:32:54Z</time>
      </trkpt>
      <trkpt lat="43.04238" lon="0.37666">
        <ele>564.132</ele>
        <time>2019-12-10T20:33:14Z</time>
      </trkpt>
      <trkpt lat="43.04179" lon="0.37617">
        <ele>568.105</ele>
        <time>2019-12-10T20:33:34Z</time>
      </trkpt>
      <trkpt lat="43.04207" lon="0.375">
        <ele>583.308</ele>
        <time>2019-12-10T20:33:54Z</time>
      </trkpt>
      <trkpt lat="43.04205" lon="0.37419">
        <ele>591.887</ele>
        <time>2019-12-10T20:34:14Z</time>
      </trkpt>
      <trkpt lat="43.04178" lon="0.37363">
        <ele>596.146</ele>
        <time>2019-12-10T20:34:34Z</time>
      </trkpt>
      <trkpt lat="43.04163" lon="0.37285">
        <ele>607.122</ele>
        <time>2019-12-10T20:34:54Z</time>
      </trkpt>
      <trkpt lat="43.04178" lon="0.37031">
        <ele>612.968</ele>
        <time>2019-12-10T20:35:14Z</time>
      </trkpt>
      <trkpt lat="43.04197" lon="0.37031">
        <ele>613.129</ele>
        <time>2019-12-10T20:35:34Z</time>
      </trkpt>
      <trkpt lat="43.04201" lon="0.36713">
        <ele>625.151</ele>
        <time>2019-12-10T20:35:54Z</time>
      </trkpt>
      <trkpt lat="43.04174" lon="0.36691">
        <ele>628.484</ele>
        <time>2019-12-10T20:36:14Z</time>
      </trkpt>
      <trkpt lat="43.04104" lon="0.36665">
        <ele>634.736</ele>
        <time>2019-12-10T20:36:34Z</time>
      </trkpt>
      <trkpt lat="43.03925" lon="0.36626">
        <ele>656.295</ele>
        <time>2019-12-10T20:36:54Z</time>
      </trkpt>
      <trkpt lat="43.03849" lon="0.36474">
        <ele>666.949</ele>
        <time>2019-12-10T20:37:14Z</time>
      </trkpt>
      <trkpt lat="43.03839" lon="0.36418">
        <ele>668.723</ele>
        <time>2019-12-10T20:37:34Z</time>
      </trkpt>
      <trkpt lat="43.03793" lon="0.36351">
        <ele>670.908</ele>
        <time>2019-12-10T20:37:54Z</time>
      </trkpt>
      <trkpt lat="43.03737" lon="0.36108">
        <ele>653.165</ele>
        <time>2019-12-10T20:38:14Z</time>
      </trkpt>
      <trkpt lat="43.03628" lon="0.36119">
        <ele>645.554</ele>
        <time>2019-12-10T20:38:34Z</time>
      </trkpt>
      <trkpt lat="43.03594" lon="0.36106">
        <ele>642.71</ele>
        <time>2019-12-10T20:38:54Z</time>
      </trkpt>
      <trkpt lat="43.03557" lon="0.36017">
        <ele>631.766</ele>
        <time>2019-12-10T20:39:14Z</time>
      </trkpt>
      <trkpt lat="43.03469" lon="0.35981">
        <ele>630.217</ele>
        <time>2019-12-10T20:39:34Z</time>
      </trkpt>
      <trkpt lat="43.03392" lon="0.35932">
        <ele>627.219</ele>
        <time>2019-12-10T20:39:54Z</time>
      </trkpt>
      <trkpt lat="43.0343" lon="0.35923">
        <ele>621.642</ele>
        <time>2019-12-10T20:40:14Z</time>
      </trkpt>
      <trkpt lat="43.03465" lon="0.35923">
        <ele>617.234</ele>
        <time>2019-12-10T20:40:34Z</time>
      </trkpt>
      <trkpt lat="43.03498" lon="0.3591">
        <ele>611.542</ele>
        <time>2019-12-10T20:40:54Z</time>
      </trkpt>
      <trkpt lat="43.03558" lon="0.35893">
        <ele>609.222</ele>
        <time>2019-12-10T20:41:14Z</time>
      </trkpt>
      <trkpt lat="43.03596" lon="0.35819">
        <ele>598.914</ele>
        <time>2019-12-10T20:41:34Z</time>
      </trkpt>
      <trkpt lat="43.03632" lon="0.35794">
        <ele>598.308</ele>
        <time>2019-12-10T20:41:54Z</time>
      </trkpt>
      <trkpt lat="43.03651" lon="0.35764">
        <ele>594.89</ele>
        <time>2019-12-10T20:42:14Z</time>
      </trkpt>
      <trkpt lat="43.03587" lon="0.35721">
        <ele>580.949</ele>
        <time>2019-12-10T20:42:34Z</time>
      </trkpt>
      <trkpt lat="43.03566" lon="0.3566">
        <ele>570.965</ele>
        <time>2019-12-10T20:42:54Z</time>
      </trkpt>
      <trkpt lat="43.03557" lon="0.35465">
        <ele>546.981</ele>
        <time>2019-12-10T20:43:14Z</time>
      </trkpt>
      <trkpt lat="43.0359" lon="0.35344">
        <ele>540.942</ele>
        <time>2019-12-10T20:43:34Z</time>
      </trkpt>
      <trkpt lat="43.03558" lon="0.35109">
        <ele>544.124</ele>
        <time>2019-12-10T20:43:54Z</time>
      </trkpt>
      <trkpt lat="43.03506" lon="0.35127">
        <ele>540.487</ele>
        <time>2019-12-10T20:44:14Z</time>
      </trkpt>
      <trkpt lat="43.03456" lon="0.35099">
        <ele>540.029</ele>
        <time>2019-12-10T20:44:34Z</time>
      </trkpt>
      <trkpt lat="43.03452" lon="0.35056">
        <ele>540.046</ele>
        <time>2019-12-10T20:44:54Z</time>
      </trkpt>
      <trkpt lat="43.03474" lon="0.34875">
        <ele>540.088</ele>
        <time>2019-12-10T20:45:14Z</time>
      </trkpt>
      <trkpt lat="43.03457" lon="0.34743">
        <ele>540.016</ele>
        <time>2019-12-10T20:45:34Z</time>
      </trkpt>
      <trkpt lat="43.03482" lon="0.34709">
        <ele>540.008</ele>
        <time>2019-12-10T20:45:54Z</time>
      </trkpt>
      <trkpt lat="43.03506" lon="0.34638">
        <ele>541.04</ele>
        <time>2019-12-10T20:46:14Z</time>
      </trkpt>
      <trkpt lat="43.03536" lon="0.34586">
        <ele>546.169</ele>
        <time>2019-12-10T20:46:34Z</time>
      </trkpt>
      <trkpt lat="43.03554" lon="0.34487">
        <ele>558.545</ele>
        <time>2019-12-10T20:46:54Z</time>
      </trkpt>
      <trkpt lat="43.03542" lon="0.34425">
        <ele>568.471</ele>
        <time>2019-12-10T20:47:14Z</time>
      </trkpt>
      <trkpt lat="43.03524" lon="0.34388">
        <ele>576.192</ele>
        <time>2019-12-10T20:47:34Z</time>
      </trkpt>
      <trkpt lat="43.03547" lon="0.34283">
        <ele>591.634</ele>
        <time>2019-12-10T20:47:54Z</time>
      </trkpt>
      <trkpt lat="43.03573" lon="0.34259">
        <ele>600.667</ele>
        <time>2019-12-10T20:48:14Z</time>
      </trkpt>
      <trkpt lat="43.0361" lon="0.34244">
        <ele>605.039</ele>
        <time>2019-12-10T20:48:34Z</time>
      </trkpt>
      <trkpt lat="43.03583" lon="0.34216">
        <ele>618.224</ele>
        <time>2019-12-10T20:48:54Z</time>
      </trkpt>
      <trkpt lat="43.0362" lon="0.34188">
        <ele>628.304</ele>
        <time>2019-12-10T20:49:14Z</time>
      </trkpt>
      <trkpt lat="43.03616" lon="0.34175">
        <ele>634.714</ele>
        <time>2019-12-10T20:49:34Z</time>
      </trkpt>
      <trkpt lat="43.0358" lon="0.34165">
        <ele>641.408</ele>
        <time>2019-12-10T20:49:54Z</time>
      </trkpt>
      <trkpt lat="43.03562" lon="0.34145">
        <ele>650.178</ele>
        <time>2019-12-10T20:50:14Z</time>
      </trkpt>
      <trkpt lat="43.03512" lon="0.34124">
        <ele>649.167</ele>
        <time>2019-12-10T20:50:34Z</time>
      </trkpt>
      <trkpt lat="43.0345" lon="0.34051">
        <ele>652.553</ele>
        <time>2019-12-10T20:50:54Z</time>
      </trkpt>
      <trkpt lat="43.03441" lon="0.33906">
        <ele>677.199</ele>
        <time>2019-12-10T20:51:14Z</time>
      </trkpt>
      <trkpt lat="43.03449" lon="0.33792">
        <ele>687.93</ele>
        <time>2019-12-10T20:51:34Z</time>
      </trkpt>
      <trkpt lat="43.03387" lon="0.33751">
        <ele>684.432</ele>
        <time>2019-12-10T20:51:54Z</time>
      </trkpt>
      <trkpt lat="43.03314" lon="0.33779">
        <ele>698.365</ele>
        <time>2019-12-10T20:52:14Z</time>
      </trkpt>
      <trkpt lat="43.03263" lon="0.33775">
        <ele>704.777</ele>
        <time>2019-12-10T20:52:34Z</time>
      </trkpt>
      <trkpt lat="43.03225" lon="0.33814">
        <ele>707.487</ele>
        <time>2019-12-10T20:52:54Z</time>
      </trkpt>
      <trkpt lat="43.03179" lon="0.3382">
        <ele>718.642</ele>
        <time>2019-12-10T20:53:14Z</time>
      </trkpt>
      <trkpt lat="43.03158" lon="0.33792">
        <ele>720.826</ele>
        <time>2019-12-10T20:53:34Z</time>
      </trkpt>
      <trkpt lat="43.03138" lon="0.33794">
        <ele>728.308</ele>
        <time>2019-12-10T20:53:54Z</time>
      </trkpt>
      <trkpt lat="43.03027" lon="0.33964">
        <ele>721.994</ele>
        <time>2019-12-10T20:54:14Z</time>
      </trkpt>
      <trkpt lat="43.02985" lon="0.33984">
        <ele>718.953</ele>
        <time>2019-12-10T20:54:34Z</time>
      </trkpt>
      <trkpt lat="43.02911" lon="0.33887">
        <ele>698.979</ele>
        <time>2019-12-10T20:54:54Z</time>
      </trkpt>
      <trkpt lat="43.02867" lon="0.33917">
        <ele>699.875</ele>
        <time>2019-12-10T20:55:14Z</time>
      </trkpt>
      <trkpt lat="43.02821" lon="0.33924">
        <ele>695.596</ele>
        <time>2019-12-10T20:55:34Z</time>
      </trkpt>
      <trkpt lat="43.02768" lon="0.33911">
        <ele>688.058</ele>
        <time>2019-12-10T20:55:54Z</time>
      </trkpt>
      <trkpt lat="43.02761" lon="0.33878">
        <ele>678.231</ele>
        <time>2019-12-10T20:56:14Z</time>
      </trkpt>
      <trkpt lat="43.02728" lon="0.33814">
        <ele>679.153</ele>
        <time>2019-12-10T20:56:34Z</time>
      </trkpt>
      <trkpt lat="43.02709" lon="0.33726">
        <ele>677.069</ele>
        <time>2019-12-10T20:56:54Z</time>
      </trkpt>
      <trkpt lat="43.02702" lon="0.33607">
        <ele>664.004</ele>
        <time>2019-12-10T20:57:14Z</time>
      </trkpt>
      <trkpt lat="43.02672" lon="0.33538">
        <ele>658.524</ele>
        <time>2019-12-10T20:57:34Z</time>
      </trkpt>
      <trkpt lat="43.02683" lon="0.33457">
        <ele>650.808</ele>
        <time>2019-12-10T20:57:54Z</time>
      </trkpt>
      <trkpt lat="43.02705" lon="0.33407">
        <ele>641.752</ele>
        <time>2019-12-10T20:58:14Z</time>
      </trkpt>
      <trkpt lat="43.02735" lon="0.33385">
        <ele>627.231</ele>
        <time>2019-12-10T20:58:34Z</time>
      </trkpt>
      <trkpt lat="43.02763" lon="0.33336">
        <ele>618.567</ele>
        <time>2019-12-10T20:58:54Z</time>
      </trkpt>
      <trkpt lat="43.02776" lon="0.33284">
        <ele>610.823</ele>
        <time>2019-12-10T20:59:14Z</time>
      </trkpt>
      <trkpt lat="43.02744" lon="0.33209">
        <ele>613.984</ele>
        <time>2019-12-10T20:59:34Z</time>
      </trkpt>
      <trkpt lat="43.02727" lon="0.33142">
        <ele>615.186</ele>
        <time>2019-12-10T20:59:54Z</time>
      </trkpt>
      <trkpt lat="43.02747" lon="0.33108">
        <ele>605.069</ele>
        <time>2019-12-10T21:00:14Z</time>
      </trkpt>
      <trkpt lat="43.02748" lon="0.33076">
        <ele>605.321</ele>
        <time>2019-12-10T21:00:34Z</time>
      </trkpt>
      <trkpt lat="43.02765" lon="0.33041">
        <ele>596.991</ele>
        <time>2019-12-10T21:00:54Z</time>
      </trkpt>
      <trkpt lat="43.02789" lon="0.33067">
        <ele>592.181</ele>
        <time>2019-12-10T21:01:14Z</time>
      </trkpt>
      <trkpt lat="43.02833" lon="0.3306">
        <ele>579.519</ele>
        <time>2019-12-10T21:01:34Z</time>
      </trkpt>
      <trkpt lat="43.02796" lon="0.32974">
        <ele>572.408</ele>
        <time>2019-12-10T21:01:54Z</time>
      </trkpt>
      <trkpt lat="43.02836" lon="0.32979">
        <ele>562.655</ele>
        <time>2019-12-10T21:02:14Z</time>
      </trkpt>
      <trkpt lat="43.029" lon="0.32968">
        <ele>548.074</ele>
        <time>2019-12-10T21:02:34Z</time>
      </trkpt>
      <trkpt lat="43.02925" lon="0.32987">
        <ele>545.79</ele>
        <time>2019-12-10T21:02:54Z</time>
      </trkpt>
      <trkpt lat="43.02931" lon="0.32987">
        <ele>543.696</ele>
        <time>2019-12-10T21:03:14Z</time>
      </trkpt>
      <trkpt lat="43.02933" lon="0.32953">
        <ele>538.637</ele>
        <time>2019-12-10T21:03:34Z</time>
      </trkpt>
      <trkpt lat="43.02929" lon="0.32926">
        <ele>533.629</ele>
        <time>2019-12-10T21:03:54Z</time>
      </trkpt>
      <trkpt lat="43.02944" lon="0.32917">
        <ele>530.082</ele>
        <time>2019-12-10T21:04:14Z</time>
      </trkpt>
      <trkpt lat="43.02963" lon="0.32925">
        <ele>524.314</ele>
        <time>2019-12-10T21:04:34Z</time>
      </trkpt>
      <trkpt lat="43.02979" lon="0.33025">
        <ele>520.163</ele>
        <time>2019-12-10T21:04:54Z</time>
      </trkpt>
      <trkpt lat="43.02991" lon="0.33052">
        <ele>514.044</ele>
        <time>2019-12-10T21:05:14Z</time>
      </trkpt>
      <trkpt lat="43.03" lon="0.33016">
        <ele>507.618</ele>
        <time>2019-12-10T21:05:34Z</time>
      </trkpt>
      <trkpt lat="43.03028" lon="0.32988">
        <ele>506.908</ele>
        <time>2019-12-10T21:05:54Z</time>
      </trkpt>
      <trkpt lat="43.03039" lon="0.32951">
        <ele>504.642</ele>
        <time>2019-12-10T21:06:14Z</time>
      </trkpt>
      <trkpt lat="43.03063" lon="0.32827">
        <ele>494.291</ele>
        <time>2019-12-10T21:06:34Z</time>
      </trkpt>
      <trkpt lat="43.03075" lon="0.32675">
        <ele>478.557</ele>
        <time>2019-12-10T21:06:54Z</time>
      </trkpt>
      <trkpt lat="43.0311" lon="0.32557">
        <ele>470.433</ele>
        <time>2019-12-10T21:07:14Z</time>
      </trkpt>
      <trkpt lat="43.03136" lon="0.32417">
        <ele>468.454</ele>
        <time>2019-12-10T21:07:34Z</time>
      </trkpt>
      <trkpt lat="43.03148" lon="0.32311">
        <ele>467.796</ele>
        <time>2019-12-10T21:07:54Z</time>
      </trkpt>
      <trkpt lat="43.03151" lon="0.32249">
        <ele>466.529</ele>
        <time>2019-12-10T21:08:14Z</time>
      </trkpt>
      <trkpt lat="43.03189" lon="0.32164">
        <ele>467.751</ele>
        <time>2019-12-10T21:08:34Z</time>
      </trkpt>
      <trkpt lat="43.03212" lon="0.32144">
        <ele>470.755</ele>
        <time>2019-12-10T21:08:54Z</time>
      </trkpt>
      <trkpt lat="43.03296" lon="0.3206">
        <ele>485.807</ele>
        <time>2019-12-10T21:09:14Z</time>
      </trkpt>
      <trkpt lat="43.0328" lon="0.31944">
        <ele>485.617</ele>
        <time>2019-12-10T21:09:34Z</time>
      </trkpt>
      <trkpt lat="43.03291" lon="0.31894">
        <ele>492.308</ele>
        <time>2019-12-10T21:09:54Z</time>
      </trkpt>
      <trkpt lat="43.03278" lon="0.31772">
        <ele>492.871</ele>
        <time>2019-12-10T21:10:14Z</time>
      </trkpt>
      <trkpt lat="43.03287" lon="0.31716">
        <ele>492.83</ele>
        <time>2019-12-10T21:10:34Z</time>
      </trkpt>
      <trkpt lat="43.03318" lon="0.31624">
        <ele>492.366</ele>
        <time>2019-12-10T21:10:54Z</time>
      </trkpt>
      <trkpt lat="43.03375" lon="0.3158">
        <ele>485.252</ele>
        <time>2019-12-10T21:11:14Z</time>
      </trkpt>
      <trkpt lat="43.03441" lon="0.3147">
        <ele>470.013</ele>
        <time>2019-12-10T21:11:34Z</time>
      </trkpt>
      <trkpt lat="43.03483" lon="0.3138">
        <ele>470.995</ele>
        <time>2019-12-10T21:11:54Z</time>
      </trkpt>
      <trkpt lat="43.03435" lon="0.31348">
        <ele>474.718</ele>
        <time>2019-12-10T21:12:14Z</time>
      </trkpt>
      <trkpt lat="43.03477" lon="0.31332">
        <ele>479.44</ele>
        <time>2019-12-10T21:12:34Z</time>
      </trkpt>
      <trkpt lat="43.03521" lon="0.31292">
        <ele>484.968</ele>
        <time>2019-12-10T21:12:54Z</time>
      </trkpt>
      <trkpt lat="43.03534" lon="0.31286">
        <ele>485.642</ele>
        <time>2019-12-10T21:13:14Z</time>
      </trkpt>
      <trkpt lat="43.03543" lon="0.31219">
        <ele>490.026</ele>
        <time>2019-12-10T21:13:34Z</time>
      </trkpt>
      <trkpt lat="43.03618" lon="0.31252">
        <ele>495.908</ele>
        <time>2019-12-10T21:13:54Z</time>
      </trkpt>
      <trkpt lat="43.03631" lon="0.31113">
        <ele>496.422</ele>
        <time>2019-12-10T21:14:14Z</time>
      </trkpt>
      <trkpt lat="43.03628" lon="0.31001">
        <ele>494.171</ele>
        <time>2019-12-10T21:14:34Z</time>
      </trkpt>
      <trkpt lat="43.03653" lon="0.30925">
        <ele>494.337</ele>
        <time>2019-12-10T21:14:54Z</time>
      </trkpt>
      <trkpt lat="43.03687" lon="0.30785">
        <ele>483.353</ele>
        <time>2019-12-10T21:15:14Z</time>
      </trkpt>
      <trkpt lat="43.03687" lon="0.30727">
        <ele>478.994</ele>
        <time>2019-12-10T21:15:34Z</time>
      </trkpt>
      <trkpt lat="43.03673" lon="0.30663">
        <ele>473.076</ele>
        <time>2019-12-10T21:15:54Z</time>
      </trkpt>
      <trkpt lat="43.03687" lon="0.30589">
        <ele>471.119</ele>
        <time>2019-12-10T21:16:14Z</time>
      </trkpt>
      <trkpt lat="43.03679" lon="0.30561">
        <ele>467.731</ele>
        <time>2019-12-10T21:16:34Z</time>
      </trkpt>
      <trkpt lat="43.03706" lon="0.30509">
        <ele>464.568</ele>
        <time>2019-12-10T21:16:54Z</time>
      </trkpt>
      <trkpt lat="43.03736" lon="0.30503">
        <ele>463.842</ele>
        <time>2019-12-10T21:17:14Z</time>
      </trkpt>
      <trkpt lat="43.03833" lon="0.30571">
        <ele>461.826</ele>
        <time>2019-12-10T21:17:34Z</time>
      </trkpt>
      <trkpt lat="43.03867" lon="0.30573">
        <ele>463.308</ele>
        <time>2019-12-10T21:17:54Z</time>
      </trkpt>
      <trkpt lat="43.03934" lon="0.30539">
        <ele>465.992</ele>
        <time>2019-12-10T21:18:14Z</time>
      </trkpt>
      <trkpt lat="43.03976" lon="0.30559">
        <ele>468.371</ele>
        <time>2019-12-10T21:18:34Z</time>
      </trkpt>
      <trkpt lat="43.04029" lon="0.30555">
        <ele>470.067</ele>
        <time>2019-12-10T21:18:54Z</time>
      </trkpt>
      <trkpt lat="43.04068" lon="0.30519">
        <ele>469.563</ele>
        <time>2019-12-10T21:19:14Z</time>
      </trkpt>
      <trkpt lat="43.04128" lon="0.30545">
        <ele>471.844</ele>
        <time>2019-12-10T21:19:34Z</time>
      </trkpt>
      <trkpt lat="43.04169" lon="0.30531">
        <ele>477.276</ele>
        <time>2019-12-10T21:19:54Z</time>
      </trkpt>
      <trkpt lat="43.04272" lon="0.30541">
        <ele>479.069</ele>
        <time>2019-12-10T21:20:14Z</time>
      </trkpt>
      <trkpt lat="43.04333" lon="0.30527">
        <ele>476.051</ele>
        <time>2019-12-10T21:20:34Z</time>
      </trkpt>
      <trkpt lat="43.04368" lon="0.30553">
        <ele>476.457</ele>
        <time>2019-12-10T21:20:54Z</time>
      </trkpt>
      <trkpt lat="43.04418" lon="0.30637">
        <ele>487.4</ele>
        <time>2019-12-10T21:21:14Z</time>
      </trkpt>
      <trkpt lat="43.04447" lon="0.30645">
        <ele>488.52</ele>
        <time>2019-12-10T21:21:34Z</time>
      </trkpt>
      <trkpt lat="43.04478" lon="0.30635">
        <ele>489.908</ele>
        <time>2019-12-10T21:21:54Z</time>
      </trkpt>
      <trkpt lat="43.04509" lon="0.30591">
        <ele>487.761</ele>
        <time>2019-12-10T21:22:14Z</time>
      </trkpt>
      <trkpt lat="43.04547" lon="0.30587">
        <ele>487.86</ele>
        <time>2019-12-10T21:22:34Z</time>
      </trkpt>
      <trkpt lat="43.04595" lon="0.30647">
        <ele>485.936</ele>
        <time>2019-12-10T21:22:54Z</time>
      </trkpt>
      <trkpt lat="43.04654" lon="0.30761">
        <ele>484.532</ele>
        <time>2019-12-10T21:23:14Z</time>
      </trkpt>
      <trkpt lat="43.04665" lon="0.30761">
        <ele>483.153</ele>
        <time>2019-12-10T21:23:34Z</time>
      </trkpt>
      <trkpt lat="43.04686" lon="0.30655">
        <ele>480.245</ele>
        <time>2019-12-10T21:23:54Z</time>
      </trkpt>
      <trkpt lat="43.04711" lon="0.30641">
        <ele>484.048</ele>
        <time>2019-12-10T21:24:14Z</time>
      </trkpt>
      <trkpt lat="43.04727" lon="0.30697">
        <ele>494.85</ele>
        <time>2019-12-10T21:24:34Z</time>
      </trkpt>
      <trkpt lat="43.04717" lon="0.30759">
        <ele>502.433</ele>
        <time>2019-12-10T21:24:54Z</time>
      </trkpt>
      <trkpt lat="43.04724" lon="0.30835">
        <ele>513.223</ele>
        <time>2019-12-10T21:25:14Z</time>
      </trkpt>
      <trkpt lat="43.04744" lon="0.30863">
        <ele>516.815</ele>
        <time>2019-12-10T21:25:34Z</time>
      </trkpt>
      <trkpt lat="43.04749" lon="0.30917">
        <ele>526.308</ele>
        <time>2019-12-10T21:25:54Z</time>
      </trkpt>
      <trkpt lat="43.04725" lon="0.30915">
        <ele>530.089</ele>
        <time>2019-12-10T21:26:14Z</time>
      </trkpt>
      <trkpt lat="43.04728" lon="0.30947">
        <ele>536.268</ele>
        <time>2019-12-10T21:26:34Z</time>
      </trkpt>
      <trkpt lat="43.04703" lon="0.30953">
        <ele>537.924</ele>
        <time>2019-12-10T21:26:54Z</time>
      </trkpt>
      <trkpt lat="43.0468" lon="0.30991">
        <ele>542.14</ele>
        <time>2019-12-10T21:27:14Z</time>
      </trkpt>
      <trkpt lat="43.04711" lon="0.30997">
        <ele>545.661</ele>
        <time>2019-12-10T21:27:34Z</time>
      </trkpt>
      <trkpt lat="43.04727" lon="0.31131">
        <ele>561.993</ele>
        <time>2019-12-10T21:27:54Z</time>
      </trkpt>
      <trkpt lat="43.0479" lon="0.31189">
        <ele>574.986</ele>
        <time>2019-12-10T21:28:14Z</time>
      </trkpt>
      <trkpt lat="43.04806" lon="0.31276">
        <ele>589.568</ele>
        <time>2019-12-10T21:28:34Z</time>
      </trkpt>
      <trkpt lat="43.04841" lon="0.3131">
        <ele>592.419</ele>
        <time>2019-12-10T21:28:54Z</time>
      </trkpt>
      <trkpt lat="43.04907" lon="0.31466">
        <ele>602.009</ele>
        <time>2019-12-10T21:29:14Z</time>
      </trkpt>
      <trkpt lat="43.04936" lon="0.31462">
        <ele>600.019</ele>
        <time>2019-12-10T21:29:34Z</time>
      </trkpt>
      <trkpt lat="43.04954" lon="0.3143">
        <ele>599.908</ele>
        <time>2019-12-10T21:29:54Z</time>
      </trkpt>
      <trkpt lat="43.04961" lon="0.31225">
        <ele>585.147</ele>
        <time>2019-12-10T21:30:14Z</time>
      </trkpt>
      <trkpt lat="43.05028" lon="0.31165">
        <ele>585.776</ele>
        <time>2019-12-10T21:30:34Z</time>
      </trkpt>
      <trkpt lat="43.05097" lon="0.31121">
        <ele>591.322</ele>
        <time>2019-12-10T21:30:54Z</time>
      </trkpt>
      <trkpt lat="43.05128" lon="0.31043">
        <ele>598.438</ele>
        <time>2019-12-10T21:31:14Z</time>
      </trkpt>
      <trkpt lat="43.05115" lon="0.30991">
        <ele>600.729</ele>
        <time>2019-12-10T21:31:34Z</time>
      </trkpt>
      <trkpt lat="43.05075" lon="0.30929">
        <ele>588.761</ele>
        <time>2019-12-10T21:31:54Z</time>
      </trkpt>
      <trkpt lat="43.05088" lon="0.30853">
        <ele>585.994</ele>
        <time>2019-12-10T21:32:14Z</time>
      </trkpt>
      <trkpt lat="43.05148" lon="0.30699">
        <ele>581.226</ele>
        <time>2019-12-10T21:32:34Z</time>
      </trkpt>
      <trkpt lat="43.05205" lon="0.30639">
        <ele>578.165</ele>
        <time>2019-12-10T21:32:54Z</time>
      </trkpt>
      <trkpt lat="43.05255" lon="0.30637">
        <ele>578.768</ele>
        <time>2019-12-10T21:33:14Z</time>
      </trkpt>
      <trkpt lat="43.053" lon="0.30681">
        <ele>581.114</ele>
        <time>2019-12-10T21:33:34Z</time>
      </trkpt>
      <trkpt lat="43.05324" lon="0.30763">
        <ele>582.908</ele>
        <time>2019-12-10T21:33:54Z</time>
      </trkpt>
      <trkpt lat="43.05387" lon="0.30811">
        <ele>576.322</ele>
        <time>2019-12-10T21:34:14Z</time>
      </trkpt>
      <trkpt lat="43.05415" lon="0.30961">
        <ele>588.411</ele>
        <time>2019-12-10T21:34:34Z</time>
      </trkpt>
      <trkpt lat="43.05447" lon="0.30971">
        <ele>578.287</ele>
        <time>2019-12-10T21:34:54Z</time>
      </trkpt>
      <trkpt lat="43.05537" lon="0.30909">
        <ele>587.443</ele>
        <time>2019-12-10T21:35:14Z</time>
      </trkpt>
      <trkpt lat="43.05578" lon="0.30915">
        <ele>597.834</ele>
        <time>2019-12-10T21:35:34Z</time>
      </trkpt>
      <trkpt lat="43.05586" lon="0.30943">
        <ele>600.076</ele>
        <time>2019-12-10T21:35:54Z</time>
      </trkpt>
      <trkpt lat="43.05611" lon="0.30921">
        <ele>599.159</ele>
        <time>2021-02-06T12:27:11Z</time>
      </trkpt>
      <trkpt lat="43.05695" lon="0.30766">
        <ele>602.321</ele>
        <time>2021-02-06T12:27:31Z</time>
      </trkpt>
      <trkpt lat="43.05767" lon="0.30658">
        <ele>614.697</ele>
        <time>2021-02-06T12:27:51Z</time>
      </trkpt>
      <trkpt lat="43.0579" lon="0.30657">
        <ele>617.223</ele>
        <time>2019-12-10T21:37:14Z</time>
      </trkpt>
      <trkpt lat="43.05823" lon="0.30597">
        <ele>616.725</ele>
        <time>2019-12-10T21:37:34Z</time>
      </trkpt>
      <trkpt lat="43.05853" lon="0.30513">
        <ele>616.108</ele>
        <time>2019-12-10T21:37:54Z</time>
      </trkpt>
      <trkpt lat="43.05874" lon="0.30427">
        <ele>611.415</ele>
        <time>2019-12-10T21:38:14Z</time>
      </trkpt>
      <trkpt lat="43.05919" lon="0.30377">
        <ele>607.454</ele>
        <time>2019-12-10T21:38:34Z</time>
      </trkpt>
      <trkpt lat="43.05975" lon="0.30367">
        <ele>601.29</ele>
        <time>2019-12-10T21:38:54Z</time>
      </trkpt>
      <trkpt lat="43.05948" lon="0.30337">
        <ele>599.736</ele>
        <time>2019-12-10T21:39:14Z</time>
      </trkpt>
      <trkpt lat="43.05941" lon="0.30295">
        <ele>593.477</ele>
        <time>2019-12-10T21:39:34Z</time>
      </trkpt>
      <trkpt lat="43.0591" lon="0.30266">
        <ele>590.039</ele>
        <time>2019-12-10T21:39:54Z</time>
      </trkpt>
      <trkpt lat="43.05916" lon="0.30256">
        <ele>589.182</ele>
        <time>2019-12-10T21:40:14Z</time>
      </trkpt>
      <trkpt lat="43.05969" lon="0.30254">
        <ele>579.634</ele>
        <time>2019-12-10T21:40:34Z</time>
      </trkpt>
      <trkpt lat="43.06054" lon="0.30206">
        <ele>563.422</ele>
        <time>2019-12-10T21:40:54Z</time>
      </trkpt>
      <trkpt lat="43.06033" lon="0.30134">
        <ele>551.062</ele>
        <time>2019-12-10T21:41:14Z</time>
      </trkpt>
      <trkpt lat="43.06065" lon="0.3002">
        <ele>535.408</ele>
        <time>2019-12-10T21:41:34Z</time>
      </trkpt>
      <trkpt lat="43.0608" lon="0.29996">
        <ele>532.008</ele>
        <time>2019-12-10T21:41:54Z</time>
      </trkpt>
      <trkpt lat="43.06098" lon="0.29948">
        <ele>530.158</ele>
        <time>2019-12-10T21:42:14Z</time>
      </trkpt>
      <trkpt lat="43.06127" lon="0.29916">
        <ele>533.297</ele>
        <time>2019-12-10T21:42:34Z</time>
      </trkpt>
      <trkpt lat="43.06082" lon="0.2993">
        <ele>527.473</ele>
        <time>2019-12-10T21:42:54Z</time>
      </trkpt>
      <trkpt lat="43.06052" lon="0.29932">
        <ele>519.269</ele>
        <time>2019-12-10T21:43:14Z</time>
      </trkpt>
      <trkpt lat="43.06" lon="0.29982">
        <ele>508.72</ele>
        <time>2019-12-10T21:43:34Z</time>
      </trkpt>
      <trkpt lat="43.05973" lon="0.2997">
        <ele>502.882</ele>
        <time>2019-12-10T21:43:54Z</time>
      </trkpt>
      <trkpt lat="43.05965" lon="0.29932">
        <ele>495.615</ele>
        <time>2019-12-10T21:44:14Z</time>
      </trkpt>
      <trkpt lat="43.05918" lon="0.29922">
        <ele>493.237</ele>
        <time>2019-12-10T21:44:34Z</time>
      </trkpt>
      <trkpt lat="43.05951" lon="0.29892">
        <ele>487.614</ele>
        <time>2019-12-10T21:44:54Z</time>
      </trkpt>
      <trkpt lat="43.05951" lon="0.29878">
        <ele>484.654</ele>
        <time>2019-12-10T21:45:14Z</time>
      </trkpt>
      <trkpt lat="43.05932" lon="0.29846">
        <ele>477.009</ele>
        <time>2019-12-10T21:45:34Z</time>
      </trkpt>
      <trkpt lat="43.05953" lon="0.29824">
        <ele>476.008</ele>
        <time>2019-12-10T21:45:54Z</time>
      </trkpt>
      <trkpt lat="43.05954" lon="0.29748">
        <ele>468.887</ele>
        <time>2019-12-10T21:46:14Z</time>
      </trkpt>
      <trkpt lat="43.05965" lon="0.29682">
        <ele>462.426</ele>
        <time>2019-12-10T21:46:34Z</time>
      </trkpt>
      <trkpt lat="43.05947" lon="0.29646">
        <ele>457.922</ele>
        <time>2019-12-10T21:46:54Z</time>
      </trkpt>
      <trkpt lat="43.05924" lon="0.29582">
        <ele>447.918</ele>
        <time>2019-12-10T21:47:14Z</time>
      </trkpt>
      <trkpt lat="43.05921" lon="0.29524">
        <ele>442.129</ele>
        <time>2019-12-10T21:47:34Z</time>
      </trkpt>
      <trkpt lat="43.05915" lon="0.2948">
        <ele>438.581</ele>
        <time>2019-12-10T21:47:54Z</time>
      </trkpt>
      <trkpt lat="43.05886" lon="0.29478">
        <ele>436.784</ele>
        <time>2019-12-10T21:48:14Z</time>
      </trkpt>
      <trkpt lat="43.0589" lon="0.29432">
        <ele>434.156</ele>
        <time>2019-12-10T21:48:34Z</time>
      </trkpt>
      <trkpt lat="43.05862" lon="0.29315">
        <ele>421.851</ele>
        <time>2019-12-10T21:48:54Z</time>
      </trkpt>
      <trkpt lat="43.05826" lon="0.29301">
        <ele>413.401</ele>
        <time>2019-12-10T21:49:14Z</time>
      </trkpt>
      <trkpt lat="43.05788" lon="0.29305">
        <ele>409.011</ele>
        <time>2019-12-10T21:49:34Z</time>
      </trkpt>
      <trkpt lat="43.05771" lon="0.29219">
        <ele>392.208</ele>
        <time>2019-12-10T21:49:54Z</time>
      </trkpt>
      <trkpt lat="43.05834" lon="0.29155">
        <ele>380.611</ele>
        <time>2019-12-10T21:50:14Z</time>
      </trkpt>
      <trkpt lat="43.05823" lon="0.29099">
        <ele>380.91</ele>
        <time>2019-12-10T21:50:34Z</time>
      </trkpt>
      <trkpt lat="43.05757" lon="0.29095">
        <ele>390.436</ele>
        <time>2019-12-10T21:50:54Z</time>
      </trkpt>
      <trkpt lat="43.05776" lon="0.29077">
        <ele>390.832</ele>
        <time>2019-12-10T21:51:14Z</time>
      </trkpt>
      <trkpt lat="43.05792" lon="0.29011">
        <ele>402.323</ele>
        <time>2019-12-10T21:51:34Z</time>
      </trkpt>
      <trkpt lat="43.05833" lon="0.28953">
        <ele>418.055</ele>
        <time>2019-12-10T21:51:54Z</time>
      </trkpt>
      <trkpt lat="43.05856" lon="0.28955">
        <ele>421.778</ele>
        <time>2019-12-10T21:52:14Z</time>
      </trkpt>
      <trkpt lat="43.05913" lon="0.28983">
        <ele>420.13</ele>
        <time>2019-12-10T21:52:34Z</time>
      </trkpt>
      <trkpt lat="43.0597" lon="0.28947">
        <ele>427.098</ele>
        <time>2019-12-10T21:52:54Z</time>
      </trkpt>
      <trkpt lat="43.06054" lon="0.28929">
        <ele>433.115</ele>
        <time>2019-12-10T21:53:14Z</time>
      </trkpt>
      <trkpt lat="43.06092" lon="0.28879">
        <ele>429.626</ele>
        <time>2019-12-10T21:53:34Z</time>
      </trkpt>
      <trkpt lat="43.06121" lon="0.28881">
        <ele>427.608</ele>
        <time>2019-12-10T21:53:54Z</time>
      </trkpt>
      <trkpt lat="43.06125" lon="0.28913">
        <ele>427.245</ele>
        <time>2019-12-10T21:54:14Z</time>
      </trkpt>
      <trkpt lat="43.06117" lon="0.28983">
        <ele>421.754</ele>
        <time>2019-12-10T21:54:34Z</time>
      </trkpt>
      <trkpt lat="43.06161" lon="0.29079">
        <ele>410.17</ele>
        <time>2019-12-10T21:54:54Z</time>
      </trkpt>
      <trkpt lat="43.06196" lon="0.29099">
        <ele>408.526</ele>
        <time>2019-12-10T21:55:14Z</time>
      </trkpt>
      <trkpt lat="43.0624" lon="0.29105">
        <ele>401.947</ele>
        <time>2019-12-10T21:55:34Z</time>
      </trkpt>
      <trkpt lat="43.063" lon="0.29127">
        <ele>393.799</ele>
        <time>2019-12-10T21:55:54Z</time>
      </trkpt>
      <trkpt lat="43.06349" lon="0.29125">
        <ele>397.582</ele>
        <time>2019-12-10T21:56:14Z</time>
      </trkpt>
      <trkpt lat="43.06389" lon="0.29195">
        <ele>384.864</ele>
        <time>2019-12-10T21:56:34Z</time>
      </trkpt>
      <trkpt lat="43.0644" lon="0.29217">
        <ele>376.997</ele>
        <time>2019-12-10T21:56:54Z</time>
      </trkpt>
      <trkpt lat="43.06496" lon="0.29193">
        <ele>375.323</ele>
        <time>2019-12-10T21:57:14Z</time>
      </trkpt>
      <trkpt lat="43.06544" lon="0.29227">
        <ele>370.925</ele>
        <time>2019-12-10T21:57:34Z</time>
      </trkpt>
      <trkpt lat="43.06553" lon="0.29261">
        <ele>369.608</ele>
        <time>2019-12-10T21:57:54Z</time>
      </trkpt>
      <trkpt lat="43.06649" lon="0.29305">
        <ele>371.115</ele>
        <time>2019-12-10T21:58:14Z</time>
      </trkpt>
      <trkpt lat="43.06724" lon="0.29289">
        <ele>372.314</ele>
        <time>2019-12-10T21:58:34Z</time>
      </trkpt>
      <trkpt lat="43.06813" lon="0.29311">
        <ele>371.52</ele>
        <time>2019-12-10T21:58:54Z</time>
      </trkpt>
      <trkpt lat="43.06797" lon="0.29235">
        <ele>372.366</ele>
        <time>2019-12-10T21:59:14Z</time>
      </trkpt>
      <trkpt lat="43.06857" lon="0.29225">
        <ele>370.997</ele>
        <time>2019-12-10T21:59:34Z</time>
      </trkpt>
      <trkpt lat="43.06895" lon="0.29219">
        <ele>371.039</ele>
        <time>2019-12-10T21:59:54Z</time>
      </trkpt>
      <trkpt lat="43.07015" lon="0.29239">
        <ele>372.622</ele>
        <time>2019-12-10T22:00:14Z</time>
      </trkpt>
      <trkpt lat="43.07126" lon="0.29211">
        <ele>372.054</ele>
        <time>2019-12-10T22:00:34Z</time>
      </trkpt>
      <trkpt lat="43.07151" lon="0.29181">
        <ele>374.276</ele>
        <time>2019-12-10T22:00:54Z</time>
      </trkpt>
      <trkpt lat="43.07332" lon="0.29201">
        <ele>377.69</ele>
        <time>2019-12-10T22:01:14Z</time>
      </trkpt>
      <trkpt lat="43.07392" lon="0.29249">
        <ele>371.319</ele>
        <time>2019-12-10T22:01:34Z</time>
      </trkpt>
      <trkpt lat="43.07478" lon="0.29221">
        <ele>366.708</ele>
        <time>2019-12-10T22:01:54Z</time>
      </trkpt>
      <trkpt lat="43.07518" lon="0.29165">
        <ele>368.283</ele>
        <time>2019-12-10T22:02:14Z</time>
      </trkpt>
      <trkpt lat="43.07546" lon="0.29109">
        <ele>365.722</ele>
        <time>2019-12-10T22:02:34Z</time>
      </trkpt>
      <trkpt lat="43.07519" lon="0.28991">
        <ele>372.158</ele>
        <time>2019-12-10T22:02:54Z</time>
      </trkpt>
      <trkpt lat="43.07535" lon="0.28945">
        <ele>366.654</ele>
        <time>2019-12-10T22:03:14Z</time>
      </trkpt>
      <trkpt lat="43.07538" lon="0.28905">
        <ele>365.675</ele>
        <time>2019-12-10T22:03:34Z</time>
      </trkpt>
      <trkpt lat="43.07579" lon="0.28847">
        <ele>367.137</ele>
        <time>2019-12-10T22:03:54Z</time>
      </trkpt>
      <trkpt lat="43.07635" lon="0.28833">
        <ele>361.67</ele>
        <time>2019-12-10T22:04:14Z</time>
      </trkpt>
      <trkpt lat="43.0768" lon="0.28833">
        <ele>361.612</ele>
        <time>2019-12-10T22:04:34Z</time>
      </trkpt>
      <trkpt lat="43.07692" lon="0.28847">
        <ele>361.013</ele>
        <time>2019-12-10T22:04:54Z</time>
      </trkpt>
      <trkpt lat="43.0778" lon="0.28847">
        <ele>363.743</ele>
        <time>2019-12-10T22:05:14Z</time>
      </trkpt>
      <trkpt lat="43.07859" lon="0.28883">
        <ele>360.307</ele>
        <time>2019-12-10T22:05:34Z</time>
      </trkpt>
      <trkpt lat="43.07987" lon="0.28831">
        <ele>359.208</ele>
        <time>2019-12-10T22:05:54Z</time>
      </trkpt>
      <trkpt lat="43.08009" lon="0.28791">
        <ele>363.357</ele>
        <time>2019-12-10T22:06:14Z</time>
      </trkpt>
      <trkpt lat="43.0804" lon="0.28801">
        <ele>361.046</ele>
        <time>2019-12-10T22:06:34Z</time>
      </trkpt>
      <trkpt lat="43.08094" lon="0.28757">
        <ele>362.492</ele>
        <time>2019-12-10T22:06:54Z</time>
      </trkpt>
      <trkpt lat="43.0817" lon="0.28637">
        <ele>359.098</ele>
        <time>2019-12-10T22:07:14Z</time>
      </trkpt>
      <trkpt lat="43.08205" lon="0.28595">
        <ele>356.199</ele>
        <time>2019-12-10T22:07:34Z</time>
      </trkpt>
      <trkpt lat="43.08211" lon="0.28547">
        <ele>360.961</ele>
        <time>2019-12-10T22:07:54Z</time>
      </trkpt>
      <trkpt lat="43.08297" lon="0.28399">
        <ele>357.044</ele>
        <time>2019-12-10T22:08:14Z</time>
      </trkpt>
      <trkpt lat="43.08357" lon="0.2828">
        <ele>359.516</ele>
        <time>2019-12-10T22:08:34Z</time>
      </trkpt>
      <trkpt lat="43.08422" lon="0.28188">
        <ele>353.186</ele>
        <time>2019-12-10T22:08:54Z</time>
      </trkpt>
      <trkpt lat="43.08502" lon="0.28226">
        <ele>350.06</ele>
        <time>2019-12-10T22:09:14Z</time>
      </trkpt>
      <trkpt lat="43.08504" lon="0.28232">
        <ele>350.026</ele>
        <time>2019-12-10T22:09:34Z</time>
      </trkpt>
      <trkpt lat="43.08547" lon="0.28167">
        <ele>350.008</ele>
        <time>2019-12-10T22:09:54Z</time>
      </trkpt>
      <trkpt lat="43.0859" lon="0.28064">
        <ele>350.044</ele>
        <time>2019-12-10T22:10:14Z</time>
      </trkpt>
      <trkpt lat="43.08599" lon="0.28045">
        <ele>350.063</ele>
        <time>2019-12-10T22:10:34Z</time>
      </trkpt>
      <trkpt lat="43.08587" lon="0.28014">
        <ele>350.029</ele>
        <time>2019-12-10T22:10:54Z</time>
      </trkpt>
      <trkpt lat="43.08654" lon="0.27929">
        <ele>349.895</ele>
        <time>2019-12-10T22:11:14Z</time>
      </trkpt>
      <trkpt lat="43.08665" lon="0.2788">
        <ele>356.586</ele>
        <time>2019-12-10T22:11:34Z</time>
      </trkpt>
      <trkpt lat="43.08766" lon="0.27803">
        <ele>369.258</ele>
        <time>2019-12-10T22:11:54Z</time>
      </trkpt>
      <trkpt lat="43.08831" lon="0.27721">
        <ele>371.041</ele>
        <time>2019-12-10T22:12:14Z</time>
      </trkpt>
      <trkpt lat="43.08824" lon="0.27631">
        <ele>376.983</ele>
        <time>2019-12-10T22:12:34Z</time>
      </trkpt>
      <trkpt lat="43.08806" lon="0.2758">
        <ele>375.744</ele>
        <time>2019-12-10T22:12:54Z</time>
      </trkpt>
      <trkpt lat="43.08843" lon="0.27522">
        <ele>370.505</ele>
        <time>2019-12-10T22:13:14Z</time>
      </trkpt>
      <trkpt lat="43.08879" lon="0.27438">
        <ele>364.815</ele>
        <time>2019-12-10T22:13:34Z</time>
      </trkpt>
      <trkpt lat="43.08958" lon="0.27341">
        <ele>355.508</ele>
        <time>2019-12-10T22:13:54Z</time>
      </trkpt>
      <trkpt lat="43.08944" lon="0.2729">
        <ele>351.79</ele>
        <time>2019-12-10T22:14:14Z</time>
      </trkpt>
      <trkpt lat="43.09" lon="0.27221">
        <ele>352.079</ele>
        <time>2019-12-10T22:14:34Z</time>
      </trkpt>
      <trkpt lat="43.09014" lon="0.27165">
        <ele>349.995</ele>
        <time>2019-12-10T22:14:54Z</time>
      </trkpt>
      <trkpt lat="43.09025" lon="0.27101">
        <ele>347.211</ele>
        <time>2019-12-10T22:15:14Z</time>
      </trkpt>
      <trkpt lat="43.09061" lon="0.26966">
        <ele>344.842</ele>
        <time>2019-12-10T22:15:34Z</time>
      </trkpt>
      <trkpt lat="43.09077" lon="0.26848">
        <ele>343.074</ele>
        <time>2019-12-10T22:15:54Z</time>
      </trkpt>
      <trkpt lat="43.09077" lon="0.26644">
        <ele>338.487</ele>
        <time>2019-12-10T22:16:14Z</time>
      </trkpt>
      <trkpt lat="43.09113" lon="0.26554">
        <ele>337.959</ele>
        <time>2019-12-10T22:16:34Z</time>
      </trkpt>
      <trkpt lat="43.09144" lon="0.26423">
        <ele>337.048</ele>
        <time>2019-12-10T22:16:54Z</time>
      </trkpt>
      <trkpt lat="43.09155" lon="0.26193">
        <ele>339.861</ele>
        <time>2019-12-10T22:17:14Z</time>
      </trkpt>
      <trkpt lat="43.0918" lon="0.26174">
        <ele>339.417</ele>
        <time>2019-12-10T22:17:34Z</time>
      </trkpt>
      <trkpt lat="43.09219" lon="0.262">
        <ele>337.408</ele>
        <time>2019-12-10T22:17:54Z</time>
      </trkpt>
      <trkpt lat="43.09312" lon="0.26174">
        <ele>335.06</ele>
        <time>2019-12-10T22:18:14Z</time>
      </trkpt>
      <trkpt lat="43.09395" lon="0.26163">
        <ele>331.519</ele>
        <time>2019-12-10T22:18:34Z</time>
      </trkpt>
      <trkpt lat="43.09417" lon="0.26429">
        <ele>330.595</ele>
        <time>2019-12-10T22:18:54Z</time>
      </trkpt>
      <trkpt lat="43.09417" lon="0.2647">
        <ele>331.911</ele>
        <time>2019-12-10T22:19:14Z</time>
      </trkpt>
      <trkpt lat="43.09445" lon="0.26477">
        <ele>337.752</ele>
        <time>2019-12-10T22:19:34Z</time>
      </trkpt>
      <trkpt lat="43.09503" lon="0.2641">
        <ele>336.624</ele>
        <time>2019-12-10T22:19:54Z</time>
      </trkpt>
      <trkpt lat="43.09578" lon="0.26395">
        <ele>335.717</ele>
        <time>2019-12-10T22:20:14Z</time>
      </trkpt>
      <trkpt lat="43.09711" lon="0.26475">
        <ele>337.149</ele>
        <time>2019-12-10T22:20:34Z</time>
      </trkpt>
      <trkpt lat="43.09771" lon="0.26498">
        <ele>333.122</ele>
        <time>2019-12-10T22:20:54Z</time>
      </trkpt>
      <trkpt lat="43.09785" lon="0.26552">
        <ele>338.962</ele>
        <time>2019-12-10T22:21:14Z</time>
      </trkpt>
      <trkpt lat="43.09843" lon="0.26616">
        <ele>332.508</ele>
        <time>2019-12-10T22:21:34Z</time>
      </trkpt>
      <trkpt lat="43.09851" lon="0.26653">
        <ele>333.208</ele>
        <time>2019-12-10T22:21:54Z</time>
      </trkpt>
      <trkpt lat="43.0984" lon="0.2667">
        <ele>335.288</ele>
        <time>2019-12-10T22:22:14Z</time>
      </trkpt>
      <trkpt lat="43.0987" lon="0.26663">
        <ele>330.727</ele>
        <time>2019-12-10T22:22:34Z</time>
      </trkpt>
      <trkpt lat="43.09896" lon="0.26674">
        <ele>330.013</ele>
        <time>2019-12-10T22:22:54Z</time>
      </trkpt>
      <trkpt lat="43.09907" lon="0.26723">
        <ele>330.549</ele>
        <time>2019-12-10T22:23:14Z</time>
      </trkpt>
      <trkpt lat="43.09937" lon="0.26801">
        <ele>332.22</ele>
        <time>2019-12-10T22:23:34Z</time>
      </trkpt>
      <trkpt lat="43.09957" lon="0.26837">
        <ele>331.942</ele>
        <time>2019-12-10T22:23:54Z</time>
      </trkpt>
      <trkpt lat="43.09982" lon="0.26929">
        <ele>332.255</ele>
        <time>2019-12-10T22:24:14Z</time>
      </trkpt>
      <trkpt lat="43.09975" lon="0.2699">
        <ele>334.277</ele>
        <time>2019-12-10T22:24:34Z</time>
      </trkpt>
      <trkpt lat="43.09993" lon="0.2703">
        <ele>332.682</ele>
        <time>2019-12-10T22:24:54Z</time>
      </trkpt>
      <trkpt lat="43.09987" lon="0.27077">
        <ele>337.743</ele>
        <time>2019-12-10T22:25:14Z</time>
      </trkpt>
      <trkpt lat="43.0996" lon="0.27135">
        <ele>345.617</ele>
        <time>2019-12-10T22:25:34Z</time>
      </trkpt>
      <trkpt lat="43.0999" lon="0.27142">
        <ele>339.108</ele>
        <time>2019-12-10T22:25:54Z</time>
      </trkpt>
      <trkpt lat="43.09993" lon="0.27198">
        <ele>344.314</ele>
        <time>2019-12-10T22:26:14Z</time>
      </trkpt>
      <trkpt lat="43.10007" lon="0.27232">
        <ele>343.643</ele>
        <time>2019-12-10T22:26:34Z</time>
      </trkpt>
      <trkpt lat="43.09996" lon="0.27283">
        <ele>350.649</ele>
        <time>2019-12-10T22:26:54Z</time>
      </trkpt>
      <trkpt lat="43.10006" lon="0.27294">
        <ele>348.455</ele>
        <time>2019-12-10T22:27:14Z</time>
      </trkpt>
      <trkpt lat="43.10036" lon="0.27344">
        <ele>345.016</ele>
        <time>2019-12-10T22:27:34Z</time>
      </trkpt>
      <trkpt lat="43.10067" lon="0.27389">
        <ele>339.938</ele>
        <time>2019-12-10T22:27:54Z</time>
      </trkpt>
      <trkpt lat="43.1008" lon="0.27421">
        <ele>334.541</ele>
        <time>2019-12-10T22:28:14Z</time>
      </trkpt>
      <trkpt lat="43.10062" lon="0.27449">
        <ele>335.163</ele>
        <time>2019-12-10T22:28:34Z</time>
      </trkpt>
      <trkpt lat="43.10062" lon="0.27462">
        <ele>335.248</ele>
        <time>2019-12-10T22:28:54Z</time>
      </trkpt>
      <trkpt lat="43.10123" lon="0.27489">
        <ele>333.261</ele>
        <time>2019-12-10T22:29:14Z</time>
      </trkpt>
      <trkpt lat="43.10152" lon="0.27472">
        <ele>331.017</ele>
        <time>2019-12-10T22:29:34Z</time>
      </trkpt>
      <trkpt lat="43.10249" lon="0.27365">
        <ele>330.008</ele>
        <time>2019-12-10T22:29:54Z</time>
      </trkpt>
      <trkpt lat="43.10232" lon="0.27303">
        <ele>330.03</ele>
        <time>2019-12-10T22:30:14Z</time>
      </trkpt>
      <trkpt lat="43.10264" lon="0.27217">
        <ele>330.099</ele>
        <time>2019-12-10T22:30:34Z</time>
      </trkpt>
      <trkpt lat="43.10302" lon="0.2717">
        <ele>330.055</ele>
        <time>2019-12-10T22:30:54Z</time>
      </trkpt>
      <trkpt lat="43.10347" lon="0.27125">
        <ele>331.821</ele>
        <time>2019-12-10T22:31:14Z</time>
      </trkpt>
      <trkpt lat="43.10329" lon="0.26979">
        <ele>330.092</ele>
        <time>2019-12-10T22:31:34Z</time>
      </trkpt>
      <trkpt lat="43.10352" lon="0.26923">
        <ele>335.174</ele>
        <time>2019-12-10T22:31:54Z</time>
      </trkpt>
      <trkpt lat="43.10326" lon="0.26874">
        <ele>340.787</ele>
        <time>2019-12-10T22:32:14Z</time>
      </trkpt>
      <trkpt lat="43.10271" lon="0.26678">
        <ele>353.859</ele>
        <time>2019-12-10T22:32:34Z</time>
      </trkpt>
      <trkpt lat="43.10332" lon="0.26616">
        <ele>339.736</ele>
        <time>2019-12-10T22:32:54Z</time>
      </trkpt>
      <trkpt lat="43.10346" lon="0.26522">
        <ele>335.217</ele>
        <time>2019-12-10T22:33:14Z</time>
      </trkpt>
      <trkpt lat="43.10379" lon="0.26487">
        <ele>318.618</ele>
        <time>2019-12-10T22:33:34Z</time>
      </trkpt>
      <trkpt lat="43.10393" lon="0.2644">
        <ele>316.208</ele>
        <time>2019-12-10T22:33:54Z</time>
      </trkpt>
      <trkpt lat="43.10451" lon="0.26318">
        <ele>317.979</ele>
        <time>2019-12-10T22:34:14Z</time>
      </trkpt>
      <trkpt lat="43.10456" lon="0.26266">
        <ele>325.788</ele>
        <time>2019-12-10T22:34:34Z</time>
      </trkpt>
      <trkpt lat="43.10474" lon="0.26215">
        <ele>327.294</ele>
        <time>2019-12-10T22:34:54Z</time>
      </trkpt>
      <trkpt lat="43.10484" lon="0.26166">
        <ele>330.04</ele>
        <time>2019-12-10T22:35:14Z</time>
      </trkpt>
      <trkpt lat="43.10542" lon="0.26069">
        <ele>325.631</ele>
        <time>2019-12-10T22:35:34Z</time>
      </trkpt>
      <trkpt lat="43.10576" lon="0.26052">
        <ele>317.243</ele>
        <time>2019-12-10T22:35:54Z</time>
      </trkpt>
      <trkpt lat="43.10625" lon="0.25979">
        <ele>322.746</ele>
        <time>2019-12-10T22:36:14Z</time>
      </trkpt>
      <trkpt lat="43.10689" lon="0.25938">
        <ele>319.368</ele>
        <time>2019-12-10T22:36:34Z</time>
      </trkpt>
      <trkpt lat="43.10741" lon="0.25878">
        <ele>321.463</ele>
        <time>2019-12-10T22:36:54Z</time>
      </trkpt>
      <trkpt lat="43.10808" lon="0.25842">
        <ele>317.944</ele>
        <time>2019-12-10T22:37:14Z</time>
      </trkpt>
      <trkpt lat="43.10932" lon="0.2579">
        <ele>310.818</ele>
        <time>2019-12-10T22:37:34Z</time>
      </trkpt>
      <trkpt lat="43.10922" lon="0.25655">
        <ele>316.108</ele>
        <time>2019-12-10T22:37:54Z</time>
      </trkpt>
      <trkpt lat="43.10886" lon="0.25571">
        <ele>322.772</ele>
        <time>2019-12-10T22:38:14Z</time>
      </trkpt>
      <trkpt lat="43.10883" lon="0.25466">
        <ele>315.821</ele>
        <time>2019-12-10T22:38:34Z</time>
      </trkpt>
      <trkpt lat="43.1085" lon="0.2535">
        <ele>326.517</ele>
        <time>2019-12-10T22:38:54Z</time>
      </trkpt>
      <trkpt lat="43.10833" lon="0.25234">
        <ele>322.983</ele>
        <time>2019-12-10T22:39:14Z</time>
      </trkpt>
      <trkpt lat="43.10764" lon="0.25148">
        <ele>326.074</ele>
        <time>2019-12-10T22:39:34Z</time>
      </trkpt>
      <trkpt lat="43.10758" lon="0.25095">
        <ele>321.366</ele>
        <time>2019-12-10T22:39:54Z</time>
      </trkpt>
      <trkpt lat="43.10734" lon="0.25084">
        <ele>325.649</ele>
        <time>2019-12-10T22:40:14Z</time>
      </trkpt>
      <trkpt lat="43.1072" lon="0.25028">
        <ele>321.511</ele>
        <time>2019-12-10T22:40:34Z</time>
      </trkpt>
      <trkpt lat="43.10698" lon="0.25013">
        <ele>324.351</ele>
        <time>2019-12-10T22:40:54Z</time>
      </trkpt>
      <trkpt lat="43.10667" lon="0.24964">
        <ele>324.401</ele>
        <time>2019-12-10T22:41:14Z</time>
      </trkpt>
      <trkpt lat="43.10651" lon="0.24897">
        <ele>321.111</ele>
        <time>2019-12-10T22:41:34Z</time>
      </trkpt>
      <trkpt lat="43.10626" lon="0.24885">
        <ele>325.608</ele>
        <time>2019-12-10T22:41:54Z</time>
      </trkpt>
      <trkpt lat="43.10614" lon="0.24839">
        <ele>331.081</ele>
        <time>2019-12-10T22:42:14Z</time>
      </trkpt>
      <trkpt lat="43.10631" lon="0.24777">
        <ele>325.47</ele>
        <time>2019-12-10T22:42:34Z</time>
      </trkpt>
      <trkpt lat="43.10601" lon="0.24691">
        <ele>323.916</ele>
        <time>2019-12-10T22:42:54Z</time>
      </trkpt>
      <trkpt lat="43.10564" lon="0.24651">
        <ele>329.152</ele>
        <time>2019-12-10T22:43:14Z</time>
      </trkpt>
      <trkpt lat="43.1057" lon="0.24528">
        <ele>323.483</ele>
        <time>2019-12-10T22:43:34Z</time>
      </trkpt>
      <trkpt lat="43.10556" lon="0.24496">
        <ele>326.135</ele>
        <time>2019-12-10T22:43:54Z</time>
      </trkpt>
      <trkpt lat="43.1055" lon="0.24299">
        <ele>329.678</ele>
        <time>2019-12-10T22:44:14Z</time>
      </trkpt>
      <trkpt lat="43.10535" lon="0.24262">
        <ele>330.79</ele>
        <time>2019-12-10T22:44:34Z</time>
      </trkpt>
      <trkpt lat="43.10545" lon="0.24243">
        <ele>330.585</ele>
        <time>2019-12-10T22:44:54Z</time>
      </trkpt>
      <trkpt lat="43.10539" lon="0.23921">
        <ele>330.189</ele>
        <time>2019-12-10T22:45:14Z</time>
      </trkpt>
      <trkpt lat="43.10507" lon="0.23857">
        <ele>332.217</ele>
        <time>2019-12-10T22:45:34Z</time>
      </trkpt>
      <trkpt lat="43.10507" lon="0.23801">
        <ele>331.508</ele>
        <time>2019-12-10T22:45:54Z</time>
      </trkpt>
      <trkpt lat="43.10421" lon="0.2376">
        <ele>341.584</ele>
        <time>2019-12-10T22:46:14Z</time>
      </trkpt>
      <trkpt lat="43.10338" lon="0.23689">
        <ele>352.863</ele>
        <time>2019-12-10T22:46:34Z</time>
      </trkpt>
      <trkpt lat="43.10288" lon="0.23634">
        <ele>358.879</ele>
        <time>2019-12-10T22:46:54Z</time>
      </trkpt>
      <trkpt lat="43.10264" lon="0.23629">
        <ele>363.075</ele>
        <time>2019-12-10T22:47:14Z</time>
      </trkpt>
      <trkpt lat="43.10232" lon="0.23737">
        <ele>376.246</ele>
        <time>2019-12-10T22:47:34Z</time>
      </trkpt>
      <trkpt lat="43.10158" lon="0.23825">
        <ele>389.478</ele>
        <time>2019-12-10T22:47:54Z</time>
      </trkpt>
      <trkpt lat="43.10147" lon="0.23876">
        <ele>390.331</ele>
        <time>2019-12-10T22:48:14Z</time>
      </trkpt>
      <trkpt lat="43.10119" lon="0.2391">
        <ele>396.643</ele>
        <time>2019-12-10T22:48:34Z</time>
      </trkpt>
      <trkpt lat="43.10103" lon="0.2382">
        <ele>408.477</ele>
        <time>2019-12-10T22:48:54Z</time>
      </trkpt>
      <trkpt lat="43.10051" lon="0.23689">
        <ele>419.061</ele>
        <time>2019-12-10T22:49:14Z</time>
      </trkpt>
      <trkpt lat="43.09928" lon="0.23533">
        <ele>432.627</ele>
        <time>2019-12-10T22:49:34Z</time>
      </trkpt>
      <trkpt lat="43.09893" lon="0.23518">
        <ele>437.908</ele>
        <time>2019-12-10T22:49:54Z</time>
      </trkpt>
      <trkpt lat="43.09863" lon="0.23513">
        <ele>442.213</ele>
        <time>2019-12-10T22:50:14Z</time>
      </trkpt>
      <trkpt lat="43.09837" lon="0.23481">
        <ele>450.582</ele>
        <time>2019-12-10T22:50:34Z</time>
      </trkpt>
      <trkpt lat="43.09818" lon="0.23417">
        <ele>456.018</ele>
        <time>2019-12-10T22:50:54Z</time>
      </trkpt>
      <trkpt lat="43.09826" lon="0.23305">
        <ele>464.884</ele>
        <time>2019-12-10T22:51:14Z</time>
      </trkpt>
      <trkpt lat="43.0981" lon="0.23153">
        <ele>470.075</ele>
        <time>2019-12-10T22:51:34Z</time>
      </trkpt>
      <trkpt lat="43.09818" lon="0.22902">
        <ele>466.187</ele>
        <time>2019-12-10T22:51:54Z</time>
      </trkpt>
      <trkpt lat="43.09808" lon="0.22818">
        <ele>463.97</ele>
        <time>2019-12-10T22:52:14Z</time>
      </trkpt>
      <trkpt lat="43.09779" lon="0.22726">
        <ele>467.642</ele>
        <time>2019-12-10T22:52:34Z</time>
      </trkpt>
      <trkpt lat="43.09788" lon="0.22591">
        <ele>477.991</ele>
        <time>2019-12-10T22:52:54Z</time>
      </trkpt>
      <trkpt lat="43.09771" lon="0.22503">
        <ele>483.581</ele>
        <time>2019-12-10T22:53:14Z</time>
      </trkpt>
      <trkpt lat="43.09707" lon="0.22337">
        <ele>493.219</ele>
        <time>2019-12-10T22:53:34Z</time>
      </trkpt>
      <trkpt lat="43.09614" lon="0.22147">
        <ele>487.208</ele>
        <time>2019-12-10T22:53:54Z</time>
      </trkpt>
      <trkpt lat="43.09541" lon="0.22046">
        <ele>483.665</ele>
        <time>2019-12-10T22:54:14Z</time>
      </trkpt>
      <trkpt lat="43.09445" lon="0.21953">
        <ele>501.014</ele>
        <time>2019-12-10T22:54:34Z</time>
      </trkpt>
      <trkpt lat="43.09378" lon="0.21928">
        <ele>511.09</ele>
        <time>2019-12-10T22:54:54Z</time>
      </trkpt>
      <trkpt lat="43.09331" lon="0.21915">
        <ele>519.826</ele>
        <time>2019-12-10T22:55:14Z</time>
      </trkpt>
      <trkpt lat="43.0928" lon="0.21932">
        <ele>519.877</ele>
        <time>2019-12-10T22:55:34Z</time>
      </trkpt>
      <trkpt lat="43.09249" lon="0.21844">
        <ele>529.319</ele>
        <time>2019-12-10T22:55:54Z</time>
      </trkpt>
      <trkpt lat="43.09248" lon="0.21644">
        <ele>551.032</ele>
        <time>2019-12-10T22:56:14Z</time>
      </trkpt>
      <trkpt lat="43.09229" lon="0.21604">
        <ele>554.534</ele>
        <time>2019-12-10T22:56:34Z</time>
      </trkpt>
      <trkpt lat="43.09194" lon="0.21567">
        <ele>558.897</ele>
        <time>2019-12-10T22:56:54Z</time>
      </trkpt>
      <trkpt lat="43.09147" lon="0.2155">
        <ele>564.923</ele>
        <time>2019-12-10T22:57:14Z</time>
      </trkpt>
      <trkpt lat="43.09111" lon="0.21563">
        <ele>565.725</ele>
        <time>2019-12-10T22:57:34Z</time>
      </trkpt>
      <trkpt lat="43.09091" lon="0.21539">
        <ele>566.108</ele>
        <time>2019-12-10T22:57:54Z</time>
      </trkpt>
      <trkpt lat="43.09069" lon="0.21471">
        <ele>567.055</ele>
        <time>2019-12-10T22:58:14Z</time>
      </trkpt>
      <trkpt lat="43.09027" lon="0.21441">
        <ele>568.334</ele>
        <time>2019-12-10T22:58:34Z</time>
      </trkpt>
      <trkpt lat="43.08857" lon="0.21464">
        <ele>559.05</ele>
        <time>2019-12-10T22:58:54Z</time>
      </trkpt>
      <trkpt lat="43.08726" lon="0.21516">
        <ele>559.926</ele>
        <time>2019-12-10T22:59:14Z</time>
      </trkpt>
      <trkpt lat="43.0868" lon="0.21576">
        <ele>559.627</ele>
        <time>2019-12-10T22:59:34Z</time>
      </trkpt>
      <trkpt lat="43.08649" lon="0.21642">
        <ele>553.999</ele>
        <time>2019-12-10T22:59:54Z</time>
      </trkpt>
      <trkpt lat="43.08632" lon="0.21683">
        <ele>549.892</ele>
        <time>2019-12-10T23:00:14Z</time>
      </trkpt>
      <trkpt lat="43.08603" lon="0.21687">
        <ele>545.414</ele>
        <time>2019-12-10T23:00:34Z</time>
      </trkpt>
      <trkpt lat="43.08517" lon="0.21617">
        <ele>538.049</ele>
        <time>2019-12-10T23:00:54Z</time>
      </trkpt>
      <trkpt lat="43.08356" lon="0.21529">
        <ele>558.502</ele>
        <time>2019-12-10T23:01:14Z</time>
      </trkpt>
      <trkpt lat="43.08307" lon="0.21466">
        <ele>561.222</ele>
        <time>2019-12-10T23:01:34Z</time>
      </trkpt>
      <trkpt lat="43.08152" lon="0.21402">
        <ele>589.808</ele>
        <time>2019-12-10T23:01:54Z</time>
      </trkpt>
      <trkpt lat="43.08201" lon="0.21358">
        <ele>582.13</ele>
        <time>2019-12-10T23:02:14Z</time>
      </trkpt>
      <trkpt lat="43.0823" lon="0.21304">
        <ele>574.719</ele>
        <time>2019-12-10T23:02:34Z</time>
      </trkpt>
      <trkpt lat="43.0823" lon="0.21265">
        <ele>571.225</ele>
        <time>2019-12-10T23:02:54Z</time>
      </trkpt>
      <trkpt lat="43.08216" lon="0.21234">
        <ele>567.451</ele>
        <time>2019-12-10T23:03:14Z</time>
      </trkpt>
      <trkpt lat="43.08171" lon="0.21199">
        <ele>564.812</ele>
        <time>2019-12-10T23:03:34Z</time>
      </trkpt>
      <trkpt lat="43.08151" lon="0.21077">
        <ele>557.964</ele>
        <time>2019-12-10T23:03:54Z</time>
      </trkpt>
      <trkpt lat="43.08123" lon="0.21002">
        <ele>552.927</ele>
        <time>2019-12-10T23:04:14Z</time>
      </trkpt>
      <trkpt lat="43.08094" lon="0.20966">
        <ele>546.439</ele>
        <time>2019-12-10T23:04:34Z</time>
      </trkpt>
      <trkpt lat="43.08054" lon="0.20933">
        <ele>541.615</ele>
        <time>2019-12-10T23:04:54Z</time>
      </trkpt>
      <trkpt lat="43.08041" lon="0.20887">
        <ele>534.165</ele>
        <time>2019-12-10T23:05:14Z</time>
      </trkpt>
      <trkpt lat="43.08016" lon="0.20858">
        <ele>530.011</ele>
        <time>2019-12-10T23:05:34Z</time>
      </trkpt>
      <trkpt lat="43.07987" lon="0.20856">
        <ele>531.308</ele>
        <time>2019-12-10T23:05:54Z</time>
      </trkpt>
      <trkpt lat="43.07975" lon="0.20837">
        <ele>527.677</ele>
        <time>2019-12-10T23:06:14Z</time>
      </trkpt>
      <trkpt lat="43.07989" lon="0.20753">
        <ele>512.326</ele>
        <time>2019-12-10T23:06:34Z</time>
      </trkpt>
      <trkpt lat="43.07978" lon="0.20689">
        <ele>499.142</ele>
        <time>2019-12-10T23:06:54Z</time>
      </trkpt>
      <trkpt lat="43.07943" lon="0.20661">
        <ele>490.858</ele>
        <time>2019-12-10T23:07:14Z</time>
      </trkpt>
      <trkpt lat="43.07914" lon="0.20657">
        <ele>485.519</ele>
        <time>2019-12-10T23:07:34Z</time>
      </trkpt>
      <trkpt lat="43.07885" lon="0.20669">
        <ele>482.091</ele>
        <time>2019-12-10T23:07:54Z</time>
      </trkpt>
      <trkpt lat="43.07857" lon="0.20636">
        <ele>470.174</ele>
        <time>2019-12-10T23:08:14Z</time>
      </trkpt>
      <trkpt lat="43.07857" lon="0.20586">
        <ele>470.026</ele>
        <time>2019-12-10T23:08:34Z</time>
      </trkpt>
      <trkpt lat="43.07877" lon="0.20539">
        <ele>477.819</ele>
        <time>2019-12-10T23:08:54Z</time>
      </trkpt>
      <trkpt lat="43.07862" lon="0.20481">
        <ele>496.209</ele>
        <time>2019-12-10T23:09:14Z</time>
      </trkpt>
      <trkpt lat="43.07864" lon="0.20455">
        <ele>505.019</ele>
        <time>2019-12-10T23:09:34Z</time>
      </trkpt>
      <trkpt lat="43.07861" lon="0.20415">
        <ele>514.308</ele>
        <time>2019-12-10T23:09:54Z</time>
      </trkpt>
      <trkpt lat="43.07908" lon="0.20392">
        <ele>521.087</ele>
        <time>2019-12-10T23:10:14Z</time>
      </trkpt>
      <trkpt lat="43.07932" lon="0.20347">
        <ele>528.476</ele>
        <time>2019-12-10T23:10:34Z</time>
      </trkpt>
      <trkpt lat="43.07985" lon="0.20282">
        <ele>531.872</ele>
        <time>2019-12-10T23:10:54Z</time>
      </trkpt>
      <trkpt lat="43.0801" lon="0.2008">
        <ele>534.898</ele>
        <time>2019-12-10T23:11:14Z</time>
      </trkpt>
      <trkpt lat="43.08001" lon="0.20016">
        <ele>538.479</ele>
        <time>2019-12-10T23:11:34Z</time>
      </trkpt>
      <trkpt lat="43.07922" lon="0.19918">
        <ele>553.451</ele>
        <time>2019-12-10T23:11:54Z</time>
      </trkpt>
      <trkpt lat="43.07847" lon="0.19784">
        <ele>559.884</ele>
        <time>2019-12-10T23:12:14Z</time>
      </trkpt>
      <trkpt lat="43.07816" lon="0.19688">
        <ele>560.086</ele>
        <time>2019-12-10T23:12:34Z</time>
      </trkpt>
      <trkpt lat="43.07819" lon="0.19599">
        <ele>560.063</ele>
        <time>2019-12-10T23:12:54Z</time>
      </trkpt>
      <trkpt lat="43.07848" lon="0.19523">
        <ele>559.144</ele>
        <time>2019-12-10T23:13:14Z</time>
      </trkpt>
      <trkpt lat="43.07789" lon="0.19472">
        <ele>550.218</ele>
        <time>2019-12-10T23:13:34Z</time>
      </trkpt>
      <trkpt lat="43.0774" lon="0.19395">
        <ele>536.108</ele>
        <time>2019-12-10T23:13:54Z</time>
      </trkpt>
      <trkpt lat="43.07713" lon="0.19303">
        <ele>520.552</ele>
        <time>2019-12-10T23:14:14Z</time>
      </trkpt>
      <trkpt lat="43.07682" lon="0.19306">
        <ele>514.171</ele>
        <time>2019-12-10T23:14:34Z</time>
      </trkpt>
      <trkpt lat="43.07658" lon="0.19338">
        <ele>512.477</ele>
        <time>2019-12-10T23:14:54Z</time>
      </trkpt>
      <trkpt lat="43.07628" lon="0.19397">
        <ele>509.133</ele>
        <time>2019-12-10T23:15:14Z</time>
      </trkpt>
      <trkpt lat="43.07593" lon="0.19449">
        <ele>506.364</ele>
        <time>2019-12-10T23:15:34Z</time>
      </trkpt>
      <trkpt lat="43.07592" lon="0.19434">
        <ele>503.616</ele>
        <time>2019-12-10T23:15:54Z</time>
      </trkpt>
      <trkpt lat="43.07617" lon="0.19402">
        <ele>504.719</ele>
        <time>2019-12-10T23:16:14Z</time>
      </trkpt>
      <trkpt lat="43.07633" lon="0.19363">
        <ele>505.051</ele>
        <time>2019-12-10T23:16:34Z</time>
      </trkpt>
      <trkpt lat="43.0765" lon="0.19276">
        <ele>500.888</ele>
        <time>2019-12-10T23:16:54Z</time>
      </trkpt>
      <trkpt lat="43.0764" lon="0.1926">
        <ele>500.124</ele>
        <time>2019-12-10T23:17:14Z</time>
      </trkpt>
      <trkpt lat="43.07606" lon="0.19253">
        <ele>501.226</ele>
        <time>2019-12-10T23:17:34Z</time>
      </trkpt>
      <trkpt lat="43.07584" lon="0.19158">
        <ele>505.108</ele>
        <time>2019-12-10T23:17:54Z</time>
      </trkpt>
      <trkpt lat="43.07593" lon="0.1908">
        <ele>527.424</ele>
        <time>2021-02-06T14:09:11Z</time>
      </trkpt>
      <trkpt lat="43.07586" lon="0.19041">
        <ele>527.443</ele>
        <time>2021-02-06T14:09:31Z</time>
      </trkpt>
      <trkpt lat="43.07546" lon="0.18954">
        <ele>528.749</ele>
        <time>2021-02-06T14:09:51Z</time>
      </trkpt>
      <trkpt lat="43.07519" lon="0.18935">
        <ele>527.115</ele>
        <time>2021-02-06T14:10:11Z</time>
      </trkpt>
      <trkpt lat="43.07495" lon="0.18951">
        <ele>526.126</ele>
        <time>2021-02-06T14:10:31Z</time>
      </trkpt>
      <trkpt lat="43.07483" lon="0.18976">
        <ele>527.918</ele>
        <time>2021-02-06T14:10:51Z</time>
      </trkpt>
      <trkpt lat="43.07473" lon="0.19013">
        <ele>528.841</ele>
        <time>2021-02-06T14:11:11Z</time>
      </trkpt>
      <trkpt lat="43.07421" lon="0.19076">
        <ele>526.663</ele>
        <time>2021-02-06T14:11:31Z</time>
      </trkpt>
      <trkpt lat="43.07397" lon="0.19134">
        <ele>534.555</ele>
        <time>2021-02-06T14:11:51Z</time>
      </trkpt>
      <trkpt lat="43.07362" lon="0.1915">
        <ele>535.307</ele>
        <time>2021-02-06T14:12:11Z</time>
      </trkpt>
      <trkpt lat="43.07317" lon="0.19192">
        <ele>537.417</ele>
        <time>2021-02-06T14:12:31Z</time>
      </trkpt>
      <trkpt lat="43.07304" lon="0.19228">
        <ele>539.208</ele>
        <time>2021-02-06T14:12:51Z</time>
      </trkpt>
      <trkpt lat="43.07259" lon="0.19264">
        <ele>536.881</ele>
        <time>2021-02-06T14:13:11Z</time>
      </trkpt>
      <trkpt lat="43.07247" lon="0.19291">
        <ele>537.23</ele>
        <time>2021-02-06T14:13:31Z</time>
      </trkpt>
      <trkpt lat="43.07234" lon="0.19307">
        <ele>541.976</ele>
        <time>2021-02-06T14:13:51Z</time>
      </trkpt>
      <trkpt lat="43.07231" lon="0.19374">
        <ele>542.532</ele>
        <time>2021-02-06T14:14:11Z</time>
      </trkpt>
      <trkpt lat="43.07204" lon="0.19404">
        <ele>545.453</ele>
        <time>2021-02-06T14:14:31Z</time>
      </trkpt>
      <trkpt lat="43.07153" lon="0.19208">
        <ele>585.875</ele>
        <time>2021-02-06T14:14:51Z</time>
      </trkpt>
      <trkpt lat="43.07165" lon="0.19198">
        <ele>583.378</ele>
        <time>2021-02-06T14:15:11Z</time>
      </trkpt>
      <trkpt lat="43.07207" lon="0.19191">
        <ele>568.68</ele>
        <time>2021-02-06T14:15:31Z</time>
      </trkpt>
      <trkpt lat="43.07234" lon="0.19163">
        <ele>566.145</ele>
        <time>2021-02-06T14:15:51Z</time>
      </trkpt>
      <trkpt lat="43.07252" lon="0.19119">
        <ele>575.047</ele>
        <time>2021-02-06T14:16:11Z</time>
      </trkpt>
      <trkpt lat="43.07263" lon="0.19045">
        <ele>592.611</ele>
        <time>2021-02-06T14:16:31Z</time>
      </trkpt>
      <trkpt lat="43.0729" lon="0.18991">
        <ele>594.508</ele>
        <time>2021-02-06T14:16:51Z</time>
      </trkpt>
      <trkpt lat="43.07289" lon="0.18945">
        <ele>599.66</ele>
        <time>2021-02-06T14:17:11Z</time>
      </trkpt>
      <trkpt lat="43.07278" lon="0.1888">
        <ele>611.619</ele>
        <time>2021-02-06T14:17:31Z</time>
      </trkpt>
      <trkpt lat="43.07292" lon="0.18824">
        <ele>612.285</ele>
        <time>2021-02-06T14:17:51Z</time>
      </trkpt>
      <trkpt lat="43.07306" lon="0.18792">
        <ele>608.011</ele>
        <time>2021-02-06T14:18:11Z</time>
      </trkpt>
      <trkpt lat="43.07304" lon="0.18761">
        <ele>609.742</ele>
        <time>2021-02-06T14:18:31Z</time>
      </trkpt>
      <trkpt lat="43.07214" lon="0.1874">
        <ele>627.194</ele>
        <time>2019-12-10T23:22:14Z</time>
      </trkpt>
      <trkpt lat="43.07218" lon="0.18768">
        <ele>629.947</ele>
        <time>2019-12-10T23:22:34Z</time>
      </trkpt>
      <trkpt lat="43.072" lon="0.18811">
        <ele>635.679</ele>
        <time>2019-12-10T23:22:54Z</time>
      </trkpt>
      <trkpt lat="43.0714" lon="0.1885">
        <ele>649.985</ele>
        <time>2019-12-10T23:23:14Z</time>
      </trkpt>
      <trkpt lat="43.07132" lon="0.18907">
        <ele>651.389</ele>
        <time>2019-12-10T23:23:34Z</time>
      </trkpt>
      <trkpt lat="43.0708" lon="0.18961">
        <ele>660.217</ele>
        <time>2019-12-10T23:23:54Z</time>
      </trkpt>
      <trkpt lat="43.07001" lon="0.19001">
        <ele>670.708</ele>
        <time>2019-12-10T23:24:14Z</time>
      </trkpt>
      <trkpt lat="43.06933" lon="0.19101">
        <ele>674.724</ele>
        <time>2019-12-10T23:24:34Z</time>
      </trkpt>
      <trkpt lat="43.06861" lon="0.19144">
        <ele>675.233</ele>
        <time>2019-12-10T23:24:54Z</time>
      </trkpt>
      <trkpt lat="43.06846" lon="0.19132">
        <ele>678.069</ele>
        <time>2019-12-10T23:25:14Z</time>
      </trkpt>
      <trkpt lat="43.06832" lon="0.19099">
        <ele>680.025</ele>
        <time>2019-12-10T23:25:34Z</time>
      </trkpt>
      <trkpt lat="43.06703" lon="0.19083">
        <ele>689.796</ele>
        <time>2019-12-10T23:25:54Z</time>
      </trkpt>
      <trkpt lat="43.06715" lon="0.1913">
        <ele>697.758</ele>
        <time>2019-12-10T23:26:14Z</time>
      </trkpt>
      <trkpt lat="43.06717" lon="0.19216">
        <ele>705.111</ele>
        <time>2019-12-10T23:26:34Z</time>
      </trkpt>
      <trkpt lat="43.0668" lon="0.19291">
        <ele>713.873</ele>
        <time>2019-12-10T23:26:54Z</time>
      </trkpt>
      <trkpt lat="43.06641" lon="0.19357">
        <ele>720.796</ele>
        <time>2019-12-10T23:27:14Z</time>
      </trkpt>
      <trkpt lat="43.06561" lon="0.19397">
        <ele>727.331</ele>
        <time>2019-12-10T23:27:34Z</time>
      </trkpt>
      <trkpt lat="43.06493" lon="0.19359">
        <ele>729.024</ele>
        <time>2019-12-10T23:27:54Z</time>
      </trkpt>
      <trkpt lat="43.06413" lon="0.19324">
        <ele>731.208</ele>
        <time>2019-12-10T23:28:14Z</time>
      </trkpt>
      <trkpt lat="43.06384" lon="0.19275">
        <ele>730.265</ele>
        <time>2019-12-10T23:28:34Z</time>
      </trkpt>
      <trkpt lat="43.06278" lon="0.19268">
        <ele>732.674</ele>
        <time>2019-12-10T23:28:54Z</time>
      </trkpt>
      <trkpt lat="43.06223" lon="0.19245">
        <ele>733.63</ele>
        <time>2019-12-10T23:29:14Z</time>
      </trkpt>
      <trkpt lat="43.06183" lon="0.19209">
        <ele>741.766</ele>
        <time>2019-12-10T23:29:34Z</time>
      </trkpt>
      <trkpt lat="43.06139" lon="0.19129">
        <ele>751.867</ele>
        <time>2019-12-10T23:29:54Z</time>
      </trkpt>
      <trkpt lat="43.06064" lon="0.19076">
        <ele>766.559</ele>
        <time>2019-12-10T23:30:14Z</time>
      </trkpt>
      <trkpt lat="43.0603" lon="0.19083">
        <ele>777.422</ele>
        <time>2019-12-10T23:30:34Z</time>
      </trkpt>
      <trkpt lat="43.05979" lon="0.19172">
        <ele>789.374</ele>
        <time>2019-12-10T23:30:54Z</time>
      </trkpt>
      <trkpt lat="43.05946" lon="0.19275">
        <ele>791.891</ele>
        <time>2019-12-10T23:31:14Z</time>
      </trkpt>
      <trkpt lat="43.059" lon="0.19331">
        <ele>799.181</ele>
        <time>2019-12-10T23:31:34Z</time>
      </trkpt>
      <trkpt lat="43.05834" lon="0.19359">
        <ele>807.019</ele>
        <time>2019-12-10T23:31:54Z</time>
      </trkpt>
      <trkpt lat="43.05775" lon="0.1934">
        <ele>810.308</ele>
        <time>2019-12-10T23:32:14Z</time>
      </trkpt>
      <trkpt lat="43.05755" lon="0.19381">
        <ele>812.425</ele>
        <time>2019-12-10T23:32:34Z</time>
      </trkpt>
      <trkpt lat="43.05724" lon="0.19404">
        <ele>813.454</ele>
        <time>2019-12-10T23:32:54Z</time>
      </trkpt>
      <trkpt lat="43.05673" lon="0.19341">
        <ele>821.09</ele>
        <time>2019-12-10T23:33:14Z</time>
      </trkpt>
      <trkpt lat="43.05655" lon="0.19298">
        <ele>823.966</ele>
        <time>2019-12-10T23:33:34Z</time>
      </trkpt>
      <trkpt lat="43.05621" lon="0.19242">
        <ele>829.937</ele>
        <time>2019-12-10T23:33:54Z</time>
      </trkpt>
      <trkpt lat="43.05583" lon="0.19134">
        <ele>839.369</ele>
        <time>2019-12-10T23:34:14Z</time>
      </trkpt>
      <trkpt lat="43.05562" lon="0.19141">
        <ele>844.332</ele>
        <time>2019-12-10T23:34:34Z</time>
      </trkpt>
      <trkpt lat="43.0556" lon="0.19197">
        <ele>845.844</ele>
        <time>2019-12-10T23:34:54Z</time>
      </trkpt>
      <trkpt lat="43.05534" lon="0.19155">
        <ele>850.624</ele>
        <time>2019-12-10T23:35:14Z</time>
      </trkpt>
      <trkpt lat="43.0548" lon="0.19174">
        <ele>860.704</ele>
        <time>2019-12-10T23:35:34Z</time>
      </trkpt>
      <trkpt lat="43.05432" lon="0.19137">
        <ele>863.014</ele>
        <time>2019-12-10T23:35:54Z</time>
      </trkpt>
      <trkpt lat="43.05427" lon="0.18977">
        <ele>854.608</ele>
        <time>2019-12-10T23:36:14Z</time>
      </trkpt>
      <trkpt lat="43.05422" lon="0.18878">
        <ele>850.358</ele>
        <time>2019-12-10T23:36:34Z</time>
      </trkpt>
      <trkpt lat="43.05452" lon="0.1878">
        <ele>843.447</ele>
        <time>2019-12-10T23:36:54Z</time>
      </trkpt>
      <trkpt lat="43.05506" lon="0.18693">
        <ele>830.113</ele>
        <time>2019-12-10T23:37:14Z</time>
      </trkpt>
      <trkpt lat="43.05539" lon="0.18606">
        <ele>827.779</ele>
        <time>2019-12-10T23:37:34Z</time>
      </trkpt>
      <trkpt lat="43.05593" lon="0.18404">
        <ele>817.63</ele>
        <time>2019-12-10T23:37:54Z</time>
      </trkpt>
      <trkpt lat="43.05602" lon="0.18299">
        <ele>803.072</ele>
        <time>2019-12-10T23:38:14Z</time>
      </trkpt>
      <trkpt lat="43.05644" lon="0.18095">
        <ele>773.275</ele>
        <time>2019-12-10T23:38:34Z</time>
      </trkpt>
      <trkpt lat="43.05681" lon="0.1794">
        <ele>749.247</ele>
        <time>2019-12-10T23:38:54Z</time>
      </trkpt>
      <trkpt lat="43.05722" lon="0.17888">
        <ele>742.764</ele>
        <time>2019-12-10T23:39:14Z</time>
      </trkpt>
      <trkpt lat="43.05725" lon="0.17855">
        <ele>737.406</ele>
        <time>2019-12-10T23:39:34Z</time>
      </trkpt>
      <trkpt lat="43.05741" lon="0.17842">
        <ele>736.016</ele>
        <time>2019-12-10T23:39:54Z</time>
      </trkpt>
      <trkpt lat="43.05748" lon="0.1771">
        <ele>728.608</ele>
        <time>2019-12-10T23:40:14Z</time>
      </trkpt>
      <trkpt lat="43.05775" lon="0.1757">
        <ele>716.962</ele>
        <time>2019-12-10T23:40:34Z</time>
      </trkpt>
      <trkpt lat="43.05776" lon="0.17438">
        <ele>705.811</ele>
        <time>2019-12-10T23:40:54Z</time>
      </trkpt>
      <trkpt lat="43.05804" lon="0.17386">
        <ele>696.167</ele>
        <time>2019-12-10T23:41:14Z</time>
      </trkpt>
      <trkpt lat="43.05806" lon="0.17257">
        <ele>673.733</ele>
        <time>2019-12-10T23:41:34Z</time>
      </trkpt>
      <trkpt lat="43.05821" lon="0.17196">
        <ele>668.294</ele>
        <time>2019-12-10T23:41:54Z</time>
      </trkpt>
      <trkpt lat="43.05841" lon="0.17149">
        <ele>665.616</ele>
        <time>2019-12-10T23:42:14Z</time>
      </trkpt>
      <trkpt lat="43.05848" lon="0.17082">
        <ele>652.039</ele>
        <time>2019-12-10T23:42:34Z</time>
      </trkpt>
      <trkpt lat="43.05792" lon="0.17008">
        <ele>640.031</ele>
        <time>2019-12-10T23:42:54Z</time>
      </trkpt>
      <trkpt lat="43.05733" lon="0.16994">
        <ele>632.694</ele>
        <time>2019-12-10T23:43:14Z</time>
      </trkpt>
      <trkpt lat="43.05658" lon="0.1694">
        <ele>621.857</ele>
        <time>2019-12-10T23:43:34Z</time>
      </trkpt>
      <trkpt lat="43.05624" lon="0.16891">
        <ele>609.422</ele>
        <time>2019-12-10T23:43:54Z</time>
      </trkpt>
      <trkpt lat="43.05604" lon="0.16884">
        <ele>604.908</ele>
        <time>2019-12-10T23:44:14Z</time>
      </trkpt>
      <trkpt lat="43.0555" lon="0.1687">
        <ele>591.425</ele>
        <time>2019-12-10T23:44:34Z</time>
      </trkpt>
      <trkpt lat="43.0552" lon="0.16847">
        <ele>588.244</ele>
        <time>2019-12-10T23:44:54Z</time>
      </trkpt>
      <trkpt lat="43.05492" lon="0.16842">
        <ele>587.47</ele>
        <time>2019-12-10T23:45:14Z</time>
      </trkpt>
      <trkpt lat="43.05492" lon="0.16807">
        <ele>586.126</ele>
        <time>2019-12-10T23:45:34Z</time>
      </trkpt>
      <trkpt lat="43.05524" lon="0.1679">
        <ele>585.897</ele>
        <time>2019-12-10T23:45:54Z</time>
      </trkpt>
      <trkpt lat="43.05536" lon="0.16739">
        <ele>582.969</ele>
        <time>2019-12-10T23:46:14Z</time>
      </trkpt>
      <trkpt lat="43.05533" lon="0.16643">
        <ele>578.832</ele>
        <time>2019-12-10T23:46:34Z</time>
      </trkpt>
      <trkpt lat="43.05525" lon="0.16584">
        <ele>577.074</ele>
        <time>2019-12-10T23:46:54Z</time>
      </trkpt>
      <trkpt lat="43.05575" lon="0.16488">
        <ele>573.738</ele>
        <time>2019-12-10T23:47:14Z</time>
      </trkpt>
      <trkpt lat="43.05627" lon="0.16438">
        <ele>570.97</ele>
        <time>2019-12-10T23:47:34Z</time>
      </trkpt>
      <trkpt lat="43.05682" lon="0.16518">
        <ele>572.817</ele>
        <time>2019-12-10T23:47:54Z</time>
      </trkpt>
      <trkpt lat="43.05704" lon="0.16513">
        <ele>573.608</ele>
        <time>2019-12-10T23:48:14Z</time>
      </trkpt>
      <trkpt lat="43.05798" lon="0.16413">
        <ele>570.599</ele>
        <time>2019-12-10T23:48:34Z</time>
      </trkpt>
      <trkpt lat="43.05837" lon="0.16399">
        <ele>578.478</ele>
        <time>2019-12-10T23:48:54Z</time>
      </trkpt>
      <trkpt lat="43.0586" lon="0.16338">
        <ele>568.314</ele>
        <time>2019-12-10T23:49:14Z</time>
      </trkpt>
      <trkpt lat="43.05937" lon="0.1627">
        <ele>567.42</ele>
        <time>2019-12-10T23:49:34Z</time>
      </trkpt>
      <trkpt lat="43.06099" lon="0.16185">
        <ele>569.131</ele>
        <time>2019-12-10T23:49:54Z</time>
      </trkpt>
      <trkpt lat="43.06123" lon="0.16145">
        <ele>561.013</ele>
        <time>2019-12-10T23:50:14Z</time>
      </trkpt>
      <trkpt lat="43.06147" lon="0.16131">
        <ele>560.326</ele>
        <time>2019-12-10T23:50:34Z</time>
      </trkpt>
      <trkpt lat="43.06129" lon="0.1607">
        <ele>557.738</ele>
        <time>2019-12-10T23:50:54Z</time>
      </trkpt>
      <trkpt lat="43.06109" lon="0.16063">
        <ele>558.042</ele>
        <time>2019-12-10T23:51:14Z</time>
      </trkpt>
      <trkpt lat="43.0609" lon="0.15997">
        <ele>557.822</ele>
        <time>2019-12-10T23:51:34Z</time>
      </trkpt>
      <trkpt lat="43.06077" lon="0.16005">
        <ele>558.014</ele>
        <time>2019-12-10T23:51:54Z</time>
      </trkpt>
      <trkpt lat="43.06045" lon="0.15875">
        <ele>557.408</ele>
        <time>2019-12-10T23:52:14Z</time>
      </trkpt>
      <trkpt lat="43.06055" lon="0.15869">
        <ele>557.09</ele>
        <time>2019-12-10T23:52:34Z</time>
      </trkpt>
      <trkpt lat="43.06027" lon="0.1566">
        <ele>554.279</ele>
        <time>2019-12-10T23:52:54Z</time>
      </trkpt>
      <trkpt lat="43.06041" lon="0.15624">
        <ele>554.515</ele>
        <time>2019-12-10T23:53:14Z</time>
      </trkpt>
      <trkpt lat="43.06148" lon="0.15613">
        <ele>551.751</ele>
        <time>2019-12-10T23:53:34Z</time>
      </trkpt>
      <trkpt lat="43.06109" lon="0.15481">
        <ele>553.112</ele>
        <time>2019-12-10T23:53:54Z</time>
      </trkpt>
      <trkpt lat="43.06263" lon="0.15406">
        <ele>550.064</ele>
        <time>2019-12-10T23:54:14Z</time>
      </trkpt>
      <trkpt lat="43.06368" lon="0.15345">
        <ele>549.557</ele>
        <time>2019-12-10T23:54:34Z</time>
      </trkpt>
      <trkpt lat="43.06255" lon="0.15005">
        <ele>552.849</ele>
        <time>2019-12-10T23:54:54Z</time>
      </trkpt>
      <trkpt lat="43.06189" lon="0.14904">
        <ele>554.226</ele>
        <time>2019-12-10T23:55:14Z</time>
      </trkpt>
      <trkpt lat="43.059" lon="0.14757">
        <ele>558.347</ele>
        <time>2019-12-10T23:55:34Z</time>
      </trkpt>
      <trkpt lat="43.05904" lon="0.14725">
        <ele>558.811</ele>
        <time>2019-12-10T23:55:54Z</time>
      </trkpt>
      <trkpt lat="43.05884" lon="0.14712">
        <ele>560.208</ele>
        <time>2019-12-10T23:56:14Z</time>
      </trkpt>
      <trkpt lat="43.05869" lon="0.1469">
        <ele>560.448</ele>
        <time>2019-12-10T23:56:34Z</time>
      </trkpt>
      <trkpt lat="43.05843" lon="0.14676">
        <ele>562.947</ele>
        <time>2019-12-10T23:56:54Z</time>
      </trkpt>
      <trkpt lat="43.05798" lon="0.1461">
        <ele>569.453</ele>
        <time>2019-12-10T23:57:14Z</time>
      </trkpt>
      <trkpt lat="43.05756" lon="0.14591">
        <ele>570.029</ele>
        <time>2019-12-10T23:57:34Z</time>
      </trkpt>
      <trkpt lat="43.05739" lon="0.14568">
        <ele>570.39</ele>
        <time>2019-12-10T23:57:54Z</time>
      </trkpt>
      <trkpt lat="43.05662" lon="0.14554">
        <ele>570.072</ele>
        <time>2019-12-10T23:58:14Z</time>
      </trkpt>
      <trkpt lat="43.05582" lon="0.14593">
        <ele>570.085</ele>
        <time>2019-12-10T23:58:34Z</time>
      </trkpt>
      <trkpt lat="43.05531" lon="0.14588">
        <ele>570.727</ele>
        <time>2019-12-10T23:58:54Z</time>
      </trkpt>
      <trkpt lat="43.05506" lon="0.14601">
        <ele>571.884</ele>
        <time>2019-12-10T23:59:14Z</time>
      </trkpt>
      <trkpt lat="43.05482" lon="0.14602">
        <ele>575.007</ele>
        <time>2019-12-10T23:59:34Z</time>
      </trkpt>
      <trkpt lat="43.05443" lon="0.1465">
        <ele>575.417</ele>
        <time>2019-12-10T23:59:54Z</time>
      </trkpt>
      <trkpt lat="43.05425" lon="0.14704">
        <ele>579.008</ele>
        <time>2019-12-11T00:00:14Z</time>
      </trkpt>
      <trkpt lat="43.05393" lon="0.14743">
        <ele>579.254</ele>
        <time>2019-12-11T00:00:34Z</time>
      </trkpt>
      <trkpt lat="43.05362" lon="0.14761">
        <ele>574.253</ele>
        <time>2019-12-11T00:00:54Z</time>
      </trkpt>
      <trkpt lat="43.05319" lon="0.14755">
        <ele>575.039</ele>
        <time>2019-12-11T00:01:14Z</time>
      </trkpt>
      <trkpt lat="43.05276" lon="0.14758">
        <ele>576.655</ele>
        <time>2019-12-11T00:01:34Z</time>
      </trkpt>
      <trkpt lat="43.0523" lon="0.14729">
        <ele>579.926</ele>
        <time>2019-12-11T00:01:54Z</time>
      </trkpt>
      <trkpt lat="43.05137" lon="0.14684">
        <ele>580.518</ele>
        <time>2019-12-11T00:02:14Z</time>
      </trkpt>
      <trkpt lat="43.05119" lon="0.14703">
        <ele>584.531</ele>
        <time>2019-12-11T00:02:34Z</time>
      </trkpt>
      <trkpt lat="43.05072" lon="0.1481">
        <ele>592.073</ele>
        <time>2019-12-11T00:02:54Z</time>
      </trkpt>
      <trkpt lat="43.05089" lon="0.14634">
        <ele>610.428</ele>
        <time>2019-12-11T00:03:14Z</time>
      </trkpt>
      <trkpt lat="43.0508" lon="0.14623">
        <ele>617.289</ele>
        <time>2019-12-11T00:03:34Z</time>
      </trkpt>
      <trkpt lat="43.05092" lon="0.14559">
        <ele>624.217</ele>
        <time>2019-12-11T00:03:54Z</time>
      </trkpt>
      <trkpt lat="43.0502" lon="0.14678">
        <ele>636.008</ele>
        <time>2019-12-11T00:04:14Z</time>
      </trkpt>
      <trkpt lat="43.05024" lon="0.14609">
        <ele>650.028</ele>
        <time>2019-12-11T00:04:34Z</time>
      </trkpt>
      <trkpt lat="43.05046" lon="0.14569">
        <ele>647.367</ele>
        <time>2019-12-11T00:04:54Z</time>
      </trkpt>
      <trkpt lat="43.05014" lon="0.14596">
        <ele>656.463</ele>
        <time>2019-12-11T00:05:14Z</time>
      </trkpt>
      <trkpt lat="43.0498" lon="0.1466">
        <ele>658.789</ele>
        <time>2019-12-11T00:05:34Z</time>
      </trkpt>
      <trkpt lat="43.05018" lon="0.14512">
        <ele>671.45</ele>
        <time>2019-12-11T00:05:54Z</time>
      </trkpt>
      <trkpt lat="43.04969" lon="0.14622">
        <ele>674.412</ele>
        <time>2019-12-11T00:06:14Z</time>
      </trkpt>
      <trkpt lat="43.04977" lon="0.14525">
        <ele>692.735</ele>
        <time>2019-12-11T00:06:34Z</time>
      </trkpt>
      <trkpt lat="43.04948" lon="0.14587">
        <ele>697.527</ele>
        <time>2019-12-11T00:06:54Z</time>
      </trkpt>
      <trkpt lat="43.04964" lon="0.1449">
        <ele>708.479</ele>
        <time>2019-12-11T00:07:14Z</time>
      </trkpt>
      <trkpt lat="43.04935" lon="0.14544">
        <ele>715.305</ele>
        <time>2019-12-11T00:07:34Z</time>
      </trkpt>
      <trkpt lat="43.04936" lon="0.14521">
        <ele>718.825</ele>
        <time>2019-12-11T00:07:54Z</time>
      </trkpt>
      <trkpt lat="43.0492" lon="0.14541">
        <ele>724.808</ele>
        <time>2019-12-11T00:08:14Z</time>
      </trkpt>
      <trkpt lat="43.04937" lon="0.14471">
        <ele>730.333</ele>
        <time>2019-12-11T00:08:34Z</time>
      </trkpt>
      <trkpt lat="43.04876" lon="0.14587">
        <ele>742.862</ele>
        <time>2019-12-11T00:08:54Z</time>
      </trkpt>
      <trkpt lat="43.04893" lon="0.1452">
        <ele>747.748</ele>
        <time>2019-12-11T00:09:14Z</time>
      </trkpt>
      <trkpt lat="43.04856" lon="0.14582">
        <ele>757.184</ele>
        <time>2019-12-11T00:09:34Z</time>
      </trkpt>
      <trkpt lat="43.04915" lon="0.14391">
        <ele>762.165</ele>
        <time>2019-12-11T00:09:54Z</time>
      </trkpt>
      <trkpt lat="43.04943" lon="0.14257">
        <ele>770.417</ele>
        <time>2019-12-11T00:10:14Z</time>
      </trkpt>
      <trkpt lat="43.04956" lon="0.14158">
        <ele>773.99</ele>
        <time>2019-12-11T00:10:34Z</time>
      </trkpt>
      <trkpt lat="43.0495" lon="0.14005">
        <ele>781.272</ele>
        <time>2019-12-11T00:10:54Z</time>
      </trkpt>
      <trkpt lat="43.04996" lon="0.13982">
        <ele>773.931</ele>
        <time>2019-12-11T00:11:14Z</time>
      </trkpt>
      <trkpt lat="43.05012" lon="0.13928">
        <ele>778.361</ele>
        <time>2019-12-11T00:11:34Z</time>
      </trkpt>
      <trkpt lat="43.05034" lon="0.13898">
        <ele>785.107</ele>
        <time>2019-12-11T00:11:54Z</time>
      </trkpt>
      <trkpt lat="43.05068" lon="0.13905">
        <ele>782.608</ele>
        <time>2019-12-11T00:12:14Z</time>
      </trkpt>
      <trkpt lat="43.05098" lon="0.13881">
        <ele>784.779</ele>
        <time>2019-12-11T00:12:34Z</time>
      </trkpt>
      <trkpt lat="43.05138" lon="0.13815">
        <ele>792.878</ele>
        <time>2019-12-11T00:12:54Z</time>
      </trkpt>
      <trkpt lat="43.05174" lon="0.13764">
        <ele>794.454</ele>
        <time>2019-12-11T00:13:14Z</time>
      </trkpt>
      <trkpt lat="43.05245" lon="0.13557">
        <ele>802.42</ele>
        <time>2019-12-11T00:13:34Z</time>
      </trkpt>
      <trkpt lat="43.05227" lon="0.13442">
        <ele>806.671</ele>
        <time>2019-12-11T00:13:54Z</time>
      </trkpt>
      <trkpt lat="43.05199" lon="0.13551">
        <ele>816.663</ele>
        <time>2019-12-11T00:14:14Z</time>
      </trkpt>
      <trkpt lat="43.05145" lon="0.13661">
        <ele>826.556</ele>
        <time>2019-12-11T00:14:34Z</time>
      </trkpt>
      <trkpt lat="43.05146" lon="0.13558">
        <ele>831.358</ele>
        <time>2019-12-11T00:14:54Z</time>
      </trkpt>
      <trkpt lat="43.05126" lon="0.13506">
        <ele>832.617</ele>
        <time>2019-12-11T00:15:14Z</time>
      </trkpt>
      <trkpt lat="43.05092" lon="0.1349">
        <ele>834.787</ele>
        <time>2019-12-11T00:15:34Z</time>
      </trkpt>
      <trkpt lat="43.05021" lon="0.13572">
        <ele>853.915</ele>
        <time>2019-12-11T00:15:54Z</time>
      </trkpt>
      <trkpt lat="43.04992" lon="0.1359">
        <ele>859.508</ele>
        <time>2019-12-11T00:16:14Z</time>
      </trkpt>
      <trkpt lat="43.04968" lon="0.1353">
        <ele>863.557</ele>
        <time>2019-12-11T00:16:34Z</time>
      </trkpt>
      <trkpt lat="43.04924" lon="0.13614">
        <ele>875.116</ele>
        <time>2019-12-11T00:16:54Z</time>
      </trkpt>
      <trkpt lat="43.04847" lon="0.13684">
        <ele>891.892</ele>
        <time>2019-12-11T00:17:14Z</time>
      </trkpt>
      <trkpt lat="43.0481" lon="0.13741">
        <ele>892.168</ele>
        <time>2019-12-11T00:17:34Z</time>
      </trkpt>
      <trkpt lat="43.04778" lon="0.13754">
        <ele>901.059</ele>
        <time>2019-12-11T00:17:54Z</time>
      </trkpt>
      <trkpt lat="43.04806" lon="0.13701">
        <ele>905.231</ele>
        <time>2019-12-11T00:18:14Z</time>
      </trkpt>
      <trkpt lat="43.0477" lon="0.13717">
        <ele>911.354</ele>
        <time>2019-12-11T00:18:34Z</time>
      </trkpt>
      <trkpt lat="43.04808" lon="0.13637">
        <ele>925.086</ele>
        <time>2019-12-11T00:18:54Z</time>
      </trkpt>
      <trkpt lat="43.04769" lon="0.13621">
        <ele>933.067</ele>
        <time>2019-12-11T00:19:14Z</time>
      </trkpt>
      <trkpt lat="43.04699" lon="0.13706">
        <ele>932.781</ele>
        <time>2019-12-11T00:19:34Z</time>
      </trkpt>
      <trkpt lat="43.04631" lon="0.13708">
        <ele>945.519</ele>
        <time>2019-12-11T00:19:54Z</time>
      </trkpt>
      <trkpt lat="43.04601" lon="0.13687">
        <ele>951.108</ele>
        <time>2019-12-11T00:20:14Z</time>
      </trkpt>
      <trkpt lat="43.04527" lon="0.13699">
        <ele>962.282</ele>
        <time>2019-12-11T00:20:34Z</time>
      </trkpt>
      <trkpt lat="43.04501" lon="0.13694">
        <ele>968.621</ele>
        <time>2019-12-11T00:20:54Z</time>
      </trkpt>
      <trkpt lat="43.04481" lon="0.13717">
        <ele>971.247</ele>
        <time>2019-12-11T00:21:14Z</time>
      </trkpt>
      <trkpt lat="43.04405" lon="0.13872">
        <ele>994.923</ele>
        <time>2019-12-11T00:21:34Z</time>
      </trkpt>
      <trkpt lat="43.04359" lon="0.13928">
        <ele>1002.744</ele>
        <time>2019-12-11T00:21:54Z</time>
      </trkpt>
      <trkpt lat="43.0431" lon="0.13942">
        <ele>1015.766</ele>
        <time>2019-12-11T00:22:14Z</time>
      </trkpt>
      <trkpt lat="43.04276" lon="0.13987">
        <ele>1020.239</ele>
        <time>2019-12-11T00:22:34Z</time>
      </trkpt>
      <trkpt lat="43.04194" lon="0.14109">
        <ele>1034.671</ele>
        <time>2019-12-11T00:22:54Z</time>
      </trkpt>
      <trkpt lat="43.04135" lon="0.1417">
        <ele>1041.974</ele>
        <time>2019-12-11T00:23:14Z</time>
      </trkpt>
      <trkpt lat="43.0408" lon="0.14212">
        <ele>1051.456</ele>
        <time>2019-12-11T00:23:34Z</time>
      </trkpt>
      <trkpt lat="43.04001" lon="0.14311">
        <ele>1064.521</ele>
        <time>2019-12-11T00:23:54Z</time>
      </trkpt>
      <trkpt lat="43.03916" lon="0.14304">
        <ele>1076.608</ele>
        <time>2019-12-11T00:24:14Z</time>
      </trkpt>
      <trkpt lat="43.03829" lon="0.14242">
        <ele>1098.723</ele>
        <time>2019-12-11T00:24:34Z</time>
      </trkpt>
      <trkpt lat="43.03769" lon="0.14245">
        <ele>1100.222</ele>
        <time>2019-12-11T00:24:54Z</time>
      </trkpt>
      <trkpt lat="43.03752" lon="0.14228">
        <ele>1101.488</ele>
        <time>2019-12-11T00:25:14Z</time>
      </trkpt>
      <trkpt lat="43.03746" lon="0.14163">
        <ele>1105.734</ele>
        <time>2019-12-11T00:25:34Z</time>
      </trkpt>
      <trkpt lat="43.03751" lon="0.14029">
        <ele>1105.435</ele>
        <time>2019-12-11T00:25:54Z</time>
      </trkpt>
      <trkpt lat="43.03744" lon="0.13877">
        <ele>1111.277</ele>
        <time>2019-12-11T00:26:14Z</time>
      </trkpt>
      <trkpt lat="43.03756" lon="0.13815">
        <ele>1110.25</ele>
        <time>2019-12-11T00:26:34Z</time>
      </trkpt>
      <trkpt lat="43.03754" lon="0.13762">
        <ele>1116.542</ele>
        <time>2019-12-11T00:26:54Z</time>
      </trkpt>
      <trkpt lat="43.0374" lon="0.13708">
        <ele>1123.012</ele>
        <time>2019-12-11T00:27:14Z</time>
      </trkpt>
      <trkpt lat="43.03755" lon="0.13649">
        <ele>1110.332</ele>
        <time>2019-12-11T00:27:34Z</time>
      </trkpt>
      <trkpt lat="43.0375" lon="0.13583">
        <ele>1099.905</ele>
        <time>2019-12-11T00:27:54Z</time>
      </trkpt>
      <trkpt lat="43.03703" lon="0.1352">
        <ele>1105.408</ele>
        <time>2019-12-11T00:28:14Z</time>
      </trkpt>
      <trkpt lat="43.03686" lon="0.13466">
        <ele>1105.997</ele>
        <time>2019-12-11T00:28:34Z</time>
      </trkpt>
      <trkpt lat="43.0373" lon="0.13367">
        <ele>1101.436</ele>
        <time>2019-12-11T00:28:54Z</time>
      </trkpt>
      <trkpt lat="43.03742" lon="0.13232">
        <ele>1103.592</ele>
        <time>2019-12-11T00:29:14Z</time>
      </trkpt>
      <trkpt lat="43.03713" lon="0.13164">
        <ele>1102.948</ele>
        <time>2019-12-11T00:29:34Z</time>
      </trkpt>
      <trkpt lat="43.03619" lon="0.13056">
        <ele>1098.189</ele>
        <time>2019-12-11T00:29:54Z</time>
      </trkpt>
      <trkpt lat="43.0358" lon="0.12987">
        <ele>1096.871</ele>
        <time>2019-12-11T00:30:14Z</time>
      </trkpt>
      <trkpt lat="43.03579" lon="0.12933">
        <ele>1093.644</ele>
        <time>2019-12-11T00:30:34Z</time>
      </trkpt>
      <trkpt lat="43.03597" lon="0.12847">
        <ele>1088.836</ele>
        <time>2019-12-11T00:30:54Z</time>
      </trkpt>
      <trkpt lat="43.03619" lon="0.128">
        <ele>1084.371</ele>
        <time>2019-12-11T00:31:14Z</time>
      </trkpt>
      <trkpt lat="43.0367" lon="0.12678">
        <ele>1080.041</ele>
        <time>2019-12-11T00:31:34Z</time>
      </trkpt>
      <trkpt lat="43.03698" lon="0.12495">
        <ele>1081.915</ele>
        <time>2019-12-11T00:31:54Z</time>
      </trkpt>
      <trkpt lat="43.03666" lon="0.12354">
        <ele>1084.908</ele>
        <time>2019-12-11T00:32:14Z</time>
      </trkpt>
      <trkpt lat="43.03665" lon="0.12276">
        <ele>1084.173</ele>
        <time>2019-12-11T00:32:34Z</time>
      </trkpt>
      <trkpt lat="43.03686" lon="0.12166">
        <ele>1082.252</ele>
        <time>2019-12-11T00:32:54Z</time>
      </trkpt>
      <trkpt lat="43.03705" lon="0.12127">
        <ele>1083.168</ele>
        <time>2019-12-11T00:33:14Z</time>
      </trkpt>
      <trkpt lat="43.03712" lon="0.12063">
        <ele>1076.784</ele>
        <time>2019-12-11T00:33:34Z</time>
      </trkpt>
      <trkpt lat="43.03745" lon="0.11967">
        <ele>1069.745</ele>
        <time>2019-12-11T00:33:54Z</time>
      </trkpt>
      <trkpt lat="43.03766" lon="0.11948">
        <ele>1069.167</ele>
        <time>2019-12-11T00:34:14Z</time>
      </trkpt>
      <trkpt lat="43.03695" lon="0.11735">
        <ele>1063.65</ele>
        <time>2019-12-11T00:34:34Z</time>
      </trkpt>
      <trkpt lat="43.03634" lon="0.11446">
        <ele>1046.922</ele>
        <time>2019-12-11T00:34:54Z</time>
      </trkpt>
      <trkpt lat="43.03586" lon="0.11158">
        <ele>1034.968</ele>
        <time>2019-12-11T00:35:14Z</time>
      </trkpt>
      <trkpt lat="43.03558" lon="0.1113">
        <ele>1033.442</ele>
        <time>2019-12-11T00:35:34Z</time>
      </trkpt>
      <trkpt lat="43.0353" lon="0.11069">
        <ele>1033.226</ele>
        <time>2019-12-11T00:35:54Z</time>
      </trkpt>
      <trkpt lat="43.03554" lon="0.11012">
        <ele>1041.208</ele>
        <time>2019-12-11T00:36:14Z</time>
      </trkpt>
      <trkpt lat="43.03561" lon="0.10886">
        <ele>1049.882</ele>
        <time>2019-12-11T00:36:34Z</time>
      </trkpt>
      <trkpt lat="43.03621" lon="0.10726">
        <ele>1049.261</ele>
        <time>2019-12-11T00:36:54Z</time>
      </trkpt>
      <trkpt lat="43.03629" lon="0.10691">
        <ele>1052.257</ele>
        <time>2019-12-11T00:37:14Z</time>
      </trkpt>
      <trkpt lat="43.03653" lon="0.1067">
        <ele>1050.013</ele>
        <time>2019-12-11T00:37:34Z</time>
      </trkpt>
      <trkpt lat="43.03686" lon="0.10656">
        <ele>1044.194</ele>
        <time>2019-12-11T00:37:54Z</time>
      </trkpt>
      <trkpt lat="43.03707" lon="0.10608">
        <ele>1043.886</ele>
        <time>2019-12-11T00:38:14Z</time>
      </trkpt>
      <trkpt lat="43.03746" lon="0.1044">
        <ele>1042.029</ele>
        <time>2019-12-11T00:38:34Z</time>
      </trkpt>
      <trkpt lat="43.03769" lon="0.10381">
        <ele>1036.791</ele>
        <time>2019-12-11T00:38:54Z</time>
      </trkpt>
      <trkpt lat="43.03811" lon="0.10311">
        <ele>1030.429</ele>
        <time>2019-12-11T00:39:14Z</time>
      </trkpt>
      <trkpt lat="43.03829" lon="0.10242">
        <ele>1024.6</ele>
        <time>2019-12-11T00:39:34Z</time>
      </trkpt>
      <trkpt lat="43.03847" lon="0.10074">
        <ele>1008.22</ele>
        <time>2019-12-11T00:39:54Z</time>
      </trkpt>
      <trkpt lat="43.0383" lon="0.09632">
        <ele>961.208</ele>
        <time>2019-12-11T00:40:14Z</time>
      </trkpt>
      <trkpt lat="43.03835" lon="0.09578">
        <ele>959.118</ele>
        <time>2019-12-11T00:40:34Z</time>
      </trkpt>
      <trkpt lat="43.03816" lon="0.09548">
        <ele>959.667</ele>
        <time>2019-12-11T00:40:54Z</time>
      </trkpt>
      <trkpt lat="43.03774" lon="0.09536">
        <ele>951.853</ele>
        <time>2019-12-11T00:41:14Z</time>
      </trkpt>
      <trkpt lat="43.03746" lon="0.09497">
        <ele>949.359</ele>
        <time>2019-12-11T00:41:34Z</time>
      </trkpt>
      <trkpt lat="43.03686" lon="0.09449">
        <ele>941.65</ele>
        <time>2019-12-11T00:41:54Z</time>
      </trkpt>
      <trkpt lat="43.0363" lon="0.09381">
        <ele>937.882</ele>
        <time>2019-12-11T00:42:14Z</time>
      </trkpt>
      <trkpt lat="43.03601" lon="0.09278">
        <ele>938.285</ele>
        <time>2019-12-11T00:42:34Z</time>
      </trkpt>
      <trkpt lat="43.0356" lon="0.09168">
        <ele>938.637</ele>
        <time>2019-12-11T00:42:54Z</time>
      </trkpt>
      <trkpt lat="43.03534" lon="0.09134">
        <ele>937.838</ele>
        <time>2021-02-06T15:39:51Z</time>
      </trkpt>
      <trkpt lat="43.03532" lon="0.09107">
        <ele>937.97</ele>
        <time>2021-02-06T15:40:11Z</time>
      </trkpt>
      <trkpt lat="43.0362" lon="0.09046">
        <ele>923.517</ele>
        <time>2021-02-06T15:40:31Z</time>
      </trkpt>
      <trkpt lat="43.03692" lon="0.09069">
        <ele>923.608</ele>
        <time>2021-02-06T15:40:51Z</time>
      </trkpt>
      <trkpt lat="43.03786" lon="0.09048">
        <ele>901.279</ele>
        <time>2021-02-06T15:41:11Z</time>
      </trkpt>
      <trkpt lat="43.03834" lon="0.09076">
        <ele>901.418</ele>
        <time>2021-02-06T15:41:31Z</time>
      </trkpt>
      <trkpt lat="43.0386" lon="0.09078">
        <ele>899.784</ele>
        <time>2021-02-06T15:41:51Z</time>
      </trkpt>
      <trkpt lat="43.03892" lon="0.09068">
        <ele>894.11</ele>
        <time>2021-02-06T15:42:11Z</time>
      </trkpt>
      <trkpt lat="43.03919" lon="0.09065">
        <ele>892.241</ele>
        <time>2021-02-06T15:42:31Z</time>
      </trkpt>
      <trkpt lat="43.03947" lon="0.09043">
        <ele>894.243</ele>
        <time>2021-02-06T15:42:51Z</time>
      </trkpt>
      <trkpt lat="43.03962" lon="0.09007">
        <ele>889.286</ele>
        <time>2021-02-06T15:43:11Z</time>
      </trkpt>
      <trkpt lat="43.03969" lon="0.08959">
        <ele>879.758</ele>
        <time>2021-02-06T15:43:31Z</time>
      </trkpt>
      <trkpt lat="43.03983" lon="0.08934">
        <ele>878.986</ele>
        <time>2021-02-06T15:43:51Z</time>
      </trkpt>
      <trkpt lat="43.04003" lon="0.08916">
        <ele>882.66</ele>
        <time>2021-02-06T15:44:11Z</time>
      </trkpt>
      <trkpt lat="43.04001" lon="0.08901">
        <ele>882.826</ele>
        <time>2021-02-06T15:44:31Z</time>
      </trkpt>
      <trkpt lat="43.03978" lon="0.08843">
        <ele>874.308</ele>
        <time>2021-02-06T15:44:51Z</time>
      </trkpt>
      <trkpt lat="43.03969" lon="0.08802">
        <ele>877.684</ele>
        <time>2021-02-06T15:45:11Z</time>
      </trkpt>
      <trkpt lat="43.03875" lon="0.08726">
        <ele>842.623</ele>
        <time>2021-02-06T15:45:31Z</time>
      </trkpt>
      <trkpt lat="43.03871" lon="0.08662">
        <ele>842.649</ele>
        <time>2021-02-06T15:45:51Z</time>
      </trkpt>
      <trkpt lat="43.03886" lon="0.0854">
        <ele>834.015</ele>
        <time>2021-02-06T15:46:11Z</time>
      </trkpt>
      <trkpt lat="43.0392" lon="0.0839">
        <ele>823.486</ele>
        <time>2021-02-06T15:46:31Z</time>
      </trkpt>
      <trkpt lat="43.03993" lon="0.0814">
        <ele>798.838</ele>
        <time>2021-02-06T15:46:51Z</time>
      </trkpt>
      <trkpt lat="43.04052" lon="0.08002">
        <ele>790.591</ele>
        <time>2021-02-06T15:47:11Z</time>
      </trkpt>
      <trkpt lat="43.0412" lon="0.07887">
        <ele>791.083</ele>
        <time>2021-02-06T15:47:31Z</time>
      </trkpt>
      <trkpt lat="43.04112" lon="0.07882">
        <ele>773.277</ele>
        <time>2019-12-11T00:49:14Z</time>
      </trkpt>
      <trkpt lat="43.04093" lon="0.07901">
        <ele>770.961</ele>
        <time>2019-12-11T00:49:34Z</time>
      </trkpt>
      <trkpt lat="43.04042" lon="0.07929">
        <ele>759.227</ele>
        <time>2019-12-11T00:49:54Z</time>
      </trkpt>
      <trkpt lat="43.04012" lon="0.07957">
        <ele>756.908</ele>
        <time>2019-12-11T00:50:14Z</time>
      </trkpt>
      <trkpt lat="43.04067" lon="0.07793">
        <ele>735.893</ele>
        <time>2019-12-11T00:50:34Z</time>
      </trkpt>
      <trkpt lat="43.04065" lon="0.0769">
        <ele>724.872</ele>
        <time>2019-12-11T00:50:54Z</time>
      </trkpt>
      <trkpt lat="43.04099" lon="0.07469">
        <ele>705.348</ele>
        <time>2019-12-11T00:51:14Z</time>
      </trkpt>
      <trkpt lat="43.041" lon="0.07406">
        <ele>695.094</ele>
        <time>2019-12-11T00:51:34Z</time>
      </trkpt>
      <trkpt lat="43.04067" lon="0.07329">
        <ele>671.865</ele>
        <time>2019-12-11T00:51:54Z</time>
      </trkpt>
      <trkpt lat="43.04058" lon="0.07287">
        <ele>668.787</ele>
        <time>2019-12-11T00:52:14Z</time>
      </trkpt>
      <trkpt lat="43.03993" lon="0.07247">
        <ele>651.32</ele>
        <time>2019-12-11T00:52:34Z</time>
      </trkpt>
      <trkpt lat="43.04003" lon="0.07232">
        <ele>651.422</ele>
        <time>2019-12-11T00:52:54Z</time>
      </trkpt>
      <trkpt lat="43.03991" lon="0.07231">
        <ele>649.116</ele>
        <time>2019-12-11T00:53:14Z</time>
      </trkpt>
      <trkpt lat="43.03995" lon="0.0722">
        <ele>648.576</ele>
        <time>2019-12-11T00:53:34Z</time>
      </trkpt>
      <trkpt lat="43.04011" lon="0.07204">
        <ele>646.113</ele>
        <time>2019-12-11T00:53:54Z</time>
      </trkpt>
      <trkpt lat="43.03971" lon="0.07209">
        <ele>640.108</ele>
        <time>2019-12-11T00:54:14Z</time>
      </trkpt>
      <trkpt lat="43.03945" lon="0.07248">
        <ele>634.947</ele>
        <time>2019-12-11T00:54:34Z</time>
      </trkpt>
      <trkpt lat="43.03936" lon="0.07275">
        <ele>632.596</ele>
        <time>2019-12-11T00:54:54Z</time>
      </trkpt>
      <trkpt lat="43.03924" lon="0.07282">
        <ele>632.332</ele>
        <time>2019-12-11T00:55:14Z</time>
      </trkpt>
      <trkpt lat="43.03907" lon="0.07275">
        <ele>630.688</ele>
        <time>2019-12-11T00:55:34Z</time>
      </trkpt>
      <trkpt lat="43.03885" lon="0.073">
        <ele>632.119</ele>
        <time>2019-12-11T00:55:54Z</time>
      </trkpt>
      <trkpt lat="43.03859" lon="0.07296">
        <ele>631.021</ele>
        <time>2019-12-11T00:56:14Z</time>
      </trkpt>
      <trkpt lat="43.03867" lon="0.07228">
        <ele>636.414</ele>
        <time>2019-12-11T00:56:34Z</time>
      </trkpt>
      <trkpt lat="43.0391" lon="0.07185">
        <ele>632.476</ele>
        <time>2019-12-11T00:56:54Z</time>
      </trkpt>
      <trkpt lat="43.03973" lon="0.0712">
        <ele>629.051</ele>
        <time>2019-12-11T00:57:14Z</time>
      </trkpt>
      <trkpt lat="43.04059" lon="0.07071">
        <ele>626.101</ele>
        <time>2019-12-11T00:57:34Z</time>
      </trkpt>
      <trkpt lat="43.04158" lon="0.07033">
        <ele>625.511</ele>
        <time>2019-12-11T00:57:54Z</time>
      </trkpt>
      <trkpt lat="43.04202" lon="0.07028">
        <ele>622.508</ele>
        <time>2019-12-11T00:58:14Z</time>
      </trkpt>
      <trkpt lat="43.04259" lon="0.06995">
        <ele>634.761</ele>
        <time>2019-12-11T00:58:34Z</time>
      </trkpt>
      <trkpt lat="43.0431" lon="0.06993">
        <ele>630.48</ele>
        <time>2019-12-11T00:58:54Z</time>
      </trkpt>
      <trkpt lat="43.04344" lon="0.06956">
        <ele>635.866</ele>
        <time>2019-12-11T00:59:14Z</time>
      </trkpt>
      <trkpt lat="43.04445" lon="0.06911">
        <ele>623.942</ele>
        <time>2019-12-11T00:59:34Z</time>
      </trkpt>
      <trkpt lat="43.04501" lon="0.0688">
        <ele>613.243</ele>
        <time>2019-12-11T00:59:54Z</time>
      </trkpt>
      <trkpt lat="43.04586" lon="0.0688">
        <ele>612.485</ele>
        <time>2019-12-11T01:00:14Z</time>
      </trkpt>
      <trkpt lat="43.0463" lon="0.06869">
        <ele>613.068</ele>
        <time>2019-12-11T01:00:34Z</time>
      </trkpt>
      <trkpt lat="43.04699" lon="0.06838">
        <ele>614.04</ele>
        <time>2019-12-11T01:00:54Z</time>
      </trkpt>
      <trkpt lat="43.04751" lon="0.06873">
        <ele>609.628</ele>
        <time>2019-12-11T01:01:14Z</time>
      </trkpt>
      <trkpt lat="43.048" lon="0.06867">
        <ele>609.889</ele>
        <time>2019-12-11T01:01:34Z</time>
      </trkpt>
      <trkpt lat="43.04843" lon="0.06878">
        <ele>606.617</ele>
        <time>2019-12-11T01:01:54Z</time>
      </trkpt>
      <trkpt lat="43.04849" lon="0.06787">
        <ele>620.008</ele>
        <time>2019-12-11T01:02:14Z</time>
      </trkpt>
      <trkpt lat="43.04845" lon="0.06629">
        <ele>637.688</ele>
        <time>2019-12-11T01:02:34Z</time>
      </trkpt>
      <trkpt lat="43.04831" lon="0.06548">
        <ele>646.967</ele>
        <time>2019-12-11T01:02:54Z</time>
      </trkpt>
      <trkpt lat="43.0484" lon="0.06428">
        <ele>655.853</ele>
        <time>2019-12-11T01:03:14Z</time>
      </trkpt>
      <trkpt lat="43.04855" lon="0.06339">
        <ele>673.639</ele>
        <time>2021-02-06T16:02:11Z</time>
      </trkpt>
      <trkpt lat="43.04844" lon="0.06279">
        <ele>676.84</ele>
        <time>2021-02-06T16:02:31Z</time>
      </trkpt>
      <trkpt lat="43.04757" lon="0.06098">
        <ele>702.012</ele>
        <time>2021-02-06T16:02:51Z</time>
      </trkpt>
      <trkpt lat="43.04739" lon="0.05997">
        <ele>702.555</ele>
        <time>2021-02-06T16:03:11Z</time>
      </trkpt>
      <trkpt lat="43.04713" lon="0.0593">
        <ele>708.757</ele>
        <time>2021-02-06T16:03:31Z</time>
      </trkpt>
      <trkpt lat="43.04725" lon="0.05895">
        <ele>711.463</ele>
        <time>2021-02-06T16:03:51Z</time>
      </trkpt>
      <trkpt lat="43.04747" lon="0.05896">
        <ele>711.544</ele>
        <time>2021-02-06T16:04:11Z</time>
      </trkpt>
      <trkpt lat="43.04776" lon="0.05931">
        <ele>716.218</ele>
        <time>2021-02-06T16:04:31Z</time>
      </trkpt>
      <trkpt lat="43.04847" lon="0.06044">
        <ele>721.008</ele>
        <time>2021-02-06T16:04:51Z</time>
      </trkpt>
      <trkpt lat="43.04907" lon="0.0611">
        <ele>721.232</ele>
        <time>2021-02-06T16:05:11Z</time>
      </trkpt>
      <trkpt lat="43.04928" lon="0.06114">
        <ele>725.031</ele>
        <time>2021-02-06T16:05:31Z</time>
      </trkpt>
      <trkpt lat="43.04959" lon="0.06092">
        <ele>734.287</ele>
        <time>2021-02-06T16:05:51Z</time>
      </trkpt>
      <trkpt lat="43.04978" lon="0.06047">
        <ele>746.313</ele>
        <time>2021-02-06T16:06:11Z</time>
      </trkpt>
      <trkpt lat="43.05006" lon="0.06055">
        <ele>747.734</ele>
        <time>2021-02-06T16:06:31Z</time>
      </trkpt>
      <trkpt lat="43.0502" lon="0.06082">
        <ele>747.836</ele>
        <time>2021-02-06T16:06:51Z</time>
      </trkpt>
      <trkpt lat="43.05031" lon="0.06071">
        <ele>753.459</ele>
        <time>2021-02-06T16:07:11Z</time>
      </trkpt>
      <trkpt lat="43.05028" lon="0.06038">
        <ele>757.571</ele>
        <time>2021-02-06T16:07:31Z</time>
      </trkpt>
      <trkpt lat="43.05016" lon="0.06">
        <ele>760.965</ele>
        <time>2021-02-06T16:07:51Z</time>
      </trkpt>
      <trkpt lat="43.05025" lon="0.05998">
        <ele>763.668</ele>
        <time>2021-02-06T16:08:11Z</time>
      </trkpt>
      <trkpt lat="43.05051" lon="0.06039">
        <ele>764.214</ele>
        <time>2021-02-06T16:08:31Z</time>
      </trkpt>
      <trkpt lat="43.05071" lon="0.06112">
        <ele>767.608</ele>
        <time>2021-02-06T16:08:51Z</time>
      </trkpt>
      <trkpt lat="43.0508" lon="0.06102">
        <ele>770.922</ele>
        <time>2021-02-06T16:09:11Z</time>
      </trkpt>
      <trkpt lat="43.05103" lon="0.06013">
        <ele>770.451</ele>
        <time>2019-12-11T01:09:54Z</time>
      </trkpt>
      <trkpt lat="43.05126" lon="0.05964">
        <ele>780.397</ele>
        <time>2019-12-11T01:10:14Z</time>
      </trkpt>
      <trkpt lat="43.0514" lon="0.05968">
        <ele>782.033</ele>
        <time>2019-12-11T01:10:34Z</time>
      </trkpt>
      <trkpt lat="43.05141" lon="0.0602">
        <ele>786.134</ele>
        <time>2019-12-11T01:10:54Z</time>
      </trkpt>
      <trkpt lat="43.05147" lon="0.06024">
        <ele>789.776</ele>
        <time>2019-12-11T01:11:14Z</time>
      </trkpt>
      <trkpt lat="43.05171" lon="0.05994">
        <ele>795.679</ele>
        <time>2019-12-11T01:11:34Z</time>
      </trkpt>
      <trkpt lat="43.05199" lon="0.0597">
        <ele>805.241</ele>
        <time>2019-12-11T01:11:54Z</time>
      </trkpt>
      <trkpt lat="43.05197" lon="0.05924">
        <ele>813.211</ele>
        <time>2019-12-11T01:12:14Z</time>
      </trkpt>
      <trkpt lat="43.0516" lon="0.05888">
        <ele>815.221</ele>
        <time>2019-12-11T01:12:34Z</time>
      </trkpt>
      <trkpt lat="43.05128" lon="0.05841">
        <ele>824.103</ele>
        <time>2019-12-11T01:12:54Z</time>
      </trkpt>
      <trkpt lat="43.05108" lon="0.05816">
        <ele>827.208</ele>
        <time>2019-12-11T01:13:14Z</time>
      </trkpt>
      <trkpt lat="43.05132" lon="0.05815">
        <ele>832.487</ele>
        <time>2019-12-11T01:13:34Z</time>
      </trkpt>
      <trkpt lat="43.05173" lon="0.05827">
        <ele>837.716</ele>
        <time>2019-12-11T01:13:54Z</time>
      </trkpt>
      <trkpt lat="43.05201" lon="0.05848">
        <ele>839.522</ele>
        <time>2019-12-11T01:14:14Z</time>
      </trkpt>
      <trkpt lat="43.05271" lon="0.05865">
        <ele>852.518</ele>
        <time>2019-12-11T01:14:34Z</time>
      </trkpt>
      <trkpt lat="43.05296" lon="0.05839">
        <ele>856.319</ele>
        <time>2019-12-11T01:14:54Z</time>
      </trkpt>
      <trkpt lat="43.05326" lon="0.05799">
        <ele>853.581</ele>
        <time>2019-12-11T01:15:14Z</time>
      </trkpt>
      <trkpt lat="43.05296" lon="0.05769">
        <ele>853.194</ele>
        <time>2019-12-11T01:15:34Z</time>
      </trkpt>
      <trkpt lat="43.05247" lon="0.05719">
        <ele>857.086</ele>
        <time>2019-12-11T01:15:54Z</time>
      </trkpt>
      <trkpt lat="43.05166" lon="0.05661">
        <ele>868.882</ele>
        <time>2019-12-11T01:16:14Z</time>
      </trkpt>
      <trkpt lat="43.05141" lon="0.05668">
        <ele>868.043</ele>
        <time>2021-02-06T16:16:11Z</time>
      </trkpt>
      <trkpt lat="43.05126" lon="0.056">
        <ele>871.317</ele>
        <time>2021-02-06T16:16:31Z</time>
      </trkpt>
      <trkpt lat="43.05104" lon="0.0556">
        <ele>878.408</ele>
        <time>2021-02-06T16:16:51Z</time>
      </trkpt>
      <trkpt lat="43.0506" lon="0.05559">
        <ele>874.684</ele>
        <time>2021-02-06T16:17:11Z</time>
      </trkpt>
      <trkpt lat="43.04997" lon="0.05431">
        <ele>887.273</ele>
        <time>2021-02-06T16:17:31Z</time>
      </trkpt>
      <trkpt lat="43.04926" lon="0.05325">
        <ele>889.099</ele>
        <time>2019-12-11T01:17:54Z</time>
      </trkpt>
      <trkpt lat="43.0488" lon="0.05288">
        <ele>896.865</ele>
        <time>2019-12-11T01:18:14Z</time>
      </trkpt>
      <trkpt lat="43.04822" lon="0.05363">
        <ele>895.986</ele>
        <time>2019-12-11T01:18:34Z</time>
      </trkpt>
      <trkpt lat="43.04752" lon="0.05374">
        <ele>903.328</ele>
        <time>2019-12-11T01:18:54Z</time>
      </trkpt>
      <trkpt lat="43.04729" lon="0.05351">
        <ele>903.641</ele>
        <time>2019-12-11T01:19:14Z</time>
      </trkpt>
      <trkpt lat="43.04689" lon="0.05271">
        <ele>908.653</ele>
        <time>2019-12-11T01:19:34Z</time>
      </trkpt>
      <trkpt lat="43.04584" lon="0.05154">
        <ele>919.726</ele>
        <time>2019-12-11T01:19:54Z</time>
      </trkpt>
      <trkpt lat="43.04489" lon="0.05009">
        <ele>940.547</ele>
        <time>2019-12-11T01:20:14Z</time>
      </trkpt>
      <trkpt lat="43.04461" lon="0.04964">
        <ele>946.211</ele>
        <time>2019-12-11T01:20:34Z</time>
      </trkpt>
      <trkpt lat="43.04428" lon="0.04924">
        <ele>948.708</ele>
        <time>2019-12-11T01:20:54Z</time>
      </trkpt>
      <trkpt lat="43.04403" lon="0.04879">
        <ele>948.258</ele>
        <time>2019-12-11T01:21:14Z</time>
      </trkpt>
      <trkpt lat="43.0433" lon="0.04823">
        <ele>946.457</ele>
        <time>2019-12-11T01:21:34Z</time>
      </trkpt>
      <trkpt lat="43.04313" lon="0.04776">
        <ele>950.213</ele>
        <time>2019-12-11T01:21:54Z</time>
      </trkpt>
      <trkpt lat="43.04328" lon="0.04622">
        <ele>943.579</ele>
        <time>2019-12-11T01:22:14Z</time>
      </trkpt>
      <trkpt lat="43.04285" lon="0.04504">
        <ele>947.51</ele>
        <time>2019-12-11T01:22:34Z</time>
      </trkpt>
      <trkpt lat="43.04263" lon="0.04399">
        <ele>944.942</ele>
        <time>2019-12-11T01:22:54Z</time>
      </trkpt>
      <trkpt lat="43.04231" lon="0.04298">
        <ele>941.545</ele>
        <time>2019-12-11T01:23:14Z</time>
      </trkpt>
      <trkpt lat="43.04216" lon="0.04241">
        <ele>938.657</ele>
        <time>2019-12-11T01:23:34Z</time>
      </trkpt>
      <trkpt lat="43.04184" lon="0.04157">
        <ele>934.829</ele>
        <time>2019-12-11T01:23:54Z</time>
      </trkpt>
      <trkpt lat="43.04138" lon="0.04042">
        <ele>930.2</ele>
        <time>2019-12-11T01:24:14Z</time>
      </trkpt>
      <trkpt lat="43.04131" lon="0.03971">
        <ele>929.62</ele>
        <time>2019-12-11T01:24:34Z</time>
      </trkpt>
      <trkpt lat="43.04163" lon="0.03812">
        <ele>925.508</ele>
        <time>2019-12-11T01:24:54Z</time>
      </trkpt>
      <trkpt lat="43.04192" lon="0.03451">
        <ele>901.878</ele>
        <time>2019-12-11T01:25:14Z</time>
      </trkpt>
      <trkpt lat="43.04291" lon="0.0328">
        <ele>882.177</ele>
        <time>2019-12-11T01:25:34Z</time>
      </trkpt>
      <trkpt lat="43.04377" lon="0.03317">
        <ele>866.833</ele>
        <time>2019-12-11T01:25:54Z</time>
      </trkpt>
      <trkpt lat="43.04414" lon="0.03317">
        <ele>862.629</ele>
        <time>2019-12-11T01:26:14Z</time>
      </trkpt>
      <trkpt lat="43.04452" lon="0.03331">
        <ele>862.28</ele>
        <time>2019-12-11T01:26:34Z</time>
      </trkpt>
      <trkpt lat="43.04501" lon="0.03326">
        <ele>855.152</ele>
        <time>2019-12-11T01:26:54Z</time>
      </trkpt>
      <trkpt lat="43.04519" lon="0.03314">
        <ele>852.525</ele>
        <time>2019-12-11T01:27:14Z</time>
      </trkpt>
      <trkpt lat="43.0456" lon="0.0324">
        <ele>838.677</ele>
        <time>2019-12-11T01:27:34Z</time>
      </trkpt>
      <trkpt lat="43.04526" lon="0.03256">
        <ele>833.965</ele>
        <time>2019-12-11T01:27:54Z</time>
      </trkpt>
      <trkpt lat="43.04517" lon="0.03246">
        <ele>829.068</ele>
        <time>2019-12-11T01:28:14Z</time>
      </trkpt>
      <trkpt lat="43.04546" lon="0.03219">
        <ele>827.314</ele>
        <time>2019-12-11T01:28:34Z</time>
      </trkpt>
      <trkpt lat="43.04572" lon="0.03103">
        <ele>813.908</ele>
        <time>2019-12-11T01:28:54Z</time>
      </trkpt>
      <trkpt lat="43.04564" lon="0.02887">
        <ele>789.212</ele>
        <time>2019-12-11T01:29:14Z</time>
      </trkpt>
      <trkpt lat="43.04589" lon="0.0281">
        <ele>784.231</ele>
        <time>2019-12-11T01:29:34Z</time>
      </trkpt>
      <trkpt lat="43.04721" lon="0.02646">
        <ele>751.947</ele>
        <time>2019-12-11T01:29:54Z</time>
      </trkpt>
      <trkpt lat="43.04756" lon="0.02636">
        <ele>749.793</ele>
        <time>2019-12-11T01:30:14Z</time>
      </trkpt>
      <trkpt lat="43.04793" lon="0.02655">
        <ele>746.144</ele>
        <time>2019-12-11T01:30:34Z</time>
      </trkpt>
      <trkpt lat="43.0478" lon="0.02632">
        <ele>744.046</ele>
        <time>2019-12-11T01:30:54Z</time>
      </trkpt>
      <trkpt lat="43.04775" lon="0.0259">
        <ele>734.629</ele>
        <time>2019-12-11T01:31:14Z</time>
      </trkpt>
      <trkpt lat="43.048" lon="0.0262">
        <ele>732.481</ele>
        <time>2019-12-11T01:31:34Z</time>
      </trkpt>
      <trkpt lat="43.04885" lon="0.0269">
        <ele>719.785</ele>
        <time>2019-12-11T01:31:54Z</time>
      </trkpt>
      <trkpt lat="43.04914" lon="0.02699">
        <ele>711.989</ele>
        <time>2019-12-11T01:32:14Z</time>
      </trkpt>
      <trkpt lat="43.04947" lon="0.02718">
        <ele>711.617</ele>
        <time>2019-12-11T01:32:34Z</time>
      </trkpt>
      <trkpt lat="43.05001" lon="0.02728">
        <ele>704.608</ele>
        <time>2019-12-11T01:32:54Z</time>
      </trkpt>
      <trkpt lat="43.05" lon="0.02715">
        <ele>698.034</ele>
        <time>2019-12-11T01:33:14Z</time>
      </trkpt>
      <trkpt lat="43.04972" lon="0.02709">
        <ele>701.163</ele>
        <time>2019-12-11T01:33:34Z</time>
      </trkpt>
      <trkpt lat="43.04925" lon="0.0267">
        <ele>697.729</ele>
        <time>2019-12-11T01:33:54Z</time>
      </trkpt>
      <trkpt lat="43.04885" lon="0.02614">
        <ele>708.335</ele>
        <time>2021-02-06T16:34:11Z</time>
      </trkpt>
      <trkpt lat="43.04871" lon="0.02564">
        <ele>702.416</ele>
        <time>2021-02-06T16:34:31Z</time>
      </trkpt>
      <trkpt lat="43.04856" lon="0.02437">
        <ele>682.318</ele>
        <time>2021-02-06T16:34:51Z</time>
      </trkpt>
      <trkpt lat="43.04833" lon="0.02376">
        <ele>666.181</ele>
        <time>2019-12-11T01:35:14Z</time>
      </trkpt>
      <trkpt lat="43.04836" lon="0.0232">
        <ele>661.393</ele>
        <time>2021-02-06T16:35:31Z</time>
      </trkpt>
      <trkpt lat="43.04854" lon="0.02246">
        <ele>647.038</ele>
        <time>2021-02-06T16:35:51Z</time>
      </trkpt>
      <trkpt lat="43.0487" lon="0.02226">
        <ele>640.17</ele>
        <time>2019-12-11T01:36:54Z</time>
      </trkpt>
      <trkpt lat="43.04943" lon="0.02163">
        <ele>633.917</ele>
        <time>2019-12-11T01:37:14Z</time>
      </trkpt>
      <trkpt lat="43.0498" lon="0.02148">
        <ele>635.608</ele>
        <time>2019-12-11T01:37:34Z</time>
      </trkpt>
      <trkpt lat="43.05003" lon="0.02066">
        <ele>618.089</ele>
        <time>2019-12-11T01:37:54Z</time>
      </trkpt>
      <trkpt lat="43.0503" lon="0.02031">
        <ele>618.798</ele>
        <time>2019-12-11T01:38:14Z</time>
      </trkpt>
      <trkpt lat="43.05036" lon="0.01981">
        <ele>610.064</ele>
        <time>2019-12-11T01:38:34Z</time>
      </trkpt>
      <trkpt lat="43.05033" lon="0.01935">
        <ele>599.79</ele>
        <time>2019-12-11T01:38:54Z</time>
      </trkpt>
      <trkpt lat="43.05041" lon="0.01875">
        <ele>595.841</ele>
        <time>2019-12-11T01:39:14Z</time>
      </trkpt>
      <trkpt lat="43.05029" lon="0.01803">
        <ele>577.233</ele>
        <time>2019-12-11T01:39:34Z</time>
      </trkpt>
      <trkpt lat="43.05029" lon="0.01757">
        <ele>571.436</ele>
        <time>2019-12-11T01:39:54Z</time>
      </trkpt>
      <trkpt lat="43.05021" lon="0.01721">
        <ele>565.218</ele>
        <time>2019-12-11T01:40:14Z</time>
      </trkpt>
      <trkpt lat="43.05006" lon="0.01696">
        <ele>560.756</ele>
        <time>2019-12-11T01:40:34Z</time>
      </trkpt>
      <trkpt lat="43.05001" lon="0.01675">
        <ele>559.359</ele>
        <time>2019-12-11T01:40:54Z</time>
      </trkpt>
      <trkpt lat="43.05003" lon="0.01656">
        <ele>558.614</ele>
        <time>2019-12-11T01:41:14Z</time>
      </trkpt>
      <trkpt lat="43.05011" lon="0.01644">
        <ele>557.908</ele>
        <time>2019-12-11T01:41:34Z</time>
      </trkpt>
      <trkpt lat="43.05025" lon="0.01603">
        <ele>555.351</ele>
        <time>2019-12-11T01:41:54Z</time>
      </trkpt>
      <trkpt lat="43.05053" lon="0.01564">
        <ele>552.96</ele>
        <time>2019-12-11T01:42:14Z</time>
      </trkpt>
      <trkpt lat="43.05044" lon="0.01516">
        <ele>555.836</ele>
        <time>2019-12-11T01:42:34Z</time>
      </trkpt>
      <trkpt lat="43.05038" lon="0.0151">
        <ele>556.362</ele>
        <time>2019-12-11T01:42:54Z</time>
      </trkpt>
      <trkpt lat="43.05031" lon="0.01488">
        <ele>557.473</ele>
        <time>2019-12-11T01:43:14Z</time>
      </trkpt>
      <trkpt lat="43.05021" lon="0.01476">
        <ele>558.175</ele>
        <time>2019-12-11T01:43:34Z</time>
      </trkpt>
      <trkpt lat="43.05017" lon="0.01392">
        <ele>559.958</ele>
        <time>2019-12-11T01:43:54Z</time>
      </trkpt>
      <trkpt lat="43.05023" lon="0.0126">
        <ele>563.52</ele>
        <time>2019-12-11T01:44:14Z</time>
      </trkpt>
      <trkpt lat="43.05032" lon="0.01123">
        <ele>565.078</ele>
        <time>2019-12-11T01:44:34Z</time>
      </trkpt>
      <trkpt lat="43.05038" lon="0.0101">
        <ele>563.633</ele>
        <time>2019-12-11T01:44:54Z</time>
      </trkpt>
      <trkpt lat="43.05053" lon="0.00926">
        <ele>561.526</ele>
        <time>2019-12-11T01:45:14Z</time>
      </trkpt>
      <trkpt lat="43.05097" lon="0.00841">
        <ele>552.308</ele>
        <time>2019-12-11T01:45:34Z</time>
      </trkpt>
      <trkpt lat="43.05104" lon="0.00807">
        <ele>548.783</ele>
        <time>2019-12-11T01:45:54Z</time>
      </trkpt>
      <trkpt lat="43.051" lon="0.00761">
        <ele>542.262</ele>
        <time>2019-12-11T01:46:14Z</time>
      </trkpt>
      <trkpt lat="43.051" lon="0.00715">
        <ele>531.568</ele>
        <time>2019-12-11T01:46:34Z</time>
      </trkpt>
      <trkpt lat="43.05091" lon="0.00626">
        <ele>528.214</ele>
        <time>2019-12-11T01:46:54Z</time>
      </trkpt>
      <trkpt lat="43.05125" lon="0.00543">
        <ele>522.655</ele>
        <time>2019-12-11T01:47:14Z</time>
      </trkpt>
      <trkpt lat="43.05153" lon="0.00536">
        <ele>514.977</ele>
        <time>2019-12-11T01:47:34Z</time>
      </trkpt>
      <trkpt lat="43.05163" lon="0.00475">
        <ele>512.33</ele>
        <time>2019-12-11T01:47:54Z</time>
      </trkpt>
      <trkpt lat="43.05179" lon="0.00409">
        <ele>512.742</ele>
        <time>2019-12-11T01:48:14Z</time>
      </trkpt>
      <trkpt lat="43.05183" lon="0.00341">
        <ele>512.023</ele>
        <time>2019-12-11T01:48:34Z</time>
      </trkpt>
      <trkpt lat="43.05247" lon="0.00292">
        <ele>490.683</ele>
        <time>2019-12-11T01:48:54Z</time>
      </trkpt>
      <trkpt lat="43.05277" lon="0.00256">
        <ele>480.411</ele>
        <time>2019-12-11T01:49:14Z</time>
      </trkpt>
      <trkpt lat="43.05287" lon="0.0026">
        <ele>480.608</ele>
        <time>2019-12-11T01:49:34Z</time>
      </trkpt>
      <trkpt lat="43.05268" lon="0.00346">
        <ele>482.628</ele>
        <time>2019-12-11T01:49:54Z</time>
      </trkpt>
      <trkpt lat="43.05338" lon="0.00306">
        <ele>489.037</ele>
        <time>2019-12-11T01:50:14Z</time>
      </trkpt>
      <trkpt lat="43.05352" lon="0.00252">
        <ele>488.443</ele>
        <time>2019-12-11T01:50:34Z</time>
      </trkpt>
      <trkpt lat="43.05356" lon="0.00197">
        <ele>489.559</ele>
        <time>2019-12-11T01:50:54Z</time>
      </trkpt>
      <trkpt lat="43.05376" lon="0.00149">
        <ele>492.42</ele>
        <time>2019-12-11T01:51:14Z</time>
      </trkpt>
      <trkpt lat="43.0541" lon="0.00062">
        <ele>492.312</ele>
        <time>2019-12-11T01:51:34Z</time>
      </trkpt>
      <trkpt lat="43.05405" lon="0.00027">
        <ele>491.065</ele>
        <time>2019-12-11T01:51:54Z</time>
      </trkpt>
      <trkpt lat="43.05388" lon="-4.0E-5">
        <ele>487.427</ele>
        <time>2019-12-11T01:52:14Z</time>
      </trkpt>
      <trkpt lat="43.05397" lon="-0.00024">
        <ele>487.711</ele>
        <time>2019-12-11T01:52:34Z</time>
      </trkpt>
      <trkpt lat="43.05423" lon="-0.00027">
        <ele>492.421</ele>
        <time>2019-12-11T01:52:54Z</time>
      </trkpt>
      <trkpt lat="43.05456" lon="-0.001">
        <ele>501.803</ele>
        <time>2019-12-11T01:53:14Z</time>
      </trkpt>
      <trkpt lat="43.05455" lon="-0.00178">
        <ele>505.508</ele>
        <time>2019-12-11T01:53:34Z</time>
      </trkpt>
      <trkpt lat="43.05461" lon="-0.00354">
        <ele>515.587</ele>
        <time>2019-12-11T01:53:54Z</time>
      </trkpt>
      <trkpt lat="43.05496" lon="-0.00473">
        <ele>524.676</ele>
        <time>2019-12-11T01:54:14Z</time>
      </trkpt>
      <trkpt lat="43.05508" lon="-0.00554">
        <ele>522.792</ele>
        <time>2019-12-11T01:54:34Z</time>
      </trkpt>
      <trkpt lat="43.0555" lon="-0.00691">
        <ele>540.898</ele>
        <time>2019-12-11T01:54:54Z</time>
      </trkpt>
      <trkpt lat="43.05561" lon="-0.00764">
        <ele>549.959</ele>
        <time>2019-12-11T01:55:14Z</time>
      </trkpt>
      <trkpt lat="43.05561" lon="-0.00835">
        <ele>551.551</ele>
        <time>2019-12-11T01:55:34Z</time>
      </trkpt>
      <trkpt lat="43.05572" lon="-0.00884">
        <ele>556.834</ele>
        <time>2019-12-11T01:55:54Z</time>
      </trkpt>
      <trkpt lat="43.05571" lon="-0.00921">
        <ele>555.346</ele>
        <time>2019-12-11T01:56:14Z</time>
      </trkpt>
      <trkpt lat="43.05632" lon="-0.01061">
        <ele>572.095</ele>
        <time>2019-12-11T01:56:34Z</time>
      </trkpt>
      <trkpt lat="43.05673" lon="-0.01104">
        <ele>577.349</ele>
        <time>2019-12-11T01:56:54Z</time>
      </trkpt>
      <trkpt lat="43.05704" lon="-0.01112">
        <ele>581.123</ele>
        <time>2019-12-11T01:57:14Z</time>
      </trkpt>
      <trkpt lat="43.05764" lon="-0.01105">
        <ele>591.708</ele>
        <time>2019-12-11T01:57:34Z</time>
      </trkpt>
      <trkpt lat="43.05835" lon="-0.01125">
        <ele>600.845</ele>
        <time>2019-12-11T01:57:54Z</time>
      </trkpt>
      <trkpt lat="43.05869" lon="-0.01162">
        <ele>610.254</ele>
        <time>2019-12-11T01:58:14Z</time>
      </trkpt>
      <trkpt lat="43.05879" lon="-0.01211">
        <ele>611.38</ele>
        <time>2019-12-11T01:58:34Z</time>
      </trkpt>
      <trkpt lat="43.05909" lon="-0.01245">
        <ele>621.446</ele>
        <time>2019-12-11T01:58:54Z</time>
      </trkpt>
      <trkpt lat="43.05938" lon="-0.01309">
        <ele>632.347</ele>
        <time>2019-12-11T01:59:14Z</time>
      </trkpt>
      <trkpt lat="43.05929" lon="-0.01358">
        <ele>630.999</ele>
        <time>2019-12-11T01:59:34Z</time>
      </trkpt>
      <trkpt lat="43.05928" lon="-0.01406">
        <ele>632.992</ele>
        <time>2019-12-11T01:59:54Z</time>
      </trkpt>
      <trkpt lat="43.05932" lon="-0.01439">
        <ele>633.934</ele>
        <time>2019-12-11T02:00:14Z</time>
      </trkpt>
      <trkpt lat="43.05944" lon="-0.01467">
        <ele>633.535</ele>
        <time>2019-12-11T02:00:34Z</time>
      </trkpt>
      <trkpt lat="43.05961" lon="-0.01498">
        <ele>637.786</ele>
        <time>2019-12-11T02:00:54Z</time>
      </trkpt>
      <trkpt lat="43.05962" lon="-0.01518">
        <ele>636.414</ele>
        <time>2019-12-11T02:01:14Z</time>
      </trkpt>
      <trkpt lat="43.05976" lon="-0.01568">
        <ele>633.508</ele>
        <time>2019-12-11T02:01:34Z</time>
      </trkpt>
      <trkpt lat="43.05992" lon="-0.01595">
        <ele>630.099</ele>
        <time>2019-12-11T02:01:54Z</time>
      </trkpt>
      <trkpt lat="43.06031" lon="-0.01606">
        <ele>629.068</ele>
        <time>2019-12-11T02:02:14Z</time>
      </trkpt>
      <trkpt lat="43.06087" lon="-0.01643">
        <ele>623.364</ele>
        <time>2019-12-11T02:02:34Z</time>
      </trkpt>
      <trkpt lat="43.06109" lon="-0.01635">
        <ele>629.68</ele>
        <time>2019-12-11T02:02:54Z</time>
      </trkpt>
      <trkpt lat="43.06138" lon="-0.01637">
        <ele>634.561</ele>
        <time>2019-12-11T02:03:14Z</time>
      </trkpt>
      <trkpt lat="43.06159" lon="-0.0166">
        <ele>636.813</ele>
        <time>2019-12-11T02:03:34Z</time>
      </trkpt>
      <trkpt lat="43.06191" lon="-0.01714">
        <ele>640.886</ele>
        <time>2019-12-11T02:03:54Z</time>
      </trkpt>
      <trkpt lat="43.06195" lon="-0.01752">
        <ele>636.998</ele>
        <time>2019-12-11T02:04:14Z</time>
      </trkpt>
      <trkpt lat="43.06268" lon="-0.0188">
        <ele>653.861</ele>
        <time>2019-12-11T02:04:34Z</time>
      </trkpt>
      <trkpt lat="43.06283" lon="-0.01928">
        <ele>657.121</ele>
        <time>2019-12-11T02:04:54Z</time>
      </trkpt>
      <trkpt lat="43.06284" lon="-0.01976">
        <ele>659.813</ele>
        <time>2019-12-11T02:05:14Z</time>
      </trkpt>
      <trkpt lat="43.0629" lon="-0.02007">
        <ele>662.208</ele>
        <time>2019-12-11T02:05:34Z</time>
      </trkpt>
      <trkpt lat="43.06355" lon="-0.02083">
        <ele>664.632</ele>
        <time>2019-12-11T02:05:54Z</time>
      </trkpt>
      <trkpt lat="43.0639" lon="-0.02093">
        <ele>661.411</ele>
        <time>2019-12-11T02:06:14Z</time>
      </trkpt>
      <trkpt lat="43.06486" lon="-0.02065">
        <ele>663.067</ele>
        <time>2019-12-11T02:06:34Z</time>
      </trkpt>
      <trkpt lat="43.0652" lon="-0.02061">
        <ele>665.723</ele>
        <time>2019-12-11T02:06:54Z</time>
      </trkpt>
      <trkpt lat="43.06549" lon="-0.02074">
        <ele>665.574</ele>
        <time>2019-12-11T02:07:14Z</time>
      </trkpt>
      <trkpt lat="43.06564" lon="-0.02103">
        <ele>665.626</ele>
        <time>2019-12-11T02:07:34Z</time>
      </trkpt>
      <trkpt lat="43.06573" lon="-0.0215">
        <ele>663.489</ele>
        <time>2019-12-11T02:07:54Z</time>
      </trkpt>
      <trkpt lat="43.06593" lon="-0.02168">
        <ele>665.561</ele>
        <time>2019-12-11T02:08:14Z</time>
      </trkpt>
      <trkpt lat="43.06628" lon="-0.02188">
        <ele>666.151</ele>
        <time>2019-12-11T02:08:34Z</time>
      </trkpt>
      <trkpt lat="43.06665" lon="-0.02174">
        <ele>670.701</ele>
        <time>2021-02-06T17:08:11Z</time>
      </trkpt>
      <trkpt lat="43.06712" lon="-0.02194">
        <ele>662.811</ele>
        <time>2021-02-06T17:08:31Z</time>
      </trkpt>
      <trkpt lat="43.06752" lon="-0.02215">
        <ele>648.508</ele>
        <time>2019-12-11T02:11:54Z</time>
      </trkpt>
      <trkpt lat="43.06788" lon="-0.02174">
        <ele>647.511</ele>
        <time>2019-12-11T02:12:14Z</time>
      </trkpt>
      <trkpt lat="43.06805" lon="-0.0215">
        <ele>646.39</ele>
        <time>2019-12-11T02:12:34Z</time>
      </trkpt>
      <trkpt lat="43.06859" lon="-0.02105">
        <ele>636.316</ele>
        <time>2019-12-11T02:12:54Z</time>
      </trkpt>
      <trkpt lat="43.06873" lon="-0.02111">
        <ele>630.452</ele>
        <time>2019-12-11T02:13:14Z</time>
      </trkpt>
      <trkpt lat="43.06884" lon="-0.02145">
        <ele>629.313</ele>
        <time>2019-12-11T02:13:34Z</time>
      </trkpt>
      <trkpt lat="43.06914" lon="-0.02172">
        <ele>627.525</ele>
        <time>2019-12-11T02:13:54Z</time>
      </trkpt>
      <trkpt lat="43.06921" lon="-0.02191">
        <ele>628.988</ele>
        <time>2019-12-11T02:14:14Z</time>
      </trkpt>
      <trkpt lat="43.06928" lon="-0.02223">
        <ele>633.18</ele>
        <time>2019-12-11T02:14:34Z</time>
      </trkpt>
      <trkpt lat="43.06935" lon="-0.02233">
        <ele>632.915</ele>
        <time>2019-12-11T02:14:54Z</time>
      </trkpt>
      <trkpt lat="43.0695" lon="-0.02237">
        <ele>631.565</ele>
        <time>2019-12-11T02:15:14Z</time>
      </trkpt>
      <trkpt lat="43.06972" lon="-0.02224">
        <ele>628.411</ele>
        <time>2019-12-11T02:15:34Z</time>
      </trkpt>
      <trkpt lat="43.06994" lon="-0.02214">
        <ele>632.308</ele>
        <time>2019-12-11T02:15:54Z</time>
      </trkpt>
      <trkpt lat="43.07017" lon="-0.02182">
        <ele>631.327</ele>
        <time>2019-12-11T02:16:14Z</time>
      </trkpt>
      <trkpt lat="43.07038" lon="-0.02147">
        <ele>625.496</ele>
        <time>2019-12-11T02:16:34Z</time>
      </trkpt>
      <trkpt lat="43.07046" lon="-0.02113">
        <ele>615.882</ele>
        <time>2019-12-11T02:16:54Z</time>
      </trkpt>
      <trkpt lat="43.07065" lon="-0.02108">
        <ele>617.738</ele>
        <time>2019-12-11T02:17:14Z</time>
      </trkpt>
      <trkpt lat="43.07091" lon="-0.02114">
        <ele>619.869</ele>
        <time>2019-12-11T02:17:34Z</time>
      </trkpt>
      <trkpt lat="43.07126" lon="-0.02132">
        <ele>617.461</ele>
        <time>2019-12-11T02:17:54Z</time>
      </trkpt>
      <trkpt lat="43.07197" lon="-0.022">
        <ele>615.834</ele>
        <time>2019-12-11T02:18:14Z</time>
      </trkpt>
      <trkpt lat="43.07246" lon="-0.02224">
        <ele>621.516</ele>
        <time>2019-12-11T02:18:34Z</time>
      </trkpt>
      <trkpt lat="43.0734" lon="-0.02257">
        <ele>615.563</ele>
        <time>2019-12-11T02:18:54Z</time>
      </trkpt>
      <trkpt lat="43.07446" lon="-0.02344">
        <ele>643.244</ele>
        <time>2019-12-11T02:19:14Z</time>
      </trkpt>
      <trkpt lat="43.07446" lon="-0.02357">
        <ele>648.718</ele>
        <time>2019-12-11T02:19:34Z</time>
      </trkpt>
      <trkpt lat="43.07504" lon="-0.02382">
        <ele>662.908</ele>
        <time>2019-12-11T02:19:54Z</time>
      </trkpt>
      <trkpt lat="43.07538" lon="-0.0241">
        <ele>671.552</ele>
        <time>2019-12-11T02:20:14Z</time>
      </trkpt>
      <trkpt lat="43.076" lon="-0.0242">
        <ele>669.061</ele>
        <time>2019-12-11T02:20:34Z</time>
      </trkpt>
      <trkpt lat="43.07606" lon="-0.02497">
        <ele>679.017</ele>
        <time>2019-12-11T02:20:54Z</time>
      </trkpt>
      <trkpt lat="43.07632" lon="-0.02537">
        <ele>680.973</ele>
        <time>2019-12-11T02:21:14Z</time>
      </trkpt>
      <trkpt lat="43.07657" lon="-0.0254">
        <ele>679.394</ele>
        <time>2019-12-11T02:21:34Z</time>
      </trkpt>
      <trkpt lat="43.07689" lon="-0.02519">
        <ele>675.196</ele>
        <time>2019-12-11T02:21:54Z</time>
      </trkpt>
      <trkpt lat="43.07753" lon="-0.02516">
        <ele>680.189</ele>
        <time>2019-12-11T02:22:14Z</time>
      </trkpt>
      <trkpt lat="43.07795" lon="-0.02483">
        <ele>683.571</ele>
        <time>2019-12-11T02:22:34Z</time>
      </trkpt>
      <trkpt lat="43.07838" lon="-0.02386">
        <ele>678.693</ele>
        <time>2019-12-11T02:22:54Z</time>
      </trkpt>
      <trkpt lat="43.07936" lon="-0.02303">
        <ele>674.865</ele>
        <time>2019-12-11T02:23:14Z</time>
      </trkpt>
      <trkpt lat="43.07979" lon="-0.02293">
        <ele>671.821</ele>
        <time>2019-12-11T02:23:34Z</time>
      </trkpt>
      <trkpt lat="43.08036" lon="-0.02314">
        <ele>668.508</ele>
        <time>2019-12-11T02:23:54Z</time>
      </trkpt>
      <trkpt lat="43.08088" lon="-0.02316">
        <ele>652.935</ele>
        <time>2019-12-11T02:24:14Z</time>
      </trkpt>
      <trkpt lat="43.08112" lon="-0.02339">
        <ele>648.394</ele>
        <time>2019-12-11T02:24:34Z</time>
      </trkpt>
      <trkpt lat="43.08136" lon="-0.02436">
        <ele>645.77</ele>
        <time>2019-12-11T02:24:54Z</time>
      </trkpt>
      <trkpt lat="43.08198" lon="-0.02523">
        <ele>642.836</ele>
        <time>2019-12-11T02:25:14Z</time>
      </trkpt>
      <trkpt lat="43.08214" lon="-0.02525">
        <ele>636.467</ele>
        <time>2019-12-11T02:25:34Z</time>
      </trkpt>
      <trkpt lat="43.08241" lon="-0.02565">
        <ele>635.519</ele>
        <time>2019-12-11T02:25:54Z</time>
      </trkpt>
      <trkpt lat="43.08313" lon="-0.02593">
        <ele>630.292</ele>
        <time>2019-12-11T02:26:14Z</time>
      </trkpt>
      <trkpt lat="43.08373" lon="-0.02642">
        <ele>634.944</ele>
        <time>2019-12-11T02:26:34Z</time>
      </trkpt>
      <trkpt lat="43.0844" lon="-0.02601">
        <ele>621.096</ele>
        <time>2019-12-11T02:26:54Z</time>
      </trkpt>
      <trkpt lat="43.08504" lon="-0.02599">
        <ele>618.731</ele>
        <time>2019-12-11T02:27:14Z</time>
      </trkpt>
      <trkpt lat="43.08557" lon="-0.02629">
        <ele>619.124</ele>
        <time>2019-12-11T02:27:34Z</time>
      </trkpt>
      <trkpt lat="43.08595" lon="-0.027">
        <ele>640.608</ele>
        <time>2019-12-11T02:27:54Z</time>
      </trkpt>
      <trkpt lat="43.08721" lon="-0.02977">
        <ele>632.685</ele>
        <time>2019-12-11T02:28:14Z</time>
      </trkpt>
      <trkpt lat="43.08773" lon="-0.03011">
        <ele>613.994</ele>
        <time>2019-12-11T02:28:34Z</time>
      </trkpt>
      <trkpt lat="43.08772" lon="-0.03059">
        <ele>623.57</ele>
        <time>2019-12-11T02:28:54Z</time>
      </trkpt>
      <trkpt lat="43.08786" lon="-0.03088">
        <ele>630.366</ele>
        <time>2019-12-11T02:29:14Z</time>
      </trkpt>
      <trkpt lat="43.0884" lon="-0.03088">
        <ele>634.897</ele>
        <time>2019-12-11T02:29:34Z</time>
      </trkpt>
      <trkpt lat="43.08864" lon="-0.03107">
        <ele>638.049</ele>
        <time>2019-12-11T02:29:54Z</time>
      </trkpt>
      <trkpt lat="43.08866" lon="-0.03167">
        <ele>644.272</ele>
        <time>2019-12-11T02:30:14Z</time>
      </trkpt>
      <trkpt lat="43.08846" lon="-0.0331">
        <ele>660.554</ele>
        <time>2019-12-11T02:30:34Z</time>
      </trkpt>
      <trkpt lat="43.08786" lon="-0.03336">
        <ele>656.364</ele>
        <time>2019-12-11T02:30:54Z</time>
      </trkpt>
      <trkpt lat="43.08782" lon="-0.03357">
        <ele>653.806</ele>
        <time>2019-12-11T02:31:14Z</time>
      </trkpt>
      <trkpt lat="43.08798" lon="-0.03397">
        <ele>652.616</ele>
        <time>2019-12-11T02:31:34Z</time>
      </trkpt>
      <trkpt lat="43.08795" lon="-0.0343">
        <ele>651.608</ele>
        <time>2019-12-11T02:31:54Z</time>
      </trkpt>
      <trkpt lat="43.08775" lon="-0.03451">
        <ele>647.632</ele>
        <time>2019-12-11T02:32:14Z</time>
      </trkpt>
      <trkpt lat="43.08761" lon="-0.03489">
        <ele>645.481</ele>
        <time>2019-12-11T02:32:34Z</time>
      </trkpt>
      <trkpt lat="43.08594" lon="-0.03543">
        <ele>619.747</ele>
        <time>2019-12-11T02:32:54Z</time>
      </trkpt>
      <trkpt lat="43.08534" lon="-0.03597">
        <ele>611.473</ele>
        <time>2019-12-11T02:33:14Z</time>
      </trkpt>
      <trkpt lat="43.08472" lon="-0.0367">
        <ele>603.164</ele>
        <time>2019-12-11T02:33:34Z</time>
      </trkpt>
      <trkpt lat="43.08453" lon="-0.03709">
        <ele>604.296</ele>
        <time>2019-12-11T02:33:54Z</time>
      </trkpt>
      <trkpt lat="43.0845" lon="-0.03747">
        <ele>598.449</ele>
        <time>2019-12-11T02:34:14Z</time>
      </trkpt>
      <trkpt lat="43.08411" lon="-0.03819">
        <ele>588.161</ele>
        <time>2019-12-11T02:34:34Z</time>
      </trkpt>
      <trkpt lat="43.08304" lon="-0.03914">
        <ele>556.736</ele>
        <time>2019-12-11T02:34:54Z</time>
      </trkpt>
      <trkpt lat="43.08274" lon="-0.0392">
        <ele>557.817</ele>
        <time>2019-12-11T02:35:14Z</time>
      </trkpt>
      <trkpt lat="43.08346" lon="-0.03965">
        <ele>540.018</ele>
        <time>2019-12-11T02:35:34Z</time>
      </trkpt>
      <trkpt lat="43.08453" lon="-0.03932">
        <ele>520.908</ele>
        <time>2019-12-11T02:35:54Z</time>
      </trkpt>
      <trkpt lat="43.08576" lon="-0.03925">
        <ele>493.349</ele>
        <time>2019-12-11T02:36:14Z</time>
      </trkpt>
      <trkpt lat="43.08526" lon="-0.04021">
        <ele>462.358</ele>
        <time>2019-12-11T02:36:34Z</time>
      </trkpt>
      <trkpt lat="43.08381" lon="-0.04153">
        <ele>432.624</ele>
        <time>2019-12-11T02:36:54Z</time>
      </trkpt>
      <trkpt lat="43.0837" lon="-0.04232">
        <ele>427.43</ele>
        <time>2019-12-11T02:37:14Z</time>
      </trkpt>
      <trkpt lat="43.08369" lon="-0.04399">
        <ele>415.321</ele>
        <time>2019-12-11T02:37:34Z</time>
      </trkpt>
      <trkpt lat="43.08352" lon="-0.0442">
        <ele>417.823</ele>
        <time>2019-12-11T02:37:54Z</time>
      </trkpt>
      <trkpt lat="43.08355" lon="-0.04453">
        <ele>415.766</ele>
        <time>2019-12-11T02:38:14Z</time>
      </trkpt>
      <trkpt lat="43.08379" lon="-0.04448">
        <ele>410.848</ele>
        <time>2019-12-11T02:38:34Z</time>
      </trkpt>
      <trkpt lat="43.08394" lon="-0.0454">
        <ele>404.056</ele>
        <time>2019-12-11T02:38:54Z</time>
      </trkpt>
      <trkpt lat="43.08426" lon="-0.04547">
        <ele>403.359</ele>
        <time>2019-12-11T02:39:14Z</time>
      </trkpt>
      <trkpt lat="43.08435" lon="-0.04564">
        <ele>402.714</ele>
        <time>2019-12-11T02:39:34Z</time>
      </trkpt>
      <trkpt lat="43.08385" lon="-0.04571">
        <ele>407.608</ele>
        <time>2021-02-06T17:36:51Z</time>
      </trkpt>
      <trkpt lat="43.0839" lon="-0.04664">
        <ele>402.951</ele>
        <time>2021-02-06T17:37:11Z</time>
      </trkpt>
      <trkpt lat="43.08502" lon="-0.04735">
        <ele>399.35</ele>
        <time>2021-02-06T17:37:31Z</time>
      </trkpt>
      <trkpt lat="43.08617" lon="-0.04763">
        <ele>397.866</ele>
        <time>2021-02-06T17:37:51Z</time>
      </trkpt>
      <trkpt lat="43.08768" lon="-0.04741">
        <ele>401.882</ele>
        <time>2021-02-06T17:38:11Z</time>
      </trkpt>
      <trkpt lat="43.08872" lon="-0.04678">
        <ele>405.443</ele>
        <time>2021-02-06T17:38:31Z</time>
      </trkpt>
      <trkpt lat="43.08934" lon="-0.04615">
        <ele>405.575</ele>
        <time>2021-02-06T17:38:51Z</time>
      </trkpt>
      <trkpt lat="43.09116" lon="-0.04619">
        <ele>407.798</ele>
        <time>2021-02-06T17:39:11Z</time>
      </trkpt>
      <trkpt lat="43.09118" lon="-0.04736">
        <ele>412.19</ele>
        <time>2021-02-06T17:39:31Z</time>
      </trkpt>
      <trkpt lat="43.09164" lon="-0.04735">
        <ele>412.187</ele>
        <time>2021-02-06T17:39:51Z</time>
      </trkpt>
      <trkpt lat="43.09182" lon="-0.04789">
        <ele>415.642</ele>
        <time>2021-02-06T17:40:11Z</time>
      </trkpt>
      <trkpt lat="43.09208" lon="-0.04793">
        <ele>415.626</ele>
        <time>2021-02-06T17:40:31Z</time>
      </trkpt>
      <trkpt lat="43.09211" lon="-0.04815">
        <ele>417.208</ele>
        <time>2021-02-06T17:40:51Z</time>
      </trkpt>
      <trkpt lat="43.0923" lon="-0.04826">
        <ele>417.784</ele>
        <time>2021-02-06T17:41:11Z</time>
      </trkpt>
      <trkpt lat="43.09229" lon="-0.04845">
        <ele>417.443</ele>
        <time>2021-02-06T17:41:31Z</time>
      </trkpt>
      <trkpt lat="43.09316" lon="-0.04844">
        <ele>411.989</ele>
        <time>2021-02-06T17:41:51Z</time>
      </trkpt>
      <trkpt lat="43.09391" lon="-0.04811">
        <ele>411.275</ele>
        <time>2021-02-06T17:42:11Z</time>
      </trkpt>
      <trkpt lat="43.09463" lon="-0.04811">
        <ele>411.236</ele>
        <time>2021-02-06T17:42:31Z</time>
      </trkpt>
      <trkpt lat="43.0946" lon="-0.04841">
        <ele>411.188</ele>
        <time>2021-02-06T17:42:51Z</time>
      </trkpt>
      <trkpt lat="43.09451" lon="-0.04874">
        <ele>409.681</ele>
        <time>2021-02-06T17:43:11Z</time>
      </trkpt>
      <trkpt lat="43.09464" lon="-0.04882">
        <ele>409.273</ele>
        <time>2021-02-06T17:43:31Z</time>
      </trkpt>
      <trkpt lat="43.09482" lon="-0.04911">
        <ele>408.082</ele>
        <time>2021-02-06T17:43:51Z</time>
      </trkpt>
      <trkpt lat="43.09506" lon="-0.04913">
        <ele>408.443</ele>
        <time>2021-02-06T17:44:11Z</time>
      </trkpt>
      <trkpt lat="43.0951" lon="-0.04879">
        <ele>409.717</ele>
        <time>2021-02-06T17:44:31Z</time>
      </trkpt>
      <trkpt lat="43.0953" lon="-0.04866">
        <ele>410.808</ele>
        <time>2021-02-06T17:44:51Z</time>
      </trkpt>
      <trkpt lat="43.09543" lon="-0.04876">
        <ele>411.034</ele>
        <time>2021-02-06T17:45:11Z</time>
      </trkpt>
      <trkpt lat="43.09639" lon="-0.04834">
        <ele>411.783</ele>
        <time>2021-02-06T17:45:31Z</time>
      </trkpt>
      <trkpt lat="43.09632" lon="-0.04665">
        <ele>404.319</ele>
        <time>2021-02-06T17:45:51Z</time>
      </trkpt>
      <trkpt lat="43.09686" lon="-0.04664">
        <ele>394.365</ele>
        <time>2019-12-11T02:41:54Z</time>
      </trkpt>
      <trkpt lat="43.09736" lon="-0.04687">
        <ele>393.136</ele>
        <time>2019-12-11T02:42:14Z</time>
      </trkpt>
      <trkpt lat="43.09803" lon="-0.0466">
        <ele>399.478</ele>
        <time>2021-02-06T17:46:51Z</time>
      </trkpt>
      <trkpt lat="43.09809" lon="-0.04737">
        <ele>399.981</ele>
        <time>2021-02-06T17:47:11Z</time>
      </trkpt>
      <trkpt lat="43.09849" lon="-0.04925">
        <ele>394.533</ele>
        <time>2021-02-06T17:47:31Z</time>
      </trkpt>
      <trkpt lat="43.09822" lon="-0.05032">
        <ele>382.854</ele>
        <time>2021-02-06T17:47:51Z</time>
      </trkpt>
      <trkpt lat="43.09817" lon="-0.05075">
        <ele>369.056</ele>
        <time>2019-12-11T02:45:14Z</time>
      </trkpt>
      <trkpt lat="43.09807" lon="-0.05162">
        <ele>370.011</ele>
        <time>2019-12-11T02:45:34Z</time>
      </trkpt>
      <trkpt lat="43.09779" lon="-0.05183">
        <ele>370.008</ele>
        <time>2019-12-11T02:45:54Z</time>
      </trkpt>
      <trkpt lat="43.09725" lon="-0.0519">
        <ele>370.081</ele>
        <time>2019-12-11T02:46:14Z</time>
      </trkpt>
      <trkpt lat="43.09697" lon="-0.05236">
        <ele>370.06</ele>
        <time>2019-12-11T02:46:34Z</time>
      </trkpt>
      <trkpt lat="43.09671" lon="-0.05452">
        <ele>376.196</ele>
        <time>2019-12-11T02:46:54Z</time>
      </trkpt>
      <trkpt lat="43.09666" lon="-0.05575">
        <ele>380.642</ele>
        <time>2019-12-11T02:47:14Z</time>
      </trkpt>
      <trkpt lat="43.09683" lon="-0.05685">
        <ele>393.123</ele>
        <time>2019-12-11T02:47:34Z</time>
      </trkpt>
      <trkpt lat="43.09722" lon="-0.05798">
        <ele>379.675</ele>
        <time>2019-12-11T02:47:54Z</time>
      </trkpt>
      <trkpt lat="43.09713" lon="-0.05969">
        <ele>388.688</ele>
        <time>2019-12-11T02:48:14Z</time>
      </trkpt>
      <trkpt lat="43.09727" lon="-0.06025">
        <ele>387.72</ele>
        <time>2019-12-11T02:48:34Z</time>
      </trkpt>
      <trkpt lat="43.09731" lon="-0.06164">
        <ele>397.258</ele>
        <time>2019-12-11T02:48:54Z</time>
      </trkpt>
      <trkpt lat="43.09797" lon="-0.0648">
        <ele>401.952</ele>
        <time>2019-12-11T02:49:14Z</time>
      </trkpt>
      <trkpt lat="43.09845" lon="-0.06548">
        <ele>395.117</ele>
        <time>2019-12-11T02:49:34Z</time>
      </trkpt>
      <trkpt lat="43.09865" lon="-0.06626">
        <ele>388.208</ele>
        <time>2019-12-11T02:49:54Z</time>
      </trkpt>
      <trkpt lat="43.09862" lon="-0.0671">
        <ele>385.771</ele>
        <time>2019-12-11T02:50:14Z</time>
      </trkpt>
      <trkpt lat="43.09816" lon="-0.06944">
        <ele>377.04</ele>
        <time>2019-12-11T02:50:34Z</time>
      </trkpt>
      <trkpt lat="43.09742" lon="-0.07066">
        <ele>370.556</ele>
        <time>2019-12-11T02:50:54Z</time>
      </trkpt>
      <trkpt lat="43.0972" lon="-0.07123">
        <ele>371.232</ele>
        <time>2019-12-11T02:51:14Z</time>
      </trkpt>
      <trkpt lat="43.0972" lon="-0.07205">
        <ele>370.833</ele>
        <time>2019-12-11T02:51:34Z</time>
      </trkpt>
      <trkpt lat="43.09699" lon="-0.07322">
        <ele>369.035</ele>
        <time>2019-12-11T02:51:54Z</time>
      </trkpt>
      <trkpt lat="43.09709" lon="-0.0747">
        <ele>370.388</ele>
        <time>2019-12-11T02:52:14Z</time>
      </trkpt>
      <trkpt lat="43.09765" lon="-0.07728">
        <ele>369.07</ele>
        <time>2019-12-11T02:52:34Z</time>
      </trkpt>
      <trkpt lat="43.09766" lon="-0.07778">
        <ele>369.129</ele>
        <time>2019-12-11T02:52:54Z</time>
      </trkpt>
      <trkpt lat="43.09781" lon="-0.07805">
        <ele>369.8</ele>
        <time>2019-12-11T02:53:14Z</time>
      </trkpt>
      <trkpt lat="43.09794" lon="-0.07902">
        <ele>373.82</ele>
        <time>2019-12-11T02:53:34Z</time>
      </trkpt>
      <trkpt lat="43.09831" lon="-0.08035">
        <ele>376.008</ele>
        <time>2019-12-11T02:53:54Z</time>
      </trkpt>
      <trkpt lat="43.09865" lon="-0.08111">
        <ele>379.398</ele>
        <time>2019-12-11T02:54:14Z</time>
      </trkpt>
      <trkpt lat="43.09902" lon="-0.08164">
        <ele>371.687</ele>
        <time>2019-12-11T02:54:34Z</time>
      </trkpt>
      <trkpt lat="43.0997" lon="-0.08373">
        <ele>363.533</ele>
        <time>2019-12-11T02:54:54Z</time>
      </trkpt>
      <trkpt lat="43.0997" lon="-0.08429">
        <ele>365.419</ele>
        <time>2019-12-11T02:55:14Z</time>
      </trkpt>
      <trkpt lat="43.09979" lon="-0.0846">
        <ele>363.41</ele>
        <time>2019-12-11T02:55:34Z</time>
      </trkpt>
      <trkpt lat="43.09981" lon="-0.08544">
        <ele>362.962</ele>
        <time>2019-12-11T02:55:54Z</time>
      </trkpt>
      <trkpt lat="43.09995" lon="-0.0861">
        <ele>361.535</ele>
        <time>2019-12-11T02:56:14Z</time>
      </trkpt>
      <trkpt lat="43.09986" lon="-0.08636">
        <ele>362.597</ele>
        <time>2019-12-11T02:56:34Z</time>
      </trkpt>
      <trkpt lat="43.09981" lon="-0.08742">
        <ele>360.999</ele>
        <time>2019-12-11T02:56:54Z</time>
      </trkpt>
      <trkpt lat="43.09977" lon="-0.08852">
        <ele>360.007</ele>
        <time>2019-12-11T02:57:14Z</time>
      </trkpt>
      <trkpt lat="43.09949" lon="-0.08967">
        <ele>365.527</ele>
        <time>2019-12-11T02:57:34Z</time>
      </trkpt>
      <trkpt lat="43.09951" lon="-0.09047">
        <ele>364.908</ele>
        <time>2019-12-11T02:57:54Z</time>
      </trkpt>
      <trkpt lat="43.09943" lon="-0.09154">
        <ele>362.375</ele>
        <time>2019-12-11T02:58:14Z</time>
      </trkpt>
      <trkpt lat="43.0993" lon="-0.09188">
        <ele>367.664</ele>
        <time>2019-12-11T02:58:34Z</time>
      </trkpt>
      <trkpt lat="43.09914" lon="-0.09351">
        <ele>363.64</ele>
        <time>2019-12-11T02:58:54Z</time>
      </trkpt>
      <trkpt lat="43.09902" lon="-0.09443">
        <ele>369.986</ele>
        <time>2019-12-11T02:59:14Z</time>
      </trkpt>
      <trkpt lat="43.09906" lon="-0.09605">
        <ele>370.057</ele>
        <time>2019-12-11T02:59:34Z</time>
      </trkpt>
      <trkpt lat="43.09954" lon="-0.09788">
        <ele>370.069</ele>
        <time>2019-12-11T02:59:54Z</time>
      </trkpt>
      <trkpt lat="43.10047" lon="-0.1002">
        <ele>365.532</ele>
        <time>2019-12-11T03:00:14Z</time>
      </trkpt>
      <trkpt lat="43.10115" lon="-0.10271">
        <ele>366.414</ele>
        <time>2019-12-11T03:00:34Z</time>
      </trkpt>
      <trkpt lat="43.10124" lon="-0.10382">
        <ele>375.584</ele>
        <time>2019-12-11T03:00:54Z</time>
      </trkpt>
      <trkpt lat="43.10128" lon="-0.10487">
        <ele>381.707</ele>
        <time>2019-12-11T03:01:14Z</time>
      </trkpt>
      <trkpt lat="43.10158" lon="-0.10684">
        <ele>378.217</ele>
        <time>2019-12-11T03:01:34Z</time>
      </trkpt>
      <trkpt lat="43.10198" lon="-0.10867">
        <ele>372.208</ele>
        <time>2019-12-11T03:01:54Z</time>
      </trkpt>
      <trkpt lat="43.102" lon="-0.1093">
        <ele>374.454</ele>
        <time>2019-12-11T03:02:14Z</time>
      </trkpt>
      <trkpt lat="43.10246" lon="-0.11156">
        <ele>366.023</ele>
        <time>2019-12-11T03:02:34Z</time>
      </trkpt>
      <trkpt lat="43.10245" lon="-0.11292">
        <ele>361.269</ele>
        <time>2019-12-11T03:02:54Z</time>
      </trkpt>
      <trkpt lat="43.10252" lon="-0.11459">
        <ele>355.775</ele>
        <time>2019-12-11T03:03:14Z</time>
      </trkpt>
      <trkpt lat="43.1021" lon="-0.11735">
        <ele>355.166</ele>
        <time>2019-12-11T03:03:34Z</time>
      </trkpt>
      <trkpt lat="43.10204" lon="-0.11862">
        <ele>353.038</ele>
        <time>2019-12-11T03:03:54Z</time>
      </trkpt>
      <trkpt lat="43.10185" lon="-0.11958">
        <ele>351.691</ele>
        <time>2019-12-11T03:04:14Z</time>
      </trkpt>
      <trkpt lat="43.10122" lon="-0.12083">
        <ele>357.983</ele>
        <time>2019-12-11T03:04:34Z</time>
      </trkpt>
      <trkpt lat="43.10103" lon="-0.12202">
        <ele>358.666</ele>
        <time>2019-12-11T03:04:54Z</time>
      </trkpt>
      <trkpt lat="43.10083" lon="-0.1231">
        <ele>367.029</ele>
        <time>2019-12-11T03:05:14Z</time>
      </trkpt>
      <trkpt lat="43.10013" lon="-0.12437">
        <ele>364.721</ele>
        <time>2019-12-11T03:05:34Z</time>
      </trkpt>
      <trkpt lat="43.09977" lon="-0.12484">
        <ele>363.308</ele>
        <time>2019-12-11T03:05:54Z</time>
      </trkpt>
      <trkpt lat="43.09865" lon="-0.1257">
        <ele>368.412</ele>
        <time>2019-12-11T03:06:14Z</time>
      </trkpt>
      <trkpt lat="43.09816" lon="-0.12601">
        <ele>368.091</ele>
        <time>2019-12-11T03:06:34Z</time>
      </trkpt>
      <trkpt lat="43.09792" lon="-0.12707">
        <ele>364.547</ele>
        <time>2019-12-11T03:06:54Z</time>
      </trkpt>
      <trkpt lat="43.09795" lon="-0.12782">
        <ele>360.413</ele>
        <time>2019-12-11T03:07:14Z</time>
      </trkpt>
      <trkpt lat="43.09765" lon="-0.12824">
        <ele>365.264</ele>
        <time>2019-12-11T03:07:34Z</time>
      </trkpt>
      <trkpt lat="43.09792" lon="-0.12887">
        <ele>364.986</ele>
        <time>2019-12-11T03:07:54Z</time>
      </trkpt>
      <trkpt lat="43.09794" lon="-0.13014">
        <ele>367.769</ele>
        <time>2019-12-11T03:08:14Z</time>
      </trkpt>
      <trkpt lat="43.0983" lon="-0.13117">
        <ele>371.351</ele>
        <time>2019-12-11T03:08:34Z</time>
      </trkpt>
      <trkpt lat="43.09876" lon="-0.13194">
        <ele>361.281</ele>
        <time>2019-12-11T03:08:54Z</time>
      </trkpt>
      <trkpt lat="43.09924" lon="-0.13258">
        <ele>358.061</ele>
        <time>2019-12-11T03:09:14Z</time>
      </trkpt>
      <trkpt lat="43.09952" lon="-0.13328">
        <ele>360.517</ele>
        <time>2019-12-11T03:09:34Z</time>
      </trkpt>
      <trkpt lat="43.09977" lon="-0.13422">
        <ele>360.708</ele>
        <time>2019-12-11T03:09:54Z</time>
      </trkpt>
      <trkpt lat="43.10003" lon="-0.13479">
        <ele>360.154</ele>
        <time>2019-12-11T03:10:14Z</time>
      </trkpt>
      <trkpt lat="43.10005" lon="-0.13532">
        <ele>360.813</ele>
        <time>2019-12-11T03:10:34Z</time>
      </trkpt>
      <trkpt lat="43.09974" lon="-0.13645">
        <ele>360.779</ele>
        <time>2019-12-11T03:10:54Z</time>
      </trkpt>
      <trkpt lat="43.09956" lon="-0.1373">
        <ele>358.375</ele>
        <time>2019-12-11T03:11:14Z</time>
      </trkpt>
      <trkpt lat="43.09944" lon="-0.13835">
        <ele>355.026</ele>
        <time>2019-12-11T03:11:34Z</time>
      </trkpt>
      <trkpt lat="43.10013" lon="-0.13847">
        <ele>357.668</ele>
        <time>2019-12-11T03:11:54Z</time>
      </trkpt>
      <trkpt lat="43.10026" lon="-0.13877">
        <ele>358.131</ele>
        <time>2019-12-11T03:12:14Z</time>
      </trkpt>
      <trkpt lat="43.10019" lon="-0.1394">
        <ele>354.773</ele>
        <time>2019-12-11T03:12:34Z</time>
      </trkpt>
      <trkpt lat="43.10032" lon="-0.14067">
        <ele>352.815</ele>
        <time>2019-12-11T03:12:54Z</time>
      </trkpt>
      <trkpt lat="43.10055" lon="-0.14093">
        <ele>352.665</ele>
        <time>2019-12-11T03:13:14Z</time>
      </trkpt>
      <trkpt lat="43.10056" lon="-0.1418">
        <ele>350.511</ele>
        <time>2019-12-11T03:13:34Z</time>
      </trkpt>
      <trkpt lat="43.10079" lon="-0.14191">
        <ele>350.008</ele>
        <time>2019-12-11T03:13:54Z</time>
      </trkpt>
      <trkpt lat="43.10134" lon="-0.14198">
        <ele>349.987</ele>
        <time>2019-12-11T03:14:14Z</time>
      </trkpt>
      <trkpt lat="43.1018" lon="-0.14234">
        <ele>346.516</ele>
        <time>2019-12-11T03:14:34Z</time>
      </trkpt>
      <trkpt lat="43.10218" lon="-0.14288">
        <ele>340.172</ele>
        <time>2019-12-11T03:14:54Z</time>
      </trkpt>
      <trkpt lat="43.10264" lon="-0.14335">
        <ele>340.018</ele>
        <time>2019-12-11T03:15:14Z</time>
      </trkpt>
      <trkpt lat="43.10321" lon="-0.14445">
        <ele>358.529</ele>
        <time>2019-12-11T03:15:34Z</time>
      </trkpt>
      <trkpt lat="43.10289" lon="-0.14501">
        <ele>355.331</ele>
        <time>2019-12-11T03:15:54Z</time>
      </trkpt>
      <trkpt lat="43.10303" lon="-0.14506">
        <ele>359.734</ele>
        <time>2019-12-11T03:16:14Z</time>
      </trkpt>
      <trkpt lat="43.10326" lon="-0.14696">
        <ele>380.776</ele>
        <time>2019-12-11T03:16:34Z</time>
      </trkpt>
      <trkpt lat="43.10321" lon="-0.14795">
        <ele>392.848</ele>
        <time>2019-12-11T03:16:54Z</time>
      </trkpt>
      <trkpt lat="43.10312" lon="-0.14839">
        <ele>393.361</ele>
        <time>2019-12-11T03:17:14Z</time>
      </trkpt>
      <trkpt lat="43.10327" lon="-0.14973">
        <ele>392.217</ele>
        <time>2019-12-11T03:17:34Z</time>
      </trkpt>
      <trkpt lat="43.10317" lon="-0.15025">
        <ele>399.408</ele>
        <time>2019-12-11T03:17:54Z</time>
      </trkpt>
      <trkpt lat="43.1028" lon="-0.15039">
        <ele>400.01</ele>
        <time>2019-12-11T03:18:14Z</time>
      </trkpt>
      <trkpt lat="43.10234" lon="-0.15109">
        <ele>406.789</ele>
        <time>2019-12-11T03:18:34Z</time>
      </trkpt>
      <trkpt lat="43.10204" lon="-0.1521">
        <ele>409.855</ele>
        <time>2019-12-11T03:18:54Z</time>
      </trkpt>
      <trkpt lat="43.10176" lon="-0.15315">
        <ele>407.961</ele>
        <time>2019-12-11T03:19:14Z</time>
      </trkpt>
      <trkpt lat="43.10165" lon="-0.15394">
        <ele>398.882</ele>
        <time>2019-12-11T03:19:34Z</time>
      </trkpt>
      <trkpt lat="43.10146" lon="-0.15483">
        <ele>384.334</ele>
        <time>2019-12-11T03:19:54Z</time>
      </trkpt>
      <trkpt lat="43.10149" lon="-0.15533">
        <ele>380.137</ele>
        <time>2019-12-11T03:20:14Z</time>
      </trkpt>
      <trkpt lat="43.10172" lon="-0.15655">
        <ele>376.759</ele>
        <time>2019-12-11T03:20:34Z</time>
      </trkpt>
      <trkpt lat="43.10173" lon="-0.15716">
        <ele>368.087</ele>
        <time>2019-12-11T03:20:54Z</time>
      </trkpt>
      <trkpt lat="43.10186" lon="-0.15762">
        <ele>362.542</ele>
        <time>2019-12-11T03:21:14Z</time>
      </trkpt>
      <trkpt lat="43.10211" lon="-0.15809">
        <ele>357.426</ele>
        <time>2019-12-11T03:21:34Z</time>
      </trkpt>
      <trkpt lat="43.10222" lon="-0.15818">
        <ele>357.708</ele>
        <time>2019-12-11T03:21:54Z</time>
      </trkpt>
      <trkpt lat="43.10241" lon="-0.15823">
        <ele>357.864</ele>
        <time>2019-12-11T03:22:14Z</time>
      </trkpt>
      <trkpt lat="43.10254" lon="-0.15834">
        <ele>357.083</ele>
        <time>2019-12-11T03:22:34Z</time>
      </trkpt>
      <trkpt lat="43.10324" lon="-0.15808">
        <ele>358.889</ele>
        <time>2019-12-11T03:22:54Z</time>
      </trkpt>
      <trkpt lat="43.10335" lon="-0.15878">
        <ele>355.435</ele>
        <time>2019-12-11T03:23:14Z</time>
      </trkpt>
      <trkpt lat="43.10329" lon="-0.15918">
        <ele>353.846</ele>
        <time>2019-12-11T03:23:34Z</time>
      </trkpt>
      <trkpt lat="43.10342" lon="-0.15924">
        <ele>353.668</ele>
        <time>2019-12-11T03:23:54Z</time>
      </trkpt>
      <trkpt lat="43.10355" lon="-0.15982">
        <ele>351.831</ele>
        <time>2019-12-11T03:24:14Z</time>
      </trkpt>
      <trkpt lat="43.10317" lon="-0.16015">
        <ele>349.973</ele>
        <time>2019-12-11T03:24:34Z</time>
      </trkpt>
      <trkpt lat="43.10314" lon="-0.16028">
        <ele>349.339</ele>
        <time>2019-12-11T03:24:54Z</time>
      </trkpt>
      <trkpt lat="43.1029" lon="-0.1605">
        <ele>347.501</ele>
        <time>2019-12-11T03:25:14Z</time>
      </trkpt>
      <trkpt lat="43.10315" lon="-0.16101">
        <ele>347.521</ele>
        <time>2019-12-11T03:25:34Z</time>
      </trkpt>
      <trkpt lat="43.10317" lon="-0.16129">
        <ele>347.108</ele>
        <time>2019-12-11T03:25:54Z</time>
      </trkpt>
      <trkpt lat="43.10302" lon="-0.16142">
        <ele>344.579</ele>
        <time>2019-12-11T03:26:14Z</time>
      </trkpt>
      <trkpt lat="43.10286" lon="-0.16167">
        <ele>341.998</ele>
        <time>2019-12-11T03:26:34Z</time>
      </trkpt>
      <trkpt lat="43.10263" lon="-0.16168">
        <ele>339.984</ele>
        <time>2019-12-11T03:26:54Z</time>
      </trkpt>
      <trkpt lat="43.10247" lon="-0.16181">
        <ele>338.94</ele>
        <time>2019-12-11T03:27:14Z</time>
      </trkpt>
      <trkpt lat="43.10212" lon="-0.16254">
        <ele>335.141</ele>
        <time>2019-12-11T03:27:34Z</time>
      </trkpt>
      <trkpt lat="43.10247" lon="-0.16376">
        <ele>337.323</ele>
        <time>2019-12-11T03:27:54Z</time>
      </trkpt>
      <trkpt lat="43.10237" lon="-0.16618">
        <ele>337.446</ele>
        <time>2019-12-11T03:28:14Z</time>
      </trkpt>
      <trkpt lat="43.10136" lon="-0.16589">
        <ele>331.378</ele>
        <time>2019-12-11T03:28:34Z</time>
      </trkpt>
      <trkpt lat="43.10102" lon="-0.16603">
        <ele>334.311</ele>
        <time>2019-12-11T03:28:54Z</time>
      </trkpt>
      <trkpt lat="43.10084" lon="-0.16645">
        <ele>334.721</ele>
        <time>2019-12-11T03:29:14Z</time>
      </trkpt>
      <trkpt lat="43.10056" lon="-0.16761">
        <ele>333.503</ele>
        <time>2019-12-11T03:29:34Z</time>
      </trkpt>
      <trkpt lat="43.10014" lon="-0.16882">
        <ele>334.208</ele>
        <time>2019-12-11T03:29:54Z</time>
      </trkpt>
      <trkpt lat="43.09957" lon="-0.16983">
        <ele>334.457</ele>
        <time>2019-12-11T03:30:14Z</time>
      </trkpt>
      <trkpt lat="43.09939" lon="-0.17059">
        <ele>334.216</ele>
        <time>2019-12-11T03:30:34Z</time>
      </trkpt>
      <trkpt lat="43.09921" lon="-0.17242">
        <ele>330.032</ele>
        <time>2019-12-11T03:30:54Z</time>
      </trkpt>
      <trkpt lat="43.09897" lon="-0.17337">
        <ele>335.298</ele>
        <time>2019-12-11T03:31:14Z</time>
      </trkpt>
      <trkpt lat="43.0993" lon="-0.17464">
        <ele>347.829</ele>
        <time>2019-12-11T03:31:34Z</time>
      </trkpt>
      <trkpt lat="43.0997" lon="-0.17506">
        <ele>343.081</ele>
        <time>2019-12-11T03:31:54Z</time>
      </trkpt>
      <trkpt lat="43.10024" lon="-0.17549">
        <ele>331.864</ele>
        <time>2019-12-11T03:32:14Z</time>
      </trkpt>
      <trkpt lat="43.1003" lon="-0.17594">
        <ele>334.816</ele>
        <time>2019-12-11T03:32:34Z</time>
      </trkpt>
      <trkpt lat="43.10017" lon="-0.1768">
        <ele>353.289</ele>
        <time>2019-12-11T03:32:54Z</time>
      </trkpt>
      <trkpt lat="43.10059" lon="-0.17804">
        <ele>344.906</ele>
        <time>2019-12-11T03:33:14Z</time>
      </trkpt>
      <trkpt lat="43.10078" lon="-0.17922">
        <ele>346.426</ele>
        <time>2019-12-11T03:33:34Z</time>
      </trkpt>
      <trkpt lat="43.1013" lon="-0.18034">
        <ele>341.408</ele>
        <time>2019-12-11T03:33:54Z</time>
      </trkpt>
      <trkpt lat="43.10214" lon="-0.18145">
        <ele>330.554</ele>
        <time>2019-12-11T03:34:14Z</time>
      </trkpt>
      <trkpt lat="43.10237" lon="-0.18206">
        <ele>329.993</ele>
        <time>2019-12-11T03:34:34Z</time>
      </trkpt>
      <trkpt lat="43.10234" lon="-0.18483">
        <ele>328.629</ele>
        <time>2019-12-11T03:34:54Z</time>
      </trkpt>
      <trkpt lat="43.10219" lon="-0.18593">
        <ele>329.245</ele>
        <time>2019-12-11T03:35:14Z</time>
      </trkpt>
      <trkpt lat="43.10261" lon="-0.1875">
        <ele>326.456</ele>
        <time>2019-12-11T03:35:34Z</time>
      </trkpt>
      <trkpt lat="43.10357" lon="-0.18916">
        <ele>319.478</ele>
        <time>2019-12-11T03:35:54Z</time>
      </trkpt>
      <trkpt lat="43.10411" lon="-0.18971">
        <ele>319.081</ele>
        <time>2019-12-11T03:36:14Z</time>
      </trkpt>
      <trkpt lat="43.10436" lon="-0.19041">
        <ele>319.943</ele>
        <time>2019-12-11T03:36:34Z</time>
      </trkpt>
      <trkpt lat="43.1047" lon="-0.19102">
        <ele>319.111</ele>
        <time>2019-12-11T03:36:54Z</time>
      </trkpt>
      <trkpt lat="43.10484" lon="-0.19187">
        <ele>319.421</ele>
        <time>2019-12-11T03:37:14Z</time>
      </trkpt>
      <trkpt lat="43.10596" lon="-0.19231">
        <ele>320.903</ele>
        <time>2019-12-11T03:37:34Z</time>
      </trkpt>
      <trkpt lat="43.10815" lon="-0.19241">
        <ele>318.408</ele>
        <time>2019-12-11T03:37:54Z</time>
      </trkpt>
      <trkpt lat="43.10847" lon="-0.1928">
        <ele>318.147</ele>
        <time>2019-12-11T03:38:14Z</time>
      </trkpt>
      <trkpt lat="43.11224" lon="-0.19362">
        <ele>315.026</ele>
        <time>2019-12-11T03:38:34Z</time>
      </trkpt>
      <trkpt lat="43.11305" lon="-0.1944">
        <ele>315.052</ele>
        <time>2019-12-11T03:38:54Z</time>
      </trkpt>
      <trkpt lat="43.11352" lon="-0.19472">
        <ele>315.018</ele>
        <time>2019-12-11T03:39:14Z</time>
      </trkpt>
      <trkpt lat="43.11583" lon="-0.1955">
        <ele>314.889</ele>
        <time>2019-12-11T03:39:34Z</time>
      </trkpt>
      <trkpt lat="43.11638" lon="-0.19602">
        <ele>315.031</ele>
        <time>2019-12-11T03:39:54Z</time>
      </trkpt>
      <trkpt lat="43.11815" lon="-0.19862">
        <ele>314.064</ele>
        <time>2019-12-11T03:40:14Z</time>
      </trkpt>
      <trkpt lat="43.11847" lon="-0.19963">
        <ele>312.556</ele>
        <time>2019-12-11T03:40:34Z</time>
      </trkpt>
      <trkpt lat="43.11857" lon="-0.20033">
        <ele>314.164</ele>
        <time>2019-12-11T03:40:54Z</time>
      </trkpt>
      <trkpt lat="43.1188" lon="-0.20106">
        <ele>315.106</ele>
        <time>2019-12-11T03:41:14Z</time>
      </trkpt>
      <trkpt lat="43.11908" lon="-0.20212">
        <ele>314.816</ele>
        <time>2019-12-11T03:41:34Z</time>
      </trkpt>
      <trkpt lat="43.11945" lon="-0.20289">
        <ele>314.208</ele>
        <time>2019-12-11T03:41:54Z</time>
      </trkpt>
      <trkpt lat="43.12118" lon="-0.20469">
        <ele>310.032</ele>
        <time>2019-12-11T03:42:14Z</time>
      </trkpt>
      <trkpt lat="43.12179" lon="-0.20549">
        <ele>309.231</ele>
        <time>2019-12-11T03:42:34Z</time>
      </trkpt>
      <trkpt lat="43.12264" lon="-0.20667">
        <ele>309.067</ele>
        <time>2019-12-11T03:42:54Z</time>
      </trkpt>
      <trkpt lat="43.12322" lon="-0.20725">
        <ele>309.533</ele>
        <time>2019-12-11T03:43:14Z</time>
      </trkpt>
      <trkpt lat="43.12381" lon="-0.20726">
        <ele>303.764</ele>
        <time>2019-12-11T03:43:34Z</time>
      </trkpt>
      <trkpt lat="43.12425" lon="-0.20758">
        <ele>310.536</ele>
        <time>2019-12-11T03:43:54Z</time>
      </trkpt>
      <trkpt lat="43.12457" lon="-0.20775">
        <ele>310.099</ele>
        <time>2019-12-11T03:44:14Z</time>
      </trkpt>
      <trkpt lat="43.12472" lon="-0.20803">
        <ele>314.411</ele>
        <time>2019-12-11T03:44:34Z</time>
      </trkpt>
      <trkpt lat="43.12402" lon="-0.20783">
        <ele>328.322</ele>
        <time>2019-12-11T03:44:54Z</time>
      </trkpt>
      <trkpt lat="43.12342" lon="-0.20774">
        <ele>333.162</ele>
        <time>2019-12-11T03:45:14Z</time>
      </trkpt>
      <trkpt lat="43.12286" lon="-0.20791">
        <ele>341.908</ele>
        <time>2019-12-11T03:45:34Z</time>
      </trkpt>
      <trkpt lat="43.12238" lon="-0.20833">
        <ele>352.908</ele>
        <time>2019-12-11T03:45:54Z</time>
      </trkpt>
      <trkpt lat="43.12167" lon="-0.20871">
        <ele>357.798</ele>
        <time>2019-12-11T03:46:14Z</time>
      </trkpt>
      <trkpt lat="43.12205" lon="-0.20866">
        <ele>362.167</ele>
        <time>2019-12-11T03:46:34Z</time>
      </trkpt>
      <trkpt lat="43.12227" lon="-0.20881">
        <ele>372.713</ele>
        <time>2019-12-11T03:46:54Z</time>
      </trkpt>
      <trkpt lat="43.1221" lon="-0.20902">
        <ele>374.279</ele>
        <time>2019-12-11T03:47:14Z</time>
      </trkpt>
      <trkpt lat="43.12227" lon="-0.20949">
        <ele>383.24</ele>
        <time>2019-12-11T03:47:34Z</time>
      </trkpt>
      <trkpt lat="43.12272" lon="-0.20928">
        <ele>390.722</ele>
        <time>2019-12-11T03:47:54Z</time>
      </trkpt>
      <trkpt lat="43.12288" lon="-0.20934">
        <ele>391.625</ele>
        <time>2019-12-11T03:48:14Z</time>
      </trkpt>
      <trkpt lat="43.12285" lon="-0.21045">
        <ele>396.177</ele>
        <time>2019-12-11T03:48:34Z</time>
      </trkpt>
      <trkpt lat="43.12272" lon="-0.21054">
        <ele>395.631</ele>
        <time>2019-12-11T03:48:54Z</time>
      </trkpt>
      <trkpt lat="43.12266" lon="-0.21109">
        <ele>396.961</ele>
        <time>2019-12-11T03:49:14Z</time>
      </trkpt>
      <trkpt lat="43.12272" lon="-0.21214">
        <ele>406.107</ele>
        <time>2019-12-11T03:49:34Z</time>
      </trkpt>
      <trkpt lat="43.12281" lon="-0.21283">
        <ele>413.208</ele>
        <time>2019-12-11T03:49:54Z</time>
      </trkpt>
      <trkpt lat="43.12265" lon="-0.21398">
        <ele>413.679</ele>
        <time>2019-12-11T03:50:14Z</time>
      </trkpt>
      <trkpt lat="43.1224" lon="-0.21456">
        <ele>410.038</ele>
        <time>2019-12-11T03:50:34Z</time>
      </trkpt>
      <trkpt lat="43.12193" lon="-0.21597">
        <ele>411.444</ele>
        <time>2019-12-11T03:50:54Z</time>
      </trkpt>
      <trkpt lat="43.12184" lon="-0.2161">
        <ele>410.64</ele>
        <time>2019-12-11T03:51:14Z</time>
      </trkpt>
      <trkpt lat="43.12183" lon="-0.2163">
        <ele>410.211</ele>
        <time>2019-12-11T03:51:34Z</time>
      </trkpt>
      <trkpt lat="43.12172" lon="-0.21667">
        <ele>409.813</ele>
        <time>2019-12-11T03:51:54Z</time>
      </trkpt>
      <trkpt lat="43.12141" lon="-0.21739">
        <ele>408.226</ele>
        <time>2019-12-11T03:52:14Z</time>
      </trkpt>
      <trkpt lat="43.12122" lon="-0.21804">
        <ele>407.918</ele>
        <time>2019-12-11T03:52:34Z</time>
      </trkpt>
      <trkpt lat="43.12093" lon="-0.21865">
        <ele>411.679</ele>
        <time>2019-12-11T03:52:54Z</time>
      </trkpt>
      <trkpt lat="43.12099" lon="-0.21905">
        <ele>409.005</ele>
        <time>2019-12-11T03:53:14Z</time>
      </trkpt>
      <trkpt lat="43.12115" lon="-0.2194">
        <ele>405.825</ele>
        <time>2019-12-11T03:53:34Z</time>
      </trkpt>
      <trkpt lat="43.12147" lon="-0.21988">
        <ele>404.908</ele>
        <time>2019-12-11T03:53:54Z</time>
      </trkpt>
      <trkpt lat="43.12169" lon="-0.22054">
        <ele>409.653</ele>
        <time>2019-12-11T03:54:14Z</time>
      </trkpt>
      <trkpt lat="43.12195" lon="-0.221">
        <ele>403.752</ele>
        <time>2019-12-11T03:54:34Z</time>
      </trkpt>
      <trkpt lat="43.12233" lon="-0.22132">
        <ele>401.048</ele>
        <time>2019-12-11T03:54:54Z</time>
      </trkpt>
      <trkpt lat="43.12262" lon="-0.22153">
        <ele>401.544</ele>
        <time>2019-12-11T03:55:14Z</time>
      </trkpt>
      <trkpt lat="43.12276" lon="-0.22156">
        <ele>400.135</ele>
        <time>2019-12-11T03:55:34Z</time>
      </trkpt>
      <trkpt lat="43.12289" lon="-0.22175">
        <ele>398.267</ele>
        <time>2019-12-11T03:55:54Z</time>
      </trkpt>
      <trkpt lat="43.12309" lon="-0.22209">
        <ele>399.31</ele>
        <time>2019-12-11T03:56:14Z</time>
      </trkpt>
      <trkpt lat="43.12355" lon="-0.22205">
        <ele>389.912</ele>
        <time>2019-12-11T03:56:34Z</time>
      </trkpt>
      <trkpt lat="43.12403" lon="-0.22192">
        <ele>384.685</ele>
        <time>2019-12-11T03:56:54Z</time>
      </trkpt>
      <trkpt lat="43.12422" lon="-0.2217">
        <ele>381.789</ele>
        <time>2019-12-11T03:57:14Z</time>
      </trkpt>
      <trkpt lat="43.12453" lon="-0.22114">
        <ele>373.417</ele>
        <time>2019-12-11T03:57:34Z</time>
      </trkpt>
      <trkpt lat="43.12468" lon="-0.22099">
        <ele>370.408</ele>
        <time>2019-12-11T03:57:54Z</time>
      </trkpt>
      <trkpt lat="43.1248" lon="-0.22101">
        <ele>368.674</ele>
        <time>2019-12-11T03:58:14Z</time>
      </trkpt>
      <trkpt lat="43.12538" lon="-0.22168">
        <ele>359.973</ele>
        <time>2019-12-11T03:58:34Z</time>
      </trkpt>
      <trkpt lat="43.12563" lon="-0.22174">
        <ele>356.619</ele>
        <time>2019-12-11T03:58:54Z</time>
      </trkpt>
      <trkpt lat="43.12606" lon="-0.22155">
        <ele>350.485</ele>
        <time>2019-12-11T03:59:14Z</time>
      </trkpt>
      <trkpt lat="43.12571" lon="-0.22231">
        <ele>358.096</ele>
        <time>2019-12-11T03:59:34Z</time>
      </trkpt>
      <trkpt lat="43.12575" lon="-0.22329">
        <ele>364.998</ele>
        <time>2019-12-11T03:59:54Z</time>
      </trkpt>
      <trkpt lat="43.12607" lon="-0.22346">
        <ele>362.291</ele>
        <time>2019-12-11T04:00:14Z</time>
      </trkpt>
      <trkpt lat="43.12638" lon="-0.2235">
        <ele>360.353</ele>
        <time>2019-12-11T04:00:34Z</time>
      </trkpt>
      <trkpt lat="43.12672" lon="-0.22382">
        <ele>359.955</ele>
        <time>2019-12-11T04:00:54Z</time>
      </trkpt>
      <trkpt lat="43.12761" lon="-0.22633">
        <ele>346.807</ele>
        <time>2019-12-11T04:01:14Z</time>
      </trkpt>
      <trkpt lat="43.12792" lon="-0.22758">
        <ele>343.717</ele>
        <time>2019-12-11T04:01:34Z</time>
      </trkpt>
      <trkpt lat="43.1276" lon="-0.22895">
        <ele>341.508</ele>
        <time>2019-12-11T04:01:54Z</time>
      </trkpt>
      <trkpt lat="43.12747" lon="-0.23012">
        <ele>340.011</ele>
        <time>2019-12-11T04:02:14Z</time>
      </trkpt>
      <trkpt lat="43.12761" lon="-0.23026">
        <ele>340.84</ele>
        <time>2019-12-11T04:02:34Z</time>
      </trkpt>
      <trkpt lat="43.12754" lon="-0.23116">
        <ele>338.546</ele>
        <time>2019-12-11T04:02:54Z</time>
      </trkpt>
      <trkpt lat="43.12754" lon="-0.23187">
        <ele>332.532</ele>
        <time>2019-12-11T04:03:14Z</time>
      </trkpt>
      <trkpt lat="43.12735" lon="-0.23273">
        <ele>325.493</ele>
        <time>2019-12-11T04:03:34Z</time>
      </trkpt>
      <trkpt lat="43.12714" lon="-0.23312">
        <ele>324.845</ele>
        <time>2019-12-11T04:03:54Z</time>
      </trkpt>
      <trkpt lat="43.12645" lon="-0.23366">
        <ele>320.688</ele>
        <time>2019-12-11T04:04:14Z</time>
      </trkpt>
      <trkpt lat="43.12569" lon="-0.23342">
        <ele>320.43</ele>
        <time>2019-12-11T04:04:34Z</time>
      </trkpt>
      <trkpt lat="43.1255" lon="-0.23346">
        <ele>320.744</ele>
        <time>2019-12-11T04:04:54Z</time>
      </trkpt>
      <trkpt lat="43.12527" lon="-0.23376">
        <ele>321.205</ele>
        <time>2019-12-11T04:05:14Z</time>
      </trkpt>
      <trkpt lat="43.12545" lon="-0.23442">
        <ele>326.115</ele>
        <time>2019-12-11T04:05:34Z</time>
      </trkpt>
      <trkpt lat="43.12533" lon="-0.23512">
        <ele>333.108</ele>
        <time>2019-12-11T04:05:54Z</time>
      </trkpt>
      <trkpt lat="43.12508" lon="-0.23621">
        <ele>347.98</ele>
        <time>2019-12-11T04:06:14Z</time>
      </trkpt>
      <trkpt lat="43.12511" lon="-0.23687">
        <ele>350.389</ele>
        <time>2019-12-11T04:06:34Z</time>
      </trkpt>
      <trkpt lat="43.12556" lon="-0.24093">
        <ele>360.045</ele>
        <time>2019-12-11T04:06:54Z</time>
      </trkpt>
      <trkpt lat="43.12515" lon="-0.24221">
        <ele>355.081</ele>
        <time>2019-12-11T04:07:14Z</time>
      </trkpt>
      <trkpt lat="43.12469" lon="-0.24298">
        <ele>351.012</ele>
        <time>2019-12-11T04:07:34Z</time>
      </trkpt>
      <trkpt lat="43.12443" lon="-0.24363">
        <ele>345.074</ele>
        <time>2019-12-11T04:07:54Z</time>
      </trkpt>
      <trkpt lat="43.12411" lon="-0.24426">
        <ele>336.857</ele>
        <time>2019-12-11T04:08:14Z</time>
      </trkpt>
      <trkpt lat="43.12391" lon="-0.24452">
        <ele>335.089</ele>
        <time>2019-12-11T04:08:34Z</time>
      </trkpt>
      <trkpt lat="43.1235" lon="-0.24486">
        <ele>335.911</ele>
        <time>2019-12-11T04:08:54Z</time>
      </trkpt>
      <trkpt lat="43.12331" lon="-0.24522">
        <ele>333.521</ele>
        <time>2019-12-11T04:09:14Z</time>
      </trkpt>
      <trkpt lat="43.12295" lon="-0.24565">
        <ele>335.303</ele>
        <time>2019-12-11T04:09:34Z</time>
      </trkpt>
      <trkpt lat="43.12277" lon="-0.24614">
        <ele>327.208</ele>
        <time>2019-12-11T04:09:54Z</time>
      </trkpt>
      <trkpt lat="43.12238" lon="-0.24666">
        <ele>315.917</ele>
        <time>2019-12-11T04:10:14Z</time>
      </trkpt>
      <trkpt lat="43.12186" lon="-0.24715">
        <ele>312.666</ele>
        <time>2019-12-11T04:10:34Z</time>
      </trkpt>
      <trkpt lat="43.12148" lon="-0.2474">
        <ele>318.812</ele>
        <time>2019-12-11T04:10:54Z</time>
      </trkpt>
      <trkpt lat="43.12219" lon="-0.24701">
        <ele>310.318</ele>
        <time>2019-12-11T04:11:14Z</time>
      </trkpt>
      <trkpt lat="43.12316" lon="-0.24635">
        <ele>311.869</ele>
        <time>2019-12-11T04:11:34Z</time>
      </trkpt>
      <trkpt lat="43.12368" lon="-0.24646">
        <ele>310.221</ele>
        <time>2019-12-11T04:11:54Z</time>
      </trkpt>
      <trkpt lat="43.12413" lon="-0.24698">
        <ele>311.554</ele>
        <time>2019-12-11T04:12:14Z</time>
      </trkpt>
      <trkpt lat="43.12447" lon="-0.24826">
        <ele>310.366</ele>
        <time>2019-12-11T04:12:34Z</time>
      </trkpt>
      <trkpt lat="43.12471" lon="-0.24878">
        <ele>310.492</ele>
        <time>2019-12-11T04:12:54Z</time>
      </trkpt>
      <trkpt lat="43.12506" lon="-0.24911">
        <ele>311.173</ele>
        <time>2019-12-11T04:13:14Z</time>
      </trkpt>
      <trkpt lat="43.1265" lon="-0.24919">
        <ele>309.02</ele>
        <time>2019-12-11T04:13:34Z</time>
      </trkpt>
      <trkpt lat="43.12811" lon="-0.24927">
        <ele>309.508</ele>
        <time>2019-12-11T04:13:54Z</time>
      </trkpt>
      <trkpt lat="43.13022" lon="-0.24917">
        <ele>304.335</ele>
        <time>2019-12-11T04:14:14Z</time>
      </trkpt>
      <trkpt lat="43.13335" lon="-0.24885">
        <ele>303.124</ele>
        <time>2019-12-11T04:14:34Z</time>
      </trkpt>
      <trkpt lat="43.13516" lon="-0.24895">
        <ele>305.66</ele>
        <time>2019-12-11T04:14:54Z</time>
      </trkpt>
      <trkpt lat="43.13662" lon="-0.24952">
        <ele>300.996</ele>
        <time>2019-12-11T04:15:14Z</time>
      </trkpt>
      <trkpt lat="43.13795" lon="-0.24911">
        <ele>300.447</ele>
        <time>2019-12-11T04:15:34Z</time>
      </trkpt>
      <trkpt lat="43.13859" lon="-0.24909">
        <ele>300.889</ele>
        <time>2019-12-11T04:15:54Z</time>
      </trkpt>
      <trkpt lat="43.13924" lon="-0.24947">
        <ele>300.052</ele>
        <time>2019-12-11T04:16:14Z</time>
      </trkpt>
      <trkpt lat="43.14" lon="-0.25033">
        <ele>300.054</ele>
        <time>2019-12-11T04:16:34Z</time>
      </trkpt>
      <trkpt lat="43.14029" lon="-0.25046">
        <ele>300.061</ele>
        <time>2019-12-11T04:16:54Z</time>
      </trkpt>
      <trkpt lat="43.14068" lon="-0.25044">
        <ele>300.021</ele>
        <time>2019-12-11T04:17:14Z</time>
      </trkpt>
      <trkpt lat="43.14056" lon="-0.25252">
        <ele>300.013</ele>
        <time>2019-12-11T04:17:34Z</time>
      </trkpt>
      <trkpt lat="43.14072" lon="-0.25373">
        <ele>306.308</ele>
        <time>2019-12-11T04:17:54Z</time>
      </trkpt>
      <trkpt lat="43.14052" lon="-0.25435">
        <ele>315.022</ele>
        <time>2021-02-06T19:21:11Z</time>
      </trkpt>
      <trkpt lat="43.14116" lon="-0.25491">
        <ele>316.771</ele>
        <time>2021-02-06T19:21:31Z</time>
      </trkpt>
      <trkpt lat="43.14116" lon="-0.25569">
        <ele>321.577</ele>
        <time>2021-02-06T19:21:51Z</time>
      </trkpt>
      <trkpt lat="43.14236" lon="-0.25769">
        <ele>326.023</ele>
        <time>2016-10-04T16:52:59Z</time>
      </trkpt>
      <trkpt lat="43.14187" lon="-0.25789">
        <ele>327.094</ele>
        <time>2016-10-04T16:53:19Z</time>
      </trkpt>
      <trkpt lat="43.14087" lon="-0.25797">
        <ele>327.056</ele>
        <time>2016-10-04T16:53:39Z</time>
      </trkpt>
      <trkpt lat="43.14056" lon="-0.25883">
        <ele>328.079</ele>
        <time>2016-10-04T16:53:59Z</time>
      </trkpt>
      <trkpt lat="43.14001" lon="-0.25941">
        <ele>329.081</ele>
        <time>2016-10-04T16:54:19Z</time>
      </trkpt>
      <trkpt lat="43.13879" lon="-0.25986">
        <ele>333.019</ele>
        <time>2016-10-04T16:54:39Z</time>
      </trkpt>
      <trkpt lat="43.13815" lon="-0.26042">
        <ele>334.009</ele>
        <time>2016-10-04T16:54:59Z</time>
      </trkpt>
      <trkpt lat="43.13772" lon="-0.26181">
        <ele>334.019</ele>
        <time>2016-10-04T16:55:19Z</time>
      </trkpt>
      <trkpt lat="43.13703" lon="-0.26314">
        <ele>334.008</ele>
        <time>2016-10-04T16:55:39Z</time>
      </trkpt>
      <trkpt lat="43.13537" lon="-0.26454">
        <ele>337.037</ele>
        <time>2016-10-04T16:55:59Z</time>
      </trkpt>
      <trkpt lat="43.13514" lon="-0.26512">
        <ele>338.026</ele>
        <time>2016-10-04T16:56:19Z</time>
      </trkpt>
      <trkpt lat="43.13439" lon="-0.26707">
        <ele>344.082</ele>
        <time>2016-10-04T16:56:39Z</time>
      </trkpt>
      <trkpt lat="43.13401" lon="-0.26765">
        <ele>346.028</ele>
        <time>2016-10-04T16:56:59Z</time>
      </trkpt>
      <trkpt lat="43.1334" lon="-0.2672">
        <ele>345.089</ele>
        <time>2016-10-04T16:57:19Z</time>
      </trkpt>
      <trkpt lat="43.13337" lon="-0.2675">
        <ele>343.041</ele>
        <time>2016-10-04T16:57:39Z</time>
      </trkpt>
      <trkpt lat="43.13262" lon="-0.26969">
        <ele>326.054</ele>
        <time>2016-10-04T16:57:59Z</time>
      </trkpt>
      <trkpt lat="43.1313" lon="-0.27108">
        <ele>315.026</ele>
        <time>2016-10-04T16:58:19Z</time>
      </trkpt>
      <trkpt lat="43.13132" lon="-0.2717">
        <ele>315.037</ele>
        <time>2016-10-04T16:58:39Z</time>
      </trkpt>
      <trkpt lat="43.13147" lon="-0.27261">
        <ele>314.049</ele>
        <time>2016-10-04T16:58:59Z</time>
      </trkpt>
      <trkpt lat="43.13129" lon="-0.27376">
        <ele>313.013</ele>
        <time>2016-10-04T16:59:19Z</time>
      </trkpt>
      <trkpt lat="43.13133" lon="-0.27449">
        <ele>313.008</ele>
        <time>2016-10-04T16:59:39Z</time>
      </trkpt>
      <trkpt lat="43.13135" lon="-0.27587">
        <ele>309.059</ele>
        <time>2016-10-04T16:59:59Z</time>
      </trkpt>
      <trkpt lat="43.13146" lon="-0.2767">
        <ele>307.058</ele>
        <time>2016-10-04T17:00:19Z</time>
      </trkpt>
      <trkpt lat="43.13122" lon="-0.27745">
        <ele>307.054</ele>
        <time>2016-10-04T17:00:39Z</time>
      </trkpt>
      <trkpt lat="43.13113" lon="-0.27797">
        <ele>310.03</ele>
        <time>2016-10-04T17:00:59Z</time>
      </trkpt>
      <trkpt lat="43.13083" lon="-0.27894">
        <ele>316.031</ele>
        <time>2016-10-04T17:01:19Z</time>
      </trkpt>
      <trkpt lat="43.13022" lon="-0.28001">
        <ele>310.033</ele>
        <time>2016-10-04T17:01:39Z</time>
      </trkpt>
      <trkpt lat="43.12974" lon="-0.28039">
        <ele>313.026</ele>
        <time>2016-10-04T17:01:59Z</time>
      </trkpt>
      <trkpt lat="43.12945" lon="-0.28093">
        <ele>307.018</ele>
        <time>2016-10-04T17:02:19Z</time>
      </trkpt>
      <trkpt lat="43.12889" lon="-0.28155">
        <ele>309.087</ele>
        <time>2016-10-04T17:02:39Z</time>
      </trkpt>
      <trkpt lat="43.12787" lon="-0.28188">
        <ele>307.042</ele>
        <time>2016-10-04T17:02:59Z</time>
      </trkpt>
      <trkpt lat="43.12685" lon="-0.28179">
        <ele>308.026</ele>
        <time>2016-10-04T17:03:19Z</time>
      </trkpt>
      <trkpt lat="43.12512" lon="-0.28203">
        <ele>305.008</ele>
        <time>2016-10-04T17:03:39Z</time>
      </trkpt>
      <trkpt lat="43.12501" lon="-0.2828">
        <ele>305.034</ele>
        <time>2016-10-04T17:03:59Z</time>
      </trkpt>
      <trkpt lat="43.12551" lon="-0.28318">
        <ele>304.083</ele>
        <time>2016-10-04T17:04:19Z</time>
      </trkpt>
      <trkpt lat="43.12585" lon="-0.28376">
        <ele>304.019</ele>
        <time>2016-10-04T17:04:39Z</time>
      </trkpt>
      <trkpt lat="43.12599" lon="-0.28584">
        <ele>307.085</ele>
        <time>2016-10-04T17:04:59Z</time>
      </trkpt>
      <trkpt lat="43.12577" lon="-0.28653">
        <ele>309.016</ele>
        <time>2016-10-04T17:05:19Z</time>
      </trkpt>
      <trkpt lat="43.12606" lon="-0.28707">
        <ele>311.058</ele>
        <time>2016-10-04T17:05:39Z</time>
      </trkpt>
      <trkpt lat="43.12662" lon="-0.28718">
        <ele>310.071</ele>
        <time>2016-10-04T17:05:59Z</time>
      </trkpt>
      <trkpt lat="43.12684" lon="-0.28878">
        <ele>314.023</ele>
        <time>2016-10-04T17:06:19Z</time>
      </trkpt>
      <trkpt lat="43.12714" lon="-0.29001">
        <ele>324.016</ele>
        <time>2016-10-04T17:06:39Z</time>
      </trkpt>
      <trkpt lat="43.12753" lon="-0.29104">
        <ele>318.076</ele>
        <time>2016-10-04T17:06:59Z</time>
      </trkpt>
      <trkpt lat="43.12778" lon="-0.29213">
        <ele>315.013</ele>
        <time>2016-10-04T17:07:19Z</time>
      </trkpt>
      <trkpt lat="43.12776" lon="-0.29271">
        <ele>317.008</ele>
        <time>2016-10-04T17:07:39Z</time>
      </trkpt>
      <trkpt lat="43.12851" lon="-0.29348">
        <ele>313.087</ele>
        <time>2016-10-04T17:07:59Z</time>
      </trkpt>
      <trkpt lat="43.12889" lon="-0.29366">
        <ele>312.066</ele>
        <time>2016-10-04T17:08:19Z</time>
      </trkpt>
      <trkpt lat="43.12894" lon="-0.29411">
        <ele>312.022</ele>
        <time>2016-10-04T17:08:39Z</time>
      </trkpt>
      <trkpt lat="43.12862" lon="-0.29481">
        <ele>319.038</ele>
        <time>2016-10-04T17:08:59Z</time>
      </trkpt>
      <trkpt lat="43.1292" lon="-0.2972">
        <ele>317.069</ele>
        <time>2016-10-04T17:09:19Z</time>
      </trkpt>
      <trkpt lat="43.12886" lon="-0.29842">
        <ele>323.051</ele>
        <time>2016-10-04T17:09:39Z</time>
      </trkpt>
      <trkpt lat="43.1285" lon="-0.29921">
        <ele>323.054</ele>
        <time>2016-10-04T17:09:59Z</time>
      </trkpt>
      <trkpt lat="43.128" lon="-0.29988">
        <ele>324.026</ele>
        <time>2016-10-04T17:10:19Z</time>
      </trkpt>
      <trkpt lat="43.12729" lon="-0.29999">
        <ele>323.042</ele>
        <time>2016-10-04T17:10:39Z</time>
      </trkpt>
      <trkpt lat="43.12681" lon="-0.3005">
        <ele>318.022</ele>
        <time>2016-10-04T17:10:59Z</time>
      </trkpt>
      <trkpt lat="43.12607" lon="-0.30175">
        <ele>314.014</ele>
        <time>2016-10-04T17:11:19Z</time>
      </trkpt>
      <trkpt lat="43.12646" lon="-0.30183">
        <ele>312.008</ele>
        <time>2016-10-04T17:11:39Z</time>
      </trkpt>
      <trkpt lat="43.12675" lon="-0.30211">
        <ele>311.01</ele>
        <time>2016-10-04T17:11:59Z</time>
      </trkpt>
      <trkpt lat="43.12695" lon="-0.30335">
        <ele>313.039</ele>
        <time>2016-10-04T17:12:19Z</time>
      </trkpt>
      <trkpt lat="43.12535" lon="-0.30389">
        <ele>312.015</ele>
        <time>2016-10-04T17:12:39Z</time>
      </trkpt>
      <trkpt lat="43.12352" lon="-0.3038">
        <ele>319.071</ele>
        <time>2016-10-04T17:12:59Z</time>
      </trkpt>
      <trkpt lat="43.12252" lon="-0.30361">
        <ele>324.092</ele>
        <time>2016-10-04T17:13:19Z</time>
      </trkpt>
      <trkpt lat="43.12028" lon="-0.30243">
        <ele>336.084</ele>
        <time>2016-10-04T17:13:39Z</time>
      </trkpt>
      <trkpt lat="43.11967" lon="-0.30254">
        <ele>339.047</ele>
        <time>2016-10-04T17:13:59Z</time>
      </trkpt>
      <trkpt lat="43.11916" lon="-0.30252">
        <ele>343.019</ele>
        <time>2016-10-04T17:14:19Z</time>
      </trkpt>
      <trkpt lat="43.11833" lon="-0.30271">
        <ele>353.075</ele>
        <time>2016-10-04T17:14:39Z</time>
      </trkpt>
      <trkpt lat="43.11772" lon="-0.30273">
        <ele>360.028</ele>
        <time>2016-10-04T17:14:59Z</time>
      </trkpt>
      <trkpt lat="43.11694" lon="-0.30187">
        <ele>349.02</ele>
        <time>2016-10-04T17:15:19Z</time>
      </trkpt>
      <trkpt lat="43.11682" lon="-0.3019">
        <ele>347.008</ele>
        <time>2016-10-04T17:15:39Z</time>
      </trkpt>
      <trkpt lat="43.11661" lon="-0.30323">
        <ele>345.063</ele>
        <time>2016-10-04T17:15:59Z</time>
      </trkpt>
      <trkpt lat="43.11608" lon="-0.3037">
        <ele>341.022</ele>
        <time>2016-10-04T17:16:19Z</time>
      </trkpt>
      <trkpt lat="43.1163" lon="-0.30565">
        <ele>356.098</ele>
        <time>2016-10-04T17:16:39Z</time>
      </trkpt>
      <trkpt lat="43.11536" lon="-0.30649">
        <ele>346.024</ele>
        <time>2016-10-04T17:16:59Z</time>
      </trkpt>
      <trkpt lat="43.11619" lon="-0.30825">
        <ele>345.075</ele>
        <time>2016-10-04T17:17:19Z</time>
      </trkpt>
      <trkpt lat="43.11722" lon="-0.30872">
        <ele>343.027</ele>
        <time>2016-10-04T17:17:39Z</time>
      </trkpt>
      <trkpt lat="43.11774" lon="-0.30857">
        <ele>342.07</ele>
        <time>2016-10-04T17:17:59Z</time>
      </trkpt>
      <trkpt lat="43.11854" lon="-0.30979">
        <ele>333.032</ele>
        <time>2016-10-04T17:18:19Z</time>
      </trkpt>
      <trkpt lat="43.11714" lon="-0.31211">
        <ele>331.063</ele>
        <time>2016-10-04T17:18:39Z</time>
      </trkpt>
      <trkpt lat="43.11672" lon="-0.31398">
        <ele>333.044</ele>
        <time>2016-10-04T17:18:59Z</time>
      </trkpt>
      <trkpt lat="43.11652" lon="-0.31537">
        <ele>334.018</ele>
        <time>2016-10-04T17:19:19Z</time>
      </trkpt>
      <trkpt lat="43.11661" lon="-0.31582">
        <ele>334.008</ele>
        <time>2016-10-04T17:19:39Z</time>
      </trkpt>
      <trkpt lat="43.11552" lon="-0.31803">
        <ele>338.072</ele>
        <time>2016-10-04T17:19:59Z</time>
      </trkpt>
      <trkpt lat="43.11453" lon="-0.31822">
        <ele>342.091</ele>
        <time>2016-10-04T17:20:19Z</time>
      </trkpt>
      <trkpt lat="43.11342" lon="-0.32222">
        <ele>367.057</ele>
        <time>2016-10-04T17:20:39Z</time>
      </trkpt>
      <trkpt lat="43.11349" lon="-0.32269">
        <ele>369.043</ele>
        <time>2016-10-04T17:20:59Z</time>
      </trkpt>
      <trkpt lat="43.11382" lon="-0.32305">
        <ele>370.024</ele>
        <time>2016-10-04T17:21:19Z</time>
      </trkpt>
      <trkpt lat="43.1144" lon="-0.32468">
        <ele>375.066</ele>
        <time>2016-10-04T17:21:39Z</time>
      </trkpt>
      <trkpt lat="43.11484" lon="-0.32533">
        <ele>378.039</ele>
        <time>2016-10-04T17:21:59Z</time>
      </trkpt>
      <trkpt lat="43.11523" lon="-0.32679">
        <ele>379.081</ele>
        <time>2016-10-04T17:22:19Z</time>
      </trkpt>
      <trkpt lat="43.11542" lon="-0.32822">
        <ele>377.084</ele>
        <time>2016-10-04T17:22:39Z</time>
      </trkpt>
      <trkpt lat="43.11537" lon="-0.32949">
        <ele>377.007</ele>
        <time>2016-10-04T17:22:59Z</time>
      </trkpt>
      <trkpt lat="43.11592" lon="-0.33297">
        <ele>364.017</ele>
        <time>2016-10-04T17:23:19Z</time>
      </trkpt>
      <trkpt lat="43.11573" lon="-0.33312">
        <ele>359.008</ele>
        <time>2016-10-04T17:23:39Z</time>
      </trkpt>
      <trkpt lat="43.11487" lon="-0.33329">
        <ele>356.054</ele>
        <time>2016-10-04T17:23:59Z</time>
      </trkpt>
      <trkpt lat="43.11462" lon="-0.33385">
        <ele>353.053</ele>
        <time>2016-10-04T17:24:19Z</time>
      </trkpt>
      <trkpt lat="43.11453" lon="-0.34015">
        <ele>351.069</ele>
        <time>2016-10-04T17:24:39Z</time>
      </trkpt>
      <trkpt lat="43.11266" lon="-0.34569">
        <ele>367.065</ele>
        <time>2016-10-04T17:24:59Z</time>
      </trkpt>
      <trkpt lat="43.11226" lon="-0.34734">
        <ele>368.056</ele>
        <time>2016-10-04T17:25:19Z</time>
      </trkpt>
      <trkpt lat="43.11086" lon="-0.35183">
        <ele>364.028</ele>
        <time>2016-10-04T17:25:39Z</time>
      </trkpt>
      <trkpt lat="43.1105" lon="-0.35202">
        <ele>364.051</ele>
        <time>2016-10-04T17:25:59Z</time>
      </trkpt>
      <trkpt lat="43.11055" lon="-0.35239">
        <ele>365.023</ele>
        <time>2016-10-04T17:26:19Z</time>
      </trkpt>
      <trkpt lat="43.11085" lon="-0.3526">
        <ele>371.027</ele>
        <time>2016-10-04T17:26:39Z</time>
      </trkpt>
      <trkpt lat="43.11086" lon="-0.35326">
        <ele>383.068</ele>
        <time>2016-10-04T17:26:59Z</time>
      </trkpt>
      <trkpt lat="43.11144" lon="-0.35414">
        <ele>397.014</ele>
        <time>2016-10-04T17:27:19Z</time>
      </trkpt>
      <trkpt lat="43.11157" lon="-0.35494">
        <ele>406.008</ele>
        <time>2016-10-04T17:27:39Z</time>
      </trkpt>
      <trkpt lat="43.11141" lon="-0.3561">
        <ele>416.018</ele>
        <time>2016-10-04T17:27:59Z</time>
      </trkpt>
      <trkpt lat="43.11066" lon="-0.36028">
        <ele>448.087</ele>
        <time>2016-10-04T17:28:19Z</time>
      </trkpt>
      <trkpt lat="43.11005" lon="-0.36204">
        <ele>477.043</ele>
        <time>2016-10-04T17:28:39Z</time>
      </trkpt>
      <trkpt lat="43.1097" lon="-0.36356">
        <ele>481.029</ele>
        <time>2016-10-04T17:28:59Z</time>
      </trkpt>
      <trkpt lat="43.10952" lon="-0.3647">
        <ele>484.02</ele>
        <time>2016-10-04T17:29:19Z</time>
      </trkpt>
      <trkpt lat="43.10851" lon="-0.36837">
        <ele>491.082</ele>
        <time>2016-10-04T17:29:39Z</time>
      </trkpt>
      <trkpt lat="43.10836" lon="-0.36947">
        <ele>495.035</ele>
        <time>2016-10-04T17:29:59Z</time>
      </trkpt>
      <trkpt lat="43.10828" lon="-0.37165">
        <ele>493.097</ele>
        <time>2016-10-04T17:30:19Z</time>
      </trkpt>
      <trkpt lat="43.10775" lon="-0.37423">
        <ele>507.085</ele>
        <time>2016-10-04T17:30:39Z</time>
      </trkpt>
      <trkpt lat="43.10715" lon="-0.37635">
        <ele>520.089</ele>
        <time>2016-10-04T17:30:59Z</time>
      </trkpt>
      <trkpt lat="43.10673" lon="-0.37691">
        <ele>525.017</ele>
        <time>2016-10-04T17:31:19Z</time>
      </trkpt>
      <trkpt lat="43.1058" lon="-0.37685">
        <ele>524.008</ele>
        <time>2016-10-04T17:31:39Z</time>
      </trkpt>
      <trkpt lat="43.1051" lon="-0.37751">
        <ele>531.034</ele>
        <time>2016-10-04T17:31:59Z</time>
      </trkpt>
      <trkpt lat="43.10406" lon="-0.37912">
        <ele>530.063</ele>
        <time>2016-10-04T17:32:19Z</time>
      </trkpt>
      <trkpt lat="43.10378" lon="-0.38">
        <ele>527.049</ele>
        <time>2016-10-04T17:32:39Z</time>
      </trkpt>
      <trkpt lat="43.10364" lon="-0.38142">
        <ele>517.015</ele>
        <time>2016-10-04T17:32:59Z</time>
      </trkpt>
      <trkpt lat="43.10417" lon="-0.38358">
        <ele>517.016</ele>
        <time>2016-10-04T17:33:19Z</time>
      </trkpt>
      <trkpt lat="43.10427" lon="-0.3847">
        <ele>507.038</ele>
        <time>2016-10-04T17:33:39Z</time>
      </trkpt>
      <trkpt lat="43.10442" lon="-0.38556">
        <ele>496.091</ele>
        <time>2016-10-04T17:33:59Z</time>
      </trkpt>
      <trkpt lat="43.10496" lon="-0.38642">
        <ele>485.053</ele>
        <time>2016-10-04T17:34:19Z</time>
      </trkpt>
      <trkpt lat="43.10502" lon="-0.38865">
        <ele>468.066</ele>
        <time>2016-10-04T17:34:39Z</time>
      </trkpt>
      <trkpt lat="43.10452" lon="-0.38949">
        <ele>467.029</ele>
        <time>2016-10-04T17:34:59Z</time>
      </trkpt>
      <trkpt lat="43.1053" lon="-0.39015">
        <ele>465.021</ele>
        <time>2016-10-04T17:35:19Z</time>
      </trkpt>
      <trkpt lat="43.10555" lon="-0.39052">
        <ele>463.008</ele>
        <time>2016-10-04T17:35:39Z</time>
      </trkpt>
      <trkpt lat="43.10605" lon="-0.39094">
        <ele>455.052</ele>
        <time>2016-10-04T17:35:59Z</time>
      </trkpt>
      <trkpt lat="43.1067" lon="-0.39086">
        <ele>452.081</ele>
        <time>2016-10-04T17:36:19Z</time>
      </trkpt>
      <trkpt lat="43.1066" lon="-0.39176">
        <ele>450.017</ele>
        <time>2016-10-04T17:36:39Z</time>
      </trkpt>
      <trkpt lat="43.10632" lon="-0.3926">
        <ele>447.083</ele>
        <time>2016-10-04T17:36:59Z</time>
      </trkpt>
      <trkpt lat="43.10674" lon="-0.39367">
        <ele>443.044</ele>
        <time>2016-10-04T17:37:19Z</time>
      </trkpt>
      <trkpt lat="43.10762" lon="-0.39335">
        <ele>437.046</ele>
        <time>2016-10-04T17:37:39Z</time>
      </trkpt>
      <trkpt lat="43.10844" lon="-0.39397">
        <ele>441.079</ele>
        <time>2016-10-04T17:37:59Z</time>
      </trkpt>
      <trkpt lat="43.10834" lon="-0.39461">
        <ele>444.091</ele>
        <time>2016-10-04T17:38:19Z</time>
      </trkpt>
      <trkpt lat="43.10797" lon="-0.39541">
        <ele>451.013</ele>
        <time>2016-10-04T17:38:39Z</time>
      </trkpt>
      <trkpt lat="43.10765" lon="-0.39556">
        <ele>453.043</ele>
        <time>2016-10-04T17:38:59Z</time>
      </trkpt>
      <trkpt lat="43.10737" lon="-0.39639">
        <ele>465.007</ele>
        <time>2016-10-04T17:39:19Z</time>
      </trkpt>
      <trkpt lat="43.10728" lon="-0.39734">
        <ele>472.008</ele>
        <time>2016-10-04T17:39:39Z</time>
      </trkpt>
      <trkpt lat="43.10665" lon="-0.39891">
        <ele>488.087</ele>
        <time>2016-10-04T17:39:59Z</time>
      </trkpt>
      <trkpt lat="43.10421" lon="-0.40146">
        <ele>517.076</ele>
        <time>2016-10-04T17:40:19Z</time>
      </trkpt>
      <trkpt lat="43.1041" lon="-0.40176">
        <ele>525.062</ele>
        <time>2016-10-04T17:40:39Z</time>
      </trkpt>
      <trkpt lat="43.10383" lon="-0.40193">
        <ele>530.078</ele>
        <time>2016-10-04T17:40:59Z</time>
      </trkpt>
      <trkpt lat="43.10378" lon="-0.40208">
        <ele>532.079</ele>
        <time>2016-10-04T17:41:19Z</time>
      </trkpt>
      <trkpt lat="43.10306" lon="-0.40225">
        <ele>534.071</ele>
        <time>2016-10-04T17:41:39Z</time>
      </trkpt>
      <trkpt lat="43.10292" lon="-0.40253">
        <ele>539.074</ele>
        <time>2016-10-04T17:41:59Z</time>
      </trkpt>
      <trkpt lat="43.10298" lon="-0.40296">
        <ele>542.086</ele>
        <time>2016-10-04T17:42:19Z</time>
      </trkpt>
      <trkpt lat="43.1028" lon="-0.40343">
        <ele>549.077</ele>
        <time>2016-10-04T17:42:39Z</time>
      </trkpt>
      <trkpt lat="43.10217" lon="-0.40378">
        <ele>544.061</ele>
        <time>2016-10-04T17:42:59Z</time>
      </trkpt>
      <trkpt lat="43.10181" lon="-0.40453">
        <ele>545.027</ele>
        <time>2016-10-04T17:43:19Z</time>
      </trkpt>
      <trkpt lat="43.10128" lon="-0.40506">
        <ele>534.008</ele>
        <time>2016-10-04T17:43:39Z</time>
      </trkpt>
      <trkpt lat="43.10118" lon="-0.40599">
        <ele>528.093</ele>
        <time>2016-10-04T17:43:59Z</time>
      </trkpt>
      <trkpt lat="43.10153" lon="-0.40691">
        <ele>523.022</ele>
        <time>2016-10-04T17:44:19Z</time>
      </trkpt>
      <trkpt lat="43.10192" lon="-0.40818">
        <ele>525.018</ele>
        <time>2016-10-04T17:44:39Z</time>
      </trkpt>
      <trkpt lat="43.10203" lon="-0.40869">
        <ele>517.044</ele>
        <time>2016-10-04T17:44:59Z</time>
      </trkpt>
      <trkpt lat="43.10245" lon="-0.40946">
        <ele>507.045</ele>
        <time>2016-10-04T17:45:19Z</time>
      </trkpt>
      <trkpt lat="43.10259" lon="-0.41043">
        <ele>500.047</ele>
        <time>2016-10-04T17:45:39Z</time>
      </trkpt>
      <trkpt lat="43.10265" lon="-0.41122">
        <ele>491.08</ele>
        <time>2016-10-04T17:45:59Z</time>
      </trkpt>
      <trkpt lat="43.10284" lon="-0.41133">
        <ele>489.082</ele>
        <time>2016-10-04T17:46:19Z</time>
      </trkpt>
      <trkpt lat="43.10342" lon="-0.41118">
        <ele>486.084</ele>
        <time>2016-10-04T17:46:39Z</time>
      </trkpt>
      <trkpt lat="43.10403" lon="-0.41116">
        <ele>485.007</ele>
        <time>2016-10-04T17:46:59Z</time>
      </trkpt>
      <trkpt lat="43.1048" lon="-0.41086">
        <ele>480.017</ele>
        <time>2016-10-04T17:47:19Z</time>
      </trkpt>
      <trkpt lat="43.10521" lon="-0.41075">
        <ele>489.008</ele>
        <time>2016-10-04T17:47:39Z</time>
      </trkpt>
      <trkpt lat="43.10576" lon="-0.41133">
        <ele>475.044</ele>
        <time>2016-10-04T17:47:59Z</time>
      </trkpt>
      <trkpt lat="43.10602" lon="-0.41148">
        <ele>472.083</ele>
        <time>2016-10-04T17:48:19Z</time>
      </trkpt>
      <trkpt lat="43.10637" lon="-0.41195">
        <ele>461.089</ele>
        <time>2016-10-04T17:48:39Z</time>
      </trkpt>
      <trkpt lat="43.10709" lon="-0.41157">
        <ele>464.055</ele>
        <time>2016-10-04T17:48:59Z</time>
      </trkpt>
      <trkpt lat="43.1075" lon="-0.41167">
        <ele>457.036</ele>
        <time>2016-10-04T17:49:19Z</time>
      </trkpt>
      <trkpt lat="43.10815" lon="-0.41109">
        <ele>468.058</ele>
        <time>2016-10-04T17:49:39Z</time>
      </trkpt>
      <trkpt lat="43.10916" lon="-0.41084">
        <ele>481.061</ele>
        <time>2016-10-04T17:49:59Z</time>
      </trkpt>
      <trkpt lat="43.11024" lon="-0.41077">
        <ele>491.093</ele>
        <time>2016-10-04T17:50:19Z</time>
      </trkpt>
      <trkpt lat="43.1111" lon="-0.41062">
        <ele>488.022</ele>
        <time>2016-10-04T17:50:39Z</time>
      </trkpt>
      <trkpt lat="43.1127" lon="-0.41109">
        <ele>473.062</ele>
        <time>2016-10-04T17:50:59Z</time>
      </trkpt>
      <trkpt lat="43.11317" lon="-0.41148">
        <ele>472.008</ele>
        <time>2016-10-04T17:51:19Z</time>
      </trkpt>
      <trkpt lat="43.11362" lon="-0.41129">
        <ele>473.008</ele>
        <time>2016-10-04T17:51:39Z</time>
      </trkpt>
      <trkpt lat="43.11429" lon="-0.41131">
        <ele>478.088</ele>
        <time>2016-10-04T17:51:59Z</time>
      </trkpt>
      <trkpt lat="43.11476" lon="-0.41199">
        <ele>483.077</ele>
        <time>2016-10-04T17:52:19Z</time>
      </trkpt>
      <trkpt lat="43.11595" lon="-0.41174">
        <ele>505.033</ele>
        <time>2016-10-04T17:52:39Z</time>
      </trkpt>
      <trkpt lat="43.11708" lon="-0.41139">
        <ele>526.069</ele>
        <time>2016-10-04T17:52:59Z</time>
      </trkpt>
      <trkpt lat="43.11846" lon="-0.41062">
        <ele>548.01</ele>
        <time>2016-10-04T17:53:19Z</time>
      </trkpt>
      <trkpt lat="43.11874" lon="-0.41238">
        <ele>564.042</ele>
        <time>2016-10-04T17:53:39Z</time>
      </trkpt>
      <trkpt lat="43.12046" lon="-0.41348">
        <ele>565.085</ele>
        <time>2016-10-04T17:53:59Z</time>
      </trkpt>
      <trkpt lat="43.12375" lon="-0.41363">
        <ele>537.027</ele>
        <time>2016-10-04T17:54:19Z</time>
      </trkpt>
      <trkpt lat="43.12469" lon="-0.41386">
        <ele>529.023</ele>
        <time>2016-10-04T17:54:39Z</time>
      </trkpt>
      <trkpt lat="43.12507" lon="-0.41448">
        <ele>523.083</ele>
        <time>2016-10-04T17:54:59Z</time>
      </trkpt>
      <trkpt lat="43.12557" lon="-0.41485">
        <ele>521.011</ele>
        <time>2016-10-04T17:55:19Z</time>
      </trkpt>
      <trkpt lat="43.12424" lon="-0.41556">
        <ele>544.008</ele>
        <time>2016-10-04T17:55:39Z</time>
      </trkpt>
      <trkpt lat="43.1236" lon="-0.41609">
        <ele>561.048</ele>
        <time>2016-10-04T17:55:59Z</time>
      </trkpt>
      <trkpt lat="43.1231" lon="-0.41629">
        <ele>568.027</ele>
        <time>2016-10-04T17:56:19Z</time>
      </trkpt>
      <trkpt lat="43.12286" lon="-0.4165">
        <ele>568.083</ele>
        <time>2016-10-04T17:56:39Z</time>
      </trkpt>
      <trkpt lat="43.12263" lon="-0.41657">
        <ele>568.049</ele>
        <time>2016-10-04T17:56:59Z</time>
      </trkpt>
      <trkpt lat="43.12197" lon="-0.41729">
        <ele>557.04</ele>
        <time>2016-10-04T17:57:19Z</time>
      </trkpt>
      <trkpt lat="43.12313" lon="-0.41897">
        <ele>551.082</ele>
        <time>2016-10-04T17:57:39Z</time>
      </trkpt>
      <trkpt lat="43.12429" lon="-0.42066">
        <ele>538.055</ele>
        <time>2016-10-04T17:57:59Z</time>
      </trkpt>
      <trkpt lat="43.12371" lon="-0.42105">
        <ele>518.037</ele>
        <time>2016-10-04T17:58:19Z</time>
      </trkpt>
      <trkpt lat="43.124" lon="-0.42161">
        <ele>516.087</ele>
        <time>2016-10-04T17:58:39Z</time>
      </trkpt>
      <trkpt lat="43.12449" lon="-0.42214">
        <ele>512.042</ele>
        <time>2016-10-04T17:58:59Z</time>
      </trkpt>
      <trkpt lat="43.12552" lon="-0.42397">
        <ele>498.026</ele>
        <time>2016-10-04T17:59:19Z</time>
      </trkpt>
      <trkpt lat="43.12581" lon="-0.42412">
        <ele>501.008</ele>
        <time>2016-10-04T17:59:39Z</time>
      </trkpt>
      <trkpt lat="43.12587" lon="-0.42457">
        <ele>494.024</ele>
        <time>2016-10-04T17:59:59Z</time>
      </trkpt>
      <trkpt lat="43.1264" lon="-0.42553">
        <ele>482.093</ele>
        <time>2016-10-04T18:00:19Z</time>
      </trkpt>
      <trkpt lat="43.12654" lon="-0.42639">
        <ele>472.079</ele>
        <time>2016-10-04T18:00:39Z</time>
      </trkpt>
      <trkpt lat="43.12648" lon="-0.4266">
        <ele>470.475</ele>
        <time>2021-02-06T20:30:11Z</time>
      </trkpt>
      <trkpt lat="43.12666" lon="-0.42679">
        <ele>473.296</ele>
        <time>2021-02-06T20:30:31Z</time>
      </trkpt>
      <trkpt lat="43.12688" lon="-0.42742">
        <ele>475.678</ele>
        <time>2021-02-06T20:30:51Z</time>
      </trkpt>
      <trkpt lat="43.12684" lon="-0.42815">
        <ele>475.761</ele>
        <time>2021-02-06T20:31:11Z</time>
      </trkpt>
      <trkpt lat="43.12689" lon="-0.42822">
        <ele>478.053</ele>
        <time>2016-10-04T18:02:19Z</time>
      </trkpt>
      <trkpt lat="43.12678" lon="-0.42849">
        <ele>476.072</ele>
        <time>2021-02-06T20:31:51Z</time>
      </trkpt>
      <trkpt lat="43.12665" lon="-0.42852">
        <ele>474.213</ele>
        <time>2021-02-06T20:32:11Z</time>
      </trkpt>
      <trkpt lat="43.12635" lon="-0.42923">
        <ele>465.014</ele>
        <time>2016-10-04T18:03:19Z</time>
      </trkpt>
      <trkpt lat="43.12693" lon="-0.43066">
        <ele>469.008</ele>
        <time>2016-10-04T18:03:39Z</time>
      </trkpt>
      <trkpt lat="43.12725" lon="-0.43098">
        <ele>467.053</ele>
        <time>2016-10-04T18:03:59Z</time>
      </trkpt>
      <trkpt lat="43.12762" lon="-0.43264">
        <ele>459.032</ele>
        <time>2016-10-04T18:04:19Z</time>
      </trkpt>
      <trkpt lat="43.12886" lon="-0.43431">
        <ele>460.078</ele>
        <time>2016-10-04T18:04:39Z</time>
      </trkpt>
      <trkpt lat="43.12877" lon="-0.4345">
        <ele>459.064</ele>
        <time>2016-10-04T18:04:59Z</time>
      </trkpt>
      <trkpt lat="43.12884" lon="-0.43562">
        <ele>454.095</ele>
        <time>2016-10-04T18:05:19Z</time>
      </trkpt>
      <trkpt lat="43.12872" lon="-0.43762">
        <ele>444.027</ele>
        <time>2016-10-04T18:05:39Z</time>
      </trkpt>
      <trkpt lat="43.12881" lon="-0.43807">
        <ele>443.05</ele>
        <time>2016-10-04T18:05:59Z</time>
      </trkpt>
      <trkpt lat="43.12853" lon="-0.43845">
        <ele>440.022</ele>
        <time>2016-10-04T18:06:19Z</time>
      </trkpt>
      <trkpt lat="43.12873" lon="-0.43925">
        <ele>436.076</ele>
        <time>2016-10-04T18:06:39Z</time>
      </trkpt>
      <trkpt lat="43.12823" lon="-0.43985">
        <ele>428.09</ele>
        <time>2016-10-04T18:06:59Z</time>
      </trkpt>
      <trkpt lat="43.12789" lon="-0.44062">
        <ele>424.019</ele>
        <time>2016-10-04T18:07:19Z</time>
      </trkpt>
      <trkpt lat="43.12739" lon="-0.44229">
        <ele>420.008</ele>
        <time>2016-10-04T18:07:39Z</time>
      </trkpt>
      <trkpt lat="43.12662" lon="-0.44191">
        <ele>419.023</ele>
        <time>2016-10-04T18:07:59Z</time>
      </trkpt>
      <trkpt lat="43.12654" lon="-0.44231">
        <ele>420.052</ele>
        <time>2016-10-04T18:08:19Z</time>
      </trkpt>
      <trkpt lat="43.12681" lon="-0.443">
        <ele>425.078</ele>
        <time>2016-10-04T18:08:39Z</time>
      </trkpt>
      <trkpt lat="43.12715" lon="-0.44319">
        <ele>424.084</ele>
        <time>2016-10-04T18:08:59Z</time>
      </trkpt>
      <trkpt lat="43.12792" lon="-0.44369">
        <ele>423.035</ele>
        <time>2016-10-04T18:09:19Z</time>
      </trkpt>
      <trkpt lat="43.12898" lon="-0.44377">
        <ele>422.047</ele>
        <time>2016-10-04T18:09:39Z</time>
      </trkpt>
      <trkpt lat="43.12944" lon="-0.44414">
        <ele>419.09</ele>
        <time>2016-10-04T18:09:59Z</time>
      </trkpt>
      <trkpt lat="43.1296" lon="-0.44465">
        <ele>416.062</ele>
        <time>2016-10-04T18:10:19Z</time>
      </trkpt>
      <trkpt lat="43.1296" lon="-0.44555">
        <ele>411.096</ele>
        <time>2016-10-04T18:10:39Z</time>
      </trkpt>
      <trkpt lat="43.12908" lon="-0.44592">
        <ele>412.031</ele>
        <time>2016-10-04T18:10:59Z</time>
      </trkpt>
      <trkpt lat="43.12889" lon="-0.44658">
        <ele>408.024</ele>
        <time>2016-10-04T18:11:19Z</time>
      </trkpt>
      <trkpt lat="43.12848" lon="-0.44641">
        <ele>411.008</ele>
        <time>2016-10-04T18:11:39Z</time>
      </trkpt>
      <trkpt lat="43.12836" lon="-0.44594">
        <ele>417.085</ele>
        <time>2016-10-04T18:11:59Z</time>
      </trkpt>
      <trkpt lat="43.12667" lon="-0.44487">
        <ele>438.094</ele>
        <time>2016-10-04T18:12:19Z</time>
      </trkpt>
      <trkpt lat="43.12621" lon="-0.44463">
        <ele>443.01</ele>
        <time>2016-10-04T18:12:39Z</time>
      </trkpt>
      <trkpt lat="43.12602" lon="-0.44506">
        <ele>440.036</ele>
        <time>2016-10-04T18:12:59Z</time>
      </trkpt>
      <trkpt lat="43.12601" lon="-0.44567">
        <ele>434.797</ele>
        <time>2021-02-06T20:42:31Z</time>
      </trkpt>
      <trkpt lat="43.1262" lon="-0.44678">
        <ele>427.039</ele>
        <time>2016-10-04T18:13:19Z</time>
      </trkpt>
      <trkpt lat="43.12621" lon="-0.44851">
        <ele>429.552</ele>
        <time>2021-02-06T20:43:11Z</time>
      </trkpt>
      <trkpt lat="43.12607" lon="-0.44963">
        <ele>412.014</ele>
        <time>2021-02-06T20:43:31Z</time>
      </trkpt>
      <trkpt lat="43.12619" lon="-0.44995">
        <ele>408.064</ele>
        <time>2021-02-06T20:43:51Z</time>
      </trkpt>
      <trkpt lat="43.12652" lon="-0.45011">
        <ele>405.106</ele>
        <time>2021-02-06T20:44:11Z</time>
      </trkpt>
      <trkpt lat="43.12647" lon="-0.4508">
        <ele>405.916</ele>
        <time>2021-02-06T20:44:31Z</time>
      </trkpt>
      <trkpt lat="43.1275" lon="-0.4533">
        <ele>400.008</ele>
        <time>2016-10-04T18:17:19Z</time>
      </trkpt>
      <trkpt lat="43.12808" lon="-0.45442">
        <ele>393.052</ele>
        <time>2016-10-04T18:17:39Z</time>
      </trkpt>
      <trkpt lat="43.12864" lon="-0.45605">
        <ele>387.071</ele>
        <time>2016-10-04T18:17:59Z</time>
      </trkpt>
      <trkpt lat="43.12936" lon="-0.45645">
        <ele>384.047</ele>
        <time>2016-10-04T18:18:19Z</time>
      </trkpt>
      <trkpt lat="43.12975" lon="-0.45731">
        <ele>381.073</ele>
        <time>2016-10-04T18:18:39Z</time>
      </trkpt>
      <trkpt lat="43.13017" lon="-0.45952">
        <ele>373.014</ele>
        <time>2016-10-04T18:18:59Z</time>
      </trkpt>
      <trkpt lat="43.13025" lon="-0.4609">
        <ele>371.076</ele>
        <time>2016-10-04T18:19:19Z</time>
      </trkpt>
      <trkpt lat="43.13005" lon="-0.46118">
        <ele>371.079</ele>
        <time>2016-10-04T18:19:39Z</time>
      </trkpt>
      <trkpt lat="43.13028" lon="-0.46188">
        <ele>371.081</ele>
        <time>2016-10-04T18:19:59Z</time>
      </trkpt>
      <trkpt lat="43.13052" lon="-0.46221">
        <ele>370.079</ele>
        <time>2016-10-04T18:20:19Z</time>
      </trkpt>
      <trkpt lat="43.13085" lon="-0.46304">
        <ele>368.005</ele>
        <time>2016-10-04T18:20:39Z</time>
      </trkpt>
      <trkpt lat="43.13115" lon="-0.46347">
        <ele>368.025</ele>
        <time>2016-10-04T18:20:59Z</time>
      </trkpt>
      <trkpt lat="43.13191" lon="-0.46422">
        <ele>364.008</ele>
        <time>2016-10-04T18:21:19Z</time>
      </trkpt>
      <trkpt lat="43.13219" lon="-0.46499">
        <ele>363.093</ele>
        <time>2016-10-04T18:21:39Z</time>
      </trkpt>
      <trkpt lat="43.13218" lon="-0.46572">
        <ele>364.042</ele>
        <time>2016-10-04T18:21:59Z</time>
      </trkpt>
      <trkpt lat="43.13235" lon="-0.46652">
        <ele>364.048</ele>
        <time>2016-10-04T18:22:19Z</time>
      </trkpt>
      <trkpt lat="43.13245" lon="-0.46716">
        <ele>366.094</ele>
        <time>2016-10-04T18:22:39Z</time>
      </trkpt>
      <trkpt lat="43.13276" lon="-0.46826">
        <ele>364.035</ele>
        <time>2016-10-04T18:22:59Z</time>
      </trkpt>
      <trkpt lat="43.13332" lon="-0.46972">
        <ele>365.077</ele>
        <time>2016-10-04T18:23:19Z</time>
      </trkpt>
      <trkpt lat="43.13353" lon="-0.47025">
        <ele>365.06</ele>
        <time>2016-10-04T18:23:39Z</time>
      </trkpt>
      <trkpt lat="43.13403" lon="-0.47075">
        <ele>364.092</ele>
        <time>2016-10-04T18:23:59Z</time>
      </trkpt>
      <trkpt lat="43.13501" lon="-0.47261">
        <ele>357.029</ele>
        <time>2016-10-04T18:24:19Z</time>
      </trkpt>
      <trkpt lat="43.13512" lon="-0.47336">
        <ele>356</ele>
        <time>2016-10-04T18:24:39Z</time>
      </trkpt>
      <trkpt lat="43.13531" lon="-0.4739">
        <ele>355.02</ele>
        <time>2016-10-04T18:24:59Z</time>
      </trkpt>
      <trkpt lat="43.13553" lon="-0.4742">
        <ele>353.008</ele>
        <time>2016-10-04T18:25:19Z</time>
      </trkpt>
      <trkpt lat="43.1358" lon="-0.47495">
        <ele>352.028</ele>
        <time>2016-10-04T18:25:39Z</time>
      </trkpt>
      <trkpt lat="43.13578" lon="-0.47673">
        <ele>349.097</ele>
        <time>2016-10-04T18:25:59Z</time>
      </trkpt>
      <trkpt lat="43.1357" lon="-0.47723">
        <ele>348.083</ele>
        <time>2016-10-04T18:26:19Z</time>
      </trkpt>
      <trkpt lat="43.13558" lon="-0.47793">
        <ele>346.049</ele>
        <time>2016-10-04T18:26:39Z</time>
      </trkpt>
      <trkpt lat="43.13531" lon="-0.47864">
        <ele>345.01</ele>
        <time>2016-10-04T18:26:59Z</time>
      </trkpt>
      <trkpt lat="43.13603" lon="-0.48059">
        <ele>345.012</ele>
        <time>2016-10-04T18:27:19Z</time>
      </trkpt>
      <trkpt lat="43.13606" lon="-0.4815">
        <ele>345.055</ele>
        <time>2016-10-04T18:27:39Z</time>
      </trkpt>
      <trkpt lat="43.13589" lon="-0.48272">
        <ele>354.057</ele>
        <time>2016-10-04T18:27:59Z</time>
      </trkpt>
      <trkpt lat="43.13652" lon="-0.48321">
        <ele>356.074</ele>
        <time>2016-10-04T18:28:19Z</time>
      </trkpt>
      <trkpt lat="43.1368" lon="-0.48375">
        <ele>355.056</ele>
        <time>2016-10-04T18:28:39Z</time>
      </trkpt>
      <trkpt lat="43.13694" lon="-0.48463">
        <ele>355.021</ele>
        <time>2016-10-04T18:28:59Z</time>
      </trkpt>
      <trkpt lat="43.13721" lon="-0.48527">
        <ele>351.008</ele>
        <time>2016-10-04T18:29:19Z</time>
      </trkpt>
      <trkpt lat="43.13749" lon="-0.48675">
        <ele>347.043</ele>
        <time>2016-10-04T18:29:39Z</time>
      </trkpt>
      <trkpt lat="43.13819" lon="-0.48647">
        <ele>342.052</ele>
        <time>2016-10-04T18:29:59Z</time>
      </trkpt>
      <trkpt lat="43.13869" lon="-0.4877">
        <ele>338.068</ele>
        <time>2016-10-04T18:30:19Z</time>
      </trkpt>
      <trkpt lat="43.13965" lon="-0.4892">
        <ele>336.074</ele>
        <time>2016-10-04T18:30:39Z</time>
      </trkpt>
      <trkpt lat="43.14031" lon="-0.49072">
        <ele>335.025</ele>
        <time>2016-10-04T18:30:59Z</time>
      </trkpt>
      <trkpt lat="43.14089" lon="-0.49139">
        <ele>334.037</ele>
        <time>2016-10-04T18:31:19Z</time>
      </trkpt>
      <trkpt lat="43.14142" lon="-0.49261">
        <ele>332.08</ele>
        <time>2016-10-04T18:31:39Z</time>
      </trkpt>
      <trkpt lat="43.14231" lon="-0.49373">
        <ele>331.092</ele>
        <time>2016-10-04T18:31:59Z</time>
      </trkpt>
      <trkpt lat="43.14262" lon="-0.49431">
        <ele>330.033</ele>
        <time>2016-10-04T18:32:19Z</time>
      </trkpt>
      <trkpt lat="43.14303" lon="-0.49474">
        <ele>330.023</ele>
        <time>2016-10-04T18:32:39Z</time>
      </trkpt>
      <trkpt lat="43.1437" lon="-0.49615">
        <ele>328.015</ele>
        <time>2016-10-04T18:32:59Z</time>
      </trkpt>
      <trkpt lat="43.14411" lon="-0.49673">
        <ele>328.008</ele>
        <time>2016-10-04T18:33:19Z</time>
      </trkpt>
      <trkpt lat="43.1446" lon="-0.49778">
        <ele>327.059</ele>
        <time>2016-10-04T18:33:39Z</time>
      </trkpt>
      <trkpt lat="43.145" lon="-0.4983">
        <ele>326.058</ele>
        <time>2016-10-04T18:33:59Z</time>
      </trkpt>
      <trkpt lat="43.14524" lon="-0.49928">
        <ele>326.084</ele>
        <time>2016-10-04T18:34:19Z</time>
      </trkpt>
      <trkpt lat="43.14568" lon="-0.50044">
        <ele>325.04</ele>
        <time>2016-10-04T18:34:39Z</time>
      </trkpt>
      <trkpt lat="43.14604" lon="-0.50184">
        <ele>323.091</ele>
        <time>2016-10-04T18:34:59Z</time>
      </trkpt>
      <trkpt lat="43.14647" lon="-0.50285">
        <ele>323.023</ele>
        <time>2016-10-04T18:35:19Z</time>
      </trkpt>
      <trkpt lat="43.14655" lon="-0.50285">
        <ele>323.026</ele>
        <time>2016-10-04T18:35:39Z</time>
      </trkpt>
      <trkpt lat="43.1469" lon="-0.5034">
        <ele>321.088</ele>
        <time>2016-10-04T18:35:59Z</time>
      </trkpt>
      <trkpt lat="43.14721" lon="-0.50458">
        <ele>320.029</ele>
        <time>2016-10-04T18:36:19Z</time>
      </trkpt>
      <trkpt lat="43.14715" lon="-0.50553">
        <ele>319</ele>
        <time>2016-10-04T18:36:39Z</time>
      </trkpt>
      <trkpt lat="43.14674" lon="-0.50576">
        <ele>320.02</ele>
        <time>2016-10-04T18:36:59Z</time>
      </trkpt>
      <trkpt lat="43.14632" lon="-0.50643">
        <ele>321.008</ele>
        <time>2016-10-04T18:37:19Z</time>
      </trkpt>
      <trkpt lat="43.14619" lon="-0.50703">
        <ele>321.078</ele>
        <time>2016-10-04T18:37:39Z</time>
      </trkpt>
      <trkpt lat="43.14561" lon="-0.50752">
        <ele>322.067</ele>
        <time>2016-10-04T18:37:59Z</time>
      </trkpt>
      <trkpt lat="43.14524" lon="-0.50765">
        <ele>323.063</ele>
        <time>2016-10-04T18:38:19Z</time>
      </trkpt>
      <trkpt lat="43.14485" lon="-0.50725">
        <ele>325.059</ele>
        <time>2016-10-04T18:38:39Z</time>
      </trkpt>
      <trkpt lat="43.14436" lon="-0.50712">
        <ele>327.06</ele>
        <time>2016-10-04T18:38:59Z</time>
      </trkpt>
      <trkpt lat="43.14408" lon="-0.50746">
        <ele>333.062</ele>
        <time>2016-10-04T18:39:19Z</time>
      </trkpt>
      <trkpt lat="43.14366" lon="-0.51018">
        <ele>350.085</ele>
        <time>2016-10-04T18:39:39Z</time>
      </trkpt>
      <trkpt lat="43.14272" lon="-0.51192">
        <ele>349.087</ele>
        <time>2016-10-04T18:39:59Z</time>
      </trkpt>
      <trkpt lat="43.14281" lon="-0.51312">
        <ele>348.077</ele>
        <time>2016-10-04T18:40:19Z</time>
      </trkpt>
      <trkpt lat="43.14327" lon="-0.51465">
        <ele>347.061</ele>
        <time>2016-10-04T18:40:39Z</time>
      </trkpt>
      <trkpt lat="43.14364" lon="-0.5154">
        <ele>345.027</ele>
        <time>2016-10-04T18:40:59Z</time>
      </trkpt>
      <trkpt lat="43.14445" lon="-0.51649">
        <ele>343.008</ele>
        <time>2016-10-04T18:41:19Z</time>
      </trkpt>
      <trkpt lat="43.14494" lon="-0.51759">
        <ele>345.053</ele>
        <time>2016-10-04T18:41:39Z</time>
      </trkpt>
      <trkpt lat="43.14525" lon="-0.51834">
        <ele>343.062</ele>
        <time>2016-10-04T18:41:59Z</time>
      </trkpt>
      <trkpt lat="43.14552" lon="-0.51862">
        <ele>342.098</ele>
        <time>2016-10-04T18:42:19Z</time>
      </trkpt>
      <trkpt lat="43.14638" lon="-0.51898">
        <ele>340.034</ele>
        <time>2016-10-04T18:42:39Z</time>
      </trkpt>
      <trkpt lat="43.14721" lon="-0.51997">
        <ele>344.015</ele>
        <time>2016-10-04T18:42:59Z</time>
      </trkpt>
      <trkpt lat="43.14683" lon="-0.52293">
        <ele>340.037</ele>
        <time>2016-10-04T18:43:19Z</time>
      </trkpt>
      <trkpt lat="43.14694" lon="-0.52542">
        <ele>333.09</ele>
        <time>2016-10-04T18:43:39Z</time>
      </trkpt>
      <trkpt lat="43.14774" lon="-0.52812">
        <ele>329.032</ele>
        <time>2016-10-04T18:43:59Z</time>
      </trkpt>
      <trkpt lat="43.1495" lon="-0.53134">
        <ele>329.096</ele>
        <time>2016-10-04T18:44:19Z</time>
      </trkpt>
      <trkpt lat="43.14993" lon="-0.53186">
        <ele>329.031</ele>
        <time>2016-10-04T18:44:39Z</time>
      </trkpt>
      <trkpt lat="43.15023" lon="-0.53201">
        <ele>330.024</ele>
        <time>2016-10-04T18:44:59Z</time>
      </trkpt>
      <trkpt lat="43.15062" lon="-0.53175">
        <ele>329.008</ele>
        <time>2016-10-04T18:45:19Z</time>
      </trkpt>
      <trkpt lat="43.15164" lon="-0.53158">
        <ele>326.025</ele>
        <time>2016-10-04T18:45:39Z</time>
      </trkpt>
      <trkpt lat="43.15227" lon="-0.53098">
        <ele>326.044</ele>
        <time>2016-10-04T18:45:59Z</time>
      </trkpt>
      <trkpt lat="43.15292" lon="-0.53027">
        <ele>329.03</ele>
        <time>2016-10-04T18:46:19Z</time>
      </trkpt>
      <trkpt lat="43.15292" lon="-0.53201">
        <ele>326.096</ele>
        <time>2016-10-04T18:46:39Z</time>
      </trkpt>
      <trkpt lat="43.15358" lon="-0.53297">
        <ele>326.057</ele>
        <time>2016-10-04T18:46:59Z</time>
      </trkpt>
      <trkpt lat="43.15332" lon="-0.53323">
        <ele>325.059</ele>
        <time>2016-10-04T18:47:19Z</time>
      </trkpt>
      <trkpt lat="43.15252" lon="-0.53342">
        <ele>325.062</ele>
        <time>2016-10-04T18:47:39Z</time>
      </trkpt>
      <trkpt lat="43.15155" lon="-0.53443">
        <ele>327.074</ele>
        <time>2016-10-04T18:47:59Z</time>
      </trkpt>
      <trkpt lat="43.15045" lon="-0.53617">
        <ele>328.042</ele>
        <time>2016-10-04T18:48:19Z</time>
      </trkpt>
      <trkpt lat="43.15008" lon="-0.53703">
        <ele>332.022</ele>
        <time>2016-10-04T18:48:39Z</time>
      </trkpt>
      <trkpt lat="43.15006" lon="-0.53881">
        <ele>338.014</ele>
        <time>2016-10-04T18:48:59Z</time>
      </trkpt>
      <trkpt lat="43.14992" lon="-0.5392">
        <ele>340.008</ele>
        <time>2016-10-04T18:49:19Z</time>
      </trkpt>
      <trkpt lat="43.15023" lon="-0.54074">
        <ele>337.05</ele>
        <time>2016-10-04T18:49:39Z</time>
      </trkpt>
      <trkpt lat="43.15009" lon="-0.5413">
        <ele>332.039</ele>
        <time>2016-10-04T18:49:59Z</time>
      </trkpt>
      <trkpt lat="43.14903" lon="-0.54171">
        <ele>320.065</ele>
        <time>2016-10-04T18:50:19Z</time>
      </trkpt>
      <trkpt lat="43.14835" lon="-0.54123">
        <ele>314.051</ele>
        <time>2016-10-04T18:50:39Z</time>
      </trkpt>
      <trkpt lat="43.14788" lon="-0.54117">
        <ele>308.062</ele>
        <time>2016-10-04T18:50:59Z</time>
      </trkpt>
      <trkpt lat="43.14508" lon="-0.54475">
        <ele>300.074</ele>
        <time>2016-10-04T18:51:19Z</time>
      </trkpt>
      <trkpt lat="43.14505" lon="-0.54563">
        <ele>304.047</ele>
        <time>2016-10-04T18:51:39Z</time>
      </trkpt>
      <trkpt lat="43.1448" lon="-0.5463">
        <ele>307.059</ele>
        <time>2016-10-04T18:51:59Z</time>
      </trkpt>
      <trkpt lat="43.14416" lon="-0.54668">
        <ele>308.085</ele>
        <time>2016-10-04T18:52:19Z</time>
      </trkpt>
      <trkpt lat="43.14375" lon="-0.54662">
        <ele>304.089</ele>
        <time>2016-10-04T18:52:39Z</time>
      </trkpt>
      <trkpt lat="43.14392" lon="-0.54823">
        <ele>310.017</ele>
        <time>2016-10-04T18:52:59Z</time>
      </trkpt>
      <trkpt lat="43.14444" lon="-0.54922">
        <ele>307.008</ele>
        <time>2016-10-04T18:53:19Z</time>
      </trkpt>
      <trkpt lat="43.14456" lon="-0.55005">
        <ele>305.064</ele>
        <time>2016-10-04T18:53:39Z</time>
      </trkpt>
      <trkpt lat="43.1455" lon="-0.55104">
        <ele>293.023</ele>
        <time>2016-10-04T18:53:59Z</time>
      </trkpt>
      <trkpt lat="43.1456" lon="-0.55237">
        <ele>279.089</ele>
        <time>2016-10-04T18:54:19Z</time>
      </trkpt>
      <trkpt lat="43.14624" lon="-0.55366">
        <ele>270.095</ele>
        <time>2016-10-04T18:54:39Z</time>
      </trkpt>
      <trkpt lat="43.14622" lon="-0.5548">
        <ele>266.066</ele>
        <time>2016-10-04T18:54:59Z</time>
      </trkpt>
      <trkpt lat="43.14646" lon="-0.55503">
        <ele>269.078</ele>
        <time>2016-10-04T18:55:19Z</time>
      </trkpt>
      <trkpt lat="43.14658" lon="-0.55608">
        <ele>271.031</ele>
        <time>2016-10-04T18:55:39Z</time>
      </trkpt>
      <trkpt lat="43.1464" lon="-0.55728">
        <ele>270.023</ele>
        <time>2016-10-04T18:55:59Z</time>
      </trkpt>
      <trkpt lat="43.14649" lon="-0.55838">
        <ele>268.019</ele>
        <time>2016-10-04T18:56:19Z</time>
      </trkpt>
      <trkpt lat="43.14687" lon="-0.55889">
        <ele>269.009</ele>
        <time>2016-10-04T18:56:39Z</time>
      </trkpt>
      <trkpt lat="43.1473" lon="-0.55879">
        <ele>270.019</ele>
        <time>2016-10-04T18:56:59Z</time>
      </trkpt>
      <trkpt lat="43.14748" lon="-0.55909">
        <ele>270.008</ele>
        <time>2016-10-04T18:57:19Z</time>
      </trkpt>
      <trkpt lat="43.14774" lon="-0.55915">
        <ele>271.087</ele>
        <time>2016-10-04T18:57:39Z</time>
      </trkpt>
      <trkpt lat="43.14842" lon="-0.55934">
        <ele>267.066</ele>
        <time>2016-10-04T18:57:59Z</time>
      </trkpt>
      <trkpt lat="43.15004" lon="-0.55907">
        <ele>262.082</ele>
        <time>2016-10-04T18:58:19Z</time>
      </trkpt>
      <trkpt lat="43.15084" lon="-0.55917">
        <ele>263.068</ele>
        <time>2016-10-04T18:58:39Z</time>
      </trkpt>
      <trkpt lat="43.15137" lon="-0.55949">
        <ele>264.089</ele>
        <time>2016-10-04T18:58:59Z</time>
      </trkpt>
      <trkpt lat="43.15206" lon="-0.56005">
        <ele>262.011</ele>
        <time>2016-10-04T18:59:19Z</time>
      </trkpt>
      <trkpt lat="43.15313" lon="-0.56078">
        <ele>263.064</ele>
        <time>2016-10-04T18:59:39Z</time>
      </trkpt>
      <trkpt lat="43.1538" lon="-0.56166">
        <ele>263.066</ele>
        <time>2016-10-04T18:59:59Z</time>
      </trkpt>
      <trkpt lat="43.15446" lon="-0.5625">
        <ele>263.059</ele>
        <time>2016-10-04T19:00:19Z</time>
      </trkpt>
      <trkpt lat="43.1551" lon="-0.56329">
        <ele>259.003</ele>
        <time>2016-10-04T19:00:39Z</time>
      </trkpt>
      <trkpt lat="43.15551" lon="-0.56385">
        <ele>258.023</ele>
        <time>2016-10-04T19:00:59Z</time>
      </trkpt>
      <trkpt lat="43.15643" lon="-0.56443">
        <ele>256.008</ele>
        <time>2016-10-04T19:01:19Z</time>
      </trkpt>
      <trkpt lat="43.15759" lon="-0.56437">
        <ele>253.061</ele>
        <time>2016-10-04T19:01:39Z</time>
      </trkpt>
      <trkpt lat="43.15817" lon="-0.56413">
        <ele>257.03</ele>
        <time>2016-10-04T19:01:59Z</time>
      </trkpt>
      <trkpt lat="43.15829" lon="-0.56469">
        <ele>254.066</ele>
        <time>2016-10-04T19:02:19Z</time>
      </trkpt>
      <trkpt lat="43.15865" lon="-0.56516">
        <ele>256.012</ele>
        <time>2016-10-04T19:02:39Z</time>
      </trkpt>
      <trkpt lat="43.1589" lon="-0.56636">
        <ele>255.083</ele>
        <time>2016-10-04T19:02:59Z</time>
      </trkpt>
      <trkpt lat="43.15934" lon="-0.56711">
        <ele>260.075</ele>
        <time>2016-10-04T19:03:19Z</time>
      </trkpt>
      <trkpt lat="43.16003" lon="-0.56793">
        <ele>267.058</ele>
        <time>2016-10-04T19:03:39Z</time>
      </trkpt>
      <trkpt lat="43.16014" lon="-0.56896">
        <ele>260.01</ele>
        <time>2016-10-04T19:03:59Z</time>
      </trkpt>
      <trkpt lat="43.16056" lon="-0.56997">
        <ele>258.071</ele>
        <time>2016-10-04T19:04:19Z</time>
      </trkpt>
      <trkpt lat="43.16084" lon="-0.57102">
        <ele>252.041</ele>
        <time>2016-10-04T19:04:39Z</time>
      </trkpt>
      <trkpt lat="43.1612" lon="-0.57117">
        <ele>252.015</ele>
        <time>2016-10-04T19:04:59Z</time>
      </trkpt>
      <trkpt lat="43.16202" lon="-0.57112">
        <ele>254.008</ele>
        <time>2016-10-04T19:05:19Z</time>
      </trkpt>
      <trkpt lat="43.16268" lon="-0.57052">
        <ele>260.073</ele>
        <time>2016-10-04T19:05:39Z</time>
      </trkpt>
      <trkpt lat="43.16335" lon="-0.57059">
        <ele>253.032</ele>
        <time>2016-10-04T19:05:59Z</time>
      </trkpt>
      <trkpt lat="43.16372" lon="-0.57029">
        <ele>255.048</ele>
        <time>2016-10-04T19:06:19Z</time>
      </trkpt>
      <trkpt lat="43.16391" lon="-0.56982">
        <ele>264.024</ele>
        <time>2016-10-04T19:06:39Z</time>
      </trkpt>
      <trkpt lat="43.16463" lon="-0.56994">
        <ele>261.015</ele>
        <time>2016-10-04T19:06:59Z</time>
      </trkpt>
      <trkpt lat="43.16541" lon="-0.57014">
        <ele>251.097</ele>
        <time>2016-10-04T19:07:19Z</time>
      </trkpt>
      <trkpt lat="43.16606" lon="-0.57005">
        <ele>251.08</ele>
        <time>2016-10-04T19:07:39Z</time>
      </trkpt>
      <trkpt lat="43.16624" lon="-0.5696">
        <ele>256.042</ele>
        <time>2016-10-04T19:07:59Z</time>
      </trkpt>
      <trkpt lat="43.16628" lon="-0.56917">
        <ele>258.011</ele>
        <time>2016-10-04T19:08:19Z</time>
      </trkpt>
      <trkpt lat="43.16649" lon="-0.569">
        <ele>261.021</ele>
        <time>2016-10-04T19:08:39Z</time>
      </trkpt>
      <trkpt lat="43.16662" lon="-0.56932">
        <ele>258.003</ele>
        <time>2016-10-04T19:08:59Z</time>
      </trkpt>
      <trkpt lat="43.16665" lon="-0.57018">
        <ele>251.008</ele>
        <time>2016-10-04T19:09:19Z</time>
      </trkpt>
      <trkpt lat="43.16748" lon="-0.57044">
        <ele>253.037</ele>
        <time>2016-10-04T19:09:39Z</time>
      </trkpt>
      <trkpt lat="43.168" lon="-0.57108">
        <ele>254.076</ele>
        <time>2016-10-04T19:09:59Z</time>
      </trkpt>
      <trkpt lat="43.16831" lon="-0.57297">
        <ele>245.052</ele>
        <time>2016-10-04T19:10:19Z</time>
      </trkpt>
      <trkpt lat="43.16765" lon="-0.57282">
        <ele>243.038</ele>
        <time>2016-10-04T19:10:39Z</time>
      </trkpt>
      <trkpt lat="43.16753" lon="-0.57379">
        <ele>242.029</ele>
        <time>2016-10-04T19:10:59Z</time>
      </trkpt>
      <trkpt lat="43.16761" lon="-0.57494">
        <ele>243.061</ele>
        <time>2016-10-04T19:11:19Z</time>
      </trkpt>
      <trkpt lat="43.16793" lon="-0.57617">
        <ele>249.094</ele>
        <time>2016-10-04T19:11:39Z</time>
      </trkpt>
      <trkpt lat="43.16867" lon="-0.57675">
        <ele>249.036</ele>
        <time>2016-10-04T19:11:59Z</time>
      </trkpt>
      <trkpt lat="43.17121" lon="-0.57677">
        <ele>250.023</ele>
        <time>2016-10-04T19:12:19Z</time>
      </trkpt>
      <trkpt lat="43.17185" lon="-0.57703">
        <ele>247.083</ele>
        <time>2016-10-04T19:12:39Z</time>
      </trkpt>
      <trkpt lat="43.1723" lon="-0.57767">
        <ele>251.011</ele>
        <time>2016-10-04T19:12:59Z</time>
      </trkpt>
      <trkpt lat="43.17288" lon="-0.57913">
        <ele>249.008</ele>
        <time>2016-10-04T19:13:19Z</time>
      </trkpt>
      <trkpt lat="43.17327" lon="-0.58121">
        <ele>252.058</ele>
        <time>2016-10-04T19:13:39Z</time>
      </trkpt>
      <trkpt lat="43.17358" lon="-0.58222">
        <ele>247.067</ele>
        <time>2016-10-04T19:13:59Z</time>
      </trkpt>
      <trkpt lat="43.17376" lon="-0.58325">
        <ele>246.053</ele>
        <time>2016-10-04T19:14:19Z</time>
      </trkpt>
      <trkpt lat="43.17427" lon="-0.58503">
        <ele>243.069</ele>
        <time>2016-10-04T19:14:39Z</time>
      </trkpt>
      <trkpt lat="43.17426" lon="-0.58831">
        <ele>246.08</ele>
        <time>2016-10-04T19:14:59Z</time>
      </trkpt>
      <trkpt lat="43.17419" lon="-0.58923">
        <ele>253.072</ele>
        <time>2016-10-04T19:15:19Z</time>
      </trkpt>
      <trkpt lat="43.17443" lon="-0.59003">
        <ele>255.025</ele>
        <time>2016-10-04T19:15:39Z</time>
      </trkpt>
      <trkpt lat="43.17473" lon="-0.59183">
        <ele>259.057</ele>
        <time>2016-10-04T19:15:59Z</time>
      </trkpt>
      <trkpt lat="43.17542" lon="-0.59222">
        <ele>252.099</ele>
        <time>2016-10-04T19:16:19Z</time>
      </trkpt>
      <trkpt lat="43.17577" lon="-0.59282">
        <ele>260.007</ele>
        <time>2016-10-04T19:16:39Z</time>
      </trkpt>
      <trkpt lat="43.17601" lon="-0.59423">
        <ele>270.027</ele>
        <time>2016-10-04T19:16:59Z</time>
      </trkpt>
      <trkpt lat="43.17573" lon="-0.5949">
        <ele>275.008</ele>
        <time>2016-10-04T19:17:19Z</time>
      </trkpt>
      <trkpt lat="43.17646" lon="-0.5955">
        <ele>270.035</ele>
        <time>2016-10-04T19:17:39Z</time>
      </trkpt>
      <trkpt lat="43.1774" lon="-0.59591">
        <ele>268.074</ele>
        <time>2016-10-04T19:17:59Z</time>
      </trkpt>
      <trkpt lat="43.17823" lon="-0.59675">
        <ele>273.02</ele>
        <time>2016-10-04T19:18:19Z</time>
      </trkpt>
      <trkpt lat="43.17876" lon="-0.59715">
        <ele>275.076</ele>
        <time>2016-10-04T19:18:39Z</time>
      </trkpt>
      <trkpt lat="43.17894" lon="-0.5975">
        <ele>276.017</ele>
        <time>2016-10-04T19:18:59Z</time>
      </trkpt>
      <trkpt lat="43.17926" lon="-0.59782">
        <ele>281.029</ele>
        <time>2016-10-04T19:19:19Z</time>
      </trkpt>
      <trkpt lat="43.1795" lon="-0.59857">
        <ele>277.042</ele>
        <time>2016-10-04T19:19:39Z</time>
      </trkpt>
      <trkpt lat="43.17991" lon="-0.59876">
        <ele>279.044</ele>
        <time>2016-10-04T19:19:59Z</time>
      </trkpt>
      <trkpt lat="43.18072" lon="-0.5987">
        <ele>288.091</ele>
        <time>2016-10-04T19:20:19Z</time>
      </trkpt>
      <trkpt lat="43.1816" lon="-0.5985">
        <ele>289.081</ele>
        <time>2016-10-04T19:20:39Z</time>
      </trkpt>
      <trkpt lat="43.18272" lon="-0.59865">
        <ele>278.019</ele>
        <time>2016-10-04T19:20:59Z</time>
      </trkpt>
      <trkpt lat="43.18426" lon="-0.59913">
        <ele>279.008</ele>
        <time>2016-10-04T19:21:19Z</time>
      </trkpt>
      <trkpt lat="43.18529" lon="-0.60016">
        <ele>282.015</ele>
        <time>2016-10-04T19:21:39Z</time>
      </trkpt>
      <trkpt lat="43.18735" lon="-0.6025">
        <ele>268.084</ele>
        <time>2016-10-04T19:21:59Z</time>
      </trkpt>
      <trkpt lat="43.18853" lon="-0.60378">
        <ele>262.08</ele>
        <time>2016-10-04T19:22:19Z</time>
      </trkpt>
      <trkpt lat="43.18889" lon="-0.60498">
        <ele>265.036</ele>
        <time>2016-10-04T19:22:39Z</time>
      </trkpt>
      <trkpt lat="43.18926" lon="-0.60531">
        <ele>267.097</ele>
        <time>2016-10-04T19:22:59Z</time>
      </trkpt>
      <trkpt lat="43.18925" lon="-0.60614">
        <ele>269.069</ele>
        <time>2016-10-04T19:23:19Z</time>
      </trkpt>
      <trkpt lat="43.18893" lon="-0.60752">
        <ele>252.562</ele>
        <time>2021-02-06T21:51:11Z</time>
      </trkpt>
      <trkpt lat="43.18825" lon="-0.60822">
        <ele>232.034</ele>
        <time>2016-10-04T19:24:39Z</time>
      </trkpt>
      <trkpt lat="43.18875" lon="-0.6096">
        <ele>221.037</ele>
        <time>2016-10-04T19:24:59Z</time>
      </trkpt>
      <trkpt lat="43.18861" lon="-0.61025">
        <ele>217.149</ele>
        <time>2021-02-06T21:52:11Z</time>
      </trkpt>
      <trkpt lat="43.18889" lon="-0.61046">
        <ele>217.013</ele>
        <time>2016-10-04T19:25:39Z</time>
      </trkpt>
      <trkpt lat="43.18864" lon="-0.61112">
        <ele>219.008</ele>
        <time>2016-10-04T19:25:59Z</time>
      </trkpt>
      <trkpt lat="43.18837" lon="-0.61179">
        <ele>222.079</ele>
        <time>2016-10-04T19:26:19Z</time>
      </trkpt>
      <trkpt lat="43.18821" lon="-0.61314">
        <ele>226.058</ele>
        <time>2016-10-04T19:26:39Z</time>
      </trkpt>
      <trkpt lat="43.18756" lon="-0.61449">
        <ele>236.014</ele>
        <time>2016-10-04T19:26:59Z</time>
      </trkpt>
      <trkpt lat="43.18727" lon="-0.6151">
        <ele>239.04</ele>
        <time>2021-02-06T21:54:11Z</time>
      </trkpt>
      <trkpt lat="43.1877" lon="-0.61543">
        <ele>237.941</ele>
        <time>2021-02-06T21:54:31Z</time>
      </trkpt>
      <trkpt lat="43.1875" lon="-0.61617">
        <ele>237.453</ele>
        <time>2021-02-06T21:54:51Z</time>
      </trkpt>
      <trkpt lat="43.18799" lon="-0.61642">
        <ele>236.996</ele>
        <time>2021-02-06T21:55:11Z</time>
      </trkpt>
      <trkpt lat="43.1874" lon="-0.61857">
        <ele>238.088</ele>
        <time>2016-10-04T19:28:19Z</time>
      </trkpt>
      <trkpt lat="43.18732" lon="-0.61983">
        <ele>237.023</ele>
        <time>2016-10-04T19:28:39Z</time>
      </trkpt>
      <trkpt lat="43.18676" lon="-0.62191">
        <ele>235.083</ele>
        <time>2016-10-04T19:28:59Z</time>
      </trkpt>
      <trkpt lat="43.18668" lon="-0.6234">
        <ele>236.011</ele>
        <time>2016-10-04T19:29:19Z</time>
      </trkpt>
      <trkpt lat="43.18656" lon="-0.624">
        <ele>236.008</ele>
        <time>2016-10-04T19:29:39Z</time>
      </trkpt>
      <trkpt lat="43.18698" lon="-0.62494">
        <ele>235.038</ele>
        <time>2016-10-04T19:29:59Z</time>
      </trkpt>
      <trkpt lat="43.18734" lon="-0.62552">
        <ele>235.037</ele>
        <time>2016-10-04T19:30:19Z</time>
      </trkpt>
      <trkpt lat="43.18815" lon="-0.62627">
        <ele>234.053</ele>
        <time>2016-10-04T19:30:39Z</time>
      </trkpt>
      <trkpt lat="43.18879" lon="-0.62758">
        <ele>232.059</ele>
        <time>2016-10-04T19:30:59Z</time>
      </trkpt>
      <trkpt lat="43.18962" lon="-0.62867">
        <ele>232.08</ele>
        <time>2016-10-04T19:31:19Z</time>
      </trkpt>
      <trkpt lat="43.19468" lon="-0.63621">
        <ele>227.092</ele>
        <time>2016-10-04T19:31:39Z</time>
      </trkpt>
      <trkpt lat="43.19519" lon="-0.63653">
        <ele>227.085</ele>
        <time>2016-10-04T19:31:59Z</time>
      </trkpt>
      <trkpt lat="43.19743" lon="-0.63925">
        <ele>222.077</ele>
        <time>2016-10-04T19:32:19Z</time>
      </trkpt>
      <trkpt lat="43.19793" lon="-0.64039">
        <ele>222.057</ele>
        <time>2016-10-04T19:32:39Z</time>
      </trkpt>
      <trkpt lat="43.19849" lon="-0.64136">
        <ele>221</ele>
        <time>2016-10-04T19:32:59Z</time>
      </trkpt>
      <trkpt lat="43.19963" lon="-0.64243">
        <ele>222.02</ele>
        <time>2016-10-04T19:33:19Z</time>
      </trkpt>
      <trkpt lat="43.20082" lon="-0.64331">
        <ele>220.008</ele>
        <time>2016-10-04T19:33:39Z</time>
      </trkpt>
      <trkpt lat="43.20395" lon="-0.64668">
        <ele>217.091</ele>
        <time>2016-10-04T19:33:59Z</time>
      </trkpt>
      <trkpt lat="43.20526" lon="-0.64829">
        <ele>216.01</ele>
        <time>2016-10-04T19:34:19Z</time>
      </trkpt>
      <trkpt lat="43.206" lon="-0.64876">
        <ele>215.056</ele>
        <time>2016-10-04T19:34:39Z</time>
      </trkpt>
      <trkpt lat="43.20736" lon="-0.64917">
        <ele>214.062</ele>
        <time>2016-10-04T19:34:59Z</time>
      </trkpt>
      <trkpt lat="43.20828" lon="-0.64998">
        <ele>214.063</ele>
        <time>2016-10-04T19:35:19Z</time>
      </trkpt>
      <trkpt lat="43.20892" lon="-0.65078">
        <ele>215.015</ele>
        <time>2016-10-04T19:35:39Z</time>
      </trkpt>
      <trkpt lat="43.20944" lon="-0.65114">
        <ele>214.058</ele>
        <time>2016-10-04T19:35:59Z</time>
      </trkpt>
      <trkpt lat="43.20955" lon="-0.65133">
        <ele>214.06</ele>
        <time>2016-10-04T19:36:19Z</time>
      </trkpt>
      <trkpt lat="43.21043" lon="-0.65157">
        <ele>214.089</ele>
        <time>2016-10-04T19:36:39Z</time>
      </trkpt>
      <trkpt lat="43.21096" lon="-0.65183">
        <ele>215.006</ele>
        <time>2016-10-04T19:36:59Z</time>
      </trkpt>
      <trkpt lat="43.21269" lon="-0.65472">
        <ele>211.026</ele>
        <time>2016-10-04T19:37:19Z</time>
      </trkpt>
      <trkpt lat="43.21291" lon="-0.65429">
        <ele>211.008</ele>
        <time>2016-10-04T19:37:39Z</time>
      </trkpt>
      <trkpt lat="43.21357" lon="-0.65479">
        <ele>209.024</ele>
        <time>2016-10-04T19:37:59Z</time>
      </trkpt>
      <trkpt lat="43.21374" lon="-0.65599">
        <ele>198.083</ele>
        <time>2016-10-04T19:38:19Z</time>
      </trkpt>
      <trkpt lat="43.21346" lon="-0.65689">
        <ele>193.049</ele>
        <time>2016-10-04T19:38:39Z</time>
      </trkpt>
      <trkpt lat="43.21319" lon="-0.65713">
        <ele>194.055</ele>
        <time>2016-10-04T19:38:59Z</time>
      </trkpt>
      <trkpt lat="43.21274" lon="-0.65811">
        <ele>195.026</ele>
        <time>2016-10-04T19:39:19Z</time>
      </trkpt>
      <trkpt lat="43.21183" lon="-0.65936">
        <ele>198.048</ele>
        <time>2016-10-04T19:39:39Z</time>
      </trkpt>
      <trkpt lat="43.21104" lon="-0.66005">
        <ele>194.071</ele>
        <time>2016-10-04T19:39:59Z</time>
      </trkpt>
      <trkpt lat="43.21127" lon="-0.66103">
        <ele>192.013</ele>
        <time>2016-10-04T19:40:19Z</time>
      </trkpt>
      <trkpt lat="43.21163" lon="-0.66108">
        <ele>192.025</ele>
        <time>2016-10-04T19:40:39Z</time>
      </trkpt>
      <trkpt lat="43.21174" lon="-0.66135">
        <ele>192.026</ele>
        <time>2016-10-04T19:40:59Z</time>
      </trkpt>
      <trkpt lat="43.21165" lon="-0.66228">
        <ele>198.008</ele>
        <time>2016-10-04T19:41:19Z</time>
      </trkpt>
      <trkpt lat="43.21201" lon="-0.6629">
        <ele>207.008</ele>
        <time>2016-10-04T19:41:39Z</time>
      </trkpt>
      <trkpt lat="43.21133" lon="-0.66365">
        <ele>222.088</ele>
        <time>2016-10-04T19:41:59Z</time>
      </trkpt>
      <trkpt lat="43.21152" lon="-0.66365">
        <ele>222.067</ele>
        <time>2016-10-04T19:42:19Z</time>
      </trkpt>
      <trkpt lat="43.21213" lon="-0.66365">
        <ele>225.053</ele>
        <time>2016-10-04T19:42:39Z</time>
      </trkpt>
      <trkpt lat="43.21226" lon="-0.66384">
        <ele>228.029</ele>
        <time>2016-10-04T19:42:59Z</time>
      </trkpt>
      <trkpt lat="43.21313" lon="-0.66408">
        <ele>227.03</ele>
        <time>2016-10-04T19:43:19Z</time>
      </trkpt>
      <trkpt lat="43.21358" lon="-0.66417">
        <ele>227.072</ele>
        <time>2016-10-04T19:43:39Z</time>
      </trkpt>
      <trkpt lat="43.21401" lon="-0.66474">
        <ele>234.015</ele>
        <time>2016-10-04T19:43:59Z</time>
      </trkpt>
      <trkpt lat="43.21455" lon="-0.66406">
        <ele>230.087</ele>
        <time>2016-10-04T19:44:19Z</time>
      </trkpt>
      <trkpt lat="43.21504" lon="-0.66386">
        <ele>234.028</ele>
        <time>2016-10-04T19:44:39Z</time>
      </trkpt>
      <trkpt lat="43.21538" lon="-0.66391">
        <ele>235.089</ele>
        <time>2016-10-04T19:44:59Z</time>
      </trkpt>
      <trkpt lat="43.21595" lon="-0.66305">
        <ele>237.017</ele>
        <time>2016-10-04T19:45:19Z</time>
      </trkpt>
      <trkpt lat="43.21646" lon="-0.66296">
        <ele>237.008</ele>
        <time>2016-10-04T19:45:39Z</time>
      </trkpt>
      <trkpt lat="43.2172" lon="-0.6623">
        <ele>233.038</ele>
        <time>2016-10-04T19:45:59Z</time>
      </trkpt>
      <trkpt lat="43.21793" lon="-0.6612">
        <ele>231.037</ele>
        <time>2016-10-04T19:46:19Z</time>
      </trkpt>
      <trkpt lat="43.21854" lon="-0.66058">
        <ele>231.093</ele>
        <time>2016-10-04T19:46:39Z</time>
      </trkpt>
      <trkpt lat="43.21893" lon="-0.66058">
        <ele>230.079</ele>
        <time>2016-10-04T19:46:59Z</time>
      </trkpt>
      <trkpt lat="43.21911" lon="-0.66043">
        <ele>230.04</ele>
        <time>2016-10-04T19:47:19Z</time>
      </trkpt>
      <trkpt lat="43.21989" lon="-0.66262">
        <ele>223.082</ele>
        <time>2016-10-04T19:47:39Z</time>
      </trkpt>
      <trkpt lat="43.2202" lon="-0.66322">
        <ele>225.095</ele>
        <time>2016-10-04T19:47:59Z</time>
      </trkpt>
      <trkpt lat="43.22103" lon="-0.6658">
        <ele>224.067</ele>
        <time>2016-10-04T19:48:19Z</time>
      </trkpt>
      <trkpt lat="43.22176" lon="-0.6676">
        <ele>216.098</ele>
        <time>2016-10-04T19:48:39Z</time>
      </trkpt>
      <trkpt lat="43.22233" lon="-0.66809">
        <ele>213.015</ele>
        <time>2016-10-04T19:48:59Z</time>
      </trkpt>
      <trkpt lat="43.2225" lon="-0.66852">
        <ele>212.026</ele>
        <time>2016-10-04T19:49:19Z</time>
      </trkpt>
      <trkpt lat="43.22431" lon="-0.66979">
        <ele>203.008</ele>
        <time>2016-10-04T19:49:39Z</time>
      </trkpt>
      <trkpt lat="43.22453" lon="-0.66947">
        <ele>203.075</ele>
        <time>2016-10-04T19:49:59Z</time>
      </trkpt>
      <trkpt lat="43.22462" lon="-0.67">
        <ele>201.014</ele>
        <time>2016-10-04T19:50:19Z</time>
      </trkpt>
      <trkpt lat="43.2245" lon="-0.67052">
        <ele>201.08</ele>
        <time>2016-10-04T19:50:39Z</time>
      </trkpt>
      <trkpt lat="43.22461" lon="-0.67084">
        <ele>200.056</ele>
        <time>2016-10-04T19:50:59Z</time>
      </trkpt>
      <trkpt lat="43.22619" lon="-0.67062">
        <ele>199.097</ele>
        <time>2016-10-04T19:51:19Z</time>
      </trkpt>
      <trkpt lat="43.22659" lon="-0.67088">
        <ele>200.089</ele>
        <time>2016-10-04T19:51:39Z</time>
      </trkpt>
      <trkpt lat="43.22775" lon="-0.6714">
        <ele>198.062</ele>
        <time>2016-10-04T19:51:59Z</time>
      </trkpt>
      <trkpt lat="43.22847" lon="-0.67247">
        <ele>199.094</ele>
        <time>2016-10-04T19:52:19Z</time>
      </trkpt>
      <trkpt lat="43.22886" lon="-0.67279">
        <ele>199.063</ele>
        <time>2016-10-04T19:52:39Z</time>
      </trkpt>
      <trkpt lat="43.22921" lon="-0.67288">
        <ele>197.044</ele>
        <time>2016-10-04T19:52:59Z</time>
      </trkpt>
      <trkpt lat="43.22996" lon="-0.67266">
        <ele>198.018</ele>
        <time>2016-10-04T19:53:19Z</time>
      </trkpt>
      <trkpt lat="43.23074" lon="-0.67204">
        <ele>196.208</ele>
        <time>2021-02-06T22:20:51Z</time>
      </trkpt>
      <trkpt lat="43.23166" lon="-0.6719">
        <ele>193.032</ele>
        <time>2021-02-06T22:21:11Z</time>
      </trkpt>
      <trkpt lat="43.23203" lon="-0.67264">
        <ele>191.651</ele>
        <time>2021-02-06T22:21:31Z</time>
      </trkpt>
      <trkpt lat="43.23202" lon="-0.67296">
        <ele>192.627</ele>
        <time>2021-02-06T22:21:51Z</time>
      </trkpt>
      <trkpt lat="43.2323" lon="-0.67354">
        <ele>193.093</ele>
        <time>2016-10-04T19:54:39Z</time>
      </trkpt>
      <trkpt lat="43.23269" lon="-0.6738">
        <ele>191.024</ele>
        <time>2016-10-04T19:54:59Z</time>
      </trkpt>
      <trkpt lat="43.23288" lon="-0.67404">
        <ele>191.016</ele>
        <time>2016-10-04T19:55:19Z</time>
      </trkpt>
      <trkpt lat="43.23327" lon="-0.67401">
        <ele>189.029</ele>
        <time>2016-10-04T19:55:39Z</time>
      </trkpt>
      <trkpt lat="43.2336" lon="-0.67378">
        <ele>186.091</ele>
        <time>2016-10-04T19:55:59Z</time>
      </trkpt>
      <trkpt lat="43.23402" lon="-0.67397">
        <ele>185.062</ele>
        <time>2016-10-04T19:56:19Z</time>
      </trkpt>
      <trkpt lat="43.2359" lon="-0.67419">
        <ele>179.083</ele>
        <time>2016-10-04T19:56:39Z</time>
      </trkpt>
      <trkpt lat="43.23735" lon="-0.67485">
        <ele>180.011</ele>
        <time>2016-10-04T19:56:59Z</time>
      </trkpt>
      <trkpt lat="43.23823" lon="-0.67496">
        <ele>179.008</ele>
        <time>2016-10-04T19:57:19Z</time>
      </trkpt>
      <trkpt lat="43.23876" lon="-0.67515">
        <ele>180.082</ele>
        <time>2016-10-04T19:57:39Z</time>
      </trkpt>
      <trkpt lat="43.2396" lon="-0.67595">
        <ele>177.051</ele>
        <time>2016-10-04T19:57:59Z</time>
      </trkpt>
      <trkpt lat="43.24059" lon="-0.6765">
        <ele>171.057</ele>
        <time>2016-10-04T19:58:19Z</time>
      </trkpt>
      <trkpt lat="43.2409" lon="-0.67691">
        <ele>170.043</ele>
        <time>2016-10-04T19:58:39Z</time>
      </trkpt>
      <trkpt lat="43.2411" lon="-0.67745">
        <ele>169.034</ele>
        <time>2016-10-04T19:58:59Z</time>
      </trkpt>
      <trkpt lat="43.24156" lon="-0.6779">
        <ele>170.076</ele>
        <time>2016-10-04T19:59:19Z</time>
      </trkpt>
      <trkpt lat="43.24248" lon="-0.67923">
        <ele>166.029</ele>
        <time>2016-10-04T19:59:39Z</time>
      </trkpt>
      <trkpt lat="43.24457" lon="-0.68002">
        <ele>168.051</ele>
        <time>2016-10-04T19:59:59Z</time>
      </trkpt>
      <trkpt lat="43.24457" lon="-0.68144">
        <ele>174.028</ele>
        <time>2016-10-04T20:00:19Z</time>
      </trkpt>
      <trkpt lat="43.2451" lon="-0.68155">
        <ele>173.089</ele>
        <time>2016-10-04T20:00:39Z</time>
      </trkpt>
      <trkpt lat="43.24549" lon="-0.68176">
        <ele>176.017</ele>
        <time>2016-10-04T20:00:59Z</time>
      </trkpt>
      <trkpt lat="43.2457" lon="-0.68135">
        <ele>170.008</ele>
        <time>2016-10-04T20:01:19Z</time>
      </trkpt>
      <trkpt lat="43.24695" lon="-0.68049">
        <ele>168.088</ele>
        <time>2016-10-04T20:01:39Z</time>
      </trkpt>
      <trkpt lat="43.25084" lon="-0.68088">
        <ele>166.037</ele>
        <time>2016-10-04T20:01:59Z</time>
      </trkpt>
      <trkpt lat="43.25254" lon="-0.68189">
        <ele>165.053</ele>
        <time>2016-10-04T20:02:19Z</time>
      </trkpt>
      <trkpt lat="43.25412" lon="-0.68335">
        <ele>164.069</ele>
        <time>2016-10-04T20:02:39Z</time>
      </trkpt>
      <trkpt lat="43.25545" lon="-0.68403">
        <ele>169.08</ele>
        <time>2016-10-04T20:02:59Z</time>
      </trkpt>
      <trkpt lat="43.25615" lon="-0.68408">
        <ele>170.022</ele>
        <time>2016-10-04T20:03:19Z</time>
      </trkpt>
      <trkpt lat="43.25665" lon="-0.68446">
        <ele>173.095</ele>
        <time>2016-10-04T20:03:39Z</time>
      </trkpt>
      <trkpt lat="43.2572" lon="-0.68461">
        <ele>175.027</ele>
        <time>2016-10-04T20:03:59Z</time>
      </trkpt>
      <trkpt lat="43.25784" lon="-0.68528">
        <ele>177.083</ele>
        <time>2016-10-04T20:04:19Z</time>
      </trkpt>
      <trkpt lat="43.25895" lon="-0.68594">
        <ele>177.025</ele>
        <time>2016-10-04T20:04:39Z</time>
      </trkpt>
      <trkpt lat="43.26034" lon="-0.68652">
        <ele>177.017</ele>
        <time>2016-10-04T20:04:59Z</time>
      </trkpt>
      <trkpt lat="43.26108" lon="-0.68736">
        <ele>175.008</ele>
        <time>2016-10-04T20:05:19Z</time>
      </trkpt>
      <trkpt lat="43.26086" lon="-0.6883">
        <ele>176.064</ele>
        <time>2016-10-04T20:05:39Z</time>
      </trkpt>
      <trkpt lat="43.26083" lon="-0.68898">
        <ele>176.063</ele>
        <time>2016-10-04T20:05:59Z</time>
      </trkpt>
      <trkpt lat="43.26103" lon="-0.68959">
        <ele>175.089</ele>
        <time>2016-10-04T20:06:19Z</time>
      </trkpt>
      <trkpt lat="43.26138" lon="-0.6899">
        <ele>175.095</ele>
        <time>2016-10-04T20:06:39Z</time>
      </trkpt>
      <trkpt lat="43.26179" lon="-0.69057">
        <ele>175.036</ele>
        <time>2016-10-04T20:06:59Z</time>
      </trkpt>
      <trkpt lat="43.2619" lon="-0.69093">
        <ele>176.048</ele>
        <time>2016-10-04T20:07:19Z</time>
      </trkpt>
      <trkpt lat="43.26321" lon="-0.69372">
        <ele>172.091</ele>
        <time>2016-10-04T20:07:39Z</time>
      </trkpt>
      <trkpt lat="43.26312" lon="-0.69656">
        <ele>173.023</ele>
        <time>2016-10-04T20:07:59Z</time>
      </trkpt>
      <trkpt lat="43.26277" lon="-0.69958">
        <ele>172.084</ele>
        <time>2016-10-04T20:08:19Z</time>
      </trkpt>
      <trkpt lat="43.26243" lon="-0.70095">
        <ele>170.007</ele>
        <time>2016-10-04T20:08:39Z</time>
      </trkpt>
      <trkpt lat="43.26238" lon="-0.70183">
        <ele>172.017</ele>
        <time>2016-10-04T20:08:59Z</time>
      </trkpt>
      <trkpt lat="43.26246" lon="-0.70308">
        <ele>174.008</ele>
        <time>2016-10-04T20:09:19Z</time>
      </trkpt>
      <trkpt lat="43.26271" lon="-0.70419">
        <ele>173.044</ele>
        <time>2016-10-04T20:09:39Z</time>
      </trkpt>
      <trkpt lat="43.26276" lon="-0.70615">
        <ele>171.013</ele>
        <time>2016-10-04T20:09:59Z</time>
      </trkpt>
      <trkpt lat="43.26332" lon="-0.7084">
        <ele>171.019</ele>
        <time>2016-10-04T20:10:19Z</time>
      </trkpt>
      <trkpt lat="43.26368" lon="-0.71029">
        <ele>172.025</ele>
        <time>2016-10-04T20:10:39Z</time>
      </trkpt>
      <trkpt lat="43.26374" lon="-0.71095">
        <ele>172.056</ele>
        <time>2016-10-04T20:10:59Z</time>
      </trkpt>
      <trkpt lat="43.26416" lon="-0.71119">
        <ele>172.018</ele>
        <time>2016-10-04T20:11:19Z</time>
      </trkpt>
      <trkpt lat="43.2641" lon="-0.71194">
        <ele>172.051</ele>
        <time>2016-10-04T20:11:39Z</time>
      </trkpt>
      <trkpt lat="43.26422" lon="-0.71261">
        <ele>171.013</ele>
        <time>2016-10-04T20:11:59Z</time>
      </trkpt>
      <trkpt lat="43.26422" lon="-0.71297">
        <ele>170.084</ele>
        <time>2016-10-04T20:12:19Z</time>
      </trkpt>
      <trkpt lat="43.2641" lon="-0.71327">
        <ele>170.007</ele>
        <time>2016-10-04T20:12:39Z</time>
      </trkpt>
      <trkpt lat="43.26312" lon="-0.71383">
        <ele>165.017</ele>
        <time>2016-10-04T20:12:59Z</time>
      </trkpt>
      <trkpt lat="43.26254" lon="-0.71486">
        <ele>157.008</ele>
        <time>2016-10-04T20:13:19Z</time>
      </trkpt>
      <trkpt lat="43.26208" lon="-0.71527">
        <ele>159.084</ele>
        <time>2016-10-04T20:13:39Z</time>
      </trkpt>
      <trkpt lat="43.26208" lon="-0.7158">
        <ele>160.063</ele>
        <time>2016-10-04T20:13:59Z</time>
      </trkpt>
      <trkpt lat="43.26091" lon="-0.71625">
        <ele>169.059</ele>
        <time>2016-10-04T20:14:19Z</time>
      </trkpt>
      <trkpt lat="43.25902" lon="-0.71735">
        <ele>171.075</ele>
        <time>2016-10-04T20:14:39Z</time>
      </trkpt>
      <trkpt lat="43.25857" lon="-0.71788">
        <ele>172.096</ele>
        <time>2016-10-04T20:14:59Z</time>
      </trkpt>
      <trkpt lat="43.25868" lon="-0.7184">
        <ele>176.038</ele>
        <time>2016-10-04T20:15:19Z</time>
      </trkpt>
      <trkpt lat="43.25854" lon="-0.71849">
        <ele>176.091</ele>
        <time>2016-10-04T20:15:39Z</time>
      </trkpt>
      <trkpt lat="43.25833" lon="-0.7187">
        <ele>178.073</ele>
        <time>2016-10-04T20:15:59Z</time>
      </trkpt>
      <trkpt lat="43.25871" lon="-0.71971">
        <ele>186.022</ele>
        <time>2016-10-04T20:16:19Z</time>
      </trkpt>
      <trkpt lat="43.25865" lon="-0.72005">
        <ele>194.062</ele>
        <time>2016-10-04T20:16:39Z</time>
      </trkpt>
      <trkpt lat="43.25821" lon="-0.72048">
        <ele>196.008</ele>
        <time>2016-10-04T20:16:59Z</time>
      </trkpt>
      <trkpt lat="43.25796" lon="-0.72151">
        <ele>200.008</ele>
        <time>2016-10-04T20:17:19Z</time>
      </trkpt>
      <trkpt lat="43.2574" lon="-0.72295">
        <ele>196.048</ele>
        <time>2016-10-04T20:17:39Z</time>
      </trkpt>
      <trkpt lat="43.25733" lon="-0.72383">
        <ele>194.077</ele>
        <time>2016-10-04T20:17:59Z</time>
      </trkpt>
      <trkpt lat="43.25655" lon="-0.72542">
        <ele>196.083</ele>
        <time>2016-10-04T20:18:19Z</time>
      </trkpt>
      <trkpt lat="43.25627" lon="-0.72634">
        <ele>195.029</ele>
        <time>2016-10-04T20:18:39Z</time>
      </trkpt>
      <trkpt lat="43.25561" lon="-0.72778">
        <ele>202.09</ele>
        <time>2016-10-04T20:18:59Z</time>
      </trkpt>
      <trkpt lat="43.25583" lon="-0.72818">
        <ele>203.022</ele>
        <time>2016-10-04T20:19:19Z</time>
      </trkpt>
      <trkpt lat="43.25516" lon="-0.72902">
        <ele>204.035</ele>
        <time>2016-10-04T20:19:39Z</time>
      </trkpt>
      <trkpt lat="43.25455" lon="-0.72909">
        <ele>202.077</ele>
        <time>2016-10-04T20:19:59Z</time>
      </trkpt>
      <trkpt lat="43.25413" lon="-0.72979">
        <ele>195.071</ele>
        <time>2016-10-04T20:20:19Z</time>
      </trkpt>
      <trkpt lat="43.25399" lon="-0.73033">
        <ele>191.041</ele>
        <time>2016-10-04T20:20:39Z</time>
      </trkpt>
      <trkpt lat="43.25418" lon="-0.73155">
        <ele>181.015</ele>
        <time>2016-10-04T20:20:59Z</time>
      </trkpt>
      <trkpt lat="43.2536" lon="-0.73198">
        <ele>180.008</ele>
        <time>2016-10-04T20:21:19Z</time>
      </trkpt>
      <trkpt lat="43.2535" lon="-0.73312">
        <ele>183.093</ele>
        <time>2016-10-04T20:21:39Z</time>
      </trkpt>
      <trkpt lat="43.25332" lon="-0.73361">
        <ele>190.012</ele>
        <time>2016-10-04T20:21:59Z</time>
      </trkpt>
      <trkpt lat="43.25296" lon="-0.73393">
        <ele>190.098</ele>
        <time>2016-10-04T20:22:19Z</time>
      </trkpt>
      <trkpt lat="43.251" lon="-0.73737">
        <ele>198.084</ele>
        <time>2016-10-04T20:22:39Z</time>
      </trkpt>
      <trkpt lat="43.25046" lon="-0.73891">
        <ele>203.085</ele>
        <time>2016-10-04T20:22:59Z</time>
      </trkpt>
      <trkpt lat="43.25007" lon="-0.74014">
        <ele>209.047</ele>
        <time>2016-10-04T20:23:19Z</time>
      </trkpt>
      <trkpt lat="43.2498" lon="-0.74136">
        <ele>216.08</ele>
        <time>2016-10-04T20:23:39Z</time>
      </trkpt>
      <trkpt lat="43.24897" lon="-0.74428">
        <ele>230.062</ele>
        <time>2016-10-04T20:23:59Z</time>
      </trkpt>
      <trkpt lat="43.2485" lon="-0.74453">
        <ele>230.048</ele>
        <time>2016-10-04T20:24:19Z</time>
      </trkpt>
      <trkpt lat="43.24708" lon="-0.74578">
        <ele>242.061</ele>
        <time>2016-10-04T20:24:39Z</time>
      </trkpt>
      <trkpt lat="43.24672" lon="-0.74552">
        <ele>241.017</ele>
        <time>2016-10-04T20:24:59Z</time>
      </trkpt>
      <trkpt lat="43.24621" lon="-0.74604">
        <ele>240.008</ele>
        <time>2016-10-04T20:25:19Z</time>
      </trkpt>
      <trkpt lat="43.24605" lon="-0.74666">
        <ele>241.06</ele>
        <time>2016-10-04T20:25:39Z</time>
      </trkpt>
      <trkpt lat="43.24605" lon="-0.74709">
        <ele>241.069</ele>
        <time>2016-10-04T20:25:59Z</time>
      </trkpt>
      <trkpt lat="43.24585" lon="-0.74737">
        <ele>241.075</ele>
        <time>2016-10-04T20:26:19Z</time>
      </trkpt>
      <trkpt lat="43.2453" lon="-0.7476">
        <ele>240.061</ele>
        <time>2016-10-04T20:26:39Z</time>
      </trkpt>
      <trkpt lat="43.24497" lon="-0.74818">
        <ele>244.062</ele>
        <time>2016-10-04T20:26:59Z</time>
      </trkpt>
      <trkpt lat="43.24466" lon="-0.7485">
        <ele>242.044</ele>
        <time>2016-10-04T20:27:19Z</time>
      </trkpt>
      <trkpt lat="43.24425" lon="-0.74833">
        <ele>245.067</ele>
        <time>2016-10-04T20:27:39Z</time>
      </trkpt>
      <trkpt lat="43.24377" lon="-0.74737">
        <ele>248.099</ele>
        <time>2016-10-04T20:27:59Z</time>
      </trkpt>
      <trkpt lat="43.24324" lon="-0.747">
        <ele>252.051</ele>
        <time>2016-10-04T20:28:19Z</time>
      </trkpt>
      <trkpt lat="43.24205" lon="-0.74709">
        <ele>249.001</ele>
        <time>2016-10-04T20:28:39Z</time>
      </trkpt>
      <trkpt lat="43.24199" lon="-0.7473">
        <ele>250.011</ele>
        <time>2016-10-04T20:28:59Z</time>
      </trkpt>
      <trkpt lat="43.24152" lon="-0.74758">
        <ele>249.008</ele>
        <time>2016-10-04T20:29:19Z</time>
      </trkpt>
      <trkpt lat="43.24253" lon="-0.7482">
        <ele>255.011</ele>
        <time>2016-10-04T20:29:39Z</time>
      </trkpt>
      <trkpt lat="43.24256" lon="-0.7487">
        <ele>253.02</ele>
        <time>2016-10-04T20:29:59Z</time>
      </trkpt>
      <trkpt lat="43.24225" lon="-0.74958">
        <ele>242.056</ele>
        <time>2016-10-04T20:30:19Z</time>
      </trkpt>
      <trkpt lat="43.24195" lon="-0.75078">
        <ele>234.072</ele>
        <time>2016-10-04T20:30:39Z</time>
      </trkpt>
      <trkpt lat="43.24095" lon="-0.75187">
        <ele>212.023</ele>
        <time>2016-10-04T20:30:59Z</time>
      </trkpt>
      <trkpt lat="43.24089" lon="-0.75284">
        <ele>203.085</ele>
        <time>2016-10-04T20:31:19Z</time>
      </trkpt>
      <trkpt lat="43.24136" lon="-0.75331">
        <ele>199.028</ele>
        <time>2016-10-04T20:31:39Z</time>
      </trkpt>
      <trkpt lat="43.24064" lon="-0.75378">
        <ele>185.06</ele>
        <time>2016-10-04T20:31:59Z</time>
      </trkpt>
      <trkpt lat="43.24052" lon="-0.75501">
        <ele>168.048</ele>
        <time>2016-10-04T20:32:19Z</time>
      </trkpt>
      <trkpt lat="43.24072" lon="-0.75537">
        <ele>169.061</ele>
        <time>2016-10-04T20:32:39Z</time>
      </trkpt>
      <trkpt lat="43.24108" lon="-0.75556">
        <ele>167.017</ele>
        <time>2016-10-04T20:32:59Z</time>
      </trkpt>
      <trkpt lat="43.24158" lon="-0.75533">
        <ele>164.008</ele>
        <time>2016-10-04T20:33:19Z</time>
      </trkpt>
      <trkpt lat="43.24238" lon="-0.75496">
        <ele>163.05</ele>
        <time>2016-10-04T20:33:39Z</time>
      </trkpt>
      <trkpt lat="43.24294" lon="-0.75509">
        <ele>162.029</ele>
        <time>2016-10-04T20:33:59Z</time>
      </trkpt>
      <trkpt lat="43.24366" lon="-0.75507">
        <ele>169.055</ele>
        <time>2016-10-04T20:34:19Z</time>
      </trkpt>
      <trkpt lat="43.24531" lon="-0.75666">
        <ele>189.031</ele>
        <time>2016-10-04T20:34:39Z</time>
      </trkpt>
      <trkpt lat="43.24566" lon="-0.75722">
        <ele>189.062</ele>
        <time>2016-10-04T20:34:59Z</time>
      </trkpt>
      <trkpt lat="43.24614" lon="-0.7576">
        <ele>191.044</ele>
        <time>2016-10-04T20:35:19Z</time>
      </trkpt>
      <trkpt lat="43.24747" lon="-0.75906">
        <ele>204.087</ele>
        <time>2016-10-04T20:35:39Z</time>
      </trkpt>
      <trkpt lat="43.24783" lon="-0.7599">
        <ele>204.049</ele>
        <time>2016-10-04T20:35:59Z</time>
      </trkpt>
      <trkpt lat="43.24821" lon="-0.76011">
        <ele>200.061</ele>
        <time>2016-10-04T20:36:19Z</time>
      </trkpt>
      <trkpt lat="43.24897" lon="-0.76071">
        <ele>183.021</ele>
        <time>2016-10-04T20:36:39Z</time>
      </trkpt>
      <trkpt lat="43.24907" lon="-0.76179">
        <ele>179.013</ele>
        <time>2016-10-04T20:36:59Z</time>
      </trkpt>
      <trkpt lat="43.24918" lon="-0.76252">
        <ele>172.008</ele>
        <time>2016-10-04T20:37:19Z</time>
      </trkpt>
      <trkpt lat="43.24868" lon="-0.76355">
        <ele>181.082</ele>
        <time>2016-10-04T20:37:39Z</time>
      </trkpt>
      <trkpt lat="43.24882" lon="-0.76365">
        <ele>179.091</ele>
        <time>2016-10-04T20:37:59Z</time>
      </trkpt>
      <trkpt lat="43.24916" lon="-0.76316">
        <ele>175.047</ele>
        <time>2016-10-04T20:38:19Z</time>
      </trkpt>
      <trkpt lat="43.24994" lon="-0.7631">
        <ele>164.063</ele>
        <time>2016-10-04T20:38:39Z</time>
      </trkpt>
      <trkpt lat="43.25025" lon="-0.76374">
        <ele>162.024</ele>
        <time>2016-10-04T20:38:59Z</time>
      </trkpt>
      <trkpt lat="43.25027" lon="-0.76486">
        <ele>166.066</ele>
        <time>2016-10-04T20:39:19Z</time>
      </trkpt>
      <trkpt lat="43.25013" lon="-0.76522">
        <ele>170.089</ele>
        <time>2016-10-04T20:39:39Z</time>
      </trkpt>
      <trkpt lat="43.2503" lon="-0.76646">
        <ele>172.081</ele>
        <time>2016-10-04T20:39:59Z</time>
      </trkpt>
      <trkpt lat="43.25038" lon="-0.76769">
        <ele>175.066</ele>
        <time>2016-10-04T20:40:19Z</time>
      </trkpt>
      <trkpt lat="43.25057" lon="-0.76938">
        <ele>168.029</ele>
        <time>2016-10-04T20:40:39Z</time>
      </trkpt>
      <trkpt lat="43.25171" lon="-0.76992">
        <ele>156.021</ele>
        <time>2016-10-04T20:40:59Z</time>
      </trkpt>
      <trkpt lat="43.25146" lon="-0.77125">
        <ele>161.008</ele>
        <time>2016-10-04T20:41:19Z</time>
      </trkpt>
      <trkpt lat="43.25154" lon="-0.77149">
        <ele>161.032</ele>
        <time>2016-10-04T20:41:39Z</time>
      </trkpt>
      <trkpt lat="43.25118" lon="-0.77187">
        <ele>175.011</ele>
        <time>2016-10-04T20:41:59Z</time>
      </trkpt>
      <trkpt lat="43.25111" lon="-0.77269">
        <ele>186.057</ele>
        <time>2016-10-04T20:42:19Z</time>
      </trkpt>
      <trkpt lat="43.25013" lon="-0.77232">
        <ele>207.083</ele>
        <time>2016-10-04T20:42:39Z</time>
      </trkpt>
      <trkpt lat="43.24996" lon="-0.77196">
        <ele>214.064</ele>
        <time>2016-10-04T20:42:59Z</time>
      </trkpt>
      <trkpt lat="43.24932" lon="-0.77183">
        <ele>219.086</ele>
        <time>2016-10-04T20:43:19Z</time>
      </trkpt>
      <trkpt lat="43.24899" lon="-0.77106">
        <ele>216.019</ele>
        <time>2016-10-04T20:43:39Z</time>
      </trkpt>
      <trkpt lat="43.24894" lon="-0.76975">
        <ele>204.011</ele>
        <time>2016-10-04T20:43:59Z</time>
      </trkpt>
      <trkpt lat="43.24802" lon="-0.76994">
        <ele>198.052</ele>
        <time>2016-10-04T20:44:19Z</time>
      </trkpt>
      <trkpt lat="43.24755" lon="-0.76966">
        <ele>195.053</ele>
        <time>2016-10-04T20:44:39Z</time>
      </trkpt>
      <trkpt lat="43.24667" lon="-0.76951">
        <ele>193.008</ele>
        <time>2016-10-04T20:44:59Z</time>
      </trkpt>
      <trkpt lat="43.24569" lon="-0.77084">
        <ele>201.008</ele>
        <time>2016-10-04T20:45:19Z</time>
      </trkpt>
      <trkpt lat="43.2453" lon="-0.77104">
        <ele>205.091</ele>
        <time>2016-10-04T20:45:39Z</time>
      </trkpt>
      <trkpt lat="43.24442" lon="-0.76996">
        <ele>221.05</ele>
        <time>2016-10-04T20:45:59Z</time>
      </trkpt>
      <trkpt lat="43.24184" lon="-0.77121">
        <ele>238.046</ele>
        <time>2016-10-04T20:46:19Z</time>
      </trkpt>
      <trkpt lat="43.24106" lon="-0.77091">
        <ele>242.072</ele>
        <time>2016-10-04T20:46:39Z</time>
      </trkpt>
      <trkpt lat="43.24078" lon="-0.7717">
        <ele>244.023</ele>
        <time>2016-10-04T20:46:59Z</time>
      </trkpt>
      <trkpt lat="43.24095" lon="-0.77299">
        <ele>243.055</ele>
        <time>2016-10-04T20:47:19Z</time>
      </trkpt>
      <trkpt lat="43.24092" lon="-0.77385">
        <ele>248.018</ele>
        <time>2016-10-04T20:47:39Z</time>
      </trkpt>
      <trkpt lat="43.2412" lon="-0.77477">
        <ele>251.04</ele>
        <time>2016-10-04T20:47:59Z</time>
      </trkpt>
      <trkpt lat="43.24114" lon="-0.77558">
        <ele>248.042</ele>
        <time>2016-10-04T20:48:19Z</time>
      </trkpt>
      <trkpt lat="43.24013" lon="-0.77771">
        <ele>245.022</ele>
        <time>2016-10-04T20:48:39Z</time>
      </trkpt>
      <trkpt lat="43.23911" lon="-0.77885">
        <ele>255.014</ele>
        <time>2016-10-04T20:48:59Z</time>
      </trkpt>
      <trkpt lat="43.23872" lon="-0.7796">
        <ele>258.008</ele>
        <time>2016-10-04T20:49:19Z</time>
      </trkpt>
      <trkpt lat="43.23831" lon="-0.78007">
        <ele>263.02</ele>
        <time>2016-10-04T20:49:39Z</time>
      </trkpt>
      <trkpt lat="43.23809" lon="-0.78097">
        <ele>265.049</ele>
        <time>2016-10-04T20:49:59Z</time>
      </trkpt>
      <trkpt lat="43.23806" lon="-0.78209">
        <ele>268.025</ele>
        <time>2016-10-04T20:50:19Z</time>
      </trkpt>
      <trkpt lat="43.23692" lon="-0.78387">
        <ele>253.011</ele>
        <time>2016-10-04T20:50:39Z</time>
      </trkpt>
      <trkpt lat="43.23683" lon="-0.78457">
        <ele>246.032</ele>
        <time>2016-10-04T20:50:59Z</time>
      </trkpt>
      <trkpt lat="43.23495" lon="-0.78674">
        <ele>238.084</ele>
        <time>2016-10-04T20:51:19Z</time>
      </trkpt>
      <trkpt lat="43.23461" lon="-0.78696">
        <ele>240.037</ele>
        <time>2016-10-04T20:51:39Z</time>
      </trkpt>
      <trkpt lat="43.23429" lon="-0.7873">
        <ele>240.059</ele>
        <time>2016-10-04T20:51:59Z</time>
      </trkpt>
      <trkpt lat="43.23419" lon="-0.78717">
        <ele>240.046</ele>
        <time>2016-10-04T20:52:19Z</time>
      </trkpt>
      <trkpt lat="43.23404" lon="-0.78661">
        <ele>251.088</ele>
        <time>2016-10-04T20:52:39Z</time>
      </trkpt>
      <trkpt lat="43.23298" lon="-0.78601">
        <ele>264.016</ele>
        <time>2016-10-04T20:52:59Z</time>
      </trkpt>
      <trkpt lat="43.2329" lon="-0.78584">
        <ele>265.008</ele>
        <time>2016-10-04T20:53:19Z</time>
      </trkpt>
      <trkpt lat="43.23212" lon="-0.7864">
        <ele>263.05</ele>
        <time>2016-10-04T20:53:39Z</time>
      </trkpt>
      <trkpt lat="43.23206" lon="-0.78745">
        <ele>273.059</ele>
        <time>2016-10-04T20:53:59Z</time>
      </trkpt>
      <trkpt lat="43.23167" lon="-0.78869">
        <ele>283.025</ele>
        <time>2016-10-04T20:54:19Z</time>
      </trkpt>
      <trkpt lat="43.23126" lon="-0.78966">
        <ele>297.041</ele>
        <time>2016-10-04T20:54:39Z</time>
      </trkpt>
      <trkpt lat="43.23093" lon="-0.79075">
        <ele>309.092</ele>
        <time>2016-10-04T20:54:59Z</time>
      </trkpt>
      <trkpt lat="43.23087" lon="-0.79178">
        <ele>307.054</ele>
        <time>2016-10-04T20:55:19Z</time>
      </trkpt>
      <trkpt lat="43.22948" lon="-0.79286">
        <ele>322.037</ele>
        <time>2016-10-04T20:55:39Z</time>
      </trkpt>
      <trkpt lat="43.22849" lon="-0.79329">
        <ele>330.019</ele>
        <time>2016-10-04T20:55:59Z</time>
      </trkpt>
      <trkpt lat="43.22801" lon="-0.79382">
        <ele>331.046</ele>
        <time>2016-10-04T20:56:19Z</time>
      </trkpt>
      <trkpt lat="43.22773" lon="-0.79485">
        <ele>335.088</ele>
        <time>2016-10-04T20:56:39Z</time>
      </trkpt>
      <trkpt lat="43.22737" lon="-0.79556">
        <ele>342.016</ele>
        <time>2016-10-04T20:56:59Z</time>
      </trkpt>
      <trkpt lat="43.22671" lon="-0.79599">
        <ele>341.008</ele>
        <time>2016-10-04T20:57:19Z</time>
      </trkpt>
      <trkpt lat="43.22656" lon="-0.7964">
        <ele>340.03</ele>
        <time>2016-10-04T20:57:39Z</time>
      </trkpt>
      <trkpt lat="43.22616" lon="-0.7967">
        <ele>331.029</ele>
        <time>2016-10-04T20:57:59Z</time>
      </trkpt>
      <trkpt lat="43.22573" lon="-0.79756">
        <ele>324.065</ele>
        <time>2016-10-04T20:58:19Z</time>
      </trkpt>
      <trkpt lat="43.22469" lon="-0.79799">
        <ele>322.081</ele>
        <time>2016-10-04T20:58:39Z</time>
      </trkpt>
      <trkpt lat="43.22335" lon="-0.7979">
        <ele>317.092</ele>
        <time>2016-10-04T20:58:59Z</time>
      </trkpt>
      <trkpt lat="43.22235" lon="-0.7976">
        <ele>312.014</ele>
        <time>2016-10-04T20:59:19Z</time>
      </trkpt>
      <trkpt lat="43.22168" lon="-0.79719">
        <ele>315.057</ele>
        <time>2016-10-04T20:59:39Z</time>
      </trkpt>
      <trkpt lat="43.2214" lon="-0.79775">
        <ele>319.059</ele>
        <time>2016-10-04T20:59:59Z</time>
      </trkpt>
      <trkpt lat="43.22161" lon="-0.80238">
        <ele>364.087</ele>
        <time>2016-10-04T21:00:19Z</time>
      </trkpt>
      <trkpt lat="43.22149" lon="-0.80316">
        <ele>366.042</ele>
        <time>2016-10-04T21:00:39Z</time>
      </trkpt>
      <trkpt lat="43.22107" lon="-0.80367">
        <ele>366.026</ele>
        <time>2016-10-04T21:00:59Z</time>
      </trkpt>
      <trkpt lat="43.22044" lon="-0.80421">
        <ele>388.008</ele>
        <time>2016-10-04T21:01:19Z</time>
      </trkpt>
      <trkpt lat="43.21986" lon="-0.80507">
        <ele>414.074</ele>
        <time>2016-10-04T21:01:39Z</time>
      </trkpt>
      <trkpt lat="43.21963" lon="-0.80539">
        <ele>426.063</ele>
        <time>2016-10-04T21:01:59Z</time>
      </trkpt>
      <trkpt lat="43.2198" lon="-0.80578">
        <ele>421.049</ele>
        <time>2016-10-04T21:02:19Z</time>
      </trkpt>
      <trkpt lat="43.22107" lon="-0.80616">
        <ele>407.045</ele>
        <time>2016-10-04T21:02:39Z</time>
      </trkpt>
      <trkpt lat="43.22201" lon="-0.8068">
        <ele>415.016</ele>
        <time>2016-10-04T21:02:59Z</time>
      </trkpt>
      <trkpt lat="43.22244" lon="-0.80807">
        <ele>433.078</ele>
        <time>2016-10-04T21:03:19Z</time>
      </trkpt>
      <trkpt lat="43.22251" lon="-0.80869">
        <ele>426.031</ele>
        <time>2016-10-04T21:03:39Z</time>
      </trkpt>
      <trkpt lat="43.22308" lon="-0.80949">
        <ele>433.023</ele>
        <time>2016-10-04T21:03:59Z</time>
      </trkpt>
      <trkpt lat="43.22326" lon="-0.81056">
        <ele>441.016</ele>
        <time>2016-10-04T21:04:19Z</time>
      </trkpt>
      <trkpt lat="43.22313" lon="-0.81144">
        <ele>438.076</ele>
        <time>2016-10-04T21:04:39Z</time>
      </trkpt>
      <trkpt lat="43.22285" lon="-0.81172">
        <ele>432.013</ele>
        <time>2016-10-04T21:04:59Z</time>
      </trkpt>
      <trkpt lat="43.22282" lon="-0.81206">
        <ele>430.008</ele>
        <time>2016-10-04T21:05:19Z</time>
      </trkpt>
      <trkpt lat="43.22221" lon="-0.81232">
        <ele>425.087</ele>
        <time>2016-10-04T21:05:39Z</time>
      </trkpt>
      <trkpt lat="43.22104" lon="-0.81215">
        <ele>419.046</ele>
        <time>2016-10-04T21:05:59Z</time>
      </trkpt>
      <trkpt lat="43.22024" lon="-0.81226">
        <ele>411.052</ele>
        <time>2016-10-04T21:06:19Z</time>
      </trkpt>
      <trkpt lat="43.21919" lon="-0.81067">
        <ele>422.058</ele>
        <time>2016-10-04T21:06:39Z</time>
      </trkpt>
      <trkpt lat="43.21836" lon="-0.81071">
        <ele>410.019</ele>
        <time>2016-10-04T21:06:59Z</time>
      </trkpt>
      <trkpt lat="43.21825" lon="-0.81105">
        <ele>395.031</ele>
        <time>2016-10-04T21:07:19Z</time>
      </trkpt>
      <trkpt lat="43.21753" lon="-0.8112">
        <ele>391.034</ele>
        <time>2016-10-04T21:07:39Z</time>
      </trkpt>
      <trkpt lat="43.21691" lon="-0.81168">
        <ele>368.066</ele>
        <time>2016-10-04T21:07:59Z</time>
      </trkpt>
      <trkpt lat="43.2158" lon="-0.81215">
        <ele>340.074</ele>
        <time>2016-10-04T21:08:19Z</time>
      </trkpt>
      <trkpt lat="43.21563" lon="-0.81318">
        <ele>337.056</ele>
        <time>2016-10-04T21:08:39Z</time>
      </trkpt>
      <trkpt lat="43.2157" lon="-0.81367">
        <ele>337.021</ele>
        <time>2016-10-04T21:08:59Z</time>
      </trkpt>
      <trkpt lat="43.21611" lon="-0.8141">
        <ele>332.008</ele>
        <time>2016-10-04T21:09:19Z</time>
      </trkpt>
      <trkpt lat="43.21622" lon="-0.81459">
        <ele>323.083</ele>
        <time>2016-10-04T21:09:39Z</time>
      </trkpt>
      <trkpt lat="43.21595" lon="-0.81504">
        <ele>320.012</ele>
        <time>2016-10-04T21:09:59Z</time>
      </trkpt>
      <trkpt lat="43.21531" lon="-0.81577">
        <ele>315.088</ele>
        <time>2016-10-04T21:10:19Z</time>
      </trkpt>
      <trkpt lat="43.21498" lon="-0.81676">
        <ele>311.034</ele>
        <time>2016-10-04T21:10:39Z</time>
      </trkpt>
      <trkpt lat="43.2147" lon="-0.81719">
        <ele>309.015</ele>
        <time>2016-10-04T21:10:59Z</time>
      </trkpt>
      <trkpt lat="43.21401" lon="-0.81923">
        <ele>296.087</ele>
        <time>2016-10-04T21:11:19Z</time>
      </trkpt>
      <trkpt lat="43.21411" lon="-0.82011">
        <ele>294.06</ele>
        <time>2016-10-04T21:11:39Z</time>
      </trkpt>
      <trkpt lat="43.21406" lon="-0.82095">
        <ele>295.092</ele>
        <time>2016-10-04T21:11:59Z</time>
      </trkpt>
      <trkpt lat="43.21453" lon="-0.82191">
        <ele>291.089</ele>
        <time>2016-10-04T21:12:19Z</time>
      </trkpt>
      <trkpt lat="43.21494" lon="-0.82247">
        <ele>292.006</ele>
        <time>2016-10-04T21:12:39Z</time>
      </trkpt>
      <trkpt lat="43.21508" lon="-0.82361">
        <ele>284.026</ele>
        <time>2016-10-04T21:12:59Z</time>
      </trkpt>
      <trkpt lat="43.21506" lon="-0.82457">
        <ele>279.008</ele>
        <time>2016-10-04T21:13:19Z</time>
      </trkpt>
      <trkpt lat="43.21483" lon="-0.82607">
        <ele>269.034</ele>
        <time>2016-10-04T21:13:39Z</time>
      </trkpt>
      <trkpt lat="43.21491" lon="-0.82693">
        <ele>262.033</ele>
        <time>2016-10-04T21:13:59Z</time>
      </trkpt>
      <trkpt lat="43.21533" lon="-0.82788">
        <ele>245.069</ele>
        <time>2016-10-04T21:14:19Z</time>
      </trkpt>
      <trkpt lat="43.21458" lon="-0.82758">
        <ele>248.035</ele>
        <time>2016-10-04T21:14:39Z</time>
      </trkpt>
      <trkpt lat="43.21376" lon="-0.82777">
        <ele>238.026</ele>
        <time>2016-10-04T21:14:59Z</time>
      </trkpt>
      <trkpt lat="43.21342" lon="-0.82762">
        <ele>239.018</ele>
        <time>2016-10-04T21:15:19Z</time>
      </trkpt>
      <trkpt lat="43.21344" lon="-0.82783">
        <ele>236.061</ele>
        <time>2016-10-04T21:15:39Z</time>
      </trkpt>
      <trkpt lat="43.21389" lon="-0.82837">
        <ele>223.053</ele>
        <time>2016-10-04T21:15:59Z</time>
      </trkpt>
      <trkpt lat="43.21412" lon="-0.82848">
        <ele>226.046</ele>
        <time>2016-10-04T21:16:19Z</time>
      </trkpt>
      <trkpt lat="43.21433" lon="-0.82833">
        <ele>238.088</ele>
        <time>2016-10-04T21:16:39Z</time>
      </trkpt>
      <trkpt lat="43.21437" lon="-0.82882">
        <ele>223.016</ele>
        <time>2016-10-04T21:16:59Z</time>
      </trkpt>
      <trkpt lat="43.21358" lon="-0.8294">
        <ele>203.008</ele>
        <time>2016-10-04T21:17:19Z</time>
      </trkpt>
      <trkpt lat="43.21307" lon="-0.82923">
        <ele>200.02</ele>
        <time>2016-10-04T21:17:39Z</time>
      </trkpt>
      <trkpt lat="43.21296" lon="-0.82936">
        <ele>199.019</ele>
        <time>2016-10-04T21:17:59Z</time>
      </trkpt>
      <trkpt lat="43.21363" lon="-0.82969">
        <ele>201.065</ele>
        <time>2016-10-04T21:18:19Z</time>
      </trkpt>
      <trkpt lat="43.21499" lon="-0.82951">
        <ele>205.051</ele>
        <time>2016-10-04T21:18:39Z</time>
      </trkpt>
      <trkpt lat="43.21579" lon="-0.82989">
        <ele>204.082</ele>
        <time>2016-10-04T21:18:59Z</time>
      </trkpt>
      <trkpt lat="43.21623" lon="-0.83088">
        <ele>189.084</ele>
        <time>2016-10-04T21:19:19Z</time>
      </trkpt>
      <trkpt lat="43.21663" lon="-0.83103">
        <ele>189.087</ele>
        <time>2016-10-04T21:19:39Z</time>
      </trkpt>
      <trkpt lat="43.21692" lon="-0.83092">
        <ele>188.019</ele>
        <time>2016-10-04T21:19:59Z</time>
      </trkpt>
      <trkpt lat="43.21724" lon="-0.83045">
        <ele>192.092</ele>
        <time>2016-10-04T21:20:19Z</time>
      </trkpt>
      <trkpt lat="43.21765" lon="-0.83047">
        <ele>188.073</ele>
        <time>2016-10-04T21:20:39Z</time>
      </trkpt>
      <trkpt lat="43.21956" lon="-0.83234">
        <ele>194.02</ele>
        <time>2016-10-04T21:20:59Z</time>
      </trkpt>
      <trkpt lat="43.22048" lon="-0.83266">
        <ele>197.008</ele>
        <time>2016-10-04T21:21:19Z</time>
      </trkpt>
      <trkpt lat="43.2207" lon="-0.83371">
        <ele>205.055</ele>
        <time>2016-10-04T21:21:39Z</time>
      </trkpt>
      <trkpt lat="43.21954" lon="-0.83408">
        <ele>204.054</ele>
        <time>2016-10-04T21:21:59Z</time>
      </trkpt>
      <trkpt lat="43.21865" lon="-0.83421">
        <ele>204.02</ele>
        <time>2016-10-04T21:22:19Z</time>
      </trkpt>
      <trkpt lat="43.21832" lon="-0.83479">
        <ele>198.066</ele>
        <time>2016-10-04T21:22:39Z</time>
      </trkpt>
      <trkpt lat="43.21829" lon="-0.8365">
        <ele>205.037</ele>
        <time>2016-10-04T21:22:59Z</time>
      </trkpt>
      <trkpt lat="43.21812" lon="-0.83704">
        <ele>203.059</ele>
        <time>2016-10-04T21:23:19Z</time>
      </trkpt>
      <trkpt lat="43.21809" lon="-0.83764">
        <ele>203.052</ele>
        <time>2016-10-04T21:23:39Z</time>
      </trkpt>
      <trkpt lat="43.21757" lon="-0.83764">
        <ele>199.094</ele>
        <time>2016-10-04T21:23:59Z</time>
      </trkpt>
      <trkpt lat="43.21751" lon="-0.8379">
        <ele>200.017</ele>
        <time>2016-10-04T21:24:19Z</time>
      </trkpt>
      <trkpt lat="43.21778" lon="-0.83843">
        <ele>203.087</ele>
        <time>2016-10-04T21:24:39Z</time>
      </trkpt>
      <trkpt lat="43.21746" lon="-0.83884">
        <ele>200.015</ele>
        <time>2016-10-04T21:24:59Z</time>
      </trkpt>
      <trkpt lat="43.21698" lon="-0.84105">
        <ele>216.008</ele>
        <time>2016-10-04T21:25:19Z</time>
      </trkpt>
      <trkpt lat="43.21657" lon="-0.84202">
        <ele>209.037</ele>
        <time>2016-10-04T21:25:39Z</time>
      </trkpt>
      <trkpt lat="43.2166" lon="-0.84275">
        <ele>216.016</ele>
        <time>2016-10-04T21:25:59Z</time>
      </trkpt>
      <trkpt lat="43.21642" lon="-0.84303">
        <ele>219.082</ele>
        <time>2016-10-04T21:26:19Z</time>
      </trkpt>
      <trkpt lat="43.21596" lon="-0.84255">
        <ele>216.018</ele>
        <time>2016-10-04T21:26:39Z</time>
      </trkpt>
      <trkpt lat="43.21435" lon="-0.84281">
        <ele>214.069</ele>
        <time>2016-10-04T21:26:59Z</time>
      </trkpt>
      <trkpt lat="43.21404" lon="-0.84311">
        <ele>210.041</ele>
        <time>2016-10-04T21:27:19Z</time>
      </trkpt>
      <trkpt lat="43.21394" lon="-0.84371">
        <ele>215.034</ele>
        <time>2016-10-04T21:27:39Z</time>
      </trkpt>
      <trkpt lat="43.21355" lon="-0.84485">
        <ele>217.036</ele>
        <time>2016-10-04T21:27:59Z</time>
      </trkpt>
      <trkpt lat="43.21326" lon="-0.845">
        <ele>216.077</ele>
        <time>2016-10-04T21:28:19Z</time>
      </trkpt>
      <trkpt lat="43.21307" lon="-0.84408">
        <ele>213.061</ele>
        <time>2016-10-04T21:28:39Z</time>
      </trkpt>
      <trkpt lat="43.21268" lon="-0.84322">
        <ele>210.027</ele>
        <time>2016-10-04T21:28:59Z</time>
      </trkpt>
      <trkpt lat="43.21141" lon="-0.84425">
        <ele>215.008</ele>
        <time>2016-10-04T21:29:19Z</time>
      </trkpt>
      <trkpt lat="43.2111" lon="-0.84485">
        <ele>216.063</ele>
        <time>2016-10-04T21:29:39Z</time>
      </trkpt>
      <trkpt lat="43.21094" lon="-0.84562">
        <ele>223.082</ele>
        <time>2016-10-04T21:29:59Z</time>
      </trkpt>
      <trkpt lat="43.21043" lon="-0.84635">
        <ele>220.088</ele>
        <time>2016-10-04T21:30:19Z</time>
      </trkpt>
      <trkpt lat="43.21025" lon="-0.84702">
        <ele>222.064</ele>
        <time>2016-10-04T21:30:39Z</time>
      </trkpt>
      <trkpt lat="43.21049" lon="-0.84781">
        <ele>227.055</ele>
        <time>2016-10-04T21:30:59Z</time>
      </trkpt>
      <trkpt lat="43.21199" lon="-0.84925">
        <ele>238.047</ele>
        <time>2016-10-04T21:31:19Z</time>
      </trkpt>
      <trkpt lat="43.21251" lon="-0.84946">
        <ele>245.07</ele>
        <time>2016-10-04T21:31:39Z</time>
      </trkpt>
      <trkpt lat="43.21282" lon="-0.84983">
        <ele>246.082</ele>
        <time>2016-10-04T21:31:59Z</time>
      </trkpt>
      <trkpt lat="43.21302" lon="-0.84972">
        <ele>248.046</ele>
        <time>2016-10-04T21:32:19Z</time>
      </trkpt>
      <trkpt lat="43.21354" lon="-0.85142">
        <ele>258.088</ele>
        <time>2016-10-04T21:32:39Z</time>
      </trkpt>
      <trkpt lat="43.21358" lon="-0.85193">
        <ele>265.016</ele>
        <time>2016-10-04T21:32:59Z</time>
      </trkpt>
      <trkpt lat="43.21374" lon="-0.85257">
        <ele>270.008</ele>
        <time>2016-10-04T21:33:19Z</time>
      </trkpt>
      <trkpt lat="43.21413" lon="-0.8529">
        <ele>273.04</ele>
        <time>2016-10-04T21:33:39Z</time>
      </trkpt>
      <trkpt lat="43.21457" lon="-0.85307">
        <ele>276.039</ele>
        <time>2016-10-04T21:33:59Z</time>
      </trkpt>
      <trkpt lat="43.21543" lon="-0.85418">
        <ele>297.045</ele>
        <time>2016-10-04T21:34:19Z</time>
      </trkpt>
      <trkpt lat="43.21581" lon="-0.85523">
        <ele>298.081</ele>
        <time>2016-10-04T21:34:39Z</time>
      </trkpt>
      <trkpt lat="43.21604" lon="-0.85624">
        <ele>307.052</ele>
        <time>2016-10-04T21:34:59Z</time>
      </trkpt>
      <trkpt lat="43.2167" lon="-0.8574">
        <ele>316.034</ele>
        <time>2016-10-04T21:35:19Z</time>
      </trkpt>
      <trkpt lat="43.21671" lon="-0.85822">
        <ele>313.087</ele>
        <time>2016-10-04T21:35:39Z</time>
      </trkpt>
      <trkpt lat="43.21698" lon="-0.85905">
        <ele>317.019</ele>
        <time>2016-10-04T21:35:59Z</time>
      </trkpt>
      <trkpt lat="43.21693" lon="-0.85991">
        <ele>317.038</ele>
        <time>2016-10-04T21:36:19Z</time>
      </trkpt>
      <trkpt lat="43.21731" lon="-0.86062">
        <ele>318.07</ele>
        <time>2016-10-04T21:36:39Z</time>
      </trkpt>
      <trkpt lat="43.21732" lon="-0.86227">
        <ele>312.017</ele>
        <time>2016-10-04T21:36:59Z</time>
      </trkpt>
      <trkpt lat="43.21706" lon="-0.8629">
        <ele>310.008</ele>
        <time>2016-10-04T21:37:19Z</time>
      </trkpt>
      <trkpt lat="43.21667" lon="-0.86326">
        <ele>318.069</ele>
        <time>2016-10-04T21:37:39Z</time>
      </trkpt>
      <trkpt lat="43.21654" lon="-0.86397">
        <ele>322.088</ele>
        <time>2016-10-04T21:37:59Z</time>
      </trkpt>
      <trkpt lat="43.21673" lon="-0.86478">
        <ele>321.064</ele>
        <time>2016-10-04T21:38:19Z</time>
      </trkpt>
      <trkpt lat="43.21724" lon="-0.865">
        <ele>310.03</ele>
        <time>2016-10-04T21:38:39Z</time>
      </trkpt>
      <trkpt lat="43.21762" lon="-0.86556">
        <ele>299.021</ele>
        <time>2016-10-04T21:38:59Z</time>
      </trkpt>
      <trkpt lat="43.21765" lon="-0.86652">
        <ele>305.043</ele>
        <time>2016-10-04T21:39:19Z</time>
      </trkpt>
      <trkpt lat="43.21767" lon="-0.86796">
        <ele>311.096</ele>
        <time>2016-10-04T21:39:39Z</time>
      </trkpt>
      <trkpt lat="43.21834" lon="-0.86832">
        <ele>296.048</ele>
        <time>2016-10-04T21:39:59Z</time>
      </trkpt>
      <trkpt lat="43.21909" lon="-0.86856">
        <ele>289.017</ele>
        <time>2016-10-04T21:40:19Z</time>
      </trkpt>
      <trkpt lat="43.2194" lon="-0.86897">
        <ele>283.087</ele>
        <time>2016-10-04T21:40:39Z</time>
      </trkpt>
      <trkpt lat="43.22" lon="-0.86929">
        <ele>277.015</ele>
        <time>2016-10-04T21:40:59Z</time>
      </trkpt>
      <trkpt lat="43.22061" lon="-0.87">
        <ele>271.008</ele>
        <time>2016-10-04T21:41:19Z</time>
      </trkpt>
      <trkpt lat="43.2205" lon="-0.87068">
        <ele>261.057</ele>
        <time>2016-10-04T21:41:39Z</time>
      </trkpt>
      <trkpt lat="43.22158" lon="-0.87313">
        <ele>238.076</ele>
        <time>2016-10-04T21:41:59Z</time>
      </trkpt>
      <trkpt lat="43.22189" lon="-0.87354">
        <ele>232.012</ele>
        <time>2016-10-04T21:42:19Z</time>
      </trkpt>
      <trkpt lat="43.22189" lon="-0.87399">
        <ele>232.068</ele>
        <time>2016-10-04T21:42:39Z</time>
      </trkpt>
      <trkpt lat="43.22173" lon="-0.87465">
        <ele>231.049</ele>
        <time>2016-10-04T21:42:59Z</time>
      </trkpt>
      <trkpt lat="43.22219" lon="-0.87521">
        <ele>223.071</ele>
        <time>2016-10-04T21:43:19Z</time>
      </trkpt>
      <trkpt lat="43.22223" lon="-0.87583">
        <ele>213.064</ele>
        <time>2016-10-04T21:43:39Z</time>
      </trkpt>
      <trkpt lat="43.2217" lon="-0.87764">
        <ele>188.096</ele>
        <time>2016-10-04T21:43:59Z</time>
      </trkpt>
      <trkpt lat="43.22131" lon="-0.87882">
        <ele>188.035</ele>
        <time>2016-10-04T21:44:19Z</time>
      </trkpt>
      <trkpt lat="43.22128" lon="-0.8797">
        <ele>180.086</ele>
        <time>2016-10-04T21:44:39Z</time>
      </trkpt>
      <trkpt lat="43.22145" lon="-0.88036">
        <ele>171.014</ele>
        <time>2016-10-04T21:44:59Z</time>
      </trkpt>
      <trkpt lat="43.22143" lon="-0.88077">
        <ele>169.008</ele>
        <time>2016-10-04T21:45:19Z</time>
      </trkpt>
      <trkpt lat="43.22118" lon="-0.88161">
        <ele>158.089</ele>
        <time>2016-10-04T21:45:39Z</time>
      </trkpt>
      <trkpt lat="43.2212" lon="-0.88219">
        <ele>152.018</ele>
        <time>2016-10-04T21:45:59Z</time>
      </trkpt>
      <trkpt lat="43.22101" lon="-0.8827">
        <ele>155.014</ele>
        <time>2016-10-04T21:46:19Z</time>
      </trkpt>
      <trkpt lat="43.22148" lon="-0.88298">
        <ele>155.02</ele>
        <time>2016-10-04T21:46:39Z</time>
      </trkpt>
      <trkpt lat="43.22118" lon="-0.88427">
        <ele>168.041</ele>
        <time>2016-10-04T21:46:59Z</time>
      </trkpt>
      <trkpt lat="43.22093" lon="-0.8851">
        <ele>175.063</ele>
        <time>2016-10-04T21:47:19Z</time>
      </trkpt>
      <trkpt lat="43.22108" lon="-0.88577">
        <ele>170.026</ele>
        <time>2016-10-04T21:47:39Z</time>
      </trkpt>
      <trkpt lat="43.22081" lon="-0.8865">
        <ele>171.068</ele>
        <time>2016-10-04T21:47:59Z</time>
      </trkpt>
      <trkpt lat="43.22043" lon="-0.88714">
        <ele>164.061</ele>
        <time>2016-10-04T21:48:19Z</time>
      </trkpt>
      <trkpt lat="43.21992" lon="-0.88785">
        <ele>160.021</ele>
        <time>2016-10-04T21:48:39Z</time>
      </trkpt>
      <trkpt lat="43.21954" lon="-0.8886">
        <ele>147.013</ele>
        <time>2016-10-04T21:48:59Z</time>
      </trkpt>
      <trkpt lat="43.21992" lon="-0.88985">
        <ele>144.008</ele>
        <time>2016-10-04T21:49:19Z</time>
      </trkpt>
      <trkpt lat="43.22076" lon="-0.89264">
        <ele>144.012</ele>
        <time>2016-10-04T21:49:39Z</time>
      </trkpt>
      <trkpt lat="43.22179" lon="-0.893">
        <ele>146.051</ele>
        <time>2016-10-04T21:49:59Z</time>
      </trkpt>
      <trkpt lat="43.22197" lon="-0.89371">
        <ele>149.077</ele>
        <time>2016-10-04T21:50:19Z</time>
      </trkpt>
      <trkpt lat="43.2212" lon="-0.89422">
        <ele>154.063</ele>
        <time>2016-10-04T21:50:39Z</time>
      </trkpt>
      <trkpt lat="43.2209" lon="-0.89555">
        <ele>158.074</ele>
        <time>2016-10-04T21:50:59Z</time>
      </trkpt>
      <trkpt lat="43.22048" lon="-0.89646">
        <ele>167.066</ele>
        <time>2016-10-04T21:51:19Z</time>
      </trkpt>
      <trkpt lat="43.22047" lon="-0.89716">
        <ele>168.049</ele>
        <time>2016-10-04T21:51:39Z</time>
      </trkpt>
      <trkpt lat="43.21998" lon="-0.89854">
        <ele>177.081</ele>
        <time>2016-10-04T21:51:59Z</time>
      </trkpt>
      <trkpt lat="43.2197" lon="-0.89901">
        <ele>176.049</ele>
        <time>2016-10-04T21:52:19Z</time>
      </trkpt>
      <trkpt lat="43.21954" lon="-0.89997">
        <ele>175.002</ele>
        <time>2016-10-04T21:52:39Z</time>
      </trkpt>
      <trkpt lat="43.21876" lon="-0.90122">
        <ele>184.022</ele>
        <time>2016-10-04T21:52:59Z</time>
      </trkpt>
      <trkpt lat="43.21828" lon="-0.90027">
        <ele>187.008</ele>
        <time>2016-10-04T21:53:19Z</time>
      </trkpt>
      <trkpt lat="43.21743" lon="-0.90055">
        <ele>188.08</ele>
        <time>2016-10-04T21:53:39Z</time>
      </trkpt>
      <trkpt lat="43.21712" lon="-0.90115">
        <ele>188.099</ele>
        <time>2016-10-04T21:53:59Z</time>
      </trkpt>
      <trkpt lat="43.21698" lon="-0.90178">
        <ele>187.095</ele>
        <time>2016-10-04T21:54:19Z</time>
      </trkpt>
      <trkpt lat="43.21637" lon="-0.9027">
        <ele>186.071</ele>
        <time>2016-10-04T21:54:39Z</time>
      </trkpt>
      <trkpt lat="43.21479" lon="-0.90452">
        <ele>178.072</ele>
        <time>2016-10-04T21:54:59Z</time>
      </trkpt>
      <trkpt lat="43.21435" lon="-0.90373">
        <ele>174.054</ele>
        <time>2016-10-04T21:55:19Z</time>
      </trkpt>
      <trkpt lat="43.21462" lon="-0.90538">
        <ele>181.037</ele>
        <time>2016-10-04T21:55:39Z</time>
      </trkpt>
      <trkpt lat="43.21434" lon="-0.90656">
        <ele>186.019</ele>
        <time>2016-10-04T21:55:59Z</time>
      </trkpt>
      <trkpt lat="43.2136" lon="-0.90633">
        <ele>185.042</ele>
        <time>2016-10-04T21:56:19Z</time>
      </trkpt>
      <trkpt lat="43.21333" lon="-0.90667">
        <ele>185.022</ele>
        <time>2016-10-04T21:56:39Z</time>
      </trkpt>
      <trkpt lat="43.21324" lon="-0.90712">
        <ele>186.014</ele>
        <time>2016-10-04T21:56:59Z</time>
      </trkpt>
      <trkpt lat="43.21326" lon="-0.90798">
        <ele>191.008</ele>
        <time>2016-10-04T21:57:19Z</time>
      </trkpt>
      <trkpt lat="43.21294" lon="-0.90804">
        <ele>192.08</ele>
        <time>2016-10-04T21:57:39Z</time>
      </trkpt>
      <trkpt lat="43.21215" lon="-0.90731">
        <ele>186.059</ele>
        <time>2016-10-04T21:57:59Z</time>
      </trkpt>
      <trkpt lat="43.2118" lon="-0.90742">
        <ele>187.035</ele>
        <time>2016-10-04T21:58:19Z</time>
      </trkpt>
      <trkpt lat="43.2116" lon="-0.90768">
        <ele>192.071</ele>
        <time>2016-10-04T21:58:39Z</time>
      </trkpt>
      <trkpt lat="43.21099" lon="-0.90686">
        <ele>184.032</ele>
        <time>2016-10-04T21:58:59Z</time>
      </trkpt>
      <trkpt lat="43.21046" lon="-0.90626">
        <ele>176.084</ele>
        <time>2016-10-04T21:59:19Z</time>
      </trkpt>
      <trkpt lat="43.21022" lon="-0.90585">
        <ele>172.087</ele>
        <time>2016-10-04T21:59:39Z</time>
      </trkpt>
      <trkpt lat="43.20991" lon="-0.90585">
        <ele>167.019</ele>
        <time>2016-10-04T21:59:59Z</time>
      </trkpt>
      <trkpt lat="43.20911" lon="-0.90506">
        <ele>158.013</ele>
        <time>2016-10-04T22:00:19Z</time>
      </trkpt>
      <trkpt lat="43.20863" lon="-0.90572">
        <ele>157.043</ele>
        <time>2016-10-04T22:00:39Z</time>
      </trkpt>
      <trkpt lat="43.20766" lon="-0.90598">
        <ele>160.007</ele>
        <time>2016-10-04T22:00:59Z</time>
      </trkpt>
      <trkpt lat="43.20755" lon="-0.90641">
        <ele>163.008</ele>
        <time>2016-10-04T22:01:19Z</time>
      </trkpt>
      <trkpt lat="43.2072" lon="-0.90686">
        <ele>172.087</ele>
        <time>2016-10-04T22:01:39Z</time>
      </trkpt>
      <trkpt lat="43.20631" lon="-0.90733">
        <ele>171.036</ele>
        <time>2016-10-04T22:01:59Z</time>
      </trkpt>
      <trkpt lat="43.20567" lon="-0.90832">
        <ele>177.092</ele>
        <time>2016-10-04T22:02:19Z</time>
      </trkpt>
      <trkpt lat="43.20608" lon="-0.90989">
        <ele>186.038</ele>
        <time>2016-10-04T22:02:39Z</time>
      </trkpt>
      <trkpt lat="43.20608" lon="-0.91092">
        <ele>195.079</ele>
        <time>2016-10-04T22:02:59Z</time>
      </trkpt>
      <trkpt lat="43.20639" lon="-0.9113">
        <ele>197.081</ele>
        <time>2016-10-04T22:03:19Z</time>
      </trkpt>
      <trkpt lat="43.20678" lon="-0.91169">
        <ele>200.034</ele>
        <time>2016-10-04T22:03:39Z</time>
      </trkpt>
      <trkpt lat="43.20699" lon="-0.91261">
        <ele>202.056</ele>
        <time>2016-10-04T22:03:59Z</time>
      </trkpt>
      <trkpt lat="43.20684" lon="-0.91343">
        <ele>205.077</ele>
        <time>2016-10-04T22:04:19Z</time>
      </trkpt>
      <trkpt lat="43.20706" lon="-0.91463">
        <ele>206.061</ele>
        <time>2016-10-04T22:04:39Z</time>
      </trkpt>
      <trkpt lat="43.20719" lon="-0.91572">
        <ele>216.027</ele>
        <time>2016-10-04T22:04:59Z</time>
      </trkpt>
      <trkpt lat="43.2077" lon="-0.916">
        <ele>226.008</ele>
        <time>2016-10-04T22:05:19Z</time>
      </trkpt>
      <trkpt lat="43.20883" lon="-0.91772">
        <ele>256.063</ele>
        <time>2016-10-04T22:05:39Z</time>
      </trkpt>
      <trkpt lat="43.20905" lon="-0.91864">
        <ele>267.042</ele>
        <time>2016-10-04T22:05:59Z</time>
      </trkpt>
      <trkpt lat="43.20941" lon="-0.91948">
        <ele>275.088</ele>
        <time>2016-10-04T22:06:19Z</time>
      </trkpt>
      <trkpt lat="43.21013" lon="-0.92265">
        <ele>291.094</ele>
        <time>2016-10-04T22:06:39Z</time>
      </trkpt>
      <trkpt lat="43.21011" lon="-0.92379">
        <ele>294.055</ele>
        <time>2016-10-04T22:06:59Z</time>
      </trkpt>
      <trkpt lat="43.21043" lon="-0.92504">
        <ele>294.077</ele>
        <time>2016-10-04T22:07:19Z</time>
      </trkpt>
      <trkpt lat="43.21085" lon="-0.92594">
        <ele>310.04</ele>
        <time>2016-10-04T22:07:39Z</time>
      </trkpt>
      <trkpt lat="43.2118" lon="-0.92733">
        <ele>326.072</ele>
        <time>2016-10-04T22:07:59Z</time>
      </trkpt>
      <trkpt lat="43.21188" lon="-0.9278">
        <ele>327.032</ele>
        <time>2016-10-04T22:08:19Z</time>
      </trkpt>
      <trkpt lat="43.21202" lon="-0.92892">
        <ele>339.092</ele>
        <time>2016-10-04T22:08:39Z</time>
      </trkpt>
      <trkpt lat="43.21185" lon="-0.92935">
        <ele>346.011</ele>
        <time>2016-10-04T22:08:59Z</time>
      </trkpt>
      <trkpt lat="43.21133" lon="-0.92971">
        <ele>331.008</ele>
        <time>2016-10-04T22:09:19Z</time>
      </trkpt>
      <trkpt lat="43.21047" lon="-0.93115">
        <ele>312.049</ele>
        <time>2016-10-04T22:09:39Z</time>
      </trkpt>
      <trkpt lat="43.20997" lon="-0.93122">
        <ele>302.038</ele>
        <time>2016-10-04T22:09:59Z</time>
      </trkpt>
      <trkpt lat="43.2095" lon="-0.93089">
        <ele>301.014</ele>
        <time>2016-10-04T22:10:19Z</time>
      </trkpt>
      <trkpt lat="43.20994" lon="-0.93182">
        <ele>294.01</ele>
        <time>2016-10-04T22:10:39Z</time>
      </trkpt>
      <trkpt lat="43.21032" lon="-0.93231">
        <ele>293.041</ele>
        <time>2016-10-04T22:10:59Z</time>
      </trkpt>
      <trkpt lat="43.211" lon="-0.93278">
        <ele>282.023</ele>
        <time>2016-10-04T22:11:19Z</time>
      </trkpt>
      <trkpt lat="43.21155" lon="-0.93283">
        <ele>282.076</ele>
        <time>2016-10-04T22:11:39Z</time>
      </trkpt>
      <trkpt lat="43.2118" lon="-0.93308">
        <ele>288.058</ele>
        <time>2016-10-04T22:11:59Z</time>
      </trkpt>
      <trkpt lat="43.21155" lon="-0.93334">
        <ele>271.053</ele>
        <time>2016-10-04T22:12:19Z</time>
      </trkpt>
      <trkpt lat="43.21118" lon="-0.93343">
        <ele>266.004</ele>
        <time>2016-10-04T22:12:39Z</time>
      </trkpt>
      <trkpt lat="43.21039" lon="-0.93411">
        <ele>252.014</ele>
        <time>2016-10-04T22:12:59Z</time>
      </trkpt>
      <trkpt lat="43.21061" lon="-0.93474">
        <ele>241.008</ele>
        <time>2016-10-04T22:13:19Z</time>
      </trkpt>
      <trkpt lat="43.21052" lon="-0.93504">
        <ele>235.011</ele>
        <time>2016-10-04T22:13:39Z</time>
      </trkpt>
      <trkpt lat="43.21007" lon="-0.93529">
        <ele>232.04</ele>
        <time>2016-10-04T22:13:59Z</time>
      </trkpt>
      <trkpt lat="43.20982" lon="-0.93604">
        <ele>224.076</ele>
        <time>2016-10-04T22:14:19Z</time>
      </trkpt>
      <trkpt lat="43.20905" lon="-0.93692">
        <ele>214.012</ele>
        <time>2016-10-04T22:14:39Z</time>
      </trkpt>
      <trkpt lat="43.20731" lon="-0.93757">
        <ele>199.073</ele>
        <time>2016-10-04T22:14:59Z</time>
      </trkpt>
      <trkpt lat="43.20672" lon="-0.93896">
        <ele>200.095</ele>
        <time>2016-10-04T22:15:19Z</time>
      </trkpt>
      <trkpt lat="43.20587" lon="-0.93877">
        <ele>201.028</ele>
        <time>2016-10-04T22:15:39Z</time>
      </trkpt>
      <trkpt lat="43.20561" lon="-0.93894">
        <ele>205.09</ele>
        <time>2016-10-04T22:15:59Z</time>
      </trkpt>
      <trkpt lat="43.20531" lon="-0.93894">
        <ele>206.074</ele>
        <time>2016-10-04T22:16:19Z</time>
      </trkpt>
      <trkpt lat="43.20503" lon="-0.93868">
        <ele>205.056</ele>
        <time>2016-10-04T22:16:39Z</time>
      </trkpt>
      <trkpt lat="43.20434" lon="-0.93866">
        <ele>212.021</ele>
        <time>2016-10-04T22:16:59Z</time>
      </trkpt>
      <trkpt lat="43.20376" lon="-0.93847">
        <ele>218.008</ele>
        <time>2016-10-04T22:17:19Z</time>
      </trkpt>
      <trkpt lat="43.20311" lon="-0.93862">
        <ele>221.073</ele>
        <time>2016-10-04T22:17:39Z</time>
      </trkpt>
      <trkpt lat="43.20243" lon="-0.93862">
        <ele>220.022</ele>
        <time>2016-10-04T22:17:59Z</time>
      </trkpt>
      <trkpt lat="43.20203" lon="-0.93901">
        <ele>220.028</ele>
        <time>2016-10-04T22:18:19Z</time>
      </trkpt>
      <trkpt lat="43.20118" lon="-0.93886">
        <ele>215.014</ele>
        <time>2016-10-04T22:18:39Z</time>
      </trkpt>
      <trkpt lat="43.20082" lon="-0.93849">
        <ele>211.075</ele>
        <time>2016-10-04T22:18:59Z</time>
      </trkpt>
      <trkpt lat="43.20037" lon="-0.93907">
        <ele>208.037</ele>
        <time>2016-10-04T22:19:19Z</time>
      </trkpt>
      <trkpt lat="43.19982" lon="-0.94147">
        <ele>189.08</ele>
        <time>2016-10-04T22:19:39Z</time>
      </trkpt>
      <trkpt lat="43.19984" lon="-0.9419">
        <ele>192.052</ele>
        <time>2016-10-04T22:19:59Z</time>
      </trkpt>
      <trkpt lat="43.19962" lon="-0.94237">
        <ele>195.016</ele>
        <time>2016-10-04T22:20:19Z</time>
      </trkpt>
      <trkpt lat="43.19905" lon="-0.9424">
        <ele>201.076</ele>
        <time>2016-10-04T22:20:39Z</time>
      </trkpt>
      <trkpt lat="43.19879" lon="-0.94306">
        <ele>205.013</ele>
        <time>2016-10-04T22:20:59Z</time>
      </trkpt>
      <trkpt lat="43.19771" lon="-0.9427">
        <ele>216.008</ele>
        <time>2016-10-04T22:21:19Z</time>
      </trkpt>
      <trkpt lat="43.19733" lon="-0.94274">
        <ele>220.037</ele>
        <time>2016-10-04T22:21:39Z</time>
      </trkpt>
      <trkpt lat="43.19697" lon="-0.94252">
        <ele>220.046</ele>
        <time>2016-10-04T22:21:59Z</time>
      </trkpt>
      <trkpt lat="43.19621" lon="-0.94225">
        <ele>218.032</ele>
        <time>2016-10-04T22:22:19Z</time>
      </trkpt>
      <trkpt lat="43.1956" lon="-0.94222">
        <ele>214.038</ele>
        <time>2016-10-04T22:22:39Z</time>
      </trkpt>
      <trkpt lat="43.19527" lon="-0.94276">
        <ele>213.079</ele>
        <time>2016-10-04T22:22:59Z</time>
      </trkpt>
      <trkpt lat="43.19447" lon="-0.94289">
        <ele>206.021</ele>
        <time>2016-10-04T22:23:19Z</time>
      </trkpt>
      <trkpt lat="43.19386" lon="-0.94283">
        <ele>199.044</ele>
        <time>2016-10-04T22:23:39Z</time>
      </trkpt>
      <trkpt lat="43.19377" lon="-0.943">
        <ele>198.076</ele>
        <time>2016-10-04T22:23:59Z</time>
      </trkpt>
      <trkpt lat="43.1933" lon="-0.94293">
        <ele>192.039</ele>
        <time>2016-10-04T22:24:19Z</time>
      </trkpt>
      <trkpt lat="43.19344" lon="-0.94362">
        <ele>196.001</ele>
        <time>2016-10-04T22:24:39Z</time>
      </trkpt>
      <trkpt lat="43.19253" lon="-0.94347">
        <ele>194.021</ele>
        <time>2016-10-04T22:24:59Z</time>
      </trkpt>
      <trkpt lat="43.19216" lon="-0.94319">
        <ele>194.008</ele>
        <time>2016-10-04T22:25:19Z</time>
      </trkpt>
      <trkpt lat="43.19145" lon="-0.94325">
        <ele>195.019</ele>
        <time>2016-10-04T22:25:39Z</time>
      </trkpt>
      <trkpt lat="43.19087" lon="-0.9437">
        <ele>196.068</ele>
        <time>2016-10-04T22:25:59Z</time>
      </trkpt>
      <trkpt lat="43.19044" lon="-0.9434">
        <ele>190.064</ele>
        <time>2016-10-04T22:26:19Z</time>
      </trkpt>
      <trkpt lat="43.19014" lon="-0.94272">
        <ele>186.01</ele>
        <time>2016-10-04T22:26:39Z</time>
      </trkpt>
      <trkpt lat="43.18981" lon="-0.9424">
        <ele>180.051</ele>
        <time>2016-10-04T22:26:59Z</time>
      </trkpt>
      <trkpt lat="43.18976" lon="-0.94184">
        <ele>178.043</ele>
        <time>2016-10-04T22:27:19Z</time>
      </trkpt>
      <trkpt lat="43.18931" lon="-0.94201">
        <ele>177.076</ele>
        <time>2016-10-04T22:27:39Z</time>
      </trkpt>
      <trkpt lat="43.1887" lon="-0.94195">
        <ele>177.068</ele>
        <time>2016-10-04T22:27:59Z</time>
      </trkpt>
      <trkpt lat="43.18737" lon="-0.94257">
        <ele>176.075</ele>
        <time>2016-10-04T22:28:19Z</time>
      </trkpt>
      <trkpt lat="43.18632" lon="-0.94446">
        <ele>177.028</ele>
        <time>2016-10-04T22:28:39Z</time>
      </trkpt>
      <trkpt lat="43.18574" lon="-0.94465">
        <ele>182.02</ele>
        <time>2016-10-04T22:28:59Z</time>
      </trkpt>
      <trkpt lat="43.1854" lon="-0.94456">
        <ele>185.008</ele>
        <time>2016-10-04T22:29:19Z</time>
      </trkpt>
      <trkpt lat="43.18526" lon="-0.94525">
        <ele>190.093</ele>
        <time>2016-10-04T22:29:39Z</time>
      </trkpt>
      <trkpt lat="43.18541" lon="-0.94576">
        <ele>189.052</ele>
        <time>2016-10-04T22:29:59Z</time>
      </trkpt>
      <trkpt lat="43.18596" lon="-0.94675">
        <ele>185.088</ele>
        <time>2016-10-04T22:30:19Z</time>
      </trkpt>
      <trkpt lat="43.18607" lon="-0.94798">
        <ele>183.064</ele>
        <time>2016-10-04T22:30:39Z</time>
      </trkpt>
      <trkpt lat="43.18563" lon="-0.94881">
        <ele>181.095</ele>
        <time>2016-10-04T22:30:59Z</time>
      </trkpt>
      <trkpt lat="43.18524" lon="-0.94988">
        <ele>181.027</ele>
        <time>2016-10-04T22:31:19Z</time>
      </trkpt>
      <trkpt lat="43.18471" lon="-0.95016">
        <ele>184.02</ele>
        <time>2016-10-04T22:31:39Z</time>
      </trkpt>
      <trkpt lat="43.18344" lon="-0.95014">
        <ele>187.012</ele>
        <time>2016-10-04T22:31:59Z</time>
      </trkpt>
      <trkpt lat="43.18283" lon="-0.95001">
        <ele>190.021</ele>
        <time>2016-10-04T22:32:19Z</time>
      </trkpt>
      <trkpt lat="43.18131" lon="-0.95068">
        <ele>198.041</ele>
        <time>2016-10-04T22:32:39Z</time>
      </trkpt>
      <trkpt lat="43.18149" lon="-0.95128">
        <ele>202.005</ele>
        <time>2016-10-04T22:32:59Z</time>
      </trkpt>
      <trkpt lat="43.1808" lon="-0.95177">
        <ele>202.008</ele>
        <time>2016-10-04T22:33:19Z</time>
      </trkpt>
      <trkpt lat="43.18083" lon="-0.9525">
        <ele>204.048</ele>
        <time>2016-10-04T22:33:39Z</time>
      </trkpt>
      <trkpt lat="43.18092" lon="-0.95375">
        <ele>207.067</ele>
        <time>2016-10-04T22:33:59Z</time>
      </trkpt>
      <trkpt lat="43.18077" lon="-0.95439">
        <ele>215.013</ele>
        <time>2016-10-04T22:34:19Z</time>
      </trkpt>
      <trkpt lat="43.18039" lon="-0.95506">
        <ele>225.029</ele>
        <time>2016-10-04T22:34:39Z</time>
      </trkpt>
      <trkpt lat="43.18012" lon="-0.95647">
        <ele>240.09</ele>
        <time>2016-10-04T22:34:59Z</time>
      </trkpt>
      <trkpt lat="43.17934" lon="-0.9595">
        <ele>256.042</ele>
        <time>2016-10-04T22:35:19Z</time>
      </trkpt>
      <trkpt lat="43.17977" lon="-0.95965">
        <ele>258.065</ele>
        <time>2016-10-04T22:35:39Z</time>
      </trkpt>
      <trkpt lat="43.181" lon="-0.96072">
        <ele>267.057</ele>
        <time>2016-10-04T22:35:59Z</time>
      </trkpt>
      <trkpt lat="43.18106" lon="-0.96111">
        <ele>278.094</ele>
        <time>2016-10-04T22:36:19Z</time>
      </trkpt>
      <trkpt lat="43.18156" lon="-0.96184">
        <ele>289.057</ele>
        <time>2016-10-04T22:36:39Z</time>
      </trkpt>
      <trkpt lat="43.18202" lon="-0.96214">
        <ele>285.022</ele>
        <time>2016-10-04T22:36:59Z</time>
      </trkpt>
      <trkpt lat="43.18228" lon="-0.96205">
        <ele>283.008</ele>
        <time>2016-10-04T22:37:19Z</time>
      </trkpt>
      <trkpt lat="43.18249" lon="-0.96261">
        <ele>289.065</ele>
        <time>2016-10-04T22:37:39Z</time>
      </trkpt>
      <trkpt lat="43.18227" lon="-0.96364">
        <ele>296.074</ele>
        <time>2016-10-04T22:37:59Z</time>
      </trkpt>
      <trkpt lat="43.18194" lon="-0.96437">
        <ele>299.09</ele>
        <time>2016-10-04T22:38:19Z</time>
      </trkpt>
      <trkpt lat="43.18105" lon="-0.96581">
        <ele>327.026</ele>
        <time>2016-10-04T22:38:39Z</time>
      </trkpt>
      <trkpt lat="43.18106" lon="-0.96694">
        <ele>329.047</ele>
        <time>2016-10-04T22:38:59Z</time>
      </trkpt>
      <trkpt lat="43.18078" lon="-0.96819">
        <ele>345.019</ele>
        <time>2016-10-04T22:39:19Z</time>
      </trkpt>
      <trkpt lat="43.18042" lon="-0.97016">
        <ele>356.052</ele>
        <time>2016-10-04T22:39:39Z</time>
      </trkpt>
      <trkpt lat="43.17984" lon="-0.97093">
        <ele>371.064</ele>
        <time>2016-10-04T22:39:59Z</time>
      </trkpt>
      <trkpt lat="43.17969" lon="-0.97239">
        <ele>370.032</ele>
        <time>2016-10-04T22:40:19Z</time>
      </trkpt>
      <trkpt lat="43.17878" lon="-0.97456">
        <ele>366.092</ele>
        <time>2016-10-04T22:40:39Z</time>
      </trkpt>
      <trkpt lat="43.17876" lon="-0.97585">
        <ele>370.011</ele>
        <time>2016-10-04T22:40:59Z</time>
      </trkpt>
      <trkpt lat="43.17947" lon="-0.97677">
        <ele>377.008</ele>
        <time>2016-10-04T22:41:19Z</time>
      </trkpt>
      <trkpt lat="43.17966" lon="-0.97744">
        <ele>379.049</ele>
        <time>2016-10-04T22:41:39Z</time>
      </trkpt>
      <trkpt lat="43.17947" lon="-0.97847">
        <ele>391.058</ele>
        <time>2016-10-04T22:41:59Z</time>
      </trkpt>
      <trkpt lat="43.17959" lon="-0.97887">
        <ele>392.044</ele>
        <time>2016-10-04T22:42:19Z</time>
      </trkpt>
      <trkpt lat="43.17897" lon="-0.97864">
        <ele>389.06</ele>
        <time>2016-10-04T22:42:39Z</time>
      </trkpt>
      <trkpt lat="43.17937" lon="-0.9792">
        <ele>402.091</ele>
        <time>2016-10-04T22:42:59Z</time>
      </trkpt>
      <trkpt lat="43.17956" lon="-0.97995">
        <ele>407.013</ele>
        <time>2016-10-04T22:43:19Z</time>
      </trkpt>
      <trkpt lat="43.17937" lon="-0.97995">
        <ele>409.086</ele>
        <time>2016-10-04T22:43:39Z</time>
      </trkpt>
      <trkpt lat="43.17905" lon="-0.98057">
        <ele>419.048</ele>
        <time>2016-10-04T22:43:59Z</time>
      </trkpt>
      <trkpt lat="43.17937" lon="-0.98048">
        <ele>423.022</ele>
        <time>2016-10-04T22:44:19Z</time>
      </trkpt>
      <trkpt lat="43.17995" lon="-0.98081">
        <ele>431.062</ele>
        <time>2016-10-04T22:44:39Z</time>
      </trkpt>
      <trkpt lat="43.17959" lon="-0.98093">
        <ele>439.008</ele>
        <time>2016-10-04T22:44:59Z</time>
      </trkpt>
      <trkpt lat="43.17908" lon="-0.98164">
        <ele>452.008</ele>
        <time>2016-10-04T22:45:19Z</time>
      </trkpt>
      <trkpt lat="43.17933" lon="-0.98158">
        <ele>449.068</ele>
        <time>2016-10-04T22:45:39Z</time>
      </trkpt>
      <trkpt lat="43.17975" lon="-0.9819">
        <ele>459.037</ele>
        <time>2016-10-04T22:45:59Z</time>
      </trkpt>
      <trkpt lat="43.17908" lon="-0.98188">
        <ele>466.023</ele>
        <time>2016-10-04T22:46:19Z</time>
      </trkpt>
      <trkpt lat="43.17872" lon="-0.98216">
        <ele>474.079</ele>
        <time>2016-10-04T22:46:39Z</time>
      </trkpt>
      <trkpt lat="43.1782" lon="-0.98229">
        <ele>484.04</ele>
        <time>2016-10-04T22:46:59Z</time>
      </trkpt>
      <trkpt lat="43.17906" lon="-0.98269">
        <ele>493.082</ele>
        <time>2016-10-04T22:47:19Z</time>
      </trkpt>
      <trkpt lat="43.17948" lon="-0.98312">
        <ele>488.075</ele>
        <time>2016-10-04T22:47:39Z</time>
      </trkpt>
      <trkpt lat="43.17967" lon="-0.98469">
        <ele>519.017</ele>
        <time>2016-10-04T22:47:59Z</time>
      </trkpt>
      <trkpt lat="43.18034" lon="-0.98531">
        <ele>517.044</ele>
        <time>2016-10-04T22:48:19Z</time>
      </trkpt>
      <trkpt lat="43.18135" lon="-0.98578">
        <ele>500.005</ele>
        <time>2016-10-04T22:48:39Z</time>
      </trkpt>
      <trkpt lat="43.18158" lon="-0.98615">
        <ele>508.015</ele>
        <time>2016-10-04T22:48:59Z</time>
      </trkpt>
      <trkpt lat="43.18147" lon="-0.98677">
        <ele>511.008</ele>
        <time>2016-10-04T22:49:19Z</time>
      </trkpt>
      <trkpt lat="43.1811" lon="-0.98784">
        <ele>512.04</ele>
        <time>2016-10-04T22:49:39Z</time>
      </trkpt>
      <trkpt lat="43.18025" lon="-0.989">
        <ele>530.079</ele>
        <time>2016-10-04T22:49:59Z</time>
      </trkpt>
      <trkpt lat="43.17978" lon="-0.99018">
        <ele>531.075</ele>
        <time>2016-10-04T22:50:19Z</time>
      </trkpt>
      <trkpt lat="43.17978" lon="-0.99194">
        <ele>512.011</ele>
        <time>2016-10-04T22:50:39Z</time>
      </trkpt>
      <trkpt lat="43.17967" lon="-0.99312">
        <ele>498.072</ele>
        <time>2016-10-04T22:50:59Z</time>
      </trkpt>
      <trkpt lat="43.17948" lon="-0.99342">
        <ele>489.044</ele>
        <time>2016-10-04T22:51:19Z</time>
      </trkpt>
      <trkpt lat="43.17903" lon="-0.99372">
        <ele>517.067</ele>
        <time>2016-10-04T22:51:39Z</time>
      </trkpt>
      <trkpt lat="43.17878" lon="-0.99465">
        <ele>498.069</ele>
        <time>2016-10-04T22:51:59Z</time>
      </trkpt>
      <trkpt lat="43.17844" lon="-0.99492">
        <ele>507.041</ele>
        <time>2016-10-04T22:52:19Z</time>
      </trkpt>
      <trkpt lat="43.17814" lon="-0.9954">
        <ele>529.081</ele>
        <time>2016-10-04T22:52:39Z</time>
      </trkpt>
      <trkpt lat="43.17808" lon="-0.99621">
        <ele>523.009</ele>
        <time>2016-10-04T22:52:59Z</time>
      </trkpt>
      <trkpt lat="43.17815" lon="-0.99675">
        <ele>508.008</ele>
        <time>2016-10-04T22:53:19Z</time>
      </trkpt>
      <trkpt lat="43.17801" lon="-0.99741">
        <ele>508.06</ele>
        <time>2016-10-04T22:53:39Z</time>
      </trkpt>
      <trkpt lat="43.17731" lon="-0.99778">
        <ele>541.059</ele>
        <time>2016-10-04T22:53:59Z</time>
      </trkpt>
      <trkpt lat="43.17734" lon="-0.99915">
        <ele>535.085</ele>
        <time>2016-10-04T22:54:19Z</time>
      </trkpt>
      <trkpt lat="43.17726" lon="-1.001">
        <ele>541.081</ele>
        <time>2016-10-04T22:54:39Z</time>
      </trkpt>
      <trkpt lat="43.17706" lon="-1.0013">
        <ele>543.012</ele>
        <time>2016-10-04T22:54:59Z</time>
      </trkpt>
      <trkpt lat="43.17709" lon="-1.00203">
        <ele>547.014</ele>
        <time>2016-10-04T22:55:19Z</time>
      </trkpt>
      <trkpt lat="43.17731" lon="-1.00273">
        <ele>552.077</ele>
        <time>2016-10-04T22:55:39Z</time>
      </trkpt>
      <trkpt lat="43.17825" lon="-1.00368">
        <ele>560.069</ele>
        <time>2016-10-04T22:55:59Z</time>
      </trkpt>
      <trkpt lat="43.17822" lon="-1.00432">
        <ele>564.025</ele>
        <time>2016-10-04T22:56:19Z</time>
      </trkpt>
      <trkpt lat="43.17778" lon="-1.00563">
        <ele>560.026</ele>
        <time>2016-10-04T22:56:39Z</time>
      </trkpt>
      <trkpt lat="43.17725" lon="-1.00557">
        <ele>554.008</ele>
        <time>2016-10-04T22:56:59Z</time>
      </trkpt>
      <trkpt lat="43.17654" lon="-1.00557">
        <ele>545.008</ele>
        <time>2016-10-04T22:57:19Z</time>
      </trkpt>
      <trkpt lat="43.17643" lon="-1.00621">
        <ele>537.088</ele>
        <time>2016-10-04T22:57:39Z</time>
      </trkpt>
      <trkpt lat="43.17653" lon="-1.00709">
        <ele>528.037</ele>
        <time>2016-10-04T22:57:59Z</time>
      </trkpt>
      <trkpt lat="43.17593" lon="-1.00883">
        <ele>520.073</ele>
        <time>2016-10-04T22:58:19Z</time>
      </trkpt>
      <trkpt lat="43.1751" lon="-1.00932">
        <ele>501.089</ele>
        <time>2016-10-04T22:58:39Z</time>
      </trkpt>
      <trkpt lat="43.17491" lon="-1.01016">
        <ele>481.05</ele>
        <time>2016-10-04T22:58:59Z</time>
      </trkpt>
      <trkpt lat="43.17448" lon="-1.00924">
        <ele>474.082</ele>
        <time>2016-10-04T22:59:19Z</time>
      </trkpt>
      <trkpt lat="43.17434" lon="-1.01012">
        <ele>463.045</ele>
        <time>2016-10-04T22:59:39Z</time>
      </trkpt>
      <trkpt lat="43.17434" lon="-1.01078">
        <ele>455.037</ele>
        <time>2016-10-04T22:59:59Z</time>
      </trkpt>
      <trkpt lat="43.17437" lon="-1.01138">
        <ele>443.041</ele>
        <time>2016-10-04T23:00:19Z</time>
      </trkpt>
      <trkpt lat="43.17379" lon="-1.01087">
        <ele>410.081</ele>
        <time>2016-10-04T23:00:39Z</time>
      </trkpt>
      <trkpt lat="43.17379" lon="-1.01145">
        <ele>403.009</ele>
        <time>2016-10-04T23:00:59Z</time>
      </trkpt>
      <trkpt lat="43.17393" lon="-1.01252">
        <ele>378.008</ele>
        <time>2016-10-04T23:01:19Z</time>
      </trkpt>
      <trkpt lat="43.1739" lon="-1.01295">
        <ele>373.05</ele>
        <time>2016-10-04T23:01:39Z</time>
      </trkpt>
      <trkpt lat="43.17346" lon="-1.01278">
        <ele>363.059</ele>
        <time>2016-10-04T23:01:59Z</time>
      </trkpt>
      <trkpt lat="43.17322" lon="-1.0134">
        <ele>332.085</ele>
        <time>2016-10-04T23:02:19Z</time>
      </trkpt>
      <trkpt lat="43.17272" lon="-1.01379">
        <ele>313.031</ele>
        <time>2016-10-04T23:02:39Z</time>
      </trkpt>
      <trkpt lat="43.17265" lon="-1.01432">
        <ele>304.042</ele>
        <time>2016-10-04T23:02:59Z</time>
      </trkpt>
      <trkpt lat="43.17232" lon="-1.014">
        <ele>296.024</ele>
        <time>2016-10-04T23:03:19Z</time>
      </trkpt>
      <trkpt lat="43.17203" lon="-1.01406">
        <ele>296.047</ele>
        <time>2016-10-04T23:03:39Z</time>
      </trkpt>
      <trkpt lat="43.172" lon="-1.01488">
        <ele>298.059</ele>
        <time>2016-10-04T23:03:59Z</time>
      </trkpt>
      <trkpt lat="43.17213" lon="-1.01582">
        <ele>293.041</ele>
        <time>2016-10-04T23:04:19Z</time>
      </trkpt>
      <trkpt lat="43.17235" lon="-1.01627">
        <ele>290.081</ele>
        <time>2016-10-04T23:04:39Z</time>
      </trkpt>
      <trkpt lat="43.17261" lon="-1.01836">
        <ele>285.009</ele>
        <time>2016-10-04T23:04:59Z</time>
      </trkpt>
      <trkpt lat="43.17349" lon="-1.01956">
        <ele>272.008</ele>
        <time>2016-10-04T23:05:19Z</time>
      </trkpt>
      <trkpt lat="43.17383" lon="-1.02033">
        <ele>264.06</ele>
        <time>2016-10-04T23:05:39Z</time>
      </trkpt>
      <trkpt lat="43.17376" lon="-1.02063">
        <ele>263.029</ele>
        <time>2016-10-04T23:05:59Z</time>
      </trkpt>
      <trkpt lat="43.17362" lon="-1.02127">
        <ele>262.015</ele>
        <time>2016-10-04T23:06:19Z</time>
      </trkpt>
      <trkpt lat="43.17419" lon="-1.0223">
        <ele>262.061</ele>
        <time>2016-10-04T23:06:39Z</time>
      </trkpt>
      <trkpt lat="43.17438" lon="-1.02604">
        <ele>248.042</ele>
        <time>2016-10-04T23:06:59Z</time>
      </trkpt>
      <trkpt lat="43.17465" lon="-1.02698">
        <ele>244.094</ele>
        <time>2016-10-04T23:07:19Z</time>
      </trkpt>
      <trkpt lat="43.1749" lon="-1.02771">
        <ele>242.057</ele>
        <time>2016-10-04T23:07:39Z</time>
      </trkpt>
      <trkpt lat="43.17488" lon="-1.02823">
        <ele>238.039</ele>
        <time>2016-10-04T23:07:59Z</time>
      </trkpt>
      <trkpt lat="43.17507" lon="-1.02868">
        <ele>235.077</ele>
        <time>2016-10-04T23:08:19Z</time>
      </trkpt>
      <trkpt lat="43.17527" lon="-1.02956">
        <ele>233.061</ele>
        <time>2016-10-04T23:08:39Z</time>
      </trkpt>
      <trkpt lat="43.1761" lon="-1.03057">
        <ele>232.027</ele>
        <time>2016-10-04T23:08:59Z</time>
      </trkpt>
      <trkpt lat="43.17621" lon="-1.03108">
        <ele>229.008</ele>
        <time>2016-10-04T23:09:19Z</time>
      </trkpt>
      <trkpt lat="43.17654" lon="-1.03157">
        <ele>228.073</ele>
        <time>2016-10-04T23:09:39Z</time>
      </trkpt>
      <trkpt lat="43.17762" lon="-1.03451">
        <ele>216.092</ele>
        <time>2016-10-04T23:09:59Z</time>
      </trkpt>
      <trkpt lat="43.17814" lon="-1.03531">
        <ele>214.078</ele>
        <time>2016-10-04T23:10:19Z</time>
      </trkpt>
      <trkpt lat="43.17845" lon="-1.03617">
        <ele>213.014</ele>
        <time>2016-10-04T23:10:39Z</time>
      </trkpt>
      <trkpt lat="43.17869" lon="-1.03737">
        <ele>211.025</ele>
        <time>2016-10-04T23:10:59Z</time>
      </trkpt>
      <trkpt lat="43.17878" lon="-1.03797">
        <ele>209.027</ele>
        <time>2016-10-04T23:11:19Z</time>
      </trkpt>
      <trkpt lat="43.17941" lon="-1.03885">
        <ele>207.07</ele>
        <time>2016-10-04T23:11:39Z</time>
      </trkpt>
      <trkpt lat="43.17905" lon="-1.03904">
        <ele>206.052</ele>
        <time>2016-10-04T23:11:59Z</time>
      </trkpt>
      <trkpt lat="43.17898" lon="-1.03951">
        <ele>206.012</ele>
        <time>2016-10-04T23:12:19Z</time>
      </trkpt>
      <trkpt lat="43.17865" lon="-1.03964">
        <ele>206.032</ele>
        <time>2016-10-04T23:12:39Z</time>
      </trkpt>
      <trkpt lat="43.17942" lon="-1.04069">
        <ele>204.005</ele>
        <time>2016-10-04T23:12:59Z</time>
      </trkpt>
      <trkpt lat="43.18044" lon="-1.04179">
        <ele>202.008</ele>
        <time>2016-10-04T23:13:19Z</time>
      </trkpt>
      <trkpt lat="43.18183" lon="-1.04327">
        <ele>196.047</ele>
        <time>2016-10-04T23:13:39Z</time>
      </trkpt>
      <trkpt lat="43.18211" lon="-1.04348">
        <ele>197.066</ele>
        <time>2016-10-04T23:13:59Z</time>
      </trkpt>
      <trkpt lat="43.18208" lon="-1.04374">
        <ele>198.032</ele>
        <time>2016-10-04T23:14:19Z</time>
      </trkpt>
      <trkpt lat="43.18257" lon="-1.04456">
        <ele>199.098</ele>
        <time>2016-10-04T23:14:39Z</time>
      </trkpt>
      <trkpt lat="43.18291" lon="-1.04473">
        <ele>198.019</ele>
        <time>2016-10-04T23:14:59Z</time>
      </trkpt>
      <trkpt lat="43.18354" lon="-1.047">
        <ele>193.051</ele>
        <time>2016-10-04T23:15:19Z</time>
      </trkpt>
      <trkpt lat="43.18371" lon="-1.04831">
        <ele>192.044</ele>
        <time>2016-10-04T23:15:39Z</time>
      </trkpt>
      <trkpt lat="43.18516" lon="-1.05157">
        <ele>187.026</ele>
        <time>2016-10-04T23:15:59Z</time>
      </trkpt>
      <trkpt lat="43.18577" lon="-1.05213">
        <ele>186.039</ele>
        <time>2016-10-04T23:16:19Z</time>
      </trkpt>
      <trkpt lat="43.18629" lon="-1.05243">
        <ele>183.001</ele>
        <time>2016-10-04T23:16:39Z</time>
      </trkpt>
      <trkpt lat="43.18671" lon="-1.05314">
        <ele>180.021</ele>
        <time>2016-10-04T23:16:59Z</time>
      </trkpt>
      <trkpt lat="43.18709" lon="-1.0541">
        <ele>181.008</ele>
        <time>2016-10-04T23:17:19Z</time>
      </trkpt>
      <trkpt lat="43.18765" lon="-1.05475">
        <ele>179.029</ele>
        <time>2016-10-04T23:17:39Z</time>
      </trkpt>
      <trkpt lat="43.18821" lon="-1.05505">
        <ele>180.058</ele>
        <time>2016-10-04T23:17:59Z</time>
      </trkpt>
      <trkpt lat="43.18912" lon="-1.05599">
        <ele>181.044</ele>
        <time>2016-10-04T23:18:19Z</time>
      </trkpt>
      <trkpt lat="43.1905" lon="-1.05653">
        <ele>177.05</ele>
        <time>2016-10-04T23:18:39Z</time>
      </trkpt>
      <trkpt lat="43.19128" lon="-1.05722">
        <ele>175.091</ele>
        <time>2016-10-04T23:18:59Z</time>
      </trkpt>
      <trkpt lat="43.19139" lon="-1.05777">
        <ele>177.013</ele>
        <time>2016-10-04T23:19:19Z</time>
      </trkpt>
      <trkpt lat="43.19266" lon="-1.05805">
        <ele>170.016</ele>
        <time>2016-10-04T23:19:39Z</time>
      </trkpt>
      <trkpt lat="43.19261" lon="-1.05822">
        <ele>170.078</ele>
        <time>2016-10-04T23:19:59Z</time>
      </trkpt>
      <trkpt lat="43.19294" lon="-1.05889">
        <ele>171.099</ele>
        <time>2016-10-04T23:20:19Z</time>
      </trkpt>
      <trkpt lat="43.19352" lon="-1.06063">
        <ele>174.007</ele>
        <time>2016-10-04T23:20:39Z</time>
      </trkpt>
      <trkpt lat="43.19482" lon="-1.06127">
        <ele>174.027</ele>
        <time>2016-10-04T23:20:59Z</time>
      </trkpt>
      <trkpt lat="43.19561" lon="-1.06207">
        <ele>172.008</ele>
        <time>2016-10-04T23:21:19Z</time>
      </trkpt>
      <trkpt lat="43.19627" lon="-1.06256">
        <ele>169.045</ele>
        <time>2016-10-04T23:21:39Z</time>
      </trkpt>
      <trkpt lat="43.19633" lon="-1.06286">
        <ele>169.084</ele>
        <time>2016-10-04T23:21:59Z</time>
      </trkpt>
      <trkpt lat="43.19694" lon="-1.06359">
        <ele>173.06</ele>
        <time>2016-10-04T23:22:19Z</time>
      </trkpt>
      <trkpt lat="43.19832" lon="-1.06434">
        <ele>174.076</ele>
        <time>2016-10-04T23:22:39Z</time>
      </trkpt>
      <trkpt lat="43.19888" lon="-1.06599">
        <ele>180.037</ele>
        <time>2016-10-04T23:22:59Z</time>
      </trkpt>
      <trkpt lat="43.19952" lon="-1.06743">
        <ele>179.099</ele>
        <time>2016-10-04T23:23:19Z</time>
      </trkpt>
      <trkpt lat="43.20037" lon="-1.06747">
        <ele>175.082</ele>
        <time>2016-10-04T23:23:39Z</time>
      </trkpt>
      <trkpt lat="43.20089" lon="-1.06764">
        <ele>174.044</ele>
        <time>2016-10-04T23:23:59Z</time>
      </trkpt>
      <trkpt lat="43.20156" lon="-1.06747">
        <ele>174.022</ele>
        <time>2016-10-04T23:24:19Z</time>
      </trkpt>
      <trkpt lat="43.20167" lon="-1.06842">
        <ele>175.062</ele>
        <time>2016-10-04T23:24:39Z</time>
      </trkpt>
      <trkpt lat="43.20137" lon="-1.06983">
        <ele>170.008</ele>
        <time>2016-10-04T23:24:59Z</time>
      </trkpt>
      <trkpt lat="43.2012" lon="-1.07046">
        <ele>166.008</ele>
        <time>2016-10-04T23:25:19Z</time>
      </trkpt>
      <trkpt lat="43.20057" lon="-1.07084">
        <ele>162.058</ele>
        <time>2016-10-04T23:25:39Z</time>
      </trkpt>
      <trkpt lat="43.20046" lon="-1.07164">
        <ele>161.087</ele>
        <time>2016-10-04T23:25:59Z</time>
      </trkpt>
      <trkpt lat="43.20101" lon="-1.07288">
        <ele>161.013</ele>
        <time>2016-10-04T23:26:19Z</time>
      </trkpt>
      <trkpt lat="43.20126" lon="-1.07391">
        <ele>168.039</ele>
        <time>2016-10-04T23:26:39Z</time>
      </trkpt>
      <trkpt lat="43.20162" lon="-1.07494">
        <ele>174.05</ele>
        <time>2016-10-04T23:26:59Z</time>
      </trkpt>
      <trkpt lat="43.20192" lon="-1.07552">
        <ele>171.032</ele>
        <time>2016-10-04T23:27:19Z</time>
      </trkpt>
      <trkpt lat="43.2016" lon="-1.07784">
        <ele>195.085</ele>
        <time>2016-10-04T23:27:39Z</time>
      </trkpt>
      <trkpt lat="43.20173" lon="-1.0788">
        <ele>176.047</ele>
        <time>2016-10-04T23:27:59Z</time>
      </trkpt>
      <trkpt lat="43.20128" lon="-1.08076">
        <ele>186.033</ele>
        <time>2016-10-04T23:28:19Z</time>
      </trkpt>
      <trkpt lat="43.20076" lon="-1.08209">
        <ele>186.023</ele>
        <time>2016-10-04T23:28:39Z</time>
      </trkpt>
      <trkpt lat="43.20089" lon="-1.08277">
        <ele>174.015</ele>
        <time>2016-10-04T23:28:59Z</time>
      </trkpt>
      <trkpt lat="43.20124" lon="-1.08324">
        <ele>172.008</ele>
        <time>2016-10-04T23:29:19Z</time>
      </trkpt>
      <trkpt lat="43.20109" lon="-1.08462">
        <ele>173.079</ele>
        <time>2016-10-04T23:29:39Z</time>
      </trkpt>
      <trkpt lat="43.20107" lon="-1.08563">
        <ele>171.048</ele>
        <time>2016-10-04T23:29:59Z</time>
      </trkpt>
      <trkpt lat="43.2009" lon="-1.08642">
        <ele>170.064</ele>
        <time>2016-10-04T23:30:19Z</time>
      </trkpt>
      <trkpt lat="43.20084" lon="-1.08859">
        <ele>167.05</ele>
        <time>2016-10-04T23:30:39Z</time>
      </trkpt>
      <trkpt lat="43.20034" lon="-1.0893">
        <ele>168.081</ele>
        <time>2016-10-04T23:30:59Z</time>
      </trkpt>
      <trkpt lat="43.19968" lon="-1.09052">
        <ele>169.013</ele>
        <time>2016-10-04T23:31:19Z</time>
      </trkpt>
      <trkpt lat="43.19949" lon="-1.09108">
        <ele>168.086</ele>
        <time>2016-10-04T23:31:39Z</time>
      </trkpt>
      <trkpt lat="43.19943" lon="-1.09241">
        <ele>171.068</ele>
        <time>2016-10-04T23:31:59Z</time>
      </trkpt>
      <trkpt lat="43.19898" lon="-1.0932">
        <ele>173.042</ele>
        <time>2016-10-04T23:32:19Z</time>
      </trkpt>
      <trkpt lat="43.19896" lon="-1.09445">
        <ele>175.022</ele>
        <time>2016-10-04T23:32:39Z</time>
      </trkpt>
      <trkpt lat="43.19963" lon="-1.09436">
        <ele>174.014</ele>
        <time>2016-10-04T23:32:59Z</time>
      </trkpt>
      <trkpt lat="43.20012" lon="-1.09369">
        <ele>177.008</ele>
        <time>2016-10-04T23:33:19Z</time>
      </trkpt>
      <trkpt lat="43.20051" lon="-1.09417">
        <ele>179.06</ele>
        <time>2016-10-04T23:33:39Z</time>
      </trkpt>
      <trkpt lat="43.20043" lon="-1.09472">
        <ele>177.099</ele>
        <time>2016-10-04T23:33:59Z</time>
      </trkpt>
      <trkpt lat="43.20079" lon="-1.09593">
        <ele>177.025</ele>
        <time>2016-10-04T23:34:19Z</time>
      </trkpt>
      <trkpt lat="43.2011" lon="-1.09661">
        <ele>178.061</ele>
        <time>2016-10-04T23:34:39Z</time>
      </trkpt>
      <trkpt lat="43.2015" lon="-1.09702">
        <ele>180.062</ele>
        <time>2016-10-04T23:34:59Z</time>
      </trkpt>
      <trkpt lat="43.20218" lon="-1.09753">
        <ele>182.014</ele>
        <time>2016-10-04T23:35:19Z</time>
      </trkpt>
      <trkpt lat="43.20234" lon="-1.09919">
        <ele>195.087</ele>
        <time>2016-10-04T23:35:39Z</time>
      </trkpt>
      <trkpt lat="43.20312" lon="-1.09887">
        <ele>190.099</ele>
        <time>2016-10-04T23:35:59Z</time>
      </trkpt>
      <trkpt lat="43.20403" lon="-1.09867">
        <ele>208.039</ele>
        <time>2016-10-04T23:36:19Z</time>
      </trkpt>
      <trkpt lat="43.20472" lon="-1.09715">
        <ele>249.001</ele>
        <time>2016-10-04T23:36:39Z</time>
      </trkpt>
      <trkpt lat="43.20536" lon="-1.09612">
        <ele>280.021</ele>
        <time>2016-10-04T23:36:59Z</time>
      </trkpt>
      <trkpt lat="43.20503" lon="-1.0947">
        <ele>289.008</ele>
        <time>2016-10-04T23:37:19Z</time>
      </trkpt>
      <trkpt lat="43.20567" lon="-1.09569">
        <ele>289.089</ele>
        <time>2016-10-04T23:37:39Z</time>
      </trkpt>
      <trkpt lat="43.20595" lon="-1.09693">
        <ele>308.098</ele>
        <time>2016-10-04T23:37:59Z</time>
      </trkpt>
      <trkpt lat="43.20661" lon="-1.09816">
        <ele>325.024</ele>
        <time>2016-10-04T23:38:19Z</time>
      </trkpt>
      <trkpt lat="43.20741" lon="-1.09887">
        <ele>339.04</ele>
        <time>2016-10-04T23:38:39Z</time>
      </trkpt>
      <trkpt lat="43.20802" lon="-1.10045">
        <ele>360.071</ele>
        <time>2016-10-04T23:38:59Z</time>
      </trkpt>
      <trkpt lat="43.20907" lon="-1.10228">
        <ele>390.033</ele>
        <time>2016-10-04T23:39:19Z</time>
      </trkpt>
      <trkpt lat="43.20946" lon="-1.10329">
        <ele>409.026</ele>
        <time>2016-10-04T23:39:39Z</time>
      </trkpt>
      <trkpt lat="43.20955" lon="-1.10425">
        <ele>433.058</ele>
        <time>2016-10-04T23:39:59Z</time>
      </trkpt>
      <trkpt lat="43.20974" lon="-1.10474">
        <ele>438.046</ele>
        <time>2016-10-04T23:40:19Z</time>
      </trkpt>
      <trkpt lat="43.21091" lon="-1.10661">
        <ele>486.088</ele>
        <time>2016-10-04T23:40:39Z</time>
      </trkpt>
      <trkpt lat="43.21135" lon="-1.10775">
        <ele>504.016</ele>
        <time>2016-10-04T23:40:59Z</time>
      </trkpt>
      <trkpt lat="43.21161" lon="-1.10798">
        <ele>505.008</ele>
        <time>2016-10-04T23:41:19Z</time>
      </trkpt>
      <trkpt lat="43.20989" lon="-1.11185">
        <ele>497.09</ele>
        <time>2016-10-04T23:41:39Z</time>
      </trkpt>
      <trkpt lat="43.20891" lon="-1.11367">
        <ele>505.089</ele>
        <time>2016-10-04T23:41:59Z</time>
      </trkpt>
      <trkpt lat="43.20797" lon="-1.11442">
        <ele>513.045</ele>
        <time>2016-10-04T23:42:19Z</time>
      </trkpt>
      <trkpt lat="43.20745" lon="-1.11468">
        <ele>523.071</ele>
        <time>2016-10-04T23:42:39Z</time>
      </trkpt>
      <trkpt lat="43.20684" lon="-1.11513">
        <ele>531.012</ele>
        <time>2016-10-04T23:42:59Z</time>
      </trkpt>
      <trkpt lat="43.20505" lon="-1.11588">
        <ele>566.064</ele>
        <time>2016-10-04T23:43:19Z</time>
      </trkpt>
      <trkpt lat="43.20193" lon="-1.11412">
        <ele>551.087</ele>
        <time>2016-10-04T23:43:39Z</time>
      </trkpt>
      <trkpt lat="43.2011" lon="-1.11401">
        <ele>549.019</ele>
        <time>2016-10-04T23:43:59Z</time>
      </trkpt>
      <trkpt lat="43.20037" lon="-1.11361">
        <ele>552.028</ele>
        <time>2016-10-04T23:44:19Z</time>
      </trkpt>
      <trkpt lat="43.20017" lon="-1.11283">
        <ele>546.089</ele>
        <time>2016-10-04T23:44:39Z</time>
      </trkpt>
      <trkpt lat="43.20006" lon="-1.11187">
        <ele>541.017</ele>
        <time>2016-10-04T23:44:59Z</time>
      </trkpt>
      <trkpt lat="43.1994" lon="-1.11105">
        <ele>544.008</ele>
        <time>2016-10-04T23:45:19Z</time>
      </trkpt>
      <trkpt lat="43.19868" lon="-1.11065">
        <ele>541.068</ele>
        <time>2016-10-04T23:45:39Z</time>
      </trkpt>
      <trkpt lat="43.19746" lon="-1.11047">
        <ele>540.067</ele>
        <time>2016-10-04T23:45:59Z</time>
      </trkpt>
      <trkpt lat="43.19649" lon="-1.11086">
        <ele>540.053</ele>
        <time>2016-10-04T23:46:19Z</time>
      </trkpt>
      <trkpt lat="43.19557" lon="-1.11198">
        <ele>535.039</ele>
        <time>2016-10-04T23:46:39Z</time>
      </trkpt>
      <trkpt lat="43.194" lon="-1.1144">
        <ele>512.06</ele>
        <time>2016-10-04T23:46:59Z</time>
      </trkpt>
      <trkpt lat="43.19294" lon="-1.11567">
        <ele>496.032</ele>
        <time>2016-10-04T23:47:19Z</time>
      </trkpt>
      <trkpt lat="43.19263" lon="-1.11653">
        <ele>496.025</ele>
        <time>2016-10-04T23:47:39Z</time>
      </trkpt>
      <trkpt lat="43.19234" lon="-1.11831">
        <ele>488.037</ele>
        <time>2016-10-04T23:47:59Z</time>
      </trkpt>
      <trkpt lat="43.19258" lon="-1.11944">
        <ele>461.033</ele>
        <time>2016-10-04T23:48:19Z</time>
      </trkpt>
      <trkpt lat="43.19269" lon="-1.12198">
        <ele>455.023</ele>
        <time>2016-10-04T23:48:39Z</time>
      </trkpt>
      <trkpt lat="43.19191" lon="-1.12206">
        <ele>455.015</ele>
        <time>2016-10-04T23:48:59Z</time>
      </trkpt>
      <trkpt lat="43.1912" lon="-1.12275">
        <ele>450.008</ele>
        <time>2016-10-04T23:49:19Z</time>
      </trkpt>
      <trkpt lat="43.19106" lon="-1.12316">
        <ele>450.089</ele>
        <time>2016-10-04T23:49:39Z</time>
      </trkpt>
      <trkpt lat="43.19105" lon="-1.12444">
        <ele>471.038</ele>
        <time>2016-10-04T23:49:59Z</time>
      </trkpt>
      <trkpt lat="43.19036" lon="-1.12472">
        <ele>474.014</ele>
        <time>2016-10-04T23:50:19Z</time>
      </trkpt>
      <trkpt lat="43.18934" lon="-1.12457">
        <ele>480.01</ele>
        <time>2016-10-04T23:50:39Z</time>
      </trkpt>
      <trkpt lat="43.18854" lon="-1.12427">
        <ele>487.081</ele>
        <time>2016-10-04T23:50:59Z</time>
      </trkpt>
      <trkpt lat="43.18798" lon="-1.1241">
        <ele>476.083</ele>
        <time>2016-10-04T23:51:19Z</time>
      </trkpt>
      <trkpt lat="43.18718" lon="-1.12414">
        <ele>475.026</ele>
        <time>2016-10-04T23:51:39Z</time>
      </trkpt>
      <trkpt lat="43.18499" lon="-1.12502">
        <ele>498.038</ele>
        <time>2016-10-04T23:51:59Z</time>
      </trkpt>
      <trkpt lat="43.1844" lon="-1.12545">
        <ele>501.072</ele>
        <time>2016-10-04T23:52:19Z</time>
      </trkpt>
      <trkpt lat="43.1841" lon="-1.12582">
        <ele>499.013</ele>
        <time>2016-10-04T23:52:39Z</time>
      </trkpt>
      <trkpt lat="43.18374" lon="-1.12695">
        <ele>502.014</ele>
        <time>2016-10-04T23:52:59Z</time>
      </trkpt>
      <trkpt lat="43.1835" lon="-1.12869">
        <ele>510.008</ele>
        <time>2016-10-04T23:53:19Z</time>
      </trkpt>
      <trkpt lat="43.18269" lon="-1.13054">
        <ele>511.063</ele>
        <time>2016-10-04T23:53:39Z</time>
      </trkpt>
      <trkpt lat="43.18238" lon="-1.13092">
        <ele>503.062</ele>
        <time>2016-10-04T23:53:59Z</time>
      </trkpt>
      <trkpt lat="43.1821" lon="-1.1326">
        <ele>514.088</ele>
        <time>2016-10-04T23:54:19Z</time>
      </trkpt>
      <trkpt lat="43.18166" lon="-1.1332">
        <ele>519.014</ele>
        <time>2016-10-04T23:54:39Z</time>
      </trkpt>
      <trkpt lat="43.18124" lon="-1.13354">
        <ele>532.015</ele>
        <time>2016-10-04T23:54:59Z</time>
      </trkpt>
      <trkpt lat="43.18075" lon="-1.13296">
        <ele>530.017</ele>
        <time>2016-10-04T23:55:19Z</time>
      </trkpt>
      <trkpt lat="43.17972" lon="-1.13294">
        <ele>543.09</ele>
        <time>2016-10-04T23:55:39Z</time>
      </trkpt>
      <trkpt lat="43.17936" lon="-1.13305">
        <ele>545.042</ele>
        <time>2016-10-04T23:55:59Z</time>
      </trkpt>
      <trkpt lat="43.179" lon="-1.1327">
        <ele>551.026</ele>
        <time>2016-10-04T23:56:19Z</time>
      </trkpt>
      <trkpt lat="43.17911" lon="-1.1317">
        <ele>547.047</ele>
        <time>2016-10-04T23:56:39Z</time>
      </trkpt>
      <trkpt lat="43.17853" lon="-1.13043">
        <ele>541.011</ele>
        <time>2016-10-04T23:56:59Z</time>
      </trkpt>
      <trkpt lat="43.17823" lon="-1.13024">
        <ele>545.008</ele>
        <time>2016-10-04T23:57:19Z</time>
      </trkpt>
      <trkpt lat="43.17793" lon="-1.13019">
        <ele>544.058</ele>
        <time>2016-10-04T23:57:39Z</time>
      </trkpt>
      <trkpt lat="43.17779" lon="-1.13071">
        <ele>544.027</ele>
        <time>2016-10-04T23:57:59Z</time>
      </trkpt>
      <trkpt lat="43.17762" lon="-1.13165">
        <ele>540.053</ele>
        <time>2016-10-04T23:58:19Z</time>
      </trkpt>
      <trkpt lat="43.17617" lon="-1.13328">
        <ele>516.029</ele>
        <time>2016-10-04T23:58:39Z</time>
      </trkpt>
      <trkpt lat="43.17675" lon="-1.13818">
        <ele>507.02</ele>
        <time>2016-10-04T23:58:59Z</time>
      </trkpt>
      <trkpt lat="43.17737" lon="-1.1391">
        <ele>511.012</ele>
        <time>2016-10-04T23:59:19Z</time>
      </trkpt>
      <trkpt lat="43.17624" lon="-1.13998">
        <ele>490.075</ele>
        <time>2016-10-04T23:59:39Z</time>
      </trkpt>
      <trkpt lat="43.17549" lon="-1.14487">
        <ele>487.097</ele>
        <time>2016-10-04T23:59:59Z</time>
      </trkpt>
      <trkpt lat="43.17615" lon="-1.1462">
        <ele>509.098</ele>
        <time>2016-10-05T00:00:19Z</time>
      </trkpt>
      <trkpt lat="43.17789" lon="-1.15285">
        <ele>492.015</ele>
        <time>2016-10-05T00:00:39Z</time>
      </trkpt>
      <trkpt lat="43.17762" lon="-1.1559">
        <ele>450.026</ele>
        <time>2016-10-05T00:00:59Z</time>
      </trkpt>
      <trkpt lat="43.17837" lon="-1.15764">
        <ele>434.008</ele>
        <time>2016-10-05T00:01:19Z</time>
      </trkpt>
      <trkpt lat="43.17873" lon="-1.15903">
        <ele>410.095</ele>
        <time>2016-10-05T00:01:39Z</time>
      </trkpt>
      <trkpt lat="43.17782" lon="-1.16238">
        <ele>358.014</ele>
        <time>2016-10-05T00:01:59Z</time>
      </trkpt>
      <trkpt lat="43.17878" lon="-1.16401">
        <ele>340.02</ele>
        <time>2016-10-05T00:02:19Z</time>
      </trkpt>
      <trkpt lat="43.17898" lon="-1.16521">
        <ele>332.036</ele>
        <time>2016-10-05T00:02:39Z</time>
      </trkpt>
      <trkpt lat="43.17942" lon="-1.16637">
        <ele>311.077</ele>
        <time>2016-10-05T00:02:59Z</time>
      </trkpt>
      <trkpt lat="43.17961" lon="-1.16785">
        <ele>298.019</ele>
        <time>2016-10-05T00:03:19Z</time>
      </trkpt>
      <trkpt lat="43.17923" lon="-1.16914">
        <ele>288.052</ele>
        <time>2016-10-05T00:03:39Z</time>
      </trkpt>
      <trkpt lat="43.178" lon="-1.1712">
        <ele>277.024</ele>
        <time>2016-10-05T00:03:59Z</time>
      </trkpt>
      <trkpt lat="43.17667" lon="-1.17266">
        <ele>272.087</ele>
        <time>2016-10-05T00:04:19Z</time>
      </trkpt>
    </trkseg>
  </trk>
</gpx>